<gpx xmlns="http://www.topografix.com/GPX/1/1" xmlns:xsi="http://www.w3.org/2001/XMLSchema-instance" version="1.1" xsi:schemaLocation="http://www.topografix.com/GPX/1/1 http://www.topografix.com/GPX/1/1/gpx.xsd" creator="MotionXGPSFull 24.2 Build 5063R64">
<trk>
<name>Mac/Ken&#8217;s Track</name>
<desc>24 Jan 2018  8:37 am</desc>
<trkseg>
<trkpt lat="-27.7015179" lon="153.2007831">
<ele>28.641</ele>
<time>2018-01-23T22:40:14.998Z</time>
</trkpt>
<trkpt lat="-27.7016582" lon="153.2008236">
<ele>28.693</ele>
<time>2018-01-23T22:40:18.285Z</time>
</trkpt>
<trkpt lat="-27.7018267" lon="153.2008039">
<ele>29.046</ele>
<time>2018-01-23T22:40:21.412Z</time>
</trkpt>
<trkpt lat="-27.7019686" lon="153.2007760">
<ele>29.767</ele>
<time>2018-01-23T22:40:23.771Z</time>
</trkpt>
<trkpt lat="-27.7022210" lon="153.2007146">
<ele>30.520</ele>
<time>2018-01-23T22:40:27.248Z</time>
</trkpt>
<trkpt lat="-27.7025211" lon="153.2006606">
<ele>30.991</ele>
<time>2018-01-23T22:40:30.538Z</time>
</trkpt>
<trkpt lat="-27.7028167" lon="153.2006219">
<ele>30.804</ele>
<time>2018-01-23T22:40:33.439Z</time>
</trkpt>
<trkpt lat="-27.7031274" lon="153.2007096">
<ele>29.529</ele>
<time>2018-01-23T22:40:36.372Z</time>
</trkpt>
<trkpt lat="-27.7034160" lon="153.2008716">
<ele>27.602</ele>
<time>2018-01-23T22:40:39.258Z</time>
</trkpt>
<trkpt lat="-27.7036362" lon="153.2011347">
<ele>26.093</ele>
<time>2018-01-23T22:40:42.192Z</time>
</trkpt>
<trkpt lat="-27.7038293" lon="153.2014422">
<ele>25.552</ele>
<time>2018-01-23T22:40:45.243Z</time>
</trkpt>
<trkpt lat="-27.7040082" lon="153.2018013">
<ele>25.855</ele>
<time>2018-01-23T22:40:48.428Z</time>
</trkpt>
<trkpt lat="-27.7041344" lon="153.2021955">
<ele>26.543</ele>
<time>2018-01-23T22:40:51.490Z</time>
</trkpt>
<trkpt lat="-27.7042941" lon="153.2025754">
<ele>27.123</ele>
<time>2018-01-23T22:40:54.440Z</time>
</trkpt>
<trkpt lat="-27.7045114" lon="153.2029115">
<ele>27.298</ele>
<time>2018-01-23T22:40:57.323Z</time>
</trkpt>
<trkpt lat="-27.7047546" lon="153.2032164">
<ele>26.898</ele>
<time>2018-01-23T22:41:00.214Z</time>
</trkpt>
<trkpt lat="-27.7049926" lon="153.2035113">
<ele>25.969</ele>
<time>2018-01-23T22:41:03.206Z</time>
</trkpt>
<trkpt lat="-27.7051914" lon="153.2037382">
<ele>24.800</ele>
<time>2018-01-23T22:41:06.179Z</time>
</trkpt>
<trkpt lat="-27.7052986" lon="153.2038233">
<ele>23.657</ele>
<time>2018-01-23T22:41:07.998Z</time>
</trkpt>
<trkpt lat="-27.7052986" lon="153.2038233">
<ele>22.765</ele>
<time>2018-01-23T22:41:11.998Z</time>
</trkpt>
<trkpt lat="-27.7052986" lon="153.2038233">
<ele>22.355</ele>
<time>2018-01-23T22:41:15.840Z</time>
</trkpt>
<trkpt lat="-27.7054507" lon="153.2038452">
<ele>22.393</ele>
<time>2018-01-23T22:41:22.314Z</time>
</trkpt>
<trkpt lat="-27.7055436" lon="153.2038595">
<ele>22.440</ele>
<time>2018-01-23T22:41:24.998Z</time>
</trkpt>
<trkpt lat="-27.7055436" lon="153.2038595">
<ele>22.192</ele>
<time>2018-01-23T22:41:27.998Z</time>
</trkpt>
<trkpt lat="-27.7055436" lon="153.2038595">
<ele>21.912</ele>
<time>2018-01-23T22:41:31.029Z</time>
</trkpt>
<trkpt lat="-27.7057735" lon="153.2039554">
<ele>21.899</ele>
<time>2018-01-23T22:41:35.339Z</time>
</trkpt>
<trkpt lat="-27.7061016" lon="153.2040942">
<ele>21.977</ele>
<time>2018-01-23T22:41:38.845Z</time>
</trkpt>
<trkpt lat="-27.7064961" lon="153.2043465">
<ele>21.926</ele>
<time>2018-01-23T22:41:42.596Z</time>
</trkpt>
<trkpt lat="-27.7069909" lon="153.2046820">
<ele>22.175</ele>
<time>2018-01-23T22:41:46.462Z</time>
</trkpt>
<trkpt lat="-27.7075937" lon="153.2050288">
<ele>23.595</ele>
<time>2018-01-23T22:41:50.148Z</time>
</trkpt>
<trkpt lat="-27.7082555" lon="153.2054186">
<ele>26.112</ele>
<time>2018-01-23T22:41:53.523Z</time>
</trkpt>
<trkpt lat="-27.7089455" lon="153.2059116">
<ele>28.521</ele>
<time>2018-01-23T22:41:56.857Z</time>
</trkpt>
<trkpt lat="-27.7096060" lon="153.2063445">
<ele>29.935</ele>
<time>2018-01-23T22:42:00.055Z</time>
</trkpt>
<trkpt lat="-27.7102386" lon="153.2066528">
<ele>30.361</ele>
<time>2018-01-23T22:42:02.935Z</time>
</trkpt>
<trkpt lat="-27.7108932" lon="153.2069802">
<ele>30.087</ele>
<time>2018-01-23T22:42:05.800Z</time>
</trkpt>
<trkpt lat="-27.7115887" lon="153.2073482">
<ele>29.293</ele>
<time>2018-01-23T22:42:08.808Z</time>
</trkpt>
<trkpt lat="-27.7122645" lon="153.2077370">
<ele>28.045</ele>
<time>2018-01-23T22:42:11.807Z</time>
</trkpt>
<trkpt lat="-27.7129546" lon="153.2081095">
<ele>26.308</ele>
<time>2018-01-23T22:42:14.911Z</time>
</trkpt>
<trkpt lat="-27.7136199" lon="153.2084882">
<ele>24.112</ele>
<time>2018-01-23T22:42:18.002Z</time>
</trkpt>
<trkpt lat="-27.7142606" lon="153.2088352">
<ele>21.651</ele>
<time>2018-01-23T22:42:20.986Z</time>
</trkpt>
<trkpt lat="-27.7148902" lon="153.2092111">
<ele>19.119</ele>
<time>2018-01-23T22:42:23.995Z</time>
</trkpt>
<trkpt lat="-27.7155179" lon="153.2096016">
<ele>16.700</ele>
<time>2018-01-23T22:42:27.035Z</time>
</trkpt>
<trkpt lat="-27.7161163" lon="153.2100168">
<ele>14.634</ele>
<time>2018-01-23T22:42:30.012Z</time>
</trkpt>
<trkpt lat="-27.7166714" lon="153.2104588">
<ele>13.164</ele>
<time>2018-01-23T22:42:32.893Z</time>
</trkpt>
<trkpt lat="-27.7172854" lon="153.2109039">
<ele>12.282</ele>
<time>2018-01-23T22:42:36.001Z</time>
</trkpt>
<trkpt lat="-27.7178554" lon="153.2113528">
<ele>11.697</ele>
<time>2018-01-23T22:42:38.971Z</time>
</trkpt>
<trkpt lat="-27.7183971" lon="153.2118351">
<ele>11.206</ele>
<time>2018-01-23T22:42:41.915Z</time>
</trkpt>
<trkpt lat="-27.7189156" lon="153.2123809">
<ele>10.800</ele>
<time>2018-01-23T22:42:44.889Z</time>
</trkpt>
<trkpt lat="-27.7194412" lon="153.2129669">
<ele>10.524</ele>
<time>2018-01-23T22:42:47.878Z</time>
</trkpt>
<trkpt lat="-27.7199601" lon="153.2135751">
<ele>10.537</ele>
<time>2018-01-23T22:42:50.844Z</time>
</trkpt>
<trkpt lat="-27.7204565" lon="153.2142519">
<ele>10.858</ele>
<time>2018-01-23T22:42:53.997Z</time>
</trkpt>
<trkpt lat="-27.7209184" lon="153.2149115">
<ele>11.267</ele>
<time>2018-01-23T22:42:57.133Z</time>
</trkpt>
<trkpt lat="-27.7213393" lon="153.2155410">
<ele>11.561</ele>
<time>2018-01-23T22:43:00.043Z</time>
</trkpt>
<trkpt lat="-27.7217792" lon="153.2161619">
<ele>11.689</ele>
<time>2018-01-23T22:43:02.896Z</time>
</trkpt>
<trkpt lat="-27.7222974" lon="153.2168098">
<ele>11.673</ele>
<time>2018-01-23T22:43:06.041Z</time>
</trkpt>
<trkpt lat="-27.7227527" lon="153.2174556">
<ele>11.608</ele>
<time>2018-01-23T22:43:09.054Z</time>
</trkpt>
<trkpt lat="-27.7232248" lon="153.2180796">
<ele>11.570</ele>
<time>2018-01-23T22:43:12.056Z</time>
</trkpt>
<trkpt lat="-27.7237217" lon="153.2186706">
<ele>11.572</ele>
<time>2018-01-23T22:43:15.007Z</time>
</trkpt>
<trkpt lat="-27.7242619" lon="153.2192491">
<ele>11.661</ele>
<time>2018-01-23T22:43:18.001Z</time>
</trkpt>
<trkpt lat="-27.7247797" lon="153.2198418">
<ele>11.997</ele>
<time>2018-01-23T22:43:20.950Z</time>
</trkpt>
<trkpt lat="-27.7253517" lon="153.2204163">
<ele>12.546</ele>
<time>2018-01-23T22:43:24.028Z</time>
</trkpt>
<trkpt lat="-27.7259141" lon="153.2209435">
<ele>12.917</ele>
<time>2018-01-23T22:43:26.981Z</time>
</trkpt>
<trkpt lat="-27.7264757" lon="153.2214663">
<ele>12.675</ele>
<time>2018-01-23T22:43:29.934Z</time>
</trkpt>
<trkpt lat="-27.7270687" lon="153.2219907">
<ele>11.772</ele>
<time>2018-01-23T22:43:32.992Z</time>
</trkpt>
<trkpt lat="-27.7276399" lon="153.2224916">
<ele>10.698</ele>
<time>2018-01-23T22:43:35.926Z</time>
</trkpt>
<trkpt lat="-27.7282354" lon="153.2229843">
<ele>10.056</ele>
<time>2018-01-23T22:43:38.900Z</time>
</trkpt>
<trkpt lat="-27.7288382" lon="153.2234445">
<ele>10.077</ele>
<time>2018-01-23T22:43:41.784Z</time>
</trkpt>
<trkpt lat="-27.7294732" lon="153.2239002">
<ele>10.550</ele>
<time>2018-01-23T22:43:44.730Z</time>
</trkpt>
<trkpt lat="-27.7301134" lon="153.2243924">
<ele>11.043</ele>
<time>2018-01-23T22:43:47.754Z</time>
</trkpt>
<trkpt lat="-27.7307340" lon="153.2248748">
<ele>11.278</ele>
<time>2018-01-23T22:43:50.714Z</time>
</trkpt>
<trkpt lat="-27.7313749" lon="153.2253664">
<ele>11.286</ele>
<time>2018-01-23T22:43:53.788Z</time>
</trkpt>
<trkpt lat="-27.7319965" lon="153.2258248">
<ele>11.183</ele>
<time>2018-01-23T22:43:56.740Z</time>
</trkpt>
<trkpt lat="-27.7326226" lon="153.2263145">
<ele>11.036</ele>
<time>2018-01-23T22:43:59.741Z</time>
</trkpt>
<trkpt lat="-27.7332561" lon="153.2268182">
<ele>10.891</ele>
<time>2018-01-23T22:44:02.765Z</time>
</trkpt>
<trkpt lat="-27.7339185" lon="153.2272685">
<ele>10.835</ele>
<time>2018-01-23T22:44:05.781Z</time>
</trkpt>
<trkpt lat="-27.7345541" lon="153.2277421">
<ele>10.912</ele>
<time>2018-01-23T22:44:08.755Z</time>
</trkpt>
<trkpt lat="-27.7351879" lon="153.2282056">
<ele>11.113</ele>
<time>2018-01-23T22:44:11.685Z</time>
</trkpt>
<trkpt lat="-27.7358473" lon="153.2286745">
<ele>11.492</ele>
<time>2018-01-23T22:44:14.689Z</time>
</trkpt>
<trkpt lat="-27.7362980" lon="153.2290090">
<ele>12.037</ele>
<time>2018-01-23T22:44:16.790Z</time>
</trkpt>
<trkpt lat="-27.7369358" lon="153.2294769">
<ele>12.605</ele>
<time>2018-01-23T22:44:19.803Z</time>
</trkpt>
<trkpt lat="-27.7375941" lon="153.2299220">
<ele>13.157</ele>
<time>2018-01-23T22:44:22.919Z</time>
</trkpt>
<trkpt lat="-27.7382354" lon="153.2303135">
<ele>13.796</ele>
<time>2018-01-23T22:44:25.883Z</time>
</trkpt>
<trkpt lat="-27.7388624" lon="153.2306946">
<ele>14.753</ele>
<time>2018-01-23T22:44:28.713Z</time>
</trkpt>
<trkpt lat="-27.7395443" lon="153.2310697">
<ele>16.104</ele>
<time>2018-01-23T22:44:31.674Z</time>
</trkpt>
<trkpt lat="-27.7402548" lon="153.2314481">
<ele>17.396</ele>
<time>2018-01-23T22:44:34.725Z</time>
</trkpt>
<trkpt lat="-27.7409566" lon="153.2317954">
<ele>18.098</ele>
<time>2018-01-23T22:44:37.715Z</time>
</trkpt>
<trkpt lat="-27.7416856" lon="153.2321259">
<ele>18.213</ele>
<time>2018-01-23T22:44:40.796Z</time>
</trkpt>
<trkpt lat="-27.7423872" lon="153.2324440">
<ele>18.115</ele>
<time>2018-01-23T22:44:43.772Z</time>
</trkpt>
<trkpt lat="-27.7431119" lon="153.2327138">
<ele>18.142</ele>
<time>2018-01-23T22:44:46.787Z</time>
</trkpt>
<trkpt lat="-27.7438143" lon="153.2330222">
<ele>18.338</ele>
<time>2018-01-23T22:44:49.770Z</time>
</trkpt>
<trkpt lat="-27.7445371" lon="153.2333064">
<ele>18.511</ele>
<time>2018-01-23T22:44:52.803Z</time>
</trkpt>
<trkpt lat="-27.7452467" lon="153.2336106">
<ele>18.522</ele>
<time>2018-01-23T22:44:55.817Z</time>
</trkpt>
<trkpt lat="-27.7459431" lon="153.2339122">
<ele>18.422</ele>
<time>2018-01-23T22:44:58.785Z</time>
</trkpt>
<trkpt lat="-27.7466648" lon="153.2341683">
<ele>18.416</ele>
<time>2018-01-23T22:45:01.802Z</time>
</trkpt>
<trkpt lat="-27.7473634" lon="153.2344646">
<ele>18.608</ele>
<time>2018-01-23T22:45:04.775Z</time>
</trkpt>
<trkpt lat="-27.7480409" lon="153.2347754">
<ele>18.791</ele>
<time>2018-01-23T22:45:07.672Z</time>
</trkpt>
<trkpt lat="-27.7485266" lon="153.2349680">
<ele>18.775</ele>
<time>2018-01-23T22:45:09.702Z</time>
</trkpt>
<trkpt lat="-27.7490055" lon="153.2351774">
<ele>18.674</ele>
<time>2018-01-23T22:45:11.724Z</time>
</trkpt>
<trkpt lat="-27.7494987" lon="153.2353658">
<ele>18.633</ele>
<time>2018-01-23T22:45:13.775Z</time>
</trkpt>
<trkpt lat="-27.7499611" lon="153.2355725">
<ele>18.590</ele>
<time>2018-01-23T22:45:15.734Z</time>
</trkpt>
<trkpt lat="-27.7504341" lon="153.2358221">
<ele>18.392</ele>
<time>2018-01-23T22:45:17.791Z</time>
</trkpt>
<trkpt lat="-27.7509207" lon="153.2360628">
<ele>17.996</ele>
<time>2018-01-23T22:45:19.885Z</time>
</trkpt>
<trkpt lat="-27.7513552" lon="153.2363142">
<ele>17.471</ele>
<time>2018-01-23T22:45:21.812Z</time>
</trkpt>
<trkpt lat="-27.7518038" lon="153.2365619">
<ele>16.918</ele>
<time>2018-01-23T22:45:23.788Z</time>
</trkpt>
<trkpt lat="-27.7522511" lon="153.2368411">
<ele>16.489</ele>
<time>2018-01-23T22:45:25.813Z</time>
</trkpt>
<trkpt lat="-27.7526941" lon="153.2371139">
<ele>16.283</ele>
<time>2018-01-23T22:45:27.812Z</time>
</trkpt>
<trkpt lat="-27.7531240" lon="153.2373937">
<ele>16.257</ele>
<time>2018-01-23T22:45:29.776Z</time>
</trkpt>
<trkpt lat="-27.7535365" lon="153.2376936">
<ele>16.305</ele>
<time>2018-01-23T22:45:31.714Z</time>
</trkpt>
<trkpt lat="-27.7539488" lon="153.2380158">
<ele>16.291</ele>
<time>2018-01-23T22:45:33.692Z</time>
</trkpt>
<trkpt lat="-27.7543595" lon="153.2383868">
<ele>16.097</ele>
<time>2018-01-23T22:45:35.766Z</time>
</trkpt>
<trkpt lat="-27.7547732" lon="153.2387307">
<ele>15.730</ele>
<time>2018-01-23T22:45:37.792Z</time>
</trkpt>
<trkpt lat="-27.7551828" lon="153.2390610">
<ele>15.303</ele>
<time>2018-01-23T22:45:39.780Z</time>
</trkpt>
<trkpt lat="-27.7555815" lon="153.2394264">
<ele>14.843</ele>
<time>2018-01-23T22:45:41.810Z</time>
</trkpt>
<trkpt lat="-27.7559611" lon="153.2397928">
<ele>14.261</ele>
<time>2018-01-23T22:45:43.785Z</time>
</trkpt>
<trkpt lat="-27.7563164" lon="153.2401920">
<ele>13.567</ele>
<time>2018-01-23T22:45:45.768Z</time>
</trkpt>
<trkpt lat="-27.7566997" lon="153.2405901">
<ele>12.969</ele>
<time>2018-01-23T22:45:47.828Z</time>
</trkpt>
<trkpt lat="-27.7570721" lon="153.2409889">
<ele>12.593</ele>
<time>2018-01-23T22:45:49.855Z</time>
</trkpt>
<trkpt lat="-27.7574210" lon="153.2414167">
<ele>12.362</ele>
<time>2018-01-23T22:45:51.896Z</time>
</trkpt>
<trkpt lat="-27.7577801" lon="153.2418227">
<ele>12.179</ele>
<time>2018-01-23T22:45:53.931Z</time>
</trkpt>
<trkpt lat="-27.7581269" lon="153.2422344">
<ele>12.035</ele>
<time>2018-01-23T22:45:55.963Z</time>
</trkpt>
<trkpt lat="-27.7584342" lon="153.2426634">
<ele>11.991</ele>
<time>2018-01-23T22:45:57.937Z</time>
</trkpt>
<trkpt lat="-27.7587390" lon="153.2430890">
<ele>12.179</ele>
<time>2018-01-23T22:45:59.890Z</time>
</trkpt>
<trkpt lat="-27.7590677" lon="153.2434995">
<ele>12.566</ele>
<time>2018-01-23T22:46:01.861Z</time>
</trkpt>
<trkpt lat="-27.7594118" lon="153.2439011">
<ele>12.759</ele>
<time>2018-01-23T22:46:03.853Z</time>
</trkpt>
<trkpt lat="-27.7597254" lon="153.2443304">
<ele>12.391</ele>
<time>2018-01-23T22:46:05.839Z</time>
</trkpt>
<trkpt lat="-27.7600671" lon="153.2447340">
<ele>11.583</ele>
<time>2018-01-23T22:46:07.830Z</time>
</trkpt>
<trkpt lat="-27.7604268" lon="153.2451170">
<ele>10.694</ele>
<time>2018-01-23T22:46:09.821Z</time>
</trkpt>
<trkpt lat="-27.7607988" lon="153.2455005">
<ele>9.973</ele>
<time>2018-01-23T22:46:11.849Z</time>
</trkpt>
<trkpt lat="-27.7611636" lon="153.2458797">
<ele>9.517</ele>
<time>2018-01-23T22:46:13.844Z</time>
</trkpt>
<trkpt lat="-27.7615396" lon="153.2462402">
<ele>9.316</ele>
<time>2018-01-23T22:46:15.830Z</time>
</trkpt>
<trkpt lat="-27.7619083" lon="153.2465963">
<ele>9.314</ele>
<time>2018-01-23T22:46:17.785Z</time>
</trkpt>
<trkpt lat="-27.7623056" lon="153.2469546">
<ele>9.427</ele>
<time>2018-01-23T22:46:19.836Z</time>
</trkpt>
<trkpt lat="-27.7627082" lon="153.2472797">
<ele>9.511</ele>
<time>2018-01-23T22:46:21.832Z</time>
</trkpt>
<trkpt lat="-27.7631081" lon="153.2476056">
<ele>9.481</ele>
<time>2018-01-23T22:46:23.815Z</time>
</trkpt>
<trkpt lat="-27.7635156" lon="153.2479264">
<ele>9.414</ele>
<time>2018-01-23T22:46:25.807Z</time>
</trkpt>
<trkpt lat="-27.7639317" lon="153.2482273">
<ele>9.499</ele>
<time>2018-01-23T22:46:27.789Z</time>
</trkpt>
<trkpt lat="-27.7643517" lon="153.2485207">
<ele>9.813</ele>
<time>2018-01-23T22:46:29.774Z</time>
</trkpt>
<trkpt lat="-27.7647606" lon="153.2488266">
<ele>10.186</ele>
<time>2018-01-23T22:46:31.747Z</time>
</trkpt>
<trkpt lat="-27.7651785" lon="153.2491289">
<ele>10.410</ele>
<time>2018-01-23T22:46:33.739Z</time>
</trkpt>
<trkpt lat="-27.7656251" lon="153.2494021">
<ele>10.489</ele>
<time>2018-01-23T22:46:35.774Z</time>
</trkpt>
<trkpt lat="-27.7660839" lon="153.2496503">
<ele>10.529</ele>
<time>2018-01-23T22:46:37.816Z</time>
</trkpt>
<trkpt lat="-27.7665479" lon="153.2498709">
<ele>10.627</ele>
<time>2018-01-23T22:46:39.846Z</time>
</trkpt>
<trkpt lat="-27.7670138" lon="153.2501062">
<ele>10.833</ele>
<time>2018-01-23T22:46:41.908Z</time>
</trkpt>
<trkpt lat="-27.7674764" lon="153.2502923">
<ele>11.117</ele>
<time>2018-01-23T22:46:43.893Z</time>
</trkpt>
<trkpt lat="-27.7679388" lon="153.2504681">
<ele>11.371</ele>
<time>2018-01-23T22:46:45.866Z</time>
</trkpt>
<trkpt lat="-27.7683865" lon="153.2506691">
<ele>11.499</ele>
<time>2018-01-23T22:46:47.809Z</time>
</trkpt>
<trkpt lat="-27.7688626" lon="153.2508576">
<ele>11.484</ele>
<time>2018-01-23T22:46:49.835Z</time>
</trkpt>
<trkpt lat="-27.7693467" lon="153.2510494">
<ele>11.381</ele>
<time>2018-01-23T22:46:51.887Z</time>
</trkpt>
<trkpt lat="-27.7698077" lon="153.2512070">
<ele>11.210</ele>
<time>2018-01-23T22:46:53.808Z</time>
</trkpt>
<trkpt lat="-27.7702972" lon="153.2513336">
<ele>11.000</ele>
<time>2018-01-23T22:46:55.809Z</time>
</trkpt>
<trkpt lat="-27.7707937" lon="153.2514905">
<ele>10.794</ele>
<time>2018-01-23T22:46:57.872Z</time>
</trkpt>
<trkpt lat="-27.7712871" lon="153.2516159">
<ele>10.538</ele>
<time>2018-01-23T22:46:59.910Z</time>
</trkpt>
<trkpt lat="-27.7717606" lon="153.2517403">
<ele>10.136</ele>
<time>2018-01-23T22:47:01.876Z</time>
</trkpt>
<trkpt lat="-27.7722661" lon="153.2518181">
<ele>9.631</ele>
<time>2018-01-23T22:47:03.940Z</time>
</trkpt>
<trkpt lat="-27.7727513" lon="153.2518890">
<ele>9.190</ele>
<time>2018-01-23T22:47:05.915Z</time>
</trkpt>
<trkpt lat="-27.7732438" lon="153.2519797">
<ele>8.985</ele>
<time>2018-01-23T22:47:07.925Z</time>
</trkpt>
<trkpt lat="-27.7737475" lon="153.2520440">
<ele>9.059</ele>
<time>2018-01-23T22:47:09.961Z</time>
</trkpt>
<trkpt lat="-27.7742331" lon="153.2520798">
<ele>9.298</ele>
<time>2018-01-23T22:47:11.915Z</time>
</trkpt>
<trkpt lat="-27.7747404" lon="153.2521057">
<ele>9.585</ele>
<time>2018-01-23T22:47:13.959Z</time>
</trkpt>
<trkpt lat="-27.7752441" lon="153.2521223">
<ele>9.930</ele>
<time>2018-01-23T22:47:15.998Z</time>
</trkpt>
<trkpt lat="-27.7757317" lon="153.2521472">
<ele>10.399</ele>
<time>2018-01-23T22:47:17.981Z</time>
</trkpt>
<trkpt lat="-27.7762124" lon="153.2521843">
<ele>10.955</ele>
<time>2018-01-23T22:47:19.936Z</time>
</trkpt>
<trkpt lat="-27.7767069" lon="153.2522349">
<ele>11.496</ele>
<time>2018-01-23T22:47:21.942Z</time>
</trkpt>
<trkpt lat="-27.7772056" lon="153.2523072">
<ele>11.986</ele>
<time>2018-01-23T22:47:23.967Z</time>
</trkpt>
<trkpt lat="-27.7776719" lon="153.2523907">
<ele>12.423</ele>
<time>2018-01-23T22:47:25.866Z</time>
</trkpt>
<trkpt lat="-27.7781645" lon="153.2524681">
<ele>12.834</ele>
<time>2018-01-23T22:47:27.866Z</time>
</trkpt>
<trkpt lat="-27.7786729" lon="153.2525908">
<ele>13.224</ele>
<time>2018-01-23T22:47:29.957Z</time>
</trkpt>
<trkpt lat="-27.7791472" lon="153.2527271">
<ele>13.531</ele>
<time>2018-01-23T22:47:31.928Z</time>
</trkpt>
<trkpt lat="-27.7796404" lon="153.2529028">
<ele>13.717</ele>
<time>2018-01-23T22:47:34.013Z</time>
</trkpt>
<trkpt lat="-27.7801178" lon="153.2530477">
<ele>13.790</ele>
<time>2018-01-23T22:47:36.004Z</time>
</trkpt>
<trkpt lat="-27.7805960" lon="153.2532076">
<ele>13.776</ele>
<time>2018-01-23T22:47:38.006Z</time>
</trkpt>
<trkpt lat="-27.7810579" lon="153.2534105">
<ele>13.772</ele>
<time>2018-01-23T22:47:39.994Z</time>
</trkpt>
<trkpt lat="-27.7815328" lon="153.2535956">
<ele>13.923</ele>
<time>2018-01-23T22:47:42.011Z</time>
</trkpt>
<trkpt lat="-27.7819933" lon="153.2538056">
<ele>14.235</ele>
<time>2018-01-23T22:47:44.009Z</time>
</trkpt>
<trkpt lat="-27.7824497" lon="153.2540264">
<ele>14.553</ele>
<time>2018-01-23T22:47:46.011Z</time>
</trkpt>
<trkpt lat="-27.7829197" lon="153.2542493">
<ele>14.820</ele>
<time>2018-01-23T22:47:48.068Z</time>
</trkpt>
<trkpt lat="-27.7833728" lon="153.2544857">
<ele>15.092</ele>
<time>2018-01-23T22:47:50.082Z</time>
</trkpt>
<trkpt lat="-27.7838061" lon="153.2547473">
<ele>15.415</ele>
<time>2018-01-23T22:47:52.066Z</time>
</trkpt>
<trkpt lat="-27.7842376" lon="153.2550191">
<ele>15.766</ele>
<time>2018-01-23T22:47:54.062Z</time>
</trkpt>
<trkpt lat="-27.7846590" lon="153.2552794">
<ele>16.060</ele>
<time>2018-01-23T22:47:56.001Z</time>
</trkpt>
<trkpt lat="-27.7850806" lon="153.2555691">
<ele>16.334</ele>
<time>2018-01-23T22:47:57.986Z</time>
</trkpt>
<trkpt lat="-27.7855063" lon="153.2558676">
<ele>16.734</ele>
<time>2018-01-23T22:47:59.995Z</time>
</trkpt>
<trkpt lat="-27.7859228" lon="153.2561735">
<ele>17.287</ele>
<time>2018-01-23T22:48:01.980Z</time>
</trkpt>
<trkpt lat="-27.7863496" lon="153.2565113">
<ele>17.955</ele>
<time>2018-01-23T22:48:04.059Z</time>
</trkpt>
<trkpt lat="-27.7867553" lon="153.2568363">
<ele>18.612</ele>
<time>2018-01-23T22:48:06.048Z</time>
</trkpt>
<trkpt lat="-27.7871923" lon="153.2571287">
<ele>19.141</ele>
<time>2018-01-23T22:48:08.086Z</time>
</trkpt>
<trkpt lat="-27.7876091" lon="153.2574367">
<ele>19.896</ele>
<time>2018-01-23T22:48:10.085Z</time>
</trkpt>
<trkpt lat="-27.7880208" lon="153.2577126">
<ele>21.118</ele>
<time>2018-01-23T22:48:12.002Z</time>
</trkpt>
<trkpt lat="-27.7884599" lon="153.2579782">
<ele>22.265</ele>
<time>2018-01-23T22:48:13.996Z</time>
</trkpt>
<trkpt lat="-27.7888886" lon="153.2583053">
<ele>22.836</ele>
<time>2018-01-23T22:48:16.065Z</time>
</trkpt>
<trkpt lat="-27.7893407" lon="153.2585237">
<ele>22.983</ele>
<time>2018-01-23T22:48:18.026Z</time>
</trkpt>
<trkpt lat="-27.7898018" lon="153.2587141">
<ele>23.001</ele>
<time>2018-01-23T22:48:19.986Z</time>
</trkpt>
<trkpt lat="-27.7902840" lon="153.2589309">
<ele>23.013</ele>
<time>2018-01-23T22:48:22.067Z</time>
</trkpt>
<trkpt lat="-27.7907323" lon="153.2591626">
<ele>23.004</ele>
<time>2018-01-23T22:48:24.048Z</time>
</trkpt>
<trkpt lat="-27.7911822" lon="153.2593835">
<ele>22.897</ele>
<time>2018-01-23T22:48:26.019Z</time>
</trkpt>
<trkpt lat="-27.7916639" lon="153.2595619">
<ele>22.583</ele>
<time>2018-01-23T22:48:28.054Z</time>
</trkpt>
<trkpt lat="-27.7921396" lon="153.2597663">
<ele>22.022</ele>
<time>2018-01-23T22:48:30.093Z</time>
</trkpt>
<trkpt lat="-27.7926008" lon="153.2599383">
<ele>21.272</ele>
<time>2018-01-23T22:48:32.037Z</time>
</trkpt>
<trkpt lat="-27.7930858" lon="153.2600800">
<ele>20.328</ele>
<time>2018-01-23T22:48:34.043Z</time>
</trkpt>
<trkpt lat="-27.7935721" lon="153.2602040">
<ele>19.198</ele>
<time>2018-01-23T22:48:36.045Z</time>
</trkpt>
<trkpt lat="-27.7940640" lon="153.2603345">
<ele>18.096</ele>
<time>2018-01-23T22:48:38.084Z</time>
</trkpt>
<trkpt lat="-27.7945481" lon="153.2604358">
<ele>17.271</ele>
<time>2018-01-23T22:48:40.077Z</time>
</trkpt>
<trkpt lat="-27.7950275" lon="153.2605589">
<ele>16.798</ele>
<time>2018-01-23T22:48:42.062Z</time>
</trkpt>
<trkpt lat="-27.7955088" lon="153.2606923">
<ele>16.633</ele>
<time>2018-01-23T22:48:44.061Z</time>
</trkpt>
<trkpt lat="-27.7959907" lon="153.2608099">
<ele>16.668</ele>
<time>2018-01-23T22:48:46.047Z</time>
</trkpt>
<trkpt lat="-27.7964697" lon="153.2609772">
<ele>16.772</ele>
<time>2018-01-23T22:48:48.069Z</time>
</trkpt>
<trkpt lat="-27.7969587" lon="153.2610853">
<ele>16.778</ele>
<time>2018-01-23T22:48:50.079Z</time>
</trkpt>
<trkpt lat="-27.7974585" lon="153.2612118">
<ele>16.520</ele>
<time>2018-01-23T22:48:52.139Z</time>
</trkpt>
<trkpt lat="-27.7979447" lon="153.2613764">
<ele>15.964</ele>
<time>2018-01-23T22:48:54.173Z</time>
</trkpt>
<trkpt lat="-27.7984317" lon="153.2615280">
<ele>15.194</ele>
<time>2018-01-23T22:48:56.200Z</time>
</trkpt>
<trkpt lat="-27.7988952" lon="153.2617061">
<ele>14.314</ele>
<time>2018-01-23T22:48:58.176Z</time>
</trkpt>
<trkpt lat="-27.7993619" lon="153.2618896">
<ele>13.445</ele>
<time>2018-01-23T22:49:00.176Z</time>
</trkpt>
<trkpt lat="-27.7998184" lon="153.2620646">
<ele>12.704</ele>
<time>2018-01-23T22:49:02.123Z</time>
</trkpt>
<trkpt lat="-27.8002908" lon="153.2622522">
<ele>12.202</ele>
<time>2018-01-23T22:49:04.137Z</time>
</trkpt>
<trkpt lat="-27.8007589" lon="153.2624361">
<ele>12.055</ele>
<time>2018-01-23T22:49:06.130Z</time>
</trkpt>
<trkpt lat="-27.8012224" lon="153.2626673">
<ele>12.383</ele>
<time>2018-01-23T22:49:08.178Z</time>
</trkpt>
<trkpt lat="-27.8016702" lon="153.2629130">
<ele>13.159</ele>
<time>2018-01-23T22:49:10.215Z</time>
</trkpt>
<trkpt lat="-27.8021351" lon="153.2631237">
<ele>14.058</ele>
<time>2018-01-23T22:49:12.287Z</time>
</trkpt>
<trkpt lat="-27.8025542" lon="153.2633862">
<ele>14.820</ele>
<time>2018-01-23T22:49:14.278Z</time>
</trkpt>
<trkpt lat="-27.8029644" lon="153.2636445">
<ele>15.625</ele>
<time>2018-01-23T22:49:16.226Z</time>
</trkpt>
<trkpt lat="-27.8033872" lon="153.2638828">
<ele>16.919</ele>
<time>2018-01-23T22:49:18.181Z</time>
</trkpt>
<trkpt lat="-27.8038264" lon="153.2641364">
<ele>18.813</ele>
<time>2018-01-23T22:49:20.216Z</time>
</trkpt>
<trkpt lat="-27.8042494" lon="153.2644201">
<ele>20.683</ele>
<time>2018-01-23T22:49:22.234Z</time>
</trkpt>
<trkpt lat="-27.8046245" lon="153.2647259">
<ele>21.960</ele>
<time>2018-01-23T22:49:24.123Z</time>
</trkpt>
<trkpt lat="-27.8050615" lon="153.2650110">
<ele>22.726</ele>
<time>2018-01-23T22:49:26.182Z</time>
</trkpt>
<trkpt lat="-27.8054895" lon="153.2653177">
<ele>23.115</ele>
<time>2018-01-23T22:49:28.252Z</time>
</trkpt>
<trkpt lat="-27.8058920" lon="153.2656293">
<ele>23.019</ele>
<time>2018-01-23T22:49:30.249Z</time>
</trkpt>
<trkpt lat="-27.8062573" lon="153.2660079">
<ele>22.486</ele>
<time>2018-01-23T22:49:32.278Z</time>
</trkpt>
<trkpt lat="-27.8066462" lon="153.2663327">
<ele>21.874</ele>
<time>2018-01-23T22:49:34.252Z</time>
</trkpt>
<trkpt lat="-27.8070496" lon="153.2666636">
<ele>23.337</ele>
<time>2018-01-23T22:49:36.277Z</time>
</trkpt>
<trkpt lat="-27.8074242" lon="153.2670143">
<ele>28.074</ele>
<time>2018-01-23T22:49:38.250Z</time>
</trkpt>
<trkpt lat="-27.8078395" lon="153.2673874">
<ele>33.251</ele>
<time>2018-01-23T22:49:40.403Z</time>
</trkpt>
<trkpt lat="-27.8082156" lon="153.2677308">
<ele>35.971</ele>
<time>2018-01-23T22:49:42.371Z</time>
</trkpt>
<trkpt lat="-27.8085675" lon="153.2681157">
<ele>36.633</ele>
<time>2018-01-23T22:49:44.368Z</time>
</trkpt>
<trkpt lat="-27.8089212" lon="153.2684926">
<ele>36.409</ele>
<time>2018-01-23T22:49:46.349Z</time>
</trkpt>
<trkpt lat="-27.8092620" lon="153.2688578">
<ele>36.063</ele>
<time>2018-01-23T22:49:48.260Z</time>
</trkpt>
<trkpt lat="-27.8096159" lon="153.2692493">
<ele>35.814</ele>
<time>2018-01-23T22:49:50.277Z</time>
</trkpt>
<trkpt lat="-27.8099690" lon="153.2696500">
<ele>35.618</ele>
<time>2018-01-23T22:49:52.319Z</time>
</trkpt>
<trkpt lat="-27.8103029" lon="153.2700592">
<ele>35.407</ele>
<time>2018-01-23T22:49:54.329Z</time>
</trkpt>
<trkpt lat="-27.8106259" lon="153.2704722">
<ele>34.711</ele>
<time>2018-01-23T22:49:56.317Z</time>
</trkpt>
<trkpt lat="-27.8109583" lon="153.2708797">
<ele>32.995</ele>
<time>2018-01-23T22:49:58.317Z</time>
</trkpt>
<trkpt lat="-27.8112721" lon="153.2713084">
<ele>30.540</ele>
<time>2018-01-23T22:50:00.325Z</time>
</trkpt>
<trkpt lat="-27.8115644" lon="153.2717452">
<ele>28.117</ele>
<time>2018-01-23T22:50:02.299Z</time>
</trkpt>
<trkpt lat="-27.8118770" lon="153.2721788">
<ele>26.269</ele>
<time>2018-01-23T22:50:04.314Z</time>
</trkpt>
<trkpt lat="-27.8121770" lon="153.2726223">
<ele>25.161</ele>
<time>2018-01-23T22:50:06.328Z</time>
</trkpt>
<trkpt lat="-27.8124524" lon="153.2730676">
<ele>24.431</ele>
<time>2018-01-23T22:50:08.294Z</time>
</trkpt>
<trkpt lat="-27.8127552" lon="153.2735085">
<ele>23.554</ele>
<time>2018-01-23T22:50:10.315Z</time>
</trkpt>
<trkpt lat="-27.8129917" lon="153.2739848">
<ele>22.458</ele>
<time>2018-01-23T22:50:12.289Z</time>
</trkpt>
<trkpt lat="-27.8132576" lon="153.2744375">
<ele>21.407</ele>
<time>2018-01-23T22:50:14.252Z</time>
</trkpt>
<trkpt lat="-27.8135285" lon="153.2749169">
<ele>20.512</ele>
<time>2018-01-23T22:50:16.308Z</time>
</trkpt>
<trkpt lat="-27.8137523" lon="153.2754048">
<ele>19.700</ele>
<time>2018-01-23T22:50:18.292Z</time>
</trkpt>
<trkpt lat="-27.8139919" lon="153.2758840">
<ele>18.936</ele>
<time>2018-01-23T22:50:20.279Z</time>
</trkpt>
<trkpt lat="-27.8142393" lon="153.2763535">
<ele>18.245</ele>
<time>2018-01-23T22:50:22.256Z</time>
</trkpt>
<trkpt lat="-27.8144986" lon="153.2768278">
<ele>17.636</ele>
<time>2018-01-23T22:50:24.275Z</time>
</trkpt>
<trkpt lat="-27.8147281" lon="153.2773134">
<ele>17.106</ele>
<time>2018-01-23T22:50:26.264Z</time>
</trkpt>
<trkpt lat="-27.8149334" lon="153.2778060">
<ele>16.637</ele>
<time>2018-01-23T22:50:28.228Z</time>
</trkpt>
<trkpt lat="-27.8151895" lon="153.2782932">
<ele>16.187</ele>
<time>2018-01-23T22:50:30.270Z</time>
</trkpt>
<trkpt lat="-27.8154351" lon="153.2787762">
<ele>15.770</ele>
<time>2018-01-23T22:50:32.276Z</time>
</trkpt>
<trkpt lat="-27.8156656" lon="153.2792500">
<ele>15.418</ele>
<time>2018-01-23T22:50:34.224Z</time>
</trkpt>
<trkpt lat="-27.8159011" lon="153.2797369">
<ele>15.074</ele>
<time>2018-01-23T22:50:36.226Z</time>
</trkpt>
<trkpt lat="-27.8161399" lon="153.2802328">
<ele>14.637</ele>
<time>2018-01-23T22:50:38.265Z</time>
</trkpt>
<trkpt lat="-27.8163715" lon="153.2807202">
<ele>14.087</ele>
<time>2018-01-23T22:50:40.266Z</time>
</trkpt>
<trkpt lat="-27.8166036" lon="153.2811944">
<ele>13.477</ele>
<time>2018-01-23T22:50:42.230Z</time>
</trkpt>
<trkpt lat="-27.8168439" lon="153.2816886">
<ele>12.867</ele>
<time>2018-01-23T22:50:44.280Z</time>
</trkpt>
<trkpt lat="-27.8170918" lon="153.2821701">
<ele>12.301</ele>
<time>2018-01-23T22:50:46.309Z</time>
</trkpt>
<trkpt lat="-27.8173180" lon="153.2826525">
<ele>11.845</ele>
<time>2018-01-23T22:50:48.298Z</time>
</trkpt>
<trkpt lat="-27.8175540" lon="153.2831137">
<ele>11.602</ele>
<time>2018-01-23T22:50:50.234Z</time>
</trkpt>
<trkpt lat="-27.8177969" lon="153.2835855">
<ele>11.579</ele>
<time>2018-01-23T22:50:52.214Z</time>
</trkpt>
<trkpt lat="-27.8180432" lon="153.2840687">
<ele>11.643</ele>
<time>2018-01-23T22:50:54.235Z</time>
</trkpt>
<trkpt lat="-27.8182735" lon="153.2845451">
<ele>11.691</ele>
<time>2018-01-23T22:50:56.204Z</time>
</trkpt>
<trkpt lat="-27.8185058" lon="153.2850206">
<ele>11.822</ele>
<time>2018-01-23T22:50:58.176Z</time>
</trkpt>
<trkpt lat="-27.8187310" lon="153.2855053">
<ele>12.203</ele>
<time>2018-01-23T22:51:00.161Z</time>
</trkpt>
<trkpt lat="-27.8189803" lon="153.2859980">
<ele>12.875</ele>
<time>2018-01-23T22:51:02.214Z</time>
</trkpt>
<trkpt lat="-27.8191900" lon="153.2865094">
<ele>13.695</ele>
<time>2018-01-23T22:51:04.250Z</time>
</trkpt>
<trkpt lat="-27.8194118" lon="153.2870053">
<ele>14.544</ele>
<time>2018-01-23T22:51:06.258Z</time>
</trkpt>
<trkpt lat="-27.8196573" lon="153.2874941">
<ele>15.497</ele>
<time>2018-01-23T22:51:08.294Z</time>
</trkpt>
<trkpt lat="-27.8199151" lon="153.2879768">
<ele>16.528</ele>
<time>2018-01-23T22:51:10.335Z</time>
</trkpt>
<trkpt lat="-27.8201465" lon="153.2884349">
<ele>17.696</ele>
<time>2018-01-23T22:51:12.247Z</time>
</trkpt>
<trkpt lat="-27.8203812" lon="153.2889200">
<ele>19.515</ele>
<time>2018-01-23T22:51:14.267Z</time>
</trkpt>
<trkpt lat="-27.8206184" lon="153.2894061">
<ele>21.892</ele>
<time>2018-01-23T22:51:16.311Z</time>
</trkpt>
<trkpt lat="-27.8208499" lon="153.2898919">
<ele>23.885</ele>
<time>2018-01-23T22:51:18.347Z</time>
</trkpt>
<trkpt lat="-27.8210884" lon="153.2903563">
<ele>25.283</ele>
<time>2018-01-23T22:51:20.325Z</time>
</trkpt>
<trkpt lat="-27.8213170" lon="153.2908374">
<ele>26.473</ele>
<time>2018-01-23T22:51:22.337Z</time>
</trkpt>
<trkpt lat="-27.8215301" lon="153.2913278">
<ele>27.320</ele>
<time>2018-01-23T22:51:24.348Z</time>
</trkpt>
<trkpt lat="-27.8218853" lon="153.2920386">
<ele>27.466</ele>
<time>2018-01-23T22:51:27.353Z</time>
</trkpt>
<trkpt lat="-27.8222507" lon="153.2927209">
<ele>26.871</ele>
<time>2018-01-23T22:51:30.288Z</time>
</trkpt>
<trkpt lat="-27.8226170" lon="153.2934317">
<ele>25.718</ele>
<time>2018-01-23T22:51:33.317Z</time>
</trkpt>
<trkpt lat="-27.8230038" lon="153.2941171">
<ele>24.362</ele>
<time>2018-01-23T22:51:36.317Z</time>
</trkpt>
<trkpt lat="-27.8234132" lon="153.2947953">
<ele>23.194</ele>
<time>2018-01-23T22:51:39.352Z</time>
</trkpt>
<trkpt lat="-27.8238782" lon="153.2954254">
<ele>22.499</ele>
<time>2018-01-23T22:51:42.381Z</time>
</trkpt>
<trkpt lat="-27.8243369" lon="153.2960357">
<ele>22.456</ele>
<time>2018-01-23T22:51:45.327Z</time>
</trkpt>
<trkpt lat="-27.8248326" lon="153.2966218">
<ele>23.028</ele>
<time>2018-01-23T22:51:48.302Z</time>
</trkpt>
<trkpt lat="-27.8253474" lon="153.2972046">
<ele>24.250</ele>
<time>2018-01-23T22:51:51.316Z</time>
</trkpt>
<trkpt lat="-27.8258886" lon="153.2977621">
<ele>25.963</ele>
<time>2018-01-23T22:51:54.340Z</time>
</trkpt>
<trkpt lat="-27.8264157" lon="153.2982947">
<ele>27.404</ele>
<time>2018-01-23T22:51:57.265Z</time>
</trkpt>
<trkpt lat="-27.8269977" lon="153.2987785">
<ele>27.975</ele>
<time>2018-01-23T22:52:00.258Z</time>
</trkpt>
<trkpt lat="-27.8275798" lon="153.2992383">
<ele>27.892</ele>
<time>2018-01-23T22:52:03.194Z</time>
</trkpt>
<trkpt lat="-27.8281947" lon="153.2996976">
<ele>27.561</ele>
<time>2018-01-23T22:52:06.236Z</time>
</trkpt>
<trkpt lat="-27.8288233" lon="153.3001115">
<ele>27.289</ele>
<time>2018-01-23T22:52:09.240Z</time>
</trkpt>
<trkpt lat="-27.8294466" lon="153.3004951">
<ele>27.163</ele>
<time>2018-01-23T22:52:12.171Z</time>
</trkpt>
<trkpt lat="-27.8300935" lon="153.3008381">
<ele>27.038</ele>
<time>2018-01-23T22:52:15.121Z</time>
</trkpt>
<trkpt lat="-27.8307483" lon="153.3012017">
<ele>26.612</ele>
<time>2018-01-23T22:52:18.140Z</time>
</trkpt>
<trkpt lat="-27.8314318" lon="153.3014957">
<ele>25.862</ele>
<time>2018-01-23T22:52:21.176Z</time>
</trkpt>
<trkpt lat="-27.8318886" lon="153.3016792">
<ele>25.129</ele>
<time>2018-01-23T22:52:23.191Z</time>
</trkpt>
<trkpt lat="-27.8323411" lon="153.3018417">
<ele>24.499</ele>
<time>2018-01-23T22:52:25.170Z</time>
</trkpt>
<trkpt lat="-27.8328063" lon="153.3020116">
<ele>23.693</ele>
<time>2018-01-23T22:52:27.209Z</time>
</trkpt>
<trkpt lat="-27.8332667" lon="153.3021361">
<ele>22.712</ele>
<time>2018-01-23T22:52:29.169Z</time>
</trkpt>
<trkpt lat="-27.8337224" lon="153.3022621">
<ele>21.896</ele>
<time>2018-01-23T22:52:31.100Z</time>
</trkpt>
<trkpt lat="-27.8342085" lon="153.3023686">
<ele>21.487</ele>
<time>2018-01-23T22:52:33.137Z</time>
</trkpt>
<trkpt lat="-27.8346990" lon="153.3024800">
<ele>21.422</ele>
<time>2018-01-23T22:52:35.205Z</time>
</trkpt>
<trkpt lat="-27.8351755" lon="153.3026040">
<ele>21.490</ele>
<time>2018-01-23T22:52:37.237Z</time>
</trkpt>
<trkpt lat="-27.8356430" lon="153.3027175">
<ele>21.510</ele>
<time>2018-01-23T22:52:39.223Z</time>
</trkpt>
<trkpt lat="-27.8361115" lon="153.3028494">
<ele>21.427</ele>
<time>2018-01-23T22:52:41.225Z</time>
</trkpt>
<trkpt lat="-27.8365774" lon="153.3029431">
<ele>21.328</ele>
<time>2018-01-23T22:52:43.189Z</time>
</trkpt>
<trkpt lat="-27.8370529" lon="153.3030500">
<ele>21.296</ele>
<time>2018-01-23T22:52:45.205Z</time>
</trkpt>
<trkpt lat="-27.8375201" lon="153.3031702">
<ele>21.342</ele>
<time>2018-01-23T22:52:47.201Z</time>
</trkpt>
<trkpt lat="-27.8379817" lon="153.3033127">
<ele>21.444</ele>
<time>2018-01-23T22:52:49.193Z</time>
</trkpt>
<trkpt lat="-27.8384646" lon="153.3034263">
<ele>21.558</ele>
<time>2018-01-23T22:52:51.240Z</time>
</trkpt>
<trkpt lat="-27.8389258" lon="153.3035572">
<ele>21.736</ele>
<time>2018-01-23T22:52:53.209Z</time>
</trkpt>
<trkpt lat="-27.8394030" lon="153.3036779">
<ele>22.183</ele>
<time>2018-01-23T22:52:55.232Z</time>
</trkpt>
<trkpt lat="-27.8398857" lon="153.3037695">
<ele>22.976</ele>
<time>2018-01-23T22:52:57.254Z</time>
</trkpt>
<trkpt lat="-27.8403646" lon="153.3038962">
<ele>23.920</ele>
<time>2018-01-23T22:52:59.277Z</time>
</trkpt>
<trkpt lat="-27.8408334" lon="153.3040246">
<ele>24.832</ele>
<time>2018-01-23T22:53:01.247Z</time>
</trkpt>
<trkpt lat="-27.8413238" lon="153.3041228">
<ele>25.661</ele>
<time>2018-01-23T22:53:03.271Z</time>
</trkpt>
<trkpt lat="-27.8418040" lon="153.3042609">
<ele>26.290</ele>
<time>2018-01-23T22:53:05.281Z</time>
</trkpt>
<trkpt lat="-27.8422919" lon="153.3043560">
<ele>26.554</ele>
<time>2018-01-23T22:53:07.280Z</time>
</trkpt>
<trkpt lat="-27.8427709" lon="153.3044691">
<ele>26.426</ele>
<time>2018-01-23T22:53:09.235Z</time>
</trkpt>
<trkpt lat="-27.8432454" lon="153.3045883">
<ele>26.016</ele>
<time>2018-01-23T22:53:11.160Z</time>
</trkpt>
<trkpt lat="-27.8437222" lon="153.3047216">
<ele>25.390</ele>
<time>2018-01-23T22:53:13.098Z</time>
</trkpt>
<trkpt lat="-27.8442230" lon="153.3048610">
<ele>24.438</ele>
<time>2018-01-23T22:53:15.135Z</time>
</trkpt>
<trkpt lat="-27.8447061" lon="153.3050397">
<ele>23.057</ele>
<time>2018-01-23T22:53:17.147Z</time>
</trkpt>
<trkpt lat="-27.8451982" lon="153.3051947">
<ele>21.393</ele>
<time>2018-01-23T22:53:19.170Z</time>
</trkpt>
<trkpt lat="-27.8456719" lon="153.3053342">
<ele>19.670</ele>
<time>2018-01-23T22:53:21.103Z</time>
</trkpt>
<trkpt lat="-27.8461353" lon="153.3055061">
<ele>18.040</ele>
<time>2018-01-23T22:53:23.010Z</time>
</trkpt>
<trkpt lat="-27.8466128" lon="153.3056903">
<ele>16.639</ele>
<time>2018-01-23T22:53:24.953Z</time>
</trkpt>
<trkpt lat="-27.8470956" lon="153.3058886">
<ele>15.624</ele>
<time>2018-01-23T22:53:26.909Z</time>
</trkpt>
<trkpt lat="-27.8475986" lon="153.3060871">
<ele>15.086</ele>
<time>2018-01-23T22:53:28.930Z</time>
</trkpt>
<trkpt lat="-27.8480949" lon="153.3062870">
<ele>14.983</ele>
<time>2018-01-23T22:53:30.929Z</time>
</trkpt>
<trkpt lat="-27.8485834" lon="153.3064680">
<ele>15.204</ele>
<time>2018-01-23T22:53:32.887Z</time>
</trkpt>
<trkpt lat="-27.8490727" lon="153.3067106">
<ele>15.591</ele>
<time>2018-01-23T22:53:34.927Z</time>
</trkpt>
<trkpt lat="-27.8495769" lon="153.3069072">
<ele>15.996</ele>
<time>2018-01-23T22:53:36.965Z</time>
</trkpt>
<trkpt lat="-27.8500728" lon="153.3070745">
<ele>16.767</ele>
<time>2018-01-23T22:53:38.945Z</time>
</trkpt>
<trkpt lat="-27.8505701" lon="153.3072507">
<ele>18.193</ele>
<time>2018-01-23T22:53:40.937Z</time>
</trkpt>
<trkpt lat="-27.8510640" lon="153.3074149">
<ele>19.668</ele>
<time>2018-01-23T22:53:42.899Z</time>
</trkpt>
<trkpt lat="-27.8515680" lon="153.3075825">
<ele>20.406</ele>
<time>2018-01-23T22:53:44.903Z</time>
</trkpt>
<trkpt lat="-27.8520901" lon="153.3077317">
<ele>20.255</ele>
<time>2018-01-23T22:53:46.966Z</time>
</trkpt>
<trkpt lat="-27.8525941" lon="153.3078711">
<ele>19.408</ele>
<time>2018-01-23T22:53:48.959Z</time>
</trkpt>
<trkpt lat="-27.8530991" lon="153.3080028">
<ele>18.180</ele>
<time>2018-01-23T22:53:50.957Z</time>
</trkpt>
<trkpt lat="-27.8536085" lon="153.3081237">
<ele>16.883</ele>
<time>2018-01-23T22:53:52.991Z</time>
</trkpt>
<trkpt lat="-27.8541110" lon="153.3082596">
<ele>15.676</ele>
<time>2018-01-23T22:53:55.042Z</time>
</trkpt>
<trkpt lat="-27.8546136" lon="153.3083715">
<ele>14.560</ele>
<time>2018-01-23T22:53:57.096Z</time>
</trkpt>
<trkpt lat="-27.8551059" lon="153.3084785">
<ele>13.527</ele>
<time>2018-01-23T22:53:59.127Z</time>
</trkpt>
<trkpt lat="-27.8555993" lon="153.3085931">
<ele>12.618</ele>
<time>2018-01-23T22:54:01.200Z</time>
</trkpt>
<trkpt lat="-27.8560786" lon="153.3087009">
<ele>11.867</ele>
<time>2018-01-23T22:54:03.230Z</time>
</trkpt>
<trkpt lat="-27.8565624" lon="153.3088217">
<ele>11.233</ele>
<time>2018-01-23T22:54:05.272Z</time>
</trkpt>
<trkpt lat="-27.8570275" lon="153.3089278">
<ele>10.725</ele>
<time>2018-01-23T22:54:07.185Z</time>
</trkpt>
<trkpt lat="-27.8574847" lon="153.3090731">
<ele>10.790</ele>
<time>2018-01-23T22:54:09.066Z</time>
</trkpt>
<trkpt lat="-27.8579727" lon="153.3092227">
<ele>11.642</ele>
<time>2018-01-23T22:54:11.057Z</time>
</trkpt>
<trkpt lat="-27.8584385" lon="153.3093898">
<ele>12.633</ele>
<time>2018-01-23T22:54:12.994Z</time>
</trkpt>
<trkpt lat="-27.8589278" lon="153.3095567">
<ele>12.975</ele>
<time>2018-01-23T22:54:15.028Z</time>
</trkpt>
<trkpt lat="-27.8594039" lon="153.3097400">
<ele>12.518</ele>
<time>2018-01-23T22:54:17.026Z</time>
</trkpt>
<trkpt lat="-27.8598774" lon="153.3099343">
<ele>11.604</ele>
<time>2018-01-23T22:54:19.027Z</time>
</trkpt>
<trkpt lat="-27.8603590" lon="153.3101317">
<ele>10.777</ele>
<time>2018-01-23T22:54:21.080Z</time>
</trkpt>
<trkpt lat="-27.8608247" lon="153.3103904">
<ele>10.623</ele>
<time>2018-01-23T22:54:23.189Z</time>
</trkpt>
<trkpt lat="-27.8612908" lon="153.3105870">
<ele>11.278</ele>
<time>2018-01-23T22:54:25.230Z</time>
</trkpt>
<trkpt lat="-27.8617287" lon="153.3107950">
<ele>12.073</ele>
<time>2018-01-23T22:54:27.182Z</time>
</trkpt>
<trkpt lat="-27.8621479" lon="153.3110362">
<ele>12.390</ele>
<time>2018-01-23T22:54:29.105Z</time>
</trkpt>
<trkpt lat="-27.8625846" lon="153.3112559">
<ele>12.265</ele>
<time>2018-01-23T22:54:31.046Z</time>
</trkpt>
<trkpt lat="-27.8630410" lon="153.3114732">
<ele>11.919</ele>
<time>2018-01-23T22:54:33.040Z</time>
</trkpt>
<trkpt lat="-27.8635103" lon="153.3116992">
<ele>11.504</ele>
<time>2018-01-23T22:54:35.077Z</time>
</trkpt>
<trkpt lat="-27.8639834" lon="153.3118603">
<ele>11.079</ele>
<time>2018-01-23T22:54:37.041Z</time>
</trkpt>
<trkpt lat="-27.8644607" lon="153.3120676">
<ele>10.657</ele>
<time>2018-01-23T22:54:39.071Z</time>
</trkpt>
<trkpt lat="-27.8649288" lon="153.3122641">
<ele>10.272</ele>
<time>2018-01-23T22:54:41.054Z</time>
</trkpt>
<trkpt lat="-27.8654302" lon="153.3124325">
<ele>9.942</ele>
<time>2018-01-23T22:54:43.149Z</time>
</trkpt>
<trkpt lat="-27.8659241" lon="153.3125812">
<ele>9.664</ele>
<time>2018-01-23T22:54:45.214Z</time>
</trkpt>
<trkpt lat="-27.8664067" lon="153.3127174">
<ele>9.468</ele>
<time>2018-01-23T22:54:47.196Z</time>
</trkpt>
<trkpt lat="-27.8668680" lon="153.3128722">
<ele>9.357</ele>
<time>2018-01-23T22:54:49.065Z</time>
</trkpt>
<trkpt lat="-27.8673719" lon="153.3129644">
<ele>9.236</ele>
<time>2018-01-23T22:54:51.021Z</time>
</trkpt>
<trkpt lat="-27.8678596" lon="153.3131134">
<ele>9.070</ele>
<time>2018-01-23T22:54:52.953Z</time>
</trkpt>
<trkpt lat="-27.8683677" lon="153.3132056">
<ele>8.973</ele>
<time>2018-01-23T22:54:54.936Z</time>
</trkpt>
<trkpt lat="-27.8688750" lon="153.3133124">
<ele>9.027</ele>
<time>2018-01-23T22:54:56.949Z</time>
</trkpt>
<trkpt lat="-27.8693921" lon="153.3134109">
<ele>9.183</ele>
<time>2018-01-23T22:54:59.002Z</time>
</trkpt>
<trkpt lat="-27.8698891" lon="153.3135147">
<ele>9.369</ele>
<time>2018-01-23T22:55:00.969Z</time>
</trkpt>
<trkpt lat="-27.8704072" lon="153.3135835">
<ele>9.574</ele>
<time>2018-01-23T22:55:02.986Z</time>
</trkpt>
<trkpt lat="-27.8709133" lon="153.3136500">
<ele>9.782</ele>
<time>2018-01-23T22:55:04.947Z</time>
</trkpt>
<trkpt lat="-27.8714243" lon="153.3137054">
<ele>9.892</ele>
<time>2018-01-23T22:55:06.912Z</time>
</trkpt>
<trkpt lat="-27.8719541" lon="153.3137543">
<ele>9.834</ele>
<time>2018-01-23T22:55:08.941Z</time>
</trkpt>
<trkpt lat="-27.8724644" lon="153.3137905">
<ele>9.678</ele>
<time>2018-01-23T22:55:10.892Z</time>
</trkpt>
<trkpt lat="-27.8729873" lon="153.3138437">
<ele>9.521</ele>
<time>2018-01-23T22:55:12.899Z</time>
</trkpt>
<trkpt lat="-27.8735171" lon="153.3139243">
<ele>9.396</ele>
<time>2018-01-23T22:55:14.938Z</time>
</trkpt>
<trkpt lat="-27.8740351" lon="153.3139725">
<ele>9.279</ele>
<time>2018-01-23T22:55:16.899Z</time>
</trkpt>
<trkpt lat="-27.8745525" lon="153.3140661">
<ele>9.128</ele>
<time>2018-01-23T22:55:18.854Z</time>
</trkpt>
<trkpt lat="-27.8750693" lon="153.3141719">
<ele>8.967</ele>
<time>2018-01-23T22:55:20.807Z</time>
</trkpt>
<trkpt lat="-27.8756151" lon="153.3142898">
<ele>8.879</ele>
<time>2018-01-23T22:55:22.883Z</time>
</trkpt>
<trkpt lat="-27.8761332" lon="153.3144207">
<ele>8.884</ele>
<time>2018-01-23T22:55:24.878Z</time>
</trkpt>
<trkpt lat="-27.8766475" lon="153.3145531">
<ele>8.925</ele>
<time>2018-01-23T22:55:26.863Z</time>
</trkpt>
<trkpt lat="-27.8771716" lon="153.3146797">
<ele>8.923</ele>
<time>2018-01-23T22:55:28.879Z</time>
</trkpt>
<trkpt lat="-27.8777005" lon="153.3148086">
<ele>8.830</ele>
<time>2018-01-23T22:55:30.918Z</time>
</trkpt>
<trkpt lat="-27.8782181" lon="153.3149484">
<ele>8.632</ele>
<time>2018-01-23T22:55:32.934Z</time>
</trkpt>
<trkpt lat="-27.8787485" lon="153.3150672">
<ele>8.330</ele>
<time>2018-01-23T22:55:35.002Z</time>
</trkpt>
<trkpt lat="-27.8792749" lon="153.3151946">
<ele>7.984</ele>
<time>2018-01-23T22:55:37.082Z</time>
</trkpt>
<trkpt lat="-27.8797739" lon="153.3152915">
<ele>7.718</ele>
<time>2018-01-23T22:55:39.041Z</time>
</trkpt>
<trkpt lat="-27.8802867" lon="153.3153813">
<ele>7.630</ele>
<time>2018-01-23T22:55:41.037Z</time>
</trkpt>
<trkpt lat="-27.8808270" lon="153.3154400">
<ele>7.763</ele>
<time>2018-01-23T22:55:43.123Z</time>
</trkpt>
<trkpt lat="-27.8813476" lon="153.3155190">
<ele>8.147</ele>
<time>2018-01-23T22:55:45.146Z</time>
</trkpt>
<trkpt lat="-27.8818538" lon="153.3155587">
<ele>8.661</ele>
<time>2018-01-23T22:55:47.103Z</time>
</trkpt>
<trkpt lat="-27.8823504" lon="153.3156022">
<ele>8.903</ele>
<time>2018-01-23T22:55:49.027Z</time>
</trkpt>
<trkpt lat="-27.8828545" lon="153.3156569">
<ele>8.606</ele>
<time>2018-01-23T22:55:50.984Z</time>
</trkpt>
<trkpt lat="-27.8833626" lon="153.3156783">
<ele>8.042</ele>
<time>2018-01-23T22:55:52.944Z</time>
</trkpt>
<trkpt lat="-27.8838949" lon="153.3156766">
<ele>7.658</ele>
<time>2018-01-23T22:55:54.986Z</time>
</trkpt>
<trkpt lat="-27.8844027" lon="153.3156895">
<ele>7.601</ele>
<time>2018-01-23T22:55:56.926Z</time>
</trkpt>
<trkpt lat="-27.8849294" lon="153.3156470">
<ele>7.762</ele>
<time>2018-01-23T22:55:58.947Z</time>
</trkpt>
<trkpt lat="-27.8854534" lon="153.3156346">
<ele>8.012</ele>
<time>2018-01-23T22:56:00.956Z</time>
</trkpt>
<trkpt lat="-27.8859571" lon="153.3156542">
<ele>8.346</ele>
<time>2018-01-23T22:56:02.873Z</time>
</trkpt>
<trkpt lat="-27.8864901" lon="153.3155659">
<ele>8.765</ele>
<time>2018-01-23T22:56:04.899Z</time>
</trkpt>
<trkpt lat="-27.8870440" lon="153.3155096">
<ele>9.138</ele>
<time>2018-01-23T22:56:06.994Z</time>
</trkpt>
<trkpt lat="-27.8875856" lon="153.3154458">
<ele>9.311</ele>
<time>2018-01-23T22:56:09.062Z</time>
</trkpt>
<trkpt lat="-27.8880960" lon="153.3153691">
<ele>9.239</ele>
<time>2018-01-23T22:56:11.022Z</time>
</trkpt>
<trkpt lat="-27.8886386" lon="153.3153155">
<ele>8.974</ele>
<time>2018-01-23T22:56:13.095Z</time>
</trkpt>
<trkpt lat="-27.8891652" lon="153.3152193">
<ele>8.655</ele>
<time>2018-01-23T22:56:15.126Z</time>
</trkpt>
<trkpt lat="-27.8896665" lon="153.3150923">
<ele>8.429</ele>
<time>2018-01-23T22:56:17.084Z</time>
</trkpt>
<trkpt lat="-27.8902044" lon="153.3149996">
<ele>8.379</ele>
<time>2018-01-23T22:56:19.159Z</time>
</trkpt>
<trkpt lat="-27.8907452" lon="153.3149256">
<ele>8.478</ele>
<time>2018-01-23T22:56:21.225Z</time>
</trkpt>
<trkpt lat="-27.8912417" lon="153.3148400">
<ele>8.600</ele>
<time>2018-01-23T22:56:23.128Z</time>
</trkpt>
<trkpt lat="-27.8917717" lon="153.3147388">
<ele>8.631</ele>
<time>2018-01-23T22:56:25.171Z</time>
</trkpt>
<trkpt lat="-27.8923134" lon="153.3146989">
<ele>8.553</ele>
<time>2018-01-23T22:56:27.246Z</time>
</trkpt>
<trkpt lat="-27.8928257" lon="153.3146645">
<ele>8.423</ele>
<time>2018-01-23T22:56:29.206Z</time>
</trkpt>
<trkpt lat="-27.8933257" lon="153.3146166">
<ele>8.299</ele>
<time>2018-01-23T22:56:31.118Z</time>
</trkpt>
<trkpt lat="-27.8938195" lon="153.3145836">
<ele>8.162</ele>
<time>2018-01-23T22:56:33.000Z</time>
</trkpt>
<trkpt lat="-27.8943578" lon="153.3145497">
<ele>7.977</ele>
<time>2018-01-23T22:56:35.049Z</time>
</trkpt>
<trkpt lat="-27.8948725" lon="153.3145254">
<ele>7.779</ele>
<time>2018-01-23T22:56:37.005Z</time>
</trkpt>
<trkpt lat="-27.8953966" lon="153.3145588">
<ele>7.634</ele>
<time>2018-01-23T22:56:38.998Z</time>
</trkpt>
<trkpt lat="-27.8959180" lon="153.3145891">
<ele>7.560</ele>
<time>2018-01-23T22:56:40.980Z</time>
</trkpt>
<trkpt lat="-27.8964515" lon="153.3146221">
<ele>7.529</ele>
<time>2018-01-23T22:56:43.007Z</time>
</trkpt>
<trkpt lat="-27.8969867" lon="153.3146601">
<ele>7.532</ele>
<time>2018-01-23T22:56:45.044Z</time>
</trkpt>
<trkpt lat="-27.8975057" lon="153.3146945">
<ele>7.589</ele>
<time>2018-01-23T22:56:47.010Z</time>
</trkpt>
<trkpt lat="-27.8980182" lon="153.3147745">
<ele>7.701</ele>
<time>2018-01-23T22:56:48.951Z</time>
</trkpt>
<trkpt lat="-27.8985580" lon="153.3148553">
<ele>7.835</ele>
<time>2018-01-23T22:56:50.984Z</time>
</trkpt>
<trkpt lat="-27.8991005" lon="153.3149714">
<ele>7.928</ele>
<time>2018-01-23T22:56:53.050Z</time>
</trkpt>
<trkpt lat="-27.8996265" lon="153.3151000">
<ele>7.938</ele>
<time>2018-01-23T22:56:55.064Z</time>
</trkpt>
<trkpt lat="-27.9001445" lon="153.3152112">
<ele>7.887</ele>
<time>2018-01-23T22:56:57.028Z</time>
</trkpt>
<trkpt lat="-27.9006549" lon="153.3153353">
<ele>7.875</ele>
<time>2018-01-23T22:56:58.961Z</time>
</trkpt>
<trkpt lat="-27.9011871" lon="153.3154799">
<ele>8.031</ele>
<time>2018-01-23T22:57:00.980Z</time>
</trkpt>
<trkpt lat="-27.9017294" lon="153.3156218">
<ele>8.385</ele>
<time>2018-01-23T22:57:03.055Z</time>
</trkpt>
<trkpt lat="-27.9022607" lon="153.3157951">
<ele>8.795</ele>
<time>2018-01-23T22:57:05.205Z</time>
</trkpt>
<trkpt lat="-27.9027775" lon="153.3159488">
<ele>9.057</ele>
<time>2018-01-23T22:57:07.430Z</time>
</trkpt>
<trkpt lat="-27.9032691" lon="153.3161340">
<ele>9.109</ele>
<time>2018-01-23T22:57:09.766Z</time>
</trkpt>
<trkpt lat="-27.9037139" lon="153.3162979">
<ele>9.028</ele>
<time>2018-01-23T22:57:12.055Z</time>
</trkpt>
<trkpt lat="-27.9041179" lon="153.3164474">
<ele>8.808</ele>
<time>2018-01-23T22:57:14.312Z</time>
</trkpt>
<trkpt lat="-27.9045328" lon="153.3165486">
<ele>8.339</ele>
<time>2018-01-23T22:57:16.655Z</time>
</trkpt>
<trkpt lat="-27.9048939" lon="153.3166821">
<ele>7.669</ele>
<time>2018-01-23T22:57:18.828Z</time>
</trkpt>
<trkpt lat="-27.9052312" lon="153.3167970">
<ele>7.034</ele>
<time>2018-01-23T22:57:20.934Z</time>
</trkpt>
<trkpt lat="-27.9055740" lon="153.3168717">
<ele>6.535</ele>
<time>2018-01-23T22:57:23.083Z</time>
</trkpt>
<trkpt lat="-27.9058953" lon="153.3169606">
<ele>6.153</ele>
<time>2018-01-23T22:57:25.164Z</time>
</trkpt>
<trkpt lat="-27.9061940" lon="153.3170647">
<ele>5.985</ele>
<time>2018-01-23T22:57:27.195Z</time>
</trkpt>
<trkpt lat="-27.9064975" lon="153.3171915">
<ele>6.852</ele>
<time>2018-01-23T22:57:29.361Z</time>
</trkpt>
<trkpt lat="-27.9068216" lon="153.3172827">
<ele>9.286</ele>
<time>2018-01-23T22:57:31.568Z</time>
</trkpt>
<trkpt lat="-27.9070999" lon="153.3173664">
<ele>12.069</ele>
<time>2018-01-23T22:57:33.398Z</time>
</trkpt>
<trkpt lat="-27.9073624" lon="153.3174824">
<ele>13.690</ele>
<time>2018-01-23T22:57:35.154Z</time>
</trkpt>
<trkpt lat="-27.9076590" lon="153.3175581">
<ele>14.093</ele>
<time>2018-01-23T22:57:37.038Z</time>
</trkpt>
<trkpt lat="-27.9079821" lon="153.3176470">
<ele>13.804</ele>
<time>2018-01-23T22:57:39.138Z</time>
</trkpt>
<trkpt lat="-27.9082775" lon="153.3177502">
<ele>13.120</ele>
<time>2018-01-23T22:57:41.175Z</time>
</trkpt>
<trkpt lat="-27.9085846" lon="153.3178504">
<ele>12.202</ele>
<time>2018-01-23T22:57:43.360Z</time>
</trkpt>
<trkpt lat="-27.9088954" lon="153.3179554">
<ele>11.316</ele>
<time>2018-01-23T22:57:45.600Z</time>
</trkpt>
<trkpt lat="-27.9091930" lon="153.3180753">
<ele>10.722</ele>
<time>2018-01-23T22:57:47.790Z</time>
</trkpt>
<trkpt lat="-27.9094585" lon="153.3181576">
<ele>10.489</ele>
<time>2018-01-23T22:57:49.748Z</time>
</trkpt>
<trkpt lat="-27.9097480" lon="153.3182119">
<ele>10.546</ele>
<time>2018-01-23T22:57:51.976Z</time>
</trkpt>
<trkpt lat="-27.9100248" lon="153.3182994">
<ele>11.492</ele>
<time>2018-01-23T22:57:54.408Z</time>
</trkpt>
<trkpt lat="-27.9103001" lon="153.3183790">
<ele>13.755</ele>
<time>2018-01-23T22:57:56.893Z</time>
</trkpt>
<trkpt lat="-27.9105390" lon="153.3184528">
<ele>16.191</ele>
<time>2018-01-23T22:57:58.822Z</time>
</trkpt>
<trkpt lat="-27.9107542" lon="153.3185311">
<ele>17.574</ele>
<time>2018-01-23T22:58:00.318Z</time>
</trkpt>
<trkpt lat="-27.9109487" lon="153.3186065">
<ele>18.029</ele>
<time>2018-01-23T22:58:01.463Z</time>
</trkpt>
<trkpt lat="-27.9111583" lon="153.3186972">
<ele>17.942</ele>
<time>2018-01-23T22:58:02.631Z</time>
</trkpt>
<trkpt lat="-27.9114077" lon="153.3187962">
<ele>17.574</ele>
<time>2018-01-23T22:58:03.932Z</time>
</trkpt>
<trkpt lat="-27.9117485" lon="153.3189068">
<ele>17.288</ele>
<time>2018-01-23T22:58:05.583Z</time>
</trkpt>
<trkpt lat="-27.9121619" lon="153.3190341">
<ele>17.306</ele>
<time>2018-01-23T22:58:07.523Z</time>
</trkpt>
<trkpt lat="-27.9125698" lon="153.3191874">
<ele>17.498</ele>
<time>2018-01-23T22:58:09.408Z</time>
</trkpt>
<trkpt lat="-27.9130187" lon="153.3193308">
<ele>17.659</ele>
<time>2018-01-23T22:58:11.390Z</time>
</trkpt>
<trkpt lat="-27.9134614" lon="153.3194877">
<ele>17.733</ele>
<time>2018-01-23T22:58:13.328Z</time>
</trkpt>
<trkpt lat="-27.9139042" lon="153.3196828">
<ele>17.784</ele>
<time>2018-01-23T22:58:15.320Z</time>
</trkpt>
<trkpt lat="-27.9143443" lon="153.3198882">
<ele>17.870</ele>
<time>2018-01-23T22:58:17.343Z</time>
</trkpt>
<trkpt lat="-27.9147639" lon="153.3201089">
<ele>17.955</ele>
<time>2018-01-23T22:58:19.328Z</time>
</trkpt>
<trkpt lat="-27.9151980" lon="153.3203020">
<ele>17.944</ele>
<time>2018-01-23T22:58:21.337Z</time>
</trkpt>
<trkpt lat="-27.9156307" lon="153.3205226">
<ele>17.790</ele>
<time>2018-01-23T22:58:23.377Z</time>
</trkpt>
<trkpt lat="-27.9160517" lon="153.3207336">
<ele>17.527</ele>
<time>2018-01-23T22:58:25.329Z</time>
</trkpt>
<trkpt lat="-27.9164741" lon="153.3209547">
<ele>17.227</ele>
<time>2018-01-23T22:58:27.283Z</time>
</trkpt>
<trkpt lat="-27.9169062" lon="153.3211911">
<ele>16.981</ele>
<time>2018-01-23T22:58:29.262Z</time>
</trkpt>
<trkpt lat="-27.9175290" lon="153.3215972">
<ele>16.882</ele>
<time>2018-01-23T22:58:32.203Z</time>
</trkpt>
<trkpt lat="-27.9181544" lon="153.3220228">
<ele>16.954</ele>
<time>2018-01-23T22:58:35.179Z</time>
</trkpt>
<trkpt lat="-27.9187764" lon="153.3224453">
<ele>17.251</ele>
<time>2018-01-23T22:58:38.121Z</time>
</trkpt>
<trkpt lat="-27.9194047" lon="153.3229040">
<ele>17.895</ele>
<time>2018-01-23T22:58:41.129Z</time>
</trkpt>
<trkpt lat="-27.9200300" lon="153.3233947">
<ele>18.859</ele>
<time>2018-01-23T22:58:44.185Z</time>
</trkpt>
<trkpt lat="-27.9206106" lon="153.3239073">
<ele>19.959</ele>
<time>2018-01-23T22:58:47.139Z</time>
</trkpt>
<trkpt lat="-27.9212014" lon="153.3244372">
<ele>21.196</ele>
<time>2018-01-23T22:58:50.143Z</time>
</trkpt>
<trkpt lat="-27.9217753" lon="153.3249927">
<ele>22.520</ele>
<time>2018-01-23T22:58:53.155Z</time>
</trkpt>
<trkpt lat="-27.9223346" lon="153.3255658">
<ele>23.648</ele>
<time>2018-01-23T22:58:56.260Z</time>
</trkpt>
<trkpt lat="-27.9228827" lon="153.3261501">
<ele>24.821</ele>
<time>2018-01-23T22:58:59.565Z</time>
</trkpt>
<trkpt lat="-27.9233538" lon="153.3267254">
<ele>26.542</ele>
<time>2018-01-23T22:59:02.891Z</time>
</trkpt>
<trkpt lat="-27.9237860" lon="153.3272310">
<ele>28.507</ele>
<time>2018-01-23T22:59:06.313Z</time>
</trkpt>
<trkpt lat="-27.9242056" lon="153.3276918">
<ele>30.050</ele>
<time>2018-01-23T22:59:10.198Z</time>
</trkpt>
<trkpt lat="-27.9245070" lon="153.3280952">
<ele>31.059</ele>
<time>2018-01-23T22:59:14.120Z</time>
</trkpt>
<trkpt lat="-27.9248295" lon="153.3284576">
<ele>31.685</ele>
<time>2018-01-23T22:59:19.487Z</time>
</trkpt>
<trkpt lat="-27.9250594" lon="153.3287282">
<ele>31.900</ele>
<time>2018-01-23T22:59:24.271Z</time>
</trkpt>
<trkpt lat="-27.9252719" lon="153.3289328">
<ele>31.696</ele>
<time>2018-01-23T22:59:28.058Z</time>
</trkpt>
<trkpt lat="-27.9254107" lon="153.3291069">
<ele>31.282</ele>
<time>2018-01-23T22:59:30.550Z</time>
</trkpt>
<trkpt lat="-27.9255317" lon="153.3292182">
<ele>30.869</ele>
<time>2018-01-23T22:59:32.489Z</time>
</trkpt>
<trkpt lat="-27.9256112" lon="153.3293082">
<ele>30.575</ele>
<time>2018-01-23T22:59:33.978Z</time>
</trkpt>
<trkpt lat="-27.9257172" lon="153.3293984">
<ele>30.481</ele>
<time>2018-01-23T22:59:35.908Z</time>
</trkpt>
<trkpt lat="-27.9258475" lon="153.3295076">
<ele>30.577</ele>
<time>2018-01-23T22:59:38.616Z</time>
</trkpt>
<trkpt lat="-27.9259827" lon="153.3296317">
<ele>30.813</ele>
<time>2018-01-23T22:59:42.480Z</time>
</trkpt>
<trkpt lat="-27.9260995" lon="153.3297698">
<ele>31.178</ele>
<time>2018-01-23T22:59:47.069Z</time>
</trkpt>
<trkpt lat="-27.9262134" lon="153.3298779">
<ele>31.598</ele>
<time>2018-01-23T22:59:49.975Z</time>
</trkpt>
<trkpt lat="-27.9263168" lon="153.3299910">
<ele>31.755</ele>
<time>2018-01-23T22:59:52.661Z</time>
</trkpt>
<trkpt lat="-27.9264000" lon="153.3300747">
<ele>31.351</ele>
<time>2018-01-23T22:59:54.891Z</time>
</trkpt>
<trkpt lat="-27.9264886" lon="153.3301971">
<ele>30.484</ele>
<time>2018-01-23T22:59:57.759Z</time>
</trkpt>
<trkpt lat="-27.9265909" lon="153.3302543">
<ele>29.496</ele>
<time>2018-01-23T23:00:00.092Z</time>
</trkpt>
<trkpt lat="-27.9266862" lon="153.3303521">
<ele>28.214</ele>
<time>2018-01-23T23:00:02.713Z</time>
</trkpt>
<trkpt lat="-27.9267636" lon="153.3304090">
<ele>26.038</ele>
<time>2018-01-23T23:00:04.564Z</time>
</trkpt>
<trkpt lat="-27.9268636" lon="153.3304621">
<ele>23.181</ele>
<time>2018-01-23T23:00:06.693Z</time>
</trkpt>
<trkpt lat="-27.9269750" lon="153.3304928">
<ele>20.705</ele>
<time>2018-01-23T23:00:08.715Z</time>
</trkpt>
<trkpt lat="-27.9270471" lon="153.3305741">
<ele>19.277</ele>
<time>2018-01-23T23:00:10.339Z</time>
</trkpt>
<trkpt lat="-27.9271497" lon="153.3306484">
<ele>18.804</ele>
<time>2018-01-23T23:00:12.073Z</time>
</trkpt>
<trkpt lat="-27.9272188" lon="153.3307199">
<ele>18.983</ele>
<time>2018-01-23T23:00:13.264Z</time>
</trkpt>
<trkpt lat="-27.9272935" lon="153.3308193">
<ele>19.569</ele>
<time>2018-01-23T23:00:14.702Z</time>
</trkpt>
<trkpt lat="-27.9273722" lon="153.3308823">
<ele>20.260</ele>
<time>2018-01-23T23:00:15.881Z</time>
</trkpt>
<trkpt lat="-27.9274398" lon="153.3309574">
<ele>20.737</ele>
<time>2018-01-23T23:00:17.049Z</time>
</trkpt>
<trkpt lat="-27.9275340" lon="153.3310216">
<ele>20.939</ele>
<time>2018-01-23T23:00:18.414Z</time>
</trkpt>
<trkpt lat="-27.9276455" lon="153.3310736">
<ele>21.004</ele>
<time>2018-01-23T23:00:19.930Z</time>
</trkpt>
<trkpt lat="-27.9277717" lon="153.3311309">
<ele>22.025</ele>
<time>2018-01-23T23:00:21.617Z</time>
</trkpt>
<trkpt lat="-27.9279109" lon="153.3312389">
<ele>24.602</ele>
<time>2018-01-23T23:00:23.688Z</time>
</trkpt>
<trkpt lat="-27.9280461" lon="153.3313418">
<ele>27.224</ele>
<time>2018-01-23T23:00:25.722Z</time>
</trkpt>
<trkpt lat="-27.9281792" lon="153.3314567">
<ele>28.477</ele>
<time>2018-01-23T23:00:27.928Z</time>
</trkpt>
<trkpt lat="-27.9283017" lon="153.3315369">
<ele>28.822</ele>
<time>2018-01-23T23:00:29.929Z</time>
</trkpt>
<trkpt lat="-27.9284472" lon="153.3316340">
<ele>28.967</ele>
<time>2018-01-23T23:00:32.687Z</time>
</trkpt>
<trkpt lat="-27.9285911" lon="153.3317354">
<ele>29.034</ele>
<time>2018-01-23T23:00:36.183Z</time>
</trkpt>
<trkpt lat="-27.9287312" lon="153.3318370">
<ele>28.909</ele>
<time>2018-01-23T23:00:39.905Z</time>
</trkpt>
<trkpt lat="-27.9288577" lon="153.3319314">
<ele>28.706</ele>
<time>2018-01-23T23:00:42.579Z</time>
</trkpt>
<trkpt lat="-27.9289763" lon="153.3320256">
<ele>28.633</ele>
<time>2018-01-23T23:00:45.181Z</time>
</trkpt>
<trkpt lat="-27.9290960" lon="153.3321005">
<ele>28.741</ele>
<time>2018-01-23T23:00:47.420Z</time>
</trkpt>
<trkpt lat="-27.9291853" lon="153.3321893">
<ele>28.841</ele>
<time>2018-01-23T23:00:49.017Z</time>
</trkpt>
<trkpt lat="-27.9292822" lon="153.3322756">
<ele>28.704</ele>
<time>2018-01-23T23:00:50.524Z</time>
</trkpt>
<trkpt lat="-27.9293919" lon="153.3323514">
<ele>28.328</ele>
<time>2018-01-23T23:00:52.026Z</time>
</trkpt>
<trkpt lat="-27.9295116" lon="153.3324190">
<ele>27.889</ele>
<time>2018-01-23T23:00:53.588Z</time>
</trkpt>
<trkpt lat="-27.9296212" lon="153.3324833">
<ele>27.538</ele>
<time>2018-01-23T23:00:55.039Z</time>
</trkpt>
<trkpt lat="-27.9297002" lon="153.3325364">
<ele>27.285</ele>
<time>2018-01-23T23:00:56.120Z</time>
</trkpt>
<trkpt lat="-27.9298079" lon="153.3326010">
<ele>26.805</ele>
<time>2018-01-23T23:00:57.544Z</time>
</trkpt>
<trkpt lat="-27.9299538" lon="153.3326651">
<ele>25.802</ele>
<time>2018-01-23T23:00:59.346Z</time>
</trkpt>
<trkpt lat="-27.9301234" lon="153.3327441">
<ele>24.553</ele>
<time>2018-01-23T23:01:01.405Z</time>
</trkpt>
<trkpt lat="-27.9302567" lon="153.3328444">
<ele>23.539</ele>
<time>2018-01-23T23:01:03.136Z</time>
</trkpt>
<trkpt lat="-27.9303971" lon="153.3329479">
<ele>22.810</ele>
<time>2018-01-23T23:01:04.894Z</time>
</trkpt>
<trkpt lat="-27.9305621" lon="153.3330304">
<ele>22.245</ele>
<time>2018-01-23T23:01:06.756Z</time>
</trkpt>
<trkpt lat="-27.9307176" lon="153.3331353">
<ele>21.759</ele>
<time>2018-01-23T23:01:08.631Z</time>
</trkpt>
<trkpt lat="-27.9308633" lon="153.3332338">
<ele>21.209</ele>
<time>2018-01-23T23:01:10.402Z</time>
</trkpt>
<trkpt lat="-27.9310357" lon="153.3333467">
<ele>20.613</ele>
<time>2018-01-23T23:01:12.485Z</time>
</trkpt>
<trkpt lat="-27.9312116" lon="153.3334725">
<ele>20.861</ele>
<time>2018-01-23T23:01:14.667Z</time>
</trkpt>
<trkpt lat="-27.9313976" lon="153.3335563">
<ele>22.408</ele>
<time>2018-01-23T23:01:16.771Z</time>
</trkpt>
<trkpt lat="-27.9315647" lon="153.3336488">
<ele>24.131</ele>
<time>2018-01-23T23:01:18.736Z</time>
</trkpt>
<trkpt lat="-27.9317283" lon="153.3337329">
<ele>24.925</ele>
<time>2018-01-23T23:01:20.658Z</time>
</trkpt>
<trkpt lat="-27.9318999" lon="153.3338444">
<ele>24.856</ele>
<time>2018-01-23T23:01:22.797Z</time>
</trkpt>
<trkpt lat="-27.9320696" lon="153.3339464">
<ele>24.368</ele>
<time>2018-01-23T23:01:24.868Z</time>
</trkpt>
<trkpt lat="-27.9322413" lon="153.3340461">
<ele>23.946</ele>
<time>2018-01-23T23:01:26.961Z</time>
</trkpt>
<trkpt lat="-27.9324138" lon="153.3341430">
<ele>23.803</ele>
<time>2018-01-23T23:01:29.095Z</time>
</trkpt>
<trkpt lat="-27.9325848" lon="153.3342433">
<ele>23.751</ele>
<time>2018-01-23T23:01:31.248Z</time>
</trkpt>
<trkpt lat="-27.9327557" lon="153.3343343">
<ele>23.498</ele>
<time>2018-01-23T23:01:33.350Z</time>
</trkpt>
<trkpt lat="-27.9329270" lon="153.3344242">
<ele>22.942</ele>
<time>2018-01-23T23:01:35.442Z</time>
</trkpt>
<trkpt lat="-27.9330985" lon="153.3345078">
<ele>22.220</ele>
<time>2018-01-23T23:01:37.473Z</time>
</trkpt>
<trkpt lat="-27.9332598" lon="153.3345918">
<ele>21.595</ele>
<time>2018-01-23T23:01:39.371Z</time>
</trkpt>
<trkpt lat="-27.9334246" lon="153.3346663">
<ele>21.269</ele>
<time>2018-01-23T23:01:41.265Z</time>
</trkpt>
<trkpt lat="-27.9335902" lon="153.3347406">
<ele>21.238</ele>
<time>2018-01-23T23:01:43.179Z</time>
</trkpt>
<trkpt lat="-27.9337592" lon="153.3348124">
<ele>21.372</ele>
<time>2018-01-23T23:01:45.121Z</time>
</trkpt>
<trkpt lat="-27.9339303" lon="153.3348807">
<ele>21.528</ele>
<time>2018-01-23T23:01:47.067Z</time>
</trkpt>
<trkpt lat="-27.9341075" lon="153.3349579">
<ele>21.562</ele>
<time>2018-01-23T23:01:49.103Z</time>
</trkpt>
<trkpt lat="-27.9342839" lon="153.3350331">
<ele>21.435</ele>
<time>2018-01-23T23:01:51.146Z</time>
</trkpt>
<trkpt lat="-27.9344557" lon="153.3351099">
<ele>21.291</ele>
<time>2018-01-23T23:01:53.181Z</time>
</trkpt>
<trkpt lat="-27.9346256" lon="153.3351903">
<ele>21.293</ele>
<time>2018-01-23T23:01:55.211Z</time>
</trkpt>
<trkpt lat="-27.9348028" lon="153.3352624">
<ele>21.448</ele>
<time>2018-01-23T23:01:57.261Z</time>
</trkpt>
<trkpt lat="-27.9349827" lon="153.3353259">
<ele>21.681</ele>
<time>2018-01-23T23:01:59.300Z</time>
</trkpt>
<trkpt lat="-27.9351584" lon="153.3353920">
<ele>21.914</ele>
<time>2018-01-23T23:02:01.307Z</time>
</trkpt>
<trkpt lat="-27.9353279" lon="153.3354627">
<ele>22.069</ele>
<time>2018-01-23T23:02:03.260Z</time>
</trkpt>
<trkpt lat="-27.9355008" lon="153.3355264">
<ele>22.098</ele>
<time>2018-01-23T23:02:05.225Z</time>
</trkpt>
<trkpt lat="-27.9356774" lon="153.3355856">
<ele>22.014</ele>
<time>2018-01-23T23:02:07.226Z</time>
</trkpt>
<trkpt lat="-27.9358533" lon="153.3356508">
<ele>21.881</ele>
<time>2018-01-23T23:02:09.245Z</time>
</trkpt>
<trkpt lat="-27.9360288" lon="153.3357143">
<ele>21.787</ele>
<time>2018-01-23T23:02:11.258Z</time>
</trkpt>
<trkpt lat="-27.9362049" lon="153.3357783">
<ele>21.757</ele>
<time>2018-01-23T23:02:13.294Z</time>
</trkpt>
<trkpt lat="-27.9363820" lon="153.3358380">
<ele>21.720</ele>
<time>2018-01-23T23:02:15.344Z</time>
</trkpt>
<trkpt lat="-27.9365572" lon="153.3359026">
<ele>21.531</ele>
<time>2018-01-23T23:02:17.403Z</time>
</trkpt>
<trkpt lat="-27.9367300" lon="153.3359680">
<ele>21.085</ele>
<time>2018-01-23T23:02:19.463Z</time>
</trkpt>
<trkpt lat="-27.9369055" lon="153.3360301">
<ele>20.497</ele>
<time>2018-01-23T23:02:21.543Z</time>
</trkpt>
<trkpt lat="-27.9370831" lon="153.3360765">
<ele>20.033</ele>
<time>2018-01-23T23:02:23.602Z</time>
</trkpt>
<trkpt lat="-27.9372499" lon="153.3361452">
<ele>19.807</ele>
<time>2018-01-23T23:02:25.617Z</time>
</trkpt>
<trkpt lat="-27.9374206" lon="153.3362118">
<ele>19.703</ele>
<time>2018-01-23T23:02:27.671Z</time>
</trkpt>
<trkpt lat="-27.9375854" lon="153.3362754">
<ele>19.601</ele>
<time>2018-01-23T23:02:29.620Z</time>
</trkpt>
<trkpt lat="-27.9377519" lon="153.3363351">
<ele>19.456</ele>
<time>2018-01-23T23:02:31.533Z</time>
</trkpt>
<trkpt lat="-27.9379219" lon="153.3363936">
<ele>19.268</ele>
<time>2018-01-23T23:02:33.458Z</time>
</trkpt>
<trkpt lat="-27.9380904" lon="153.3364545">
<ele>19.086</ele>
<time>2018-01-23T23:02:35.374Z</time>
</trkpt>
<trkpt lat="-27.9382545" lon="153.3365151">
<ele>18.906</ele>
<time>2018-01-23T23:02:37.251Z</time>
</trkpt>
<trkpt lat="-27.9384205" lon="153.3365818">
<ele>18.612</ele>
<time>2018-01-23T23:02:39.130Z</time>
</trkpt>
<trkpt lat="-27.9385937" lon="153.3366500">
<ele>18.122</ele>
<time>2018-01-23T23:02:41.004Z</time>
</trkpt>
<trkpt lat="-27.9387677" lon="153.3367206">
<ele>17.513</ele>
<time>2018-01-23T23:02:42.854Z</time>
</trkpt>
<trkpt lat="-27.9389407" lon="153.3367898">
<ele>16.957</ele>
<time>2018-01-23T23:02:44.726Z</time>
</trkpt>
<trkpt lat="-27.9391136" lon="153.3368586">
<ele>16.593</ele>
<time>2018-01-23T23:02:46.665Z</time>
</trkpt>
<trkpt lat="-27.9392858" lon="153.3369231">
<ele>16.451</ele>
<time>2018-01-23T23:02:48.648Z</time>
</trkpt>
<trkpt lat="-27.9394737" lon="153.3369868">
<ele>16.472</ele>
<time>2018-01-23T23:02:50.832Z</time>
</trkpt>
<trkpt lat="-27.9396676" lon="153.3370578">
<ele>16.564</ele>
<time>2018-01-23T23:02:53.116Z</time>
</trkpt>
<trkpt lat="-27.9398499" lon="153.3371352">
<ele>16.612</ele>
<time>2018-01-23T23:02:55.295Z</time>
</trkpt>
<trkpt lat="-27.9400243" lon="153.3372029">
<ele>16.491</ele>
<time>2018-01-23T23:02:57.357Z</time>
</trkpt>
<trkpt lat="-27.9401931" lon="153.3372679">
<ele>16.177</ele>
<time>2018-01-23T23:02:59.341Z</time>
</trkpt>
<trkpt lat="-27.9403585" lon="153.3373363">
<ele>15.804</ele>
<time>2018-01-23T23:03:01.267Z</time>
</trkpt>
<trkpt lat="-27.9405225" lon="153.3374089">
<ele>15.490</ele>
<time>2018-01-23T23:03:03.180Z</time>
</trkpt>
<trkpt lat="-27.9406885" lon="153.3374787">
<ele>15.058</ele>
<time>2018-01-23T23:03:05.110Z</time>
</trkpt>
<trkpt lat="-27.9408537" lon="153.3375486">
<ele>14.357</ele>
<time>2018-01-23T23:03:07.039Z</time>
</trkpt>
<trkpt lat="-27.9410174" lon="153.3376252">
<ele>13.670</ele>
<time>2018-01-23T23:03:08.983Z</time>
</trkpt>
<trkpt lat="-27.9411867" lon="153.3377032">
<ele>13.428</ele>
<time>2018-01-23T23:03:10.970Z</time>
</trkpt>
<trkpt lat="-27.9413580" lon="153.3377753">
<ele>13.806</ele>
<time>2018-01-23T23:03:12.920Z</time>
</trkpt>
<trkpt lat="-27.9415230" lon="153.3378512">
<ele>14.652</ele>
<time>2018-01-23T23:03:14.828Z</time>
</trkpt>
<trkpt lat="-27.9416940" lon="153.3379227">
<ele>15.558</ele>
<time>2018-01-23T23:03:16.832Z</time>
</trkpt>
<trkpt lat="-27.9418640" lon="153.3379955">
<ele>16.233</ele>
<time>2018-01-23T23:03:18.861Z</time>
</trkpt>
<trkpt lat="-27.9420326" lon="153.3380677">
<ele>16.620</ele>
<time>2018-01-23T23:03:20.883Z</time>
</trkpt>
<trkpt lat="-27.9422128" lon="153.3381364">
<ele>16.760</ele>
<time>2018-01-23T23:03:23.024Z</time>
</trkpt>
<trkpt lat="-27.9423851" lon="153.3382115">
<ele>16.731</ele>
<time>2018-01-23T23:03:25.108Z</time>
</trkpt>
<trkpt lat="-27.9425510" lon="153.3382772">
<ele>16.620</ele>
<time>2018-01-23T23:03:27.099Z</time>
</trkpt>
<trkpt lat="-27.9427211" lon="153.3383454">
<ele>16.482</ele>
<time>2018-01-23T23:03:29.142Z</time>
</trkpt>
<trkpt lat="-27.9428863" lon="153.3384179">
<ele>16.337</ele>
<time>2018-01-23T23:03:31.157Z</time>
</trkpt>
<trkpt lat="-27.9430508" lon="153.3384917">
<ele>15.762</ele>
<time>2018-01-23T23:03:33.191Z</time>
</trkpt>
<trkpt lat="-27.9432128" lon="153.3385688">
<ele>14.530</ele>
<time>2018-01-23T23:03:35.215Z</time>
</trkpt>
<trkpt lat="-27.9433744" lon="153.3386446">
<ele>13.385</ele>
<time>2018-01-23T23:03:37.236Z</time>
</trkpt>
<trkpt lat="-27.9435398" lon="153.3387155">
<ele>13.150</ele>
<time>2018-01-23T23:03:39.301Z</time>
</trkpt>
<trkpt lat="-27.9437032" lon="153.3387873">
<ele>13.673</ele>
<time>2018-01-23T23:03:41.355Z</time>
</trkpt>
<trkpt lat="-27.9438620" lon="153.3388651">
<ele>14.286</ele>
<time>2018-01-23T23:03:43.380Z</time>
</trkpt>
<trkpt lat="-27.9440214" lon="153.3389390">
<ele>14.484</ele>
<time>2018-01-23T23:03:45.389Z</time>
</trkpt>
<trkpt lat="-27.9441826" lon="153.3390122">
<ele>14.192</ele>
<time>2018-01-23T23:03:47.414Z</time>
</trkpt>
<trkpt lat="-27.9443376" lon="153.3390831">
<ele>13.650</ele>
<time>2018-01-23T23:03:49.364Z</time>
</trkpt>
<trkpt lat="-27.9444958" lon="153.3391549">
<ele>13.229</ele>
<time>2018-01-23T23:03:51.320Z</time>
</trkpt>
<trkpt lat="-27.9446557" lon="153.3392236">
<ele>13.155</ele>
<time>2018-01-23T23:03:53.231Z</time>
</trkpt>
<trkpt lat="-27.9448121" lon="153.3393003">
<ele>13.454</ele>
<time>2018-01-23T23:03:55.095Z</time>
</trkpt>
<trkpt lat="-27.9449707" lon="153.3393785">
<ele>13.987</ele>
<time>2018-01-23T23:03:56.958Z</time>
</trkpt>
<trkpt lat="-27.9451290" lon="153.3394523">
<ele>14.535</ele>
<time>2018-01-23T23:03:58.796Z</time>
</trkpt>
<trkpt lat="-27.9452878" lon="153.3395289">
<ele>14.975</ele>
<time>2018-01-23T23:04:00.666Z</time>
</trkpt>
<trkpt lat="-27.9454521" lon="153.3396082">
<ele>15.256</ele>
<time>2018-01-23T23:04:02.634Z</time>
</trkpt>
<trkpt lat="-27.9456239" lon="153.3396823">
<ele>15.373</ele>
<time>2018-01-23T23:04:04.680Z</time>
</trkpt>
<trkpt lat="-27.9457938" lon="153.3397633">
<ele>15.396</ele>
<time>2018-01-23T23:04:06.734Z</time>
</trkpt>
<trkpt lat="-27.9459627" lon="153.3398564">
<ele>15.445</ele>
<time>2018-01-23T23:04:08.852Z</time>
</trkpt>
<trkpt lat="-27.9461263" lon="153.3399457">
<ele>15.574</ele>
<time>2018-01-23T23:04:10.961Z</time>
</trkpt>
<trkpt lat="-27.9462900" lon="153.3400342">
<ele>15.730</ele>
<time>2018-01-23T23:04:13.104Z</time>
</trkpt>
<trkpt lat="-27.9464525" lon="153.3401206">
<ele>15.847</ele>
<time>2018-01-23T23:04:15.214Z</time>
</trkpt>
<trkpt lat="-27.9466194" lon="153.3401980">
<ele>15.926</ele>
<time>2018-01-23T23:04:17.331Z</time>
</trkpt>
<trkpt lat="-27.9467861" lon="153.3402677">
<ele>15.989</ele>
<time>2018-01-23T23:04:19.459Z</time>
</trkpt>
<trkpt lat="-27.9469397" lon="153.3403403">
<ele>16.028</ele>
<time>2018-01-23T23:04:21.525Z</time>
</trkpt>
<trkpt lat="-27.9470892" lon="153.3404227">
<ele>16.027</ele>
<time>2018-01-23T23:04:23.716Z</time>
</trkpt>
<trkpt lat="-27.9472433" lon="153.3405065">
<ele>15.977</ele>
<time>2018-01-23T23:04:26.221Z</time>
</trkpt>
<trkpt lat="-27.9474020" lon="153.3405841">
<ele>15.830</ele>
<time>2018-01-23T23:04:29.470Z</time>
</trkpt>
<trkpt lat="-27.9475543" lon="153.3406601">
<ele>15.504</ele>
<time>2018-01-23T23:04:34.347Z</time>
</trkpt>
<trkpt lat="-27.9477009" lon="153.3407326">
<ele>14.993</ele>
<time>2018-01-23T23:04:40.752Z</time>
</trkpt>
<trkpt lat="-27.9478397" lon="153.3408035">
<ele>14.468</ele>
<time>2018-01-23T23:04:46.876Z</time>
</trkpt>
<trkpt lat="-27.9479646" lon="153.3408732">
<ele>14.132</ele>
<time>2018-01-23T23:04:53.041Z</time>
</trkpt>
<trkpt lat="-27.9480778" lon="153.3409250">
<ele>14.001</ele>
<time>2018-01-23T23:04:56.211Z</time>
</trkpt>
<trkpt lat="-27.9481724" lon="153.3409672">
<ele>13.959</ele>
<time>2018-01-23T23:04:57.917Z</time>
</trkpt>
<trkpt lat="-27.9482774" lon="153.3410269">
<ele>13.926</ele>
<time>2018-01-23T23:04:59.358Z</time>
</trkpt>
<trkpt lat="-27.9483636" lon="153.3410941">
<ele>13.893</ele>
<time>2018-01-23T23:05:00.452Z</time>
</trkpt>
<trkpt lat="-27.9484329" lon="153.3411630">
<ele>13.849</ele>
<time>2018-01-23T23:05:01.259Z</time>
</trkpt>
<trkpt lat="-27.9485401" lon="153.3412018">
<ele>13.750</ele>
<time>2018-01-23T23:05:02.210Z</time>
</trkpt>
<trkpt lat="-27.9486284" lon="153.3412512">
<ele>13.601</ele>
<time>2018-01-23T23:05:02.946Z</time>
</trkpt>
<trkpt lat="-27.9487175" lon="153.3412959">
<ele>13.472</ele>
<time>2018-01-23T23:05:03.675Z</time>
</trkpt>
<trkpt lat="-27.9488183" lon="153.3413653">
<ele>13.407</ele>
<time>2018-01-23T23:05:04.495Z</time>
</trkpt>
<trkpt lat="-27.9489444" lon="153.3414349">
<ele>13.395</ele>
<time>2018-01-23T23:05:05.426Z</time>
</trkpt>
<trkpt lat="-27.9491308" lon="153.3415363">
<ele>13.402</ele>
<time>2018-01-23T23:05:06.695Z</time>
</trkpt>
<trkpt lat="-27.9493916" lon="153.3416654">
<ele>13.403</ele>
<time>2018-01-23T23:05:08.297Z</time>
</trkpt>
<trkpt lat="-27.9497048" lon="153.3418253">
<ele>13.387</ele>
<time>2018-01-23T23:05:10.025Z</time>
</trkpt>
<trkpt lat="-27.9500941" lon="153.3420575">
<ele>13.389</ele>
<time>2018-01-23T23:05:12.030Z</time>
</trkpt>
<trkpt lat="-27.9505380" lon="153.3422998">
<ele>13.505</ele>
<time>2018-01-23T23:05:14.186Z</time>
</trkpt>
<trkpt lat="-27.9509563" lon="153.3425111">
<ele>13.757</ele>
<time>2018-01-23T23:05:16.158Z</time>
</trkpt>
<trkpt lat="-27.9513875" lon="153.3427150">
<ele>14.106</ele>
<time>2018-01-23T23:05:18.130Z</time>
</trkpt>
<trkpt lat="-27.9518180" lon="153.3429445">
<ele>14.520</ele>
<time>2018-01-23T23:05:20.085Z</time>
</trkpt>
<trkpt lat="-27.9522563" lon="153.3431655">
<ele>14.886</ele>
<time>2018-01-23T23:05:22.004Z</time>
</trkpt>
<trkpt lat="-27.9527258" lon="153.3433576">
<ele>15.023</ele>
<time>2018-01-23T23:05:23.946Z</time>
</trkpt>
<trkpt lat="-27.9531844" lon="153.3435437">
<ele>14.825</ele>
<time>2018-01-23T23:05:25.823Z</time>
</trkpt>
<trkpt lat="-27.9536801" lon="153.3437239">
<ele>14.377</ele>
<time>2018-01-23T23:05:27.869Z</time>
</trkpt>
<trkpt lat="-27.9541861" lon="153.3439043">
<ele>13.957</ele>
<time>2018-01-23T23:05:29.992Z</time>
</trkpt>
<trkpt lat="-27.9546735" lon="153.3440583">
<ele>13.739</ele>
<time>2018-01-23T23:05:31.987Z</time>
</trkpt>
<trkpt lat="-27.9551536" lon="153.3442008">
<ele>13.662</ele>
<time>2018-01-23T23:05:33.924Z</time>
</trkpt>
<trkpt lat="-27.9556391" lon="153.3443570">
<ele>13.630</ele>
<time>2018-01-23T23:05:35.873Z</time>
</trkpt>
<trkpt lat="-27.9563903" lon="153.3445545">
<ele>13.622</ele>
<time>2018-01-23T23:05:38.825Z</time>
</trkpt>
<trkpt lat="-27.9571532" lon="153.3447287">
<ele>13.686</ele>
<time>2018-01-23T23:05:41.780Z</time>
</trkpt>
<trkpt lat="-27.9579434" lon="153.3448873">
<ele>13.915</ele>
<time>2018-01-23T23:05:44.814Z</time>
</trkpt>
<trkpt lat="-27.9587431" lon="153.3450331">
<ele>14.348</ele>
<time>2018-01-23T23:05:47.868Z</time>
</trkpt>
<trkpt lat="-27.9595281" lon="153.3451628">
<ele>14.917</ele>
<time>2018-01-23T23:05:50.894Z</time>
</trkpt>
<trkpt lat="-27.9603103" lon="153.3452411">
<ele>15.545</ele>
<time>2018-01-23T23:05:53.944Z</time>
</trkpt>
<trkpt lat="-27.9610759" lon="153.3452747">
<ele>16.291</ele>
<time>2018-01-23T23:05:56.914Z</time>
</trkpt>
<trkpt lat="-27.9618454" lon="153.3453806">
<ele>17.255</ele>
<time>2018-01-23T23:05:59.857Z</time>
</trkpt>
<trkpt lat="-27.9626107" lon="153.3455226">
<ele>18.404</ele>
<time>2018-01-23T23:06:02.740Z</time>
</trkpt>
<trkpt lat="-27.9634089" lon="153.3457067">
<ele>19.569</ele>
<time>2018-01-23T23:06:05.778Z</time>
</trkpt>
<trkpt lat="-27.9642222" lon="153.3458818">
<ele>20.602</ele>
<time>2018-01-23T23:06:08.887Z</time>
</trkpt>
<trkpt lat="-27.9650005" lon="153.3460823">
<ele>21.415</ele>
<time>2018-01-23T23:06:11.815Z</time>
</trkpt>
<trkpt lat="-27.9657753" lon="153.3463171">
<ele>22.059</ele>
<time>2018-01-23T23:06:14.707Z</time>
</trkpt>
<trkpt lat="-27.9665707" lon="153.3465955">
<ele>22.785</ele>
<time>2018-01-23T23:06:17.904Z</time>
</trkpt>
<trkpt lat="-27.9673475" lon="153.3468792">
<ele>23.860</ele>
<time>2018-01-23T23:06:21.612Z</time>
</trkpt>
<trkpt lat="-27.9680333" lon="153.3470420">
<ele>25.082</ele>
<time>2018-01-23T23:06:25.008Z</time>
</trkpt>
<trkpt lat="-27.9686179" lon="153.3471149">
<ele>26.353</ele>
<time>2018-01-23T23:06:27.765Z</time>
</trkpt>
<trkpt lat="-27.9692499" lon="153.3471898">
<ele>27.951</ele>
<time>2018-01-23T23:06:30.636Z</time>
</trkpt>
<trkpt lat="-27.9698786" lon="153.3472288">
<ele>30.015</ele>
<time>2018-01-23T23:06:33.409Z</time>
</trkpt>
<trkpt lat="-27.9705294" lon="153.3472204">
<ele>32.861</ele>
<time>2018-01-23T23:06:36.235Z</time>
</trkpt>
<trkpt lat="-27.9712373" lon="153.3471663">
<ele>36.517</ele>
<time>2018-01-23T23:06:39.293Z</time>
</trkpt>
<trkpt lat="-27.9719224" lon="153.3470392">
<ele>39.987</ele>
<time>2018-01-23T23:06:42.249Z</time>
</trkpt>
<trkpt lat="-27.9726256" lon="153.3468988">
<ele>42.531</ele>
<time>2018-01-23T23:06:45.241Z</time>
</trkpt>
<trkpt lat="-27.9733392" lon="153.3467580">
<ele>44.194</ele>
<time>2018-01-23T23:06:48.149Z</time>
</trkpt>
<trkpt lat="-27.9738131" lon="153.3466292">
<ele>45.142</ele>
<time>2018-01-23T23:06:50.060Z</time>
</trkpt>
<trkpt lat="-27.9742940" lon="153.3464576">
<ele>45.568</ele>
<time>2018-01-23T23:06:52.047Z</time>
</trkpt>
<trkpt lat="-27.9747478" lon="153.3462525">
<ele>45.636</ele>
<time>2018-01-23T23:06:53.975Z</time>
</trkpt>
<trkpt lat="-27.9751926" lon="153.3459766">
<ele>45.355</ele>
<time>2018-01-23T23:06:55.967Z</time>
</trkpt>
<trkpt lat="-27.9756329" lon="153.3456938">
<ele>44.388</ele>
<time>2018-01-23T23:06:57.957Z</time>
</trkpt>
<trkpt lat="-27.9760700" lon="153.3453772">
<ele>42.442</ele>
<time>2018-01-23T23:07:00.002Z</time>
</trkpt>
<trkpt lat="-27.9764650" lon="153.3449997">
<ele>40.118</ele>
<time>2018-01-23T23:07:02.029Z</time>
</trkpt>
<trkpt lat="-27.9768713" lon="153.3446505">
<ele>38.477</ele>
<time>2018-01-23T23:07:04.020Z</time>
</trkpt>
<trkpt lat="-27.9772600" lon="153.3442591">
<ele>37.258</ele>
<time>2018-01-23T23:07:06.069Z</time>
</trkpt>
<trkpt lat="-27.9776393" lon="153.3438799">
<ele>34.893</ele>
<time>2018-01-23T23:07:08.083Z</time>
</trkpt>
<trkpt lat="-27.9780485" lon="153.3435023">
<ele>30.728</ele>
<time>2018-01-23T23:07:10.195Z</time>
</trkpt>
<trkpt lat="-27.9784467" lon="153.3431799">
<ele>25.813</ele>
<time>2018-01-23T23:07:12.170Z</time>
</trkpt>
<trkpt lat="-27.9788896" lon="153.3429413">
<ele>21.414</ele>
<time>2018-01-23T23:07:14.197Z</time>
</trkpt>
<trkpt lat="-27.9793673" lon="153.3427328">
<ele>18.072</ele>
<time>2018-01-23T23:07:16.366Z</time>
</trkpt>
<trkpt lat="-27.9798336" lon="153.3425382">
<ele>15.944</ele>
<time>2018-01-23T23:07:18.476Z</time>
</trkpt>
<trkpt lat="-27.9802751" lon="153.3423746">
<ele>15.371</ele>
<time>2018-01-23T23:07:20.454Z</time>
</trkpt>
<trkpt lat="-27.9807220" lon="153.3422330">
<ele>16.177</ele>
<time>2018-01-23T23:07:22.458Z</time>
</trkpt>
<trkpt lat="-27.9812041" lon="153.3421043">
<ele>17.270</ele>
<time>2018-01-23T23:07:24.611Z</time>
</trkpt>
<trkpt lat="-27.9816385" lon="153.3420366">
<ele>17.827</ele>
<time>2018-01-23T23:07:26.503Z</time>
</trkpt>
<trkpt lat="-27.9820931" lon="153.3419507">
<ele>17.976</ele>
<time>2018-01-23T23:07:28.476Z</time>
</trkpt>
<trkpt lat="-27.9825513" lon="153.3418947">
<ele>18.149</ele>
<time>2018-01-23T23:07:30.434Z</time>
</trkpt>
<trkpt lat="-27.9830191" lon="153.3418235">
<ele>18.639</ele>
<time>2018-01-23T23:07:32.430Z</time>
</trkpt>
<trkpt lat="-27.9834914" lon="153.3417398">
<ele>19.437</ele>
<time>2018-01-23T23:07:34.448Z</time>
</trkpt>
<trkpt lat="-27.9839616" lon="153.3416447">
<ele>20.241</ele>
<time>2018-01-23T23:07:36.474Z</time>
</trkpt>
<trkpt lat="-27.9844369" lon="153.3415689">
<ele>20.721</ele>
<time>2018-01-23T23:07:38.534Z</time>
</trkpt>
<trkpt lat="-27.9848922" lon="153.3414870">
<ele>20.648</ele>
<time>2018-01-23T23:07:40.512Z</time>
</trkpt>
<trkpt lat="-27.9853520" lon="153.3414220">
<ele>19.962</ele>
<time>2018-01-23T23:07:42.467Z</time>
</trkpt>
<trkpt lat="-27.9857998" lon="153.3413657">
<ele>18.740</ele>
<time>2018-01-23T23:07:44.343Z</time>
</trkpt>
<trkpt lat="-27.9862770" lon="153.3412738">
<ele>17.142</ele>
<time>2018-01-23T23:07:46.350Z</time>
</trkpt>
<trkpt lat="-27.9867406" lon="153.3411967">
<ele>15.421</ele>
<time>2018-01-23T23:07:48.285Z</time>
</trkpt>
<trkpt lat="-27.9872226" lon="153.3411129">
<ele>13.954</ele>
<time>2018-01-23T23:07:50.291Z</time>
</trkpt>
<trkpt lat="-27.9876902" lon="153.3410313">
<ele>12.942</ele>
<time>2018-01-23T23:07:52.229Z</time>
</trkpt>
<trkpt lat="-27.9881903" lon="153.3409240">
<ele>11.879</ele>
<time>2018-01-23T23:07:54.276Z</time>
</trkpt>
<trkpt lat="-27.9886625" lon="153.3408807">
<ele>10.322</ele>
<time>2018-01-23T23:07:56.154Z</time>
</trkpt>
<trkpt lat="-27.9891617" lon="153.3407992">
<ele>8.832</ele>
<time>2018-01-23T23:07:58.170Z</time>
</trkpt>
<trkpt lat="-27.9896643" lon="153.3407358">
<ele>8.027</ele>
<time>2018-01-23T23:08:00.217Z</time>
</trkpt>
<trkpt lat="-27.9901597" lon="153.3406583">
<ele>7.800</ele>
<time>2018-01-23T23:08:02.253Z</time>
</trkpt>
<trkpt lat="-27.9906648" lon="153.3405863">
<ele>7.893</ele>
<time>2018-01-23T23:08:04.332Z</time>
</trkpt>
<trkpt lat="-27.9911526" lon="153.3405278">
<ele>8.121</ele>
<time>2018-01-23T23:08:06.346Z</time>
</trkpt>
<trkpt lat="-27.9916428" lon="153.3404580">
<ele>8.352</ele>
<time>2018-01-23T23:08:08.406Z</time>
</trkpt>
<trkpt lat="-27.9921281" lon="153.3403729">
<ele>8.492</ele>
<time>2018-01-23T23:08:10.507Z</time>
</trkpt>
<trkpt lat="-27.9926062" lon="153.3403152">
<ele>8.600</ele>
<time>2018-01-23T23:08:12.595Z</time>
</trkpt>
<trkpt lat="-27.9930765" lon="153.3402644">
<ele>8.834</ele>
<time>2018-01-23T23:08:14.633Z</time>
</trkpt>
<trkpt lat="-27.9935137" lon="153.3402223">
<ele>9.295</ele>
<time>2018-01-23T23:08:16.515Z</time>
</trkpt>
<trkpt lat="-27.9939590" lon="153.3402076">
<ele>10.029</ele>
<time>2018-01-23T23:08:18.438Z</time>
</trkpt>
<trkpt lat="-27.9944300" lon="153.3402011">
<ele>11.023</ele>
<time>2018-01-23T23:08:20.472Z</time>
</trkpt>
<trkpt lat="-27.9948837" lon="153.3401977">
<ele>12.112</ele>
<time>2018-01-23T23:08:22.413Z</time>
</trkpt>
<trkpt lat="-27.9953456" lon="153.3401206">
<ele>13.021</ele>
<time>2018-01-23T23:08:24.399Z</time>
</trkpt>
<trkpt lat="-27.9958295" lon="153.3400915">
<ele>13.556</ele>
<time>2018-01-23T23:08:26.458Z</time>
</trkpt>
<trkpt lat="-27.9963003" lon="153.3400685">
<ele>13.731</ele>
<time>2018-01-23T23:08:28.458Z</time>
</trkpt>
<trkpt lat="-27.9967757" lon="153.3400264">
<ele>13.754</ele>
<time>2018-01-23T23:08:30.484Z</time>
</trkpt>
<trkpt lat="-27.9972554" lon="153.3399779">
<ele>13.860</ele>
<time>2018-01-23T23:08:32.551Z</time>
</trkpt>
<trkpt lat="-27.9977245" lon="153.3399447">
<ele>14.083</ele>
<time>2018-01-23T23:08:34.607Z</time>
</trkpt>
<trkpt lat="-27.9981955" lon="153.3399125">
<ele>14.271</ele>
<time>2018-01-23T23:08:36.677Z</time>
</trkpt>
<trkpt lat="-27.9986555" lon="153.3398693">
<ele>14.251</ele>
<time>2018-01-23T23:08:38.659Z</time>
</trkpt>
<trkpt lat="-27.9990959" lon="153.3398390">
<ele>13.932</ele>
<time>2018-01-23T23:08:40.516Z</time>
</trkpt>
<trkpt lat="-27.9995487" lon="153.3397859">
<ele>13.347</ele>
<time>2018-01-23T23:08:42.402Z</time>
</trkpt>
<trkpt lat="-28.0000347" lon="153.3397424">
<ele>12.652</ele>
<time>2018-01-23T23:08:44.398Z</time>
</trkpt>
<trkpt lat="-28.0005162" lon="153.3397166">
<ele>12.028</ele>
<time>2018-01-23T23:08:46.363Z</time>
</trkpt>
<trkpt lat="-28.0010077" lon="153.3396526">
<ele>11.565</ele>
<time>2018-01-23T23:08:48.396Z</time>
</trkpt>
<trkpt lat="-28.0015125" lon="153.3396636">
<ele>11.237</ele>
<time>2018-01-23T23:08:50.505Z</time>
</trkpt>
<trkpt lat="-28.0019943" lon="153.3397457">
<ele>10.753</ele>
<time>2018-01-23T23:08:52.558Z</time>
</trkpt>
<trkpt lat="-28.0024786" lon="153.3398313">
<ele>9.814</ele>
<time>2018-01-23T23:08:54.619Z</time>
</trkpt>
<trkpt lat="-28.0029371" lon="153.3399672">
<ele>8.627</ele>
<time>2018-01-23T23:08:56.608Z</time>
</trkpt>
<trkpt lat="-28.0034041" lon="153.3401259">
<ele>7.659</ele>
<time>2018-01-23T23:08:58.652Z</time>
</trkpt>
<trkpt lat="-28.0038623" lon="153.3402970">
<ele>7.096</ele>
<time>2018-01-23T23:09:00.676Z</time>
</trkpt>
<trkpt lat="-28.0042975" lon="153.3405113">
<ele>7.307</ele>
<time>2018-01-23T23:09:02.665Z</time>
</trkpt>
<trkpt lat="-28.0047295" lon="153.3407528">
<ele>8.384</ele>
<time>2018-01-23T23:09:04.676Z</time>
</trkpt>
<trkpt lat="-28.0051418" lon="153.3410113">
<ele>9.539</ele>
<time>2018-01-23T23:09:06.629Z</time>
</trkpt>
<trkpt lat="-28.0055376" lon="153.3413151">
<ele>10.090</ele>
<time>2018-01-23T23:09:08.600Z</time>
</trkpt>
<trkpt lat="-28.0059455" lon="153.3416339">
<ele>10.212</ele>
<time>2018-01-23T23:09:10.641Z</time>
</trkpt>
<trkpt lat="-28.0063330" lon="153.3419738">
<ele>10.281</ele>
<time>2018-01-23T23:09:12.657Z</time>
</trkpt>
<trkpt lat="-28.0067247" lon="153.3422943">
<ele>10.531</ele>
<time>2018-01-23T23:09:14.644Z</time>
</trkpt>
<trkpt lat="-28.0071115" lon="153.3426149">
<ele>11.003</ele>
<time>2018-01-23T23:09:16.612Z</time>
</trkpt>
<trkpt lat="-28.0075160" lon="153.3429487">
<ele>11.534</ele>
<time>2018-01-23T23:09:18.665Z</time>
</trkpt>
<trkpt lat="-28.0079168" lon="153.3432736">
<ele>11.898</ele>
<time>2018-01-23T23:09:20.689Z</time>
</trkpt>
<trkpt lat="-28.0083071" lon="153.3435898">
<ele>12.083</ele>
<time>2018-01-23T23:09:22.659Z</time>
</trkpt>
<trkpt lat="-28.0086979" lon="153.3439103">
<ele>12.260</ele>
<time>2018-01-23T23:09:24.635Z</time>
</trkpt>
<trkpt lat="-28.0091014" lon="153.3442142">
<ele>12.622</ele>
<time>2018-01-23T23:09:26.622Z</time>
</trkpt>
<trkpt lat="-28.0095028" lon="153.3445361">
<ele>13.291</ele>
<time>2018-01-23T23:09:28.640Z</time>
</trkpt>
<trkpt lat="-28.0099061" lon="153.3448490">
<ele>14.151</ele>
<time>2018-01-23T23:09:30.643Z</time>
</trkpt>
<trkpt lat="-28.0102862" lon="153.3451791">
<ele>14.971</ele>
<time>2018-01-23T23:09:32.601Z</time>
</trkpt>
<trkpt lat="-28.0107035" lon="153.3455031">
<ele>15.764</ele>
<time>2018-01-23T23:09:34.662Z</time>
</trkpt>
<trkpt lat="-28.0111030" lon="153.3457885">
<ele>17.589</ele>
<time>2018-01-23T23:09:36.582Z</time>
</trkpt>
<trkpt lat="-28.0115336" lon="153.3460787">
<ele>20.932</ele>
<time>2018-01-23T23:09:38.617Z</time>
</trkpt>
<trkpt lat="-28.0119587" lon="153.3463731">
<ele>24.166</ele>
<time>2018-01-23T23:09:40.640Z</time>
</trkpt>
<trkpt lat="-28.0123762" lon="153.3466584">
<ele>25.788</ele>
<time>2018-01-23T23:09:42.627Z</time>
</trkpt>
<trkpt lat="-28.0128126" lon="153.3469068">
<ele>26.107</ele>
<time>2018-01-23T23:09:44.624Z</time>
</trkpt>
<trkpt lat="-28.0132566" lon="153.3471823">
<ele>25.787</ele>
<time>2018-01-23T23:09:46.693Z</time>
</trkpt>
<trkpt lat="-28.0136817" lon="153.3474486">
<ele>25.159</ele>
<time>2018-01-23T23:09:48.669Z</time>
</trkpt>
<trkpt lat="-28.0141057" lon="153.3477120">
<ele>24.324</ele>
<time>2018-01-23T23:09:50.610Z</time>
</trkpt>
<trkpt lat="-28.0145517" lon="153.3479354">
<ele>23.402</ele>
<time>2018-01-23T23:09:52.538Z</time>
</trkpt>
<trkpt lat="-28.0149967" lon="153.3481532">
<ele>22.537</ele>
<time>2018-01-23T23:09:54.442Z</time>
</trkpt>
<trkpt lat="-28.0154469" lon="153.3483991">
<ele>21.890</ele>
<time>2018-01-23T23:09:56.399Z</time>
</trkpt>
<trkpt lat="-28.0159183" lon="153.3486205">
<ele>21.572</ele>
<time>2018-01-23T23:09:58.399Z</time>
</trkpt>
<trkpt lat="-28.0164175" lon="153.3488082">
<ele>21.642</ele>
<time>2018-01-23T23:10:00.461Z</time>
</trkpt>
<trkpt lat="-28.0168852" lon="153.3490031">
<ele>22.099</ele>
<time>2018-01-23T23:10:02.409Z</time>
</trkpt>
<trkpt lat="-28.0173537" lon="153.3492208">
<ele>22.683</ele>
<time>2018-01-23T23:10:04.390Z</time>
</trkpt>
<trkpt lat="-28.0178449" lon="153.3493895">
<ele>23.047</ele>
<time>2018-01-23T23:10:06.401Z</time>
</trkpt>
<trkpt lat="-28.0183407" lon="153.3495735">
<ele>23.108</ele>
<time>2018-01-23T23:10:08.421Z</time>
</trkpt>
<trkpt lat="-28.0188356" lon="153.3497533">
<ele>22.963</ele>
<time>2018-01-23T23:10:10.353Z</time>
</trkpt>
<trkpt lat="-28.0193199" lon="153.3498985">
<ele>22.737</ele>
<time>2018-01-23T23:10:12.126Z</time>
</trkpt>
<trkpt lat="-28.0198345" lon="153.3500373">
<ele>22.574</ele>
<time>2018-01-23T23:10:13.907Z</time>
</trkpt>
<trkpt lat="-28.0203821" lon="153.3501788">
<ele>22.574</ele>
<time>2018-01-23T23:10:15.759Z</time>
</trkpt>
<trkpt lat="-28.0209742" lon="153.3502934">
<ele>22.823</ele>
<time>2018-01-23T23:10:17.837Z</time>
</trkpt>
<trkpt lat="-28.0215776" lon="153.3504193">
<ele>23.471</ele>
<time>2018-01-23T23:10:20.148Z</time>
</trkpt>
<trkpt lat="-28.0221422" lon="153.3505218">
<ele>24.462</ele>
<time>2018-01-23T23:10:22.397Z</time>
</trkpt>
<trkpt lat="-28.0226577" lon="153.3505805">
<ele>25.484</ele>
<time>2018-01-23T23:10:24.440Z</time>
</trkpt>
<trkpt lat="-28.0231433" lon="153.3506524">
<ele>26.851</ele>
<time>2018-01-23T23:10:26.344Z</time>
</trkpt>
<trkpt lat="-28.0236350" lon="153.3507175">
<ele>29.014</ele>
<time>2018-01-23T23:10:28.238Z</time>
</trkpt>
<trkpt lat="-28.0241460" lon="153.3507748">
<ele>31.318</ele>
<time>2018-01-23T23:10:30.188Z</time>
</trkpt>
<trkpt lat="-28.0246710" lon="153.3508617">
<ele>32.799</ele>
<time>2018-01-23T23:10:32.197Z</time>
</trkpt>
<trkpt lat="-28.0251979" lon="153.3509353">
<ele>33.281</ele>
<time>2018-01-23T23:10:34.223Z</time>
</trkpt>
<trkpt lat="-28.0257339" lon="153.3510049">
<ele>32.974</ele>
<time>2018-01-23T23:10:36.310Z</time>
</trkpt>
<trkpt lat="-28.0262588" lon="153.3510592">
<ele>32.118</ele>
<time>2018-01-23T23:10:38.356Z</time>
</trkpt>
<trkpt lat="-28.0267729" lon="153.3511510">
<ele>30.832</ele>
<time>2018-01-23T23:10:40.378Z</time>
</trkpt>
<trkpt lat="-28.0272847" lon="153.3512216">
<ele>29.201</ele>
<time>2018-01-23T23:10:42.394Z</time>
</trkpt>
<trkpt lat="-28.0277963" lon="153.3512982">
<ele>27.347</ele>
<time>2018-01-23T23:10:44.428Z</time>
</trkpt>
<trkpt lat="-28.0283099" lon="153.3513962">
<ele>25.361</ele>
<time>2018-01-23T23:10:46.491Z</time>
</trkpt>
<trkpt lat="-28.0288181" lon="153.3514802">
<ele>23.265</ele>
<time>2018-01-23T23:10:48.524Z</time>
</trkpt>
<trkpt lat="-28.0293019" lon="153.3515738">
<ele>21.080</ele>
<time>2018-01-23T23:10:50.457Z</time>
</trkpt>
<trkpt lat="-28.0298129" lon="153.3516229">
<ele>18.878</ele>
<time>2018-01-23T23:10:52.472Z</time>
</trkpt>
<trkpt lat="-28.0303242" lon="153.3516861">
<ele>16.687</ele>
<time>2018-01-23T23:10:54.493Z</time>
</trkpt>
<trkpt lat="-28.0308334" lon="153.3517598">
<ele>14.577</ele>
<time>2018-01-23T23:10:56.512Z</time>
</trkpt>
<trkpt lat="-28.0313474" lon="153.3518151">
<ele>12.808</ele>
<time>2018-01-23T23:10:58.539Z</time>
</trkpt>
<trkpt lat="-28.0318596" lon="153.3518661">
<ele>11.503</ele>
<time>2018-01-23T23:11:00.556Z</time>
</trkpt>
<trkpt lat="-28.0323596" lon="153.3519466">
<ele>10.512</ele>
<time>2018-01-23T23:11:02.557Z</time>
</trkpt>
<trkpt lat="-28.0328677" lon="153.3520138">
<ele>9.783</ele>
<time>2018-01-23T23:11:04.666Z</time>
</trkpt>
<trkpt lat="-28.0333742" lon="153.3520821">
<ele>9.372</ele>
<time>2018-01-23T23:11:06.890Z</time>
</trkpt>
<trkpt lat="-28.0338767" lon="153.3521623">
<ele>9.310</ele>
<time>2018-01-23T23:11:09.167Z</time>
</trkpt>
<trkpt lat="-28.0343296" lon="153.3522189">
<ele>9.594</ele>
<time>2018-01-23T23:11:11.208Z</time>
</trkpt>
<trkpt lat="-28.0347588" lon="153.3523037">
<ele>10.061</ele>
<time>2018-01-23T23:11:13.148Z</time>
</trkpt>
<trkpt lat="-28.0351777" lon="153.3523926">
<ele>10.443</ele>
<time>2018-01-23T23:11:15.047Z</time>
</trkpt>
<trkpt lat="-28.0356200" lon="153.3524533">
<ele>10.588</ele>
<time>2018-01-23T23:11:17.040Z</time>
</trkpt>
<trkpt lat="-28.0360622" lon="153.3525122">
<ele>10.513</ele>
<time>2018-01-23T23:11:19.042Z</time>
</trkpt>
<trkpt lat="-28.0365231" lon="153.3525521">
<ele>10.333</ele>
<time>2018-01-23T23:11:21.096Z</time>
</trkpt>
<trkpt lat="-28.0369658" lon="153.3526067">
<ele>10.173</ele>
<time>2018-01-23T23:11:23.009Z</time>
</trkpt>
<trkpt lat="-28.0374107" lon="153.3526662">
<ele>10.098</ele>
<time>2018-01-23T23:11:24.872Z</time>
</trkpt>
<trkpt lat="-28.0378642" lon="153.3527176">
<ele>10.173</ele>
<time>2018-01-23T23:11:26.728Z</time>
</trkpt>
<trkpt lat="-28.0383348" lon="153.3527729">
<ele>10.455</ele>
<time>2018-01-23T23:11:28.646Z</time>
</trkpt>
<trkpt lat="-28.0388452" lon="153.3528343">
<ele>10.945</ele>
<time>2018-01-23T23:11:30.746Z</time>
</trkpt>
<trkpt lat="-28.0393275" lon="153.3529061">
<ele>11.688</ele>
<time>2018-01-23T23:11:32.749Z</time>
</trkpt>
<trkpt lat="-28.0398192" lon="153.3529649">
<ele>12.743</ele>
<time>2018-01-23T23:11:34.781Z</time>
</trkpt>
<trkpt lat="-28.0402895" lon="153.3530572">
<ele>14.005</ele>
<time>2018-01-23T23:11:36.724Z</time>
</trkpt>
<trkpt lat="-28.0407736" lon="153.3531200">
<ele>15.130</ele>
<time>2018-01-23T23:11:38.681Z</time>
</trkpt>
<trkpt lat="-28.0412482" lon="153.3531990">
<ele>15.965</ele>
<time>2018-01-23T23:11:40.595Z</time>
</trkpt>
<trkpt lat="-28.0417495" lon="153.3532595">
<ele>17.019</ele>
<time>2018-01-23T23:11:42.617Z</time>
</trkpt>
<trkpt lat="-28.0422528" lon="153.3533472">
<ele>18.549</ele>
<time>2018-01-23T23:11:44.682Z</time>
</trkpt>
<trkpt lat="-28.0427481" lon="153.3534439">
<ele>19.893</ele>
<time>2018-01-23T23:11:46.762Z</time>
</trkpt>
<trkpt lat="-28.0432439" lon="153.3535654">
<ele>20.329</ele>
<time>2018-01-23T23:11:48.895Z</time>
</trkpt>
<trkpt lat="-28.0437222" lon="153.3537205">
<ele>19.683</ele>
<time>2018-01-23T23:11:50.992Z</time>
</trkpt>
<trkpt lat="-28.0441848" lon="153.3538499">
<ele>18.321</ele>
<time>2018-01-23T23:11:53.006Z</time>
</trkpt>
<trkpt lat="-28.0446091" lon="153.3540181">
<ele>16.928</ele>
<time>2018-01-23T23:11:54.928Z</time>
</trkpt>
<trkpt lat="-28.0450717" lon="153.3541647">
<ele>15.954</ele>
<time>2018-01-23T23:11:56.994Z</time>
</trkpt>
<trkpt lat="-28.0455251" lon="153.3543317">
<ele>15.484</ele>
<time>2018-01-23T23:11:59.021Z</time>
</trkpt>
<trkpt lat="-28.0459614" lon="153.3544720">
<ele>15.384</ele>
<time>2018-01-23T23:12:00.919Z</time>
</trkpt>
<trkpt lat="-28.0464084" lon="153.3546096">
<ele>15.364</ele>
<time>2018-01-23T23:12:02.843Z</time>
</trkpt>
<trkpt lat="-28.0468750" lon="153.3547751">
<ele>15.141</ele>
<time>2018-01-23T23:12:04.878Z</time>
</trkpt>
<trkpt lat="-28.0473470" lon="153.3549452">
<ele>14.718</ele>
<time>2018-01-23T23:12:06.956Z</time>
</trkpt>
<trkpt lat="-28.0478038" lon="153.3551218">
<ele>14.330</ele>
<time>2018-01-23T23:12:08.990Z</time>
</trkpt>
<trkpt lat="-28.0482518" lon="153.3552831">
<ele>14.109</ele>
<time>2018-01-23T23:12:10.974Z</time>
</trkpt>
<trkpt lat="-28.0487074" lon="153.3554364">
<ele>14.114</ele>
<time>2018-01-23T23:12:12.971Z</time>
</trkpt>
<trkpt lat="-28.0491772" lon="153.3555908">
<ele>14.389</ele>
<time>2018-01-23T23:12:14.998Z</time>
</trkpt>
<trkpt lat="-28.0496347" lon="153.3557513">
<ele>14.807</ele>
<time>2018-01-23T23:12:16.959Z</time>
</trkpt>
<trkpt lat="-28.0500860" lon="153.3559224">
<ele>15.154</ele>
<time>2018-01-23T23:12:18.913Z</time>
</trkpt>
<trkpt lat="-28.0505385" lon="153.3560830">
<ele>15.165</ele>
<time>2018-01-23T23:12:20.890Z</time>
</trkpt>
<trkpt lat="-28.0510080" lon="153.3562457">
<ele>14.657</ele>
<time>2018-01-23T23:12:22.951Z</time>
</trkpt>
<trkpt lat="-28.0514731" lon="153.3563979">
<ele>13.783</ele>
<time>2018-01-23T23:12:24.963Z</time>
</trkpt>
<trkpt lat="-28.0519199" lon="153.3565563">
<ele>12.956</ele>
<time>2018-01-23T23:12:26.892Z</time>
</trkpt>
<trkpt lat="-28.0523723" lon="153.3567038">
<ele>12.785</ele>
<time>2018-01-23T23:12:28.841Z</time>
</trkpt>
<trkpt lat="-28.0528425" lon="153.3568818">
<ele>13.455</ele>
<time>2018-01-23T23:12:30.915Z</time>
</trkpt>
<trkpt lat="-28.0533098" lon="153.3570564">
<ele>14.283</ele>
<time>2018-01-23T23:12:32.999Z</time>
</trkpt>
<trkpt lat="-28.0537709" lon="153.3571762">
<ele>14.593</ele>
<time>2018-01-23T23:12:35.027Z</time>
</trkpt>
<trkpt lat="-28.0542301" lon="153.3573165">
<ele>14.344</ele>
<time>2018-01-23T23:12:37.070Z</time>
</trkpt>
<trkpt lat="-28.0546656" lon="153.3575022">
<ele>13.741</ele>
<time>2018-01-23T23:12:39.061Z</time>
</trkpt>
<trkpt lat="-28.0550938" lon="153.3576634">
<ele>13.050</ele>
<time>2018-01-23T23:12:40.970Z</time>
</trkpt>
<trkpt lat="-28.0555412" lon="153.3578103">
<ele>12.454</ele>
<time>2018-01-23T23:12:42.931Z</time>
</trkpt>
<trkpt lat="-28.0562125" lon="153.3580411">
<ele>12.036</ele>
<time>2018-01-23T23:12:45.871Z</time>
</trkpt>
<trkpt lat="-28.0568979" lon="153.3582809">
<ele>11.916</ele>
<time>2018-01-23T23:12:48.882Z</time>
</trkpt>
<trkpt lat="-28.0575890" lon="153.3585140">
<ele>12.205</ele>
<time>2018-01-23T23:12:51.921Z</time>
</trkpt>
<trkpt lat="-28.0582707" lon="153.3587508">
<ele>12.971</ele>
<time>2018-01-23T23:12:54.947Z</time>
</trkpt>
<trkpt lat="-28.0589467" lon="153.3589987">
<ele>14.187</ele>
<time>2018-01-23T23:12:57.996Z</time>
</trkpt>
<trkpt lat="-28.0596293" lon="153.3592374">
<ele>15.523</ele>
<time>2018-01-23T23:13:01.062Z</time>
</trkpt>
<trkpt lat="-28.0602999" lon="153.3594385">
<ele>16.496</ele>
<time>2018-01-23T23:13:04.014Z</time>
</trkpt>
<trkpt lat="-28.0609742" lon="153.3596762">
<ele>16.804</ele>
<time>2018-01-23T23:13:07.003Z</time>
</trkpt>
<trkpt lat="-28.0616474" lon="153.3599329">
<ele>16.332</ele>
<time>2018-01-23T23:13:10.006Z</time>
</trkpt>
<trkpt lat="-28.0623435" lon="153.3601466">
<ele>15.211</ele>
<time>2018-01-23T23:13:13.077Z</time>
</trkpt>
<trkpt lat="-28.0630075" lon="153.3603945">
<ele>13.884</ele>
<time>2018-01-23T23:13:16.082Z</time>
</trkpt>
<trkpt lat="-28.0636800" lon="153.3606422">
<ele>12.838</ele>
<time>2018-01-23T23:13:19.136Z</time>
</trkpt>
<trkpt lat="-28.0643422" lon="153.3608535">
<ele>12.083</ele>
<time>2018-01-23T23:13:22.102Z</time>
</trkpt>
<trkpt lat="-28.0650092" lon="153.3610707">
<ele>11.198</ele>
<time>2018-01-23T23:13:25.070Z</time>
</trkpt>
<trkpt lat="-28.0656711" lon="153.3613175">
<ele>9.969</ele>
<time>2018-01-23T23:13:28.029Z</time>
</trkpt>
<trkpt lat="-28.0663477" lon="153.3615312">
<ele>8.607</ele>
<time>2018-01-23T23:13:30.997Z</time>
</trkpt>
<trkpt lat="-28.0670100" lon="153.3617712">
<ele>7.358</ele>
<time>2018-01-23T23:13:33.903Z</time>
</trkpt>
<trkpt lat="-28.0676825" lon="153.3620272">
<ele>6.425</ele>
<time>2018-01-23T23:13:36.831Z</time>
</trkpt>
<trkpt lat="-28.0681381" lon="153.3621876">
<ele>5.993</ele>
<time>2018-01-23T23:13:38.802Z</time>
</trkpt>
<trkpt lat="-28.0686164" lon="153.3623571">
<ele>6.114</ele>
<time>2018-01-23T23:13:40.888Z</time>
</trkpt>
<trkpt lat="-28.0690729" lon="153.3625706">
<ele>6.590</ele>
<time>2018-01-23T23:13:42.958Z</time>
</trkpt>
<trkpt lat="-28.0695475" lon="153.3627216">
<ele>7.196</ele>
<time>2018-01-23T23:13:45.030Z</time>
</trkpt>
<trkpt lat="-28.0699960" lon="153.3629059">
<ele>7.959</ele>
<time>2018-01-23T23:13:47.043Z</time>
</trkpt>
<trkpt lat="-28.0704435" lon="153.3630685">
<ele>8.864</ele>
<time>2018-01-23T23:13:49.041Z</time>
</trkpt>
<trkpt lat="-28.0708774" lon="153.3632626">
<ele>9.587</ele>
<time>2018-01-23T23:13:51.027Z</time>
</trkpt>
<trkpt lat="-28.0713242" lon="153.3634249">
<ele>9.914</ele>
<time>2018-01-23T23:13:53.015Z</time>
</trkpt>
<trkpt lat="-28.0717625" lon="153.3636061">
<ele>9.901</ele>
<time>2018-01-23T23:13:54.982Z</time>
</trkpt>
<trkpt lat="-28.0722142" lon="153.3637996">
<ele>9.618</ele>
<time>2018-01-23T23:13:57.011Z</time>
</trkpt>
<trkpt lat="-28.0726616" lon="153.3639835">
<ele>9.202</ele>
<time>2018-01-23T23:13:59.003Z</time>
</trkpt>
<trkpt lat="-28.0730951" lon="153.3641776">
<ele>8.976</ele>
<time>2018-01-23T23:14:00.952Z</time>
</trkpt>
<trkpt lat="-28.0735508" lon="153.3643546">
<ele>9.150</ele>
<time>2018-01-23T23:14:02.964Z</time>
</trkpt>
<trkpt lat="-28.0740106" lon="153.3645628">
<ele>9.590</ele>
<time>2018-01-23T23:14:05.027Z</time>
</trkpt>
<trkpt lat="-28.0744700" lon="153.3647445">
<ele>10.014</ele>
<time>2018-01-23T23:14:07.048Z</time>
</trkpt>
<trkpt lat="-28.0749195" lon="153.3649094">
<ele>10.208</ele>
<time>2018-01-23T23:14:09.008Z</time>
</trkpt>
<trkpt lat="-28.0753685" lon="153.3650961">
<ele>10.136</ele>
<time>2018-01-23T23:14:10.999Z</time>
</trkpt>
<trkpt lat="-28.0758165" lon="153.3652955">
<ele>9.954</ele>
<time>2018-01-23T23:14:13.019Z</time>
</trkpt>
<trkpt lat="-28.0762657" lon="153.3655044">
<ele>9.839</ele>
<time>2018-01-23T23:14:15.079Z</time>
</trkpt>
<trkpt lat="-28.0766952" lon="153.3657406">
<ele>9.843</ele>
<time>2018-01-23T23:14:17.124Z</time>
</trkpt>
<trkpt lat="-28.0771091" lon="153.3660040">
<ele>9.908</ele>
<time>2018-01-23T23:14:19.163Z</time>
</trkpt>
<trkpt lat="-28.0774804" lon="153.3662993">
<ele>9.931</ele>
<time>2018-01-23T23:14:21.095Z</time>
</trkpt>
<trkpt lat="-28.0778423" lon="153.3666039">
<ele>9.871</ele>
<time>2018-01-23T23:14:22.996Z</time>
</trkpt>
<trkpt lat="-28.0781975" lon="153.3669519">
<ele>9.789</ele>
<time>2018-01-23T23:14:24.965Z</time>
</trkpt>
<trkpt lat="-28.0785440" lon="153.3673318">
<ele>9.707</ele>
<time>2018-01-23T23:14:26.992Z</time>
</trkpt>
<trkpt lat="-28.0788813" lon="153.3677097">
<ele>9.597</ele>
<time>2018-01-23T23:14:29.002Z</time>
</trkpt>
<trkpt lat="-28.0792069" lon="153.3681260">
<ele>9.497</ele>
<time>2018-01-23T23:14:31.085Z</time>
</trkpt>
<trkpt lat="-28.0794939" lon="153.3685536">
<ele>9.397</ele>
<time>2018-01-23T23:14:33.086Z</time>
</trkpt>
<trkpt lat="-28.0797560" lon="153.3689926">
<ele>9.147</ele>
<time>2018-01-23T23:14:35.067Z</time>
</trkpt>
<trkpt lat="-28.0799808" lon="153.3694547">
<ele>8.640</ele>
<time>2018-01-23T23:14:37.056Z</time>
</trkpt>
<trkpt lat="-28.0801885" lon="153.3699517">
<ele>7.953</ele>
<time>2018-01-23T23:14:39.143Z</time>
</trkpt>
<trkpt lat="-28.0803967" lon="153.3704369">
<ele>7.288</ele>
<time>2018-01-23T23:14:41.198Z</time>
</trkpt>
<trkpt lat="-28.0805862" lon="153.3709018">
<ele>6.677</ele>
<time>2018-01-23T23:14:43.147Z</time>
</trkpt>
<trkpt lat="-28.0807980" lon="153.3713697">
<ele>5.931</ele>
<time>2018-01-23T23:14:45.131Z</time>
</trkpt>
<trkpt lat="-28.0810134" lon="153.3718422">
<ele>5.020</ele>
<time>2018-01-23T23:14:47.122Z</time>
</trkpt>
<trkpt lat="-28.0812348" lon="153.3723135">
<ele>4.227</ele>
<time>2018-01-23T23:14:49.120Z</time>
</trkpt>
<trkpt lat="-28.0814247" lon="153.3727934">
<ele>3.793</ele>
<time>2018-01-23T23:14:51.091Z</time>
</trkpt>
<trkpt lat="-28.0816256" lon="153.3732891">
<ele>3.750</ele>
<time>2018-01-23T23:14:53.131Z</time>
</trkpt>
<trkpt lat="-28.0818474" lon="153.3737549">
<ele>3.971</ele>
<time>2018-01-23T23:14:55.087Z</time>
</trkpt>
<trkpt lat="-28.0820366" lon="153.3742296">
<ele>4.628</ele>
<time>2018-01-23T23:14:56.982Z</time>
</trkpt>
<trkpt lat="-28.0822490" lon="153.3746969">
<ele>5.794</ele>
<time>2018-01-23T23:14:58.872Z</time>
</trkpt>
<trkpt lat="-28.0824694" lon="153.3751935">
<ele>6.848</ele>
<time>2018-01-23T23:15:00.865Z</time>
</trkpt>
<trkpt lat="-28.0827044" lon="153.3756829">
<ele>7.151</ele>
<time>2018-01-23T23:15:02.878Z</time>
</trkpt>
<trkpt lat="-28.0829034" lon="153.3762001">
<ele>6.735</ele>
<time>2018-01-23T23:15:04.952Z</time>
</trkpt>
<trkpt lat="-28.0830774" lon="153.3767337">
<ele>5.963</ele>
<time>2018-01-23T23:15:07.091Z</time>
</trkpt>
<trkpt lat="-28.0832168" lon="153.3772548">
<ele>5.292</ele>
<time>2018-01-23T23:15:09.178Z</time>
</trkpt>
<trkpt lat="-28.0833431" lon="153.3777669">
<ele>5.024</ele>
<time>2018-01-23T23:15:11.242Z</time>
</trkpt>
<trkpt lat="-28.0834447" lon="153.3782686">
<ele>5.215</ele>
<time>2018-01-23T23:15:13.259Z</time>
</trkpt>
<trkpt lat="-28.0835303" lon="153.3787686">
<ele>6.016</ele>
<time>2018-01-23T23:15:15.275Z</time>
</trkpt>
<trkpt lat="-28.0836483" lon="153.3792770">
<ele>7.568</ele>
<time>2018-01-23T23:15:17.376Z</time>
</trkpt>
<trkpt lat="-28.0837170" lon="153.3797856">
<ele>9.513</ele>
<time>2018-01-23T23:15:19.446Z</time>
</trkpt>
<trkpt lat="-28.0838386" lon="153.3802574">
<ele>11.132</ele>
<time>2018-01-23T23:15:21.421Z</time>
</trkpt>
<trkpt lat="-28.0839480" lon="153.3807336">
<ele>11.926</ele>
<time>2018-01-23T23:15:23.378Z</time>
</trkpt>
<trkpt lat="-28.0840657" lon="153.3812061">
<ele>11.941</ele>
<time>2018-01-23T23:15:25.314Z</time>
</trkpt>
<trkpt lat="-28.0841935" lon="153.3816847">
<ele>12.526</ele>
<time>2018-01-23T23:15:27.279Z</time>
</trkpt>
<trkpt lat="-28.0843072" lon="153.3821717">
<ele>14.563</ele>
<time>2018-01-23T23:15:29.245Z</time>
</trkpt>
<trkpt lat="-28.0844299" lon="153.3826698">
<ele>16.679</ele>
<time>2018-01-23T23:15:31.238Z</time>
</trkpt>
<trkpt lat="-28.0845564" lon="153.3831438">
<ele>17.480</ele>
<time>2018-01-23T23:15:33.122Z</time>
</trkpt>
<trkpt lat="-28.0847192" lon="153.3836072">
<ele>17.368</ele>
<time>2018-01-23T23:15:35.003Z</time>
</trkpt>
<trkpt lat="-28.0849102" lon="153.3840916">
<ele>17.159</ele>
<time>2018-01-23T23:15:36.987Z</time>
</trkpt>
<trkpt lat="-28.0851438" lon="153.3845646">
<ele>17.830</ele>
<time>2018-01-23T23:15:38.997Z</time>
</trkpt>
<trkpt lat="-28.0853657" lon="153.3850190">
<ele>19.735</ele>
<time>2018-01-23T23:15:40.912Z</time>
</trkpt>
<trkpt lat="-28.0856423" lon="153.3854474">
<ele>21.859</ele>
<time>2018-01-23T23:15:42.856Z</time>
</trkpt>
<trkpt lat="-28.0859417" lon="153.3858728">
<ele>23.224</ele>
<time>2018-01-23T23:15:44.838Z</time>
</trkpt>
<trkpt lat="-28.0862581" lon="153.3862750">
<ele>23.900</ele>
<time>2018-01-23T23:15:46.810Z</time>
</trkpt>
<trkpt lat="-28.0865933" lon="153.3866566">
<ele>24.247</ele>
<time>2018-01-23T23:15:48.806Z</time>
</trkpt>
<trkpt lat="-28.0869666" lon="153.3870419">
<ele>24.478</ele>
<time>2018-01-23T23:15:50.944Z</time>
</trkpt>
<trkpt lat="-28.0873343" lon="153.3873954">
<ele>24.612</ele>
<time>2018-01-23T23:15:52.973Z</time>
</trkpt>
<trkpt lat="-28.0877149" lon="153.3877371">
<ele>24.544</ele>
<time>2018-01-23T23:15:55.003Z</time>
</trkpt>
<trkpt lat="-28.0880863" lon="153.3880373">
<ele>24.113</ele>
<time>2018-01-23T23:15:56.911Z</time>
</trkpt>
<trkpt lat="-28.0884984" lon="153.3883231">
<ele>23.257</ele>
<time>2018-01-23T23:15:58.937Z</time>
</trkpt>
<trkpt lat="-28.0888969" lon="153.3885990">
<ele>22.108</ele>
<time>2018-01-23T23:16:00.896Z</time>
</trkpt>
<trkpt lat="-28.0893185" lon="153.3888898">
<ele>20.886</ele>
<time>2018-01-23T23:16:02.968Z</time>
</trkpt>
<trkpt lat="-28.0896962" lon="153.3892085">
<ele>19.747</ele>
<time>2018-01-23T23:16:04.956Z</time>
</trkpt>
<trkpt lat="-28.0900930" lon="153.3895213">
<ele>18.739</ele>
<time>2018-01-23T23:16:07.000Z</time>
</trkpt>
<trkpt lat="-28.0904926" lon="153.3898202">
<ele>17.860</ele>
<time>2018-01-23T23:16:09.029Z</time>
</trkpt>
<trkpt lat="-28.0908615" lon="153.3901267">
<ele>17.049</ele>
<time>2018-01-23T23:16:10.981Z</time>
</trkpt>
<trkpt lat="-28.0912585" lon="153.3904201">
<ele>16.238</ele>
<time>2018-01-23T23:16:13.014Z</time>
</trkpt>
<trkpt lat="-28.0916339" lon="153.3907240">
<ele>15.446</ele>
<time>2018-01-23T23:16:14.991Z</time>
</trkpt>
<trkpt lat="-28.0920287" lon="153.3910286">
<ele>14.785</ele>
<time>2018-01-23T23:16:17.031Z</time>
</trkpt>
<trkpt lat="-28.0923950" lon="153.3913496">
<ele>14.383</ele>
<time>2018-01-23T23:16:19.009Z</time>
</trkpt>
<trkpt lat="-28.0927485" lon="153.3916910">
<ele>14.216</ele>
<time>2018-01-23T23:16:20.992Z</time>
</trkpt>
<trkpt lat="-28.0930940" lon="153.3920715">
<ele>14.138</ele>
<time>2018-01-23T23:16:23.035Z</time>
</trkpt>
<trkpt lat="-28.0934179" lon="153.3924500">
<ele>13.977</ele>
<time>2018-01-23T23:16:24.990Z</time>
</trkpt>
<trkpt lat="-28.0937290" lon="153.3928410">
<ele>13.568</ele>
<time>2018-01-23T23:16:26.925Z</time>
</trkpt>
<trkpt lat="-28.0940535" lon="153.3932200">
<ele>12.974</ele>
<time>2018-01-23T23:16:28.861Z</time>
</trkpt>
<trkpt lat="-28.0943657" lon="153.3936404">
<ele>12.486</ele>
<time>2018-01-23T23:16:30.876Z</time>
</trkpt>
<trkpt lat="-28.0946472" lon="153.3940907">
<ele>12.260</ele>
<time>2018-01-23T23:16:32.894Z</time>
</trkpt>
<trkpt lat="-28.0949124" lon="153.3945522">
<ele>12.217</ele>
<time>2018-01-23T23:16:34.895Z</time>
</trkpt>
<trkpt lat="-28.0951866" lon="153.3950145">
<ele>12.225</ele>
<time>2018-01-23T23:16:36.913Z</time>
</trkpt>
<trkpt lat="-28.0954897" lon="153.3954294">
<ele>12.235</ele>
<time>2018-01-23T23:16:38.870Z</time>
</trkpt>
<trkpt lat="-28.0957822" lon="153.3958617">
<ele>12.294</ele>
<time>2018-01-23T23:16:40.861Z</time>
</trkpt>
<trkpt lat="-28.0960605" lon="153.3963020">
<ele>12.428</ele>
<time>2018-01-23T23:16:42.853Z</time>
</trkpt>
<trkpt lat="-28.0963256" lon="153.3967675">
<ele>12.589</ele>
<time>2018-01-23T23:16:44.909Z</time>
</trkpt>
<trkpt lat="-28.0966127" lon="153.3972232">
<ele>12.735</ele>
<time>2018-01-23T23:16:46.996Z</time>
</trkpt>
<trkpt lat="-28.0969194" lon="153.3976537">
<ele>12.848</ele>
<time>2018-01-23T23:16:49.055Z</time>
</trkpt>
<trkpt lat="-28.0972276" lon="153.3980340">
<ele>12.944</ele>
<time>2018-01-23T23:16:50.982Z</time>
</trkpt>
<trkpt lat="-28.0975100" lon="153.3984389">
<ele>13.185</ele>
<time>2018-01-23T23:16:52.936Z</time>
</trkpt>
<trkpt lat="-28.0978093" lon="153.3988383">
<ele>13.716</ele>
<time>2018-01-23T23:16:54.946Z</time>
</trkpt>
<trkpt lat="-28.0981156" lon="153.3992615">
<ele>14.494</ele>
<time>2018-01-23T23:16:57.042Z</time>
</trkpt>
<trkpt lat="-28.0984282" lon="153.3996467">
<ele>15.353</ele>
<time>2018-01-23T23:16:59.016Z</time>
</trkpt>
<trkpt lat="-28.0987572" lon="153.3999836">
<ele>16.150</ele>
<time>2018-01-23T23:17:00.881Z</time>
</trkpt>
<trkpt lat="-28.0990797" lon="153.4003506">
<ele>16.753</ele>
<time>2018-01-23T23:17:02.778Z</time>
</trkpt>
<trkpt lat="-28.0994169" lon="153.4007296">
<ele>17.058</ele>
<time>2018-01-23T23:17:04.728Z</time>
</trkpt>
<trkpt lat="-28.0997522" lon="153.4011216">
<ele>17.052</ele>
<time>2018-01-23T23:17:06.699Z</time>
</trkpt>
<trkpt lat="-28.1001128" lon="153.4015133">
<ele>16.749</ele>
<time>2018-01-23T23:17:08.759Z</time>
</trkpt>
<trkpt lat="-28.1004770" lon="153.4019097">
<ele>16.159</ele>
<time>2018-01-23T23:17:10.877Z</time>
</trkpt>
<trkpt lat="-28.1007806" lon="153.4023156">
<ele>15.379</ele>
<time>2018-01-23T23:17:12.874Z</time>
</trkpt>
<trkpt lat="-28.1011172" lon="153.4027055">
<ele>14.457</ele>
<time>2018-01-23T23:17:14.932Z</time>
</trkpt>
<trkpt lat="-28.1014619" lon="153.4030649">
<ele>13.383</ele>
<time>2018-01-23T23:17:16.934Z</time>
</trkpt>
<trkpt lat="-28.1018164" lon="153.4034213">
<ele>12.303</ele>
<time>2018-01-23T23:17:18.970Z</time>
</trkpt>
<trkpt lat="-28.1021763" lon="153.4037463">
<ele>11.460</ele>
<time>2018-01-23T23:17:20.983Z</time>
</trkpt>
<trkpt lat="-28.1025438" lon="153.4040576">
<ele>10.929</ele>
<time>2018-01-23T23:17:23.020Z</time>
</trkpt>
<trkpt lat="-28.1029447" lon="153.4043337">
<ele>10.556</ele>
<time>2018-01-23T23:17:25.111Z</time>
</trkpt>
<trkpt lat="-28.1033355" lon="153.4045886">
<ele>10.136</ele>
<time>2018-01-23T23:17:27.114Z</time>
</trkpt>
<trkpt lat="-28.1037263" lon="153.4048291">
<ele>9.665</ele>
<time>2018-01-23T23:17:29.069Z</time>
</trkpt>
<trkpt lat="-28.1041247" lon="153.4050545">
<ele>9.306</ele>
<time>2018-01-23T23:17:30.978Z</time>
</trkpt>
<trkpt lat="-28.1045238" lon="153.4052704">
<ele>9.239</ele>
<time>2018-01-23T23:17:32.805Z</time>
</trkpt>
<trkpt lat="-28.1049448" lon="153.4055010">
<ele>9.566</ele>
<time>2018-01-23T23:17:34.688Z</time>
</trkpt>
<trkpt lat="-28.1053721" lon="153.4057566">
<ele>10.192</ele>
<time>2018-01-23T23:17:36.632Z</time>
</trkpt>
<trkpt lat="-28.1058038" lon="153.4060229">
<ele>10.923</ele>
<time>2018-01-23T23:17:38.625Z</time>
</trkpt>
<trkpt lat="-28.1062478" lon="153.4062957">
<ele>11.706</ele>
<time>2018-01-23T23:17:40.671Z</time>
</trkpt>
<trkpt lat="-28.1066654" lon="153.4065568">
<ele>12.529</ele>
<time>2018-01-23T23:17:42.589Z</time>
</trkpt>
<trkpt lat="-28.1071018" lon="153.4068203">
<ele>13.222</ele>
<time>2018-01-23T23:17:44.553Z</time>
</trkpt>
<trkpt lat="-28.1075415" lon="153.4070850">
<ele>14.046</ele>
<time>2018-01-23T23:17:46.517Z</time>
</trkpt>
<trkpt lat="-28.1079772" lon="153.4073786">
<ele>15.457</ele>
<time>2018-01-23T23:17:48.531Z</time>
</trkpt>
<trkpt lat="-28.1083862" lon="153.4077116">
<ele>17.096</ele>
<time>2018-01-23T23:17:50.559Z</time>
</trkpt>
<trkpt lat="-28.1088210" lon="153.4080323">
<ele>18.252</ele>
<time>2018-01-23T23:17:52.670Z</time>
</trkpt>
<trkpt lat="-28.1092045" lon="153.4084010">
<ele>18.794</ele>
<time>2018-01-23T23:17:54.698Z</time>
</trkpt>
<trkpt lat="-28.1095741" lon="153.4087839">
<ele>19.012</ele>
<time>2018-01-23T23:17:56.681Z</time>
</trkpt>
<trkpt lat="-28.1098986" lon="153.4091821">
<ele>19.513</ele>
<time>2018-01-23T23:17:58.581Z</time>
</trkpt>
<trkpt lat="-28.1102483" lon="153.4096125">
<ele>20.553</ele>
<time>2018-01-23T23:18:00.682Z</time>
</trkpt>
<trkpt lat="-28.1105802" lon="153.4100558">
<ele>21.669</ele>
<time>2018-01-23T23:18:02.800Z</time>
</trkpt>
<trkpt lat="-28.1108674" lon="153.4105160">
<ele>22.433</ele>
<time>2018-01-23T23:18:04.844Z</time>
</trkpt>
<trkpt lat="-28.1111494" lon="153.4109312">
<ele>22.832</ele>
<time>2018-01-23T23:18:06.732Z</time>
</trkpt>
<trkpt lat="-28.1114202" lon="153.4113997">
<ele>22.973</ele>
<time>2018-01-23T23:18:08.745Z</time>
</trkpt>
<trkpt lat="-28.1116665" lon="153.4118748">
<ele>22.875</ele>
<time>2018-01-23T23:18:10.724Z</time>
</trkpt>
<trkpt lat="-28.1119327" lon="153.4123515">
<ele>22.333</ele>
<time>2018-01-23T23:18:12.753Z</time>
</trkpt>
<trkpt lat="-28.1121848" lon="153.4128214">
<ele>21.255</ele>
<time>2018-01-23T23:18:14.726Z</time>
</trkpt>
<trkpt lat="-28.1124391" lon="153.4132936">
<ele>20.068</ele>
<time>2018-01-23T23:18:16.705Z</time>
</trkpt>
<trkpt lat="-28.1126739" lon="153.4137641">
<ele>21.358</ele>
<time>2018-01-23T23:18:18.655Z</time>
</trkpt>
<trkpt lat="-28.1129196" lon="153.4142390">
<ele>26.448</ele>
<time>2018-01-23T23:18:20.675Z</time>
</trkpt>
<trkpt lat="-28.1131993" lon="153.4147178">
<ele>31.899</ele>
<time>2018-01-23T23:18:22.814Z</time>
</trkpt>
<trkpt lat="-28.1134692" lon="153.4151696">
<ele>34.304</ele>
<time>2018-01-23T23:18:24.872Z</time>
</trkpt>
<trkpt lat="-28.1137276" lon="153.4156264">
<ele>33.917</ele>
<time>2018-01-23T23:18:26.941Z</time>
</trkpt>
<trkpt lat="-28.1139578" lon="153.4161031">
<ele>32.069</ele>
<time>2018-01-23T23:18:29.039Z</time>
</trkpt>
<trkpt lat="-28.1141722" lon="153.4165600">
<ele>29.895</ele>
<time>2018-01-23T23:18:31.073Z</time>
</trkpt>
<trkpt lat="-28.1144226" lon="153.4169910">
<ele>27.995</ele>
<time>2018-01-23T23:18:33.156Z</time>
</trkpt>
<trkpt lat="-28.1146777" lon="153.4174101">
<ele>26.789</ele>
<time>2018-01-23T23:18:35.247Z</time>
</trkpt>
<trkpt lat="-28.1148430" lon="153.4178817">
<ele>26.401</ele>
<time>2018-01-23T23:18:37.334Z</time>
</trkpt>
<trkpt lat="-28.1150125" lon="153.4183294">
<ele>26.445</ele>
<time>2018-01-23T23:18:39.325Z</time>
</trkpt>
<trkpt lat="-28.1151612" lon="153.4187799">
<ele>26.544</ele>
<time>2018-01-23T23:18:41.287Z</time>
</trkpt>
<trkpt lat="-28.1153049" lon="153.4192424">
<ele>26.558</ele>
<time>2018-01-23T23:18:43.303Z</time>
</trkpt>
<trkpt lat="-28.1154635" lon="153.4197061">
<ele>26.486</ele>
<time>2018-01-23T23:18:45.364Z</time>
</trkpt>
<trkpt lat="-28.1155867" lon="153.4201817">
<ele>26.244</ele>
<time>2018-01-23T23:18:47.389Z</time>
</trkpt>
<trkpt lat="-28.1156950" lon="153.4206516">
<ele>25.756</ele>
<time>2018-01-23T23:18:49.312Z</time>
</trkpt>
<trkpt lat="-28.1157859" lon="153.4211174">
<ele>25.232</ele>
<time>2018-01-23T23:18:51.161Z</time>
</trkpt>
<trkpt lat="-28.1158552" lon="153.4216115">
<ele>24.954</ele>
<time>2018-01-23T23:18:53.091Z</time>
</trkpt>
<trkpt lat="-28.1159153" lon="153.4221191">
<ele>25.037</ele>
<time>2018-01-23T23:18:55.045Z</time>
</trkpt>
<trkpt lat="-28.1159902" lon="153.4226351">
<ele>26.050</ele>
<time>2018-01-23T23:18:56.987Z</time>
</trkpt>
<trkpt lat="-28.1160195" lon="153.4231374">
<ele>28.393</ele>
<time>2018-01-23T23:18:58.827Z</time>
</trkpt>
<trkpt lat="-28.1160329" lon="153.4236690">
<ele>31.025</ele>
<time>2018-01-23T23:19:00.785Z</time>
</trkpt>
<trkpt lat="-28.1160517" lon="153.4242289">
<ele>32.524</ele>
<time>2018-01-23T23:19:02.893Z</time>
</trkpt>
<trkpt lat="-28.1160912" lon="153.4247695">
<ele>32.571</ele>
<time>2018-01-23T23:19:04.964Z</time>
</trkpt>
<trkpt lat="-28.1161000" lon="153.4253022">
<ele>31.613</ele>
<time>2018-01-23T23:19:06.988Z</time>
</trkpt>
<trkpt lat="-28.1161098" lon="153.4258193">
<ele>30.327</ele>
<time>2018-01-23T23:19:08.932Z</time>
</trkpt>
<trkpt lat="-28.1161243" lon="153.4263275">
<ele>28.884</ele>
<time>2018-01-23T23:19:10.836Z</time>
</trkpt>
<trkpt lat="-28.1161563" lon="153.4268657">
<ele>27.105</ele>
<time>2018-01-23T23:19:12.847Z</time>
</trkpt>
<trkpt lat="-28.1161957" lon="153.4273854">
<ele>25.172</ele>
<time>2018-01-23T23:19:14.774Z</time>
</trkpt>
<trkpt lat="-28.1162061" lon="153.4279098">
<ele>23.362</ele>
<time>2018-01-23T23:19:16.698Z</time>
</trkpt>
<trkpt lat="-28.1162136" lon="153.4284493">
<ele>21.811</ele>
<time>2018-01-23T23:19:18.659Z</time>
</trkpt>
<trkpt lat="-28.1162020" lon="153.4289864">
<ele>20.776</ele>
<time>2018-01-23T23:19:20.590Z</time>
</trkpt>
<trkpt lat="-28.1161211" lon="153.4295399">
<ele>20.353</ele>
<time>2018-01-23T23:19:22.600Z</time>
</trkpt>
<trkpt lat="-28.1160188" lon="153.4300854">
<ele>20.458</ele>
<time>2018-01-23T23:19:24.619Z</time>
</trkpt>
<trkpt lat="-28.1158371" lon="153.4305925">
<ele>20.884</ele>
<time>2018-01-23T23:19:26.619Z</time>
</trkpt>
<trkpt lat="-28.1156277" lon="153.4311106">
<ele>21.201</ele>
<time>2018-01-23T23:19:28.704Z</time>
</trkpt>
<trkpt lat="-28.1153856" lon="153.4315920">
<ele>20.646</ele>
<time>2018-01-23T23:19:30.734Z</time>
</trkpt>
<trkpt lat="-28.1151160" lon="153.4320399">
<ele>18.895</ele>
<time>2018-01-23T23:19:32.732Z</time>
</trkpt>
<trkpt lat="-28.1148365" lon="153.4325104">
<ele>16.809</ele>
<time>2018-01-23T23:19:34.835Z</time>
</trkpt>
<trkpt lat="-28.1145994" lon="153.4329740">
<ele>15.622</ele>
<time>2018-01-23T23:19:36.831Z</time>
</trkpt>
<trkpt lat="-28.1143255" lon="153.4333963">
<ele>15.622</ele>
<time>2018-01-23T23:19:38.772Z</time>
</trkpt>
<trkpt lat="-28.1140897" lon="153.4338451">
<ele>16.223</ele>
<time>2018-01-23T23:19:40.663Z</time>
</trkpt>
<trkpt lat="-28.1138601" lon="153.4343267">
<ele>16.373</ele>
<time>2018-01-23T23:19:42.615Z</time>
</trkpt>
<trkpt lat="-28.1136594" lon="153.4348273">
<ele>15.084</ele>
<time>2018-01-23T23:19:44.588Z</time>
</trkpt>
<trkpt lat="-28.1134766" lon="153.4353302">
<ele>12.668</ele>
<time>2018-01-23T23:19:46.574Z</time>
</trkpt>
<trkpt lat="-28.1133509" lon="153.4358866">
<ele>10.450</ele>
<time>2018-01-23T23:19:48.681Z</time>
</trkpt>
<trkpt lat="-28.1132727" lon="153.4366938">
<ele>9.143</ele>
<time>2018-01-23T23:19:51.659Z</time>
</trkpt>
<trkpt lat="-28.1132749" lon="153.4375023">
<ele>8.456</ele>
<time>2018-01-23T23:19:54.625Z</time>
</trkpt>
<trkpt lat="-28.1133421" lon="153.4383176">
<ele>7.968</ele>
<time>2018-01-23T23:19:57.673Z</time>
</trkpt>
<trkpt lat="-28.1135298" lon="153.4391128">
<ele>7.560</ele>
<time>2018-01-23T23:20:00.850Z</time>
</trkpt>
<trkpt lat="-28.1137584" lon="153.4398554">
<ele>7.350</ele>
<time>2018-01-23T23:20:03.910Z</time>
</trkpt>
<trkpt lat="-28.1139964" lon="153.4405577">
<ele>7.169</ele>
<time>2018-01-23T23:20:06.759Z</time>
</trkpt>
<trkpt lat="-28.1141821" lon="153.4413087">
<ele>6.707</ele>
<time>2018-01-23T23:20:09.671Z</time>
</trkpt>
<trkpt lat="-28.1143774" lon="153.4420893">
<ele>5.818</ele>
<time>2018-01-23T23:20:12.785Z</time>
</trkpt>
<trkpt lat="-28.1145987" lon="153.4428629">
<ele>4.754</ele>
<time>2018-01-23T23:20:16.044Z</time>
</trkpt>
<trkpt lat="-28.1148033" lon="153.4435922">
<ele>4.405</ele>
<time>2018-01-23T23:20:19.092Z</time>
</trkpt>
<trkpt lat="-28.1149900" lon="153.4442734">
<ele>5.462</ele>
<time>2018-01-23T23:20:21.838Z</time>
</trkpt>
<trkpt lat="-28.1151986" lon="153.4449959">
<ele>7.183</ele>
<time>2018-01-23T23:20:24.702Z</time>
</trkpt>
<trkpt lat="-28.1153867" lon="153.4457581">
<ele>8.178</ele>
<time>2018-01-23T23:20:27.617Z</time>
</trkpt>
<trkpt lat="-28.1155578" lon="153.4465344">
<ele>8.046</ele>
<time>2018-01-23T23:20:30.470Z</time>
</trkpt>
<trkpt lat="-28.1157863" lon="153.4473360">
<ele>7.458</ele>
<time>2018-01-23T23:20:33.484Z</time>
</trkpt>
<trkpt lat="-28.1159436" lon="153.4481717">
<ele>7.065</ele>
<time>2018-01-23T23:20:36.684Z</time>
</trkpt>
<trkpt lat="-28.1161436" lon="153.4489540">
<ele>6.880</ele>
<time>2018-01-23T23:20:39.853Z</time>
</trkpt>
<trkpt lat="-28.1163788" lon="153.4496854">
<ele>6.733</ele>
<time>2018-01-23T23:20:42.908Z</time>
</trkpt>
<trkpt lat="-28.1165654" lon="153.4504087">
<ele>6.557</ele>
<time>2018-01-23T23:20:45.886Z</time>
</trkpt>
<trkpt lat="-28.1167581" lon="153.4511387">
<ele>6.086</ele>
<time>2018-01-23T23:20:49.002Z</time>
</trkpt>
<trkpt lat="-28.1168866" lon="153.4516321">
<ele>5.084</ele>
<time>2018-01-23T23:20:51.138Z</time>
</trkpt>
<trkpt lat="-28.1170081" lon="153.4521108">
<ele>3.926</ele>
<time>2018-01-23T23:20:53.183Z</time>
</trkpt>
<trkpt lat="-28.1171454" lon="153.4525790">
<ele>3.158</ele>
<time>2018-01-23T23:20:55.192Z</time>
</trkpt>
<trkpt lat="-28.1172528" lon="153.4530402">
<ele>3.378</ele>
<time>2018-01-23T23:20:57.132Z</time>
</trkpt>
<trkpt lat="-28.1173720" lon="153.4534876">
<ele>4.704</ele>
<time>2018-01-23T23:20:59.081Z</time>
</trkpt>
<trkpt lat="-28.1175448" lon="153.4542083">
<ele>6.014</ele>
<time>2018-01-23T23:21:02.312Z</time>
</trkpt>
<trkpt lat="-28.1176674" lon="153.4546575">
<ele>6.259</ele>
<time>2018-01-23T23:21:04.328Z</time>
</trkpt>
<trkpt lat="-28.1178067" lon="153.4550704">
<ele>5.714</ele>
<time>2018-01-23T23:21:06.180Z</time>
</trkpt>
<trkpt lat="-28.1179306" lon="153.4554915">
<ele>5.125</ele>
<time>2018-01-23T23:21:07.984Z</time>
</trkpt>
<trkpt lat="-28.1180381" lon="153.4559271">
<ele>5.142</ele>
<time>2018-01-23T23:21:09.753Z</time>
</trkpt>
<trkpt lat="-28.1181590" lon="153.4563906">
<ele>5.916</ele>
<time>2018-01-23T23:21:11.575Z</time>
</trkpt>
<trkpt lat="-28.1183203" lon="153.4568837">
<ele>6.899</ele>
<time>2018-01-23T23:21:13.506Z</time>
</trkpt>
<trkpt lat="-28.1184533" lon="153.4573911">
<ele>7.506</ele>
<time>2018-01-23T23:21:15.425Z</time>
</trkpt>
<trkpt lat="-28.1186476" lon="153.4579032">
<ele>7.709</ele>
<time>2018-01-23T23:21:17.464Z</time>
</trkpt>
<trkpt lat="-28.1188767" lon="153.4583867">
<ele>7.688</ele>
<time>2018-01-23T23:21:19.533Z</time>
</trkpt>
<trkpt lat="-28.1190870" lon="153.4588905">
<ele>7.588</ele>
<time>2018-01-23T23:21:21.723Z</time>
</trkpt>
<trkpt lat="-28.1193148" lon="153.4593626">
<ele>7.497</ele>
<time>2018-01-23T23:21:23.870Z</time>
</trkpt>
<trkpt lat="-28.1195241" lon="153.4598053">
<ele>7.500</ele>
<time>2018-01-23T23:21:25.841Z</time>
</trkpt>
<trkpt lat="-28.1197871" lon="153.4602070">
<ele>7.694</ele>
<time>2018-01-23T23:21:27.769Z</time>
</trkpt>
<trkpt lat="-28.1200495" lon="153.4606212">
<ele>8.043</ele>
<time>2018-01-23T23:21:29.713Z</time>
</trkpt>
<trkpt lat="-28.1203262" lon="153.4610139">
<ele>8.392</ele>
<time>2018-01-23T23:21:31.606Z</time>
</trkpt>
<trkpt lat="-28.1206286" lon="153.4614041">
<ele>8.640</ele>
<time>2018-01-23T23:21:33.537Z</time>
</trkpt>
<trkpt lat="-28.1209407" lon="153.4617924">
<ele>8.731</ele>
<time>2018-01-23T23:21:35.481Z</time>
</trkpt>
<trkpt lat="-28.1212639" lon="153.4621846">
<ele>8.627</ele>
<time>2018-01-23T23:21:37.489Z</time>
</trkpt>
<trkpt lat="-28.1215715" lon="153.4625951">
<ele>8.375</ele>
<time>2018-01-23T23:21:39.541Z</time>
</trkpt>
<trkpt lat="-28.1219421" lon="153.4629476">
<ele>8.031</ele>
<time>2018-01-23T23:21:41.671Z</time>
</trkpt>
<trkpt lat="-28.1223115" lon="153.4632693">
<ele>7.677</ele>
<time>2018-01-23T23:21:43.758Z</time>
</trkpt>
<trkpt lat="-28.1226745" lon="153.4635640">
<ele>7.500</ele>
<time>2018-01-23T23:21:45.781Z</time>
</trkpt>
<trkpt lat="-28.1230367" lon="153.4638461">
<ele>7.667</ele>
<time>2018-01-23T23:21:47.768Z</time>
</trkpt>
<trkpt lat="-28.1234082" lon="153.4641100">
<ele>8.129</ele>
<time>2018-01-23T23:21:49.724Z</time>
</trkpt>
<trkpt lat="-28.1237866" lon="153.4643679">
<ele>8.732</ele>
<time>2018-01-23T23:21:51.669Z</time>
</trkpt>
<trkpt lat="-28.1241830" lon="153.4646044">
<ele>9.433</ele>
<time>2018-01-23T23:21:53.623Z</time>
</trkpt>
<trkpt lat="-28.1245756" lon="153.4648501">
<ele>10.122</ele>
<time>2018-01-23T23:21:55.546Z</time>
</trkpt>
<trkpt lat="-28.1249663" lon="153.4650904">
<ele>10.531</ele>
<time>2018-01-23T23:21:57.398Z</time>
</trkpt>
<trkpt lat="-28.1253755" lon="153.4653460">
<ele>10.279</ele>
<time>2018-01-23T23:21:59.304Z</time>
</trkpt>
<trkpt lat="-28.1257811" lon="153.4656266">
<ele>9.154</ele>
<time>2018-01-23T23:22:01.271Z</time>
</trkpt>
<trkpt lat="-28.1262557" lon="153.4658699">
<ele>7.506</ele>
<time>2018-01-23T23:22:03.553Z</time>
</trkpt>
<trkpt lat="-28.1267044" lon="153.4661434">
<ele>5.981</ele>
<time>2018-01-23T23:22:05.930Z</time>
</trkpt>
<trkpt lat="-28.1271172" lon="153.4663942">
<ele>4.979</ele>
<time>2018-01-23T23:22:08.120Z</time>
</trkpt>
<trkpt lat="-28.1274856" lon="153.4666191">
<ele>5.012</ele>
<time>2018-01-23T23:22:09.989Z</time>
</trkpt>
<trkpt lat="-28.1278251" lon="153.4668322">
<ele>6.142</ele>
<time>2018-01-23T23:22:11.695Z</time>
</trkpt>
<trkpt lat="-28.1282101" lon="153.4670453">
<ele>7.396</ele>
<time>2018-01-23T23:22:13.628Z</time>
</trkpt>
<trkpt lat="-28.1286264" lon="153.4672862">
<ele>7.942</ele>
<time>2018-01-23T23:22:15.859Z</time>
</trkpt>
<trkpt lat="-28.1290470" lon="153.4675593">
<ele>7.895</ele>
<time>2018-01-23T23:22:18.263Z</time>
</trkpt>
<trkpt lat="-28.1294280" lon="153.4677937">
<ele>7.632</ele>
<time>2018-01-23T23:22:20.369Z</time>
</trkpt>
<trkpt lat="-28.1297720" lon="153.4679723">
<ele>7.505</ele>
<time>2018-01-23T23:22:22.129Z</time>
</trkpt>
<trkpt lat="-28.1301235" lon="153.4681711">
<ele>7.638</ele>
<time>2018-01-23T23:22:23.903Z</time>
</trkpt>
<trkpt lat="-28.1304840" lon="153.4684058">
<ele>7.744</ele>
<time>2018-01-23T23:22:25.735Z</time>
</trkpt>
<trkpt lat="-28.1308758" lon="153.4686379">
<ele>7.544</ele>
<time>2018-01-23T23:22:27.643Z</time>
</trkpt>
<trkpt lat="-28.1312809" lon="153.4688915">
<ele>7.176</ele>
<time>2018-01-23T23:22:29.625Z</time>
</trkpt>
<trkpt lat="-28.1316766" lon="153.4691313">
<ele>6.892</ele>
<time>2018-01-23T23:22:31.565Z</time>
</trkpt>
<trkpt lat="-28.1320969" lon="153.4693914">
<ele>6.728</ele>
<time>2018-01-23T23:22:33.681Z</time>
</trkpt>
<trkpt lat="-28.1325106" lon="153.4696450">
<ele>6.610</ele>
<time>2018-01-23T23:22:35.787Z</time>
</trkpt>
<trkpt lat="-28.1329124" lon="153.4698768">
<ele>6.490</ele>
<time>2018-01-23T23:22:37.800Z</time>
</trkpt>
<trkpt lat="-28.1333119" lon="153.4701100">
<ele>6.387</ele>
<time>2018-01-23T23:22:39.796Z</time>
</trkpt>
<trkpt lat="-28.1337079" lon="153.4703261">
<ele>6.324</ele>
<time>2018-01-23T23:22:41.743Z</time>
</trkpt>
<trkpt lat="-28.1341108" lon="153.4705520">
<ele>6.344</ele>
<time>2018-01-23T23:22:43.725Z</time>
</trkpt>
<trkpt lat="-28.1344945" lon="153.4707981">
<ele>6.521</ele>
<time>2018-01-23T23:22:45.643Z</time>
</trkpt>
<trkpt lat="-28.1348869" lon="153.4710544">
<ele>6.890</ele>
<time>2018-01-23T23:22:47.586Z</time>
</trkpt>
<trkpt lat="-28.1353029" lon="153.4713156">
<ele>7.396</ele>
<time>2018-01-23T23:22:49.619Z</time>
</trkpt>
<trkpt lat="-28.1357039" lon="153.4715664">
<ele>7.881</ele>
<time>2018-01-23T23:22:51.596Z</time>
</trkpt>
<trkpt lat="-28.1361171" lon="153.4718111">
<ele>7.970</ele>
<time>2018-01-23T23:22:53.649Z</time>
</trkpt>
<trkpt lat="-28.1365439" lon="153.4720420">
<ele>7.251</ele>
<time>2018-01-23T23:22:55.749Z</time>
</trkpt>
<trkpt lat="-28.1369299" lon="153.4723022">
<ele>5.812</ele>
<time>2018-01-23T23:22:57.719Z</time>
</trkpt>
<trkpt lat="-28.1373181" lon="153.4725383">
<ele>4.356</ele>
<time>2018-01-23T23:22:59.622Z</time>
</trkpt>
<trkpt lat="-28.1377086" lon="153.4727647">
<ele>3.502</ele>
<time>2018-01-23T23:23:01.505Z</time>
</trkpt>
<trkpt lat="-28.1381329" lon="153.4730084">
<ele>3.269</ele>
<time>2018-01-23T23:23:03.553Z</time>
</trkpt>
<trkpt lat="-28.1385255" lon="153.4732998">
<ele>3.280</ele>
<time>2018-01-23T23:23:05.609Z</time>
</trkpt>
<trkpt lat="-28.1388826" lon="153.4736477">
<ele>3.241</ele>
<time>2018-01-23T23:23:07.696Z</time>
</trkpt>
<trkpt lat="-28.1392361" lon="153.4740372">
<ele>3.127</ele>
<time>2018-01-23T23:23:09.848Z</time>
</trkpt>
<trkpt lat="-28.1395270" lon="153.4743873">
<ele>2.997</ele>
<time>2018-01-23T23:23:11.671Z</time>
</trkpt>
<trkpt lat="-28.1398172" lon="153.4747856">
<ele>2.849</ele>
<time>2018-01-23T23:23:13.627Z</time>
</trkpt>
<trkpt lat="-28.1401181" lon="153.4751719">
<ele>2.674</ele>
<time>2018-01-23T23:23:15.600Z</time>
</trkpt>
<trkpt lat="-28.1404655" lon="153.4755542">
<ele>2.492</ele>
<time>2018-01-23T23:23:17.737Z</time>
</trkpt>
<trkpt lat="-28.1407872" lon="153.4759130">
<ele>3.043</ele>
<time>2018-01-23T23:23:19.777Z</time>
</trkpt>
<trkpt lat="-28.1411173" lon="153.4762597">
<ele>4.770</ele>
<time>2018-01-23T23:23:21.878Z</time>
</trkpt>
<trkpt lat="-28.1414111" lon="153.4766338">
<ele>6.572</ele>
<time>2018-01-23T23:23:23.968Z</time>
</trkpt>
<trkpt lat="-28.1417130" lon="153.4770132">
<ele>7.389</ele>
<time>2018-01-23T23:23:26.070Z</time>
</trkpt>
<trkpt lat="-28.1419661" lon="153.4773828">
<ele>7.459</ele>
<time>2018-01-23T23:23:27.943Z</time>
</trkpt>
<trkpt lat="-28.1422475" lon="153.4777531">
<ele>7.254</ele>
<time>2018-01-23T23:23:29.838Z</time>
</trkpt>
<trkpt lat="-28.1425235" lon="153.4781491">
<ele>7.014</ele>
<time>2018-01-23T23:23:31.743Z</time>
</trkpt>
<trkpt lat="-28.1428577" lon="153.4785112">
<ele>6.821</ele>
<time>2018-01-23T23:23:33.697Z</time>
</trkpt>
<trkpt lat="-28.1432164" lon="153.4788123">
<ele>6.817</ele>
<time>2018-01-23T23:23:35.590Z</time>
</trkpt>
<trkpt lat="-28.1436143" lon="153.4790938">
<ele>7.205</ele>
<time>2018-01-23T23:23:37.633Z</time>
</trkpt>
<trkpt lat="-28.1440337" lon="153.4793693">
<ele>7.985</ele>
<time>2018-01-23T23:23:39.836Z</time>
</trkpt>
<trkpt lat="-28.1444440" lon="153.4796211">
<ele>8.885</ele>
<time>2018-01-23T23:23:41.999Z</time>
</trkpt>
<trkpt lat="-28.1448536" lon="153.4798372">
<ele>9.589</ele>
<time>2018-01-23T23:23:44.058Z</time>
</trkpt>
<trkpt lat="-28.1452526" lon="153.4799972">
<ele>9.957</ele>
<time>2018-01-23T23:23:45.950Z</time>
</trkpt>
<trkpt lat="-28.1456674" lon="153.4800837">
<ele>10.094</ele>
<time>2018-01-23T23:23:47.830Z</time>
</trkpt>
<trkpt lat="-28.1461197" lon="153.4802115">
<ele>10.169</ele>
<time>2018-01-23T23:23:49.907Z</time>
</trkpt>
<trkpt lat="-28.1465799" lon="153.4802368">
<ele>10.237</ele>
<time>2018-01-23T23:23:51.933Z</time>
</trkpt>
<trkpt lat="-28.1470302" lon="153.4801824">
<ele>10.345</ele>
<time>2018-01-23T23:23:53.894Z</time>
</trkpt>
<trkpt lat="-28.1474735" lon="153.4801306">
<ele>10.535</ele>
<time>2018-01-23T23:23:55.811Z</time>
</trkpt>
<trkpt lat="-28.1479328" lon="153.4800552">
<ele>10.862</ele>
<time>2018-01-23T23:23:57.822Z</time>
</trkpt>
<trkpt lat="-28.1484012" lon="153.4799995">
<ele>11.445</ele>
<time>2018-01-23T23:23:59.926Z</time>
</trkpt>
<trkpt lat="-28.1488673" lon="153.4799910">
<ele>12.234</ele>
<time>2018-01-23T23:24:02.099Z</time>
</trkpt>
<trkpt lat="-28.1493389" lon="153.4800242">
<ele>12.924</ele>
<time>2018-01-23T23:24:04.347Z</time>
</trkpt>
<trkpt lat="-28.1497554" lon="153.4801323">
<ele>13.289</ele>
<time>2018-01-23T23:24:06.380Z</time>
</trkpt>
<trkpt lat="-28.1501369" lon="153.4802619">
<ele>13.367</ele>
<time>2018-01-23T23:24:08.287Z</time>
</trkpt>
<trkpt lat="-28.1505336" lon="153.4804211">
<ele>13.290</ele>
<time>2018-01-23T23:24:10.334Z</time>
</trkpt>
<trkpt lat="-28.1509333" lon="153.4805888">
<ele>12.976</ele>
<time>2018-01-23T23:24:12.428Z</time>
</trkpt>
<trkpt lat="-28.1513031" lon="153.4808025">
<ele>12.411</ele>
<time>2018-01-23T23:24:14.460Z</time>
</trkpt>
<trkpt lat="-28.1516368" lon="153.4810429">
<ele>11.927</ele>
<time>2018-01-23T23:24:16.384Z</time>
</trkpt>
<trkpt lat="-28.1519667" lon="153.4812875">
<ele>11.894</ele>
<time>2018-01-23T23:24:18.297Z</time>
</trkpt>
<trkpt lat="-28.1523286" lon="153.4815676">
<ele>12.417</ele>
<time>2018-01-23T23:24:20.416Z</time>
</trkpt>
<trkpt lat="-28.1526147" lon="153.4819374">
<ele>13.385</ele>
<time>2018-01-23T23:24:22.505Z</time>
</trkpt>
<trkpt lat="-28.1528618" lon="153.4822868">
<ele>16.290</ele>
<time>2018-01-23T23:24:24.356Z</time>
</trkpt>
<trkpt lat="-28.1531299" lon="153.4826532">
<ele>22.192</ele>
<time>2018-01-23T23:24:26.249Z</time>
</trkpt>
<trkpt lat="-28.1533283" lon="153.4830637">
<ele>28.412</ele>
<time>2018-01-23T23:24:28.061Z</time>
</trkpt>
<trkpt lat="-28.1535635" lon="153.4834680">
<ele>31.908</ele>
<time>2018-01-23T23:24:29.925Z</time>
</trkpt>
<trkpt lat="-28.1537590" lon="153.4839245">
<ele>32.823</ele>
<time>2018-01-23T23:24:31.889Z</time>
</trkpt>
<trkpt lat="-28.1539630" lon="153.4844089">
<ele>32.451</ele>
<time>2018-01-23T23:24:33.975Z</time>
</trkpt>
<trkpt lat="-28.1541648" lon="153.4848736">
<ele>31.717</ele>
<time>2018-01-23T23:24:35.978Z</time>
</trkpt>
<trkpt lat="-28.1543639" lon="153.4853204">
<ele>30.790</ele>
<time>2018-01-23T23:24:37.891Z</time>
</trkpt>
<trkpt lat="-28.1545718" lon="153.4857711">
<ele>29.558</ele>
<time>2018-01-23T23:24:39.810Z</time>
</trkpt>
<trkpt lat="-28.1547971" lon="153.4862303">
<ele>28.156</ele>
<time>2018-01-23T23:24:41.771Z</time>
</trkpt>
<trkpt lat="-28.1550324" lon="153.4866854">
<ele>26.900</ele>
<time>2018-01-23T23:24:43.728Z</time>
</trkpt>
<trkpt lat="-28.1553503" lon="153.4870815">
<ele>25.673</ele>
<time>2018-01-23T23:24:45.727Z</time>
</trkpt>
<trkpt lat="-28.1556724" lon="153.4874500">
<ele>24.069</ele>
<time>2018-01-23T23:24:47.685Z</time>
</trkpt>
<trkpt lat="-28.1560138" lon="153.4878563">
<ele>22.376</ele>
<time>2018-01-23T23:24:49.810Z</time>
</trkpt>
<trkpt lat="-28.1563371" lon="153.4882392">
<ele>22.005</ele>
<time>2018-01-23T23:24:51.806Z</time>
</trkpt>
<trkpt lat="-28.1566445" lon="153.4886012">
<ele>23.494</ele>
<time>2018-01-23T23:24:53.675Z</time>
</trkpt>
<trkpt lat="-28.1569801" lon="153.4889902">
<ele>24.942</ele>
<time>2018-01-23T23:24:55.661Z</time>
</trkpt>
<trkpt lat="-28.1572541" lon="153.4894274">
<ele>24.670</ele>
<time>2018-01-23T23:24:57.581Z</time>
</trkpt>
<trkpt lat="-28.1575028" lon="153.4899003">
<ele>23.030</ele>
<time>2018-01-23T23:24:59.551Z</time>
</trkpt>
<trkpt lat="-28.1577416" lon="153.4904074">
<ele>20.951</ele>
<time>2018-01-23T23:25:01.672Z</time>
</trkpt>
<trkpt lat="-28.1579614" lon="153.4909232">
<ele>19.155</ele>
<time>2018-01-23T23:25:03.832Z</time>
</trkpt>
<trkpt lat="-28.1581526" lon="153.4914304">
<ele>17.692</ele>
<time>2018-01-23T23:25:05.920Z</time>
</trkpt>
<trkpt lat="-28.1583377" lon="153.4918977">
<ele>16.211</ele>
<time>2018-01-23T23:25:07.872Z</time>
</trkpt>
<trkpt lat="-28.1585620" lon="153.4923637">
<ele>14.841</ele>
<time>2018-01-23T23:25:09.894Z</time>
</trkpt>
<trkpt lat="-28.1587886" lon="153.4928245">
<ele>13.639</ele>
<time>2018-01-23T23:25:11.897Z</time>
</trkpt>
<trkpt lat="-28.1590195" lon="153.4932748">
<ele>12.448</ele>
<time>2018-01-23T23:25:13.878Z</time>
</trkpt>
<trkpt lat="-28.1592575" lon="153.4937216">
<ele>11.328</ele>
<time>2018-01-23T23:25:15.868Z</time>
</trkpt>
<trkpt lat="-28.1594937" lon="153.4941727">
<ele>10.433</ele>
<time>2018-01-23T23:25:17.851Z</time>
</trkpt>
<trkpt lat="-28.1597687" lon="153.4945986">
<ele>9.830</ele>
<time>2018-01-23T23:25:19.822Z</time>
</trkpt>
<trkpt lat="-28.1600516" lon="153.4950153">
<ele>9.459</ele>
<time>2018-01-23T23:25:21.775Z</time>
</trkpt>
<trkpt lat="-28.1603346" lon="153.4954241">
<ele>9.243</ele>
<time>2018-01-23T23:25:23.707Z</time>
</trkpt>
<trkpt lat="-28.1606605" lon="153.4958418">
<ele>9.194</ele>
<time>2018-01-23T23:25:25.783Z</time>
</trkpt>
<trkpt lat="-28.1609739" lon="153.4962394">
<ele>9.330</ele>
<time>2018-01-23T23:25:27.756Z</time>
</trkpt>
<trkpt lat="-28.1613078" lon="153.4966006">
<ele>9.583</ele>
<time>2018-01-23T23:25:29.681Z</time>
</trkpt>
<trkpt lat="-28.1616516" lon="153.4969629">
<ele>9.818</ele>
<time>2018-01-23T23:25:31.635Z</time>
</trkpt>
<trkpt lat="-28.1620251" lon="153.4973233">
<ele>9.921</ele>
<time>2018-01-23T23:25:33.680Z</time>
</trkpt>
<trkpt lat="-28.1623710" lon="153.4976723">
<ele>9.839</ele>
<time>2018-01-23T23:25:35.613Z</time>
</trkpt>
<trkpt lat="-28.1627419" lon="153.4980003">
<ele>9.608</ele>
<time>2018-01-23T23:25:37.585Z</time>
</trkpt>
<trkpt lat="-28.1631236" lon="153.4983290">
<ele>9.343</ele>
<time>2018-01-23T23:25:39.621Z</time>
</trkpt>
<trkpt lat="-28.1635185" lon="153.4986407">
<ele>9.139</ele>
<time>2018-01-23T23:25:41.737Z</time>
</trkpt>
<trkpt lat="-28.1639233" lon="153.4989107">
<ele>8.962</ele>
<time>2018-01-23T23:25:43.916Z</time>
</trkpt>
<trkpt lat="-28.1643235" lon="153.4991929">
<ele>8.726</ele>
<time>2018-01-23T23:25:46.212Z</time>
</trkpt>
<trkpt lat="-28.1646948" lon="153.4994481">
<ele>8.466</ele>
<time>2018-01-23T23:25:48.378Z</time>
</trkpt>
<trkpt lat="-28.1650850" lon="153.4996463">
<ele>8.299</ele>
<time>2018-01-23T23:25:50.525Z</time>
</trkpt>
<trkpt lat="-28.1654445" lon="153.4998473">
<ele>8.271</ele>
<time>2018-01-23T23:25:52.496Z</time>
</trkpt>
<trkpt lat="-28.1658013" lon="153.5000458">
<ele>8.332</ele>
<time>2018-01-23T23:25:54.373Z</time>
</trkpt>
<trkpt lat="-28.1661596" lon="153.5002407">
<ele>8.388</ele>
<time>2018-01-23T23:25:56.170Z</time>
</trkpt>
<trkpt lat="-28.1665340" lon="153.5004273">
<ele>8.386</ele>
<time>2018-01-23T23:25:57.958Z</time>
</trkpt>
<trkpt lat="-28.1669106" lon="153.5006207">
<ele>8.385</ele>
<time>2018-01-23T23:25:59.730Z</time>
</trkpt>
<trkpt lat="-28.1673148" lon="153.5008507">
<ele>8.462</ele>
<time>2018-01-23T23:26:01.648Z</time>
</trkpt>
<trkpt lat="-28.1677343" lon="153.5010866">
<ele>8.596</ele>
<time>2018-01-23T23:26:03.626Z</time>
</trkpt>
<trkpt lat="-28.1681633" lon="153.5013070">
<ele>8.715</ele>
<time>2018-01-23T23:26:05.623Z</time>
</trkpt>
<trkpt lat="-28.1685932" lon="153.5015435">
<ele>8.767</ele>
<time>2018-01-23T23:26:07.656Z</time>
</trkpt>
<trkpt lat="-28.1690150" lon="153.5018010">
<ele>8.753</ele>
<time>2018-01-23T23:26:09.700Z</time>
</trkpt>
<trkpt lat="-28.1694235" lon="153.5020935">
<ele>8.694</ele>
<time>2018-01-23T23:26:11.769Z</time>
</trkpt>
<trkpt lat="-28.1698266" lon="153.5023878">
<ele>8.605</ele>
<time>2018-01-23T23:26:13.812Z</time>
</trkpt>
<trkpt lat="-28.1701964" lon="153.5026997">
<ele>8.499</ele>
<time>2018-01-23T23:26:15.762Z</time>
</trkpt>
<trkpt lat="-28.1705540" lon="153.5029788">
<ele>8.370</ele>
<time>2018-01-23T23:26:17.599Z</time>
</trkpt>
<trkpt lat="-28.1709364" lon="153.5032865">
<ele>8.198</ele>
<time>2018-01-23T23:26:19.581Z</time>
</trkpt>
<trkpt lat="-28.1712810" lon="153.5036296">
<ele>7.989</ele>
<time>2018-01-23T23:26:21.512Z</time>
</trkpt>
<trkpt lat="-28.1716249" lon="153.5040317">
<ele>7.767</ele>
<time>2018-01-23T23:26:23.581Z</time>
</trkpt>
<trkpt lat="-28.1719630" lon="153.5044183">
<ele>7.536</ele>
<time>2018-01-23T23:26:25.574Z</time>
</trkpt>
<trkpt lat="-28.1722831" lon="153.5048221">
<ele>7.292</ele>
<time>2018-01-23T23:26:27.549Z</time>
</trkpt>
<trkpt lat="-28.1725854" lon="153.5052384">
<ele>7.077</ele>
<time>2018-01-23T23:26:29.527Z</time>
</trkpt>
<trkpt lat="-28.1729001" lon="153.5057042">
<ele>6.928</ele>
<time>2018-01-23T23:26:31.717Z</time>
</trkpt>
<trkpt lat="-28.1731832" lon="153.5061574">
<ele>6.824</ele>
<time>2018-01-23T23:26:33.814Z</time>
</trkpt>
<trkpt lat="-28.1734187" lon="153.5066202">
<ele>6.729</ele>
<time>2018-01-23T23:26:35.840Z</time>
</trkpt>
<trkpt lat="-28.1736863" lon="153.5070734">
<ele>6.634</ele>
<time>2018-01-23T23:26:37.915Z</time>
</trkpt>
<trkpt lat="-28.1738904" lon="153.5075403">
<ele>6.563</ele>
<time>2018-01-23T23:26:39.904Z</time>
</trkpt>
<trkpt lat="-28.1741137" lon="153.5080162">
<ele>6.544</ele>
<time>2018-01-23T23:26:41.941Z</time>
</trkpt>
<trkpt lat="-28.1743142" lon="153.5084859">
<ele>6.635</ele>
<time>2018-01-23T23:26:43.859Z</time>
</trkpt>
<trkpt lat="-28.1745071" lon="153.5089504">
<ele>6.846</ele>
<time>2018-01-23T23:26:45.689Z</time>
</trkpt>
<trkpt lat="-28.1747041" lon="153.5094286">
<ele>7.005</ele>
<time>2018-01-23T23:26:47.540Z</time>
</trkpt>
<trkpt lat="-28.1748948" lon="153.5099264">
<ele>6.962</ele>
<time>2018-01-23T23:26:49.452Z</time>
</trkpt>
<trkpt lat="-28.1750688" lon="153.5104930">
<ele>6.759</ele>
<time>2018-01-23T23:26:51.600Z</time>
</trkpt>
<trkpt lat="-28.1752493" lon="153.5110324">
<ele>6.392</ele>
<time>2018-01-23T23:26:53.666Z</time>
</trkpt>
<trkpt lat="-28.1754009" lon="153.5115629">
<ele>5.822</ele>
<time>2018-01-23T23:26:55.662Z</time>
</trkpt>
<trkpt lat="-28.1754009" lon="153.5115629">
<ele>5.822</ele>
<time>2018-01-23T23:26:55.662Z</time>
</trkpt>
<trkpt lat="-28.1777950" lon="153.5175473">
<ele>5.847</ele>
<time>2018-01-23T23:27:19.210Z</time>
</trkpt>
<trkpt lat="-28.1781560" lon="153.5182802">
<ele>5.844</ele>
<time>2018-01-23T23:27:22.239Z</time>
</trkpt>
<trkpt lat="-28.1785805" lon="153.5189668">
<ele>5.882</ele>
<time>2018-01-23T23:27:25.333Z</time>
</trkpt>
<trkpt lat="-28.1789928" lon="153.5195900">
<ele>6.008</ele>
<time>2018-01-23T23:27:28.276Z</time>
</trkpt>
<trkpt lat="-28.1794331" lon="153.5202013">
<ele>6.195</ele>
<time>2018-01-23T23:27:31.229Z</time>
</trkpt>
<trkpt lat="-28.1799381" lon="153.5208154">
<ele>6.368</ele>
<time>2018-01-23T23:27:34.273Z</time>
</trkpt>
<trkpt lat="-28.1804745" lon="153.5214086">
<ele>6.540</ele>
<time>2018-01-23T23:27:37.269Z</time>
</trkpt>
<trkpt lat="-28.1810451" lon="153.5219470">
<ele>6.738</ele>
<time>2018-01-23T23:27:40.266Z</time>
</trkpt>
<trkpt lat="-28.1816013" lon="153.5223868">
<ele>6.655</ele>
<time>2018-01-23T23:27:43.110Z</time>
</trkpt>
<trkpt lat="-28.1821669" lon="153.5228251">
<ele>5.939</ele>
<time>2018-01-23T23:27:46.135Z</time>
</trkpt>
<trkpt lat="-28.1827272" lon="153.5231722">
<ele>4.898</ele>
<time>2018-01-23T23:27:49.135Z</time>
</trkpt>
<trkpt lat="-28.1830511" lon="153.5233928">
<ele>4.404</ele>
<time>2018-01-23T23:27:51.027Z</time>
</trkpt>
<trkpt lat="-28.1833844" lon="153.5235989">
<ele>4.769</ele>
<time>2018-01-23T23:27:53.023Z</time>
</trkpt>
<trkpt lat="-28.1837178" lon="153.5238183">
<ele>5.356</ele>
<time>2018-01-23T23:27:55.153Z</time>
</trkpt>
<trkpt lat="-28.1840386" lon="153.5239659">
<ele>5.568</ele>
<time>2018-01-23T23:27:57.121Z</time>
</trkpt>
<trkpt lat="-28.1843570" lon="153.5241312">
<ele>5.553</ele>
<time>2018-01-23T23:27:59.072Z</time>
</trkpt>
<trkpt lat="-28.1847174" lon="153.5242965">
<ele>5.645</ele>
<time>2018-01-23T23:28:01.160Z</time>
</trkpt>
<trkpt lat="-28.1850751" lon="153.5244616">
<ele>5.966</ele>
<time>2018-01-23T23:28:03.177Z</time>
</trkpt>
<trkpt lat="-28.1854226" lon="153.5246207">
<ele>6.473</ele>
<time>2018-01-23T23:28:05.048Z</time>
</trkpt>
<trkpt lat="-28.1858103" lon="153.5247821">
<ele>7.037</ele>
<time>2018-01-23T23:28:06.962Z</time>
</trkpt>
<trkpt lat="-28.1862390" lon="153.5249885">
<ele>7.478</ele>
<time>2018-01-23T23:28:09.012Z</time>
</trkpt>
<trkpt lat="-28.1866847" lon="153.5251519">
<ele>7.675</ele>
<time>2018-01-23T23:28:11.118Z</time>
</trkpt>
<trkpt lat="-28.1870725" lon="153.5253425">
<ele>7.660</ele>
<time>2018-01-23T23:28:13.095Z</time>
</trkpt>
<trkpt lat="-28.1874480" lon="153.5255279">
<ele>7.602</ele>
<time>2018-01-23T23:28:15.052Z</time>
</trkpt>
<trkpt lat="-28.1878142" lon="153.5257127">
<ele>7.621</ele>
<time>2018-01-23T23:28:16.985Z</time>
</trkpt>
<trkpt lat="-28.1882155" lon="153.5258587">
<ele>7.670</ele>
<time>2018-01-23T23:28:18.974Z</time>
</trkpt>
<trkpt lat="-28.1886327" lon="153.5259992">
<ele>7.641</ele>
<time>2018-01-23T23:28:20.962Z</time>
</trkpt>
<trkpt lat="-28.1890805" lon="153.5261255">
<ele>7.485</ele>
<time>2018-01-23T23:28:23.041Z</time>
</trkpt>
<trkpt lat="-28.1895172" lon="153.5262592">
<ele>7.246</ele>
<time>2018-01-23T23:28:25.091Z</time>
</trkpt>
<trkpt lat="-28.1899428" lon="153.5263849">
<ele>7.003</ele>
<time>2018-01-23T23:28:27.134Z</time>
</trkpt>
<trkpt lat="-28.1903364" lon="153.5265047">
<ele>6.806</ele>
<time>2018-01-23T23:28:29.082Z</time>
</trkpt>
<trkpt lat="-28.1907237" lon="153.5266025">
<ele>6.666</ele>
<time>2018-01-23T23:28:30.999Z</time>
</trkpt>
<trkpt lat="-28.1911406" lon="153.5266948">
<ele>6.576</ele>
<time>2018-01-23T23:28:33.050Z</time>
</trkpt>
<trkpt lat="-28.1915389" lon="153.5268296">
<ele>6.315</ele>
<time>2018-01-23T23:28:35.066Z</time>
</trkpt>
<trkpt lat="-28.1919346" lon="153.5269260">
<ele>5.667</ele>
<time>2018-01-23T23:28:37.062Z</time>
</trkpt>
<trkpt lat="-28.1923052" lon="153.5270234">
<ele>4.862</ele>
<time>2018-01-23T23:28:38.980Z</time>
</trkpt>
<trkpt lat="-28.1926627" lon="153.5271326">
<ele>4.303</ele>
<time>2018-01-23T23:28:40.857Z</time>
</trkpt>
<trkpt lat="-28.1930610" lon="153.5272459">
<ele>4.254</ele>
<time>2018-01-23T23:28:42.855Z</time>
</trkpt>
<trkpt lat="-28.1934646" lon="153.5273961">
<ele>4.766</ele>
<time>2018-01-23T23:28:44.799Z</time>
</trkpt>
<trkpt lat="-28.1939106" lon="153.5275161">
<ele>5.548</ele>
<time>2018-01-23T23:28:46.812Z</time>
</trkpt>
<trkpt lat="-28.1943533" lon="153.5277152">
<ele>6.218</ele>
<time>2018-01-23T23:28:48.867Z</time>
</trkpt>
<trkpt lat="-28.1947872" lon="153.5279219">
<ele>6.557</ele>
<time>2018-01-23T23:28:50.913Z</time>
</trkpt>
<trkpt lat="-28.1951897" lon="153.5281366">
<ele>6.485</ele>
<time>2018-01-23T23:28:52.890Z</time>
</trkpt>
<trkpt lat="-28.1955655" lon="153.5283654">
<ele>6.156</ele>
<time>2018-01-23T23:28:54.820Z</time>
</trkpt>
<trkpt lat="-28.1959586" lon="153.5285848">
<ele>5.966</ele>
<time>2018-01-23T23:28:56.814Z</time>
</trkpt>
<trkpt lat="-28.1963426" lon="153.5288266">
<ele>6.138</ele>
<time>2018-01-23T23:28:58.802Z</time>
</trkpt>
<trkpt lat="-28.1967290" lon="153.5291057">
<ele>6.441</ele>
<time>2018-01-23T23:29:00.869Z</time>
</trkpt>
<trkpt lat="-28.1970923" lon="153.5293852">
<ele>6.661</ele>
<time>2018-01-23T23:29:02.868Z</time>
</trkpt>
<trkpt lat="-28.1974395" lon="153.5296879">
<ele>6.883</ele>
<time>2018-01-23T23:29:04.876Z</time>
</trkpt>
<trkpt lat="-28.1977808" lon="153.5299942">
<ele>7.218</ele>
<time>2018-01-23T23:29:06.850Z</time>
</trkpt>
<trkpt lat="-28.1981407" lon="153.5303362">
<ele>7.624</ele>
<time>2018-01-23T23:29:08.962Z</time>
</trkpt>
<trkpt lat="-28.1984507" lon="153.5306839">
<ele>7.946</ele>
<time>2018-01-23T23:29:10.950Z</time>
</trkpt>
<trkpt lat="-28.1987192" lon="153.5310412">
<ele>8.077</ele>
<time>2018-01-23T23:29:12.862Z</time>
</trkpt>
<trkpt lat="-28.1990042" lon="153.5314192">
<ele>7.951</ele>
<time>2018-01-23T23:29:14.887Z</time>
</trkpt>
<trkpt lat="-28.1993088" lon="153.5317703">
<ele>7.616</ele>
<time>2018-01-23T23:29:16.920Z</time>
</trkpt>
<trkpt lat="-28.1996059" lon="153.5321114">
<ele>7.385</ele>
<time>2018-01-23T23:29:18.943Z</time>
</trkpt>
<trkpt lat="-28.1998619" lon="153.5324540">
<ele>7.474</ele>
<time>2018-01-23T23:29:20.869Z</time>
</trkpt>
<trkpt lat="-28.2001380" lon="153.5327848">
<ele>7.727</ele>
<time>2018-01-23T23:29:22.822Z</time>
</trkpt>
<trkpt lat="-28.2004256" lon="153.5330948">
<ele>7.945</ele>
<time>2018-01-23T23:29:24.722Z</time>
</trkpt>
<trkpt lat="-28.2007343" lon="153.5334497">
<ele>8.101</ele>
<time>2018-01-23T23:29:26.772Z</time>
</trkpt>
<trkpt lat="-28.2010592" lon="153.5338141">
<ele>8.276</ele>
<time>2018-01-23T23:29:28.845Z</time>
</trkpt>
<trkpt lat="-28.2013610" lon="153.5341725">
<ele>8.576</ele>
<time>2018-01-23T23:29:30.814Z</time>
</trkpt>
<trkpt lat="-28.2016603" lon="153.5345422">
<ele>8.996</ele>
<time>2018-01-23T23:29:32.815Z</time>
</trkpt>
<trkpt lat="-28.2019530" lon="153.5349199">
<ele>9.498</ele>
<time>2018-01-23T23:29:34.823Z</time>
</trkpt>
<trkpt lat="-28.2022529" lon="153.5352961">
<ele>10.107</ele>
<time>2018-01-23T23:29:36.848Z</time>
</trkpt>
<trkpt lat="-28.2025321" lon="153.5356883">
<ele>10.767</ele>
<time>2018-01-23T23:29:38.870Z</time>
</trkpt>
<trkpt lat="-28.2027831" lon="153.5360844">
<ele>11.290</ele>
<time>2018-01-23T23:29:40.853Z</time>
</trkpt>
<trkpt lat="-28.2030287" lon="153.5364618">
<ele>11.516</ele>
<time>2018-01-23T23:29:42.799Z</time>
</trkpt>
<trkpt lat="-28.2032579" lon="153.5368581">
<ele>11.321</ele>
<time>2018-01-23T23:29:44.803Z</time>
</trkpt>
<trkpt lat="-28.2034972" lon="153.5372555">
<ele>10.692</ele>
<time>2018-01-23T23:29:46.861Z</time>
</trkpt>
<trkpt lat="-28.2037297" lon="153.5376295">
<ele>9.843</ele>
<time>2018-01-23T23:29:48.822Z</time>
</trkpt>
<trkpt lat="-28.2039590" lon="153.5380073">
<ele>9.030</ele>
<time>2018-01-23T23:29:50.805Z</time>
</trkpt>
<trkpt lat="-28.2041945" lon="153.5384076">
<ele>8.344</ele>
<time>2018-01-23T23:29:52.930Z</time>
</trkpt>
<trkpt lat="-28.2044232" lon="153.5387731">
<ele>7.803</ele>
<time>2018-01-23T23:29:55.002Z</time>
</trkpt>
<trkpt lat="-28.2045831" lon="153.5391084">
<ele>7.302</ele>
<time>2018-01-23T23:29:56.864Z</time>
</trkpt>
<trkpt lat="-28.2047625" lon="153.5394370">
<ele>6.718</ele>
<time>2018-01-23T23:29:58.784Z</time>
</trkpt>
<trkpt lat="-28.2049827" lon="153.5397769">
<ele>6.153</ele>
<time>2018-01-23T23:30:00.892Z</time>
</trkpt>
<trkpt lat="-28.2051532" lon="153.5401057">
<ele>5.795</ele>
<time>2018-01-23T23:30:02.857Z</time>
</trkpt>
<trkpt lat="-28.2053365" lon="153.5404125">
<ele>5.755</ele>
<time>2018-01-23T23:30:04.839Z</time>
</trkpt>
<trkpt lat="-28.2055330" lon="153.5407351">
<ele>5.991</ele>
<time>2018-01-23T23:30:06.973Z</time>
</trkpt>
<trkpt lat="-28.2056869" lon="153.5410267">
<ele>6.178</ele>
<time>2018-01-23T23:30:08.849Z</time>
</trkpt>
<trkpt lat="-28.2058553" lon="153.5413195">
<ele>6.039</ele>
<time>2018-01-23T23:30:10.798Z</time>
</trkpt>
<trkpt lat="-28.2060244" lon="153.5416146">
<ele>5.706</ele>
<time>2018-01-23T23:30:12.775Z</time>
</trkpt>
<trkpt lat="-28.2061803" lon="153.5419215">
<ele>5.448</ele>
<time>2018-01-23T23:30:14.772Z</time>
</trkpt>
<trkpt lat="-28.2063733" lon="153.5422107">
<ele>5.349</ele>
<time>2018-01-23T23:30:16.822Z</time>
</trkpt>
<trkpt lat="-28.2065661" lon="153.5424787">
<ele>5.345</ele>
<time>2018-01-23T23:30:18.811Z</time>
</trkpt>
<trkpt lat="-28.2067481" lon="153.5427407">
<ele>5.379</ele>
<time>2018-01-23T23:30:20.758Z</time>
</trkpt>
<trkpt lat="-28.2069430" lon="153.5430168">
<ele>5.438</ele>
<time>2018-01-23T23:30:22.838Z</time>
</trkpt>
<trkpt lat="-28.2071155" lon="153.5432547">
<ele>5.517</ele>
<time>2018-01-23T23:30:24.689Z</time>
</trkpt>
<trkpt lat="-28.2073013" lon="153.5434962">
<ele>5.588</ele>
<time>2018-01-23T23:30:26.744Z</time>
</trkpt>
<trkpt lat="-28.2074543" lon="153.5437188">
<ele>5.632</ele>
<time>2018-01-23T23:30:28.787Z</time>
</trkpt>
<trkpt lat="-28.2075662" lon="153.5438812">
<ele>5.648</ele>
<time>2018-01-23T23:30:30.604Z</time>
</trkpt>
<trkpt lat="-28.2076103" lon="153.5440216">
<ele>5.653</ele>
<time>2018-01-23T23:30:32.525Z</time>
</trkpt>
<trkpt lat="-28.2076156" lon="153.5441234">
<ele>5.674</ele>
<time>2018-01-23T23:30:34.001Z</time>
</trkpt>
<trkpt lat="-28.2076156" lon="153.5441234">
<ele>5.721</ele>
<time>2018-01-23T23:30:37.001Z</time>
</trkpt>
<trkpt lat="-28.2076156" lon="153.5441234">
<ele>5.757</ele>
<time>2018-01-23T23:31:19.990Z</time>
</trkpt>
<trkpt lat="-28.2075395" lon="153.5443039">
<ele>5.747</ele>
<time>2018-01-23T23:31:29.062Z</time>
</trkpt>
<trkpt lat="-28.2074864" lon="153.5444793">
<ele>5.690</ele>
<time>2018-01-23T23:31:31.633Z</time>
</trkpt>
<trkpt lat="-28.2075247" lon="153.5446865">
<ele>5.564</ele>
<time>2018-01-23T23:31:34.359Z</time>
</trkpt>
<trkpt lat="-28.2076668" lon="153.5447902">
<ele>5.338</ele>
<time>2018-01-23T23:31:36.994Z</time>
</trkpt>
<trkpt lat="-28.2078198" lon="153.5448556">
<ele>5.054</ele>
<time>2018-01-23T23:31:39.383Z</time>
</trkpt>
<trkpt lat="-28.2080011" lon="153.5449051">
<ele>4.816</ele>
<time>2018-01-23T23:31:41.359Z</time>
</trkpt>
<trkpt lat="-28.2082382" lon="153.5449329">
<ele>4.682</ele>
<time>2018-01-23T23:31:43.310Z</time>
</trkpt>
<trkpt lat="-28.2085263" lon="153.5450067">
<ele>4.634</ele>
<time>2018-01-23T23:31:45.518Z</time>
</trkpt>
<trkpt lat="-28.2088167" lon="153.5450359">
<ele>4.631</ele>
<time>2018-01-23T23:31:47.618Z</time>
</trkpt>
<trkpt lat="-28.2090788" lon="153.5450800">
<ele>4.640</ele>
<time>2018-01-23T23:31:49.500Z</time>
</trkpt>
<trkpt lat="-28.2093858" lon="153.5451195">
<ele>4.647</ele>
<time>2018-01-23T23:31:51.763Z</time>
</trkpt>
<trkpt lat="-28.2096892" lon="153.5451791">
<ele>4.652</ele>
<time>2018-01-23T23:31:54.162Z</time>
</trkpt>
<trkpt lat="-28.2099022" lon="153.5453077">
<ele>4.701</ele>
<time>2018-01-23T23:31:56.168Z</time>
</trkpt>
<trkpt lat="-28.2101261" lon="153.5454311">
<ele>4.869</ele>
<time>2018-01-23T23:31:58.393Z</time>
</trkpt>
<trkpt lat="-28.2103137" lon="153.5455948">
<ele>5.150</ele>
<time>2018-01-23T23:32:00.672Z</time>
</trkpt>
<trkpt lat="-28.2104679" lon="153.5457203">
<ele>5.434</ele>
<time>2018-01-23T23:32:02.530Z</time>
</trkpt>
<trkpt lat="-28.2106073" lon="153.5458648">
<ele>5.647</ele>
<time>2018-01-23T23:32:04.348Z</time>
</trkpt>
<trkpt lat="-28.2107567" lon="153.5459638">
<ele>5.781</ele>
<time>2018-01-23T23:32:06.033Z</time>
</trkpt>
<trkpt lat="-28.2109564" lon="153.5459833">
<ele>5.827</ele>
<time>2018-01-23T23:32:08.059Z</time>
</trkpt>
<trkpt lat="-28.2111630" lon="153.5459068">
<ele>5.802</ele>
<time>2018-01-23T23:32:10.362Z</time>
</trkpt>
<trkpt lat="-28.2113292" lon="153.5457969">
<ele>5.768</ele>
<time>2018-01-23T23:32:12.528Z</time>
</trkpt>
<trkpt lat="-28.2114678" lon="153.5456544">
<ele>5.827</ele>
<time>2018-01-23T23:32:14.753Z</time>
</trkpt>
<trkpt lat="-28.2115552" lon="153.5454492">
<ele>6.051</ele>
<time>2018-01-23T23:32:17.526Z</time>
</trkpt>
<trkpt lat="-28.2116354" lon="153.5452317">
<ele>6.442</ele>
<time>2018-01-23T23:32:20.468Z</time>
</trkpt>
<trkpt lat="-28.2116616" lon="153.5451003">
<ele>6.896</ele>
<time>2018-01-23T23:32:22.007Z</time>
</trkpt>
<trkpt lat="-28.2117667" lon="153.5450626">
<ele>7.284</ele>
<time>2018-01-23T23:32:23.527Z</time>
</trkpt>
<trkpt lat="-28.2119323" lon="153.5451138">
<ele>7.534</ele>
<time>2018-01-23T23:32:26.128Z</time>
</trkpt>
<trkpt lat="-28.2120583" lon="153.5451661">
<ele>7.676</ele>
<time>2018-01-23T23:32:28.189Z</time>
</trkpt>
<trkpt lat="-28.2121782" lon="153.5451998">
<ele>7.831</ele>
<time>2018-01-23T23:32:29.777Z</time>
</trkpt>
<trkpt lat="-28.2122749" lon="153.5452349">
<ele>8.184</ele>
<time>2018-01-23T23:32:30.749Z</time>
</trkpt>
<trkpt lat="-28.2123867" lon="153.5452840">
<ele>8.830</ele>
<time>2018-01-23T23:32:31.814Z</time>
</trkpt>
<trkpt lat="-28.2125657" lon="153.5453658">
<ele>9.731</ele>
<time>2018-01-23T23:32:33.158Z</time>
</trkpt>
<trkpt lat="-28.2128323" lon="153.5454521">
<ele>10.786</ele>
<time>2018-01-23T23:32:34.892Z</time>
</trkpt>
<trkpt lat="-28.2131442" lon="153.5455478">
<ele>11.890</ele>
<time>2018-01-23T23:32:36.715Z</time>
</trkpt>
<trkpt lat="-28.2135222" lon="153.5456446">
<ele>13.011</ele>
<time>2018-01-23T23:32:38.746Z</time>
</trkpt>
<trkpt lat="-28.2139514" lon="153.5457415">
<ele>14.188</ele>
<time>2018-01-23T23:32:40.994Z</time>
</trkpt>
<trkpt lat="-28.2143277" lon="153.5458036">
<ele>15.529</ele>
<time>2018-01-23T23:32:43.026Z</time>
</trkpt>
<trkpt lat="-28.2146627" lon="153.5458727">
<ele>17.270</ele>
<time>2018-01-23T23:32:44.944Z</time>
</trkpt>
<trkpt lat="-28.2149789" lon="153.5459769">
<ele>19.598</ele>
<time>2018-01-23T23:32:46.895Z</time>
</trkpt>
<trkpt lat="-28.2152572" lon="153.5460903">
<ele>22.378</ele>
<time>2018-01-23T23:32:48.710Z</time>
</trkpt>
<trkpt lat="-28.2155414" lon="153.5462090">
<ele>25.298</ele>
<time>2018-01-23T23:32:50.598Z</time>
</trkpt>
<trkpt lat="-28.2158228" lon="153.5463650">
<ele>28.140</ele>
<time>2018-01-23T23:32:52.599Z</time>
</trkpt>
<trkpt lat="-28.2160743" lon="153.5465002">
<ele>30.823</ele>
<time>2018-01-23T23:32:54.485Z</time>
</trkpt>
<trkpt lat="-28.2162970" lon="153.5466289">
<ele>33.335</ele>
<time>2018-01-23T23:32:56.315Z</time>
</trkpt>
<trkpt lat="-28.2165267" lon="153.5466985">
<ele>35.806</ele>
<time>2018-01-23T23:32:58.195Z</time>
</trkpt>
<trkpt lat="-28.2167173" lon="153.5467967">
<ele>38.037</ele>
<time>2018-01-23T23:32:59.934Z</time>
</trkpt>
<trkpt lat="-28.2169239" lon="153.5468810">
<ele>39.425</ele>
<time>2018-01-23T23:33:01.809Z</time>
</trkpt>
<trkpt lat="-28.2171539" lon="153.5469254">
<ele>41.191</ele>
<time>2018-01-23T23:33:03.722Z</time>
</trkpt>
<trkpt lat="-28.2174134" lon="153.5469418">
<ele>44.741</ele>
<time>2018-01-23T23:33:05.694Z</time>
</trkpt>
<trkpt lat="-28.2176791" lon="153.5469065">
<ele>48.455</ele>
<time>2018-01-23T23:33:07.631Z</time>
</trkpt>
<trkpt lat="-28.2179276" lon="153.5468838">
<ele>50.225</ele>
<time>2018-01-23T23:33:09.415Z</time>
</trkpt>
<trkpt lat="-28.2181868" lon="153.5468679">
<ele>50.118</ele>
<time>2018-01-23T23:33:11.211Z</time>
</trkpt>
<trkpt lat="-28.2184893" lon="153.5468078">
<ele>48.922</ele>
<time>2018-01-23T23:33:13.213Z</time>
</trkpt>
<trkpt lat="-28.2188175" lon="153.5467783">
<ele>47.320</ele>
<time>2018-01-23T23:33:15.275Z</time>
</trkpt>
<trkpt lat="-28.2191118" lon="153.5467053">
<ele>45.657</ele>
<time>2018-01-23T23:33:17.203Z</time>
</trkpt>
<trkpt lat="-28.2195357" lon="153.5466492">
<ele>44.024</ele>
<time>2018-01-23T23:33:20.054Z</time>
</trkpt>
<trkpt lat="-28.2199379" lon="153.5466859">
<ele>42.453</ele>
<time>2018-01-23T23:33:23.057Z</time>
</trkpt>
<trkpt lat="-28.2201527" lon="153.5467783">
<ele>41.103</ele>
<time>2018-01-23T23:33:25.001Z</time>
</trkpt>
<trkpt lat="-28.2201527" lon="153.5467783">
<ele>40.224</ele>
<time>2018-01-23T23:33:29.000Z</time>
</trkpt>
<trkpt lat="-28.2201527" lon="153.5467783">
<ele>39.894</ele>
<time>2018-01-23T23:34:00.727Z</time>
</trkpt>
<trkpt lat="-28.2202839" lon="153.5468156">
<ele>39.932</ele>
<time>2018-01-23T23:34:08.114Z</time>
</trkpt>
<trkpt lat="-28.2206120" lon="153.5466131">
<ele>40.074</ele>
<time>2018-01-23T23:34:12.406Z</time>
</trkpt>
<trkpt lat="-28.2209412" lon="153.5464188">
<ele>40.233</ele>
<time>2018-01-23T23:34:15.585Z</time>
</trkpt>
<trkpt lat="-28.2212586" lon="153.5463099">
<ele>40.857</ele>
<time>2018-01-23T23:34:18.233Z</time>
</trkpt>
<trkpt lat="-28.2216601" lon="153.5462683">
<ele>42.533</ele>
<time>2018-01-23T23:34:21.185Z</time>
</trkpt>
<trkpt lat="-28.2220840" lon="153.5461849">
<ele>45.069</ele>
<time>2018-01-23T23:34:24.170Z</time>
</trkpt>
<trkpt lat="-28.2225128" lon="153.5460513">
<ele>47.701</ele>
<time>2018-01-23T23:34:27.227Z</time>
</trkpt>
<trkpt lat="-28.2229150" lon="153.5458377">
<ele>50.041</ele>
<time>2018-01-23T23:34:30.325Z</time>
</trkpt>
<trkpt lat="-28.2232775" lon="153.5456278">
<ele>52.175</ele>
<time>2018-01-23T23:34:33.367Z</time>
</trkpt>
<trkpt lat="-28.2236019" lon="153.5454887">
<ele>54.241</ele>
<time>2018-01-23T23:34:36.107Z</time>
</trkpt>
<trkpt lat="-28.2239514" lon="153.5452858">
<ele>56.085</ele>
<time>2018-01-23T23:34:39.166Z</time>
</trkpt>
<trkpt lat="-28.2243064" lon="153.5451065">
<ele>57.342</ele>
<time>2018-01-23T23:34:42.101Z</time>
</trkpt>
<trkpt lat="-28.2246970" lon="153.5449490">
<ele>57.859</ele>
<time>2018-01-23T23:34:45.200Z</time>
</trkpt>
<trkpt lat="-28.2250533" lon="153.5447488">
<ele>57.860</ele>
<time>2018-01-23T23:34:48.178Z</time>
</trkpt>
<trkpt lat="-28.2252883" lon="153.5446108">
<ele>57.684</ele>
<time>2018-01-23T23:34:50.138Z</time>
</trkpt>
<trkpt lat="-28.2255244" lon="153.5444734">
<ele>57.545</ele>
<time>2018-01-23T23:34:52.080Z</time>
</trkpt>
<trkpt lat="-28.2257702" lon="153.5443506">
<ele>57.546</ele>
<time>2018-01-23T23:34:54.045Z</time>
</trkpt>
<trkpt lat="-28.2260181" lon="153.5442297">
<ele>57.735</ele>
<time>2018-01-23T23:34:56.012Z</time>
</trkpt>
<trkpt lat="-28.2262514" lon="153.5441211">
<ele>58.030</ele>
<time>2018-01-23T23:34:57.770Z</time>
</trkpt>
<trkpt lat="-28.2265366" lon="153.5439347">
<ele>58.202</ele>
<time>2018-01-23T23:34:59.957Z</time>
</trkpt>
<trkpt lat="-28.2268226" lon="153.5437885">
<ele>58.023</ele>
<time>2018-01-23T23:35:02.003Z</time>
</trkpt>
<trkpt lat="-28.2270802" lon="153.5436234">
<ele>57.386</ele>
<time>2018-01-23T23:35:03.972Z</time>
</trkpt>
<trkpt lat="-28.2273463" lon="153.5435338">
<ele>56.330</ele>
<time>2018-01-23T23:35:05.891Z</time>
</trkpt>
<trkpt lat="-28.2276076" lon="153.5434290">
<ele>55.067</ele>
<time>2018-01-23T23:35:07.859Z</time>
</trkpt>
<trkpt lat="-28.2278450" lon="153.5433008">
<ele>53.853</ele>
<time>2018-01-23T23:35:09.780Z</time>
</trkpt>
<trkpt lat="-28.2280771" lon="153.5431885">
<ele>52.803</ele>
<time>2018-01-23T23:35:11.668Z</time>
</trkpt>
<trkpt lat="-28.2283221" lon="153.5430621">
<ele>51.917</ele>
<time>2018-01-23T23:35:13.693Z</time>
</trkpt>
<trkpt lat="-28.2285677" lon="153.5429421">
<ele>51.214</ele>
<time>2018-01-23T23:35:15.714Z</time>
</trkpt>
<trkpt lat="-28.2288054" lon="153.5428022">
<ele>50.668</ele>
<time>2018-01-23T23:35:17.706Z</time>
</trkpt>
<trkpt lat="-28.2290475" lon="153.5426497">
<ele>50.219</ele>
<time>2018-01-23T23:35:19.697Z</time>
</trkpt>
<trkpt lat="-28.2293013" lon="153.5425155">
<ele>49.816</ele>
<time>2018-01-23T23:35:21.681Z</time>
</trkpt>
<trkpt lat="-28.2295414" lon="153.5423759">
<ele>49.442</ele>
<time>2018-01-23T23:35:23.590Z</time>
</trkpt>
<trkpt lat="-28.2298098" lon="153.5422625">
<ele>49.158</ele>
<time>2018-01-23T23:35:25.610Z</time>
</trkpt>
<trkpt lat="-28.2300573" lon="153.5421289">
<ele>49.028</ele>
<time>2018-01-23T23:35:27.537Z</time>
</trkpt>
<trkpt lat="-28.2302911" lon="153.5419888">
<ele>49.099</ele>
<time>2018-01-23T23:35:29.454Z</time>
</trkpt>
<trkpt lat="-28.2305122" lon="153.5418807">
<ele>49.619</ele>
<time>2018-01-23T23:35:31.297Z</time>
</trkpt>
<trkpt lat="-28.2308646" lon="153.5416852">
<ele>50.855</ele>
<time>2018-01-23T23:35:34.361Z</time>
</trkpt>
<trkpt lat="-28.2311484" lon="153.5413868">
<ele>52.595</ele>
<time>2018-01-23T23:35:37.367Z</time>
</trkpt>
<trkpt lat="-28.2314388" lon="153.5411116">
<ele>54.269</ele>
<time>2018-01-23T23:35:40.293Z</time>
</trkpt>
<trkpt lat="-28.2317833" lon="153.5408776">
<ele>55.475</ele>
<time>2018-01-23T23:35:43.406Z</time>
</trkpt>
<trkpt lat="-28.2321153" lon="153.5406502">
<ele>56.106</ele>
<time>2018-01-23T23:35:46.411Z</time>
</trkpt>
<trkpt lat="-28.2323952" lon="153.5403772">
<ele>56.147</ele>
<time>2018-01-23T23:35:49.213Z</time>
</trkpt>
<trkpt lat="-28.2327248" lon="153.5400522">
<ele>55.462</ele>
<time>2018-01-23T23:35:52.333Z</time>
</trkpt>
<trkpt lat="-28.2328595" lon="153.5395688">
<ele>53.725</ele>
<time>2018-01-23T23:35:55.271Z</time>
</trkpt>
<trkpt lat="-28.2327647" lon="153.5389663">
<ele>50.680</ele>
<time>2018-01-23T23:35:58.387Z</time>
</trkpt>
<trkpt lat="-28.2328710" lon="153.5382926">
<ele>47.146</ele>
<time>2018-01-23T23:36:01.496Z</time>
</trkpt>
<trkpt lat="-28.2329086" lon="153.5376661">
<ele>44.972</ele>
<time>2018-01-23T23:36:04.399Z</time>
</trkpt>
<trkpt lat="-28.2328261" lon="153.5370942">
<ele>45.453</ele>
<time>2018-01-23T23:36:07.298Z</time>
</trkpt>
<trkpt lat="-28.2330307" lon="153.5367833">
<ele>48.778</ele>
<time>2018-01-23T23:36:09.279Z</time>
</trkpt>
<trkpt lat="-28.2332827" lon="153.5364521">
<ele>53.497</ele>
<time>2018-01-23T23:36:11.449Z</time>
</trkpt>
<trkpt lat="-28.2333495" lon="153.5360579">
<ele>57.217</ele>
<time>2018-01-23T23:36:13.469Z</time>
</trkpt>
<trkpt lat="-28.2334246" lon="153.5356797">
<ele>60.119</ele>
<time>2018-01-23T23:36:15.450Z</time>
</trkpt>
<trkpt lat="-28.2336574" lon="153.5353352">
<ele>63.540</ele>
<time>2018-01-23T23:36:17.617Z</time>
</trkpt>
<trkpt lat="-28.2338809" lon="153.5350442">
<ele>66.655</ele>
<time>2018-01-23T23:36:19.562Z</time>
</trkpt>
<trkpt lat="-28.2341328" lon="153.5347554">
<ele>68.364</ele>
<time>2018-01-23T23:36:21.765Z</time>
</trkpt>
<trkpt lat="-28.2342228" lon="153.5344603">
<ele>69.179</ele>
<time>2018-01-23T23:36:23.650Z</time>
</trkpt>
<trkpt lat="-28.2342560" lon="153.5341652">
<ele>69.864</ele>
<time>2018-01-23T23:36:25.506Z</time>
</trkpt>
<trkpt lat="-28.2342736" lon="153.5338452">
<ele>70.542</ele>
<time>2018-01-23T23:36:27.485Z</time>
</trkpt>
<trkpt lat="-28.2342993" lon="153.5335051">
<ele>70.705</ele>
<time>2018-01-23T23:36:29.580Z</time>
</trkpt>
<trkpt lat="-28.2343100" lon="153.5331916">
<ele>70.158</ele>
<time>2018-01-23T23:36:31.516Z</time>
</trkpt>
<trkpt lat="-28.2342371" lon="153.5328777">
<ele>69.361</ele>
<time>2018-01-23T23:36:33.538Z</time>
</trkpt>
<trkpt lat="-28.2341331" lon="153.5325884">
<ele>68.901</ele>
<time>2018-01-23T23:36:35.512Z</time>
</trkpt>
<trkpt lat="-28.2340277" lon="153.5323230">
<ele>68.929</ele>
<time>2018-01-23T23:36:37.373Z</time>
</trkpt>
<trkpt lat="-28.2338724" lon="153.5320525">
<ele>69.374</ele>
<time>2018-01-23T23:36:39.445Z</time>
</trkpt>
<trkpt lat="-28.2336677" lon="153.5318372">
<ele>70.209</ele>
<time>2018-01-23T23:36:41.440Z</time>
</trkpt>
<trkpt lat="-28.2333852" lon="153.5317218">
<ele>71.390</ele>
<time>2018-01-23T23:36:43.521Z</time>
</trkpt>
<trkpt lat="-28.2330943" lon="153.5316677">
<ele>72.800</ele>
<time>2018-01-23T23:36:45.557Z</time>
</trkpt>
<trkpt lat="-28.2328127" lon="153.5316375">
<ele>74.320</ele>
<time>2018-01-23T23:36:47.552Z</time>
</trkpt>
<trkpt lat="-28.2325421" lon="153.5316468">
<ele>75.849</ele>
<time>2018-01-23T23:36:49.506Z</time>
</trkpt>
<trkpt lat="-28.2322838" lon="153.5316351">
<ele>77.317</ele>
<time>2018-01-23T23:36:51.431Z</time>
</trkpt>
<trkpt lat="-28.2320477" lon="153.5315784">
<ele>78.667</ele>
<time>2018-01-23T23:36:53.297Z</time>
</trkpt>
<trkpt lat="-28.2318076" lon="153.5314988">
<ele>79.851</ele>
<time>2018-01-23T23:36:55.279Z</time>
</trkpt>
<trkpt lat="-28.2316194" lon="153.5312876">
<ele>80.876</ele>
<time>2018-01-23T23:36:57.398Z</time>
</trkpt>
<trkpt lat="-28.2315127" lon="153.5310182">
<ele>81.776</ele>
<time>2018-01-23T23:36:59.483Z</time>
</trkpt>
<trkpt lat="-28.2315016" lon="153.5307176">
<ele>82.522</ele>
<time>2018-01-23T23:37:01.449Z</time>
</trkpt>
<trkpt lat="-28.2315546" lon="153.5303816">
<ele>83.023</ele>
<time>2018-01-23T23:37:03.491Z</time>
</trkpt>
<trkpt lat="-28.2316211" lon="153.5300351">
<ele>83.315</ele>
<time>2018-01-23T23:37:05.577Z</time>
</trkpt>
<trkpt lat="-28.2316929" lon="153.5297188">
<ele>83.518</ele>
<time>2018-01-23T23:37:07.539Z</time>
</trkpt>
<trkpt lat="-28.2318449" lon="153.5294308">
<ele>83.749</ele>
<time>2018-01-23T23:37:09.603Z</time>
</trkpt>
<trkpt lat="-28.2320194" lon="153.5291955">
<ele>84.174</ele>
<time>2018-01-23T23:37:11.552Z</time>
</trkpt>
<trkpt lat="-28.2321794" lon="153.5289656">
<ele>84.815</ele>
<time>2018-01-23T23:37:13.477Z</time>
</trkpt>
<trkpt lat="-28.2323107" lon="153.5287146">
<ele>85.431</ele>
<time>2018-01-23T23:37:15.441Z</time>
</trkpt>
<trkpt lat="-28.2324322" lon="153.5284652">
<ele>85.817</ele>
<time>2018-01-23T23:37:17.380Z</time>
</trkpt>
<trkpt lat="-28.2325674" lon="153.5282266">
<ele>86.002</ele>
<time>2018-01-23T23:37:19.340Z</time>
</trkpt>
<trkpt lat="-28.2327002" lon="153.5280061">
<ele>86.160</ele>
<time>2018-01-23T23:37:21.268Z</time>
</trkpt>
<trkpt lat="-28.2328491" lon="153.5277917">
<ele>86.548</ele>
<time>2018-01-23T23:37:23.365Z</time>
</trkpt>
<trkpt lat="-28.2329948" lon="153.5276171">
<ele>87.256</ele>
<time>2018-01-23T23:37:25.288Z</time>
</trkpt>
<trkpt lat="-28.2331426" lon="153.5274359">
<ele>87.988</ele>
<time>2018-01-23T23:37:27.277Z</time>
</trkpt>
<trkpt lat="-28.2332829" lon="153.5272294">
<ele>88.580</ele>
<time>2018-01-23T23:37:29.268Z</time>
</trkpt>
<trkpt lat="-28.2333170" lon="153.5269301">
<ele>89.301</ele>
<time>2018-01-23T23:37:31.391Z</time>
</trkpt>
<trkpt lat="-28.2333099" lon="153.5266218">
<ele>90.359</ele>
<time>2018-01-23T23:37:33.489Z</time>
</trkpt>
<trkpt lat="-28.2332206" lon="153.5263322">
<ele>91.687</ele>
<time>2018-01-23T23:37:35.551Z</time>
</trkpt>
<trkpt lat="-28.2330985" lon="153.5260667">
<ele>93.075</ele>
<time>2018-01-23T23:37:37.591Z</time>
</trkpt>
<trkpt lat="-28.2329976" lon="153.5258147">
<ele>94.249</ele>
<time>2018-01-23T23:37:39.557Z</time>
</trkpt>
<trkpt lat="-28.2329789" lon="153.5255683">
<ele>95.023</ele>
<time>2018-01-23T23:37:41.330Z</time>
</trkpt>
<trkpt lat="-28.2330229" lon="153.5252784">
<ele>95.478</ele>
<time>2018-01-23T23:37:43.386Z</time>
</trkpt>
<trkpt lat="-28.2330862" lon="153.5250027">
<ele>95.976</ele>
<time>2018-01-23T23:37:45.326Z</time>
</trkpt>
<trkpt lat="-28.2332042" lon="153.5247073">
<ele>96.943</ele>
<time>2018-01-23T23:37:47.504Z</time>
</trkpt>
<trkpt lat="-28.2332969" lon="153.5244335">
<ele>98.617</ele>
<time>2018-01-23T23:37:49.449Z</time>
</trkpt>
<trkpt lat="-28.2334017" lon="153.5241425">
<ele>101.014</ele>
<time>2018-01-23T23:37:51.502Z</time>
</trkpt>
<trkpt lat="-28.2335214" lon="153.5238719">
<ele>103.948</ele>
<time>2018-01-23T23:37:53.446Z</time>
</trkpt>
<trkpt lat="-28.2336843" lon="153.5235919">
<ele>106.873</ele>
<time>2018-01-23T23:37:55.542Z</time>
</trkpt>
<trkpt lat="-28.2339184" lon="153.5234011">
<ele>109.094</ele>
<time>2018-01-23T23:37:57.505Z</time>
</trkpt>
<trkpt lat="-28.2341963" lon="153.5232027">
<ele>110.392</ele>
<time>2018-01-23T23:37:59.682Z</time>
</trkpt>
<trkpt lat="-28.2344511" lon="153.5230175">
<ele>111.156</ele>
<time>2018-01-23T23:38:01.687Z</time>
</trkpt>
<trkpt lat="-28.2347223" lon="153.5228567">
<ele>111.735</ele>
<time>2018-01-23T23:38:03.747Z</time>
</trkpt>
<trkpt lat="-28.2349915" lon="153.5227445">
<ele>111.893</ele>
<time>2018-01-23T23:38:05.767Z</time>
</trkpt>
<trkpt lat="-28.2352274" lon="153.5226118">
<ele>111.065</ele>
<time>2018-01-23T23:38:07.694Z</time>
</trkpt>
<trkpt lat="-28.2354657" lon="153.5224117">
<ele>109.121</ele>
<time>2018-01-23T23:38:09.769Z</time>
</trkpt>
<trkpt lat="-28.2357041" lon="153.5219408">
<ele>106.540</ele>
<time>2018-01-23T23:38:12.979Z</time>
</trkpt>
<trkpt lat="-28.2358089" lon="153.5214325">
<ele>104.031</ele>
<time>2018-01-23T23:38:16.067Z</time>
</trkpt>
<trkpt lat="-28.2358863" lon="153.5209870">
<ele>102.239</ele>
<time>2018-01-23T23:38:18.858Z</time>
</trkpt>
<trkpt lat="-28.2359292" lon="153.5205113">
<ele>101.879</ele>
<time>2018-01-23T23:38:21.837Z</time>
</trkpt>
<trkpt lat="-28.2359984" lon="153.5200306">
<ele>103.453</ele>
<time>2018-01-23T23:38:24.865Z</time>
</trkpt>
<trkpt lat="-28.2360632" lon="153.5195586">
<ele>106.688</ele>
<time>2018-01-23T23:38:27.829Z</time>
</trkpt>
<trkpt lat="-28.2361151" lon="153.5190742">
<ele>110.612</ele>
<time>2018-01-23T23:38:30.885Z</time>
</trkpt>
<trkpt lat="-28.2361166" lon="153.5185894">
<ele>114.309</ele>
<time>2018-01-23T23:38:33.946Z</time>
</trkpt>
<trkpt lat="-28.2360489" lon="153.5181242">
<ele>118.659</ele>
<time>2018-01-23T23:38:36.928Z</time>
</trkpt>
<trkpt lat="-28.2360691" lon="153.5176475">
<ele>124.571</ele>
<time>2018-01-23T23:38:39.981Z</time>
</trkpt>
<trkpt lat="-28.2361773" lon="153.5172141">
<ele>130.040</ele>
<time>2018-01-23T23:38:42.879Z</time>
</trkpt>
<trkpt lat="-28.2362488" lon="153.5167606">
<ele>132.519</ele>
<time>2018-01-23T23:38:45.841Z</time>
</trkpt>
<trkpt lat="-28.2363531" lon="153.5163202">
<ele>132.265</ele>
<time>2018-01-23T23:38:48.725Z</time>
</trkpt>
<trkpt lat="-28.2365300" lon="153.5158792">
<ele>131.066</ele>
<time>2018-01-23T23:38:51.705Z</time>
</trkpt>
<trkpt lat="-28.2368127" lon="153.5155084">
<ele>130.489</ele>
<time>2018-01-23T23:38:54.613Z</time>
</trkpt>
<trkpt lat="-28.2371559" lon="153.5151891">
<ele>130.865</ele>
<time>2018-01-23T23:38:57.493Z</time>
</trkpt>
<trkpt lat="-28.2375130" lon="153.5148406">
<ele>131.321</ele>
<time>2018-01-23T23:39:00.558Z</time>
</trkpt>
<trkpt lat="-28.2378263" lon="153.5145224">
<ele>130.826</ele>
<time>2018-01-23T23:39:03.480Z</time>
</trkpt>
<trkpt lat="-28.2379868" lon="153.5143327">
<ele>129.556</ele>
<time>2018-01-23T23:39:05.279Z</time>
</trkpt>
<trkpt lat="-28.2381630" lon="153.5141272">
<ele>128.478</ele>
<time>2018-01-23T23:39:07.321Z</time>
</trkpt>
<trkpt lat="-28.2383248" lon="153.5139280">
<ele>128.227</ele>
<time>2018-01-23T23:39:09.250Z</time>
</trkpt>
<trkpt lat="-28.2385058" lon="153.5136997">
<ele>128.859</ele>
<time>2018-01-23T23:39:11.363Z</time>
</trkpt>
<trkpt lat="-28.2386850" lon="153.5134664">
<ele>130.098</ele>
<time>2018-01-23T23:39:13.372Z</time>
</trkpt>
<trkpt lat="-28.2389075" lon="153.5132516">
<ele>131.523</ele>
<time>2018-01-23T23:39:15.463Z</time>
</trkpt>
<trkpt lat="-28.2391018" lon="153.5130655">
<ele>132.842</ele>
<time>2018-01-23T23:39:17.281Z</time>
</trkpt>
<trkpt lat="-28.2393347" lon="153.5128813">
<ele>134.710</ele>
<time>2018-01-23T23:39:19.305Z</time>
</trkpt>
<trkpt lat="-28.2395855" lon="153.5127144">
<ele>137.632</ele>
<time>2018-01-23T23:39:21.377Z</time>
</trkpt>
<trkpt lat="-28.2398448" lon="153.5125812">
<ele>140.419</ele>
<time>2018-01-23T23:39:23.416Z</time>
</trkpt>
<trkpt lat="-28.2400925" lon="153.5125062">
<ele>141.698</ele>
<time>2018-01-23T23:39:25.218Z</time>
</trkpt>
<trkpt lat="-28.2403945" lon="153.5124228">
<ele>141.385</ele>
<time>2018-01-23T23:39:27.306Z</time>
</trkpt>
<trkpt lat="-28.2407018" lon="153.5123473">
<ele>140.084</ele>
<time>2018-01-23T23:39:29.329Z</time>
</trkpt>
<trkpt lat="-28.2410232" lon="153.5122424">
<ele>138.712</ele>
<time>2018-01-23T23:39:31.426Z</time>
</trkpt>
<trkpt lat="-28.2413155" lon="153.5120947">
<ele>137.874</ele>
<time>2018-01-23T23:39:33.358Z</time>
</trkpt>
<trkpt lat="-28.2415747" lon="153.5117968">
<ele>137.782</ele>
<time>2018-01-23T23:39:35.509Z</time>
</trkpt>
<trkpt lat="-28.2417766" lon="153.5114620">
<ele>138.551</ele>
<time>2018-01-23T23:39:37.607Z</time>
</trkpt>
<trkpt lat="-28.2419826" lon="153.5111596">
<ele>139.919</ele>
<time>2018-01-23T23:39:39.663Z</time>
</trkpt>
<trkpt lat="-28.2420950" lon="153.5108419">
<ele>141.272</ele>
<time>2018-01-23T23:39:41.530Z</time>
</trkpt>
<trkpt lat="-28.2419986" lon="153.5104664">
<ele>142.168</ele>
<time>2018-01-23T23:39:43.586Z</time>
</trkpt>
<trkpt lat="-28.2418716" lon="153.5100859">
<ele>142.580</ele>
<time>2018-01-23T23:39:45.644Z</time>
</trkpt>
<trkpt lat="-28.2417655" lon="153.5097113">
<ele>142.819</ele>
<time>2018-01-23T23:39:47.649Z</time>
</trkpt>
<trkpt lat="-28.2416803" lon="153.5093534">
<ele>143.216</ele>
<time>2018-01-23T23:39:49.595Z</time>
</trkpt>
<trkpt lat="-28.2415292" lon="153.5090260">
<ele>143.937</ele>
<time>2018-01-23T23:39:51.575Z</time>
</trkpt>
<trkpt lat="-28.2412941" lon="153.5087257">
<ele>144.890</ele>
<time>2018-01-23T23:39:53.771Z</time>
</trkpt>
<trkpt lat="-28.2410517" lon="153.5084991">
<ele>145.766</ele>
<time>2018-01-23T23:39:55.775Z</time>
</trkpt>
<trkpt lat="-28.2408217" lon="153.5082597">
<ele>146.329</ele>
<time>2018-01-23T23:39:57.796Z</time>
</trkpt>
<trkpt lat="-28.2405769" lon="153.5080333">
<ele>146.567</ele>
<time>2018-01-23T23:39:59.835Z</time>
</trkpt>
<trkpt lat="-28.2403587" lon="153.5078020">
<ele>146.174</ele>
<time>2018-01-23T23:40:01.749Z</time>
</trkpt>
<trkpt lat="-28.2402219" lon="153.5074940">
<ele>144.651</ele>
<time>2018-01-23T23:40:03.692Z</time>
</trkpt>
<trkpt lat="-28.2401846" lon="153.5071242">
<ele>142.148</ele>
<time>2018-01-23T23:40:05.775Z</time>
</trkpt>
<trkpt lat="-28.2402292" lon="153.5067484">
<ele>139.541</ele>
<time>2018-01-23T23:40:07.883Z</time>
</trkpt>
<trkpt lat="-28.2402779" lon="153.5063902">
<ele>137.503</ele>
<time>2018-01-23T23:40:09.888Z</time>
</trkpt>
<trkpt lat="-28.2403322" lon="153.5060174">
<ele>135.950</ele>
<time>2018-01-23T23:40:11.996Z</time>
</trkpt>
<trkpt lat="-28.2403851" lon="153.5056722">
<ele>134.517</ele>
<time>2018-01-23T23:40:13.990Z</time>
</trkpt>
<trkpt lat="-28.2404489" lon="153.5053093">
<ele>133.300</ele>
<time>2018-01-23T23:40:16.152Z</time>
</trkpt>
<trkpt lat="-28.2404852" lon="153.5049817">
<ele>132.602</ele>
<time>2018-01-23T23:40:18.158Z</time>
</trkpt>
<trkpt lat="-28.2404775" lon="153.5046760">
<ele>132.331</ele>
<time>2018-01-23T23:40:20.102Z</time>
</trkpt>
<trkpt lat="-28.2404401" lon="153.5043913">
<ele>132.120</ele>
<time>2018-01-23T23:40:21.997Z</time>
</trkpt>
<trkpt lat="-28.2403409" lon="153.5041312">
<ele>131.733</ele>
<time>2018-01-23T23:40:23.999Z</time>
</trkpt>
<trkpt lat="-28.2403399" lon="153.5038742">
<ele>131.252</ele>
<time>2018-01-23T23:40:25.965Z</time>
</trkpt>
<trkpt lat="-28.2404063" lon="153.5036209">
<ele>130.787</ele>
<time>2018-01-23T23:40:28.021Z</time>
</trkpt>
<trkpt lat="-28.2404972" lon="153.5033733">
<ele>130.245</ele>
<time>2018-01-23T23:40:30.108Z</time>
</trkpt>
<trkpt lat="-28.2405760" lon="153.5031314">
<ele>129.522</ele>
<time>2018-01-23T23:40:32.045Z</time>
</trkpt>
<trkpt lat="-28.2406727" lon="153.5028847">
<ele>128.674</ele>
<time>2018-01-23T23:40:33.942Z</time>
</trkpt>
<trkpt lat="-28.2407547" lon="153.5025932">
<ele>127.813</ele>
<time>2018-01-23T23:40:36.032Z</time>
</trkpt>
<trkpt lat="-28.2407713" lon="153.5023001">
<ele>127.062</ele>
<time>2018-01-23T23:40:38.030Z</time>
</trkpt>
<trkpt lat="-28.2407764" lon="153.5019967">
<ele>126.415</ele>
<time>2018-01-23T23:40:40.055Z</time>
</trkpt>
<trkpt lat="-28.2407663" lon="153.5017023">
<ele>125.644</ele>
<time>2018-01-23T23:40:41.983Z</time>
</trkpt>
<trkpt lat="-28.2407089" lon="153.5013879">
<ele>124.573</ele>
<time>2018-01-23T23:40:44.110Z</time>
</trkpt>
<trkpt lat="-28.2406235" lon="153.5011058">
<ele>123.335</ele>
<time>2018-01-23T23:40:46.200Z</time>
</trkpt>
<trkpt lat="-28.2406056" lon="153.5008415">
<ele>122.161</ele>
<time>2018-01-23T23:40:48.264Z</time>
</trkpt>
<trkpt lat="-28.2406245" lon="153.5006020">
<ele>121.218</ele>
<time>2018-01-23T23:40:50.642Z</time>
</trkpt>
<trkpt lat="-28.2406475" lon="153.5004772">
<ele>120.628</ele>
<time>2018-01-23T23:40:52.412Z</time>
</trkpt>
<trkpt lat="-28.2406400" lon="153.5003633">
<ele>120.416</ele>
<time>2018-01-23T23:40:53.999Z</time>
</trkpt>
<trkpt lat="-28.2406400" lon="153.5003633">
<ele>120.442</ele>
<time>2018-01-23T23:40:59.003Z</time>
</trkpt>
<trkpt lat="-28.2406400" lon="153.5003633">
<ele>120.491</ele>
<time>2018-01-23T23:43:01.337Z</time>
</trkpt>
<trkpt lat="-28.2406404" lon="153.5001540">
<ele>120.446</ele>
<time>2018-01-23T23:43:07.895Z</time>
</trkpt>
<trkpt lat="-28.2406544" lon="153.5000288">
<ele>120.551</ele>
<time>2018-01-23T23:43:09.914Z</time>
</trkpt>
<trkpt lat="-28.2406712" lon="153.4999004">
<ele>121.002</ele>
<time>2018-01-23T23:43:11.885Z</time>
</trkpt>
<trkpt lat="-28.2407062" lon="153.4997800">
<ele>121.476</ele>
<time>2018-01-23T23:43:13.695Z</time>
</trkpt>
<trkpt lat="-28.2407466" lon="153.4996512">
<ele>121.617</ele>
<time>2018-01-23T23:43:15.511Z</time>
</trkpt>
<trkpt lat="-28.2408002" lon="153.4995107">
<ele>121.470</ele>
<time>2018-01-23T23:43:17.503Z</time>
</trkpt>
<trkpt lat="-28.2408553" lon="153.4993746">
<ele>121.226</ele>
<time>2018-01-23T23:43:19.605Z</time>
</trkpt>
<trkpt lat="-28.2408955" lon="153.4992710">
<ele>121.031</ele>
<time>2018-01-23T23:43:21.543Z</time>
</trkpt>
<trkpt lat="-28.2409407" lon="153.4991473">
<ele>120.946</ele>
<time>2018-01-23T23:43:24.073Z</time>
</trkpt>
<trkpt lat="-28.2409803" lon="153.4990123">
<ele>121.028</ele>
<time>2018-01-23T23:43:26.866Z</time>
</trkpt>
<trkpt lat="-28.2410015" lon="153.4988966">
<ele>121.266</ele>
<time>2018-01-23T23:43:28.953Z</time>
</trkpt>
<trkpt lat="-28.2410217" lon="153.4987794">
<ele>121.494</ele>
<time>2018-01-23T23:43:30.961Z</time>
</trkpt>
<trkpt lat="-28.2410339" lon="153.4986572">
<ele>121.562</ele>
<time>2018-01-23T23:43:32.948Z</time>
</trkpt>
<trkpt lat="-28.2410417" lon="153.4985215">
<ele>121.428</ele>
<time>2018-01-23T23:43:35.022Z</time>
</trkpt>
<trkpt lat="-28.2410359" lon="153.4983884">
<ele>121.091</ele>
<time>2018-01-23T23:43:37.006Z</time>
</trkpt>
<trkpt lat="-28.2410268" lon="153.4982631">
<ele>120.682</ele>
<time>2018-01-23T23:43:38.899Z</time>
</trkpt>
<trkpt lat="-28.2410088" lon="153.4981392">
<ele>120.540</ele>
<time>2018-01-23T23:43:40.783Z</time>
</trkpt>
<trkpt lat="-28.2409851" lon="153.4980055">
<ele>120.957</ele>
<time>2018-01-23T23:43:42.764Z</time>
</trkpt>
<trkpt lat="-28.2409577" lon="153.4978663">
<ele>121.810</ele>
<time>2018-01-23T23:43:44.783Z</time>
</trkpt>
<trkpt lat="-28.2409318" lon="153.4977338">
<ele>122.676</ele>
<time>2018-01-23T23:43:46.738Z</time>
</trkpt>
<trkpt lat="-28.2408970" lon="153.4975461">
<ele>123.246</ele>
<time>2018-01-23T23:43:49.592Z</time>
</trkpt>
<trkpt lat="-28.2408715" lon="153.4974217">
<ele>123.443</ele>
<time>2018-01-23T23:43:51.512Z</time>
</trkpt>
<trkpt lat="-28.2408437" lon="153.4972800">
<ele>123.323</ele>
<time>2018-01-23T23:43:53.575Z</time>
</trkpt>
<trkpt lat="-28.2408222" lon="153.4971130">
<ele>123.032</ele>
<time>2018-01-23T23:43:55.681Z</time>
</trkpt>
<trkpt lat="-28.2408100" lon="153.4969132">
<ele>122.773</ele>
<time>2018-01-23T23:43:57.782Z</time>
</trkpt>
<trkpt lat="-28.2408246" lon="153.4966792">
<ele>122.654</ele>
<time>2018-01-23T23:43:59.886Z</time>
</trkpt>
<trkpt lat="-28.2408723" lon="153.4964332">
<ele>122.646</ele>
<time>2018-01-23T23:44:01.942Z</time>
</trkpt>
<trkpt lat="-28.2409333" lon="153.4961868">
<ele>122.676</ele>
<time>2018-01-23T23:44:03.956Z</time>
</trkpt>
<trkpt lat="-28.2409900" lon="153.4959486">
<ele>122.684</ele>
<time>2018-01-23T23:44:05.891Z</time>
</trkpt>
<trkpt lat="-28.2410457" lon="153.4957041">
<ele>122.625</ele>
<time>2018-01-23T23:44:07.901Z</time>
</trkpt>
<trkpt lat="-28.2410785" lon="153.4954650">
<ele>122.477</ele>
<time>2018-01-23T23:44:09.880Z</time>
</trkpt>
<trkpt lat="-28.2410828" lon="153.4952364">
<ele>122.214</ele>
<time>2018-01-23T23:44:11.805Z</time>
</trkpt>
<trkpt lat="-28.2410828" lon="153.4950128">
<ele>121.824</ele>
<time>2018-01-23T23:44:13.734Z</time>
</trkpt>
<trkpt lat="-28.2410800" lon="153.4947919">
<ele>121.349</ele>
<time>2018-01-23T23:44:15.679Z</time>
</trkpt>
<trkpt lat="-28.2410853" lon="153.4945704">
<ele>120.846</ele>
<time>2018-01-23T23:44:17.644Z</time>
</trkpt>
<trkpt lat="-28.2410819" lon="153.4943425">
<ele>120.378</ele>
<time>2018-01-23T23:44:19.627Z</time>
</trkpt>
<trkpt lat="-28.2410728" lon="153.4941026">
<ele>120.026</ele>
<time>2018-01-23T23:44:21.650Z</time>
</trkpt>
<trkpt lat="-28.2410647" lon="153.4938654">
<ele>119.833</ele>
<time>2018-01-23T23:44:23.616Z</time>
</trkpt>
<trkpt lat="-28.2410629" lon="153.4936238">
<ele>119.751</ele>
<time>2018-01-23T23:44:25.594Z</time>
</trkpt>
<trkpt lat="-28.2410591" lon="153.4933732">
<ele>119.688</ele>
<time>2018-01-23T23:44:27.601Z</time>
</trkpt>
<trkpt lat="-28.2410604" lon="153.4931234">
<ele>119.571</ele>
<time>2018-01-23T23:44:29.578Z</time>
</trkpt>
<trkpt lat="-28.2410899" lon="153.4928779">
<ele>119.368</ele>
<time>2018-01-23T23:44:31.556Z</time>
</trkpt>
<trkpt lat="-28.2411940" lon="153.4926412">
<ele>119.098</ele>
<time>2018-01-23T23:44:33.637Z</time>
</trkpt>
<trkpt lat="-28.2413592" lon="153.4924186">
<ele>118.835</ele>
<time>2018-01-23T23:44:35.792Z</time>
</trkpt>
<trkpt lat="-28.2415848" lon="153.4922750">
<ele>118.547</ele>
<time>2018-01-23T23:44:37.828Z</time>
</trkpt>
<trkpt lat="-28.2418520" lon="153.4921752">
<ele>118.060</ele>
<time>2018-01-23T23:44:39.906Z</time>
</trkpt>
<trkpt lat="-28.2421160" lon="153.4920695">
<ele>117.322</ele>
<time>2018-01-23T23:44:41.883Z</time>
</trkpt>
<trkpt lat="-28.2423964" lon="153.4919769">
<ele>116.441</ele>
<time>2018-01-23T23:44:43.879Z</time>
</trkpt>
<trkpt lat="-28.2426813" lon="153.4918761">
<ele>115.531</ele>
<time>2018-01-23T23:44:45.872Z</time>
</trkpt>
<trkpt lat="-28.2429611" lon="153.4917722">
<ele>114.659</ele>
<time>2018-01-23T23:44:47.835Z</time>
</trkpt>
<trkpt lat="-28.2432307" lon="153.4916623">
<ele>113.868</ele>
<time>2018-01-23T23:44:49.767Z</time>
</trkpt>
<trkpt lat="-28.2434945" lon="153.4915298">
<ele>113.202</ele>
<time>2018-01-23T23:44:51.737Z</time>
</trkpt>
<trkpt lat="-28.2437420" lon="153.4913795">
<ele>112.691</ele>
<time>2018-01-23T23:44:53.706Z</time>
</trkpt>
<trkpt lat="-28.2439635" lon="153.4912333">
<ele>112.325</ele>
<time>2018-01-23T23:44:55.617Z</time>
</trkpt>
<trkpt lat="-28.2441598" lon="153.4910969">
<ele>112.057</ele>
<time>2018-01-23T23:44:57.491Z</time>
</trkpt>
<trkpt lat="-28.2443285" lon="153.4909759">
<ele>111.810</ele>
<time>2018-01-23T23:44:59.318Z</time>
</trkpt>
<trkpt lat="-28.2444552" lon="153.4908831">
<ele>111.538</ele>
<time>2018-01-23T23:45:00.906Z</time>
</trkpt>
<trkpt lat="-28.2445299" lon="153.4908043">
<ele>111.246</ele>
<time>2018-01-23T23:45:02.311Z</time>
</trkpt>
<trkpt lat="-28.2444915" lon="153.4906713">
<ele>110.952</ele>
<time>2018-01-23T23:45:04.548Z</time>
</trkpt>
<trkpt lat="-28.2443873" lon="153.4905847">
<ele>110.664</ele>
<time>2018-01-23T23:45:07.142Z</time>
</trkpt>
<trkpt lat="-28.2442418" lon="153.4904997">
<ele>110.413</ele>
<time>2018-01-23T23:45:09.733Z</time>
</trkpt>
<trkpt lat="-28.2440198" lon="153.4904855">
<ele>110.257</ele>
<time>2018-01-23T23:45:12.148Z</time>
</trkpt>
<trkpt lat="-28.2437520" lon="153.4905387">
<ele>110.166</ele>
<time>2018-01-23T23:45:14.335Z</time>
</trkpt>
<trkpt lat="-28.2434464" lon="153.4906209">
<ele>110.010</ele>
<time>2018-01-23T23:45:16.478Z</time>
</trkpt>
<trkpt lat="-28.2431227" lon="153.4907210">
<ele>109.748</ele>
<time>2018-01-23T23:45:18.586Z</time>
</trkpt>
<trkpt lat="-28.2427852" lon="153.4908544">
<ele>109.344</ele>
<time>2018-01-23T23:45:20.790Z</time>
</trkpt>
<trkpt lat="-28.2424220" lon="153.4909709">
<ele>108.502</ele>
<time>2018-01-23T23:45:23.094Z</time>
</trkpt>
<trkpt lat="-28.2421096" lon="153.4909842">
<ele>106.933</ele>
<time>2018-01-23T23:45:24.958Z</time>
</trkpt>
<trkpt lat="-28.2417391" lon="153.4908454">
<ele>104.725</ele>
<time>2018-01-23T23:45:27.167Z</time>
</trkpt>
<trkpt lat="-28.2413909" lon="153.4906586">
<ele>102.088</ele>
<time>2018-01-23T23:45:29.264Z</time>
</trkpt>
<trkpt lat="-28.2410454" lon="153.4904711">
<ele>99.156</ele>
<time>2018-01-23T23:45:31.332Z</time>
</trkpt>
<trkpt lat="-28.2407110" lon="153.4903032">
<ele>96.076</ele>
<time>2018-01-23T23:45:33.297Z</time>
</trkpt>
<trkpt lat="-28.2403687" lon="153.4901500">
<ele>92.916</ele>
<time>2018-01-23T23:45:35.264Z</time>
</trkpt>
<trkpt lat="-28.2399953" lon="153.4900810">
<ele>89.574</ele>
<time>2018-01-23T23:45:37.296Z</time>
</trkpt>
<trkpt lat="-28.2396470" lon="153.4899789">
<ele>85.952</ele>
<time>2018-01-23T23:45:39.241Z</time>
</trkpt>
<trkpt lat="-28.2393124" lon="153.4897873">
<ele>82.187</ele>
<time>2018-01-23T23:45:41.263Z</time>
</trkpt>
<trkpt lat="-28.2390263" lon="153.4895224">
<ele>78.639</ele>
<time>2018-01-23T23:45:43.247Z</time>
</trkpt>
<trkpt lat="-28.2388189" lon="153.4891955">
<ele>75.525</ele>
<time>2018-01-23T23:45:45.153Z</time>
</trkpt>
<trkpt lat="-28.2386841" lon="153.4888174">
<ele>72.747</ele>
<time>2018-01-23T23:45:47.075Z</time>
</trkpt>
<trkpt lat="-28.2386539" lon="153.4884075">
<ele>70.077</ele>
<time>2018-01-23T23:45:49.008Z</time>
</trkpt>
<trkpt lat="-28.2386563" lon="153.4880011">
<ele>67.248</ele>
<time>2018-01-23T23:45:50.941Z</time>
</trkpt>
<trkpt lat="-28.2386404" lon="153.4876016">
<ele>64.140</ele>
<time>2018-01-23T23:45:52.891Z</time>
</trkpt>
<trkpt lat="-28.2385242" lon="153.4872377">
<ele>60.982</ele>
<time>2018-01-23T23:45:54.794Z</time>
</trkpt>
<trkpt lat="-28.2382419" lon="153.4868930">
<ele>58.065</ele>
<time>2018-01-23T23:45:57.039Z</time>
</trkpt>
<trkpt lat="-28.2379785" lon="153.4865937">
<ele>55.425</ele>
<time>2018-01-23T23:45:58.997Z</time>
</trkpt>
<trkpt lat="-28.2377165" lon="153.4862878">
<ele>53.014</ele>
<time>2018-01-23T23:46:00.958Z</time>
</trkpt>
<trkpt lat="-28.2374048" lon="153.4860435">
<ele>50.787</ele>
<time>2018-01-23T23:46:02.940Z</time>
</trkpt>
<trkpt lat="-28.2370344" lon="153.4859024">
<ele>48.470</ele>
<time>2018-01-23T23:46:04.998Z</time>
</trkpt>
<trkpt lat="-28.2366775" lon="153.4858122">
<ele>45.635</ele>
<time>2018-01-23T23:46:06.941Z</time>
</trkpt>
<trkpt lat="-28.2363385" lon="153.4856628">
<ele>42.186</ele>
<time>2018-01-23T23:46:08.900Z</time>
</trkpt>
<trkpt lat="-28.2360309" lon="153.4854464">
<ele>38.421</ele>
<time>2018-01-23T23:46:10.865Z</time>
</trkpt>
<trkpt lat="-28.2358318" lon="153.4850872">
<ele>34.599</ele>
<time>2018-01-23T23:46:12.862Z</time>
</trkpt>
<trkpt lat="-28.2356648" lon="153.4846913">
<ele>30.606</ele>
<time>2018-01-23T23:46:14.861Z</time>
</trkpt>
<trkpt lat="-28.2354772" lon="153.4843000">
<ele>26.223</ele>
<time>2018-01-23T23:46:16.841Z</time>
</trkpt>
<trkpt lat="-28.2353136" lon="153.4838950">
<ele>21.702</ele>
<time>2018-01-23T23:46:18.817Z</time>
</trkpt>
<trkpt lat="-28.2352206" lon="153.4834752">
<ele>17.769</ele>
<time>2018-01-23T23:46:20.767Z</time>
</trkpt>
<trkpt lat="-28.2351300" lon="153.4830684">
<ele>14.956</ele>
<time>2018-01-23T23:46:22.703Z</time>
</trkpt>
<trkpt lat="-28.2350222" lon="153.4826868">
<ele>13.176</ele>
<time>2018-01-23T23:46:24.598Z</time>
</trkpt>
<trkpt lat="-28.2349273" lon="153.4822628">
<ele>11.820</ele>
<time>2018-01-23T23:46:26.672Z</time>
</trkpt>
<trkpt lat="-28.2347864" lon="153.4818553">
<ele>10.427</ele>
<time>2018-01-23T23:46:28.704Z</time>
</trkpt>
<trkpt lat="-28.2345970" lon="153.4814762">
<ele>9.129</ele>
<time>2018-01-23T23:46:30.687Z</time>
</trkpt>
<trkpt lat="-28.2343737" lon="153.4811431">
<ele>8.268</ele>
<time>2018-01-23T23:46:32.589Z</time>
</trkpt>
<trkpt lat="-28.2341859" lon="153.4808359">
<ele>7.911</ele>
<time>2018-01-23T23:46:34.363Z</time>
</trkpt>
<trkpt lat="-28.2340598" lon="153.4805029">
<ele>7.859</ele>
<time>2018-01-23T23:46:36.193Z</time>
</trkpt>
<trkpt lat="-28.2339248" lon="153.4801503">
<ele>7.866</ele>
<time>2018-01-23T23:46:38.181Z</time>
</trkpt>
<trkpt lat="-28.2337541" lon="153.4798421">
<ele>8.105</ele>
<time>2018-01-23T23:46:40.049Z</time>
</trkpt>
<trkpt lat="-28.2335404" lon="153.4795040">
<ele>8.876</ele>
<time>2018-01-23T23:46:42.124Z</time>
</trkpt>
<trkpt lat="-28.2333723" lon="153.4791863">
<ele>10.133</ele>
<time>2018-01-23T23:46:43.991Z</time>
</trkpt>
<trkpt lat="-28.2331801" lon="153.4789325">
<ele>11.613</ele>
<time>2018-01-23T23:46:45.812Z</time>
</trkpt>
<trkpt lat="-28.2328688" lon="153.4787622">
<ele>12.939</ele>
<time>2018-01-23T23:46:48.013Z</time>
</trkpt>
<trkpt lat="-28.2325430" lon="153.4787125">
<ele>14.041</ele>
<time>2018-01-23T23:46:50.078Z</time>
</trkpt>
<trkpt lat="-28.2322911" lon="153.4785265">
<ele>15.478</ele>
<time>2018-01-23T23:46:51.973Z</time>
</trkpt>
<trkpt lat="-28.2320885" lon="153.4782450">
<ele>17.627</ele>
<time>2018-01-23T23:46:53.993Z</time>
</trkpt>
<trkpt lat="-28.2319323" lon="153.4779030">
<ele>20.432</ele>
<time>2018-01-23T23:46:56.079Z</time>
</trkpt>
<trkpt lat="-28.2317567" lon="153.4775560">
<ele>23.792</ele>
<time>2018-01-23T23:46:58.181Z</time>
</trkpt>
<trkpt lat="-28.2315865" lon="153.4772340">
<ele>27.317</ele>
<time>2018-01-23T23:47:00.133Z</time>
</trkpt>
<trkpt lat="-28.2314307" lon="153.4768684">
<ele>30.411</ele>
<time>2018-01-23T23:47:02.233Z</time>
</trkpt>
<trkpt lat="-28.2312902" lon="153.4765303">
<ele>32.871</ele>
<time>2018-01-23T23:47:04.180Z</time>
</trkpt>
<trkpt lat="-28.2311845" lon="153.4761903">
<ele>34.798</ele>
<time>2018-01-23T23:47:06.079Z</time>
</trkpt>
<trkpt lat="-28.2311242" lon="153.4758105">
<ele>36.269</ele>
<time>2018-01-23T23:47:08.077Z</time>
</trkpt>
<trkpt lat="-28.2311179" lon="153.4754217">
<ele>37.405</ele>
<time>2018-01-23T23:47:10.041Z</time>
</trkpt>
<trkpt lat="-28.2311023" lon="153.4750392">
<ele>38.286</ele>
<time>2018-01-23T23:47:11.969Z</time>
</trkpt>
<trkpt lat="-28.2310825" lon="153.4746602">
<ele>38.843</ele>
<time>2018-01-23T23:47:13.901Z</time>
</trkpt>
<trkpt lat="-28.2310766" lon="153.4742919">
<ele>38.911</ele>
<time>2018-01-23T23:47:15.804Z</time>
</trkpt>
<trkpt lat="-28.2310516" lon="153.4738925">
<ele>38.330</ele>
<time>2018-01-23T23:47:17.858Z</time>
</trkpt>
<trkpt lat="-28.2310189" lon="153.4734746">
<ele>37.121</ele>
<time>2018-01-23T23:47:19.916Z</time>
</trkpt>
<trkpt lat="-28.2309586" lon="153.4730495">
<ele>35.530</ele>
<time>2018-01-23T23:47:21.948Z</time>
</trkpt>
<trkpt lat="-28.2309008" lon="153.4726567">
<ele>33.819</ele>
<time>2018-01-23T23:47:23.836Z</time>
</trkpt>
<trkpt lat="-28.2307991" lon="153.4722813">
<ele>32.265</ele>
<time>2018-01-23T23:47:25.736Z</time>
</trkpt>
<trkpt lat="-28.2306703" lon="153.4719217">
<ele>31.206</ele>
<time>2018-01-23T23:47:27.653Z</time>
</trkpt>
<trkpt lat="-28.2305361" lon="153.4715633">
<ele>30.988</ele>
<time>2018-01-23T23:47:29.630Z</time>
</trkpt>
<trkpt lat="-28.2303895" lon="153.4712178">
<ele>31.578</ele>
<time>2018-01-23T23:47:31.611Z</time>
</trkpt>
<trkpt lat="-28.2301846" lon="153.4708737">
<ele>32.407</ele>
<time>2018-01-23T23:47:33.736Z</time>
</trkpt>
<trkpt lat="-28.2299244" lon="153.4705650">
<ele>32.916</ele>
<time>2018-01-23T23:47:35.832Z</time>
</trkpt>
<trkpt lat="-28.2295815" lon="153.4703658">
<ele>32.997</ele>
<time>2018-01-23T23:47:37.913Z</time>
</trkpt>
<trkpt lat="-28.2292439" lon="153.4702221">
<ele>32.704</ele>
<time>2018-01-23T23:47:39.852Z</time>
</trkpt>
<trkpt lat="-28.2289067" lon="153.4700932">
<ele>31.944</ele>
<time>2018-01-23T23:47:41.764Z</time>
</trkpt>
<trkpt lat="-28.2286019" lon="153.4699024">
<ele>30.513</ele>
<time>2018-01-23T23:47:43.680Z</time>
</trkpt>
<trkpt lat="-28.2283793" lon="153.4696088">
<ele>28.380</ele>
<time>2018-01-23T23:47:45.620Z</time>
</trkpt>
<trkpt lat="-28.2282280" lon="153.4693030">
<ele>25.763</ele>
<time>2018-01-23T23:47:47.424Z</time>
</trkpt>
<trkpt lat="-28.2280204" lon="153.4689940">
<ele>22.782</ele>
<time>2018-01-23T23:47:49.471Z</time>
</trkpt>
<trkpt lat="-28.2278113" lon="153.4687044">
<ele>19.347</ele>
<time>2018-01-23T23:47:51.479Z</time>
</trkpt>
<trkpt lat="-28.2276017" lon="153.4684673">
<ele>15.580</ele>
<time>2018-01-23T23:47:53.332Z</time>
</trkpt>
<trkpt lat="-28.2274164" lon="153.4682727">
<ele>11.992</ele>
<time>2018-01-23T23:47:54.997Z</time>
</trkpt>
<trkpt lat="-28.2272538" lon="153.4680382">
<ele>9.089</ele>
<time>2018-01-23T23:47:56.830Z</time>
</trkpt>
<trkpt lat="-28.2271341" lon="153.4677717">
<ele>6.955</ele>
<time>2018-01-23T23:47:58.738Z</time>
</trkpt>
<trkpt lat="-28.2270613" lon="153.4674454">
<ele>5.302</ele>
<time>2018-01-23T23:48:00.872Z</time>
</trkpt>
<trkpt lat="-28.2270556" lon="153.4671072">
<ele>3.914</ele>
<time>2018-01-23T23:48:02.948Z</time>
</trkpt>
<trkpt lat="-28.2270585" lon="153.4666373">
<ele>2.721</ele>
<time>2018-01-23T23:48:05.754Z</time>
</trkpt>
<trkpt lat="-28.2270610" lon="153.4661709">
<ele>1.641</ele>
<time>2018-01-23T23:48:08.570Z</time>
</trkpt>
<trkpt lat="-28.2271832" lon="153.4657040">
<ele>0.711</ele>
<time>2018-01-23T23:48:11.512Z</time>
</trkpt>
<trkpt lat="-28.2273071" lon="153.4652227">
<ele>0.050</ele>
<time>2018-01-23T23:48:14.471Z</time>
</trkpt>
<trkpt lat="-28.2274467" lon="153.4646712">
<ele>0.000</ele>
<time>2018-01-23T23:48:17.723Z</time>
</trkpt>
<trkpt lat="-28.2275074" lon="153.4639408">
<ele>0.000</ele>
<time>2018-01-23T23:48:21.424Z</time>
</trkpt>
<trkpt lat="-28.2275302" lon="153.4633526">
<ele>0.000</ele>
<time>2018-01-23T23:48:24.167Z</time>
</trkpt>
<trkpt lat="-28.2277244" lon="153.4628038">
<ele>0.000</ele>
<time>2018-01-23T23:48:26.984Z</time>
</trkpt>
<trkpt lat="-28.2279035" lon="153.4622570">
<ele>0.000</ele>
<time>2018-01-23T23:48:29.834Z</time>
</trkpt>
<trkpt lat="-28.2280996" lon="153.4617408">
<ele>0.000</ele>
<time>2018-01-23T23:48:32.677Z</time>
</trkpt>
<trkpt lat="-28.2282218" lon="153.4612323">
<ele>0.000</ele>
<time>2018-01-23T23:48:35.450Z</time>
</trkpt>
<trkpt lat="-28.2282162" lon="153.4606326">
<ele>0.000</ele>
<time>2018-01-23T23:48:38.619Z</time>
</trkpt>
<trkpt lat="-28.2282288" lon="153.4600277">
<ele>0.000</ele>
<time>2018-01-23T23:48:41.679Z</time>
</trkpt>
<trkpt lat="-28.2282393" lon="153.4594938">
<ele>0.000</ele>
<time>2018-01-23T23:48:44.353Z</time>
</trkpt>
<trkpt lat="-28.2281869" lon="153.4590071">
<ele>0.000</ele>
<time>2018-01-23T23:48:46.885Z</time>
</trkpt>
<trkpt lat="-28.2281217" lon="153.4584307">
<ele>0.000</ele>
<time>2018-01-23T23:48:49.976Z</time>
</trkpt>
<trkpt lat="-28.2280068" lon="153.4578807">
<ele>0.000</ele>
<time>2018-01-23T23:48:52.936Z</time>
</trkpt>
<trkpt lat="-28.2280734" lon="153.4573320">
<ele>0.000</ele>
<time>2018-01-23T23:48:55.794Z</time>
</trkpt>
<trkpt lat="-28.2282310" lon="153.4567953">
<ele>0.000</ele>
<time>2018-01-23T23:48:58.743Z</time>
</trkpt>
<trkpt lat="-28.2284333" lon="153.4563406">
<ele>0.000</ele>
<time>2018-01-23T23:49:01.438Z</time>
</trkpt>
<trkpt lat="-28.2286786" lon="153.4561951">
<ele>0.000</ele>
<time>2018-01-23T23:49:03.160Z</time>
</trkpt>
<trkpt lat="-28.2288704" lon="153.4560319">
<ele>0.000</ele>
<time>2018-01-23T23:49:04.865Z</time>
</trkpt>
<trkpt lat="-28.2291578" lon="153.4558211">
<ele>2.061</ele>
<time>2018-01-23T23:49:07.927Z</time>
</trkpt>
<trkpt lat="-28.2294335" lon="153.4555568">
<ele>5.178</ele>
<time>2018-01-23T23:49:11.264Z</time>
</trkpt>
<trkpt lat="-28.2296966" lon="153.4552905">
<ele>8.028</ele>
<time>2018-01-23T23:49:13.620Z</time>
</trkpt>
<trkpt lat="-28.2299036" lon="153.4550101">
<ele>10.880</ele>
<time>2018-01-23T23:49:15.634Z</time>
</trkpt>
<trkpt lat="-28.2300291" lon="153.4546923">
<ele>14.472</ele>
<time>2018-01-23T23:49:17.544Z</time>
</trkpt>
<trkpt lat="-28.2301923" lon="153.4544157">
<ele>19.033</ele>
<time>2018-01-23T23:49:19.428Z</time>
</trkpt>
<trkpt lat="-28.2303372" lon="153.4541426">
<ele>23.951</ele>
<time>2018-01-23T23:49:21.329Z</time>
</trkpt>
<trkpt lat="-28.2304805" lon="153.4538076">
<ele>28.220</ele>
<time>2018-01-23T23:49:23.597Z</time>
</trkpt>
<trkpt lat="-28.2306543" lon="153.4535252">
<ele>31.363</ele>
<time>2018-01-23T23:49:25.653Z</time>
</trkpt>
<trkpt lat="-28.2308571" lon="153.4532688">
<ele>33.929</ele>
<time>2018-01-23T23:49:27.638Z</time>
</trkpt>
<trkpt lat="-28.2309554" lon="153.4529914">
<ele>36.858</ele>
<time>2018-01-23T23:49:29.326Z</time>
</trkpt>
<trkpt lat="-28.2309653" lon="153.4526500">
<ele>40.583</ele>
<time>2018-01-23T23:49:31.301Z</time>
</trkpt>
<trkpt lat="-28.2309924" lon="153.4522690">
<ele>44.836</ele>
<time>2018-01-23T23:49:33.531Z</time>
</trkpt>
<trkpt lat="-28.2310568" lon="153.4519237">
<ele>49.206</ele>
<time>2018-01-23T23:49:35.525Z</time>
</trkpt>
<trkpt lat="-28.2311919" lon="153.4515986">
<ele>53.457</ele>
<time>2018-01-23T23:49:37.537Z</time>
</trkpt>
<trkpt lat="-28.2313990" lon="153.4513278">
<ele>57.356</ele>
<time>2018-01-23T23:49:39.549Z</time>
</trkpt>
<trkpt lat="-28.2315551" lon="153.4510359">
<ele>60.723</ele>
<time>2018-01-23T23:49:41.450Z</time>
</trkpt>
<trkpt lat="-28.2317473" lon="153.4507935">
<ele>63.700</ele>
<time>2018-01-23T23:49:43.268Z</time>
</trkpt>
<trkpt lat="-28.2319408" lon="153.4505587">
<ele>66.757</ele>
<time>2018-01-23T23:49:45.093Z</time>
</trkpt>
<trkpt lat="-28.2322140" lon="153.4504139">
<ele>70.079</ele>
<time>2018-01-23T23:49:47.108Z</time>
</trkpt>
<trkpt lat="-28.2325882" lon="153.4504107">
<ele>73.174</ele>
<time>2018-01-23T23:49:49.713Z</time>
</trkpt>
<trkpt lat="-28.2328721" lon="153.4501795">
<ele>75.507</ele>
<time>2018-01-23T23:49:52.026Z</time>
</trkpt>
<trkpt lat="-28.2331376" lon="153.4499610">
<ele>77.141</ele>
<time>2018-01-23T23:49:54.081Z</time>
</trkpt>
<trkpt lat="-28.2333755" lon="153.4497192">
<ele>78.670</ele>
<time>2018-01-23T23:49:56.056Z</time>
</trkpt>
<trkpt lat="-28.2335477" lon="153.4494624">
<ele>80.602</ele>
<time>2018-01-23T23:49:57.837Z</time>
</trkpt>
<trkpt lat="-28.2338384" lon="153.4491298">
<ele>82.960</ele>
<time>2018-01-23T23:50:00.544Z</time>
</trkpt>
<trkpt lat="-28.2338617" lon="153.4487220">
<ele>85.396</ele>
<time>2018-01-23T23:50:03.083Z</time>
</trkpt>
<trkpt lat="-28.2340722" lon="153.4483930">
<ele>87.756</ele>
<time>2018-01-23T23:50:05.888Z</time>
</trkpt>
<trkpt lat="-28.2344179" lon="153.4481622">
<ele>90.218</ele>
<time>2018-01-23T23:50:09.162Z</time>
</trkpt>
<trkpt lat="-28.2348395" lon="153.4481661">
<ele>95.271</ele>
<time>2018-01-23T23:50:12.354Z</time>
</trkpt>
<trkpt lat="-28.2352433" lon="153.4485016">
<ele>104.167</ele>
<time>2018-01-23T23:50:16.097Z</time>
</trkpt>
<trkpt lat="-28.2357223" lon="153.4487051">
<ele>113.223</ele>
<time>2018-01-23T23:50:19.514Z</time>
</trkpt>
<trkpt lat="-28.2362256" lon="153.4486890">
<ele>119.003</ele>
<time>2018-01-23T23:50:22.523Z</time>
</trkpt>
<trkpt lat="-28.2366903" lon="153.4489134">
<ele>122.262</ele>
<time>2018-01-23T23:50:25.491Z</time>
</trkpt>
<trkpt lat="-28.2370579" lon="153.4491635">
<ele>124.171</ele>
<time>2018-01-23T23:50:28.160Z</time>
</trkpt>
<trkpt lat="-28.2374928" lon="153.4490696">
<ele>125.341</ele>
<time>2018-01-23T23:50:31.096Z</time>
</trkpt>
<trkpt lat="-28.2379549" lon="153.4488234">
<ele>127.579</ele>
<time>2018-01-23T23:50:34.374Z</time>
</trkpt>
<trkpt lat="-28.2382140" lon="153.4486665">
<ele>132.504</ele>
<time>2018-01-23T23:50:36.164Z</time>
</trkpt>
<trkpt lat="-28.2384800" lon="153.4485094">
<ele>138.488</ele>
<time>2018-01-23T23:50:38.016Z</time>
</trkpt>
<trkpt lat="-28.2387345" lon="153.4483513">
<ele>143.136</ele>
<time>2018-01-23T23:50:39.905Z</time>
</trkpt>
<trkpt lat="-28.2389694" lon="153.4481744">
<ele>146.299</ele>
<time>2018-01-23T23:50:41.811Z</time>
</trkpt>
<trkpt lat="-28.2392309" lon="153.4480316">
<ele>148.642</ele>
<time>2018-01-23T23:50:43.801Z</time>
</trkpt>
<trkpt lat="-28.2394718" lon="153.4478431">
<ele>150.449</ele>
<time>2018-01-23T23:50:45.798Z</time>
</trkpt>
<trkpt lat="-28.2397480" lon="153.4477477">
<ele>151.964</ele>
<time>2018-01-23T23:50:47.720Z</time>
</trkpt>
<trkpt lat="-28.2400046" lon="153.4476024">
<ele>153.485</ele>
<time>2018-01-23T23:50:49.604Z</time>
</trkpt>
<trkpt lat="-28.2402326" lon="153.4473959">
<ele>154.848</ele>
<time>2018-01-23T23:50:51.565Z</time>
</trkpt>
<trkpt lat="-28.2404866" lon="153.4472126">
<ele>155.572</ele>
<time>2018-01-23T23:50:53.642Z</time>
</trkpt>
<trkpt lat="-28.2407977" lon="153.4470750">
<ele>155.311</ele>
<time>2018-01-23T23:50:55.907Z</time>
</trkpt>
<trkpt lat="-28.2410951" lon="153.4469462">
<ele>154.136</ele>
<time>2018-01-23T23:50:57.969Z</time>
</trkpt>
<trkpt lat="-28.2413861" lon="153.4468559">
<ele>152.497</ele>
<time>2018-01-23T23:50:59.866Z</time>
</trkpt>
<trkpt lat="-28.2416446" lon="153.4466899">
<ele>150.722</ele>
<time>2018-01-23T23:51:01.745Z</time>
</trkpt>
<trkpt lat="-28.2420488" lon="153.4464132">
<ele>148.721</ele>
<time>2018-01-23T23:51:04.803Z</time>
</trkpt>
<trkpt lat="-28.2424609" lon="153.4462358">
<ele>146.341</ele>
<time>2018-01-23T23:51:07.652Z</time>
</trkpt>
<trkpt lat="-28.2428491" lon="153.4459548">
<ele>143.510</ele>
<time>2018-01-23T23:51:10.634Z</time>
</trkpt>
<trkpt lat="-28.2430098" lon="153.4454791">
<ele>140.134</ele>
<time>2018-01-23T23:51:13.614Z</time>
</trkpt>
<trkpt lat="-28.2432253" lon="153.4450929">
<ele>136.318</ele>
<time>2018-01-23T23:51:16.372Z</time>
</trkpt>
<trkpt lat="-28.2435325" lon="153.4448020">
<ele>132.863</ele>
<time>2018-01-23T23:51:19.160Z</time>
</trkpt>
<trkpt lat="-28.2438758" lon="153.4444469">
<ele>130.545</ele>
<time>2018-01-23T23:51:22.412Z</time>
</trkpt>
<trkpt lat="-28.2442119" lon="153.4441389">
<ele>129.231</ele>
<time>2018-01-23T23:51:25.433Z</time>
</trkpt>
<trkpt lat="-28.2445055" lon="153.4439055">
<ele>128.098</ele>
<time>2018-01-23T23:51:28.007Z</time>
</trkpt>
<trkpt lat="-28.2448970" lon="153.4439333">
<ele>126.232</ele>
<time>2018-01-23T23:51:30.990Z</time>
</trkpt>
<trkpt lat="-28.2451156" lon="153.4439681">
<ele>122.772</ele>
<time>2018-01-23T23:51:32.729Z</time>
</trkpt>
<trkpt lat="-28.2453570" lon="153.4440204">
<ele>118.328</ele>
<time>2018-01-23T23:51:34.713Z</time>
</trkpt>
<trkpt lat="-28.2452808" lon="153.4442216">
<ele>114.974</ele>
<time>2018-01-23T23:51:36.590Z</time>
</trkpt>
<trkpt lat="-28.2452190" lon="153.4443850">
<ele>114.161</ele>
<time>2018-01-23T23:51:38.254Z</time>
</trkpt>
<trkpt lat="-28.2452923" lon="153.4445806">
<ele>115.317</ele>
<time>2018-01-23T23:51:41.048Z</time>
</trkpt>
<trkpt lat="-28.2454385" lon="153.4447685">
<ele>116.516</ele>
<time>2018-01-23T23:51:44.526Z</time>
</trkpt>
<trkpt lat="-28.2455343" lon="153.4449358">
<ele>116.406</ele>
<time>2018-01-23T23:51:46.738Z</time>
</trkpt>
<trkpt lat="-28.2456456" lon="153.4450711">
<ele>115.520</ele>
<time>2018-01-23T23:51:48.538Z</time>
</trkpt>
<trkpt lat="-28.2457782" lon="153.4451651">
<ele>114.728</ele>
<time>2018-01-23T23:51:50.320Z</time>
</trkpt>
<trkpt lat="-28.2459420" lon="153.4450817">
<ele>114.077</ele>
<time>2018-01-23T23:51:52.541Z</time>
</trkpt>
<trkpt lat="-28.2461205" lon="153.4448168">
<ele>113.353</ele>
<time>2018-01-23T23:51:56.216Z</time>
</trkpt>
<trkpt lat="-28.2464683" lon="153.4447021">
<ele>112.657</ele>
<time>2018-01-23T23:52:00.245Z</time>
</trkpt>
<trkpt lat="-28.2467757" lon="153.4448650">
<ele>112.241</ele>
<time>2018-01-23T23:52:03.695Z</time>
</trkpt>
<trkpt lat="-28.2470223" lon="153.4449542">
<ele>112.185</ele>
<time>2018-01-23T23:52:06.387Z</time>
</trkpt>
<trkpt lat="-28.2473064" lon="153.4449612">
<ele>112.366</ele>
<time>2018-01-23T23:52:09.461Z</time>
</trkpt>
<trkpt lat="-28.2475222" lon="153.4449715">
<ele>112.567</ele>
<time>2018-01-23T23:52:12.050Z</time>
</trkpt>
<trkpt lat="-28.2477101" lon="153.4448466">
<ele>112.776</ele>
<time>2018-01-23T23:52:14.911Z</time>
</trkpt>
<trkpt lat="-28.2480004" lon="153.4448596">
<ele>113.252</ele>
<time>2018-01-23T23:52:18.536Z</time>
</trkpt>
<trkpt lat="-28.2481542" lon="153.4448788">
<ele>114.084</ele>
<time>2018-01-23T23:52:20.300Z</time>
</trkpt>
<trkpt lat="-28.2482843" lon="153.4448169">
<ele>114.974</ele>
<time>2018-01-23T23:52:21.942Z</time>
</trkpt>
<trkpt lat="-28.2484133" lon="153.4446813">
<ele>115.745</ele>
<time>2018-01-23T23:52:24.088Z</time>
</trkpt>
<trkpt lat="-28.2484854" lon="153.4445079">
<ele>116.714</ele>
<time>2018-01-23T23:52:26.196Z</time>
</trkpt>
<trkpt lat="-28.2484970" lon="153.4443400">
<ele>118.077</ele>
<time>2018-01-23T23:52:28.080Z</time>
</trkpt>
<trkpt lat="-28.2485233" lon="153.4441223">
<ele>119.464</ele>
<time>2018-01-23T23:52:30.492Z</time>
</trkpt>
<trkpt lat="-28.2486499" lon="153.4439239">
<ele>120.407</ele>
<time>2018-01-23T23:52:32.938Z</time>
</trkpt>
<trkpt lat="-28.2488693" lon="153.4436710">
<ele>120.810</ele>
<time>2018-01-23T23:52:36.272Z</time>
</trkpt>
<trkpt lat="-28.2489564" lon="153.4433774">
<ele>120.866</ele>
<time>2018-01-23T23:52:39.147Z</time>
</trkpt>
<trkpt lat="-28.2490118" lon="153.4430766">
<ele>120.359</ele>
<time>2018-01-23T23:52:41.992Z</time>
</trkpt>
<trkpt lat="-28.2493431" lon="153.4430144">
<ele>118.920</ele>
<time>2018-01-23T23:52:45.300Z</time>
</trkpt>
<trkpt lat="-28.2496892" lon="153.4429128">
<ele>117.000</ele>
<time>2018-01-23T23:52:48.701Z</time>
</trkpt>
<trkpt lat="-28.2499515" lon="153.4427708">
<ele>115.496</ele>
<time>2018-01-23T23:52:51.569Z</time>
</trkpt>
<trkpt lat="-28.2503125" lon="153.4427976">
<ele>114.718</ele>
<time>2018-01-23T23:52:55.113Z</time>
</trkpt>
<trkpt lat="-28.2505551" lon="153.4428667">
<ele>114.674</ele>
<time>2018-01-23T23:52:57.719Z</time>
</trkpt>
<trkpt lat="-28.2507142" lon="153.4428021">
<ele>115.675</ele>
<time>2018-01-23T23:52:59.752Z</time>
</trkpt>
<trkpt lat="-28.2508508" lon="153.4426857">
<ele>117.570</ele>
<time>2018-01-23T23:53:01.915Z</time>
</trkpt>
<trkpt lat="-28.2510043" lon="153.4426884">
<ele>119.218</ele>
<time>2018-01-23T23:53:03.921Z</time>
</trkpt>
<trkpt lat="-28.2511636" lon="153.4426669">
<ele>119.625</ele>
<time>2018-01-23T23:53:06.142Z</time>
</trkpt>
<trkpt lat="-28.2512839" lon="153.4425445">
<ele>118.953</ele>
<time>2018-01-23T23:53:08.410Z</time>
</trkpt>
<trkpt lat="-28.2513276" lon="153.4423432">
<ele>119.533</ele>
<time>2018-01-23T23:53:10.791Z</time>
</trkpt>
<trkpt lat="-28.2513932" lon="153.4421574">
<ele>123.195</ele>
<time>2018-01-23T23:53:13.028Z</time>
</trkpt>
<trkpt lat="-28.2514932" lon="153.4420340">
<ele>128.211</ele>
<time>2018-01-23T23:53:15.018Z</time>
</trkpt>
<trkpt lat="-28.2515787" lon="153.4419284">
<ele>131.979</ele>
<time>2018-01-23T23:53:16.814Z</time>
</trkpt>
<trkpt lat="-28.2517225" lon="153.4418662">
<ele>134.453</ele>
<time>2018-01-23T23:53:18.802Z</time>
</trkpt>
<trkpt lat="-28.2519131" lon="153.4419650">
<ele>136.415</ele>
<time>2018-01-23T23:53:21.161Z</time>
</trkpt>
<trkpt lat="-28.2520826" lon="153.4420618">
<ele>137.724</ele>
<time>2018-01-23T23:53:23.228Z</time>
</trkpt>
<trkpt lat="-28.2522662" lon="153.4421300">
<ele>137.841</ele>
<time>2018-01-23T23:53:25.325Z</time>
</trkpt>
<trkpt lat="-28.2524589" lon="153.4421721">
<ele>137.002</ele>
<time>2018-01-23T23:53:27.417Z</time>
</trkpt>
<trkpt lat="-28.2526563" lon="153.4421510">
<ele>135.820</ele>
<time>2018-01-23T23:53:29.484Z</time>
</trkpt>
<trkpt lat="-28.2528600" lon="153.4421924">
<ele>134.856</ele>
<time>2018-01-23T23:53:31.704Z</time>
</trkpt>
<trkpt lat="-28.2530270" lon="153.4422390">
<ele>134.369</ele>
<time>2018-01-23T23:53:33.579Z</time>
</trkpt>
<trkpt lat="-28.2532234" lon="153.4422770">
<ele>134.532</ele>
<time>2018-01-23T23:53:35.672Z</time>
</trkpt>
<trkpt lat="-28.2534131" lon="153.4423643">
<ele>135.335</ele>
<time>2018-01-23T23:53:37.739Z</time>
</trkpt>
<trkpt lat="-28.2535985" lon="153.4424398">
<ele>136.366</ele>
<time>2018-01-23T23:53:39.711Z</time>
</trkpt>
<trkpt lat="-28.2537969" lon="153.4424513">
<ele>137.176</ele>
<time>2018-01-23T23:53:41.761Z</time>
</trkpt>
<trkpt lat="-28.2539921" lon="153.4424437">
<ele>137.972</ele>
<time>2018-01-23T23:53:43.856Z</time>
</trkpt>
<trkpt lat="-28.2541626" lon="153.4424159">
<ele>139.232</ele>
<time>2018-01-23T23:53:45.697Z</time>
</trkpt>
<trkpt lat="-28.2543312" lon="153.4423070">
<ele>140.724</ele>
<time>2018-01-23T23:53:47.761Z</time>
</trkpt>
<trkpt lat="-28.2545133" lon="153.4422165">
<ele>142.037</ele>
<time>2018-01-23T23:53:49.936Z</time>
</trkpt>
<trkpt lat="-28.2546927" lon="153.4421878">
<ele>143.648</ele>
<time>2018-01-23T23:53:51.903Z</time>
</trkpt>
<trkpt lat="-28.2549083" lon="153.4421822">
<ele>145.851</ele>
<time>2018-01-23T23:53:54.196Z</time>
</trkpt>
<trkpt lat="-28.2550881" lon="153.4422794">
<ele>147.995</ele>
<time>2018-01-23T23:53:56.418Z</time>
</trkpt>
<trkpt lat="-28.2552520" lon="153.4423207">
<ele>149.706</ele>
<time>2018-01-23T23:53:58.550Z</time>
</trkpt>
<trkpt lat="-28.2554167" lon="153.4423736">
<ele>151.185</ele>
<time>2018-01-23T23:54:00.893Z</time>
</trkpt>
<trkpt lat="-28.2555692" lon="153.4424214">
<ele>152.474</ele>
<time>2018-01-23T23:54:02.681Z</time>
</trkpt>
<trkpt lat="-28.2556608" lon="153.4425716">
<ele>153.505</ele>
<time>2018-01-23T23:54:04.259Z</time>
</trkpt>
<trkpt lat="-28.2557119" lon="153.4428175">
<ele>154.228</ele>
<time>2018-01-23T23:54:06.316Z</time>
</trkpt>
<trkpt lat="-28.2557565" lon="153.4430672">
<ele>154.295</ele>
<time>2018-01-23T23:54:08.359Z</time>
</trkpt>
<trkpt lat="-28.2557961" lon="153.4433058">
<ele>153.536</ele>
<time>2018-01-23T23:54:10.317Z</time>
</trkpt>
<trkpt lat="-28.2558272" lon="153.4435507">
<ele>152.542</ele>
<time>2018-01-23T23:54:12.392Z</time>
</trkpt>
<trkpt lat="-28.2558675" lon="153.4437768">
<ele>152.091</ele>
<time>2018-01-23T23:54:14.423Z</time>
</trkpt>
<trkpt lat="-28.2559338" lon="153.4439812">
<ele>152.472</ele>
<time>2018-01-23T23:54:16.379Z</time>
</trkpt>
<trkpt lat="-28.2560441" lon="153.4441691">
<ele>153.345</ele>
<time>2018-01-23T23:54:18.374Z</time>
</trkpt>
<trkpt lat="-28.2561962" lon="153.4443014">
<ele>153.974</ele>
<time>2018-01-23T23:54:20.190Z</time>
</trkpt>
<trkpt lat="-28.2563859" lon="153.4444048">
<ele>153.865</ele>
<time>2018-01-23T23:54:22.083Z</time>
</trkpt>
<trkpt lat="-28.2565738" lon="153.4445489">
<ele>152.971</ele>
<time>2018-01-23T23:54:24.056Z</time>
</trkpt>
<trkpt lat="-28.2567299" lon="153.4447529">
<ele>150.927</ele>
<time>2018-01-23T23:54:26.127Z</time>
</trkpt>
<trkpt lat="-28.2568516" lon="153.4449731">
<ele>147.804</ele>
<time>2018-01-23T23:54:28.156Z</time>
</trkpt>
<trkpt lat="-28.2570070" lon="153.4451393">
<ele>144.924</ele>
<time>2018-01-23T23:54:30.009Z</time>
</trkpt>
<trkpt lat="-28.2572297" lon="153.4451668">
<ele>143.359</ele>
<time>2018-01-23T23:54:31.886Z</time>
</trkpt>
<trkpt lat="-28.2574534" lon="153.4452567">
<ele>142.836</ele>
<time>2018-01-23T23:54:33.886Z</time>
</trkpt>
<trkpt lat="-28.2576796" lon="153.4453409">
<ele>142.671</ele>
<time>2018-01-23T23:54:35.916Z</time>
</trkpt>
<trkpt lat="-28.2578543" lon="153.4454804">
<ele>142.219</ele>
<time>2018-01-23T23:54:37.636Z</time>
</trkpt>
<trkpt lat="-28.2579751" lon="153.4457496">
<ele>140.341</ele>
<time>2018-01-23T23:54:39.609Z</time>
</trkpt>
<trkpt lat="-28.2580288" lon="153.4460560">
<ele>136.889</ele>
<time>2018-01-23T23:54:41.582Z</time>
</trkpt>
<trkpt lat="-28.2581288" lon="153.4463559">
<ele>133.891</ele>
<time>2018-01-23T23:54:43.638Z</time>
</trkpt>
<trkpt lat="-28.2582254" lon="153.4466418">
<ele>132.797</ele>
<time>2018-01-23T23:54:45.705Z</time>
</trkpt>
<trkpt lat="-28.2583422" lon="153.4469031">
<ele>132.772</ele>
<time>2018-01-23T23:54:47.894Z</time>
</trkpt>
<trkpt lat="-28.2584555" lon="153.4471337">
<ele>132.222</ele>
<time>2018-01-23T23:54:50.293Z</time>
</trkpt>
<trkpt lat="-28.2585595" lon="153.4473123">
<ele>130.485</ele>
<time>2018-01-23T23:54:52.601Z</time>
</trkpt>
<trkpt lat="-28.2586718" lon="153.4474079">
<ele>128.191</ele>
<time>2018-01-23T23:54:54.122Z</time>
</trkpt>
<trkpt lat="-28.2588204" lon="153.4474197">
<ele>125.707</ele>
<time>2018-01-23T23:54:55.509Z</time>
</trkpt>
<trkpt lat="-28.2590661" lon="153.4473459">
<ele>123.076</ele>
<time>2018-01-23T23:54:57.489Z</time>
</trkpt>
<trkpt lat="-28.2593393" lon="153.4472833">
<ele>120.479</ele>
<time>2018-01-23T23:54:59.507Z</time>
</trkpt>
<trkpt lat="-28.2595957" lon="153.4471975">
<ele>117.895</ele>
<time>2018-01-23T23:55:01.477Z</time>
</trkpt>
<trkpt lat="-28.2598455" lon="153.4470906">
<ele>115.258</ele>
<time>2018-01-23T23:55:03.590Z</time>
</trkpt>
<trkpt lat="-28.2600455" lon="153.4469482">
<ele>112.451</ele>
<time>2018-01-23T23:55:05.788Z</time>
</trkpt>
<trkpt lat="-28.2602026" lon="153.4468174">
<ele>109.548</ele>
<time>2018-01-23T23:55:07.917Z</time>
</trkpt>
<trkpt lat="-28.2603593" lon="153.4467952">
<ele>107.240</ele>
<time>2018-01-23T23:55:09.636Z</time>
</trkpt>
<trkpt lat="-28.2605353" lon="153.4468932">
<ele>105.636</ele>
<time>2018-01-23T23:55:11.644Z</time>
</trkpt>
<trkpt lat="-28.2607670" lon="153.4471163">
<ele>104.201</ele>
<time>2018-01-23T23:55:14.795Z</time>
</trkpt>
<trkpt lat="-28.2609405" lon="153.4473783">
<ele>102.891</ele>
<time>2018-01-23T23:55:17.780Z</time>
</trkpt>
<trkpt lat="-28.2609129" lon="153.4477197">
<ele>101.765</ele>
<time>2018-01-23T23:55:20.597Z</time>
</trkpt>
<trkpt lat="-28.2607897" lon="153.4480775">
<ele>100.413</ele>
<time>2018-01-23T23:55:23.788Z</time>
</trkpt>
<trkpt lat="-28.2606664" lon="153.4483829">
<ele>98.840</ele>
<time>2018-01-23T23:55:27.025Z</time>
</trkpt>
<trkpt lat="-28.2604254" lon="153.4484688">
<ele>96.781</ele>
<time>2018-01-23T23:55:29.876Z</time>
</trkpt>
<trkpt lat="-28.2601522" lon="153.4484497">
<ele>93.606</ele>
<time>2018-01-23T23:55:33.193Z</time>
</trkpt>
<trkpt lat="-28.2599492" lon="153.4484996">
<ele>89.748</ele>
<time>2018-01-23T23:55:35.897Z</time>
</trkpt>
<trkpt lat="-28.2598676" lon="153.4487724">
<ele>86.300</ele>
<time>2018-01-23T23:55:38.436Z</time>
</trkpt>
<trkpt lat="-28.2597998" lon="153.4492073">
<ele>83.821</ele>
<time>2018-01-23T23:55:41.641Z</time>
</trkpt>
<trkpt lat="-28.2599963" lon="153.4496226">
<ele>82.297</ele>
<time>2018-01-23T23:55:44.821Z</time>
</trkpt>
<trkpt lat="-28.2602263" lon="153.4499824">
<ele>81.291</ele>
<time>2018-01-23T23:55:48.140Z</time>
</trkpt>
<trkpt lat="-28.2605247" lon="153.4501466">
<ele>77.642</ele>
<time>2018-01-23T23:55:51.051Z</time>
</trkpt>
<trkpt lat="-28.2608719" lon="153.4500213">
<ele>69.249</ele>
<time>2018-01-23T23:55:53.677Z</time>
</trkpt>
<trkpt lat="-28.2612982" lon="153.4500784">
<ele>60.241</ele>
<time>2018-01-23T23:55:56.147Z</time>
</trkpt>
<trkpt lat="-28.2619280" lon="153.4501770">
<ele>55.306</ele>
<time>2018-01-23T23:55:59.273Z</time>
</trkpt>
<trkpt lat="-28.2626877" lon="153.4503510">
<ele>54.147</ele>
<time>2018-01-23T23:56:02.651Z</time>
</trkpt>
<trkpt lat="-28.2632043" lon="153.4504830">
<ele>54.820</ele>
<time>2018-01-23T23:56:04.886Z</time>
</trkpt>
<trkpt lat="-28.2636594" lon="153.4505665">
<ele>55.415</ele>
<time>2018-01-23T23:56:07.090Z</time>
</trkpt>
<trkpt lat="-28.2640180" lon="153.4506666">
<ele>54.634</ele>
<time>2018-01-23T23:56:09.234Z</time>
</trkpt>
<trkpt lat="-28.2643308" lon="153.4507507">
<ele>52.222</ele>
<time>2018-01-23T23:56:11.587Z</time>
</trkpt>
<trkpt lat="-28.2645677" lon="153.4508583">
<ele>46.026</ele>
<time>2018-01-23T23:56:13.984Z</time>
</trkpt>
<trkpt lat="-28.2647080" lon="153.4509422">
<ele>34.638</ele>
<time>2018-01-23T23:56:15.903Z</time>
</trkpt>
<trkpt lat="-28.2648685" lon="153.4509707">
<ele>22.824</ele>
<time>2018-01-23T23:56:18.038Z</time>
</trkpt>
<trkpt lat="-28.2649784" lon="153.4509599">
<ele>15.497</ele>
<time>2018-01-23T23:56:19.175Z</time>
</trkpt>
<trkpt lat="-28.2651020" lon="153.4510859">
<ele>11.883</ele>
<time>2018-01-23T23:56:20.715Z</time>
</trkpt>
<trkpt lat="-28.2653024" lon="153.4513457">
<ele>10.162</ele>
<time>2018-01-23T23:56:23.205Z</time>
</trkpt>
<trkpt lat="-28.2654521" lon="153.4515884">
<ele>9.537</ele>
<time>2018-01-23T23:56:25.260Z</time>
</trkpt>
<trkpt lat="-28.2655530" lon="153.4518324">
<ele>9.333</ele>
<time>2018-01-23T23:56:27.035Z</time>
</trkpt>
<trkpt lat="-28.2656889" lon="153.4520929">
<ele>9.181</ele>
<time>2018-01-23T23:56:28.952Z</time>
</trkpt>
<trkpt lat="-28.2658353" lon="153.4523585">
<ele>9.059</ele>
<time>2018-01-23T23:56:30.892Z</time>
</trkpt>
<trkpt lat="-28.2659691" lon="153.4526409">
<ele>8.995</ele>
<time>2018-01-23T23:56:32.819Z</time>
</trkpt>
<trkpt lat="-28.2660493" lon="153.4529840">
<ele>8.894</ele>
<time>2018-01-23T23:56:34.851Z</time>
</trkpt>
<trkpt lat="-28.2661237" lon="153.4533351">
<ele>8.576</ele>
<time>2018-01-23T23:56:36.855Z</time>
</trkpt>
<trkpt lat="-28.2661453" lon="153.4536853">
<ele>7.809</ele>
<time>2018-01-23T23:56:38.801Z</time>
</trkpt>
<trkpt lat="-28.2661060" lon="153.4540215">
<ele>6.739</ele>
<time>2018-01-23T23:56:40.680Z</time>
</trkpt>
<trkpt lat="-28.2661228" lon="153.4543727">
<ele>6.090</ele>
<time>2018-01-23T23:56:42.602Z</time>
</trkpt>
<trkpt lat="-28.2661882" lon="153.4547162">
<ele>6.235</ele>
<time>2018-01-23T23:56:44.476Z</time>
</trkpt>
<trkpt lat="-28.2663311" lon="153.4550493">
<ele>6.764</ele>
<time>2018-01-23T23:56:46.406Z</time>
</trkpt>
<trkpt lat="-28.2664851" lon="153.4554098">
<ele>7.126</ele>
<time>2018-01-23T23:56:48.491Z</time>
</trkpt>
<trkpt lat="-28.2666364" lon="153.4557598">
<ele>7.232</ele>
<time>2018-01-23T23:56:50.610Z</time>
</trkpt>
<trkpt lat="-28.2667494" lon="153.4560784">
<ele>8.560</ele>
<time>2018-01-23T23:56:52.564Z</time>
</trkpt>
<trkpt lat="-28.2668731" lon="153.4563763">
<ele>12.236</ele>
<time>2018-01-23T23:56:54.436Z</time>
</trkpt>
<trkpt lat="-28.2669892" lon="153.4566972">
<ele>16.827</ele>
<time>2018-01-23T23:56:56.331Z</time>
</trkpt>
<trkpt lat="-28.2671260" lon="153.4570396">
<ele>20.363</ele>
<time>2018-01-23T23:56:58.297Z</time>
</trkpt>
<trkpt lat="-28.2673073" lon="153.4573855">
<ele>22.500</ele>
<time>2018-01-23T23:57:00.370Z</time>
</trkpt>
<trkpt lat="-28.2675202" lon="153.4576951">
<ele>23.634</ele>
<time>2018-01-23T23:57:02.500Z</time>
</trkpt>
<trkpt lat="-28.2677116" lon="153.4579766">
<ele>24.081</ele>
<time>2018-01-23T23:57:04.657Z</time>
</trkpt>
<trkpt lat="-28.2678735" lon="153.4582035">
<ele>23.611</ele>
<time>2018-01-23T23:57:06.597Z</time>
</trkpt>
<trkpt lat="-28.2680689" lon="153.4583809">
<ele>22.303</ele>
<time>2018-01-23T23:57:08.537Z</time>
</trkpt>
<trkpt lat="-28.2683322" lon="153.4584745">
<ele>20.882</ele>
<time>2018-01-23T23:57:10.703Z</time>
</trkpt>
<trkpt lat="-28.2686012" lon="153.4585049">
<ele>20.061</ele>
<time>2018-01-23T23:57:12.896Z</time>
</trkpt>
<trkpt lat="-28.2688593" lon="153.4584768">
<ele>19.488</ele>
<time>2018-01-23T23:57:15.053Z</time>
</trkpt>
<trkpt lat="-28.2691033" lon="153.4584937">
<ele>18.612</ele>
<time>2018-01-23T23:57:17.101Z</time>
</trkpt>
<trkpt lat="-28.2693338" lon="153.4584734">
<ele>17.718</ele>
<time>2018-01-23T23:57:19.026Z</time>
</trkpt>
<trkpt lat="-28.2695803" lon="153.4584198">
<ele>16.986</ele>
<time>2018-01-23T23:57:21.093Z</time>
</trkpt>
<trkpt lat="-28.2697866" lon="153.4582714">
<ele>16.111</ele>
<time>2018-01-23T23:57:23.074Z</time>
</trkpt>
<trkpt lat="-28.2699996" lon="153.4581259">
<ele>14.944</ele>
<time>2018-01-23T23:57:25.070Z</time>
</trkpt>
<trkpt lat="-28.2702018" lon="153.4579492">
<ele>13.190</ele>
<time>2018-01-23T23:57:27.162Z</time>
</trkpt>
<trkpt lat="-28.2703650" lon="153.4577305">
<ele>10.912</ele>
<time>2018-01-23T23:57:29.347Z</time>
</trkpt>
<trkpt lat="-28.2704432" lon="153.4574784">
<ele>8.946</ele>
<time>2018-01-23T23:57:31.583Z</time>
</trkpt>
<trkpt lat="-28.2705599" lon="153.4572977">
<ele>8.307</ele>
<time>2018-01-23T23:57:33.492Z</time>
</trkpt>
<trkpt lat="-28.2707513" lon="153.4572823">
<ele>9.116</ele>
<time>2018-01-23T23:57:35.209Z</time>
</trkpt>
<trkpt lat="-28.2709818" lon="153.4573358">
<ele>10.272</ele>
<time>2018-01-23T23:57:37.219Z</time>
</trkpt>
<trkpt lat="-28.2712235" lon="153.4573181">
<ele>10.857</ele>
<time>2018-01-23T23:57:39.285Z</time>
</trkpt>
<trkpt lat="-28.2714501" lon="153.4573048">
<ele>10.966</ele>
<time>2018-01-23T23:57:41.254Z</time>
</trkpt>
<trkpt lat="-28.2716733" lon="153.4572699">
<ele>11.085</ele>
<time>2018-01-23T23:57:43.203Z</time>
</trkpt>
<trkpt lat="-28.2718990" lon="153.4573491">
<ele>11.452</ele>
<time>2018-01-23T23:57:45.209Z</time>
</trkpt>
<trkpt lat="-28.2720834" lon="153.4575072">
<ele>11.718</ele>
<time>2018-01-23T23:57:47.138Z</time>
</trkpt>
<trkpt lat="-28.2722422" lon="153.4577034">
<ele>11.473</ele>
<time>2018-01-23T23:57:49.075Z</time>
</trkpt>
<trkpt lat="-28.2724432" lon="153.4578671">
<ele>10.865</ele>
<time>2018-01-23T23:57:51.132Z</time>
</trkpt>
<trkpt lat="-28.2726452" lon="153.4579933">
<ele>10.298</ele>
<time>2018-01-23T23:57:53.106Z</time>
</trkpt>
<trkpt lat="-28.2728188" lon="153.4581450">
<ele>9.936</ele>
<time>2018-01-23T23:57:55.010Z</time>
</trkpt>
<trkpt lat="-28.2729568" lon="153.4583371">
<ele>9.617</ele>
<time>2018-01-23T23:57:56.931Z</time>
</trkpt>
<trkpt lat="-28.2730479" lon="153.4585940">
<ele>9.083</ele>
<time>2018-01-23T23:57:59.104Z</time>
</trkpt>
<trkpt lat="-28.2730356" lon="153.4588696">
<ele>8.241</ele>
<time>2018-01-23T23:58:01.180Z</time>
</trkpt>
<trkpt lat="-28.2729308" lon="153.4591224">
<ele>7.247</ele>
<time>2018-01-23T23:58:03.133Z</time>
</trkpt>
<trkpt lat="-28.2728097" lon="153.4593716">
<ele>6.419</ele>
<time>2018-01-23T23:58:05.043Z</time>
</trkpt>
<trkpt lat="-28.2726611" lon="153.4596451">
<ele>6.051</ele>
<time>2018-01-23T23:58:07.207Z</time>
</trkpt>
<trkpt lat="-28.2725249" lon="153.4599219">
<ele>6.233</ele>
<time>2018-01-23T23:58:09.323Z</time>
</trkpt>
<trkpt lat="-28.2723990" lon="153.4601685">
<ele>6.808</ele>
<time>2018-01-23T23:58:11.107Z</time>
</trkpt>
<trkpt lat="-28.2721916" lon="153.4603862">
<ele>7.436</ele>
<time>2018-01-23T23:58:13.046Z</time>
</trkpt>
<trkpt lat="-28.2719361" lon="153.4605702">
<ele>7.648</ele>
<time>2018-01-23T23:58:15.190Z</time>
</trkpt>
<trkpt lat="-28.2717128" lon="153.4607416">
<ele>7.151</ele>
<time>2018-01-23T23:58:17.216Z</time>
</trkpt>
<trkpt lat="-28.2714840" lon="153.4608767">
<ele>6.143</ele>
<time>2018-01-23T23:58:19.159Z</time>
</trkpt>
<trkpt lat="-28.2712699" lon="153.4610379">
<ele>5.108</ele>
<time>2018-01-23T23:58:20.949Z</time>
</trkpt>
<trkpt lat="-28.2710280" lon="153.4612070">
<ele>4.385</ele>
<time>2018-01-23T23:58:22.704Z</time>
</trkpt>
<trkpt lat="-28.2707457" lon="153.4614130">
<ele>4.032</ele>
<time>2018-01-23T23:58:24.549Z</time>
</trkpt>
<trkpt lat="-28.2704142" lon="153.4617067">
<ele>3.930</ele>
<time>2018-01-23T23:58:26.715Z</time>
</trkpt>
<trkpt lat="-28.2701018" lon="153.4620252">
<ele>3.942</ele>
<time>2018-01-23T23:58:28.930Z</time>
</trkpt>
<trkpt lat="-28.2698533" lon="153.4623191">
<ele>3.983</ele>
<time>2018-01-23T23:58:30.917Z</time>
</trkpt>
<trkpt lat="-28.2696336" lon="153.4626179">
<ele>4.011</ele>
<time>2018-01-23T23:58:32.869Z</time>
</trkpt>
<trkpt lat="-28.2694680" lon="153.4629481">
<ele>4.007</ele>
<time>2018-01-23T23:58:34.801Z</time>
</trkpt>
<trkpt lat="-28.2693290" lon="153.4632944">
<ele>3.969</ele>
<time>2018-01-23T23:58:36.765Z</time>
</trkpt>
<trkpt lat="-28.2692146" lon="153.4636205">
<ele>3.938</ele>
<time>2018-01-23T23:58:38.608Z</time>
</trkpt>
<trkpt lat="-28.2691175" lon="153.4639606">
<ele>3.946</ele>
<time>2018-01-23T23:58:40.510Z</time>
</trkpt>
<trkpt lat="-28.2690360" lon="153.4643179">
<ele>3.976</ele>
<time>2018-01-23T23:58:42.495Z</time>
</trkpt>
<trkpt lat="-28.2689945" lon="153.4646947">
<ele>3.995</ele>
<time>2018-01-23T23:58:44.578Z</time>
</trkpt>
<trkpt lat="-28.2690163" lon="153.4650350">
<ele>3.995</ele>
<time>2018-01-23T23:58:46.491Z</time>
</trkpt>
<trkpt lat="-28.2690308" lon="153.4653544">
<ele>3.989</ele>
<time>2018-01-23T23:58:48.297Z</time>
</trkpt>
<trkpt lat="-28.2690980" lon="153.4656986">
<ele>3.992</ele>
<time>2018-01-23T23:58:50.283Z</time>
</trkpt>
<trkpt lat="-28.2691938" lon="153.4660282">
<ele>4.001</ele>
<time>2018-01-23T23:58:52.247Z</time>
</trkpt>
<trkpt lat="-28.2692746" lon="153.4663815">
<ele>4.003</ele>
<time>2018-01-23T23:58:54.310Z</time>
</trkpt>
<trkpt lat="-28.2694519" lon="153.4666545">
<ele>3.992</ele>
<time>2018-01-23T23:58:56.209Z</time>
</trkpt>
<trkpt lat="-28.2696673" lon="153.4669059">
<ele>3.981</ele>
<time>2018-01-23T23:58:58.209Z</time>
</trkpt>
<trkpt lat="-28.2699240" lon="153.4671219">
<ele>3.983</ele>
<time>2018-01-23T23:59:00.432Z</time>
</trkpt>
<trkpt lat="-28.2701702" lon="153.4672774">
<ele>4.073</ele>
<time>2018-01-23T23:59:02.634Z</time>
</trkpt>
<trkpt lat="-28.2703130" lon="153.4673781">
<ele>4.972</ele>
<time>2018-01-23T23:59:04.048Z</time>
</trkpt>
<trkpt lat="-28.2703366" lon="153.4676814">
<ele>6.967</ele>
<time>2018-01-23T23:59:06.132Z</time>
</trkpt>
<trkpt lat="-28.2703266" lon="153.4680485">
<ele>9.016</ele>
<time>2018-01-23T23:59:08.392Z</time>
</trkpt>
<trkpt lat="-28.2704282" lon="153.4683748">
<ele>10.221</ele>
<time>2018-01-23T23:59:10.554Z</time>
</trkpt>
<trkpt lat="-28.2705887" lon="153.4686279">
<ele>10.672</ele>
<time>2018-01-23T23:59:12.606Z</time>
</trkpt>
<trkpt lat="-28.2707114" lon="153.4688872">
<ele>10.505</ele>
<time>2018-01-23T23:59:14.615Z</time>
</trkpt>
<trkpt lat="-28.2707375" lon="153.4691812">
<ele>9.803</ele>
<time>2018-01-23T23:59:16.701Z</time>
</trkpt>
<trkpt lat="-28.2706499" lon="153.4694591">
<ele>8.829</ele>
<time>2018-01-23T23:59:18.938Z</time>
</trkpt>
<trkpt lat="-28.2705912" lon="153.4697151">
<ele>7.929</ele>
<time>2018-01-23T23:59:21.168Z</time>
</trkpt>
<trkpt lat="-28.2705483" lon="153.4699288">
<ele>7.267</ele>
<time>2018-01-23T23:59:23.250Z</time>
</trkpt>
<trkpt lat="-28.2705118" lon="153.4701021">
<ele>6.898</ele>
<time>2018-01-23T23:59:25.020Z</time>
</trkpt>
<trkpt lat="-28.2704533" lon="153.4702884">
<ele>6.720</ele>
<time>2018-01-23T23:59:26.848Z</time>
</trkpt>
<trkpt lat="-28.2702564" lon="153.4703740">
<ele>6.449</ele>
<time>2018-01-23T23:59:28.759Z</time>
</trkpt>
<trkpt lat="-28.2700025" lon="153.4703964">
<ele>5.913</ele>
<time>2018-01-23T23:59:30.804Z</time>
</trkpt>
<trkpt lat="-28.2697205" lon="153.4704027">
<ele>5.252</ele>
<time>2018-01-23T23:59:33.010Z</time>
</trkpt>
<trkpt lat="-28.2694820" lon="153.4704536">
<ele>4.709</ele>
<time>2018-01-23T23:59:34.981Z</time>
</trkpt>
<trkpt lat="-28.2692400" lon="153.4704766">
<ele>4.346</ele>
<time>2018-01-23T23:59:37.035Z</time>
</trkpt>
<trkpt lat="-28.2689963" lon="153.4705227">
<ele>4.132</ele>
<time>2018-01-23T23:59:39.232Z</time>
</trkpt>
<trkpt lat="-28.2687812" lon="153.4704707">
<ele>4.036</ele>
<time>2018-01-23T23:59:41.432Z</time>
</trkpt>
<trkpt lat="-28.2686385" lon="153.4703176">
<ele>4.008</ele>
<time>2018-01-23T23:59:43.782Z</time>
</trkpt>
<trkpt lat="-28.2685360" lon="153.4701596">
<ele>4.009</ele>
<time>2018-01-23T23:59:45.885Z</time>
</trkpt>
<trkpt lat="-28.2684842" lon="153.4700016">
<ele>4.015</ele>
<time>2018-01-23T23:59:47.271Z</time>
</trkpt>
<trkpt lat="-28.2685897" lon="153.4698228">
<ele>4.018</ele>
<time>2018-01-23T23:59:48.774Z</time>
</trkpt>
<trkpt lat="-28.2687937" lon="153.4695704">
<ele>4.019</ele>
<time>2018-01-23T23:59:50.786Z</time>
</trkpt>
<trkpt lat="-28.2689781" lon="153.4693138">
<ele>4.019</ele>
<time>2018-01-23T23:59:52.547Z</time>
</trkpt>
<trkpt lat="-28.2691917" lon="153.4689582">
<ele>4.130</ele>
<time>2018-01-23T23:59:54.758Z</time>
</trkpt>
<trkpt lat="-28.2693917" lon="153.4686729">
<ele>4.538</ele>
<time>2018-01-23T23:59:56.656Z</time>
</trkpt>
<trkpt lat="-28.2695710" lon="153.4684009">
<ele>5.556</ele>
<time>2018-01-23T23:59:58.476Z</time>
</trkpt>
<trkpt lat="-28.2697380" lon="153.4681211">
<ele>7.533</ele>
<time>2018-01-24T00:00:00.329Z</time>
</trkpt>
<trkpt lat="-28.2699284" lon="153.4678235">
<ele>9.979</ele>
<time>2018-01-24T00:00:02.380Z</time>
</trkpt>
<trkpt lat="-28.2701082" lon="153.4675208">
<ele>11.954</ele>
<time>2018-01-24T00:00:04.482Z</time>
</trkpt>
<trkpt lat="-28.2702551" lon="153.4672478">
<ele>13.483</ele>
<time>2018-01-24T00:00:06.410Z</time>
</trkpt>
<trkpt lat="-28.2704207" lon="153.4670282">
<ele>14.855</ele>
<time>2018-01-24T00:00:08.259Z</time>
</trkpt>
<trkpt lat="-28.2705840" lon="153.4668284">
<ele>15.300</ele>
<time>2018-01-24T00:00:10.161Z</time>
</trkpt>
<trkpt lat="-28.2707052" lon="153.4666403">
<ele>13.682</ele>
<time>2018-01-24T00:00:11.939Z</time>
</trkpt>
<trkpt lat="-28.2708027" lon="153.4664595">
<ele>10.241</ele>
<time>2018-01-24T00:00:13.807Z</time>
</trkpt>
<trkpt lat="-28.2709490" lon="153.4663225">
<ele>6.747</ele>
<time>2018-01-24T00:00:16.404Z</time>
</trkpt>
<trkpt lat="-28.2709955" lon="153.4662236">
<ele>4.604</ele>
<time>2018-01-24T00:00:18.434Z</time>
</trkpt>
<trkpt lat="-28.2711210" lon="153.4661506">
<ele>3.839</ele>
<time>2018-01-24T00:00:21.379Z</time>
</trkpt>
<trkpt lat="-28.2712768" lon="153.4662276">
<ele>3.938</ele>
<time>2018-01-24T00:00:23.909Z</time>
</trkpt>
<trkpt lat="-28.2713992" lon="153.4664027">
<ele>4.413</ele>
<time>2018-01-24T00:00:25.935Z</time>
</trkpt>
<trkpt lat="-28.2715507" lon="153.4665792">
<ele>4.858</ele>
<time>2018-01-24T00:00:27.846Z</time>
</trkpt>
<trkpt lat="-28.2717217" lon="153.4667373">
<ele>4.988</ele>
<time>2018-01-24T00:00:29.717Z</time>
</trkpt>
<trkpt lat="-28.2718302" lon="153.4669621">
<ele>4.775</ele>
<time>2018-01-24T00:00:31.680Z</time>
</trkpt>
<trkpt lat="-28.2719152" lon="153.4671730">
<ele>4.418</ele>
<time>2018-01-24T00:00:33.622Z</time>
</trkpt>
<trkpt lat="-28.2719853" lon="153.4673159">
<ele>4.145</ele>
<time>2018-01-24T00:00:35.168Z</time>
</trkpt>
<trkpt lat="-28.2720618" lon="153.4674882">
<ele>4.016</ele>
<time>2018-01-24T00:00:37.224Z</time>
</trkpt>
<trkpt lat="-28.2721244" lon="153.4676139">
<ele>3.986</ele>
<time>2018-01-24T00:00:38.996Z</time>
</trkpt>
<trkpt lat="-28.2722323" lon="153.4677180">
<ele>3.997</ele>
<time>2018-01-24T00:00:41.285Z</time>
</trkpt>
<trkpt lat="-28.2723280" lon="153.4678370">
<ele>4.011</ele>
<time>2018-01-24T00:00:43.828Z</time>
</trkpt>
<trkpt lat="-28.2723284" lon="153.4679779">
<ele>4.019</ele>
<time>2018-01-24T00:00:46.117Z</time>
</trkpt>
<trkpt lat="-28.2723155" lon="153.4681219">
<ele>4.020</ele>
<time>2018-01-24T00:00:48.299Z</time>
</trkpt>
<trkpt lat="-28.2722996" lon="153.4682498">
<ele>4.019</ele>
<time>2018-01-24T00:00:50.221Z</time>
</trkpt>
<trkpt lat="-28.2722902" lon="153.4683641">
<ele>4.017</ele>
<time>2018-01-24T00:00:52.021Z</time>
</trkpt>
<trkpt lat="-28.2723323" lon="153.4684650">
<ele>4.017</ele>
<time>2018-01-24T00:00:54.017Z</time>
</trkpt>
<trkpt lat="-28.2723664" lon="153.4685695">
<ele>4.016</ele>
<time>2018-01-24T00:00:56.242Z</time>
</trkpt>
<trkpt lat="-28.2723823" lon="153.4686934">
<ele>4.017</ele>
<time>2018-01-24T00:00:59.003Z</time>
</trkpt>
<trkpt lat="-28.2723823" lon="153.4686934">
<ele>4.017</ele>
<time>2018-01-24T00:01:06.003Z</time>
</trkpt>
<trkpt lat="-28.2723823" lon="153.4686934">
<ele>4.016</ele>
<time>2018-01-24T00:08:38.897Z</time>
</trkpt>
<trkpt lat="-28.2725593" lon="153.4688957">
<ele>4.014</ele>
<time>2018-01-24T00:08:55.619Z</time>
</trkpt>
<trkpt lat="-28.2726307" lon="153.4690181">
<ele>4.013</ele>
<time>2018-01-24T00:08:57.221Z</time>
</trkpt>
<trkpt lat="-28.2726751" lon="153.4692602">
<ele>4.014</ele>
<time>2018-01-24T00:08:59.232Z</time>
</trkpt>
<trkpt lat="-28.2726940" lon="153.4695497">
<ele>4.016</ele>
<time>2018-01-24T00:09:01.267Z</time>
</trkpt>
<trkpt lat="-28.2727013" lon="153.4698808">
<ele>4.017</ele>
<time>2018-01-24T00:09:03.361Z</time>
</trkpt>
<trkpt lat="-28.2727081" lon="153.4702135">
<ele>4.017</ele>
<time>2018-01-24T00:09:05.317Z</time>
</trkpt>
<trkpt lat="-28.2727059" lon="153.4705607">
<ele>4.108</ele>
<time>2018-01-24T00:09:07.239Z</time>
</trkpt>
<trkpt lat="-28.2726896" lon="153.4709378">
<ele>4.407</ele>
<time>2018-01-24T00:09:09.235Z</time>
</trkpt>
<trkpt lat="-28.2726837" lon="153.4713371">
<ele>4.837</ele>
<time>2018-01-24T00:09:11.286Z</time>
</trkpt>
<trkpt lat="-28.2726252" lon="153.4717328">
<ele>5.181</ele>
<time>2018-01-24T00:09:13.271Z</time>
</trkpt>
<trkpt lat="-28.2725305" lon="153.4721468">
<ele>5.303</ele>
<time>2018-01-24T00:09:15.336Z</time>
</trkpt>
<trkpt lat="-28.2724514" lon="153.4725420">
<ele>5.146</ele>
<time>2018-01-24T00:09:17.305Z</time>
</trkpt>
<trkpt lat="-28.2723344" lon="153.4729442">
<ele>4.769</ele>
<time>2018-01-24T00:09:19.397Z</time>
</trkpt>
<trkpt lat="-28.2722530" lon="153.4733325">
<ele>4.369</ele>
<time>2018-01-24T00:09:21.376Z</time>
</trkpt>
<trkpt lat="-28.2721576" lon="153.4737223">
<ele>4.111</ele>
<time>2018-01-24T00:09:23.408Z</time>
</trkpt>
<trkpt lat="-28.2720254" lon="153.4742652">
<ele>4.004</ele>
<time>2018-01-24T00:09:26.388Z</time>
</trkpt>
<trkpt lat="-28.2719014" lon="153.4747653">
<ele>3.986</ele>
<time>2018-01-24T00:09:29.284Z</time>
</trkpt>
<trkpt lat="-28.2718316" lon="153.4752987">
<ele>3.998</ele>
<time>2018-01-24T00:09:32.295Z</time>
</trkpt>
<trkpt lat="-28.2718052" lon="153.4758384">
<ele>4.011</ele>
<time>2018-01-24T00:09:35.228Z</time>
</trkpt>
<trkpt lat="-28.2718024" lon="153.4763996">
<ele>4.017</ele>
<time>2018-01-24T00:09:38.169Z</time>
</trkpt>
<trkpt lat="-28.2718778" lon="153.4769961">
<ele>4.033</ele>
<time>2018-01-24T00:09:41.239Z</time>
</trkpt>
<trkpt lat="-28.2720246" lon="153.4775630">
<ele>4.078</ele>
<time>2018-01-24T00:09:44.215Z</time>
</trkpt>
<trkpt lat="-28.2721769" lon="153.4781339">
<ele>4.141</ele>
<time>2018-01-24T00:09:47.215Z</time>
</trkpt>
<trkpt lat="-28.2723390" lon="153.4786828">
<ele>4.168</ele>
<time>2018-01-24T00:09:50.103Z</time>
</trkpt>
<trkpt lat="-28.2725293" lon="153.4792750">
<ele>4.132</ele>
<time>2018-01-24T00:09:53.207Z</time>
</trkpt>
<trkpt lat="-28.2726961" lon="153.4798541">
<ele>4.070</ele>
<time>2018-01-24T00:09:56.172Z</time>
</trkpt>
<trkpt lat="-28.2728350" lon="153.4804585">
<ele>4.026</ele>
<time>2018-01-24T00:09:59.094Z</time>
</trkpt>
<trkpt lat="-28.2729768" lon="153.4811132">
<ele>4.009</ele>
<time>2018-01-24T00:10:01.951Z</time>
</trkpt>
<trkpt lat="-28.2731208" lon="153.4819109">
<ele>4.009</ele>
<time>2018-01-24T00:10:05.077Z</time>
</trkpt>
<trkpt lat="-28.2731759" lon="153.4827102">
<ele>4.013</ele>
<time>2018-01-24T00:10:08.086Z</time>
</trkpt>
<trkpt lat="-28.2731728" lon="153.4834634">
<ele>4.016</ele>
<time>2018-01-24T00:10:11.009Z</time>
</trkpt>
<trkpt lat="-28.2731905" lon="153.4841803">
<ele>4.017</ele>
<time>2018-01-24T00:10:13.872Z</time>
</trkpt>
<trkpt lat="-28.2732450" lon="153.4848992">
<ele>4.017</ele>
<time>2018-01-24T00:10:16.794Z</time>
</trkpt>
<trkpt lat="-28.2732960" lon="153.4856126">
<ele>4.017</ele>
<time>2018-01-24T00:10:19.768Z</time>
</trkpt>
<trkpt lat="-28.2734188" lon="153.4862819">
<ele>4.017</ele>
<time>2018-01-24T00:10:22.704Z</time>
</trkpt>
<trkpt lat="-28.2737169" lon="153.4868934">
<ele>4.017</ele>
<time>2018-01-24T00:10:25.759Z</time>
</trkpt>
<trkpt lat="-28.2739745" lon="153.4872402">
<ele>4.017</ele>
<time>2018-01-24T00:10:27.723Z</time>
</trkpt>
<trkpt lat="-28.2742690" lon="153.4875805">
<ele>4.017</ele>
<time>2018-01-24T00:10:29.754Z</time>
</trkpt>
<trkpt lat="-28.2745846" lon="153.4878706">
<ele>4.002</ele>
<time>2018-01-24T00:10:31.715Z</time>
</trkpt>
<trkpt lat="-28.2748927" lon="153.4881826">
<ele>3.961</ele>
<time>2018-01-24T00:10:33.737Z</time>
</trkpt>
<trkpt lat="-28.2751720" lon="153.4884751">
<ele>3.913</ele>
<time>2018-01-24T00:10:35.644Z</time>
</trkpt>
<trkpt lat="-28.2754081" lon="153.4887971">
<ele>3.905</ele>
<time>2018-01-24T00:10:37.536Z</time>
</trkpt>
<trkpt lat="-28.2756198" lon="153.4891683">
<ele>3.971</ele>
<time>2018-01-24T00:10:39.565Z</time>
</trkpt>
<trkpt lat="-28.2757541" lon="153.4895584">
<ele>4.139</ele>
<time>2018-01-24T00:10:41.502Z</time>
</trkpt>
<trkpt lat="-28.2758578" lon="153.4899849">
<ele>4.377</ele>
<time>2018-01-24T00:10:43.529Z</time>
</trkpt>
<trkpt lat="-28.2759303" lon="153.4904244">
<ele>4.583</ele>
<time>2018-01-24T00:10:45.551Z</time>
</trkpt>
<trkpt lat="-28.2759360" lon="153.4908518">
<ele>4.683</ele>
<time>2018-01-24T00:10:47.457Z</time>
</trkpt>
<trkpt lat="-28.2758823" lon="153.4913029">
<ele>4.713</ele>
<time>2018-01-24T00:10:49.467Z</time>
</trkpt>
<trkpt lat="-28.2758519" lon="153.4917427">
<ele>4.886</ele>
<time>2018-01-24T00:10:51.439Z</time>
</trkpt>
<trkpt lat="-28.2758248" lon="153.4921514">
<ele>5.395</ele>
<time>2018-01-24T00:10:53.303Z</time>
</trkpt>
<trkpt lat="-28.2758044" lon="153.4925896">
<ele>6.277</ele>
<time>2018-01-24T00:10:55.300Z</time>
</trkpt>
<trkpt lat="-28.2758029" lon="153.4930230">
<ele>7.309</ele>
<time>2018-01-24T00:10:57.258Z</time>
</trkpt>
<trkpt lat="-28.2757941" lon="153.4934703">
<ele>8.058</ele>
<time>2018-01-24T00:10:59.267Z</time>
</trkpt>
<trkpt lat="-28.2758084" lon="153.4939124">
<ele>8.301</ele>
<time>2018-01-24T00:11:01.243Z</time>
</trkpt>
<trkpt lat="-28.2758353" lon="153.4943725">
<ele>8.250</ele>
<time>2018-01-24T00:11:03.307Z</time>
</trkpt>
<trkpt lat="-28.2758710" lon="153.4948157">
<ele>8.224</ele>
<time>2018-01-24T00:11:05.310Z</time>
</trkpt>
<trkpt lat="-28.2759066" lon="153.4952483">
<ele>8.374</ele>
<time>2018-01-24T00:11:07.269Z</time>
</trkpt>
<trkpt lat="-28.2759720" lon="153.4956720">
<ele>8.569</ele>
<time>2018-01-24T00:11:09.216Z</time>
</trkpt>
<trkpt lat="-28.2759794" lon="153.4961065">
<ele>8.609</ele>
<time>2018-01-24T00:11:11.196Z</time>
</trkpt>
<trkpt lat="-28.2760308" lon="153.4965396">
<ele>8.364</ele>
<time>2018-01-24T00:11:13.202Z</time>
</trkpt>
<trkpt lat="-28.2760544" lon="153.4969566">
<ele>7.907</ele>
<time>2018-01-24T00:11:15.173Z</time>
</trkpt>
<trkpt lat="-28.2760841" lon="153.4973122">
<ele>7.500</ele>
<time>2018-01-24T00:11:16.973Z</time>
</trkpt>
<trkpt lat="-28.2760955" lon="153.4976065">
<ele>7.238</ele>
<time>2018-01-24T00:11:18.639Z</time>
</trkpt>
<trkpt lat="-28.2761029" lon="153.4978049">
<ele>6.959</ele>
<time>2018-01-24T00:11:19.910Z</time>
</trkpt>
<trkpt lat="-28.2760956" lon="153.4979351">
<ele>6.611</ele>
<time>2018-01-24T00:11:21.053Z</time>
</trkpt>
<trkpt lat="-28.2761228" lon="153.4980433">
<ele>6.312</ele>
<time>2018-01-24T00:11:22.109Z</time>
</trkpt>
<trkpt lat="-28.2761272" lon="153.4981679">
<ele>6.125</ele>
<time>2018-01-24T00:11:23.819Z</time>
</trkpt>
<trkpt lat="-28.2760949" lon="153.4982896">
<ele>6.002</ele>
<time>2018-01-24T00:11:26.184Z</time>
</trkpt>
<trkpt lat="-28.2760199" lon="153.4984780">
<ele>5.917</ele>
<time>2018-01-24T00:11:29.947Z</time>
</trkpt>
<trkpt lat="-28.2759546" lon="153.4987576">
<ele>5.887</ele>
<time>2018-01-24T00:11:32.898Z</time>
</trkpt>
<trkpt lat="-28.2758987" lon="153.4990941">
<ele>5.953</ele>
<time>2018-01-24T00:11:35.193Z</time>
</trkpt>
<trkpt lat="-28.2758010" lon="153.4994800">
<ele>6.190</ele>
<time>2018-01-24T00:11:37.458Z</time>
</trkpt>
<trkpt lat="-28.2756642" lon="153.4998387">
<ele>6.565</ele>
<time>2018-01-24T00:11:39.502Z</time>
</trkpt>
<trkpt lat="-28.2754966" lon="153.5002156">
<ele>6.862</ele>
<time>2018-01-24T00:11:41.597Z</time>
</trkpt>
<trkpt lat="-28.2753215" lon="153.5006063">
<ele>6.952</ele>
<time>2018-01-24T00:11:43.647Z</time>
</trkpt>
<trkpt lat="-28.2751617" lon="153.5010162">
<ele>6.935</ele>
<time>2018-01-24T00:11:45.645Z</time>
</trkpt>
<trkpt lat="-28.2750242" lon="153.5014385">
<ele>6.990</ele>
<time>2018-01-24T00:11:47.619Z</time>
</trkpt>
<trkpt lat="-28.2749191" lon="153.5018660">
<ele>7.172</ele>
<time>2018-01-24T00:11:49.557Z</time>
</trkpt>
<trkpt lat="-28.2748128" lon="153.5023099">
<ele>7.403</ele>
<time>2018-01-24T00:11:51.532Z</time>
</trkpt>
<trkpt lat="-28.2747857" lon="153.5028110">
<ele>7.641</ele>
<time>2018-01-24T00:11:53.624Z</time>
</trkpt>
<trkpt lat="-28.2747610" lon="153.5033017">
<ele>7.864</ele>
<time>2018-01-24T00:11:55.647Z</time>
</trkpt>
<trkpt lat="-28.2747759" lon="153.5037567">
<ele>7.931</ele>
<time>2018-01-24T00:11:57.538Z</time>
</trkpt>
<trkpt lat="-28.2747488" lon="153.5042184">
<ele>7.723</ele>
<time>2018-01-24T00:11:59.480Z</time>
</trkpt>
<trkpt lat="-28.2746899" lon="153.5046436">
<ele>7.301</ele>
<time>2018-01-24T00:12:01.301Z</time>
</trkpt>
<trkpt lat="-28.2746434" lon="153.5050933">
<ele>6.777</ele>
<time>2018-01-24T00:12:03.249Z</time>
</trkpt>
<trkpt lat="-28.2746167" lon="153.5055472">
<ele>6.185</ele>
<time>2018-01-24T00:12:05.259Z</time>
</trkpt>
<trkpt lat="-28.2745421" lon="153.5059774">
<ele>5.616</ele>
<time>2018-01-24T00:12:07.263Z</time>
</trkpt>
<trkpt lat="-28.2744308" lon="153.5063453">
<ele>5.228</ele>
<time>2018-01-24T00:12:09.121Z</time>
</trkpt>
<trkpt lat="-28.2743105" lon="153.5066482">
<ele>5.089</ele>
<time>2018-01-24T00:12:10.837Z</time>
</trkpt>
<trkpt lat="-28.2741978" lon="153.5069201">
<ele>5.187</ele>
<time>2018-01-24T00:12:12.537Z</time>
</trkpt>
<trkpt lat="-28.2741010" lon="153.5071462">
<ele>5.480</ele>
<time>2018-01-24T00:12:14.098Z</time>
</trkpt>
<trkpt lat="-28.2739825" lon="153.5073532">
<ele>5.862</ele>
<time>2018-01-24T00:12:15.784Z</time>
</trkpt>
<trkpt lat="-28.2738567" lon="153.5075224">
<ele>6.199</ele>
<time>2018-01-24T00:12:17.459Z</time>
</trkpt>
<trkpt lat="-28.2737400" lon="153.5076447">
<ele>6.450</ele>
<time>2018-01-24T00:12:18.943Z</time>
</trkpt>
<trkpt lat="-28.2736603" lon="153.5077396">
<ele>6.684</ele>
<time>2018-01-24T00:12:20.165Z</time>
</trkpt>
<trkpt lat="-28.2735967" lon="153.5078280">
<ele>6.920</ele>
<time>2018-01-24T00:12:21.290Z</time>
</trkpt>
<trkpt lat="-28.2735598" lon="153.5079414">
<ele>7.013</ele>
<time>2018-01-24T00:12:22.693Z</time>
</trkpt>
<trkpt lat="-28.2736338" lon="153.5080787">
<ele>6.874</ele>
<time>2018-01-24T00:12:25.401Z</time>
</trkpt>
<trkpt lat="-28.2737430" lon="153.5081767">
<ele>6.593</ele>
<time>2018-01-24T00:12:28.643Z</time>
</trkpt>
<trkpt lat="-28.2738717" lon="153.5082802">
<ele>6.215</ele>
<time>2018-01-24T00:12:31.937Z</time>
</trkpt>
<trkpt lat="-28.2740297" lon="153.5084486">
<ele>5.673</ele>
<time>2018-01-24T00:12:35.210Z</time>
</trkpt>
<trkpt lat="-28.2742306" lon="153.5086011">
<ele>4.987</ele>
<time>2018-01-24T00:12:37.900Z</time>
</trkpt>
<trkpt lat="-28.2744374" lon="153.5087911">
<ele>4.364</ele>
<time>2018-01-24T00:12:40.215Z</time>
</trkpt>
<trkpt lat="-28.2746686" lon="153.5089242">
<ele>4.135</ele>
<time>2018-01-24T00:12:42.213Z</time>
</trkpt>
<trkpt lat="-28.2749692" lon="153.5089890">
<ele>4.415</ele>
<time>2018-01-24T00:12:44.436Z</time>
</trkpt>
<trkpt lat="-28.2753349" lon="153.5089866">
<ele>4.944</ele>
<time>2018-01-24T00:12:46.823Z</time>
</trkpt>
<trkpt lat="-28.2756589" lon="153.5090515">
<ele>5.564</ele>
<time>2018-01-24T00:12:48.789Z</time>
</trkpt>
<trkpt lat="-28.2759785" lon="153.5091378">
<ele>6.550</ele>
<time>2018-01-24T00:12:50.787Z</time>
</trkpt>
<trkpt lat="-28.2763131" lon="153.5093108">
<ele>8.124</ele>
<time>2018-01-24T00:12:53.046Z</time>
</trkpt>
<trkpt lat="-28.2766063" lon="153.5095071">
<ele>10.003</ele>
<time>2018-01-24T00:12:55.120Z</time>
</trkpt>
<trkpt lat="-28.2768807" lon="153.5096812">
<ele>12.002</ele>
<time>2018-01-24T00:12:57.072Z</time>
</trkpt>
<trkpt lat="-28.2771240" lon="153.5098439">
<ele>14.384</ele>
<time>2018-01-24T00:12:58.897Z</time>
</trkpt>
<trkpt lat="-28.2773153" lon="153.5100987">
<ele>16.823</ele>
<time>2018-01-24T00:13:00.932Z</time>
</trkpt>
<trkpt lat="-28.2773524" lon="153.5105035">
<ele>18.816</ele>
<time>2018-01-24T00:13:03.249Z</time>
</trkpt>
<trkpt lat="-28.2773365" lon="153.5109242">
<ele>20.465</ele>
<time>2018-01-24T00:13:05.404Z</time>
</trkpt>
<trkpt lat="-28.2772853" lon="153.5113332">
<ele>21.687</ele>
<time>2018-01-24T00:13:07.532Z</time>
</trkpt>
<trkpt lat="-28.2773675" lon="153.5117033">
<ele>22.207</ele>
<time>2018-01-24T00:13:09.595Z</time>
</trkpt>
<trkpt lat="-28.2774775" lon="153.5120399">
<ele>24.509</ele>
<time>2018-01-24T00:13:11.601Z</time>
</trkpt>
<trkpt lat="-28.2775159" lon="153.5123723">
<ele>30.280</ele>
<time>2018-01-24T00:13:13.496Z</time>
</trkpt>
<trkpt lat="-28.2774410" lon="153.5127540">
<ele>35.506</ele>
<time>2018-01-24T00:13:15.689Z</time>
</trkpt>
<trkpt lat="-28.2773301" lon="153.5130765">
<ele>36.460</ele>
<time>2018-01-24T00:13:17.637Z</time>
</trkpt>
<trkpt lat="-28.2771261" lon="153.5133148">
<ele>37.643</ele>
<time>2018-01-24T00:13:19.617Z</time>
</trkpt>
<trkpt lat="-28.2769739" lon="153.5135246">
<ele>44.121</ele>
<time>2018-01-24T00:13:21.406Z</time>
</trkpt>
<trkpt lat="-28.2769067" lon="153.5137376">
<ele>53.137</ele>
<time>2018-01-24T00:13:23.101Z</time>
</trkpt>
<trkpt lat="-28.2770843" lon="153.5139659">
<ele>59.210</ele>
<time>2018-01-24T00:13:25.654Z</time>
</trkpt>
<trkpt lat="-28.2773341" lon="153.5142122">
<ele>61.332</ele>
<time>2018-01-24T00:13:28.030Z</time>
</trkpt>
<trkpt lat="-28.2776743" lon="153.5144721">
<ele>61.290</ele>
<time>2018-01-24T00:13:30.325Z</time>
</trkpt>
<trkpt lat="-28.2780233" lon="153.5147451">
<ele>60.824</ele>
<time>2018-01-24T00:13:32.489Z</time>
</trkpt>
<trkpt lat="-28.2782507" lon="153.5150951">
<ele>60.505</ele>
<time>2018-01-24T00:13:34.492Z</time>
</trkpt>
<trkpt lat="-28.2784082" lon="153.5154440">
<ele>60.184</ele>
<time>2018-01-24T00:13:36.439Z</time>
</trkpt>
<trkpt lat="-28.2785084" lon="153.5157957">
<ele>59.660</ele>
<time>2018-01-24T00:13:38.400Z</time>
</trkpt>
<trkpt lat="-28.2785737" lon="153.5161296">
<ele>58.877</ele>
<time>2018-01-24T00:13:40.335Z</time>
</trkpt>
<trkpt lat="-28.2785137" lon="153.5164523">
<ele>57.915</ele>
<time>2018-01-24T00:13:42.298Z</time>
</trkpt>
<trkpt lat="-28.2783364" lon="153.5167474">
<ele>56.734</ele>
<time>2018-01-24T00:13:44.468Z</time>
</trkpt>
<trkpt lat="-28.2780847" lon="153.5169242">
<ele>55.448</ele>
<time>2018-01-24T00:13:46.656Z</time>
</trkpt>
<trkpt lat="-28.2779260" lon="153.5171103">
<ele>54.966</ele>
<time>2018-01-24T00:13:48.558Z</time>
</trkpt>
<trkpt lat="-28.2780137" lon="153.5173972">
<ele>56.016</ele>
<time>2018-01-24T00:13:50.584Z</time>
</trkpt>
<trkpt lat="-28.2781579" lon="153.5177329">
<ele>57.901</ele>
<time>2018-01-24T00:13:52.596Z</time>
</trkpt>
<trkpt lat="-28.2783520" lon="153.5181385">
<ele>59.633</ele>
<time>2018-01-24T00:13:54.702Z</time>
</trkpt>
<trkpt lat="-28.2785773" lon="153.5185660">
<ele>61.179</ele>
<time>2018-01-24T00:13:56.699Z</time>
</trkpt>
<trkpt lat="-28.2788512" lon="153.5190429">
<ele>62.819</ele>
<time>2018-01-24T00:13:58.835Z</time>
</trkpt>
<trkpt lat="-28.2790926" lon="153.5194900">
<ele>64.333</ele>
<time>2018-01-24T00:14:00.787Z</time>
</trkpt>
<trkpt lat="-28.2793471" lon="153.5198732">
<ele>64.752</ele>
<time>2018-01-24T00:14:02.635Z</time>
</trkpt>
<trkpt lat="-28.2796282" lon="153.5202774">
<ele>63.037</ele>
<time>2018-01-24T00:14:04.709Z</time>
</trkpt>
<trkpt lat="-28.2798578" lon="153.5206258">
<ele>59.531</ele>
<time>2018-01-24T00:14:06.581Z</time>
</trkpt>
<trkpt lat="-28.2800915" lon="153.5209472">
<ele>55.729</ele>
<time>2018-01-24T00:14:08.532Z</time>
</trkpt>
<trkpt lat="-28.2803203" lon="153.5212239">
<ele>52.747</ele>
<time>2018-01-24T00:14:10.368Z</time>
</trkpt>
<trkpt lat="-28.2806503" lon="153.5214342">
<ele>50.906</ele>
<time>2018-01-24T00:14:12.395Z</time>
</trkpt>
<trkpt lat="-28.2810354" lon="153.5214923">
<ele>49.838</ele>
<time>2018-01-24T00:14:14.479Z</time>
</trkpt>
<trkpt lat="-28.2813782" lon="153.5215552">
<ele>48.998</ele>
<time>2018-01-24T00:14:16.421Z</time>
</trkpt>
<trkpt lat="-28.2817307" lon="153.5216526">
<ele>48.637</ele>
<time>2018-01-24T00:14:18.551Z</time>
</trkpt>
<trkpt lat="-28.2820004" lon="153.5218438">
<ele>49.198</ele>
<time>2018-01-24T00:14:20.527Z</time>
</trkpt>
<trkpt lat="-28.2822980" lon="153.5219834">
<ele>50.207</ele>
<time>2018-01-24T00:14:22.677Z</time>
</trkpt>
<trkpt lat="-28.2825516" lon="153.5220891">
<ele>51.758</ele>
<time>2018-01-24T00:14:24.675Z</time>
</trkpt>
<trkpt lat="-28.2827846" lon="153.5221008">
<ele>54.412</ele>
<time>2018-01-24T00:14:26.619Z</time>
</trkpt>
<trkpt lat="-28.2830112" lon="153.5220556">
<ele>57.355</ele>
<time>2018-01-24T00:14:28.871Z</time>
</trkpt>
<trkpt lat="-28.2831744" lon="153.5220271">
<ele>59.343</ele>
<time>2018-01-24T00:14:31.181Z</time>
</trkpt>
<trkpt lat="-28.2833020" lon="153.5220680">
<ele>60.361</ele>
<time>2018-01-24T00:14:34.170Z</time>
</trkpt>
<trkpt lat="-28.2834003" lon="153.5220674">
<ele>60.839</ele>
<time>2018-01-24T00:14:37.002Z</time>
</trkpt>
<trkpt lat="-28.2834003" lon="153.5220674">
<ele>61.027</ele>
<time>2018-01-24T00:14:42.002Z</time>
</trkpt>
<trkpt lat="-28.2834003" lon="153.5220674">
<ele>61.037</ele>
<time>2018-01-24T00:14:45.951Z</time>
</trkpt>
<trkpt lat="-28.2835144" lon="153.5221843">
<ele>60.967</ele>
<time>2018-01-24T00:14:52.902Z</time>
</trkpt>
<trkpt lat="-28.2836282" lon="153.5221711">
<ele>60.835</ele>
<time>2018-01-24T00:14:55.844Z</time>
</trkpt>
<trkpt lat="-28.2837454" lon="153.5221600">
<ele>60.644</ele>
<time>2018-01-24T00:14:58.699Z</time>
</trkpt>
<trkpt lat="-28.2838633" lon="153.5221616">
<ele>60.376</ele>
<time>2018-01-24T00:15:01.707Z</time>
</trkpt>
<trkpt lat="-28.2839686" lon="153.5221830">
<ele>59.955</ele>
<time>2018-01-24T00:15:04.800Z</time>
</trkpt>
<trkpt lat="-28.2840098" lon="153.5222944">
<ele>59.330</ele>
<time>2018-01-24T00:15:08.752Z</time>
</trkpt>
<trkpt lat="-28.2840264" lon="153.5224184">
<ele>58.647</ele>
<time>2018-01-24T00:15:13.002Z</time>
</trkpt>
<trkpt lat="-28.2840264" lon="153.5224184">
<ele>58.166</ele>
<time>2018-01-24T00:15:26.003Z</time>
</trkpt>
<trkpt lat="-28.2840264" lon="153.5224184">
<ele>57.986</ele>
<time>2018-01-24T00:15:31.675Z</time>
</trkpt>
<trkpt lat="-28.2841057" lon="153.5226224">
<ele>57.992</ele>
<time>2018-01-24T00:15:42.363Z</time>
</trkpt>
<trkpt lat="-28.2840706" lon="153.5227531">
<ele>57.865</ele>
<time>2018-01-24T00:15:45.738Z</time>
</trkpt>
<trkpt lat="-28.2840574" lon="153.5228917">
<ele>57.334</ele>
<time>2018-01-24T00:15:49.990Z</time>
</trkpt>
<trkpt lat="-28.2841288" lon="153.5229878">
<ele>56.406</ele>
<time>2018-01-24T00:15:54.610Z</time>
</trkpt>
<trkpt lat="-28.2841538" lon="153.5228441">
<ele>55.052</ele>
<time>2018-01-24T00:15:56.992Z</time>
</trkpt>
<trkpt lat="-28.2841367" lon="153.5226975">
<ele>53.486</ele>
<time>2018-01-24T00:15:58.705Z</time>
</trkpt>
<trkpt lat="-28.2840923" lon="153.5225426">
<ele>52.531</ele>
<time>2018-01-24T00:16:00.585Z</time>
</trkpt>
<trkpt lat="-28.2840452" lon="153.5224133">
<ele>52.736</ele>
<time>2018-01-24T00:16:02.456Z</time>
</trkpt>
<trkpt lat="-28.2840214" lon="153.5223047">
<ele>53.855</ele>
<time>2018-01-24T00:16:04.508Z</time>
</trkpt>
<trkpt lat="-28.2839863" lon="153.5221940">
<ele>55.352</ele>
<time>2018-01-24T00:16:07.003Z</time>
</trkpt>
<trkpt lat="-28.2839863" lon="153.5221940">
<ele>56.672</ele>
<time>2018-01-24T00:16:11.003Z</time>
</trkpt>
<trkpt lat="-28.2839863" lon="153.5221940">
<ele>57.309</ele>
<time>2018-01-24T00:16:18.252Z</time>
</trkpt>
<trkpt lat="-28.2838167" lon="153.5221810">
<ele>57.220</ele>
<time>2018-01-24T00:16:24.964Z</time>
</trkpt>
<trkpt lat="-28.2837266" lon="153.5221632">
<ele>57.093</ele>
<time>2018-01-24T00:16:27.171Z</time>
</trkpt>
<trkpt lat="-28.2836178" lon="153.5221777">
<ele>57.492</ele>
<time>2018-01-24T00:16:30.048Z</time>
</trkpt>
<trkpt lat="-28.2835091" lon="153.5221742">
<ele>58.245</ele>
<time>2018-01-24T00:16:33.447Z</time>
</trkpt>
<trkpt lat="-28.2834026" lon="153.5221838">
<ele>59.020</ele>
<time>2018-01-24T00:16:37.794Z</time>
</trkpt>
<trkpt lat="-28.2833179" lon="153.5222194">
<ele>59.712</ele>
<time>2018-01-24T00:16:42.002Z</time>
</trkpt>
<trkpt lat="-28.2833179" lon="153.5222194">
<ele>60.210</ele>
<time>2018-01-24T00:16:46.001Z</time>
</trkpt>
<trkpt lat="-28.2833179" lon="153.5222194">
<ele>60.412</ele>
<time>2018-01-24T00:21:29.576Z</time>
</trkpt>
<trkpt lat="-28.2833496" lon="153.5222414">
<ele>60.963</ele>
<time>2018-01-24T00:21:45.001Z</time>
</trkpt>
<trkpt lat="-28.2833496" lon="153.5222414">
<ele>60.935</ele>
<time>2018-01-24T00:21:49.001Z</time>
</trkpt>
<trkpt lat="-28.2833496" lon="153.5222414">
<ele>60.919</ele>
<time>2018-01-24T00:21:55.360Z</time>
</trkpt>
<trkpt lat="-28.2835177" lon="153.5222432">
<ele>60.902</ele>
<time>2018-01-24T00:22:51.999Z</time>
</trkpt>
<trkpt lat="-28.2835177" lon="153.5222432">
<ele>60.880</ele>
<time>2018-01-24T00:22:54.999Z</time>
</trkpt>
<trkpt lat="-28.2835177" lon="153.5222432">
<ele>60.860</ele>
<time>2018-01-24T00:22:58.078Z</time>
</trkpt>
<trkpt lat="-28.2836354" lon="153.5224144">
<ele>60.840</ele>
<time>2018-01-24T00:23:24.999Z</time>
</trkpt>
<trkpt lat="-28.2836354" lon="153.5224144">
<ele>60.816</ele>
<time>2018-01-24T00:23:38.999Z</time>
</trkpt>
<trkpt lat="-28.2836354" lon="153.5224144">
<ele>60.787</ele>
<time>2018-01-24T00:24:42.997Z</time>
</trkpt>
<trkpt lat="-28.2835370" lon="153.5225250">
<ele>59.515</ele>
<time>2018-01-24T00:24:51.997Z</time>
</trkpt>
<trkpt lat="-28.2835370" lon="153.5225250">
<ele>59.488</ele>
<time>2018-01-24T00:24:54.997Z</time>
</trkpt>
<trkpt lat="-28.2835370" lon="153.5225250">
<ele>59.473</ele>
<time>2018-01-24T00:27:11.999Z</time>
</trkpt>
<trkpt lat="-28.2835572" lon="153.5226520">
<ele>58.112</ele>
<time>2018-01-24T00:30:16.561Z</time>
</trkpt>
<trkpt lat="-28.2835572" lon="153.5226520">
<ele>58.112</ele>
<time>2018-01-24T00:30:16.561Z</time>
</trkpt>
<trkpt lat="-28.2835861" lon="153.5226317">
<ele>58.385</ele>
<time>2018-01-24T00:31:13.732Z</time>
</trkpt>
<trkpt lat="-28.2835861" lon="153.5226317">
<ele>58.385</ele>
<time>2018-01-24T00:31:13.732Z</time>
</trkpt>
<trkpt lat="-28.2835560" lon="153.5227189">
<ele>57.260</ele>
<time>2018-01-24T00:33:32.575Z</time>
</trkpt>
<trkpt lat="-28.2835560" lon="153.5227189">
<ele>57.260</ele>
<time>2018-01-24T00:33:32.575Z</time>
</trkpt>
<trkpt lat="-28.2833028" lon="153.5227749">
<ele>46.135</ele>
<time>2018-01-24T00:42:42.001Z</time>
</trkpt>
<trkpt lat="-28.2833028" lon="153.5227749">
<ele>46.114</ele>
<time>2018-01-24T00:42:47.001Z</time>
</trkpt>
<trkpt lat="-28.2834627" lon="153.5228682">
<ele>53.836</ele>
<time>2018-01-24T00:43:11.002Z</time>
</trkpt>
<trkpt lat="-28.2837756" lon="153.5225008">
<ele>53.811</ele>
<time>2018-01-24T00:45:03.999Z</time>
</trkpt>
<trkpt lat="-28.2837756" lon="153.5225008">
<ele>53.801</ele>
<time>2018-01-24T00:48:23.999Z</time>
</trkpt>
<trkpt lat="-28.2835172" lon="153.5226004">
<ele>58.514</ele>
<time>2018-01-24T00:50:21.386Z</time>
</trkpt>
<trkpt lat="-28.2835172" lon="153.5226004">
<ele>58.514</ele>
<time>2018-01-24T00:50:21.386Z</time>
</trkpt>
<trkpt lat="-28.2836140" lon="153.5225254">
<ele>59.792</ele>
<time>2018-01-24T00:50:56.668Z</time>
</trkpt>
<trkpt lat="-28.2836140" lon="153.5225254">
<ele>59.792</ele>
<time>2018-01-24T00:50:56.668Z</time>
</trkpt>
<trkpt lat="-28.2837866" lon="153.5225813">
<ele>58.367</ele>
<time>2018-01-24T00:51:50.699Z</time>
</trkpt>
<trkpt lat="-28.2833540" lon="153.5227192">
<ele>58.340</ele>
<time>2018-01-24T00:56:24.996Z</time>
</trkpt>
<trkpt lat="-28.2833540" lon="153.5227192">
<ele>58.322</ele>
<time>2018-01-24T00:56:39.996Z</time>
</trkpt>
<trkpt lat="-28.2833235" lon="153.5227392">
<ele>55.449</ele>
<time>2018-01-24T00:56:54.783Z</time>
</trkpt>
<trkpt lat="-28.2836382" lon="153.5223669">
<ele>55.424</ele>
<time>2018-01-24T00:57:45.693Z</time>
</trkpt>
<trkpt lat="-28.2842548" lon="153.5220989">
<ele>55.790</ele>
<time>2018-01-24T00:58:02.593Z</time>
</trkpt>
<trkpt lat="-28.2845657" lon="153.5221190">
<ele>56.771</ele>
<time>2018-01-24T00:58:10.566Z</time>
</trkpt>
<trkpt lat="-28.2850885" lon="153.5220676">
<ele>57.779</ele>
<time>2018-01-24T00:58:23.998Z</time>
</trkpt>
<trkpt lat="-28.2854245" lon="153.5219575">
<ele>58.337</ele>
<time>2018-01-24T00:58:32.950Z</time>
</trkpt>
<trkpt lat="-28.2857285" lon="153.5217764">
<ele>58.841</ele>
<time>2018-01-24T00:58:41.737Z</time>
</trkpt>
<trkpt lat="-28.2859536" lon="153.5214733">
<ele>59.794</ele>
<time>2018-01-24T00:58:50.673Z</time>
</trkpt>
<trkpt lat="-28.2861003" lon="153.5210834">
<ele>61.184</ele>
<time>2018-01-24T00:59:00.230Z</time>
</trkpt>
<trkpt lat="-28.2862765" lon="153.5206227">
<ele>62.602</ele>
<time>2018-01-24T00:59:11.551Z</time>
</trkpt>
<trkpt lat="-28.2864455" lon="153.5201494">
<ele>63.670</ele>
<time>2018-01-24T00:59:23.063Z</time>
</trkpt>
<trkpt lat="-28.2866227" lon="153.5196639">
<ele>64.227</ele>
<time>2018-01-24T00:59:34.908Z</time>
</trkpt>
<trkpt lat="-28.2868299" lon="153.5192399">
<ele>64.367</ele>
<time>2018-01-24T00:59:45.838Z</time>
</trkpt>
<trkpt lat="-28.2869966" lon="153.5188576">
<ele>64.241</ele>
<time>2018-01-24T00:59:55.453Z</time>
</trkpt>
<trkpt lat="-28.2871292" lon="153.5184781">
<ele>63.829</ele>
<time>2018-01-24T01:00:04.656Z</time>
</trkpt>
<trkpt lat="-28.2872645" lon="153.5180939">
<ele>62.753</ele>
<time>2018-01-24T01:00:13.981Z</time>
</trkpt>
<trkpt lat="-28.2873716" lon="153.5177016">
<ele>60.932</ele>
<time>2018-01-24T01:00:23.236Z</time>
</trkpt>
<trkpt lat="-28.2874404" lon="153.5173832">
<ele>59.179</ele>
<time>2018-01-24T01:00:30.627Z</time>
</trkpt>
<trkpt lat="-28.2874482" lon="153.5170823">
<ele>58.366</ele>
<time>2018-01-24T01:00:37.413Z</time>
</trkpt>
<trkpt lat="-28.2874001" lon="153.5167763">
<ele>58.644</ele>
<time>2018-01-24T01:00:44.418Z</time>
</trkpt>
<trkpt lat="-28.2874646" lon="153.5164850">
<ele>59.606</ele>
<time>2018-01-24T01:00:51.188Z</time>
</trkpt>
<trkpt lat="-28.2876487" lon="153.5162730">
<ele>60.543</ele>
<time>2018-01-24T01:00:57.901Z</time>
</trkpt>
<trkpt lat="-28.2879390" lon="153.5161375">
<ele>60.817</ele>
<time>2018-01-24T01:01:05.933Z</time>
</trkpt>
<trkpt lat="-28.2882880" lon="153.5160770">
<ele>59.514</ele>
<time>2018-01-24T01:01:14.970Z</time>
</trkpt>
<trkpt lat="-28.2888176" lon="153.5161390">
<ele>55.605</ele>
<time>2018-01-24T01:01:28.598Z</time>
</trkpt>
<trkpt lat="-28.2891751" lon="153.5161680">
<ele>49.153</ele>
<time>2018-01-24T01:01:37.771Z</time>
</trkpt>
<trkpt lat="-28.2895007" lon="153.5162721">
<ele>41.807</ele>
<time>2018-01-24T01:01:46.429Z</time>
</trkpt>
<trkpt lat="-28.2898178" lon="153.5164529">
<ele>34.419</ele>
<time>2018-01-24T01:01:55.512Z</time>
</trkpt>
<trkpt lat="-28.2901026" lon="153.5166615">
<ele>27.015</ele>
<time>2018-01-24T01:02:04.186Z</time>
</trkpt>
<trkpt lat="-28.2903440" lon="153.5169367">
<ele>20.858</ele>
<time>2018-01-24T01:02:12.941Z</time>
</trkpt>
<trkpt lat="-28.2905883" lon="153.5171751">
<ele>17.151</ele>
<time>2018-01-24T01:02:21.185Z</time>
</trkpt>
<trkpt lat="-28.2908509" lon="153.5173880">
<ele>15.279</ele>
<time>2018-01-24T01:02:29.445Z</time>
</trkpt>
<trkpt lat="-28.2910693" lon="153.5176055">
<ele>14.233</ele>
<time>2018-01-24T01:02:36.880Z</time>
</trkpt>
<trkpt lat="-28.2912693" lon="153.5178186">
<ele>13.396</ele>
<time>2018-01-24T01:02:43.898Z</time>
</trkpt>
<trkpt lat="-28.2914666" lon="153.5180470">
<ele>12.722</ele>
<time>2018-01-24T01:02:51.110Z</time>
</trkpt>
<trkpt lat="-28.2916862" lon="153.5182344">
<ele>12.454</ele>
<time>2018-01-24T01:02:58.142Z</time>
</trkpt>
<trkpt lat="-28.2919176" lon="153.5184538">
<ele>12.879</ele>
<time>2018-01-24T01:03:05.857Z</time>
</trkpt>
<trkpt lat="-28.2922639" lon="153.5186796">
<ele>14.173</ele>
<time>2018-01-24T01:03:16.076Z</time>
</trkpt>
<trkpt lat="-28.2925056" lon="153.5187987">
<ele>16.509</ele>
<time>2018-01-24T01:03:22.821Z</time>
</trkpt>
<trkpt lat="-28.2927653" lon="153.5188952">
<ele>19.722</ele>
<time>2018-01-24T01:03:29.814Z</time>
</trkpt>
<trkpt lat="-28.2930419" lon="153.5189870">
<ele>23.103</ele>
<time>2018-01-24T01:03:37.189Z</time>
</trkpt>
<trkpt lat="-28.2933205" lon="153.5189684">
<ele>26.152</ele>
<time>2018-01-24T01:03:44.332Z</time>
</trkpt>
<trkpt lat="-28.2936035" lon="153.5188921">
<ele>28.854</ele>
<time>2018-01-24T01:03:51.778Z</time>
</trkpt>
<trkpt lat="-28.2938703" lon="153.5188609">
<ele>31.149</ele>
<time>2018-01-24T01:03:58.642Z</time>
</trkpt>
<trkpt lat="-28.2941281" lon="153.5188335">
<ele>32.958</ele>
<time>2018-01-24T01:04:05.269Z</time>
</trkpt>
<trkpt lat="-28.2944091" lon="153.5188271">
<ele>34.410</ele>
<time>2018-01-24T01:04:12.463Z</time>
</trkpt>
<trkpt lat="-28.2947099" lon="153.5188247">
<ele>35.920</ele>
<time>2018-01-24T01:04:20.162Z</time>
</trkpt>
<trkpt lat="-28.2950589" lon="153.5187925">
<ele>37.844</ele>
<time>2018-01-24T01:04:29.125Z</time>
</trkpt>
<trkpt lat="-28.2953767" lon="153.5188553">
<ele>40.021</ele>
<time>2018-01-24T01:04:37.381Z</time>
</trkpt>
<trkpt lat="-28.2956925" lon="153.5189771">
<ele>42.040</ele>
<time>2018-01-24T01:04:45.917Z</time>
</trkpt>
<trkpt lat="-28.2960155" lon="153.5190950">
<ele>43.654</ele>
<time>2018-01-24T01:04:54.600Z</time>
</trkpt>
<trkpt lat="-28.2962938" lon="153.5192259">
<ele>44.819</ele>
<time>2018-01-24T01:05:02.311Z</time>
</trkpt>
<trkpt lat="-28.2967242" lon="153.5193288">
<ele>45.688</ele>
<time>2018-01-24T01:05:13.570Z</time>
</trkpt>
<trkpt lat="-28.2970288" lon="153.5193198">
<ele>46.395</ele>
<time>2018-01-24T01:05:21.370Z</time>
</trkpt>
<trkpt lat="-28.2973661" lon="153.5192181">
<ele>46.671</ele>
<time>2018-01-24T01:05:30.302Z</time>
</trkpt>
<trkpt lat="-28.2977301" lon="153.5191146">
<ele>46.043</ele>
<time>2018-01-24T01:05:39.905Z</time>
</trkpt>
<trkpt lat="-28.2981003" lon="153.5191508">
<ele>44.498</ele>
<time>2018-01-24T01:05:49.416Z</time>
</trkpt>
<trkpt lat="-28.2984319" lon="153.5192954">
<ele>42.642</ele>
<time>2018-01-24T01:05:58.508Z</time>
</trkpt>
<trkpt lat="-28.2987635" lon="153.5194524">
<ele>41.144</ele>
<time>2018-01-24T01:06:07.702Z</time>
</trkpt>
<trkpt lat="-28.2990798" lon="153.5196000">
<ele>40.144</ele>
<time>2018-01-24T01:06:16.455Z</time>
</trkpt>
<trkpt lat="-28.2994330" lon="153.5196757">
<ele>39.338</ele>
<time>2018-01-24T01:06:25.653Z</time>
</trkpt>
<trkpt lat="-28.2997876" lon="153.5196827">
<ele>38.418</ele>
<time>2018-01-24T01:06:34.729Z</time>
</trkpt>
<trkpt lat="-28.3000846" lon="153.5196478">
<ele>37.386</ele>
<time>2018-01-24T01:06:42.373Z</time>
</trkpt>
<trkpt lat="-28.3003732" lon="153.5196021">
<ele>36.410</ele>
<time>2018-01-24T01:06:49.831Z</time>
</trkpt>
<trkpt lat="-28.3006988" lon="153.5196328">
<ele>35.530</ele>
<time>2018-01-24T01:06:53.748Z</time>
</trkpt>
<trkpt lat="-28.3009869" lon="153.5196954">
<ele>34.675</ele>
<time>2018-01-24T01:06:56.558Z</time>
</trkpt>
<trkpt lat="-28.3012703" lon="153.5197655">
<ele>33.818</ele>
<time>2018-01-24T01:06:58.883Z</time>
</trkpt>
<trkpt lat="-28.3015042" lon="153.5198066">
<ele>32.927</ele>
<time>2018-01-24T01:07:00.663Z</time>
</trkpt>
<trkpt lat="-28.3017202" lon="153.5198759">
<ele>31.971</ele>
<time>2018-01-24T01:07:02.300Z</time>
</trkpt>
<trkpt lat="-28.3020159" lon="153.5199485">
<ele>30.940</ele>
<time>2018-01-24T01:07:04.307Z</time>
</trkpt>
<trkpt lat="-28.3021258" lon="153.5199719">
<ele>29.759</ele>
<time>2018-01-24T01:07:05.015Z</time>
</trkpt>
<trkpt lat="-28.3022464" lon="153.5198781">
<ele>28.519</ele>
<time>2018-01-24T01:07:05.844Z</time>
</trkpt>
<trkpt lat="-28.3023700" lon="153.5197122">
<ele>27.548</ele>
<time>2018-01-24T01:07:06.930Z</time>
</trkpt>
<trkpt lat="-28.3026435" lon="153.5195027">
<ele>27.032</ele>
<time>2018-01-24T01:07:08.757Z</time>
</trkpt>
<trkpt lat="-28.3029691" lon="153.5195282">
<ele>26.896</ele>
<time>2018-01-24T01:07:10.599Z</time>
</trkpt>
<trkpt lat="-28.3033247" lon="153.5194799">
<ele>26.980</ele>
<time>2018-01-24T01:07:12.716Z</time>
</trkpt>
<trkpt lat="-28.3036392" lon="153.5192333">
<ele>27.104</ele>
<time>2018-01-24T01:07:15.160Z</time>
</trkpt>
<trkpt lat="-28.3038064" lon="153.5187794">
<ele>27.244</ele>
<time>2018-01-24T01:07:18.171Z</time>
</trkpt>
<trkpt lat="-28.3039751" lon="153.5184619">
<ele>27.630</ele>
<time>2018-01-24T01:07:20.641Z</time>
</trkpt>
<trkpt lat="-28.3042770" lon="153.5184290">
<ele>28.292</ele>
<time>2018-01-24T01:07:23.173Z</time>
</trkpt>
<trkpt lat="-28.3046572" lon="153.5185327">
<ele>28.665</ele>
<time>2018-01-24T01:07:26.657Z</time>
</trkpt>
<trkpt lat="-28.3050958" lon="153.5184255">
<ele>28.174</ele>
<time>2018-01-24T01:07:30.897Z</time>
</trkpt>
<trkpt lat="-28.3054879" lon="153.5182829">
<ele>26.943</ele>
<time>2018-01-24T01:07:34.261Z</time>
</trkpt>
<trkpt lat="-28.3059408" lon="153.5181098">
<ele>25.515</ele>
<time>2018-01-24T01:07:37.880Z</time>
</trkpt>
<trkpt lat="-28.3064530" lon="153.5181542">
<ele>24.333</ele>
<time>2018-01-24T01:07:41.671Z</time>
</trkpt>
<trkpt lat="-28.3069226" lon="153.5183677">
<ele>23.611</ele>
<time>2018-01-24T01:07:45.450Z</time>
</trkpt>
<trkpt lat="-28.3074104" lon="153.5185407">
<ele>23.261</ele>
<time>2018-01-24T01:07:49.306Z</time>
</trkpt>
<trkpt lat="-28.3078155" lon="153.5186885">
<ele>23.058</ele>
<time>2018-01-24T01:07:52.816Z</time>
</trkpt>
<trkpt lat="-28.3082241" lon="153.5186264">
<ele>22.888</ele>
<time>2018-01-24T01:07:56.491Z</time>
</trkpt>
<trkpt lat="-28.3086170" lon="153.5183480">
<ele>22.640</ele>
<time>2018-01-24T01:08:00.500Z</time>
</trkpt>
<trkpt lat="-28.3088665" lon="153.5178495">
<ele>22.063</ele>
<time>2018-01-24T01:08:04.996Z</time>
</trkpt>
<trkpt lat="-28.3090357" lon="153.5173225">
<ele>21.137</ele>
<time>2018-01-24T01:08:09.367Z</time>
</trkpt>
<trkpt lat="-28.3092052" lon="153.5168013">
<ele>20.198</ele>
<time>2018-01-24T01:08:13.596Z</time>
</trkpt>
<trkpt lat="-28.3094295" lon="153.5163171">
<ele>19.455</ele>
<time>2018-01-24T01:08:18.002Z</time>
</trkpt>
<trkpt lat="-28.3096541" lon="153.5158427">
<ele>18.893</ele>
<time>2018-01-24T01:08:22.059Z</time>
</trkpt>
<trkpt lat="-28.3098187" lon="153.5153321">
<ele>18.560</ele>
<time>2018-01-24T01:08:25.770Z</time>
</trkpt>
<trkpt lat="-28.3098776" lon="153.5147668">
<ele>18.449</ele>
<time>2018-01-24T01:08:29.510Z</time>
</trkpt>
<trkpt lat="-28.3098501" lon="153.5142420">
<ele>18.560</ele>
<time>2018-01-24T01:08:33.113Z</time>
</trkpt>
<trkpt lat="-28.3098366" lon="153.5137453">
<ele>19.002</ele>
<time>2018-01-24T01:08:36.549Z</time>
</trkpt>
<trkpt lat="-28.3097887" lon="153.5132303">
<ele>20.007</ele>
<time>2018-01-24T01:08:39.885Z</time>
</trkpt>
<trkpt lat="-28.3096551" lon="153.5127164">
<ele>21.813</ele>
<time>2018-01-24T01:08:43.211Z</time>
</trkpt>
<trkpt lat="-28.3094451" lon="153.5122630">
<ele>24.137</ele>
<time>2018-01-24T01:08:46.426Z</time>
</trkpt>
<trkpt lat="-28.3092015" lon="153.5118457">
<ele>26.309</ele>
<time>2018-01-24T01:08:49.578Z</time>
</trkpt>
<trkpt lat="-28.3090265" lon="153.5113975">
<ele>28.231</ele>
<time>2018-01-24T01:08:52.665Z</time>
</trkpt>
<trkpt lat="-28.3090937" lon="153.5109340">
<ele>30.233</ele>
<time>2018-01-24T01:08:55.750Z</time>
</trkpt>
<trkpt lat="-28.3094936" lon="153.5106399">
<ele>32.734</ele>
<time>2018-01-24T01:08:59.462Z</time>
</trkpt>
<trkpt lat="-28.3099004" lon="153.5103635">
<ele>36.676</ele>
<time>2018-01-24T01:09:03.390Z</time>
</trkpt>
<trkpt lat="-28.3101821" lon="153.5099505">
<ele>42.454</ele>
<time>2018-01-24T01:09:08.059Z</time>
</trkpt>
<trkpt lat="-28.3103295" lon="153.5093594">
<ele>48.502</ele>
<time>2018-01-24T01:09:15.757Z</time>
</trkpt>
<trkpt lat="-28.3104333" lon="153.5087067">
<ele>52.703</ele>
<time>2018-01-24T01:09:22.471Z</time>
</trkpt>
<trkpt lat="-28.3104536" lon="153.5080827">
<ele>54.462</ele>
<time>2018-01-24T01:09:28.100Z</time>
</trkpt>
<trkpt lat="-28.3103877" lon="153.5074107">
<ele>54.520</ele>
<time>2018-01-24T01:09:34.299Z</time>
</trkpt>
<trkpt lat="-28.3102776" lon="153.5067009">
<ele>53.877</ele>
<time>2018-01-24T01:09:40.941Z</time>
</trkpt>
<trkpt lat="-28.3102453" lon="153.5060592">
<ele>53.266</ele>
<time>2018-01-24T01:09:45.931Z</time>
</trkpt>
<trkpt lat="-28.3101596" lon="153.5054951">
<ele>53.203</ele>
<time>2018-01-24T01:09:50.088Z</time>
</trkpt>
<trkpt lat="-28.3100114" lon="153.5050080">
<ele>53.829</ele>
<time>2018-01-24T01:09:53.577Z</time>
</trkpt>
<trkpt lat="-28.3099170" lon="153.5046576">
<ele>54.769</ele>
<time>2018-01-24T01:09:55.999Z</time>
</trkpt>
<trkpt lat="-28.3100441" lon="153.5043962">
<ele>55.645</ele>
<time>2018-01-24T01:09:58.004Z</time>
</trkpt>
<trkpt lat="-28.3100471" lon="153.5040831">
<ele>56.570</ele>
<time>2018-01-24T01:10:00.157Z</time>
</trkpt>
<trkpt lat="-28.3098056" lon="153.5037591">
<ele>57.553</ele>
<time>2018-01-24T01:10:03.265Z</time>
</trkpt>
<trkpt lat="-28.3095245" lon="153.5034309">
<ele>57.882</ele>
<time>2018-01-24T01:10:06.631Z</time>
</trkpt>
<trkpt lat="-28.3094000" lon="153.5031319">
<ele>57.075</ele>
<time>2018-01-24T01:10:08.950Z</time>
</trkpt>
<trkpt lat="-28.3093789" lon="153.5028389">
<ele>55.762</ele>
<time>2018-01-24T01:10:10.910Z</time>
</trkpt>
<trkpt lat="-28.3093143" lon="153.5025592">
<ele>54.791</ele>
<time>2018-01-24T01:10:12.827Z</time>
</trkpt>
<trkpt lat="-28.3092967" lon="153.5023100">
<ele>54.434</ele>
<time>2018-01-24T01:10:14.475Z</time>
</trkpt>
<trkpt lat="-28.3094246" lon="153.5020664">
<ele>54.616</ele>
<time>2018-01-24T01:10:16.341Z</time>
</trkpt>
<trkpt lat="-28.3095893" lon="153.5018422">
<ele>55.178</ele>
<time>2018-01-24T01:10:18.263Z</time>
</trkpt>
<trkpt lat="-28.3098108" lon="153.5016979">
<ele>55.961</ele>
<time>2018-01-24T01:10:20.182Z</time>
</trkpt>
<trkpt lat="-28.3100144" lon="153.5015493">
<ele>56.884</ele>
<time>2018-01-24T01:10:22.009Z</time>
</trkpt>
<trkpt lat="-28.3101113" lon="153.5012936">
<ele>58.095</ele>
<time>2018-01-24T01:10:23.868Z</time>
</trkpt>
<trkpt lat="-28.3100793" lon="153.5010144">
<ele>59.465</ele>
<time>2018-01-24T01:10:25.738Z</time>
</trkpt>
<trkpt lat="-28.3100783" lon="153.5007112">
<ele>60.177</ele>
<time>2018-01-24T01:10:27.758Z</time>
</trkpt>
<trkpt lat="-28.3101409" lon="153.5004440">
<ele>59.619</ele>
<time>2018-01-24T01:10:29.610Z</time>
</trkpt>
<trkpt lat="-28.3103409" lon="153.5001509">
<ele>58.016</ele>
<time>2018-01-24T01:10:32.178Z</time>
</trkpt>
<trkpt lat="-28.3105686" lon="153.4998856">
<ele>56.018</ele>
<time>2018-01-24T01:10:34.789Z</time>
</trkpt>
<trkpt lat="-28.3108693" lon="153.4995156">
<ele>54.333</ele>
<time>2018-01-24T01:10:38.279Z</time>
</trkpt>
<trkpt lat="-28.3110804" lon="153.4990299">
<ele>53.354</ele>
<time>2018-01-24T01:10:41.984Z</time>
</trkpt>
<trkpt lat="-28.3111914" lon="153.4984724">
<ele>52.938</ele>
<time>2018-01-24T01:10:46.120Z</time>
</trkpt>
<trkpt lat="-28.3112413" lon="153.4980417">
<ele>52.801</ele>
<time>2018-01-24T01:10:49.365Z</time>
</trkpt>
<trkpt lat="-28.3114069" lon="153.4976485">
<ele>53.112</ele>
<time>2018-01-24T01:10:52.607Z</time>
</trkpt>
<trkpt lat="-28.3115410" lon="153.4971883">
<ele>54.187</ele>
<time>2018-01-24T01:10:56.015Z</time>
</trkpt>
<trkpt lat="-28.3115133" lon="153.4966594">
<ele>55.632</ele>
<time>2018-01-24T01:10:59.732Z</time>
</trkpt>
<trkpt lat="-28.3114718" lon="153.4961283">
<ele>56.651</ele>
<time>2018-01-24T01:11:03.311Z</time>
</trkpt>
<trkpt lat="-28.3114348" lon="153.4956607">
<ele>56.818</ele>
<time>2018-01-24T01:11:06.179Z</time>
</trkpt>
<trkpt lat="-28.3113665" lon="153.4952962">
<ele>56.095</ele>
<time>2018-01-24T01:11:08.346Z</time>
</trkpt>
<trkpt lat="-28.3115411" lon="153.4950222">
<ele>54.824</ele>
<time>2018-01-24T01:11:10.267Z</time>
</trkpt>
<trkpt lat="-28.3120490" lon="153.4948212">
<ele>53.404</ele>
<time>2018-01-24T01:11:13.602Z</time>
</trkpt>
<trkpt lat="-28.3124205" lon="153.4946063">
<ele>51.980</ele>
<time>2018-01-24T01:11:16.121Z</time>
</trkpt>
<trkpt lat="-28.3124383" lon="153.4942315">
<ele>50.734</ele>
<time>2018-01-24T01:11:18.139Z</time>
</trkpt>
<trkpt lat="-28.3122795" lon="153.4937586">
<ele>49.915</ele>
<time>2018-01-24T01:11:21.131Z</time>
</trkpt>
<trkpt lat="-28.3121049" lon="153.4933129">
<ele>49.733</ele>
<time>2018-01-24T01:11:24.391Z</time>
</trkpt>
<trkpt lat="-28.3121622" lon="153.4929909">
<ele>50.116</ele>
<time>2018-01-24T01:11:27.025Z</time>
</trkpt>
<trkpt lat="-28.3123626" lon="153.4928093">
<ele>50.601</ele>
<time>2018-01-24T01:11:29.885Z</time>
</trkpt>
<trkpt lat="-28.3125902" lon="153.4926491">
<ele>50.769</ele>
<time>2018-01-24T01:11:33.002Z</time>
</trkpt>
<trkpt lat="-28.3128165" lon="153.4924594">
<ele>50.588</ele>
<time>2018-01-24T01:11:36.157Z</time>
</trkpt>
<trkpt lat="-28.3129843" lon="153.4920536">
<ele>50.132</ele>
<time>2018-01-24T01:11:39.950Z</time>
</trkpt>
<trkpt lat="-28.3128302" lon="153.4916429">
<ele>49.290</ele>
<time>2018-01-24T01:11:43.517Z</time>
</trkpt>
<trkpt lat="-28.3123663" lon="153.4914972">
<ele>47.848</ele>
<time>2018-01-24T01:11:48.262Z</time>
</trkpt>
<trkpt lat="-28.3118701" lon="153.4914738">
<ele>45.912</ele>
<time>2018-01-24T01:11:53.252Z</time>
</trkpt>
<trkpt lat="-28.3113641" lon="153.4914510">
<ele>43.476</ele>
<time>2018-01-24T01:11:58.571Z</time>
</trkpt>
<trkpt lat="-28.3109349" lon="153.4913752">
<ele>40.144</ele>
<time>2018-01-24T01:12:02.910Z</time>
</trkpt>
<trkpt lat="-28.3104994" lon="153.4913917">
<ele>35.908</ele>
<time>2018-01-24T01:12:06.884Z</time>
</trkpt>
<trkpt lat="-28.3100500" lon="153.4913586">
<ele>31.453</ele>
<time>2018-01-24T01:12:10.605Z</time>
</trkpt>
<trkpt lat="-28.3096029" lon="153.4911851">
<ele>27.394</ele>
<time>2018-01-24T01:12:14.619Z</time>
</trkpt>
<trkpt lat="-28.3091667" lon="153.4909602">
<ele>23.930</ele>
<time>2018-01-24T01:12:18.917Z</time>
</trkpt>
<trkpt lat="-28.3087555" lon="153.4906941">
<ele>21.127</ele>
<time>2018-01-24T01:12:23.423Z</time>
</trkpt>
<trkpt lat="-28.3083481" lon="153.4904034">
<ele>18.817</ele>
<time>2018-01-24T01:12:27.675Z</time>
</trkpt>
<trkpt lat="-28.3079424" lon="153.4901421">
<ele>16.299</ele>
<time>2018-01-24T01:12:31.480Z</time>
</trkpt>
<trkpt lat="-28.3075637" lon="153.4899017">
<ele>13.147</ele>
<time>2018-01-24T01:12:35.304Z</time>
</trkpt>
<trkpt lat="-28.3073185" lon="153.4895241">
<ele>9.825</ele>
<time>2018-01-24T01:12:39.799Z</time>
</trkpt>
<trkpt lat="-28.3072377" lon="153.4889529">
<ele>7.128</ele>
<time>2018-01-24T01:12:44.716Z</time>
</trkpt>
<trkpt lat="-28.3073358" lon="153.4883430">
<ele>5.207</ele>
<time>2018-01-24T01:12:49.706Z</time>
</trkpt>
<trkpt lat="-28.3074241" lon="153.4877890">
<ele>3.339</ele>
<time>2018-01-24T01:12:54.051Z</time>
</trkpt>
<trkpt lat="-28.3075038" lon="153.4872844">
<ele>1.081</ele>
<time>2018-01-24T01:12:58.148Z</time>
</trkpt>
<trkpt lat="-28.3075700" lon="153.4867982">
<ele>0.000</ele>
<time>2018-01-24T01:13:02.239Z</time>
</trkpt>
<trkpt lat="-28.3076056" lon="153.4864962">
<ele>0.000</ele>
<time>2018-01-24T01:13:04.790Z</time>
</trkpt>
<trkpt lat="-28.3076587" lon="153.4860129">
<ele>0.000</ele>
<time>2018-01-24T01:13:09.002Z</time>
</trkpt>
<trkpt lat="-28.3077146" lon="153.4855781">
<ele>0.000</ele>
<time>2018-01-24T01:13:12.426Z</time>
</trkpt>
<trkpt lat="-28.3078137" lon="153.4851886">
<ele>0.000</ele>
<time>2018-01-24T01:13:15.244Z</time>
</trkpt>
<trkpt lat="-28.3078777" lon="153.4849010">
<ele>0.000</ele>
<time>2018-01-24T01:13:17.224Z</time>
</trkpt>
<trkpt lat="-28.3079550" lon="153.4846097">
<ele>0.000</ele>
<time>2018-01-24T01:13:19.281Z</time>
</trkpt>
<trkpt lat="-28.3080059" lon="153.4843261">
<ele>0.000</ele>
<time>2018-01-24T01:13:21.307Z</time>
</trkpt>
<trkpt lat="-28.3080695" lon="153.4840901">
<ele>0.000</ele>
<time>2018-01-24T01:13:23.070Z</time>
</trkpt>
<trkpt lat="-28.3081025" lon="153.4838615">
<ele>0.000</ele>
<time>2018-01-24T01:13:24.745Z</time>
</trkpt>
<trkpt lat="-28.3081537" lon="153.4836392">
<ele>0.000</ele>
<time>2018-01-24T01:13:26.399Z</time>
</trkpt>
<trkpt lat="-28.3082146" lon="153.4833844">
<ele>0.000</ele>
<time>2018-01-24T01:13:28.270Z</time>
</trkpt>
<trkpt lat="-28.3082832" lon="153.4831070">
<ele>0.000</ele>
<time>2018-01-24T01:13:30.290Z</time>
</trkpt>
<trkpt lat="-28.3083469" lon="153.4828098">
<ele>0.000</ele>
<time>2018-01-24T01:13:32.419Z</time>
</trkpt>
<trkpt lat="-28.3084087" lon="153.4824896">
<ele>0.000</ele>
<time>2018-01-24T01:13:34.687Z</time>
</trkpt>
<trkpt lat="-28.3084676" lon="153.4821701">
<ele>0.000</ele>
<time>2018-01-24T01:13:36.924Z</time>
</trkpt>
<trkpt lat="-28.3085245" lon="153.4819118">
<ele>0.000</ele>
<time>2018-01-24T01:13:38.735Z</time>
</trkpt>
<trkpt lat="-28.3085013" lon="153.4816342">
<ele>0.000</ele>
<time>2018-01-24T01:13:40.614Z</time>
</trkpt>
<trkpt lat="-28.3084745" lon="153.4813592">
<ele>0.000</ele>
<time>2018-01-24T01:13:42.552Z</time>
</trkpt>
<trkpt lat="-28.3084250" lon="153.4811265">
<ele>0.000</ele>
<time>2018-01-24T01:13:44.263Z</time>
</trkpt>
<trkpt lat="-28.3084177" lon="153.4808891">
<ele>0.000</ele>
<time>2018-01-24T01:13:46.058Z</time>
</trkpt>
<trkpt lat="-28.3084144" lon="153.4806553">
<ele>0.000</ele>
<time>2018-01-24T01:13:47.773Z</time>
</trkpt>
<trkpt lat="-28.3084193" lon="153.4804213">
<ele>0.000</ele>
<time>2018-01-24T01:13:49.430Z</time>
</trkpt>
<trkpt lat="-28.3083897" lon="153.4802000">
<ele>0.000</ele>
<time>2018-01-24T01:13:50.928Z</time>
</trkpt>
<trkpt lat="-28.3083683" lon="153.4800037">
<ele>0.000</ele>
<time>2018-01-24T01:13:52.208Z</time>
</trkpt>
<trkpt lat="-28.3083946" lon="153.4798276">
<ele>0.000</ele>
<time>2018-01-24T01:13:53.364Z</time>
</trkpt>
<trkpt lat="-28.3083923" lon="153.4796642">
<ele>0.000</ele>
<time>2018-01-24T01:13:54.421Z</time>
</trkpt>
<trkpt lat="-28.3083777" lon="153.4794430">
<ele>0.000</ele>
<time>2018-01-24T01:13:55.857Z</time>
</trkpt>
<trkpt lat="-28.3083743" lon="153.4792155">
<ele>0.000</ele>
<time>2018-01-24T01:13:57.424Z</time>
</trkpt>
<trkpt lat="-28.3083499" lon="153.4790136">
<ele>0.000</ele>
<time>2018-01-24T01:13:58.836Z</time>
</trkpt>
<trkpt lat="-28.3083244" lon="153.4788036">
<ele>0.000</ele>
<time>2018-01-24T01:14:00.409Z</time>
</trkpt>
<trkpt lat="-28.3082319" lon="153.4785568">
<ele>0.000</ele>
<time>2018-01-24T01:14:02.428Z</time>
</trkpt>
<trkpt lat="-28.3081505" lon="153.4783245">
<ele>0.000</ele>
<time>2018-01-24T01:14:04.348Z</time>
</trkpt>
<trkpt lat="-28.3080284" lon="153.4781285">
<ele>0.000</ele>
<time>2018-01-24T01:14:06.179Z</time>
</trkpt>
<trkpt lat="-28.3078990" lon="153.4779529">
<ele>0.000</ele>
<time>2018-01-24T01:14:07.947Z</time>
</trkpt>
<trkpt lat="-28.3077819" lon="153.4777860">
<ele>0.000</ele>
<time>2018-01-24T01:14:09.614Z</time>
</trkpt>
<trkpt lat="-28.3076666" lon="153.4776273">
<ele>0.000</ele>
<time>2018-01-24T01:14:11.317Z</time>
</trkpt>
<trkpt lat="-28.3075770" lon="153.4774550">
<ele>0.000</ele>
<time>2018-01-24T01:14:13.005Z</time>
</trkpt>
<trkpt lat="-28.3074683" lon="153.4773234">
<ele>0.000</ele>
<time>2018-01-24T01:14:14.598Z</time>
</trkpt>
<trkpt lat="-28.3074148" lon="153.4771319">
<ele>0.000</ele>
<time>2018-01-24T01:14:16.349Z</time>
</trkpt>
<trkpt lat="-28.3074090" lon="153.4769589">
<ele>0.000</ele>
<time>2018-01-24T01:14:17.831Z</time>
</trkpt>
<trkpt lat="-28.3074277" lon="153.4767815">
<ele>0.000</ele>
<time>2018-01-24T01:14:19.358Z</time>
</trkpt>
<trkpt lat="-28.3074696" lon="153.4766161">
<ele>0.000</ele>
<time>2018-01-24T01:14:20.866Z</time>
</trkpt>
<trkpt lat="-28.3075698" lon="153.4764094">
<ele>0.000</ele>
<time>2018-01-24T01:14:23.080Z</time>
</trkpt>
<trkpt lat="-28.3076923" lon="153.4761879">
<ele>0.000</ele>
<time>2018-01-24T01:14:25.711Z</time>
</trkpt>
<trkpt lat="-28.3078317" lon="153.4759246">
<ele>0.000</ele>
<time>2018-01-24T01:14:28.674Z</time>
</trkpt>
<trkpt lat="-28.3080013" lon="153.4756311">
<ele>0.000</ele>
<time>2018-01-24T01:14:31.599Z</time>
</trkpt>
<trkpt lat="-28.3082160" lon="153.4753392">
<ele>0.000</ele>
<time>2018-01-24T01:14:34.525Z</time>
</trkpt>
<trkpt lat="-28.3084067" lon="153.4750794">
<ele>0.000</ele>
<time>2018-01-24T01:14:37.177Z</time>
</trkpt>
<trkpt lat="-28.3085887" lon="153.4747614">
<ele>0.000</ele>
<time>2018-01-24T01:14:40.431Z</time>
</trkpt>
<trkpt lat="-28.3087904" lon="153.4744505">
<ele>0.000</ele>
<time>2018-01-24T01:14:43.969Z</time>
</trkpt>
<trkpt lat="-28.3089996" lon="153.4741178">
<ele>0.000</ele>
<time>2018-01-24T01:14:48.107Z</time>
</trkpt>
<trkpt lat="-28.3092077" lon="153.4737900">
<ele>0.000</ele>
<time>2018-01-24T01:14:52.378Z</time>
</trkpt>
<trkpt lat="-28.3094292" lon="153.4734613">
<ele>0.000</ele>
<time>2018-01-24T01:14:57.677Z</time>
</trkpt>
<trkpt lat="-28.3095967" lon="153.4730806">
<ele>0.000</ele>
<time>2018-01-24T01:15:02.700Z</time>
</trkpt>
<trkpt lat="-28.3096408" lon="153.4726264">
<ele>0.000</ele>
<time>2018-01-24T01:15:07.775Z</time>
</trkpt>
<trkpt lat="-28.3096924" lon="153.4721898">
<ele>0.000</ele>
<time>2018-01-24T01:15:12.393Z</time>
</trkpt>
<trkpt lat="-28.3097227" lon="153.4717776">
<ele>0.000</ele>
<time>2018-01-24T01:15:16.857Z</time>
</trkpt>
<trkpt lat="-28.3097782" lon="153.4713746">
<ele>0.000</ele>
<time>2018-01-24T01:15:21.919Z</time>
</trkpt>
<trkpt lat="-28.3097881" lon="153.4709527">
<ele>0.000</ele>
<time>2018-01-24T01:15:27.379Z</time>
</trkpt>
<trkpt lat="-28.3097282" lon="153.4705287">
<ele>0.000</ele>
<time>2018-01-24T01:15:32.537Z</time>
</trkpt>
<trkpt lat="-28.3097023" lon="153.4701486">
<ele>0.000</ele>
<time>2018-01-24T01:15:35.924Z</time>
</trkpt>
<trkpt lat="-28.3097250" lon="153.4697701">
<ele>0.000</ele>
<time>2018-01-24T01:15:38.723Z</time>
</trkpt>
<trkpt lat="-28.3098225" lon="153.4694214">
<ele>0.000</ele>
<time>2018-01-24T01:15:41.189Z</time>
</trkpt>
<trkpt lat="-28.3099907" lon="153.4690359">
<ele>0.000</ele>
<time>2018-01-24T01:15:44.030Z</time>
</trkpt>
<trkpt lat="-28.3101450" lon="153.4686601">
<ele>0.000</ele>
<time>2018-01-24T01:15:46.693Z</time>
</trkpt>
<trkpt lat="-28.3102929" lon="153.4682456">
<ele>0.000</ele>
<time>2018-01-24T01:15:49.456Z</time>
</trkpt>
<trkpt lat="-28.3104739" lon="153.4678086">
<ele>0.000</ele>
<time>2018-01-24T01:15:52.368Z</time>
</trkpt>
<trkpt lat="-28.3106518" lon="153.4673729">
<ele>0.000</ele>
<time>2018-01-24T01:15:55.155Z</time>
</trkpt>
<trkpt lat="-28.3108196" lon="153.4669575">
<ele>0.000</ele>
<time>2018-01-24T01:15:57.746Z</time>
</trkpt>
<trkpt lat="-28.3109645" lon="153.4665527">
<ele>0.000</ele>
<time>2018-01-24T01:16:00.271Z</time>
</trkpt>
<trkpt lat="-28.3111220" lon="153.4661363">
<ele>0.000</ele>
<time>2018-01-24T01:16:02.929Z</time>
</trkpt>
<trkpt lat="-28.3112733" lon="153.4657728">
<ele>0.000</ele>
<time>2018-01-24T01:16:05.304Z</time>
</trkpt>
<trkpt lat="-28.3114443" lon="153.4654524">
<ele>0.000</ele>
<time>2018-01-24T01:16:07.606Z</time>
</trkpt>
<trkpt lat="-28.3117063" lon="153.4652205">
<ele>0.000</ele>
<time>2018-01-24T01:16:10.041Z</time>
</trkpt>
<trkpt lat="-28.3118794" lon="153.4649024">
<ele>0.000</ele>
<time>2018-01-24T01:16:12.432Z</time>
</trkpt>
<trkpt lat="-28.3119261" lon="153.4645319">
<ele>0.000</ele>
<time>2018-01-24T01:16:14.699Z</time>
</trkpt>
<trkpt lat="-28.3118673" lon="153.4641490">
<ele>0.000</ele>
<time>2018-01-24T01:16:16.958Z</time>
</trkpt>
<trkpt lat="-28.3117336" lon="153.4637612">
<ele>0.000</ele>
<time>2018-01-24T01:16:19.225Z</time>
</trkpt>
<trkpt lat="-28.3116104" lon="153.4633684">
<ele>0.000</ele>
<time>2018-01-24T01:16:21.396Z</time>
</trkpt>
<trkpt lat="-28.3114723" lon="153.4630012">
<ele>0.000</ele>
<time>2018-01-24T01:16:23.469Z</time>
</trkpt>
<trkpt lat="-28.3113668" lon="153.4626126">
<ele>0.000</ele>
<time>2018-01-24T01:16:25.647Z</time>
</trkpt>
<trkpt lat="-28.3112505" lon="153.4622337">
<ele>0.000</ele>
<time>2018-01-24T01:16:27.896Z</time>
</trkpt>
<trkpt lat="-28.3111500" lon="153.4618401">
<ele>0.000</ele>
<time>2018-01-24T01:16:30.336Z</time>
</trkpt>
<trkpt lat="-28.3110383" lon="153.4614426">
<ele>0.000</ele>
<time>2018-01-24T01:16:32.968Z</time>
</trkpt>
<trkpt lat="-28.3109538" lon="153.4610256">
<ele>0.000</ele>
<time>2018-01-24T01:16:35.794Z</time>
</trkpt>
<trkpt lat="-28.3108414" lon="153.4606496">
<ele>0.000</ele>
<time>2018-01-24T01:16:38.387Z</time>
</trkpt>
<trkpt lat="-28.3107613" lon="153.4602903">
<ele>0.000</ele>
<time>2018-01-24T01:16:40.674Z</time>
</trkpt>
<trkpt lat="-28.3106220" lon="153.4599213">
<ele>0.000</ele>
<time>2018-01-24T01:16:43.010Z</time>
</trkpt>
<trkpt lat="-28.3104907" lon="153.4595263">
<ele>0.000</ele>
<time>2018-01-24T01:16:45.442Z</time>
</trkpt>
<trkpt lat="-28.3103644" lon="153.4591108">
<ele>0.000</ele>
<time>2018-01-24T01:16:48.025Z</time>
</trkpt>
<trkpt lat="-28.3102718" lon="153.4586681">
<ele>0.000</ele>
<time>2018-01-24T01:16:50.748Z</time>
</trkpt>
<trkpt lat="-28.3101569" lon="153.4582764">
<ele>0.000</ele>
<time>2018-01-24T01:16:53.190Z</time>
</trkpt>
<trkpt lat="-28.3100436" lon="153.4578853">
<ele>0.000</ele>
<time>2018-01-24T01:16:55.591Z</time>
</trkpt>
<trkpt lat="-28.3099382" lon="153.4574578">
<ele>0.000</ele>
<time>2018-01-24T01:16:58.248Z</time>
</trkpt>
<trkpt lat="-28.3098274" lon="153.4570409">
<ele>0.000</ele>
<time>2018-01-24T01:17:00.901Z</time>
</trkpt>
<trkpt lat="-28.3097017" lon="153.4566559">
<ele>0.000</ele>
<time>2018-01-24T01:17:03.331Z</time>
</trkpt>
<trkpt lat="-28.3096036" lon="153.4562553">
<ele>0.000</ele>
<time>2018-01-24T01:17:05.727Z</time>
</trkpt>
<trkpt lat="-28.3094731" lon="153.4558577">
<ele>0.000</ele>
<time>2018-01-24T01:17:08.150Z</time>
</trkpt>
<trkpt lat="-28.3093806" lon="153.4554581">
<ele>0.000</ele>
<time>2018-01-24T01:17:10.532Z</time>
</trkpt>
<trkpt lat="-28.3093267" lon="153.4550598">
<ele>0.000</ele>
<time>2018-01-24T01:17:12.860Z</time>
</trkpt>
<trkpt lat="-28.3092620" lon="153.4546530">
<ele>0.000</ele>
<time>2018-01-24T01:17:15.220Z</time>
</trkpt>
<trkpt lat="-28.3092170" lon="153.4542742">
<ele>0.000</ele>
<time>2018-01-24T01:17:17.407Z</time>
</trkpt>
<trkpt lat="-28.3091327" lon="153.4538728">
<ele>0.000</ele>
<time>2018-01-24T01:17:19.796Z</time>
</trkpt>
<trkpt lat="-28.3090657" lon="153.4534647">
<ele>0.000</ele>
<time>2018-01-24T01:17:22.204Z</time>
</trkpt>
<trkpt lat="-28.3090238" lon="153.4530616">
<ele>0.000</ele>
<time>2018-01-24T01:17:24.559Z</time>
</trkpt>
<trkpt lat="-28.3089497" lon="153.4526648">
<ele>0.000</ele>
<time>2018-01-24T01:17:26.926Z</time>
</trkpt>
<trkpt lat="-28.3089030" lon="153.4522812">
<ele>0.000</ele>
<time>2018-01-24T01:17:29.252Z</time>
</trkpt>
<trkpt lat="-28.3088657" lon="153.4518552">
<ele>0.000</ele>
<time>2018-01-24T01:17:31.876Z</time>
</trkpt>
<trkpt lat="-28.3087967" lon="153.4514514">
<ele>0.000</ele>
<time>2018-01-24T01:17:34.363Z</time>
</trkpt>
<trkpt lat="-28.3087376" lon="153.4510368">
<ele>0.000</ele>
<time>2018-01-24T01:17:36.884Z</time>
</trkpt>
<trkpt lat="-28.3087009" lon="153.4506308">
<ele>0.000</ele>
<time>2018-01-24T01:17:39.340Z</time>
</trkpt>
<trkpt lat="-28.3086382" lon="153.4502325">
<ele>0.000</ele>
<time>2018-01-24T01:17:41.750Z</time>
</trkpt>
<trkpt lat="-28.3085708" lon="153.4498282">
<ele>0.000</ele>
<time>2018-01-24T01:17:44.169Z</time>
</trkpt>
<trkpt lat="-28.3085108" lon="153.4494623">
<ele>0.000</ele>
<time>2018-01-24T01:17:46.369Z</time>
</trkpt>
<trkpt lat="-28.3084500" lon="153.4491006">
<ele>0.000</ele>
<time>2018-01-24T01:17:48.593Z</time>
</trkpt>
<trkpt lat="-28.3084322" lon="153.4487418">
<ele>0.000</ele>
<time>2018-01-24T01:17:50.820Z</time>
</trkpt>
<trkpt lat="-28.3084399" lon="153.4484238">
<ele>0.000</ele>
<time>2018-01-24T01:17:52.833Z</time>
</trkpt>
<trkpt lat="-28.3084943" lon="153.4480855">
<ele>0.000</ele>
<time>2018-01-24T01:17:55.051Z</time>
</trkpt>
<trkpt lat="-28.3087320" lon="153.4478379">
<ele>0.000</ele>
<time>2018-01-24T01:17:57.476Z</time>
</trkpt>
<trkpt lat="-28.3089962" lon="153.4476307">
<ele>0.000</ele>
<time>2018-01-24T01:17:59.975Z</time>
</trkpt>
<trkpt lat="-28.3092707" lon="153.4474489">
<ele>0.000</ele>
<time>2018-01-24T01:18:02.489Z</time>
</trkpt>
<trkpt lat="-28.3096637" lon="153.4473141">
<ele>0.000</ele>
<time>2018-01-24T01:18:05.612Z</time>
</trkpt>
<trkpt lat="-28.3100469" lon="153.4471477">
<ele>0.000</ele>
<time>2018-01-24T01:18:08.539Z</time>
</trkpt>
<trkpt lat="-28.3104317" lon="153.4469758">
<ele>0.000</ele>
<time>2018-01-24T01:18:11.209Z</time>
</trkpt>
<trkpt lat="-28.3108298" lon="153.4467516">
<ele>0.000</ele>
<time>2018-01-24T01:18:13.951Z</time>
</trkpt>
<trkpt lat="-28.3112002" lon="153.4465651">
<ele>0.000</ele>
<time>2018-01-24T01:18:16.395Z</time>
</trkpt>
<trkpt lat="-28.3115390" lon="153.4463850">
<ele>0.000</ele>
<time>2018-01-24T01:18:18.648Z</time>
</trkpt>
<trkpt lat="-28.3118748" lon="153.4462121">
<ele>0.000</ele>
<time>2018-01-24T01:18:20.971Z</time>
</trkpt>
<trkpt lat="-28.3121805" lon="153.4460823">
<ele>0.000</ele>
<time>2018-01-24T01:18:23.201Z</time>
</trkpt>
<trkpt lat="-28.3124542" lon="153.4459735">
<ele>0.000</ele>
<time>2018-01-24T01:18:25.375Z</time>
</trkpt>
<trkpt lat="-28.3126997" lon="153.4458568">
<ele>0.000</ele>
<time>2018-01-24T01:18:27.711Z</time>
</trkpt>
<trkpt lat="-28.3129436" lon="153.4458014">
<ele>0.000</ele>
<time>2018-01-24T01:18:30.480Z</time>
</trkpt>
<trkpt lat="-28.3130986" lon="153.4458180">
<ele>0.000</ele>
<time>2018-01-24T01:18:33.002Z</time>
</trkpt>
<trkpt lat="-28.3130986" lon="153.4458180">
<ele>0.000</ele>
<time>2018-01-24T01:18:41.000Z</time>
</trkpt>
<trkpt lat="-28.3130986" lon="153.4458180">
<ele>0.000</ele>
<time>2018-01-24T01:18:54.344Z</time>
</trkpt>
<trkpt lat="-28.3133286" lon="153.4457512">
<ele>0.000</ele>
<time>2018-01-24T01:19:03.570Z</time>
</trkpt>
<trkpt lat="-28.3133377" lon="153.4455142">
<ele>0.000</ele>
<time>2018-01-24T01:19:07.242Z</time>
</trkpt>
<trkpt lat="-28.3132575" lon="153.4451696">
<ele>0.000</ele>
<time>2018-01-24T01:19:10.693Z</time>
</trkpt>
<trkpt lat="-28.3131743" lon="153.4447397">
<ele>0.000</ele>
<time>2018-01-24T01:19:14.065Z</time>
</trkpt>
<trkpt lat="-28.3131162" lon="153.4443460">
<ele>0.000</ele>
<time>2018-01-24T01:19:16.920Z</time>
</trkpt>
<trkpt lat="-28.3130545" lon="153.4439427">
<ele>0.000</ele>
<time>2018-01-24T01:19:19.654Z</time>
</trkpt>
<trkpt lat="-28.3129882" lon="153.4434934">
<ele>0.000</ele>
<time>2018-01-24T01:19:22.544Z</time>
</trkpt>
<trkpt lat="-28.3129254" lon="153.4430342">
<ele>0.000</ele>
<time>2018-01-24T01:19:25.441Z</time>
</trkpt>
<trkpt lat="-28.3128527" lon="153.4425788">
<ele>0.000</ele>
<time>2018-01-24T01:19:28.300Z</time>
</trkpt>
<trkpt lat="-28.3127971" lon="153.4421134">
<ele>0.000</ele>
<time>2018-01-24T01:19:31.138Z</time>
</trkpt>
<trkpt lat="-28.3127477" lon="153.4416410">
<ele>0.000</ele>
<time>2018-01-24T01:19:33.861Z</time>
</trkpt>
<trkpt lat="-28.3126358" lon="153.4411093">
<ele>0.000</ele>
<time>2018-01-24T01:19:36.837Z</time>
</trkpt>
<trkpt lat="-28.3125829" lon="153.4405738">
<ele>0.000</ele>
<time>2018-01-24T01:19:39.724Z</time>
</trkpt>
<trkpt lat="-28.3124938" lon="153.4400453">
<ele>0.000</ele>
<time>2018-01-24T01:19:42.608Z</time>
</trkpt>
<trkpt lat="-28.3123986" lon="153.4395198">
<ele>0.187</ele>
<time>2018-01-24T01:19:45.503Z</time>
</trkpt>
<trkpt lat="-28.3123241" lon="153.4391983">
<ele>0.617</ele>
<time>2018-01-24T01:19:47.308Z</time>
</trkpt>
<trkpt lat="-28.3122574" lon="153.4388509">
<ele>0.887</ele>
<time>2018-01-24T01:19:49.240Z</time>
</trkpt>
<trkpt lat="-28.3121808" lon="153.4384978">
<ele>1.019</ele>
<time>2018-01-24T01:19:51.218Z</time>
</trkpt>
<trkpt lat="-28.3121135" lon="153.4381559">
<ele>1.052</ele>
<time>2018-01-24T01:19:53.174Z</time>
</trkpt>
<trkpt lat="-28.3120552" lon="153.4378499">
<ele>0.987</ele>
<time>2018-01-24T01:19:55.043Z</time>
</trkpt>
<trkpt lat="-28.3120139" lon="153.4375718">
<ele>0.848</ele>
<time>2018-01-24T01:19:56.917Z</time>
</trkpt>
<trkpt lat="-28.3119773" lon="153.4373160">
<ele>0.698</ele>
<time>2018-01-24T01:19:58.909Z</time>
</trkpt>
<trkpt lat="-28.3119166" lon="153.4371155">
<ele>0.546</ele>
<time>2018-01-24T01:20:01.060Z</time>
</trkpt>
<trkpt lat="-28.3119323" lon="153.4369962">
<ele>0.168</ele>
<time>2018-01-24T01:20:02.770Z</time>
</trkpt>
<trkpt lat="-28.3119318" lon="153.4368936">
<ele>0.000</ele>
<time>2018-01-24T01:20:04.790Z</time>
</trkpt>
<trkpt lat="-28.3119129" lon="153.4367892">
<ele>0.000</ele>
<time>2018-01-24T01:20:06.999Z</time>
</trkpt>
<trkpt lat="-28.3119129" lon="153.4367892">
<ele>0.000</ele>
<time>2018-01-24T01:20:11.999Z</time>
</trkpt>
<trkpt lat="-28.3119129" lon="153.4367892">
<ele>0.000</ele>
<time>2018-01-24T01:22:13.616Z</time>
</trkpt>
<trkpt lat="-28.3119193" lon="153.4365900">
<ele>0.000</ele>
<time>2018-01-24T01:22:21.064Z</time>
</trkpt>
<trkpt lat="-28.3119390" lon="153.4364588">
<ele>0.000</ele>
<time>2018-01-24T01:22:23.042Z</time>
</trkpt>
<trkpt lat="-28.3120766" lon="153.4363674">
<ele>0.000</ele>
<time>2018-01-24T01:22:24.802Z</time>
</trkpt>
<trkpt lat="-28.3123379" lon="153.4363152">
<ele>0.000</ele>
<time>2018-01-24T01:22:27.059Z</time>
</trkpt>
<trkpt lat="-28.3126484" lon="153.4362522">
<ele>0.000</ele>
<time>2018-01-24T01:22:29.380Z</time>
</trkpt>
<trkpt lat="-28.3129462" lon="153.4361934">
<ele>0.000</ele>
<time>2018-01-24T01:22:31.473Z</time>
</trkpt>
<trkpt lat="-28.3132530" lon="153.4361496">
<ele>0.000</ele>
<time>2018-01-24T01:22:33.689Z</time>
</trkpt>
<trkpt lat="-28.3135141" lon="153.4360963">
<ele>0.000</ele>
<time>2018-01-24T01:22:35.666Z</time>
</trkpt>
<trkpt lat="-28.3137696" lon="153.4360326">
<ele>0.000</ele>
<time>2018-01-24T01:22:37.596Z</time>
</trkpt>
<trkpt lat="-28.3140295" lon="153.4359497">
<ele>0.000</ele>
<time>2018-01-24T01:22:39.545Z</time>
</trkpt>
<trkpt lat="-28.3142936" lon="153.4358361">
<ele>0.000</ele>
<time>2018-01-24T01:22:41.538Z</time>
</trkpt>
<trkpt lat="-28.3145570" lon="153.4357361">
<ele>0.000</ele>
<time>2018-01-24T01:22:43.445Z</time>
</trkpt>
<trkpt lat="-28.3148307" lon="153.4355844">
<ele>0.279</ele>
<time>2018-01-24T01:22:45.457Z</time>
</trkpt>
<trkpt lat="-28.3150929" lon="153.4354171">
<ele>0.937</ele>
<time>2018-01-24T01:22:47.398Z</time>
</trkpt>
<trkpt lat="-28.3153503" lon="153.4352313">
<ele>1.401</ele>
<time>2018-01-24T01:22:49.372Z</time>
</trkpt>
<trkpt lat="-28.3156272" lon="153.4350290">
<ele>1.471</ele>
<time>2018-01-24T01:22:51.559Z</time>
</trkpt>
<trkpt lat="-28.3158654" lon="153.4348411">
<ele>1.094</ele>
<time>2018-01-24T01:22:53.542Z</time>
</trkpt>
<trkpt lat="-28.3161006" lon="153.4346576">
<ele>0.457</ele>
<time>2018-01-24T01:22:55.504Z</time>
</trkpt>
<trkpt lat="-28.3163306" lon="153.4344566">
<ele>0.000</ele>
<time>2018-01-24T01:22:57.466Z</time>
</trkpt>
<trkpt lat="-28.3165550" lon="153.4342168">
<ele>0.000</ele>
<time>2018-01-24T01:22:59.521Z</time>
</trkpt>
<trkpt lat="-28.3167653" lon="153.4339487">
<ele>0.000</ele>
<time>2018-01-24T01:23:01.641Z</time>
</trkpt>
<trkpt lat="-28.3169459" lon="153.4336769">
<ele>0.000</ele>
<time>2018-01-24T01:23:03.672Z</time>
</trkpt>
<trkpt lat="-28.3171201" lon="153.4334085">
<ele>0.000</ele>
<time>2018-01-24T01:23:05.662Z</time>
</trkpt>
<trkpt lat="-28.3172926" lon="153.4331358">
<ele>0.000</ele>
<time>2018-01-24T01:23:07.654Z</time>
</trkpt>
<trkpt lat="-28.3174526" lon="153.4328559">
<ele>0.000</ele>
<time>2018-01-24T01:23:09.611Z</time>
</trkpt>
<trkpt lat="-28.3176157" lon="153.4325623">
<ele>0.000</ele>
<time>2018-01-24T01:23:11.625Z</time>
</trkpt>
<trkpt lat="-28.3177748" lon="153.4322771">
<ele>0.000</ele>
<time>2018-01-24T01:23:13.575Z</time>
</trkpt>
<trkpt lat="-28.3179344" lon="153.4319964">
<ele>0.000</ele>
<time>2018-01-24T01:23:15.501Z</time>
</trkpt>
<trkpt lat="-28.3181154" lon="153.4317155">
<ele>0.000</ele>
<time>2018-01-24T01:23:17.498Z</time>
</trkpt>
<trkpt lat="-28.3182892" lon="153.4314211">
<ele>0.000</ele>
<time>2018-01-24T01:23:19.522Z</time>
</trkpt>
<trkpt lat="-28.3184579" lon="153.4311206">
<ele>0.000</ele>
<time>2018-01-24T01:23:21.556Z</time>
</trkpt>
<trkpt lat="-28.3186214" lon="153.4308283">
<ele>0.000</ele>
<time>2018-01-24T01:23:23.537Z</time>
</trkpt>
<trkpt lat="-28.3187954" lon="153.4305369">
<ele>0.000</ele>
<time>2018-01-24T01:23:25.553Z</time>
</trkpt>
<trkpt lat="-28.3189816" lon="153.4302670">
<ele>0.000</ele>
<time>2018-01-24T01:23:27.511Z</time>
</trkpt>
<trkpt lat="-28.3191438" lon="153.4299727">
<ele>0.000</ele>
<time>2018-01-24T01:23:29.492Z</time>
</trkpt>
<trkpt lat="-28.3193133" lon="153.4297049">
<ele>0.000</ele>
<time>2018-01-24T01:23:31.374Z</time>
</trkpt>
<trkpt lat="-28.3194851" lon="153.4294178">
<ele>0.000</ele>
<time>2018-01-24T01:23:33.351Z</time>
</trkpt>
<trkpt lat="-28.3196555" lon="153.4291104">
<ele>0.000</ele>
<time>2018-01-24T01:23:35.407Z</time>
</trkpt>
<trkpt lat="-28.3198324" lon="153.4288122">
<ele>0.000</ele>
<time>2018-01-24T01:23:37.436Z</time>
</trkpt>
<trkpt lat="-28.3199934" lon="153.4285150">
<ele>0.000</ele>
<time>2018-01-24T01:23:39.417Z</time>
</trkpt>
<trkpt lat="-28.3201535" lon="153.4282176">
<ele>0.000</ele>
<time>2018-01-24T01:23:41.405Z</time>
</trkpt>
<trkpt lat="-28.3203138" lon="153.4279217">
<ele>0.000</ele>
<time>2018-01-24T01:23:43.387Z</time>
</trkpt>
<trkpt lat="-28.3204775" lon="153.4276181">
<ele>0.000</ele>
<time>2018-01-24T01:23:45.433Z</time>
</trkpt>
<trkpt lat="-28.3206388" lon="153.4273249">
<ele>0.000</ele>
<time>2018-01-24T01:23:47.433Z</time>
</trkpt>
<trkpt lat="-28.3207762" lon="153.4270222">
<ele>0.000</ele>
<time>2018-01-24T01:23:49.386Z</time>
</trkpt>
<trkpt lat="-28.3208256" lon="153.4266706">
<ele>0.000</ele>
<time>2018-01-24T01:23:51.404Z</time>
</trkpt>
<trkpt lat="-28.3208421" lon="153.4263048">
<ele>0.000</ele>
<time>2018-01-24T01:23:53.522Z</time>
</trkpt>
<trkpt lat="-28.3208648" lon="153.4259857">
<ele>0.000</ele>
<time>2018-01-24T01:23:55.493Z</time>
</trkpt>
<trkpt lat="-28.3208751" lon="153.4256853">
<ele>0.000</ele>
<time>2018-01-24T01:23:57.516Z</time>
</trkpt>
<trkpt lat="-28.3209095" lon="153.4254372">
<ele>0.000</ele>
<time>2018-01-24T01:23:59.329Z</time>
</trkpt>
<trkpt lat="-28.3209399" lon="153.4251870">
<ele>0.000</ele>
<time>2018-01-24T01:24:01.196Z</time>
</trkpt>
<trkpt lat="-28.3209960" lon="153.4249606">
<ele>0.000</ele>
<time>2018-01-24T01:24:02.892Z</time>
</trkpt>
<trkpt lat="-28.3210255" lon="153.4246736">
<ele>0.000</ele>
<time>2018-01-24T01:24:04.846Z</time>
</trkpt>
<trkpt lat="-28.3210544" lon="153.4243560">
<ele>0.000</ele>
<time>2018-01-24T01:24:06.900Z</time>
</trkpt>
<trkpt lat="-28.3210942" lon="153.4240519">
<ele>0.000</ele>
<time>2018-01-24T01:24:08.889Z</time>
</trkpt>
<trkpt lat="-28.3211269" lon="153.4237596">
<ele>0.000</ele>
<time>2018-01-24T01:24:10.833Z</time>
</trkpt>
<trkpt lat="-28.3211444" lon="153.4234668">
<ele>0.000</ele>
<time>2018-01-24T01:24:12.756Z</time>
</trkpt>
<trkpt lat="-28.3211842" lon="153.4231636">
<ele>0.000</ele>
<time>2018-01-24T01:24:14.742Z</time>
</trkpt>
<trkpt lat="-28.3212397" lon="153.4228612">
<ele>0.000</ele>
<time>2018-01-24T01:24:16.758Z</time>
</trkpt>
<trkpt lat="-28.3212887" lon="153.4225724">
<ele>0.000</ele>
<time>2018-01-24T01:24:18.697Z</time>
</trkpt>
<trkpt lat="-28.3213547" lon="153.4222599">
<ele>0.000</ele>
<time>2018-01-24T01:24:20.817Z</time>
</trkpt>
<trkpt lat="-28.3214630" lon="153.4219737">
<ele>0.000</ele>
<time>2018-01-24T01:24:22.882Z</time>
</trkpt>
<trkpt lat="-28.3215608" lon="153.4217061">
<ele>0.000</ele>
<time>2018-01-24T01:24:24.819Z</time>
</trkpt>
<trkpt lat="-28.3216679" lon="153.4214237">
<ele>0.000</ele>
<time>2018-01-24T01:24:26.874Z</time>
</trkpt>
<trkpt lat="-28.3218068" lon="153.4211690">
<ele>0.000</ele>
<time>2018-01-24T01:24:28.846Z</time>
</trkpt>
<trkpt lat="-28.3219170" lon="153.4208856">
<ele>0.000</ele>
<time>2018-01-24T01:24:30.858Z</time>
</trkpt>
<trkpt lat="-28.3220635" lon="153.4206169">
<ele>0.000</ele>
<time>2018-01-24T01:24:32.909Z</time>
</trkpt>
<trkpt lat="-28.3221922" lon="153.4203437">
<ele>0.000</ele>
<time>2018-01-24T01:24:34.930Z</time>
</trkpt>
<trkpt lat="-28.3223236" lon="153.4200935">
<ele>0.000</ele>
<time>2018-01-24T01:24:36.837Z</time>
</trkpt>
<trkpt lat="-28.3224192" lon="153.4197910">
<ele>0.000</ele>
<time>2018-01-24T01:24:38.947Z</time>
</trkpt>
<trkpt lat="-28.3225278" lon="153.4195153">
<ele>0.205</ele>
<time>2018-01-24T01:24:40.948Z</time>
</trkpt>
<trkpt lat="-28.3226238" lon="153.4192238">
<ele>0.249</ele>
<time>2018-01-24T01:24:43.050Z</time>
</trkpt>
<trkpt lat="-28.3227478" lon="153.4189764">
<ele>0.000</ele>
<time>2018-01-24T01:24:44.999Z</time>
</trkpt>
<trkpt lat="-28.3228640" lon="153.4187258">
<ele>0.000</ele>
<time>2018-01-24T01:24:46.918Z</time>
</trkpt>
<trkpt lat="-28.3229636" lon="153.4184428">
<ele>0.000</ele>
<time>2018-01-24T01:24:48.936Z</time>
</trkpt>
<trkpt lat="-28.3230948" lon="153.4181777">
<ele>0.000</ele>
<time>2018-01-24T01:24:50.927Z</time>
</trkpt>
<trkpt lat="-28.3232115" lon="153.4179308">
<ele>0.000</ele>
<time>2018-01-24T01:24:52.772Z</time>
</trkpt>
<trkpt lat="-28.3233255" lon="153.4176673">
<ele>0.000</ele>
<time>2018-01-24T01:24:54.737Z</time>
</trkpt>
<trkpt lat="-28.3234376" lon="153.4174133">
<ele>0.000</ele>
<time>2018-01-24T01:24:56.676Z</time>
</trkpt>
<trkpt lat="-28.3235406" lon="153.4171394">
<ele>0.000</ele>
<time>2018-01-24T01:24:58.742Z</time>
</trkpt>
<trkpt lat="-28.3236379" lon="153.4168888">
<ele>0.000</ele>
<time>2018-01-24T01:25:00.659Z</time>
</trkpt>
<trkpt lat="-28.3237390" lon="153.4166409">
<ele>0.000</ele>
<time>2018-01-24T01:25:02.568Z</time>
</trkpt>
<trkpt lat="-28.3238584" lon="153.4163817">
<ele>0.000</ele>
<time>2018-01-24T01:25:04.604Z</time>
</trkpt>
<trkpt lat="-28.3239674" lon="153.4161327">
<ele>0.000</ele>
<time>2018-01-24T01:25:06.546Z</time>
</trkpt>
<trkpt lat="-28.3240744" lon="153.4158878">
<ele>0.000</ele>
<time>2018-01-24T01:25:08.496Z</time>
</trkpt>
<trkpt lat="-28.3241743" lon="153.4156399">
<ele>0.000</ele>
<time>2018-01-24T01:25:10.534Z</time>
</trkpt>
<trkpt lat="-28.3242667" lon="153.4154187">
<ele>0.000</ele>
<time>2018-01-24T01:25:12.456Z</time>
</trkpt>
<trkpt lat="-28.3243655" lon="153.4152039">
<ele>0.000</ele>
<time>2018-01-24T01:25:14.418Z</time>
</trkpt>
<trkpt lat="-28.3244368" lon="153.4149641">
<ele>0.000</ele>
<time>2018-01-24T01:25:16.556Z</time>
</trkpt>
<trkpt lat="-28.3245329" lon="153.4147662">
<ele>0.000</ele>
<time>2018-01-24T01:25:18.599Z</time>
</trkpt>
<trkpt lat="-28.3246377" lon="153.4145982">
<ele>0.000</ele>
<time>2018-01-24T01:25:20.561Z</time>
</trkpt>
<trkpt lat="-28.3247484" lon="153.4144546">
<ele>0.000</ele>
<time>2018-01-24T01:25:22.444Z</time>
</trkpt>
<trkpt lat="-28.3248623" lon="153.4142977">
<ele>0.000</ele>
<time>2018-01-24T01:25:24.423Z</time>
</trkpt>
<trkpt lat="-28.3250329" lon="153.4142643">
<ele>0.000</ele>
<time>2018-01-24T01:25:26.222Z</time>
</trkpt>
<trkpt lat="-28.3252550" lon="153.4143171">
<ele>0.000</ele>
<time>2018-01-24T01:25:28.303Z</time>
</trkpt>
<trkpt lat="-28.3255039" lon="153.4144252">
<ele>0.000</ele>
<time>2018-01-24T01:25:30.418Z</time>
</trkpt>
<trkpt lat="-28.3257400" lon="153.4145625">
<ele>0.000</ele>
<time>2018-01-24T01:25:32.381Z</time>
</trkpt>
<trkpt lat="-28.3259838" lon="153.4147004">
<ele>0.000</ele>
<time>2018-01-24T01:25:34.347Z</time>
</trkpt>
<trkpt lat="-28.3263933" lon="153.4148941">
<ele>0.000</ele>
<time>2018-01-24T01:25:37.527Z</time>
</trkpt>
<trkpt lat="-28.3267958" lon="153.4150652">
<ele>0.000</ele>
<time>2018-01-24T01:25:40.609Z</time>
</trkpt>
<trkpt lat="-28.3271855" lon="153.4152490">
<ele>0.000</ele>
<time>2018-01-24T01:25:43.636Z</time>
</trkpt>
<trkpt lat="-28.3275594" lon="153.4154284">
<ele>0.000</ele>
<time>2018-01-24T01:25:46.598Z</time>
</trkpt>
<trkpt lat="-28.3279101" lon="153.4155755">
<ele>0.000</ele>
<time>2018-01-24T01:25:49.421Z</time>
</trkpt>
<trkpt lat="-28.3282814" lon="153.4155838">
<ele>0.000</ele>
<time>2018-01-24T01:25:52.267Z</time>
</trkpt>
<trkpt lat="-28.3286728" lon="153.4155140">
<ele>0.000</ele>
<time>2018-01-24T01:25:55.284Z</time>
</trkpt>
<trkpt lat="-28.3290667" lon="153.4154393">
<ele>0.000</ele>
<time>2018-01-24T01:25:58.385Z</time>
</trkpt>
<trkpt lat="-28.3294106" lon="153.4153686">
<ele>0.000</ele>
<time>2018-01-24T01:26:01.233Z</time>
</trkpt>
<trkpt lat="-28.3297596" lon="153.4153122">
<ele>0.000</ele>
<time>2018-01-24T01:26:04.310Z</time>
</trkpt>
<trkpt lat="-28.3300567" lon="153.4153324">
<ele>0.000</ele>
<time>2018-01-24T01:26:07.296Z</time>
</trkpt>
<trkpt lat="-28.3302859" lon="153.4153501">
<ele>0.000</ele>
<time>2018-01-24T01:26:10.058Z</time>
</trkpt>
<trkpt lat="-28.3305049" lon="153.4153608">
<ele>0.000</ele>
<time>2018-01-24T01:26:12.970Z</time>
</trkpt>
<trkpt lat="-28.3307438" lon="153.4153690">
<ele>0.000</ele>
<time>2018-01-24T01:26:16.018Z</time>
</trkpt>
<trkpt lat="-28.3310001" lon="153.4153826">
<ele>0.000</ele>
<time>2018-01-24T01:26:19.047Z</time>
</trkpt>
<trkpt lat="-28.3312421" lon="153.4155403">
<ele>0.000</ele>
<time>2018-01-24T01:26:22.103Z</time>
</trkpt>
<trkpt lat="-28.3314635" lon="153.4157728">
<ele>0.000</ele>
<time>2018-01-24T01:26:25.207Z</time>
</trkpt>
<trkpt lat="-28.3317613" lon="153.4157874">
<ele>0.000</ele>
<time>2018-01-24T01:26:28.141Z</time>
</trkpt>
<trkpt lat="-28.3320529" lon="153.4156171">
<ele>0.000</ele>
<time>2018-01-24T01:26:31.216Z</time>
</trkpt>
<trkpt lat="-28.3323286" lon="153.4154283">
<ele>0.001</ele>
<time>2018-01-24T01:26:34.160Z</time>
</trkpt>
<trkpt lat="-28.3325163" lon="153.4153013">
<ele>0.036</ele>
<time>2018-01-24T01:26:36.147Z</time>
</trkpt>
<trkpt lat="-28.3328048" lon="153.4151211">
<ele>0.086</ele>
<time>2018-01-24T01:26:39.127Z</time>
</trkpt>
<trkpt lat="-28.3329996" lon="153.4150066">
<ele>0.203</ele>
<time>2018-01-24T01:26:41.119Z</time>
</trkpt>
<trkpt lat="-28.3331909" lon="153.4148982">
<ele>0.401</ele>
<time>2018-01-24T01:26:43.088Z</time>
</trkpt>
<trkpt lat="-28.3333937" lon="153.4148248">
<ele>0.686</ele>
<time>2018-01-24T01:26:45.079Z</time>
</trkpt>
<trkpt lat="-28.3335991" lon="153.4147745">
<ele>1.036</ele>
<time>2018-01-24T01:26:47.070Z</time>
</trkpt>
<trkpt lat="-28.3337986" lon="153.4147257">
<ele>1.378</ele>
<time>2018-01-24T01:26:49.026Z</time>
</trkpt>
<trkpt lat="-28.3339995" lon="153.4146772">
<ele>1.643</ele>
<time>2018-01-24T01:26:51.003Z</time>
</trkpt>
<trkpt lat="-28.3342007" lon="153.4146320">
<ele>1.823</ele>
<time>2018-01-24T01:26:52.999Z</time>
</trkpt>
<trkpt lat="-28.3343963" lon="153.4146041">
<ele>1.946</ele>
<time>2018-01-24T01:26:55.015Z</time>
</trkpt>
<trkpt lat="-28.3345627" lon="153.4146876">
<ele>2.048</ele>
<time>2018-01-24T01:26:56.966Z</time>
</trkpt>
<trkpt lat="-28.3346626" lon="153.4148850">
<ele>2.148</ele>
<time>2018-01-24T01:26:59.075Z</time>
</trkpt>
<trkpt lat="-28.3347168" lon="153.4151015">
<ele>2.237</ele>
<time>2018-01-24T01:27:01.112Z</time>
</trkpt>
<trkpt lat="-28.3347455" lon="153.4153124">
<ele>2.281</ele>
<time>2018-01-24T01:27:03.069Z</time>
</trkpt>
<trkpt lat="-28.3347702" lon="153.4155280">
<ele>2.240</ele>
<time>2018-01-24T01:27:05.110Z</time>
</trkpt>
<trkpt lat="-28.3347939" lon="153.4157295">
<ele>2.101</ele>
<time>2018-01-24T01:27:07.103Z</time>
</trkpt>
<trkpt lat="-28.3348156" lon="153.4159134">
<ele>1.876</ele>
<time>2018-01-24T01:27:09.109Z</time>
</trkpt>
<trkpt lat="-28.3348288" lon="153.4160550">
<ele>1.611</ele>
<time>2018-01-24T01:27:11.021Z</time>
</trkpt>
<trkpt lat="-28.3348501" lon="153.4162019">
<ele>1.371</ele>
<time>2018-01-24T01:27:13.526Z</time>
</trkpt>
<trkpt lat="-28.3348443" lon="153.4163075">
<ele>1.215</ele>
<time>2018-01-24T01:27:15.999Z</time>
</trkpt>
<trkpt lat="-28.3348443" lon="153.4163075">
<ele>1.152</ele>
<time>2018-01-24T01:27:23.000Z</time>
</trkpt>
<trkpt lat="-28.3348443" lon="153.4163075">
<ele>1.148</ele>
<time>2018-01-24T01:27:48.279Z</time>
</trkpt>
<trkpt lat="-28.3348328" lon="153.4161328">
<ele>1.159</ele>
<time>2018-01-24T01:27:53.194Z</time>
</trkpt>
<trkpt lat="-28.3347998" lon="153.4159265">
<ele>1.154</ele>
<time>2018-01-24T01:27:55.431Z</time>
</trkpt>
<trkpt lat="-28.3347590" lon="153.4156852">
<ele>1.127</ele>
<time>2018-01-24T01:27:57.517Z</time>
</trkpt>
<trkpt lat="-28.3347227" lon="153.4154280">
<ele>1.085</ele>
<time>2018-01-24T01:27:59.559Z</time>
</trkpt>
<trkpt lat="-28.3346905" lon="153.4151748">
<ele>1.036</ele>
<time>2018-01-24T01:28:01.570Z</time>
</trkpt>
<trkpt lat="-28.3346488" lon="153.4149374">
<ele>0.993</ele>
<time>2018-01-24T01:28:03.555Z</time>
</trkpt>
<trkpt lat="-28.3345655" lon="153.4147207">
<ele>0.975</ele>
<time>2018-01-24T01:28:05.603Z</time>
</trkpt>
<trkpt lat="-28.3344026" lon="153.4145935">
<ele>0.990</ele>
<time>2018-01-24T01:28:07.595Z</time>
</trkpt>
<trkpt lat="-28.3341923" lon="153.4145761">
<ele>1.043</ele>
<time>2018-01-24T01:28:09.568Z</time>
</trkpt>
<trkpt lat="-28.3339608" lon="153.4146158">
<ele>1.138</ele>
<time>2018-01-24T01:28:11.562Z</time>
</trkpt>
<trkpt lat="-28.3337195" lon="153.4146694">
<ele>1.271</ele>
<time>2018-01-24T01:28:13.537Z</time>
</trkpt>
<trkpt lat="-28.3334723" lon="153.4147234">
<ele>1.412</ele>
<time>2018-01-24T01:28:15.451Z</time>
</trkpt>
<trkpt lat="-28.3332024" lon="153.4148067">
<ele>1.509</ele>
<time>2018-01-24T01:28:17.440Z</time>
</trkpt>
<trkpt lat="-28.3329280" lon="153.4149428">
<ele>1.532</ele>
<time>2018-01-24T01:28:19.446Z</time>
</trkpt>
<trkpt lat="-28.3326643" lon="153.4151131">
<ele>1.469</ele>
<time>2018-01-24T01:28:21.422Z</time>
</trkpt>
<trkpt lat="-28.3323926" lon="153.4152930">
<ele>1.344</ele>
<time>2018-01-24T01:28:23.446Z</time>
</trkpt>
<trkpt lat="-28.3321260" lon="153.4154822">
<ele>1.128</ele>
<time>2018-01-24T01:28:25.481Z</time>
</trkpt>
<trkpt lat="-28.3318703" lon="153.4156630">
<ele>0.720</ele>
<time>2018-01-24T01:28:27.518Z</time>
</trkpt>
<trkpt lat="-28.3316450" lon="153.4157909">
<ele>0.000</ele>
<time>2018-01-24T01:28:29.448Z</time>
</trkpt>
<trkpt lat="-28.3314356" lon="153.4157674">
<ele>0.000</ele>
<time>2018-01-24T01:28:31.320Z</time>
</trkpt>
<trkpt lat="-28.3312845" lon="153.4156180">
<ele>0.000</ele>
<time>2018-01-24T01:28:33.270Z</time>
</trkpt>
<trkpt lat="-28.3311516" lon="153.4154523">
<ele>0.000</ele>
<time>2018-01-24T01:28:35.300Z</time>
</trkpt>
<trkpt lat="-28.3310168" lon="153.4153280">
<ele>0.000</ele>
<time>2018-01-24T01:28:37.162Z</time>
</trkpt>
<trkpt lat="-28.3308208" lon="153.4152998">
<ele>0.000</ele>
<time>2018-01-24T01:28:39.313Z</time>
</trkpt>
<trkpt lat="-28.3306344" lon="153.4152579">
<ele>0.000</ele>
<time>2018-01-24T01:28:41.412Z</time>
</trkpt>
<trkpt lat="-28.3304748" lon="153.4152438">
<ele>0.000</ele>
<time>2018-01-24T01:28:43.290Z</time>
</trkpt>
<trkpt lat="-28.3303533" lon="153.4152621">
<ele>0.000</ele>
<time>2018-01-24T01:28:45.117Z</time>
</trkpt>
<trkpt lat="-28.3302570" lon="153.4152511">
<ele>0.000</ele>
<time>2018-01-24T01:28:46.818Z</time>
</trkpt>
<trkpt lat="-28.3302834" lon="153.4154040">
<ele>0.000</ele>
<time>2018-01-24T01:28:50.178Z</time>
</trkpt>
<trkpt lat="-28.3303668" lon="153.4155542">
<ele>0.000</ele>
<time>2018-01-24T01:28:52.892Z</time>
</trkpt>
<trkpt lat="-28.3304418" lon="153.4157447">
<ele>0.000</ele>
<time>2018-01-24T01:28:55.114Z</time>
</trkpt>
<trkpt lat="-28.3305287" lon="153.4159739">
<ele>0.000</ele>
<time>2018-01-24T01:28:57.359Z</time>
</trkpt>
<trkpt lat="-28.3306537" lon="153.4161736">
<ele>0.000</ele>
<time>2018-01-24T01:28:59.466Z</time>
</trkpt>
<trkpt lat="-28.3307273" lon="153.4163696">
<ele>0.000</ele>
<time>2018-01-24T01:29:01.382Z</time>
</trkpt>
<trkpt lat="-28.3308228" lon="153.4165244">
<ele>0.000</ele>
<time>2018-01-24T01:29:03.225Z</time>
</trkpt>
<trkpt lat="-28.3309006" lon="153.4166856">
<ele>0.000</ele>
<time>2018-01-24T01:29:05.014Z</time>
</trkpt>
<trkpt lat="-28.3310227" lon="153.4168951">
<ele>0.000</ele>
<time>2018-01-24T01:29:07.210Z</time>
</trkpt>
<trkpt lat="-28.3311337" lon="153.4171137">
<ele>0.000</ele>
<time>2018-01-24T01:29:09.193Z</time>
</trkpt>
<trkpt lat="-28.3312470" lon="153.4173354">
<ele>0.000</ele>
<time>2018-01-24T01:29:11.152Z</time>
</trkpt>
<trkpt lat="-28.3313073" lon="153.4175503">
<ele>0.000</ele>
<time>2018-01-24T01:29:12.922Z</time>
</trkpt>
<trkpt lat="-28.3313668" lon="153.4177742">
<ele>0.000</ele>
<time>2018-01-24T01:29:14.825Z</time>
</trkpt>
<trkpt lat="-28.3314276" lon="153.4180236">
<ele>0.000</ele>
<time>2018-01-24T01:29:16.948Z</time>
</trkpt>
<trkpt lat="-28.3314880" lon="153.4182649">
<ele>0.000</ele>
<time>2018-01-24T01:29:18.972Z</time>
</trkpt>
<trkpt lat="-28.3315522" lon="153.4184903">
<ele>0.000</ele>
<time>2018-01-24T01:29:20.897Z</time>
</trkpt>
<trkpt lat="-28.3316014" lon="153.4187084">
<ele>0.000</ele>
<time>2018-01-24T01:29:22.792Z</time>
</trkpt>
<trkpt lat="-28.3316460" lon="153.4189166">
<ele>0.000</ele>
<time>2018-01-24T01:29:24.649Z</time>
</trkpt>
<trkpt lat="-28.3317121" lon="153.4191373">
<ele>0.088</ele>
<time>2018-01-24T01:29:26.657Z</time>
</trkpt>
<trkpt lat="-28.3318041" lon="153.4193766">
<ele>0.211</ele>
<time>2018-01-24T01:29:28.821Z</time>
</trkpt>
<trkpt lat="-28.3319366" lon="153.4195950">
<ele>0.173</ele>
<time>2018-01-24T01:29:30.914Z</time>
</trkpt>
<trkpt lat="-28.3321074" lon="153.4197935">
<ele>0.255</ele>
<time>2018-01-24T01:29:32.990Z</time>
</trkpt>
<trkpt lat="-28.3322336" lon="153.4200574">
<ele>0.547</ele>
<time>2018-01-24T01:29:35.111Z</time>
</trkpt>
<trkpt lat="-28.3323926" lon="153.4202843">
<ele>0.873</ele>
<time>2018-01-24T01:29:37.103Z</time>
</trkpt>
<trkpt lat="-28.3325646" lon="153.4204899">
<ele>1.078</ele>
<time>2018-01-24T01:29:39.061Z</time>
</trkpt>
<trkpt lat="-28.3327167" lon="153.4206869">
<ele>1.184</ele>
<time>2018-01-24T01:29:40.895Z</time>
</trkpt>
<trkpt lat="-28.3328737" lon="153.4208986">
<ele>1.134</ele>
<time>2018-01-24T01:29:42.856Z</time>
</trkpt>
<trkpt lat="-28.3330202" lon="153.4211161">
<ele>0.825</ele>
<time>2018-01-24T01:29:44.801Z</time>
</trkpt>
<trkpt lat="-28.3331772" lon="153.4213278">
<ele>0.334</ele>
<time>2018-01-24T01:29:46.747Z</time>
</trkpt>
<trkpt lat="-28.3333613" lon="153.4215312">
<ele>0.000</ele>
<time>2018-01-24T01:29:48.776Z</time>
</trkpt>
<trkpt lat="-28.3336361" lon="153.4215847">
<ele>0.000</ele>
<time>2018-01-24T01:29:51.007Z</time>
</trkpt>
<trkpt lat="-28.3338734" lon="153.4215746">
<ele>0.000</ele>
<time>2018-01-24T01:29:52.891Z</time>
</trkpt>
<trkpt lat="-28.3341240" lon="153.4214632">
<ele>0.000</ele>
<time>2018-01-24T01:29:54.887Z</time>
</trkpt>
<trkpt lat="-28.3343929" lon="153.4213368">
<ele>0.000</ele>
<time>2018-01-24T01:29:56.899Z</time>
</trkpt>
<trkpt lat="-28.3346743" lon="153.4212031">
<ele>0.000</ele>
<time>2018-01-24T01:29:58.940Z</time>
</trkpt>
<trkpt lat="-28.3349443" lon="153.4210775">
<ele>0.000</ele>
<time>2018-01-24T01:30:00.876Z</time>
</trkpt>
<trkpt lat="-28.3352276" lon="153.4209503">
<ele>0.000</ele>
<time>2018-01-24T01:30:02.903Z</time>
</trkpt>
<trkpt lat="-28.3355104" lon="153.4208735">
<ele>0.000</ele>
<time>2018-01-24T01:30:04.853Z</time>
</trkpt>
<trkpt lat="-28.3358167" lon="153.4209023">
<ele>0.000</ele>
<time>2018-01-24T01:30:06.954Z</time>
</trkpt>
<trkpt lat="-28.3360855" lon="153.4208618">
<ele>0.000</ele>
<time>2018-01-24T01:30:08.892Z</time>
</trkpt>
<trkpt lat="-28.3362918" lon="153.4206985">
<ele>0.000</ele>
<time>2018-01-24T01:30:10.800Z</time>
</trkpt>
<trkpt lat="-28.3364274" lon="153.4204530">
<ele>0.000</ele>
<time>2018-01-24T01:30:12.766Z</time>
</trkpt>
<trkpt lat="-28.3365153" lon="153.4201359">
<ele>0.000</ele>
<time>2018-01-24T01:30:14.906Z</time>
</trkpt>
<trkpt lat="-28.3366104" lon="153.4198358">
<ele>0.000</ele>
<time>2018-01-24T01:30:16.907Z</time>
</trkpt>
<trkpt lat="-28.3367944" lon="153.4196207">
<ele>0.000</ele>
<time>2018-01-24T01:30:18.847Z</time>
</trkpt>
<trkpt lat="-28.3370640" lon="153.4195818">
<ele>0.000</ele>
<time>2018-01-24T01:30:20.936Z</time>
</trkpt>
<trkpt lat="-28.3373038" lon="153.4195072">
<ele>0.000</ele>
<time>2018-01-24T01:30:22.960Z</time>
</trkpt>
<trkpt lat="-28.3374835" lon="153.4194177">
<ele>0.000</ele>
<time>2018-01-24T01:30:24.689Z</time>
</trkpt>
<trkpt lat="-28.3376569" lon="153.4193226">
<ele>2.022</ele>
<time>2018-01-24T01:30:26.529Z</time>
</trkpt>
<trkpt lat="-28.3378789" lon="153.4192828">
<ele>4.529</ele>
<time>2018-01-24T01:30:28.620Z</time>
</trkpt>
<trkpt lat="-28.3381948" lon="153.4192600">
<ele>6.644</ele>
<time>2018-01-24T01:30:30.948Z</time>
</trkpt>
<trkpt lat="-28.3385018" lon="153.4192386">
<ele>8.349</ele>
<time>2018-01-24T01:30:32.966Z</time>
</trkpt>
<trkpt lat="-28.3387823" lon="153.4192012">
<ele>9.634</ele>
<time>2018-01-24T01:30:34.876Z</time>
</trkpt>
<trkpt lat="-28.3390540" lon="153.4192079">
<ele>10.282</ele>
<time>2018-01-24T01:30:36.802Z</time>
</trkpt>
<trkpt lat="-28.3393247" lon="153.4192182">
<ele>10.300</ele>
<time>2018-01-24T01:30:38.756Z</time>
</trkpt>
<trkpt lat="-28.3395803" lon="153.4193231">
<ele>9.934</ele>
<time>2018-01-24T01:30:40.680Z</time>
</trkpt>
<trkpt lat="-28.3398833" lon="153.4194419">
<ele>9.405</ele>
<time>2018-01-24T01:30:42.872Z</time>
</trkpt>
<trkpt lat="-28.3400448" lon="153.4196991">
<ele>8.863</ele>
<time>2018-01-24T01:30:44.838Z</time>
</trkpt>
<trkpt lat="-28.3401511" lon="153.4199547">
<ele>8.271</ele>
<time>2018-01-24T01:30:46.759Z</time>
</trkpt>
<trkpt lat="-28.3401994" lon="153.4201809">
<ele>7.543</ele>
<time>2018-01-24T01:30:48.534Z</time>
</trkpt>
<trkpt lat="-28.3402159" lon="153.4203627">
<ele>6.755</ele>
<time>2018-01-24T01:30:50.162Z</time>
</trkpt>
<trkpt lat="-28.3402814" lon="153.4205248">
<ele>6.038</ele>
<time>2018-01-24T01:30:52.134Z</time>
</trkpt>
<trkpt lat="-28.3403381" lon="153.4206208">
<ele>5.526</ele>
<time>2018-01-24T01:30:53.727Z</time>
</trkpt>
<trkpt lat="-28.3404432" lon="153.4205741">
<ele>5.370</ele>
<time>2018-01-24T01:30:56.001Z</time>
</trkpt>
<trkpt lat="-28.3404432" lon="153.4205741">
<ele>5.538</ele>
<time>2018-01-24T01:31:01.001Z</time>
</trkpt>
<trkpt lat="-28.3404432" lon="153.4205741">
<ele>5.730</ele>
<time>2018-01-24T01:32:30.559Z</time>
</trkpt>
<trkpt lat="-28.3406255" lon="153.4204869">
<ele>5.731</ele>
<time>2018-01-24T01:32:40.792Z</time>
</trkpt>
<trkpt lat="-28.3405536" lon="153.4204031">
<ele>6.356</ele>
<time>2018-01-24T01:32:43.410Z</time>
</trkpt>
<trkpt lat="-28.3403888" lon="153.4203906">
<ele>8.182</ele>
<time>2018-01-24T01:32:46.906Z</time>
</trkpt>
<trkpt lat="-28.3403184" lon="153.4202781">
<ele>10.109</ele>
<time>2018-01-24T01:32:48.992Z</time>
</trkpt>
<trkpt lat="-28.3403583" lon="153.4200091">
<ele>10.874</ele>
<time>2018-01-24T01:32:52.203Z</time>
</trkpt>
<trkpt lat="-28.3403591" lon="153.4197278">
<ele>10.425</ele>
<time>2018-01-24T01:32:55.040Z</time>
</trkpt>
<trkpt lat="-28.3402648" lon="153.4194773">
<ele>9.391</ele>
<time>2018-01-24T01:32:57.821Z</time>
</trkpt>
<trkpt lat="-28.3401186" lon="153.4192790">
<ele>8.841</ele>
<time>2018-01-24T01:33:00.524Z</time>
</trkpt>
<trkpt lat="-28.3398662" lon="153.4190931">
<ele>9.478</ele>
<time>2018-01-24T01:33:03.719Z</time>
</trkpt>
<trkpt lat="-28.3395893" lon="153.4189128">
<ele>10.972</ele>
<time>2018-01-24T01:33:06.844Z</time>
</trkpt>
<trkpt lat="-28.3393554" lon="153.4188837">
<ele>12.502</ele>
<time>2018-01-24T01:33:09.458Z</time>
</trkpt>
<trkpt lat="-28.3392075" lon="153.4188892">
<ele>13.584</ele>
<time>2018-01-24T01:33:11.681Z</time>
</trkpt>
<trkpt lat="-28.3391153" lon="153.4188943">
<ele>14.115</ele>
<time>2018-01-24T01:33:13.694Z</time>
</trkpt>
<trkpt lat="-28.3390222" lon="153.4189296">
<ele>14.223</ele>
<time>2018-01-24T01:33:16.796Z</time>
</trkpt>
<trkpt lat="-28.3389985" lon="153.4190498">
<ele>14.086</ele>
<time>2018-01-24T01:33:21.293Z</time>
</trkpt>
<trkpt lat="-28.3390530" lon="153.4193026">
<ele>13.797</ele>
<time>2018-01-24T01:33:28.240Z</time>
</trkpt>
<trkpt lat="-28.3391232" lon="153.4195097">
<ele>13.101</ele>
<time>2018-01-24T01:33:31.408Z</time>
</trkpt>
<trkpt lat="-28.3392642" lon="153.4196962">
<ele>11.296</ele>
<time>2018-01-24T01:33:34.200Z</time>
</trkpt>
<trkpt lat="-28.3394217" lon="153.4200079">
<ele>8.032</ele>
<time>2018-01-24T01:33:37.307Z</time>
</trkpt>
<trkpt lat="-28.3394338" lon="153.4205154">
<ele>3.802</ele>
<time>2018-01-24T01:33:40.767Z</time>
</trkpt>
<trkpt lat="-28.3394562" lon="153.4210246">
<ele>0.000</ele>
<time>2018-01-24T01:33:43.948Z</time>
</trkpt>
<trkpt lat="-28.3394720" lon="153.4215140">
<ele>0.000</ele>
<time>2018-01-24T01:33:46.959Z</time>
</trkpt>
<trkpt lat="-28.3395383" lon="153.4219598">
<ele>0.000</ele>
<time>2018-01-24T01:33:49.727Z</time>
</trkpt>
<trkpt lat="-28.3397805" lon="153.4223388">
<ele>0.000</ele>
<time>2018-01-24T01:33:52.516Z</time>
</trkpt>
<trkpt lat="-28.3400501" lon="153.4226758">
<ele>0.000</ele>
<time>2018-01-24T01:33:55.146Z</time>
</trkpt>
<trkpt lat="-28.3402884" lon="153.4228504">
<ele>0.000</ele>
<time>2018-01-24T01:33:57.046Z</time>
</trkpt>
<trkpt lat="-28.3405589" lon="153.4229049">
<ele>0.000</ele>
<time>2018-01-24T01:33:58.933Z</time>
</trkpt>
<trkpt lat="-28.3408793" lon="153.4228624">
<ele>0.000</ele>
<time>2018-01-24T01:34:01.012Z</time>
</trkpt>
<trkpt lat="-28.3412166" lon="153.4228532">
<ele>0.000</ele>
<time>2018-01-24T01:34:03.015Z</time>
</trkpt>
<trkpt lat="-28.3415165" lon="153.4229731">
<ele>0.000</ele>
<time>2018-01-24T01:34:04.889Z</time>
</trkpt>
<trkpt lat="-28.3417725" lon="153.4231834">
<ele>0.000</ele>
<time>2018-01-24T01:34:06.782Z</time>
</trkpt>
<trkpt lat="-28.3420180" lon="153.4233323">
<ele>2.262</ele>
<time>2018-01-24T01:34:08.557Z</time>
</trkpt>
<trkpt lat="-28.3422799" lon="153.4233382">
<ele>4.580</ele>
<time>2018-01-24T01:34:10.362Z</time>
</trkpt>
<trkpt lat="-28.3425214" lon="153.4234559">
<ele>6.663</ele>
<time>2018-01-24T01:34:12.264Z</time>
</trkpt>
<trkpt lat="-28.3427242" lon="153.4237329">
<ele>8.355</ele>
<time>2018-01-24T01:34:14.507Z</time>
</trkpt>
<trkpt lat="-28.3429215" lon="153.4240166">
<ele>9.641</ele>
<time>2018-01-24T01:34:16.539Z</time>
</trkpt>
<trkpt lat="-28.3430993" lon="153.4243535">
<ele>10.590</ele>
<time>2018-01-24T01:34:18.574Z</time>
</trkpt>
<trkpt lat="-28.3432294" lon="153.4247502">
<ele>11.269</ele>
<time>2018-01-24T01:34:20.635Z</time>
</trkpt>
<trkpt lat="-28.3433614" lon="153.4251750">
<ele>11.839</ele>
<time>2018-01-24T01:34:22.715Z</time>
</trkpt>
<trkpt lat="-28.3434809" lon="153.4255567">
<ele>12.460</ele>
<time>2018-01-24T01:34:24.556Z</time>
</trkpt>
<trkpt lat="-28.3435998" lon="153.4259839">
<ele>13.029</ele>
<time>2018-01-24T01:34:26.581Z</time>
</trkpt>
<trkpt lat="-28.3437316" lon="153.4263900">
<ele>13.311</ele>
<time>2018-01-24T01:34:28.519Z</time>
</trkpt>
<trkpt lat="-28.3438269" lon="153.4267663">
<ele>13.265</ele>
<time>2018-01-24T01:34:30.288Z</time>
</trkpt>
<trkpt lat="-28.3439463" lon="153.4271071">
<ele>13.093</ele>
<time>2018-01-24T01:34:32.012Z</time>
</trkpt>
<trkpt lat="-28.3439823" lon="153.4274140">
<ele>13.034</ele>
<time>2018-01-24T01:34:33.547Z</time>
</trkpt>
<trkpt lat="-28.3439480" lon="153.4277897">
<ele>13.264</ele>
<time>2018-01-24T01:34:35.528Z</time>
</trkpt>
<trkpt lat="-28.3439159" lon="153.4281695">
<ele>13.735</ele>
<time>2018-01-24T01:34:37.511Z</time>
</trkpt>
<trkpt lat="-28.3439289" lon="153.4285441">
<ele>14.165</ele>
<time>2018-01-24T01:34:39.414Z</time>
</trkpt>
<trkpt lat="-28.3440367" lon="153.4288703">
<ele>14.379</ele>
<time>2018-01-24T01:34:41.213Z</time>
</trkpt>
<trkpt lat="-28.3442560" lon="153.4291335">
<ele>14.420</ele>
<time>2018-01-24T01:34:43.140Z</time>
</trkpt>
<trkpt lat="-28.3445430" lon="153.4293122">
<ele>14.362</ele>
<time>2018-01-24T01:34:45.144Z</time>
</trkpt>
<trkpt lat="-28.3448692" lon="153.4293768">
<ele>14.260</ele>
<time>2018-01-24T01:34:47.199Z</time>
</trkpt>
<trkpt lat="-28.3451897" lon="153.4294255">
<ele>14.220</ele>
<time>2018-01-24T01:34:49.203Z</time>
</trkpt>
<trkpt lat="-28.3454964" lon="153.4295136">
<ele>14.300</ele>
<time>2018-01-24T01:34:51.107Z</time>
</trkpt>
<trkpt lat="-28.3457731" lon="153.4296341">
<ele>14.395</ele>
<time>2018-01-24T01:34:52.893Z</time>
</trkpt>
<trkpt lat="-28.3460655" lon="153.4297152">
<ele>14.258</ele>
<time>2018-01-24T01:34:54.750Z</time>
</trkpt>
<trkpt lat="-28.3463705" lon="153.4298505">
<ele>13.596</ele>
<time>2018-01-24T01:34:56.815Z</time>
</trkpt>
<trkpt lat="-28.3466093" lon="153.4300559">
<ele>12.226</ele>
<time>2018-01-24T01:34:58.716Z</time>
</trkpt>
<trkpt lat="-28.3467316" lon="153.4303119">
<ele>10.258</ele>
<time>2018-01-24T01:35:00.355Z</time>
</trkpt>
<trkpt lat="-28.3468595" lon="153.4306123">
<ele>7.929</ele>
<time>2018-01-24T01:35:02.296Z</time>
</trkpt>
<trkpt lat="-28.3470423" lon="153.4309180">
<ele>5.339</ele>
<time>2018-01-24T01:35:04.513Z</time>
</trkpt>
<trkpt lat="-28.3472375" lon="153.4311891">
<ele>2.601</ele>
<time>2018-01-24T01:35:06.603Z</time>
</trkpt>
<trkpt lat="-28.3474957" lon="153.4313890">
<ele>0.010</ele>
<time>2018-01-24T01:35:08.679Z</time>
</trkpt>
<trkpt lat="-28.3478317" lon="153.4314507">
<ele>0.000</ele>
<time>2018-01-24T01:35:10.888Z</time>
</trkpt>
<trkpt lat="-28.3481289" lon="153.4313780">
<ele>0.000</ele>
<time>2018-01-24T01:35:12.824Z</time>
</trkpt>
<trkpt lat="-28.3483473" lon="153.4313111">
<ele>0.000</ele>
<time>2018-01-24T01:35:14.257Z</time>
</trkpt>
<trkpt lat="-28.3485501" lon="153.4313231">
<ele>0.000</ele>
<time>2018-01-24T01:35:15.578Z</time>
</trkpt>
<trkpt lat="-28.3486868" lon="153.4315871">
<ele>0.000</ele>
<time>2018-01-24T01:35:17.454Z</time>
</trkpt>
<trkpt lat="-28.3488303" lon="153.4318910">
<ele>0.000</ele>
<time>2018-01-24T01:35:19.872Z</time>
</trkpt>
<trkpt lat="-28.3490105" lon="153.4322338">
<ele>0.508</ele>
<time>2018-01-24T01:35:22.634Z</time>
</trkpt>
<trkpt lat="-28.3492022" lon="153.4325186">
<ele>1.669</ele>
<time>2018-01-24T01:35:24.789Z</time>
</trkpt>
<trkpt lat="-28.3493245" lon="153.4327570">
<ele>2.278</ele>
<time>2018-01-24T01:35:26.348Z</time>
</trkpt>
<trkpt lat="-28.3493093" lon="153.4329609">
<ele>2.779</ele>
<time>2018-01-24T01:35:27.538Z</time>
</trkpt>
<trkpt lat="-28.3492031" lon="153.4332370">
<ele>3.536</ele>
<time>2018-01-24T01:35:29.442Z</time>
</trkpt>
<trkpt lat="-28.3492279" lon="153.4335004">
<ele>4.482</ele>
<time>2018-01-24T01:35:31.387Z</time>
</trkpt>
<trkpt lat="-28.3494052" lon="153.4337487">
<ele>5.605</ele>
<time>2018-01-24T01:35:33.860Z</time>
</trkpt>
<trkpt lat="-28.3495205" lon="153.4339851">
<ele>7.408</ele>
<time>2018-01-24T01:35:35.946Z</time>
</trkpt>
<trkpt lat="-28.3496071" lon="153.4342582">
<ele>10.103</ele>
<time>2018-01-24T01:35:38.127Z</time>
</trkpt>
<trkpt lat="-28.3497033" lon="153.4345897">
<ele>12.754</ele>
<time>2018-01-24T01:35:40.690Z</time>
</trkpt>
<trkpt lat="-28.3497814" lon="153.4349267">
<ele>14.293</ele>
<time>2018-01-24T01:35:43.198Z</time>
</trkpt>
<trkpt lat="-28.3499548" lon="153.4352334">
<ele>14.877</ele>
<time>2018-01-24T01:35:45.541Z</time>
</trkpt>
<trkpt lat="-28.3501728" lon="153.4355223">
<ele>15.489</ele>
<time>2018-01-24T01:35:47.794Z</time>
</trkpt>
<trkpt lat="-28.3503725" lon="153.4357542">
<ele>16.752</ele>
<time>2018-01-24T01:35:49.660Z</time>
</trkpt>
<trkpt lat="-28.3505890" lon="153.4359159">
<ele>18.484</ele>
<time>2018-01-24T01:35:51.389Z</time>
</trkpt>
<trkpt lat="-28.3508518" lon="153.4359987">
<ele>20.258</ele>
<time>2018-01-24T01:35:53.370Z</time>
</trkpt>
<trkpt lat="-28.3511339" lon="153.4359647">
<ele>22.108</ele>
<time>2018-01-24T01:35:55.587Z</time>
</trkpt>
<trkpt lat="-28.3514081" lon="153.4359574">
<ele>24.331</ele>
<time>2018-01-24T01:35:57.628Z</time>
</trkpt>
<trkpt lat="-28.3516312" lon="153.4359350">
<ele>27.033</ele>
<time>2018-01-24T01:35:59.215Z</time>
</trkpt>
<trkpt lat="-28.3518793" lon="153.4358087">
<ele>30.226</ele>
<time>2018-01-24T01:36:01.191Z</time>
</trkpt>
<trkpt lat="-28.3520713" lon="153.4356101">
<ele>33.798</ele>
<time>2018-01-24T01:36:03.182Z</time>
</trkpt>
<trkpt lat="-28.3521898" lon="153.4353572">
<ele>37.167</ele>
<time>2018-01-24T01:36:05.152Z</time>
</trkpt>
<trkpt lat="-28.3523626" lon="153.4352013">
<ele>39.543</ele>
<time>2018-01-24T01:36:06.918Z</time>
</trkpt>
<trkpt lat="-28.3526179" lon="153.4352007">
<ele>40.778</ele>
<time>2018-01-24T01:36:09.151Z</time>
</trkpt>
<trkpt lat="-28.3529139" lon="153.4352152">
<ele>41.406</ele>
<time>2018-01-24T01:36:11.797Z</time>
</trkpt>
<trkpt lat="-28.3532086" lon="153.4352322">
<ele>41.796</ele>
<time>2018-01-24T01:36:14.066Z</time>
</trkpt>
<trkpt lat="-28.3535414" lon="153.4352593">
<ele>41.676</ele>
<time>2018-01-24T01:36:16.354Z</time>
</trkpt>
<trkpt lat="-28.3538868" lon="153.4352626">
<ele>40.415</ele>
<time>2018-01-24T01:36:18.554Z</time>
</trkpt>
<trkpt lat="-28.3542125" lon="153.4352110">
<ele>37.716</ele>
<time>2018-01-24T01:36:20.535Z</time>
</trkpt>
<trkpt lat="-28.3545196" lon="153.4350051">
<ele>33.812</ele>
<time>2018-01-24T01:36:22.607Z</time>
</trkpt>
<trkpt lat="-28.3547245" lon="153.4348500">
<ele>29.135</ele>
<time>2018-01-24T01:36:24.149Z</time>
</trkpt>
<trkpt lat="-28.3549346" lon="153.4348750">
<ele>24.384</ele>
<time>2018-01-24T01:36:25.645Z</time>
</trkpt>
<trkpt lat="-28.3551406" lon="153.4351159">
<ele>20.353</ele>
<time>2018-01-24T01:36:28.114Z</time>
</trkpt>
<trkpt lat="-28.3553203" lon="153.4353478">
<ele>17.336</ele>
<time>2018-01-24T01:36:30.351Z</time>
</trkpt>
<trkpt lat="-28.3555109" lon="153.4355147">
<ele>15.143</ele>
<time>2018-01-24T01:36:32.248Z</time>
</trkpt>
<trkpt lat="-28.3556957" lon="153.4356250">
<ele>13.440</ele>
<time>2018-01-24T01:36:33.945Z</time>
</trkpt>
<trkpt lat="-28.3558936" lon="153.4355730">
<ele>11.855</ele>
<time>2018-01-24T01:36:35.707Z</time>
</trkpt>
<trkpt lat="-28.3561093" lon="153.4353746">
<ele>10.049</ele>
<time>2018-01-24T01:36:38.160Z</time>
</trkpt>
<trkpt lat="-28.3563219" lon="153.4351007">
<ele>7.913</ele>
<time>2018-01-24T01:36:40.615Z</time>
</trkpt>
<trkpt lat="-28.3565350" lon="153.4348406">
<ele>5.653</ele>
<time>2018-01-24T01:36:42.691Z</time>
</trkpt>
<trkpt lat="-28.3567389" lon="153.4346287">
<ele>3.679</ele>
<time>2018-01-24T01:36:44.505Z</time>
</trkpt>
<trkpt lat="-28.3570687" lon="153.4345968">
<ele>2.369</ele>
<time>2018-01-24T01:36:46.721Z</time>
</trkpt>
<trkpt lat="-28.3574669" lon="153.4345931">
<ele>1.913</ele>
<time>2018-01-24T01:36:49.172Z</time>
</trkpt>
<trkpt lat="-28.3578411" lon="153.4346323">
<ele>2.180</ele>
<time>2018-01-24T01:36:51.261Z</time>
</trkpt>
<trkpt lat="-28.3582359" lon="153.4347456">
<ele>2.773</ele>
<time>2018-01-24T01:36:53.407Z</time>
</trkpt>
<trkpt lat="-28.3586433" lon="153.4347743">
<ele>3.285</ele>
<time>2018-01-24T01:36:55.479Z</time>
</trkpt>
<trkpt lat="-28.3590150" lon="153.4347481">
<ele>3.625</ele>
<time>2018-01-24T01:36:57.376Z</time>
</trkpt>
<trkpt lat="-28.3593877" lon="153.4347443">
<ele>3.906</ele>
<time>2018-01-24T01:36:59.303Z</time>
</trkpt>
<trkpt lat="-28.3597358" lon="153.4347206">
<ele>4.126</ele>
<time>2018-01-24T01:37:01.142Z</time>
</trkpt>
<trkpt lat="-28.3600584" lon="153.4346683">
<ele>4.222</ele>
<time>2018-01-24T01:37:02.931Z</time>
</trkpt>
<trkpt lat="-28.3603403" lon="153.4346105">
<ele>4.217</ele>
<time>2018-01-24T01:37:04.645Z</time>
</trkpt>
<trkpt lat="-28.3606094" lon="153.4345506">
<ele>3.983</ele>
<time>2018-01-24T01:37:06.414Z</time>
</trkpt>
<trkpt lat="-28.3608659" lon="153.4344469">
<ele>3.327</ele>
<time>2018-01-24T01:37:08.267Z</time>
</trkpt>
<trkpt lat="-28.3611350" lon="153.4342357">
<ele>2.444</ele>
<time>2018-01-24T01:37:10.531Z</time>
</trkpt>
<trkpt lat="-28.3614039" lon="153.4340087">
<ele>1.796</ele>
<time>2018-01-24T01:37:12.724Z</time>
</trkpt>
<trkpt lat="-28.3616522" lon="153.4338062">
<ele>1.590</ele>
<time>2018-01-24T01:37:14.630Z</time>
</trkpt>
<trkpt lat="-28.3619278" lon="153.4337002">
<ele>1.796</ele>
<time>2018-01-24T01:37:16.503Z</time>
</trkpt>
<trkpt lat="-28.3621876" lon="153.4336748">
<ele>2.470</ele>
<time>2018-01-24T01:37:18.293Z</time>
</trkpt>
<trkpt lat="-28.3624348" lon="153.4337409">
<ele>3.483</ele>
<time>2018-01-24T01:37:20.159Z</time>
</trkpt>
<trkpt lat="-28.3626672" lon="153.4337091">
<ele>4.354</ele>
<time>2018-01-24T01:37:21.999Z</time>
</trkpt>
<trkpt lat="-28.3628311" lon="153.4335866">
<ele>4.620</ele>
<time>2018-01-24T01:37:23.636Z</time>
</trkpt>
<trkpt lat="-28.3629365" lon="153.4333941">
<ele>4.248</ele>
<time>2018-01-24T01:37:25.401Z</time>
</trkpt>
<trkpt lat="-28.3630924" lon="153.4332504">
<ele>3.627</ele>
<time>2018-01-24T01:37:27.295Z</time>
</trkpt>
<trkpt lat="-28.3632822" lon="153.4331956">
<ele>3.352</ele>
<time>2018-01-24T01:37:29.266Z</time>
</trkpt>
<trkpt lat="-28.3636397" lon="153.4332459">
<ele>3.931</ele>
<time>2018-01-24T01:37:32.801Z</time>
</trkpt>
<trkpt lat="-28.3639481" lon="153.4334334">
<ele>5.508</ele>
<time>2018-01-24T01:37:35.224Z</time>
</trkpt>
<trkpt lat="-28.3642027" lon="153.4335880">
<ele>7.715</ele>
<time>2018-01-24T01:37:37.156Z</time>
</trkpt>
<trkpt lat="-28.3644490" lon="153.4336783">
<ele>10.114</ele>
<time>2018-01-24T01:37:39.036Z</time>
</trkpt>
<trkpt lat="-28.3646838" lon="153.4336336">
<ele>12.841</ele>
<time>2018-01-24T01:37:40.885Z</time>
</trkpt>
<trkpt lat="-28.3649075" lon="153.4335527">
<ele>16.146</ele>
<time>2018-01-24T01:37:42.755Z</time>
</trkpt>
<trkpt lat="-28.3650892" lon="153.4334736">
<ele>19.571</ele>
<time>2018-01-24T01:37:44.447Z</time>
</trkpt>
<trkpt lat="-28.3650647" lon="153.4331704">
<ele>22.401</ele>
<time>2018-01-24T01:37:47.010Z</time>
</trkpt>
<trkpt lat="-28.3650214" lon="153.4328879">
<ele>24.503</ele>
<time>2018-01-24T01:37:49.346Z</time>
</trkpt>
<trkpt lat="-28.3649967" lon="153.4326981">
<ele>26.140</ele>
<time>2018-01-24T01:37:50.970Z</time>
</trkpt>
<trkpt lat="-28.3650978" lon="153.4326175">
<ele>27.549</ele>
<time>2018-01-24T01:37:52.533Z</time>
</trkpt>
<trkpt lat="-28.3653269" lon="153.4326312">
<ele>28.676</ele>
<time>2018-01-24T01:37:55.404Z</time>
</trkpt>
<trkpt lat="-28.3655404" lon="153.4327228">
<ele>29.345</ele>
<time>2018-01-24T01:37:57.637Z</time>
</trkpt>
<trkpt lat="-28.3657606" lon="153.4327219">
<ele>29.585</ele>
<time>2018-01-24T01:37:59.602Z</time>
</trkpt>
<trkpt lat="-28.3659757" lon="153.4325865">
<ele>29.541</ele>
<time>2018-01-24T01:38:01.716Z</time>
</trkpt>
<trkpt lat="-28.3661823" lon="153.4324661">
<ele>29.295</ele>
<time>2018-01-24T01:38:03.669Z</time>
</trkpt>
<trkpt lat="-28.3663729" lon="153.4322627">
<ele>28.948</ele>
<time>2018-01-24T01:38:05.786Z</time>
</trkpt>
<trkpt lat="-28.3664926" lon="153.4319907">
<ele>28.634</ele>
<time>2018-01-24T01:38:07.853Z</time>
</trkpt>
<trkpt lat="-28.3667008" lon="153.4317900">
<ele>28.601</ele>
<time>2018-01-24T01:38:09.890Z</time>
</trkpt>
<trkpt lat="-28.3669284" lon="153.4316152">
<ele>29.072</ele>
<time>2018-01-24T01:38:11.906Z</time>
</trkpt>
<trkpt lat="-28.3671436" lon="153.4314564">
<ele>29.836</ele>
<time>2018-01-24T01:38:13.947Z</time>
</trkpt>
<trkpt lat="-28.3672446" lon="153.4313016">
<ele>30.431</ele>
<time>2018-01-24T01:38:15.565Z</time>
</trkpt>
<trkpt lat="-28.3672173" lon="153.4311281">
<ele>30.587</ele>
<time>2018-01-24T01:38:17.386Z</time>
</trkpt>
<trkpt lat="-28.3670823" lon="153.4310146">
<ele>30.296</ele>
<time>2018-01-24T01:38:19.522Z</time>
</trkpt>
<trkpt lat="-28.3669424" lon="153.4309544">
<ele>29.808</ele>
<time>2018-01-24T01:38:21.602Z</time>
</trkpt>
<trkpt lat="-28.3668666" lon="153.4308611">
<ele>29.624</ele>
<time>2018-01-24T01:38:23.558Z</time>
</trkpt>
<trkpt lat="-28.3668748" lon="153.4307463">
<ele>30.300</ele>
<time>2018-01-24T01:38:26.000Z</time>
</trkpt>
<trkpt lat="-28.3668748" lon="153.4307463">
<ele>31.689</ele>
<time>2018-01-24T01:38:29.000Z</time>
</trkpt>
<trkpt lat="-28.3668748" lon="153.4307463">
<ele>32.680</ele>
<time>2018-01-24T01:38:37.849Z</time>
</trkpt>
<trkpt lat="-28.3668407" lon="153.4305470">
<ele>32.630</ele>
<time>2018-01-24T01:38:43.679Z</time>
</trkpt>
<trkpt lat="-28.3668463" lon="153.4304127">
<ele>35.737</ele>
<time>2018-01-24T01:38:45.886Z</time>
</trkpt>
<trkpt lat="-28.3668439" lon="153.4302844">
<ele>44.836</ele>
<time>2018-01-24T01:38:47.951Z</time>
</trkpt>
<trkpt lat="-28.3668896" lon="153.4301621">
<ele>54.368</ele>
<time>2018-01-24T01:38:49.980Z</time>
</trkpt>
<trkpt lat="-28.3670017" lon="153.4300909">
<ele>58.758</ele>
<time>2018-01-24T01:38:51.994Z</time>
</trkpt>
<trkpt lat="-28.3671536" lon="153.4300373">
<ele>59.059</ele>
<time>2018-01-24T01:38:54.134Z</time>
</trkpt>
<trkpt lat="-28.3672400" lon="153.4298657">
<ele>57.634</ele>
<time>2018-01-24T01:38:56.092Z</time>
</trkpt>
<trkpt lat="-28.3672636" lon="153.4296285">
<ele>55.996</ele>
<time>2018-01-24T01:38:58.225Z</time>
</trkpt>
<trkpt lat="-28.3673123" lon="153.4293872">
<ele>54.705</ele>
<time>2018-01-24T01:39:00.454Z</time>
</trkpt>
<trkpt lat="-28.3672413" lon="153.4291580">
<ele>53.738</ele>
<time>2018-01-24T01:39:02.679Z</time>
</trkpt>
<trkpt lat="-28.3671625" lon="153.4289373">
<ele>52.883</ele>
<time>2018-01-24T01:39:04.912Z</time>
</trkpt>
<trkpt lat="-28.3671740" lon="153.4287201">
<ele>51.999</ele>
<time>2018-01-24T01:39:06.948Z</time>
</trkpt>
<trkpt lat="-28.3671585" lon="153.4285236">
<ele>51.011</ele>
<time>2018-01-24T01:39:08.658Z</time>
</trkpt>
<trkpt lat="-28.3670969" lon="153.4282810">
<ele>49.805</ele>
<time>2018-01-24T01:39:10.611Z</time>
</trkpt>
<trkpt lat="-28.3670480" lon="153.4279727">
<ele>48.290</ele>
<time>2018-01-24T01:39:12.804Z</time>
</trkpt>
<trkpt lat="-28.3669872" lon="153.4276717">
<ele>46.546</ele>
<time>2018-01-24T01:39:14.907Z</time>
</trkpt>
<trkpt lat="-28.3669050" lon="153.4273522">
<ele>44.643</ele>
<time>2018-01-24T01:39:17.291Z</time>
</trkpt>
<trkpt lat="-28.3667847" lon="153.4271111">
<ele>42.449</ele>
<time>2018-01-24T01:39:19.274Z</time>
</trkpt>
<trkpt lat="-28.3665522" lon="153.4269864">
<ele>39.848</ele>
<time>2018-01-24T01:39:21.198Z</time>
</trkpt>
<trkpt lat="-28.3662661" lon="153.4269124">
<ele>36.751</ele>
<time>2018-01-24T01:39:23.338Z</time>
</trkpt>
<trkpt lat="-28.3660077" lon="153.4268611">
<ele>33.457</ele>
<time>2018-01-24T01:39:25.405Z</time>
</trkpt>
<trkpt lat="-28.3657779" lon="153.4268202">
<ele>30.924</ele>
<time>2018-01-24T01:39:27.452Z</time>
</trkpt>
<trkpt lat="-28.3655652" lon="153.4267142">
<ele>29.811</ele>
<time>2018-01-24T01:39:29.790Z</time>
</trkpt>
<trkpt lat="-28.3654531" lon="153.4264625">
<ele>29.830</ele>
<time>2018-01-24T01:39:32.247Z</time>
</trkpt>
<trkpt lat="-28.3654426" lon="153.4262618">
<ele>30.521</ele>
<time>2018-01-24T01:39:33.708Z</time>
</trkpt>
<trkpt lat="-28.3655539" lon="153.4260288">
<ele>31.559</ele>
<time>2018-01-24T01:39:35.395Z</time>
</trkpt>
<trkpt lat="-28.3657016" lon="153.4257297">
<ele>32.636</ele>
<time>2018-01-24T01:39:37.386Z</time>
</trkpt>
<trkpt lat="-28.3658415" lon="153.4254253">
<ele>33.655</ele>
<time>2018-01-24T01:39:39.328Z</time>
</trkpt>
<trkpt lat="-28.3659598" lon="153.4251128">
<ele>34.738</ele>
<time>2018-01-24T01:39:41.359Z</time>
</trkpt>
<trkpt lat="-28.3660544" lon="153.4248026">
<ele>35.823</ele>
<time>2018-01-24T01:39:43.487Z</time>
</trkpt>
<trkpt lat="-28.3660435" lon="153.4245186">
<ele>36.639</ele>
<time>2018-01-24T01:39:45.366Z</time>
</trkpt>
<trkpt lat="-28.3659533" lon="153.4242392">
<ele>37.005</ele>
<time>2018-01-24T01:39:47.309Z</time>
</trkpt>
<trkpt lat="-28.3657726" lon="153.4238254">
<ele>36.931</ele>
<time>2018-01-24T01:39:50.153Z</time>
</trkpt>
<trkpt lat="-28.3656426" lon="153.4233605">
<ele>36.468</ele>
<time>2018-01-24T01:39:53.030Z</time>
</trkpt>
<trkpt lat="-28.3656203" lon="153.4228636">
<ele>35.734</ele>
<time>2018-01-24T01:39:55.994Z</time>
</trkpt>
<trkpt lat="-28.3655291" lon="153.4223932">
<ele>35.005</ele>
<time>2018-01-24T01:39:58.992Z</time>
</trkpt>
<trkpt lat="-28.3653548" lon="153.4219641">
<ele>34.432</ele>
<time>2018-01-24T01:40:01.982Z</time>
</trkpt>
<trkpt lat="-28.3653350" lon="153.4214939">
<ele>33.957</ele>
<time>2018-01-24T01:40:04.850Z</time>
</trkpt>
<trkpt lat="-28.3652075" lon="153.4209939">
<ele>33.571</ele>
<time>2018-01-24T01:40:08.057Z</time>
</trkpt>
<trkpt lat="-28.3650677" lon="153.4205585">
<ele>33.204</ele>
<time>2018-01-24T01:40:11.225Z</time>
</trkpt>
<trkpt lat="-28.3648260" lon="153.4202495">
<ele>32.550</ele>
<time>2018-01-24T01:40:14.165Z</time>
</trkpt>
<trkpt lat="-28.3644505" lon="153.4202061">
<ele>31.406</ele>
<time>2018-01-24T01:40:17.279Z</time>
</trkpt>
<trkpt lat="-28.3641408" lon="153.4200566">
<ele>30.096</ele>
<time>2018-01-24T01:40:20.312Z</time>
</trkpt>
<trkpt lat="-28.3638984" lon="153.4198246">
<ele>29.224</ele>
<time>2018-01-24T01:40:23.495Z</time>
</trkpt>
<trkpt lat="-28.3637617" lon="153.4195525">
<ele>29.120</ele>
<time>2018-01-24T01:40:26.219Z</time>
</trkpt>
<trkpt lat="-28.3639260" lon="153.4192548">
<ele>29.669</ele>
<time>2018-01-24T01:40:28.995Z</time>
</trkpt>
<trkpt lat="-28.3641843" lon="153.4190126">
<ele>30.518</ele>
<time>2018-01-24T01:40:32.068Z</time>
</trkpt>
<trkpt lat="-28.3643666" lon="153.4187381">
<ele>31.385</ele>
<time>2018-01-24T01:40:34.902Z</time>
</trkpt>
<trkpt lat="-28.3643474" lon="153.4183753">
<ele>32.209</ele>
<time>2018-01-24T01:40:37.834Z</time>
</trkpt>
<trkpt lat="-28.3644549" lon="153.4180206">
<ele>32.978</ele>
<time>2018-01-24T01:40:40.908Z</time>
</trkpt>
<trkpt lat="-28.3646621" lon="153.4177650">
<ele>33.888</ele>
<time>2018-01-24T01:40:43.990Z</time>
</trkpt>
<trkpt lat="-28.3648006" lon="153.4174784">
<ele>35.098</ele>
<time>2018-01-24T01:40:46.889Z</time>
</trkpt>
<trkpt lat="-28.3647255" lon="153.4171408">
<ele>36.311</ele>
<time>2018-01-24T01:40:49.432Z</time>
</trkpt>
<trkpt lat="-28.3647146" lon="153.4167040">
<ele>37.106</ele>
<time>2018-01-24T01:40:52.319Z</time>
</trkpt>
<trkpt lat="-28.3646321" lon="153.4162672">
<ele>37.350</ele>
<time>2018-01-24T01:40:55.465Z</time>
</trkpt>
<trkpt lat="-28.3645055" lon="153.4160529">
<ele>37.002</ele>
<time>2018-01-24T01:40:57.621Z</time>
</trkpt>
<trkpt lat="-28.3644059" lon="153.4158822">
<ele>36.114</ele>
<time>2018-01-24T01:40:59.335Z</time>
</trkpt>
<trkpt lat="-28.3644339" lon="153.4156590">
<ele>35.022</ele>
<time>2018-01-24T01:41:01.028Z</time>
</trkpt>
<trkpt lat="-28.3645736" lon="153.4154181">
<ele>34.179</ele>
<time>2018-01-24T01:41:02.957Z</time>
</trkpt>
<trkpt lat="-28.3646908" lon="153.4151574">
<ele>33.794</ele>
<time>2018-01-24T01:41:04.906Z</time>
</trkpt>
<trkpt lat="-28.3647470" lon="153.4148919">
<ele>33.799</ele>
<time>2018-01-24T01:41:06.854Z</time>
</trkpt>
<trkpt lat="-28.3648057" lon="153.4146360">
<ele>34.085</ele>
<time>2018-01-24T01:41:08.769Z</time>
</trkpt>
<trkpt lat="-28.3649699" lon="153.4144096">
<ele>34.716</ele>
<time>2018-01-24T01:41:10.690Z</time>
</trkpt>
<trkpt lat="-28.3651862" lon="153.4141879">
<ele>35.705</ele>
<time>2018-01-24T01:41:12.727Z</time>
</trkpt>
<trkpt lat="-28.3654181" lon="153.4140347">
<ele>36.829</ele>
<time>2018-01-24T01:41:14.713Z</time>
</trkpt>
<trkpt lat="-28.3656072" lon="153.4138602">
<ele>37.888</ele>
<time>2018-01-24T01:41:16.784Z</time>
</trkpt>
<trkpt lat="-28.3657438" lon="153.4136999">
<ele>38.925</ele>
<time>2018-01-24T01:41:18.714Z</time>
</trkpt>
<trkpt lat="-28.3657712" lon="153.4134780">
<ele>39.904</ele>
<time>2018-01-24T01:41:20.619Z</time>
</trkpt>
<trkpt lat="-28.3656911" lon="153.4132203">
<ele>40.578</ele>
<time>2018-01-24T01:41:22.623Z</time>
</trkpt>
<trkpt lat="-28.3656000" lon="153.4129378">
<ele>40.696</ele>
<time>2018-01-24T01:41:24.625Z</time>
</trkpt>
<trkpt lat="-28.3655307" lon="153.4126623">
<ele>40.337</ele>
<time>2018-01-24T01:41:26.635Z</time>
</trkpt>
<trkpt lat="-28.3654566" lon="153.4124364">
<ele>39.929</ele>
<time>2018-01-24T01:41:28.623Z</time>
</trkpt>
<trkpt lat="-28.3654063" lon="153.4122605">
<ele>39.829</ele>
<time>2018-01-24T01:41:31.183Z</time>
</trkpt>
<trkpt lat="-28.3653990" lon="153.4121385">
<ele>40.065</ele>
<time>2018-01-24T01:41:33.200Z</time>
</trkpt>
<trkpt lat="-28.3654823" lon="153.4120695">
<ele>40.748</ele>
<time>2018-01-24T01:41:37.931Z</time>
</trkpt>
<trkpt lat="-28.3655839" lon="153.4120419">
<ele>42.184</ele>
<time>2018-01-24T01:41:42.999Z</time>
</trkpt>
<trkpt lat="-28.3655839" lon="153.4120419">
<ele>44.063</ele>
<time>2018-01-24T01:41:46.999Z</time>
</trkpt>
<trkpt lat="-28.3655839" lon="153.4120419">
<ele>45.221</ele>
<time>2018-01-24T01:43:55.088Z</time>
</trkpt>
<trkpt lat="-28.3656974" lon="153.4118509">
<ele>45.135</ele>
<time>2018-01-24T01:44:04.052Z</time>
</trkpt>
<trkpt lat="-28.3658528" lon="153.4118334">
<ele>49.090</ele>
<time>2018-01-24T01:44:05.899Z</time>
</trkpt>
<trkpt lat="-28.3660837" lon="153.4118803">
<ele>60.570</ele>
<time>2018-01-24T01:44:08.054Z</time>
</trkpt>
<trkpt lat="-28.3663078" lon="153.4119329">
<ele>72.576</ele>
<time>2018-01-24T01:44:10.075Z</time>
</trkpt>
<trkpt lat="-28.3665192" lon="153.4119691">
<ele>78.135</ele>
<time>2018-01-24T01:44:11.991Z</time>
</trkpt>
<trkpt lat="-28.3667408" lon="153.4120067">
<ele>78.714</ele>
<time>2018-01-24T01:44:13.897Z</time>
</trkpt>
<trkpt lat="-28.3669816" lon="153.4120438">
<ele>77.491</ele>
<time>2018-01-24T01:44:15.780Z</time>
</trkpt>
<trkpt lat="-28.3672589" lon="153.4120857">
<ele>76.324</ele>
<time>2018-01-24T01:44:17.802Z</time>
</trkpt>
<trkpt lat="-28.3675433" lon="153.4121096">
<ele>75.592</ele>
<time>2018-01-24T01:44:19.789Z</time>
</trkpt>
<trkpt lat="-28.3678314" lon="153.4121100">
<ele>75.124</ele>
<time>2018-01-24T01:44:21.752Z</time>
</trkpt>
<trkpt lat="-28.3681261" lon="153.4120670">
<ele>74.764</ele>
<time>2018-01-24T01:44:23.746Z</time>
</trkpt>
<trkpt lat="-28.3684175" lon="153.4119957">
<ele>74.357</ele>
<time>2018-01-24T01:44:25.721Z</time>
</trkpt>
<trkpt lat="-28.3687110" lon="153.4119133">
<ele>73.731</ele>
<time>2018-01-24T01:44:27.702Z</time>
</trkpt>
<trkpt lat="-28.3690085" lon="153.4118326">
<ele>72.840</ele>
<time>2018-01-24T01:44:29.680Z</time>
</trkpt>
<trkpt lat="-28.3693088" lon="153.4117538">
<ele>71.763</ele>
<time>2018-01-24T01:44:31.650Z</time>
</trkpt>
<trkpt lat="-28.3696435" lon="153.4116698">
<ele>70.444</ele>
<time>2018-01-24T01:44:33.821Z</time>
</trkpt>
<trkpt lat="-28.3699734" lon="153.4116490">
<ele>68.661</ele>
<time>2018-01-24T01:44:35.873Z</time>
</trkpt>
<trkpt lat="-28.3703227" lon="153.4117547">
<ele>66.287</ele>
<time>2018-01-24T01:44:38.103Z</time>
</trkpt>
<trkpt lat="-28.3705938" lon="153.4119760">
<ele>63.223</ele>
<time>2018-01-24T01:44:40.190Z</time>
</trkpt>
<trkpt lat="-28.3708304" lon="153.4122184">
<ele>59.252</ele>
<time>2018-01-24T01:44:42.191Z</time>
</trkpt>
<trkpt lat="-28.3710289" lon="153.4125018">
<ele>54.413</ele>
<time>2018-01-24T01:44:44.173Z</time>
</trkpt>
<trkpt lat="-28.3712333" lon="153.4127896">
<ele>49.289</ele>
<time>2018-01-24T01:44:46.153Z</time>
</trkpt>
<trkpt lat="-28.3714401" lon="153.4130822">
<ele>44.621</ele>
<time>2018-01-24T01:44:48.086Z</time>
</trkpt>
<trkpt lat="-28.3716236" lon="153.4134264">
<ele>40.692</ele>
<time>2018-01-24T01:44:50.047Z</time>
</trkpt>
<trkpt lat="-28.3718510" lon="153.4137398">
<ele>37.349</ele>
<time>2018-01-24T01:44:51.938Z</time>
</trkpt>
<trkpt lat="-28.3720763" lon="153.4140788">
<ele>34.337</ele>
<time>2018-01-24T01:44:53.865Z</time>
</trkpt>
<trkpt lat="-28.3723209" lon="153.4144415">
<ele>31.477</ele>
<time>2018-01-24T01:44:55.923Z</time>
</trkpt>
<trkpt lat="-28.3725630" lon="153.4147627">
<ele>28.632</ele>
<time>2018-01-24T01:44:57.878Z</time>
</trkpt>
<trkpt lat="-28.3728153" lon="153.4150684">
<ele>25.717</ele>
<time>2018-01-24T01:44:59.883Z</time>
</trkpt>
<trkpt lat="-28.3731017" lon="153.4153259">
<ele>22.830</ele>
<time>2018-01-24T01:45:01.865Z</time>
</trkpt>
<trkpt lat="-28.3734187" lon="153.4155419">
<ele>20.215</ele>
<time>2018-01-24T01:45:03.832Z</time>
</trkpt>
<trkpt lat="-28.3737414" lon="153.4157503">
<ele>18.008</ele>
<time>2018-01-24T01:45:05.797Z</time>
</trkpt>
<trkpt lat="-28.3740649" lon="153.4159578">
<ele>16.270</ele>
<time>2018-01-24T01:45:07.770Z</time>
</trkpt>
<trkpt lat="-28.3743925" lon="153.4161699">
<ele>15.132</ele>
<time>2018-01-24T01:45:09.745Z</time>
</trkpt>
<trkpt lat="-28.3747422" lon="153.4163650">
<ele>14.626</ele>
<time>2018-01-24T01:45:11.735Z</time>
</trkpt>
<trkpt lat="-28.3751023" lon="153.4165673">
<ele>14.389</ele>
<time>2018-01-24T01:45:13.767Z</time>
</trkpt>
<trkpt lat="-28.3754397" lon="153.4167837">
<ele>13.810</ele>
<time>2018-01-24T01:45:15.739Z</time>
</trkpt>
<trkpt lat="-28.3757782" lon="153.4170040">
<ele>12.683</ele>
<time>2018-01-24T01:45:17.720Z</time>
</trkpt>
<trkpt lat="-28.3761197" lon="153.4172342">
<ele>11.374</ele>
<time>2018-01-24T01:45:19.712Z</time>
</trkpt>
<trkpt lat="-28.3764340" lon="153.4174850">
<ele>10.336</ele>
<time>2018-01-24T01:45:21.633Z</time>
</trkpt>
<trkpt lat="-28.3767616" lon="153.4177291">
<ele>9.742</ele>
<time>2018-01-24T01:45:23.617Z</time>
</trkpt>
<trkpt lat="-28.3770759" lon="153.4179429">
<ele>9.449</ele>
<time>2018-01-24T01:45:25.533Z</time>
</trkpt>
<trkpt lat="-28.3773716" lon="153.4181496">
<ele>9.103</ele>
<time>2018-01-24T01:45:27.409Z</time>
</trkpt>
<trkpt lat="-28.3776748" lon="153.4183440">
<ele>8.421</ele>
<time>2018-01-24T01:45:29.319Z</time>
</trkpt>
<trkpt lat="-28.3779879" lon="153.4185399">
<ele>7.413</ele>
<time>2018-01-24T01:45:31.288Z</time>
</trkpt>
<trkpt lat="-28.3782774" lon="153.4187647">
<ele>6.334</ele>
<time>2018-01-24T01:45:33.213Z</time>
</trkpt>
<trkpt lat="-28.3785614" lon="153.4190060">
<ele>5.445</ele>
<time>2018-01-24T01:45:35.133Z</time>
</trkpt>
<trkpt lat="-28.3788114" lon="153.4193244">
<ele>4.761</ele>
<time>2018-01-24T01:45:37.119Z</time>
</trkpt>
<trkpt lat="-28.3790768" lon="153.4196793">
<ele>4.091</ele>
<time>2018-01-24T01:45:39.236Z</time>
</trkpt>
<trkpt lat="-28.3793417" lon="153.4200079">
<ele>3.345</ele>
<time>2018-01-24T01:45:41.243Z</time>
</trkpt>
<trkpt lat="-28.3796319" lon="153.4203023">
<ele>2.696</ele>
<time>2018-01-24T01:45:43.240Z</time>
</trkpt>
<trkpt lat="-28.3799629" lon="153.4205357">
<ele>2.372</ele>
<time>2018-01-24T01:45:45.253Z</time>
</trkpt>
<trkpt lat="-28.3803231" lon="153.4206712">
<ele>2.473</ele>
<time>2018-01-24T01:45:47.222Z</time>
</trkpt>
<trkpt lat="-28.3807066" lon="153.4207252">
<ele>3.056</ele>
<time>2018-01-24T01:45:49.200Z</time>
</trkpt>
<trkpt lat="-28.3811021" lon="153.4207287">
<ele>4.128</ele>
<time>2018-01-24T01:45:51.169Z</time>
</trkpt>
<trkpt lat="-28.3815126" lon="153.4207005">
<ele>5.468</ele>
<time>2018-01-24T01:45:53.183Z</time>
</trkpt>
<trkpt lat="-28.3819002" lon="153.4206137">
<ele>6.872</ele>
<time>2018-01-24T01:45:55.132Z</time>
</trkpt>
<trkpt lat="-28.3822999" lon="153.4204675">
<ele>8.457</ele>
<time>2018-01-24T01:45:57.243Z</time>
</trkpt>
<trkpt lat="-28.3826668" lon="153.4203868">
<ele>10.341</ele>
<time>2018-01-24T01:45:59.165Z</time>
</trkpt>
<trkpt lat="-28.3830362" lon="153.4203388">
<ele>12.353</ele>
<time>2018-01-24T01:46:01.105Z</time>
</trkpt>
<trkpt lat="-28.3834035" lon="153.4203540">
<ele>14.252</ele>
<time>2018-01-24T01:46:03.037Z</time>
</trkpt>
<trkpt lat="-28.3837777" lon="153.4203180">
<ele>15.963</ele>
<time>2018-01-24T01:46:05.050Z</time>
</trkpt>
<trkpt lat="-28.3841208" lon="153.4202859">
<ele>17.545</ele>
<time>2018-01-24T01:46:06.978Z</time>
</trkpt>
<trkpt lat="-28.3844283" lon="153.4202286">
<ele>19.044</ele>
<time>2018-01-24T01:46:08.814Z</time>
</trkpt>
<trkpt lat="-28.3847474" lon="153.4201958">
<ele>20.258</ele>
<time>2018-01-24T01:46:10.767Z</time>
</trkpt>
<trkpt lat="-28.3850684" lon="153.4201669">
<ele>20.796</ele>
<time>2018-01-24T01:46:12.721Z</time>
</trkpt>
<trkpt lat="-28.3854035" lon="153.4201620">
<ele>20.341</ele>
<time>2018-01-24T01:46:14.668Z</time>
</trkpt>
<trkpt lat="-28.3857666" lon="153.4200724">
<ele>19.100</ele>
<time>2018-01-24T01:46:16.710Z</time>
</trkpt>
<trkpt lat="-28.3861269" lon="153.4198930">
<ele>17.823</ele>
<time>2018-01-24T01:46:18.786Z</time>
</trkpt>
<trkpt lat="-28.3864472" lon="153.4196672">
<ele>17.001</ele>
<time>2018-01-24T01:46:20.736Z</time>
</trkpt>
<trkpt lat="-28.3868015" lon="153.4194405">
<ele>16.427</ele>
<time>2018-01-24T01:46:22.827Z</time>
</trkpt>
<trkpt lat="-28.3871543" lon="153.4192582">
<ele>15.708</ele>
<time>2018-01-24T01:46:24.849Z</time>
</trkpt>
<trkpt lat="-28.3875105" lon="153.4192631">
<ele>14.645</ele>
<time>2018-01-24T01:46:26.759Z</time>
</trkpt>
<trkpt lat="-28.3878437" lon="153.4193790">
<ele>13.460</ele>
<time>2018-01-24T01:46:28.651Z</time>
</trkpt>
<trkpt lat="-28.3881881" lon="153.4195958">
<ele>12.640</ele>
<time>2018-01-24T01:46:30.721Z</time>
</trkpt>
<trkpt lat="-28.3884978" lon="153.4198687">
<ele>12.352</ele>
<time>2018-01-24T01:46:32.668Z</time>
</trkpt>
<trkpt lat="-28.3887991" lon="153.4202048">
<ele>12.405</ele>
<time>2018-01-24T01:46:34.701Z</time>
</trkpt>
<trkpt lat="-28.3891046" lon="153.4205150">
<ele>12.719</ele>
<time>2018-01-24T01:46:36.710Z</time>
</trkpt>
<trkpt lat="-28.3894189" lon="153.4207532">
<ele>13.400</ele>
<time>2018-01-24T01:46:38.665Z</time>
</trkpt>
<trkpt lat="-28.3897023" lon="153.4209898">
<ele>14.485</ele>
<time>2018-01-24T01:46:40.583Z</time>
</trkpt>
<trkpt lat="-28.3899643" lon="153.4212454">
<ele>15.720</ele>
<time>2018-01-24T01:46:42.498Z</time>
</trkpt>
<trkpt lat="-28.3902242" lon="153.4215321">
<ele>16.826</ele>
<time>2018-01-24T01:46:44.490Z</time>
</trkpt>
<trkpt lat="-28.3904554" lon="153.4218443">
<ele>17.818</ele>
<time>2018-01-24T01:46:46.449Z</time>
</trkpt>
<trkpt lat="-28.3906794" lon="153.4221651">
<ele>18.906</ele>
<time>2018-01-24T01:46:48.420Z</time>
</trkpt>
<trkpt lat="-28.3909062" lon="153.4224762">
<ele>20.191</ele>
<time>2018-01-24T01:46:50.383Z</time>
</trkpt>
<trkpt lat="-28.3913412" lon="153.4229043">
<ele>21.633</ele>
<time>2018-01-24T01:46:53.489Z</time>
</trkpt>
<trkpt lat="-28.3918810" lon="153.4231641">
<ele>23.543</ele>
<time>2018-01-24T01:46:56.533Z</time>
</trkpt>
<trkpt lat="-28.3924288" lon="153.4232729">
<ele>26.666</ele>
<time>2018-01-24T01:46:59.460Z</time>
</trkpt>
<trkpt lat="-28.3929751" lon="153.4233048">
<ele>30.940</ele>
<time>2018-01-24T01:47:02.366Z</time>
</trkpt>
<trkpt lat="-28.3935542" lon="153.4233265">
<ele>35.019</ele>
<time>2018-01-24T01:47:05.384Z</time>
</trkpt>
<trkpt lat="-28.3941268" lon="153.4233559">
<ele>37.622</ele>
<time>2018-01-24T01:47:08.348Z</time>
</trkpt>
<trkpt lat="-28.3946908" lon="153.4234799">
<ele>38.175</ele>
<time>2018-01-24T01:47:11.356Z</time>
</trkpt>
<trkpt lat="-28.3952341" lon="153.4235590">
<ele>36.611</ele>
<time>2018-01-24T01:47:14.262Z</time>
</trkpt>
<trkpt lat="-28.3957562" lon="153.4238301">
<ele>33.435</ele>
<time>2018-01-24T01:47:17.298Z</time>
</trkpt>
<trkpt lat="-28.3961388" lon="153.4243778">
<ele>29.302</ele>
<time>2018-01-24T01:47:20.417Z</time>
</trkpt>
<trkpt lat="-28.3963031" lon="153.4248607">
<ele>24.864</ele>
<time>2018-01-24T01:47:22.560Z</time>
</trkpt>
<trkpt lat="-28.3963570" lon="153.4253796">
<ele>21.214</ele>
<time>2018-01-24T01:47:24.621Z</time>
</trkpt>
<trkpt lat="-28.3963295" lon="153.4258659">
<ele>19.229</ele>
<time>2018-01-24T01:47:26.531Z</time>
</trkpt>
<trkpt lat="-28.3962783" lon="153.4263379">
<ele>18.801</ele>
<time>2018-01-24T01:47:28.455Z</time>
</trkpt>
<trkpt lat="-28.3962565" lon="153.4267926">
<ele>19.310</ele>
<time>2018-01-24T01:47:30.371Z</time>
</trkpt>
<trkpt lat="-28.3963635" lon="153.4272665">
<ele>20.356</ele>
<time>2018-01-24T01:47:32.448Z</time>
</trkpt>
<trkpt lat="-28.3964968" lon="153.4277326">
<ele>21.783</ele>
<time>2018-01-24T01:47:34.522Z</time>
</trkpt>
<trkpt lat="-28.3966376" lon="153.4281682">
<ele>23.276</ele>
<time>2018-01-24T01:47:36.511Z</time>
</trkpt>
<trkpt lat="-28.3966746" lon="153.4286316">
<ele>24.333</ele>
<time>2018-01-24T01:47:38.547Z</time>
</trkpt>
<trkpt lat="-28.3965715" lon="153.4290366">
<ele>24.788</ele>
<time>2018-01-24T01:47:40.469Z</time>
</trkpt>
<trkpt lat="-28.3964584" lon="153.4294164">
<ele>25.014</ele>
<time>2018-01-24T01:47:42.411Z</time>
</trkpt>
<trkpt lat="-28.3964804" lon="153.4298042">
<ele>25.658</ele>
<time>2018-01-24T01:47:44.380Z</time>
</trkpt>
<trkpt lat="-28.3966366" lon="153.4302140">
<ele>27.242</ele>
<time>2018-01-24T01:47:46.565Z</time>
</trkpt>
<trkpt lat="-28.3968713" lon="153.4305985">
<ele>29.792</ele>
<time>2018-01-24T01:47:48.695Z</time>
</trkpt>
<trkpt lat="-28.3971194" lon="153.4309277">
<ele>32.973</ele>
<time>2018-01-24T01:47:50.608Z</time>
</trkpt>
<trkpt lat="-28.3972984" lon="153.4313248">
<ele>36.295</ele>
<time>2018-01-24T01:47:52.542Z</time>
</trkpt>
<trkpt lat="-28.3973411" lon="153.4317891">
<ele>39.287</ele>
<time>2018-01-24T01:47:54.533Z</time>
</trkpt>
<trkpt lat="-28.3973164" lon="153.4322844">
<ele>41.805</ele>
<time>2018-01-24T01:47:56.676Z</time>
</trkpt>
<trkpt lat="-28.3973556" lon="153.4327392">
<ele>43.976</ele>
<time>2018-01-24T01:47:58.696Z</time>
</trkpt>
<trkpt lat="-28.3975354" lon="153.4331154">
<ele>45.892</ele>
<time>2018-01-24T01:48:00.592Z</time>
</trkpt>
<trkpt lat="-28.3978484" lon="153.4334693">
<ele>47.482</ele>
<time>2018-01-24T01:48:02.766Z</time>
</trkpt>
<trkpt lat="-28.3982498" lon="153.4336984">
<ele>48.735</ele>
<time>2018-01-24T01:48:04.931Z</time>
</trkpt>
<trkpt lat="-28.3986591" lon="153.4338431">
<ele>49.980</ele>
<time>2018-01-24T01:48:06.985Z</time>
</trkpt>
<trkpt lat="-28.3990124" lon="153.4341222">
<ele>51.432</ele>
<time>2018-01-24T01:48:09.040Z</time>
</trkpt>
<trkpt lat="-28.3993050" lon="153.4344598">
<ele>53.012</ele>
<time>2018-01-24T01:48:11.028Z</time>
</trkpt>
<trkpt lat="-28.3996562" lon="153.4346973">
<ele>54.829</ele>
<time>2018-01-24T01:48:12.995Z</time>
</trkpt>
<trkpt lat="-28.4000444" lon="153.4348052">
<ele>57.010</ele>
<time>2018-01-24T01:48:14.960Z</time>
</trkpt>
<trkpt lat="-28.4003954" lon="153.4349993">
<ele>59.301</ele>
<time>2018-01-24T01:48:16.922Z</time>
</trkpt>
<trkpt lat="-28.4006803" lon="153.4353099">
<ele>61.344</ele>
<time>2018-01-24T01:48:18.937Z</time>
</trkpt>
<trkpt lat="-28.4008522" lon="153.4356739">
<ele>63.058</ele>
<time>2018-01-24T01:48:20.815Z</time>
</trkpt>
<trkpt lat="-28.4009245" lon="153.4361094">
<ele>64.563</ele>
<time>2018-01-24T01:48:22.840Z</time>
</trkpt>
<trkpt lat="-28.4009946" lon="153.4365698">
<ele>65.885</ele>
<time>2018-01-24T01:48:24.961Z</time>
</trkpt>
<trkpt lat="-28.4010508" lon="153.4369914">
<ele>66.989</ele>
<time>2018-01-24T01:48:26.897Z</time>
</trkpt>
<trkpt lat="-28.4010897" lon="153.4374165">
<ele>68.007</ele>
<time>2018-01-24T01:48:28.867Z</time>
</trkpt>
<trkpt lat="-28.4010831" lon="153.4378402">
<ele>69.039</ele>
<time>2018-01-24T01:48:30.873Z</time>
</trkpt>
<trkpt lat="-28.4010467" lon="153.4382061">
<ele>69.891</ele>
<time>2018-01-24T01:48:32.660Z</time>
</trkpt>
<trkpt lat="-28.4010953" lon="153.4386311">
<ele>70.447</ele>
<time>2018-01-24T01:48:34.757Z</time>
</trkpt>
<trkpt lat="-28.4012969" lon="153.4390039">
<ele>71.040</ele>
<time>2018-01-24T01:48:36.847Z</time>
</trkpt>
<trkpt lat="-28.4014652" lon="153.4393942">
<ele>72.129</ele>
<time>2018-01-24T01:48:38.855Z</time>
</trkpt>
<trkpt lat="-28.4016324" lon="153.4397850">
<ele>73.768</ele>
<time>2018-01-24T01:48:40.815Z</time>
</trkpt>
<trkpt lat="-28.4018328" lon="153.4401898">
<ele>75.412</ele>
<time>2018-01-24T01:48:42.856Z</time>
</trkpt>
<trkpt lat="-28.4020242" lon="153.4406076">
<ele>76.416</ele>
<time>2018-01-24T01:48:44.873Z</time>
</trkpt>
<trkpt lat="-28.4022587" lon="153.4410014">
<ele>76.733</ele>
<time>2018-01-24T01:48:46.906Z</time>
</trkpt>
<trkpt lat="-28.4025995" lon="153.4412894">
<ele>76.951</ele>
<time>2018-01-24T01:48:49.044Z</time>
</trkpt>
<trkpt lat="-28.4029864" lon="153.4414047">
<ele>77.774</ele>
<time>2018-01-24T01:48:51.103Z</time>
</trkpt>
<trkpt lat="-28.4034090" lon="153.4413721">
<ele>79.491</ele>
<time>2018-01-24T01:48:53.208Z</time>
</trkpt>
<trkpt lat="-28.4038389" lon="153.4412952">
<ele>81.840</ele>
<time>2018-01-24T01:48:55.331Z</time>
</trkpt>
<trkpt lat="-28.4042193" lon="153.4412414">
<ele>84.369</ele>
<time>2018-01-24T01:48:57.325Z</time>
</trkpt>
<trkpt lat="-28.4045104" lon="153.4413705">
<ele>86.717</ele>
<time>2018-01-24T01:48:59.144Z</time>
</trkpt>
<trkpt lat="-28.4046945" lon="153.4416545">
<ele>88.773</ele>
<time>2018-01-24T01:49:01.072Z</time>
</trkpt>
<trkpt lat="-28.4047440" lon="153.4420711">
<ele>90.595</ele>
<time>2018-01-24T01:49:03.186Z</time>
</trkpt>
<trkpt lat="-28.4048074" lon="153.4426032">
<ele>92.244</ele>
<time>2018-01-24T01:49:05.482Z</time>
</trkpt>
<trkpt lat="-28.4048923" lon="153.4431159">
<ele>93.866</ele>
<time>2018-01-24T01:49:07.493Z</time>
</trkpt>
<trkpt lat="-28.4050783" lon="153.4436456">
<ele>95.632</ele>
<time>2018-01-24T01:49:09.523Z</time>
</trkpt>
<trkpt lat="-28.4054940" lon="153.4440662">
<ele>97.691</ele>
<time>2018-01-24T01:49:11.738Z</time>
</trkpt>
<trkpt lat="-28.4058716" lon="153.4443962">
<ele>100.554</ele>
<time>2018-01-24T01:49:13.773Z</time>
</trkpt>
<trkpt lat="-28.4061597" lon="153.4447423">
<ele>104.594</ele>
<time>2018-01-24T01:49:15.749Z</time>
</trkpt>
<trkpt lat="-28.4063912" lon="153.4450658">
<ele>109.154</ele>
<time>2018-01-24T01:49:17.690Z</time>
</trkpt>
<trkpt lat="-28.4064438" lon="153.4454591">
<ele>112.999</ele>
<time>2018-01-24T01:49:19.596Z</time>
</trkpt>
<trkpt lat="-28.4064149" lon="153.4458899">
<ele>115.341</ele>
<time>2018-01-24T01:49:21.571Z</time>
</trkpt>
<trkpt lat="-28.4063893" lon="153.4463346">
<ele>116.250</ele>
<time>2018-01-24T01:49:23.514Z</time>
</trkpt>
<trkpt lat="-28.4063931" lon="153.4468145">
<ele>116.565</ele>
<time>2018-01-24T01:49:25.493Z</time>
</trkpt>
<trkpt lat="-28.4063927" lon="153.4473557">
<ele>117.185</ele>
<time>2018-01-24T01:49:27.593Z</time>
</trkpt>
<trkpt lat="-28.4063937" lon="153.4479530">
<ele>118.479</ele>
<time>2018-01-24T01:49:29.842Z</time>
</trkpt>
<trkpt lat="-28.4064605" lon="153.4484588">
<ele>120.471</ele>
<time>2018-01-24T01:49:31.802Z</time>
</trkpt>
<trkpt lat="-28.4066827" lon="153.4489596">
<ele>123.104</ele>
<time>2018-01-24T01:49:34.015Z</time>
</trkpt>
<trkpt lat="-28.4070097" lon="153.4492895">
<ele>126.087</ele>
<time>2018-01-24T01:49:36.087Z</time>
</trkpt>
<trkpt lat="-28.4073137" lon="153.4495970">
<ele>128.984</ele>
<time>2018-01-24T01:49:38.119Z</time>
</trkpt>
<trkpt lat="-28.4077008" lon="153.4497725">
<ele>131.578</ele>
<time>2018-01-24T01:49:40.165Z</time>
</trkpt>
<trkpt lat="-28.4081257" lon="153.4497470">
<ele>134.051</ele>
<time>2018-01-24T01:49:42.129Z</time>
</trkpt>
<trkpt lat="-28.4085880" lon="153.4496508">
<ele>136.524</ele>
<time>2018-01-24T01:49:44.262Z</time>
</trkpt>
<trkpt lat="-28.4090385" lon="153.4495757">
<ele>138.603</ele>
<time>2018-01-24T01:49:46.399Z</time>
</trkpt>
<trkpt lat="-28.4094426" lon="153.4496030">
<ele>139.812</ele>
<time>2018-01-24T01:49:48.290Z</time>
</trkpt>
<trkpt lat="-28.4098400" lon="153.4498496">
<ele>140.140</ele>
<time>2018-01-24T01:49:50.322Z</time>
</trkpt>
<trkpt lat="-28.4102662" lon="153.4500310">
<ele>139.896</ele>
<time>2018-01-24T01:49:52.328Z</time>
</trkpt>
<trkpt lat="-28.4106859" lon="153.4502274">
<ele>139.475</ele>
<time>2018-01-24T01:49:54.338Z</time>
</trkpt>
<trkpt lat="-28.4110937" lon="153.4504497">
<ele>139.117</ele>
<time>2018-01-24T01:49:56.372Z</time>
</trkpt>
<trkpt lat="-28.4114904" lon="153.4506045">
<ele>138.630</ele>
<time>2018-01-24T01:49:58.283Z</time>
</trkpt>
<trkpt lat="-28.4119366" lon="153.4507113">
<ele>137.640</ele>
<time>2018-01-24T01:50:00.400Z</time>
</trkpt>
<trkpt lat="-28.4123139" lon="153.4508858">
<ele>136.073</ele>
<time>2018-01-24T01:50:02.357Z</time>
</trkpt>
<trkpt lat="-28.4126303" lon="153.4511789">
<ele>133.944</ele>
<time>2018-01-24T01:50:04.386Z</time>
</trkpt>
<trkpt lat="-28.4128825" lon="153.4515490">
<ele>131.378</ele>
<time>2018-01-24T01:50:06.487Z</time>
</trkpt>
<trkpt lat="-28.4131859" lon="153.4518043">
<ele>128.935</ele>
<time>2018-01-24T01:50:08.397Z</time>
</trkpt>
<trkpt lat="-28.4135863" lon="153.4519099">
<ele>126.964</ele>
<time>2018-01-24T01:50:10.423Z</time>
</trkpt>
<trkpt lat="-28.4139931" lon="153.4519910">
<ele>125.071</ele>
<time>2018-01-24T01:50:12.482Z</time>
</trkpt>
<trkpt lat="-28.4143504" lon="153.4521997">
<ele>122.778</ele>
<time>2018-01-24T01:50:14.592Z</time>
</trkpt>
<trkpt lat="-28.4146887" lon="153.4523419">
<ele>120.150</ele>
<time>2018-01-24T01:50:16.643Z</time>
</trkpt>
<trkpt lat="-28.4150220" lon="153.4523815">
<ele>117.633</ele>
<time>2018-01-24T01:50:18.705Z</time>
</trkpt>
<trkpt lat="-28.4153255" lon="153.4524389">
<ele>115.497</ele>
<time>2018-01-24T01:50:20.681Z</time>
</trkpt>
<trkpt lat="-28.4155690" lon="153.4526274">
<ele>113.698</ele>
<time>2018-01-24T01:50:22.557Z</time>
</trkpt>
<trkpt lat="-28.4157500" lon="153.4529484">
<ele>112.011</ele>
<time>2018-01-24T01:50:24.646Z</time>
</trkpt>
<trkpt lat="-28.4159315" lon="153.4532344">
<ele>110.139</ele>
<time>2018-01-24T01:50:26.578Z</time>
</trkpt>
<trkpt lat="-28.4161843" lon="153.4537340">
<ele>107.966</ele>
<time>2018-01-24T01:50:29.863Z</time>
</trkpt>
<trkpt lat="-28.4161475" lon="153.4542714">
<ele>105.451</ele>
<time>2018-01-24T01:50:33.057Z</time>
</trkpt>
<trkpt lat="-28.4159549" lon="153.4547601">
<ele>102.341</ele>
<time>2018-01-24T01:50:36.157Z</time>
</trkpt>
<trkpt lat="-28.4161099" lon="153.4552584">
<ele>98.437</ele>
<time>2018-01-24T01:50:39.169Z</time>
</trkpt>
<trkpt lat="-28.4165077" lon="153.4556001">
<ele>94.272</ele>
<time>2018-01-24T01:50:42.300Z</time>
</trkpt>
<trkpt lat="-28.4170462" lon="153.4555378">
<ele>91.069</ele>
<time>2018-01-24T01:50:45.501Z</time>
</trkpt>
<trkpt lat="-28.4175772" lon="153.4553360">
<ele>89.562</ele>
<time>2018-01-24T01:50:48.839Z</time>
</trkpt>
<trkpt lat="-28.4180208" lon="153.4552886">
<ele>89.280</ele>
<time>2018-01-24T01:50:51.434Z</time>
</trkpt>
<trkpt lat="-28.4184775" lon="153.4556850">
<ele>88.721</ele>
<time>2018-01-24T01:50:54.522Z</time>
</trkpt>
<trkpt lat="-28.4188454" lon="153.4562176">
<ele>86.404</ele>
<time>2018-01-24T01:50:57.726Z</time>
</trkpt>
<trkpt lat="-28.4192149" lon="153.4566541">
<ele>82.435</ele>
<time>2018-01-24T01:51:00.650Z</time>
</trkpt>
<trkpt lat="-28.4197082" lon="153.4568797">
<ele>78.113</ele>
<time>2018-01-24T01:51:03.551Z</time>
</trkpt>
<trkpt lat="-28.4202820" lon="153.4568713">
<ele>74.253</ele>
<time>2018-01-24T01:51:06.680Z</time>
</trkpt>
<trkpt lat="-28.4208191" lon="153.4568842">
<ele>70.906</ele>
<time>2018-01-24T01:51:09.532Z</time>
</trkpt>
<trkpt lat="-28.4213667" lon="153.4570584">
<ele>67.732</ele>
<time>2018-01-24T01:51:12.377Z</time>
</trkpt>
<trkpt lat="-28.4218864" lon="153.4574504">
<ele>64.067</ele>
<time>2018-01-24T01:51:15.407Z</time>
</trkpt>
<trkpt lat="-28.4224710" lon="153.4577243">
<ele>59.240</ele>
<time>2018-01-24T01:51:18.486Z</time>
</trkpt>
<trkpt lat="-28.4230519" lon="153.4579170">
<ele>53.435</ele>
<time>2018-01-24T01:51:21.460Z</time>
</trkpt>
<trkpt lat="-28.4234366" lon="153.4580208">
<ele>47.935</ele>
<time>2018-01-24T01:51:23.429Z</time>
</trkpt>
<trkpt lat="-28.4238189" lon="153.4581180">
<ele>43.818</ele>
<time>2018-01-24T01:51:25.401Z</time>
</trkpt>
<trkpt lat="-28.4243755" lon="153.4583167">
<ele>40.963</ele>
<time>2018-01-24T01:51:28.425Z</time>
</trkpt>
<trkpt lat="-28.4249166" lon="153.4584427">
<ele>38.594</ele>
<time>2018-01-24T01:51:31.337Z</time>
</trkpt>
<trkpt lat="-28.4254379" lon="153.4587050">
<ele>36.284</ele>
<time>2018-01-24T01:51:34.306Z</time>
</trkpt>
<trkpt lat="-28.4258921" lon="153.4591170">
<ele>34.346</ele>
<time>2018-01-24T01:51:37.294Z</time>
</trkpt>
<trkpt lat="-28.4262425" lon="153.4596354">
<ele>33.182</ele>
<time>2018-01-24T01:51:40.157Z</time>
</trkpt>
<trkpt lat="-28.4265022" lon="153.4602530">
<ele>32.500</ele>
<time>2018-01-24T01:51:43.048Z</time>
</trkpt>
<trkpt lat="-28.4266494" lon="153.4609401">
<ele>31.731</ele>
<time>2018-01-24T01:51:46.022Z</time>
</trkpt>
<trkpt lat="-28.4266673" lon="153.4616389">
<ele>30.702</ele>
<time>2018-01-24T01:51:49.020Z</time>
</trkpt>
<trkpt lat="-28.4266554" lon="153.4623059">
<ele>29.584</ele>
<time>2018-01-24T01:51:51.919Z</time>
</trkpt>
<trkpt lat="-28.4266453" lon="153.4629702">
<ele>28.616</ele>
<time>2018-01-24T01:51:54.783Z</time>
</trkpt>
<trkpt lat="-28.4266376" lon="153.4636824">
<ele>27.877</ele>
<time>2018-01-24T01:51:57.875Z</time>
</trkpt>
<trkpt lat="-28.4266202" lon="153.4643339">
<ele>27.164</ele>
<time>2018-01-24T01:52:00.790Z</time>
</trkpt>
<trkpt lat="-28.4266631" lon="153.4649841">
<ele>26.311</ele>
<time>2018-01-24T01:52:03.827Z</time>
</trkpt>
<trkpt lat="-28.4269735" lon="153.4655223">
<ele>25.463</ele>
<time>2018-01-24T01:52:06.926Z</time>
</trkpt>
<trkpt lat="-28.4274059" lon="153.4659037">
<ele>24.877</ele>
<time>2018-01-24T01:52:09.994Z</time>
</trkpt>
<trkpt lat="-28.4277371" lon="153.4663399">
<ele>24.668</ele>
<time>2018-01-24T01:52:12.914Z</time>
</trkpt>
<trkpt lat="-28.4279537" lon="153.4668297">
<ele>24.865</ele>
<time>2018-01-24T01:52:15.722Z</time>
</trkpt>
<trkpt lat="-28.4280060" lon="153.4673947">
<ele>25.433</ele>
<time>2018-01-24T01:52:18.536Z</time>
</trkpt>
<trkpt lat="-28.4280710" lon="153.4680126">
<ele>26.300</ele>
<time>2018-01-24T01:52:21.506Z</time>
</trkpt>
<trkpt lat="-28.4281362" lon="153.4684315">
<ele>27.218</ele>
<time>2018-01-24T01:52:23.568Z</time>
</trkpt>
<trkpt lat="-28.4282015" lon="153.4688544">
<ele>27.734</ele>
<time>2018-01-24T01:52:25.764Z</time>
</trkpt>
<trkpt lat="-28.4282725" lon="153.4692213">
<ele>27.492</ele>
<time>2018-01-24T01:52:27.807Z</time>
</trkpt>
<trkpt lat="-28.4283913" lon="153.4695634">
<ele>26.593</ele>
<time>2018-01-24T01:52:29.896Z</time>
</trkpt>
<trkpt lat="-28.4285101" lon="153.4698776">
<ele>25.453</ele>
<time>2018-01-24T01:52:31.890Z</time>
</trkpt>
<trkpt lat="-28.4286609" lon="153.4701736">
<ele>24.389</ele>
<time>2018-01-24T01:52:33.901Z</time>
</trkpt>
<trkpt lat="-28.4289166" lon="153.4703815">
<ele>23.479</ele>
<time>2018-01-24T01:52:35.954Z</time>
</trkpt>
<trkpt lat="-28.4292445" lon="153.4704912">
<ele>22.809</ele>
<time>2018-01-24T01:52:38.103Z</time>
</trkpt>
<trkpt lat="-28.4295897" lon="153.4704873">
<ele>22.554</ele>
<time>2018-01-24T01:52:40.224Z</time>
</trkpt>
<trkpt lat="-28.4299065" lon="153.4705254">
<ele>22.794</ele>
<time>2018-01-24T01:52:42.163Z</time>
</trkpt>
<trkpt lat="-28.4302117" lon="153.4705896">
<ele>23.388</ele>
<time>2018-01-24T01:52:44.041Z</time>
</trkpt>
<trkpt lat="-28.4305508" lon="153.4706616">
<ele>24.040</ele>
<time>2018-01-24T01:52:46.137Z</time>
</trkpt>
<trkpt lat="-28.4308541" lon="153.4708134">
<ele>24.526</ele>
<time>2018-01-24T01:52:48.210Z</time>
</trkpt>
<trkpt lat="-28.4310996" lon="153.4710701">
<ele>24.935</ele>
<time>2018-01-24T01:52:50.390Z</time>
</trkpt>
<trkpt lat="-28.4313331" lon="153.4712828">
<ele>25.512</ele>
<time>2018-01-24T01:52:52.393Z</time>
</trkpt>
<trkpt lat="-28.4315815" lon="153.4714466">
<ele>26.197</ele>
<time>2018-01-24T01:52:54.329Z</time>
</trkpt>
<trkpt lat="-28.4318478" lon="153.4715587">
<ele>26.666</ele>
<time>2018-01-24T01:52:56.247Z</time>
</trkpt>
<trkpt lat="-28.4321184" lon="153.4716795">
<ele>26.645</ele>
<time>2018-01-24T01:52:58.186Z</time>
</trkpt>
<trkpt lat="-28.4324137" lon="153.4717855">
<ele>26.080</ele>
<time>2018-01-24T01:53:00.204Z</time>
</trkpt>
<trkpt lat="-28.4327169" lon="153.4718919">
<ele>25.180</ele>
<time>2018-01-24T01:53:02.262Z</time>
</trkpt>
<trkpt lat="-28.4330085" lon="153.4720261">
<ele>24.266</ele>
<time>2018-01-24T01:53:04.333Z</time>
</trkpt>
<trkpt lat="-28.4333030" lon="153.4721135">
<ele>23.579</ele>
<time>2018-01-24T01:53:06.353Z</time>
</trkpt>
<trkpt lat="-28.4336030" lon="153.4721807">
<ele>23.274</ele>
<time>2018-01-24T01:53:08.415Z</time>
</trkpt>
<trkpt lat="-28.4338895" lon="153.4722828">
<ele>23.383</ele>
<time>2018-01-24T01:53:10.504Z</time>
</trkpt>
<trkpt lat="-28.4341042" lon="153.4724625">
<ele>23.804</ele>
<time>2018-01-24T01:53:12.401Z</time>
</trkpt>
<trkpt lat="-28.4343389" lon="153.4726157">
<ele>24.515</ele>
<time>2018-01-24T01:53:14.330Z</time>
</trkpt>
<trkpt lat="-28.4345632" lon="153.4728256">
<ele>25.556</ele>
<time>2018-01-24T01:53:16.413Z</time>
</trkpt>
<trkpt lat="-28.4347515" lon="153.4730345">
<ele>26.742</ele>
<time>2018-01-24T01:53:18.363Z</time>
</trkpt>
<trkpt lat="-28.4349465" lon="153.4732640">
<ele>27.741</ele>
<time>2018-01-24T01:53:20.549Z</time>
</trkpt>
<trkpt lat="-28.4350810" lon="153.4734937">
<ele>28.521</ele>
<time>2018-01-24T01:53:22.459Z</time>
</trkpt>
<trkpt lat="-28.4352080" lon="153.4737196">
<ele>29.162</ele>
<time>2018-01-24T01:53:24.238Z</time>
</trkpt>
<trkpt lat="-28.4353467" lon="153.4739778">
<ele>29.535</ele>
<time>2018-01-24T01:53:26.162Z</time>
</trkpt>
<trkpt lat="-28.4354564" lon="153.4742970">
<ele>29.565</ele>
<time>2018-01-24T01:53:28.295Z</time>
</trkpt>
<trkpt lat="-28.4355945" lon="153.4745903">
<ele>29.238</ele>
<time>2018-01-24T01:53:30.374Z</time>
</trkpt>
<trkpt lat="-28.4357237" lon="153.4748632">
<ele>28.397</ele>
<time>2018-01-24T01:53:32.326Z</time>
</trkpt>
<trkpt lat="-28.4358799" lon="153.4751337">
<ele>26.994</ele>
<time>2018-01-24T01:53:34.395Z</time>
</trkpt>
<trkpt lat="-28.4360256" lon="153.4753911">
<ele>25.258</ele>
<time>2018-01-24T01:53:36.436Z</time>
</trkpt>
<trkpt lat="-28.4361546" lon="153.4756319">
<ele>23.478</ele>
<time>2018-01-24T01:53:38.604Z</time>
</trkpt>
<trkpt lat="-28.4363229" lon="153.4758441">
<ele>21.774</ele>
<time>2018-01-24T01:53:41.815Z</time>
</trkpt>
<trkpt lat="-28.4364398" lon="153.4759881">
<ele>20.175</ele>
<time>2018-01-24T01:53:44.970Z</time>
</trkpt>
<trkpt lat="-28.4365214" lon="153.4760656">
<ele>18.882</ele>
<time>2018-01-24T01:53:47.331Z</time>
</trkpt>
<trkpt lat="-28.4366273" lon="153.4761398">
<ele>18.114</ele>
<time>2018-01-24T01:53:50.025Z</time>
</trkpt>
<trkpt lat="-28.4367002" lon="153.4762298">
<ele>17.740</ele>
<time>2018-01-24T01:53:51.341Z</time>
</trkpt>
<trkpt lat="-28.4368700" lon="153.4762976">
<ele>17.142</ele>
<time>2018-01-24T01:53:53.360Z</time>
</trkpt>
<trkpt lat="-28.4371719" lon="153.4764998">
<ele>15.859</ele>
<time>2018-01-24T01:53:56.076Z</time>
</trkpt>
<trkpt lat="-28.4374134" lon="153.4766931">
<ele>14.135</ele>
<time>2018-01-24T01:53:58.212Z</time>
</trkpt>
<trkpt lat="-28.4377612" lon="153.4769624">
<ele>12.473</ele>
<time>2018-01-24T01:54:01.328Z</time>
</trkpt>
<trkpt lat="-28.4380645" lon="153.4772187">
<ele>11.061</ele>
<time>2018-01-24T01:54:04.244Z</time>
</trkpt>
<trkpt lat="-28.4384070" lon="153.4774222">
<ele>9.961</ele>
<time>2018-01-24T01:54:07.144Z</time>
</trkpt>
<trkpt lat="-28.4387821" lon="153.4775658">
<ele>9.286</ele>
<time>2018-01-24T01:54:10.048Z</time>
</trkpt>
<trkpt lat="-28.4392206" lon="153.4775750">
<ele>9.089</ele>
<time>2018-01-24T01:54:13.251Z</time>
</trkpt>
<trkpt lat="-28.4396274" lon="153.4775995">
<ele>9.199</ele>
<time>2018-01-24T01:54:16.166Z</time>
</trkpt>
<trkpt lat="-28.4400473" lon="153.4776075">
<ele>9.289</ele>
<time>2018-01-24T01:54:19.099Z</time>
</trkpt>
<trkpt lat="-28.4404693" lon="153.4776200">
<ele>9.168</ele>
<time>2018-01-24T01:54:22.105Z</time>
</trkpt>
<trkpt lat="-28.4408647" lon="153.4776409">
<ele>8.883</ele>
<time>2018-01-24T01:54:24.990Z</time>
</trkpt>
<trkpt lat="-28.4412567" lon="153.4777682">
<ele>8.561</ele>
<time>2018-01-24T01:54:27.879Z</time>
</trkpt>
<trkpt lat="-28.4415124" lon="153.4779295">
<ele>8.422</ele>
<time>2018-01-24T01:54:29.948Z</time>
</trkpt>
<trkpt lat="-28.4417164" lon="153.4781723">
<ele>8.676</ele>
<time>2018-01-24T01:54:32.106Z</time>
</trkpt>
<trkpt lat="-28.4418858" lon="153.4783976">
<ele>9.174</ele>
<time>2018-01-24T01:54:34.020Z</time>
</trkpt>
<trkpt lat="-28.4420815" lon="153.4786299">
<ele>9.592</ele>
<time>2018-01-24T01:54:36.061Z</time>
</trkpt>
<trkpt lat="-28.4422510" lon="153.4788682">
<ele>9.879</ele>
<time>2018-01-24T01:54:38.017Z</time>
</trkpt>
<trkpt lat="-28.4424377" lon="153.4790883">
<ele>10.200</ele>
<time>2018-01-24T01:54:40.036Z</time>
</trkpt>
<trkpt lat="-28.4426194" lon="153.4793063">
<ele>10.579</ele>
<time>2018-01-24T01:54:42.056Z</time>
</trkpt>
<trkpt lat="-28.4427989" lon="153.4795193">
<ele>10.880</ele>
<time>2018-01-24T01:54:44.036Z</time>
</trkpt>
<trkpt lat="-28.4429921" lon="153.4797576">
<ele>10.996</ele>
<time>2018-01-24T01:54:46.212Z</time>
</trkpt>
<trkpt lat="-28.4431213" lon="153.4800082">
<ele>10.875</ele>
<time>2018-01-24T01:54:48.140Z</time>
</trkpt>
<trkpt lat="-28.4431146" lon="153.4803220">
<ele>10.440</ele>
<time>2018-01-24T01:54:50.148Z</time>
</trkpt>
<trkpt lat="-28.4430926" lon="153.4806760">
<ele>9.782</ele>
<time>2018-01-24T01:54:52.338Z</time>
</trkpt>
<trkpt lat="-28.4430864" lon="153.4810061">
<ele>9.164</ele>
<time>2018-01-24T01:54:54.351Z</time>
</trkpt>
<trkpt lat="-28.4430301" lon="153.4813183">
<ele>8.685</ele>
<time>2018-01-24T01:54:56.300Z</time>
</trkpt>
<trkpt lat="-28.4428983" lon="153.4816246">
<ele>8.212</ele>
<time>2018-01-24T01:54:58.398Z</time>
</trkpt>
<trkpt lat="-28.4427170" lon="153.4819178">
<ele>7.516</ele>
<time>2018-01-24T01:55:00.605Z</time>
</trkpt>
<trkpt lat="-28.4425035" lon="153.4821738">
<ele>6.618</ele>
<time>2018-01-24T01:55:02.791Z</time>
</trkpt>
<trkpt lat="-28.4423075" lon="153.4823933">
<ele>6.093</ele>
<time>2018-01-24T01:55:04.783Z</time>
</trkpt>
<trkpt lat="-28.4420699" lon="153.4825611">
<ele>6.275</ele>
<time>2018-01-24T01:55:06.878Z</time>
</trkpt>
<trkpt lat="-28.4418426" lon="153.4827141">
<ele>6.736</ele>
<time>2018-01-24T01:55:08.898Z</time>
</trkpt>
<trkpt lat="-28.4416511" lon="153.4829018">
<ele>7.017</ele>
<time>2018-01-24T01:55:10.790Z</time>
</trkpt>
<trkpt lat="-28.4414999" lon="153.4831373">
<ele>7.076</ele>
<time>2018-01-24T01:55:12.638Z</time>
</trkpt>
<trkpt lat="-28.4414105" lon="153.4834344">
<ele>7.064</ele>
<time>2018-01-24T01:55:14.571Z</time>
</trkpt>
<trkpt lat="-28.4414090" lon="153.4837561">
<ele>7.106</ele>
<time>2018-01-24T01:55:16.499Z</time>
</trkpt>
<trkpt lat="-28.4414818" lon="153.4840706">
<ele>7.199</ele>
<time>2018-01-24T01:55:18.415Z</time>
</trkpt>
<trkpt lat="-28.4415722" lon="153.4843937">
<ele>7.307</ele>
<time>2018-01-24T01:55:20.394Z</time>
</trkpt>
<trkpt lat="-28.4416608" lon="153.4847160">
<ele>7.416</ele>
<time>2018-01-24T01:55:22.358Z</time>
</trkpt>
<trkpt lat="-28.4417434" lon="153.4850453">
<ele>7.515</ele>
<time>2018-01-24T01:55:24.347Z</time>
</trkpt>
<trkpt lat="-28.4418150" lon="153.4853752">
<ele>7.592</ele>
<time>2018-01-24T01:55:26.323Z</time>
</trkpt>
<trkpt lat="-28.4418968" lon="153.4858812">
<ele>7.624</ele>
<time>2018-01-24T01:55:29.339Z</time>
</trkpt>
<trkpt lat="-28.4419391" lon="153.4863812">
<ele>7.601</ele>
<time>2018-01-24T01:55:32.475Z</time>
</trkpt>
<trkpt lat="-28.4419567" lon="153.4868531">
<ele>7.549</ele>
<time>2018-01-24T01:55:35.752Z</time>
</trkpt>
<trkpt lat="-28.4419324" lon="153.4872535">
<ele>7.498</ele>
<time>2018-01-24T01:55:38.690Z</time>
</trkpt>
<trkpt lat="-28.4418948" lon="153.4876513">
<ele>7.455</ele>
<time>2018-01-24T01:55:41.640Z</time>
</trkpt>
<trkpt lat="-28.4418545" lon="153.4880452">
<ele>7.426</ele>
<time>2018-01-24T01:55:44.518Z</time>
</trkpt>
<trkpt lat="-28.4418117" lon="153.4884515">
<ele>7.421</ele>
<time>2018-01-24T01:55:47.386Z</time>
</trkpt>
<trkpt lat="-28.4417648" lon="153.4888792">
<ele>7.431</ele>
<time>2018-01-24T01:55:50.320Z</time>
</trkpt>
<trkpt lat="-28.4417286" lon="153.4893192">
<ele>7.426</ele>
<time>2018-01-24T01:55:53.300Z</time>
</trkpt>
<trkpt lat="-28.4416939" lon="153.4897544">
<ele>7.383</ele>
<time>2018-01-24T01:55:56.311Z</time>
</trkpt>
<trkpt lat="-28.4416566" lon="153.4901741">
<ele>7.322</ele>
<time>2018-01-24T01:55:59.296Z</time>
</trkpt>
<trkpt lat="-28.4416319" lon="153.4905867">
<ele>7.292</ele>
<time>2018-01-24T01:56:02.270Z</time>
</trkpt>
<trkpt lat="-28.4416135" lon="153.4910006">
<ele>7.311</ele>
<time>2018-01-24T01:56:05.290Z</time>
</trkpt>
<trkpt lat="-28.4415891" lon="153.4912655">
<ele>7.351</ele>
<time>2018-01-24T01:56:07.194Z</time>
</trkpt>
<trkpt lat="-28.4415648" lon="153.4915344">
<ele>7.382</ele>
<time>2018-01-24T01:56:09.047Z</time>
</trkpt>
<trkpt lat="-28.4415425" lon="153.4918223">
<ele>7.397</ele>
<time>2018-01-24T01:56:10.947Z</time>
</trkpt>
<trkpt lat="-28.4415166" lon="153.4921294">
<ele>7.399</ele>
<time>2018-01-24T01:56:12.924Z</time>
</trkpt>
<trkpt lat="-28.4414923" lon="153.4924372">
<ele>7.391</ele>
<time>2018-01-24T01:56:14.878Z</time>
</trkpt>
<trkpt lat="-28.4414690" lon="153.4927464">
<ele>7.361</ele>
<time>2018-01-24T01:56:16.802Z</time>
</trkpt>
<trkpt lat="-28.4414464" lon="153.4930619">
<ele>7.301</ele>
<time>2018-01-24T01:56:18.709Z</time>
</trkpt>
<trkpt lat="-28.4414119" lon="153.4933922">
<ele>7.225</ele>
<time>2018-01-24T01:56:20.660Z</time>
</trkpt>
<trkpt lat="-28.4413974" lon="153.4937336">
<ele>7.154</ele>
<time>2018-01-24T01:56:22.653Z</time>
</trkpt>
<trkpt lat="-28.4414096" lon="153.4940735">
<ele>7.092</ele>
<time>2018-01-24T01:56:24.646Z</time>
</trkpt>
<trkpt lat="-28.4414371" lon="153.4944020">
<ele>7.038</ele>
<time>2018-01-24T01:56:26.566Z</time>
</trkpt>
<trkpt lat="-28.4414959" lon="153.4947356">
<ele>6.981</ele>
<time>2018-01-24T01:56:28.503Z</time>
</trkpt>
<trkpt lat="-28.4415896" lon="153.4950680">
<ele>6.901</ele>
<time>2018-01-24T01:56:30.430Z</time>
</trkpt>
<trkpt lat="-28.4417221" lon="153.4954018">
<ele>6.817</ele>
<time>2018-01-24T01:56:32.384Z</time>
</trkpt>
<trkpt lat="-28.4418566" lon="153.4957498">
<ele>6.762</ele>
<time>2018-01-24T01:56:34.338Z</time>
</trkpt>
<trkpt lat="-28.4420402" lon="153.4960956">
<ele>6.773</ele>
<time>2018-01-24T01:56:36.336Z</time>
</trkpt>
<trkpt lat="-28.4422602" lon="153.4964164">
<ele>6.973</ele>
<time>2018-01-24T01:56:38.275Z</time>
</trkpt>
<trkpt lat="-28.4425095" lon="153.4967272">
<ele>7.511</ele>
<time>2018-01-24T01:56:40.223Z</time>
</trkpt>
<trkpt lat="-28.4428052" lon="153.4970321">
<ele>8.340</ele>
<time>2018-01-24T01:56:42.344Z</time>
</trkpt>
<trkpt lat="-28.4430874" lon="153.4972909">
<ele>9.262</ele>
<time>2018-01-24T01:56:44.335Z</time>
</trkpt>
<trkpt lat="-28.4433445" lon="153.4975554">
<ele>10.131</ele>
<time>2018-01-24T01:56:46.266Z</time>
</trkpt>
<trkpt lat="-28.4436204" lon="153.4978111">
<ele>10.800</ele>
<time>2018-01-24T01:56:48.209Z</time>
</trkpt>
<trkpt lat="-28.4438997" lon="153.4980921">
<ele>11.145</ele>
<time>2018-01-24T01:56:50.128Z</time>
</trkpt>
<trkpt lat="-28.4442040" lon="153.4984092">
<ele>11.095</ele>
<time>2018-01-24T01:56:52.131Z</time>
</trkpt>
<trkpt lat="-28.4445004" lon="153.4987491">
<ele>10.628</ele>
<time>2018-01-24T01:56:54.165Z</time>
</trkpt>
<trkpt lat="-28.4447911" lon="153.4990530">
<ele>9.970</ele>
<time>2018-01-24T01:56:56.139Z</time>
</trkpt>
<trkpt lat="-28.4450608" lon="153.4993348">
<ele>9.523</ele>
<time>2018-01-24T01:56:58.095Z</time>
</trkpt>
<trkpt lat="-28.4453174" lon="153.4995875">
<ele>9.417</ele>
<time>2018-01-24T01:57:00.053Z</time>
</trkpt>
<trkpt lat="-28.4455536" lon="153.4998336">
<ele>9.455</ele>
<time>2018-01-24T01:57:02.018Z</time>
</trkpt>
<trkpt lat="-28.4457702" lon="153.5000521">
<ele>9.396</ele>
<time>2018-01-24T01:57:03.864Z</time>
</trkpt>
<trkpt lat="-28.4460224" lon="153.5002422">
<ele>9.178</ele>
<time>2018-01-24T01:57:05.730Z</time>
</trkpt>
<trkpt lat="-28.4463234" lon="153.5004403">
<ele>8.871</ele>
<time>2018-01-24T01:57:07.719Z</time>
</trkpt>
<trkpt lat="-28.4467122" lon="153.5005093">
<ele>8.576</ele>
<time>2018-01-24T01:57:09.817Z</time>
</trkpt>
<trkpt lat="-28.4471178" lon="153.5005640">
<ele>8.432</ele>
<time>2018-01-24T01:57:11.933Z</time>
</trkpt>
<trkpt lat="-28.4474711" lon="153.5006701">
<ele>8.505</ele>
<time>2018-01-24T01:57:13.874Z</time>
</trkpt>
<trkpt lat="-28.4478260" lon="153.5007825">
<ele>8.736</ele>
<time>2018-01-24T01:57:15.895Z</time>
</trkpt>
<trkpt lat="-28.4481754" lon="153.5008872">
<ele>9.045</ele>
<time>2018-01-24T01:57:17.976Z</time>
</trkpt>
<trkpt lat="-28.4486779" lon="153.5008797">
<ele>9.370</ele>
<time>2018-01-24T01:57:20.883Z</time>
</trkpt>
<trkpt lat="-28.4492022" lon="153.5007828">
<ele>9.971</ele>
<time>2018-01-24T01:57:23.911Z</time>
</trkpt>
<trkpt lat="-28.4497374" lon="153.5008078">
<ele>11.104</ele>
<time>2018-01-24T01:57:26.979Z</time>
</trkpt>
<trkpt lat="-28.4502389" lon="153.5009184">
<ele>12.477</ele>
<time>2018-01-24T01:57:30.050Z</time>
</trkpt>
<trkpt lat="-28.4506668" lon="153.5009376">
<ele>13.861</ele>
<time>2018-01-24T01:57:32.738Z</time>
</trkpt>
<trkpt lat="-28.4510874" lon="153.5005901">
<ele>15.439</ele>
<time>2018-01-24T01:57:35.981Z</time>
</trkpt>
<trkpt lat="-28.4514879" lon="153.5003222">
<ele>17.234</ele>
<time>2018-01-24T01:57:38.730Z</time>
</trkpt>
<trkpt lat="-28.4520372" lon="153.5003195">
<ele>18.852</ele>
<time>2018-01-24T01:57:41.867Z</time>
</trkpt>
<trkpt lat="-28.4525216" lon="153.5002024">
<ele>19.500</ele>
<time>2018-01-24T01:57:44.652Z</time>
</trkpt>
<trkpt lat="-28.4530611" lon="153.4999691">
<ele>18.526</ele>
<time>2018-01-24T01:57:47.825Z</time>
</trkpt>
<trkpt lat="-28.4535251" lon="153.4996236">
<ele>16.334</ele>
<time>2018-01-24T01:57:50.809Z</time>
</trkpt>
<trkpt lat="-28.4537545" lon="153.4990141">
<ele>13.917</ele>
<time>2018-01-24T01:57:53.916Z</time>
</trkpt>
<trkpt lat="-28.4540523" lon="153.4984617">
<ele>11.653</ele>
<time>2018-01-24T01:57:56.980Z</time>
</trkpt>
<trkpt lat="-28.4543639" lon="153.4979265">
<ele>9.597</ele>
<time>2018-01-24T01:58:00.085Z</time>
</trkpt>
<trkpt lat="-28.4548491" lon="153.4977269">
<ele>8.077</ele>
<time>2018-01-24T01:58:02.941Z</time>
</trkpt>
<trkpt lat="-28.4554123" lon="153.4976806">
<ele>7.105</ele>
<time>2018-01-24T01:58:05.972Z</time>
</trkpt>
<trkpt lat="-28.4559613" lon="153.4979081">
<ele>6.190</ele>
<time>2018-01-24T01:58:08.923Z</time>
</trkpt>
<trkpt lat="-28.4564953" lon="153.4982945">
<ele>5.115</ele>
<time>2018-01-24T01:58:11.950Z</time>
</trkpt>
<trkpt lat="-28.4568799" lon="153.4984877">
<ele>4.212</ele>
<time>2018-01-24T01:58:13.909Z</time>
</trkpt>
<trkpt lat="-28.4572364" lon="153.4987434">
<ele>3.779</ele>
<time>2018-01-24T01:58:15.872Z</time>
</trkpt>
<trkpt lat="-28.4575552" lon="153.4990570">
<ele>3.719</ele>
<time>2018-01-24T01:58:17.853Z</time>
</trkpt>
<trkpt lat="-28.4577623" lon="153.4994694">
<ele>3.830</ele>
<time>2018-01-24T01:58:19.836Z</time>
</trkpt>
<trkpt lat="-28.4579099" lon="153.4999293">
<ele>3.975</ele>
<time>2018-01-24T01:58:21.878Z</time>
</trkpt>
<trkpt lat="-28.4580467" lon="153.5004108">
<ele>4.133</ele>
<time>2018-01-24T01:58:24.018Z</time>
</trkpt>
<trkpt lat="-28.4582297" lon="153.5008170">
<ele>4.390</ele>
<time>2018-01-24T01:58:26.048Z</time>
</trkpt>
<trkpt lat="-28.4585907" lon="153.5013354">
<ele>4.930</ele>
<time>2018-01-24T01:58:28.972Z</time>
</trkpt>
<trkpt lat="-28.4592160" lon="153.5015711">
<ele>6.025</ele>
<time>2018-01-24T01:58:32.209Z</time>
</trkpt>
<trkpt lat="-28.4597443" lon="153.5019099">
<ele>7.486</ele>
<time>2018-01-24T01:58:35.172Z</time>
</trkpt>
<trkpt lat="-28.4601359" lon="153.5024466">
<ele>8.536</ele>
<time>2018-01-24T01:58:38.206Z</time>
</trkpt>
<trkpt lat="-28.4604731" lon="153.5029840">
<ele>8.814</ele>
<time>2018-01-24T01:58:41.166Z</time>
</trkpt>
<trkpt lat="-28.4609556" lon="153.5033325">
<ele>9.146</ele>
<time>2018-01-24T01:58:44.154Z</time>
</trkpt>
<trkpt lat="-28.4615103" lon="153.5034666">
<ele>10.640</ele>
<time>2018-01-24T01:58:47.151Z</time>
</trkpt>
<trkpt lat="-28.4620399" lon="153.5036649">
<ele>13.298</ele>
<time>2018-01-24T01:58:50.093Z</time>
</trkpt>
<trkpt lat="-28.4625641" lon="153.5038678">
<ele>16.173</ele>
<time>2018-01-24T01:58:52.989Z</time>
</trkpt>
<trkpt lat="-28.4630980" lon="153.5040738">
<ele>18.427</ele>
<time>2018-01-24T01:58:55.853Z</time>
</trkpt>
<trkpt lat="-28.4635232" lon="153.5040975">
<ele>19.682</ele>
<time>2018-01-24T01:58:57.909Z</time>
</trkpt>
<trkpt lat="-28.4641520" lon="153.5041780">
<ele>20.133</ele>
<time>2018-01-24T01:59:00.966Z</time>
</trkpt>
<trkpt lat="-28.4647604" lon="153.5043068">
<ele>20.449</ele>
<time>2018-01-24T01:59:04.047Z</time>
</trkpt>
<trkpt lat="-28.4653169" lon="153.5044471">
<ele>21.015</ele>
<time>2018-01-24T01:59:07.015Z</time>
</trkpt>
<trkpt lat="-28.4658331" lon="153.5047280">
<ele>21.484</ele>
<time>2018-01-24T01:59:10.041Z</time>
</trkpt>
<trkpt lat="-28.4661776" lon="153.5049177">
<ele>21.194</ele>
<time>2018-01-24T01:59:12.013Z</time>
</trkpt>
<trkpt lat="-28.4665586" lon="153.5050583">
<ele>19.915</ele>
<time>2018-01-24T01:59:14.017Z</time>
</trkpt>
<trkpt lat="-28.4669455" lon="153.5052144">
<ele>18.048</ele>
<time>2018-01-24T01:59:16.051Z</time>
</trkpt>
<trkpt lat="-28.4672837" lon="153.5053986">
<ele>16.131</ele>
<time>2018-01-24T01:59:17.942Z</time>
</trkpt>
<trkpt lat="-28.4676161" lon="153.5055746">
<ele>14.302</ele>
<time>2018-01-24T01:59:19.838Z</time>
</trkpt>
<trkpt lat="-28.4679445" lon="153.5057902">
<ele>12.405</ele>
<time>2018-01-24T01:59:21.870Z</time>
</trkpt>
<trkpt lat="-28.4682205" lon="153.5060118">
<ele>10.399</ele>
<time>2018-01-24T01:59:23.788Z</time>
</trkpt>
<trkpt lat="-28.4685374" lon="153.5060963">
<ele>8.489</ele>
<time>2018-01-24T01:59:25.684Z</time>
</trkpt>
<trkpt lat="-28.4688724" lon="153.5061616">
<ele>6.944</ele>
<time>2018-01-24T01:59:27.622Z</time>
</trkpt>
<trkpt lat="-28.4692231" lon="153.5061164">
<ele>5.992</ele>
<time>2018-01-24T01:59:29.546Z</time>
</trkpt>
<trkpt lat="-28.4695970" lon="153.5060748">
<ele>5.804</ele>
<time>2018-01-24T01:59:31.537Z</time>
</trkpt>
<trkpt lat="-28.4699649" lon="153.5060182">
<ele>6.639</ele>
<time>2018-01-24T01:59:33.513Z</time>
</trkpt>
<trkpt lat="-28.4703241" lon="153.5059081">
<ele>8.931</ele>
<time>2018-01-24T01:59:35.532Z</time>
</trkpt>
<trkpt lat="-28.4706602" lon="153.5057969">
<ele>12.625</ele>
<time>2018-01-24T01:59:37.503Z</time>
</trkpt>
<trkpt lat="-28.4709762" lon="153.5057370">
<ele>16.903</ele>
<time>2018-01-24T01:59:39.369Z</time>
</trkpt>
<trkpt lat="-28.4713033" lon="153.5057378">
<ele>20.924</ele>
<time>2018-01-24T01:59:41.279Z</time>
</trkpt>
<trkpt lat="-28.4716544" lon="153.5058117">
<ele>24.477</ele>
<time>2018-01-24T01:59:43.323Z</time>
</trkpt>
<trkpt lat="-28.4720437" lon="153.5059952">
<ele>27.820</ele>
<time>2018-01-24T01:59:45.654Z</time>
</trkpt>
<trkpt lat="-28.4724518" lon="153.5061279">
<ele>31.195</ele>
<time>2018-01-24T01:59:47.957Z</time>
</trkpt>
<trkpt lat="-28.4727876" lon="153.5062818">
<ele>34.792</ele>
<time>2018-01-24T01:59:49.969Z</time>
</trkpt>
<trkpt lat="-28.4730975" lon="153.5064797">
<ele>38.849</ele>
<time>2018-01-24T01:59:51.978Z</time>
</trkpt>
<trkpt lat="-28.4734018" lon="153.5066883">
<ele>43.312</ele>
<time>2018-01-24T01:59:54.000Z</time>
</trkpt>
<trkpt lat="-28.4736944" lon="153.5069533">
<ele>47.657</ele>
<time>2018-01-24T01:59:56.128Z</time>
</trkpt>
<trkpt lat="-28.4739225" lon="153.5072808">
<ele>51.231</ele>
<time>2018-01-24T01:59:58.240Z</time>
</trkpt>
<trkpt lat="-28.4741034" lon="153.5076033">
<ele>53.599</ele>
<time>2018-01-24T02:00:00.194Z</time>
</trkpt>
<trkpt lat="-28.4742263" lon="153.5079509">
<ele>54.737</ele>
<time>2018-01-24T02:00:02.068Z</time>
</trkpt>
<trkpt lat="-28.4743307" lon="153.5083337">
<ele>54.869</ele>
<time>2018-01-24T02:00:04.005Z</time>
</trkpt>
<trkpt lat="-28.4743533" lon="153.5087727">
<ele>54.199</ele>
<time>2018-01-24T02:00:06.051Z</time>
</trkpt>
<trkpt lat="-28.4744060" lon="153.5092175">
<ele>52.942</ele>
<time>2018-01-24T02:00:08.075Z</time>
</trkpt>
<trkpt lat="-28.4744738" lon="153.5096836">
<ele>51.419</ele>
<time>2018-01-24T02:00:10.131Z</time>
</trkpt>
<trkpt lat="-28.4745391" lon="153.5101331">
<ele>49.914</ele>
<time>2018-01-24T02:00:12.027Z</time>
</trkpt>
<trkpt lat="-28.4746725" lon="153.5106222">
<ele>48.321</ele>
<time>2018-01-24T02:00:14.018Z</time>
</trkpt>
<trkpt lat="-28.4749169" lon="153.5111083">
<ele>46.310</ele>
<time>2018-01-24T02:00:16.102Z</time>
</trkpt>
<trkpt lat="-28.4751871" lon="153.5115473">
<ele>43.983</ele>
<time>2018-01-24T02:00:18.135Z</time>
</trkpt>
<trkpt lat="-28.4754548" lon="153.5119674">
<ele>41.896</ele>
<time>2018-01-24T02:00:20.187Z</time>
</trkpt>
<trkpt lat="-28.4756786" lon="153.5123430">
<ele>40.411</ele>
<time>2018-01-24T02:00:22.095Z</time>
</trkpt>
<trkpt lat="-28.4758789" lon="153.5126979">
<ele>39.512</ele>
<time>2018-01-24T02:00:23.978Z</time>
</trkpt>
<trkpt lat="-28.4760808" lon="153.5130683">
<ele>39.000</ele>
<time>2018-01-24T02:00:25.982Z</time>
</trkpt>
<trkpt lat="-28.4762492" lon="153.5134256">
<ele>38.625</ele>
<time>2018-01-24T02:00:27.858Z</time>
</trkpt>
<trkpt lat="-28.4764908" lon="153.5137855">
<ele>38.127</ele>
<time>2018-01-24T02:00:29.877Z</time>
</trkpt>
<trkpt lat="-28.4767990" lon="153.5140955">
<ele>37.374</ele>
<time>2018-01-24T02:00:31.847Z</time>
</trkpt>
<trkpt lat="-28.4771894" lon="153.5143209">
<ele>36.393</ele>
<time>2018-01-24T02:00:33.866Z</time>
</trkpt>
<trkpt lat="-28.4778203" lon="153.5146516">
<ele>35.220</ele>
<time>2018-01-24T02:00:37.063Z</time>
</trkpt>
<trkpt lat="-28.4783702" lon="153.5149729">
<ele>33.754</ele>
<time>2018-01-24T02:00:39.969Z</time>
</trkpt>
<trkpt lat="-28.4789192" lon="153.5152717">
<ele>31.738</ele>
<time>2018-01-24T02:00:42.933Z</time>
</trkpt>
<trkpt lat="-28.4794322" lon="153.5155418">
<ele>28.922</ele>
<time>2018-01-24T02:00:45.813Z</time>
</trkpt>
<trkpt lat="-28.4799299" lon="153.5157656">
<ele>25.243</ele>
<time>2018-01-24T02:00:48.702Z</time>
</trkpt>
<trkpt lat="-28.4804416" lon="153.5157469">
<ele>20.811</ele>
<time>2018-01-24T02:00:51.594Z</time>
</trkpt>
<trkpt lat="-28.4809560" lon="153.5154899">
<ele>16.060</ele>
<time>2018-01-24T02:00:54.744Z</time>
</trkpt>
<trkpt lat="-28.4814077" lon="153.5151157">
<ele>11.756</ele>
<time>2018-01-24T02:00:57.774Z</time>
</trkpt>
<trkpt lat="-28.4818527" lon="153.5147272">
<ele>8.470</ele>
<time>2018-01-24T02:01:00.814Z</time>
</trkpt>
<trkpt lat="-28.4821233" lon="153.5144908">
<ele>6.339</ele>
<time>2018-01-24T02:01:02.703Z</time>
</trkpt>
<trkpt lat="-28.4824115" lon="153.5142462">
<ele>5.254</ele>
<time>2018-01-24T02:01:04.687Z</time>
</trkpt>
<trkpt lat="-28.4827251" lon="153.5140447">
<ele>4.939</ele>
<time>2018-01-24T02:01:06.673Z</time>
</trkpt>
<trkpt lat="-28.4830749" lon="153.5139161">
<ele>5.013</ele>
<time>2018-01-24T02:01:08.694Z</time>
</trkpt>
<trkpt lat="-28.4834370" lon="153.5138698">
<ele>5.173</ele>
<time>2018-01-24T02:01:10.659Z</time>
</trkpt>
<trkpt lat="-28.4837983" lon="153.5138615">
<ele>5.190</ele>
<time>2018-01-24T02:01:12.580Z</time>
</trkpt>
<trkpt lat="-28.4843682" lon="153.5138271">
<ele>4.921</ele>
<time>2018-01-24T02:01:15.595Z</time>
</trkpt>
<trkpt lat="-28.4847460" lon="153.5138954">
<ele>4.313</ele>
<time>2018-01-24T02:01:17.587Z</time>
</trkpt>
<trkpt lat="-28.4851239" lon="153.5140213">
<ele>3.466</ele>
<time>2018-01-24T02:01:19.589Z</time>
</trkpt>
<trkpt lat="-28.4855068" lon="153.5142165">
<ele>2.701</ele>
<time>2018-01-24T02:01:21.679Z</time>
</trkpt>
<trkpt lat="-28.4858575" lon="153.5144525">
<ele>2.265</ele>
<time>2018-01-24T02:01:23.711Z</time>
</trkpt>
<trkpt lat="-28.4861869" lon="153.5147082">
<ele>2.095</ele>
<time>2018-01-24T02:01:25.748Z</time>
</trkpt>
<trkpt lat="-28.4864896" lon="153.5149660">
<ele>2.059</ele>
<time>2018-01-24T02:01:27.728Z</time>
</trkpt>
<trkpt lat="-28.4867966" lon="153.5151975">
<ele>2.159</ele>
<time>2018-01-24T02:01:29.670Z</time>
</trkpt>
<trkpt lat="-28.4871128" lon="153.5154416">
<ele>2.510</ele>
<time>2018-01-24T02:01:31.663Z</time>
</trkpt>
<trkpt lat="-28.4874396" lon="153.5156546">
<ele>3.116</ele>
<time>2018-01-24T02:01:33.606Z</time>
</trkpt>
<trkpt lat="-28.4877394" lon="153.5159221">
<ele>3.732</ele>
<time>2018-01-24T02:01:35.566Z</time>
</trkpt>
<trkpt lat="-28.4880350" lon="153.5161816">
<ele>4.244</ele>
<time>2018-01-24T02:01:37.478Z</time>
</trkpt>
<trkpt lat="-28.4883301" lon="153.5165046">
<ele>4.714</ele>
<time>2018-01-24T02:01:39.571Z</time>
</trkpt>
<trkpt lat="-28.4885868" lon="153.5168109">
<ele>4.948</ele>
<time>2018-01-24T02:01:41.498Z</time>
</trkpt>
<trkpt lat="-28.4888435" lon="153.5170909">
<ele>4.625</ele>
<time>2018-01-24T02:01:43.383Z</time>
</trkpt>
<trkpt lat="-28.4890952" lon="153.5173747">
<ele>3.793</ele>
<time>2018-01-24T02:01:45.296Z</time>
</trkpt>
<trkpt lat="-28.4893499" lon="153.5176569">
<ele>2.770</ele>
<time>2018-01-24T02:01:47.240Z</time>
</trkpt>
<trkpt lat="-28.4896083" lon="153.5179387">
<ele>1.794</ele>
<time>2018-01-24T02:01:49.241Z</time>
</trkpt>
<trkpt lat="-28.4898488" lon="153.5182033">
<ele>0.880</ele>
<time>2018-01-24T02:01:51.174Z</time>
</trkpt>
<trkpt lat="-28.4900873" lon="153.5184862">
<ele>0.016</ele>
<time>2018-01-24T02:01:53.241Z</time>
</trkpt>
<trkpt lat="-28.4902810" lon="153.5187383">
<ele>0.000</ele>
<time>2018-01-24T02:01:55.051Z</time>
</trkpt>
<trkpt lat="-28.4904515" lon="153.5190282">
<ele>0.000</ele>
<time>2018-01-24T02:01:56.956Z</time>
</trkpt>
<trkpt lat="-28.4906013" lon="153.5193500">
<ele>0.000</ele>
<time>2018-01-24T02:01:58.966Z</time>
</trkpt>
<trkpt lat="-28.4906908" lon="153.5197151">
<ele>0.000</ele>
<time>2018-01-24T02:02:01.126Z</time>
</trkpt>
<trkpt lat="-28.4907196" lon="153.5200126">
<ele>0.088</ele>
<time>2018-01-24T02:02:02.984Z</time>
</trkpt>
<trkpt lat="-28.4907691" lon="153.5202756">
<ele>1.121</ele>
<time>2018-01-24T02:02:04.878Z</time>
</trkpt>
<trkpt lat="-28.4908389" lon="153.5204806">
<ele>2.144</ele>
<time>2018-01-24T02:02:06.580Z</time>
</trkpt>
<trkpt lat="-28.4908932" lon="153.5207411">
<ele>3.150</ele>
<time>2018-01-24T02:02:08.646Z</time>
</trkpt>
<trkpt lat="-28.4909335" lon="153.5210437">
<ele>4.286</ele>
<time>2018-01-24T02:02:10.735Z</time>
</trkpt>
<trkpt lat="-28.4910198" lon="153.5214314">
<ele>5.513</ele>
<time>2018-01-24T02:02:13.038Z</time>
</trkpt>
<trkpt lat="-28.4911080" lon="153.5218066">
<ele>6.595</ele>
<time>2018-01-24T02:02:15.056Z</time>
</trkpt>
<trkpt lat="-28.4911719" lon="153.5222087">
<ele>7.342</ele>
<time>2018-01-24T02:02:17.092Z</time>
</trkpt>
<trkpt lat="-28.4912509" lon="153.5226259">
<ele>7.782</ele>
<time>2018-01-24T02:02:19.144Z</time>
</trkpt>
<trkpt lat="-28.4913224" lon="153.5230728">
<ele>8.031</ele>
<time>2018-01-24T02:02:21.224Z</time>
</trkpt>
<trkpt lat="-28.4914199" lon="153.5235331">
<ele>8.209</ele>
<time>2018-01-24T02:02:23.328Z</time>
</trkpt>
<trkpt lat="-28.4915185" lon="153.5239566">
<ele>8.408</ele>
<time>2018-01-24T02:02:25.306Z</time>
</trkpt>
<trkpt lat="-28.4916154" lon="153.5243565">
<ele>8.688</ele>
<time>2018-01-24T02:02:27.265Z</time>
</trkpt>
<trkpt lat="-28.4917166" lon="153.5247207">
<ele>9.140</ele>
<time>2018-01-24T02:02:29.160Z</time>
</trkpt>
<trkpt lat="-28.4918260" lon="153.5250666">
<ele>9.943</ele>
<time>2018-01-24T02:02:31.021Z</time>
</trkpt>
<trkpt lat="-28.4920220" lon="153.5253985">
<ele>11.221</ele>
<time>2018-01-24T02:02:33.017Z</time>
</trkpt>
<trkpt lat="-28.4923359" lon="153.5256350">
<ele>12.795</ele>
<time>2018-01-24T02:02:35.097Z</time>
</trkpt>
<trkpt lat="-28.4926809" lon="153.5258367">
<ele>14.390</ele>
<time>2018-01-24T02:02:37.180Z</time>
</trkpt>
<trkpt lat="-28.4930924" lon="153.5258911">
<ele>15.914</ele>
<time>2018-01-24T02:02:39.349Z</time>
</trkpt>
<trkpt lat="-28.4934934" lon="153.5259588">
<ele>17.152</ele>
<time>2018-01-24T02:02:41.436Z</time>
</trkpt>
<trkpt lat="-28.4938610" lon="153.5259936">
<ele>17.762</ele>
<time>2018-01-24T02:02:43.319Z</time>
</trkpt>
<trkpt lat="-28.4942411" lon="153.5260845">
<ele>17.684</ele>
<time>2018-01-24T02:02:45.276Z</time>
</trkpt>
<trkpt lat="-28.4946164" lon="153.5261602">
<ele>17.146</ele>
<time>2018-01-24T02:02:47.170Z</time>
</trkpt>
<trkpt lat="-28.4950303" lon="153.5262507">
<ele>16.308</ele>
<time>2018-01-24T02:02:49.262Z</time>
</trkpt>
<trkpt lat="-28.4954217" lon="153.5262960">
<ele>15.218</ele>
<time>2018-01-24T02:02:51.250Z</time>
</trkpt>
<trkpt lat="-28.4957800" lon="153.5263536">
<ele>13.964</ele>
<time>2018-01-24T02:02:53.113Z</time>
</trkpt>
<trkpt lat="-28.4961454" lon="153.5264399">
<ele>12.604</ele>
<time>2018-01-24T02:02:55.061Z</time>
</trkpt>
<trkpt lat="-28.4965179" lon="153.5265321">
<ele>11.120</ele>
<time>2018-01-24T02:02:57.105Z</time>
</trkpt>
<trkpt lat="-28.4968453" lon="153.5265990">
<ele>9.590</ele>
<time>2018-01-24T02:02:58.988Z</time>
</trkpt>
<trkpt lat="-28.4971589" lon="153.5266942">
<ele>8.166</ele>
<time>2018-01-24T02:03:00.969Z</time>
</trkpt>
<trkpt lat="-28.4974046" lon="153.5268309">
<ele>6.852</ele>
<time>2018-01-24T02:03:02.742Z</time>
</trkpt>
<trkpt lat="-28.4976662" lon="153.5270057">
<ele>5.621</ele>
<time>2018-01-24T02:03:04.742Z</time>
</trkpt>
<trkpt lat="-28.4979202" lon="153.5272163">
<ele>4.628</ele>
<time>2018-01-24T02:03:06.739Z</time>
</trkpt>
<trkpt lat="-28.4982238" lon="153.5274238">
<ele>3.959</ele>
<time>2018-01-24T02:03:08.842Z</time>
</trkpt>
<trkpt lat="-28.4985512" lon="153.5276292">
<ele>3.537</ele>
<time>2018-01-24T02:03:10.937Z</time>
</trkpt>
<trkpt lat="-28.4988690" lon="153.5278496">
<ele>3.219</ele>
<time>2018-01-24T02:03:12.942Z</time>
</trkpt>
<trkpt lat="-28.4991976" lon="153.5280858">
<ele>2.860</ele>
<time>2018-01-24T02:03:14.992Z</time>
</trkpt>
<trkpt lat="-28.4995093" lon="153.5283186">
<ele>2.430</ele>
<time>2018-01-24T02:03:16.961Z</time>
</trkpt>
<trkpt lat="-28.4998181" lon="153.5285296">
<ele>2.013</ele>
<time>2018-01-24T02:03:18.892Z</time>
</trkpt>
<trkpt lat="-28.5001307" lon="153.5287215">
<ele>1.742</ele>
<time>2018-01-24T02:03:20.835Z</time>
</trkpt>
<trkpt lat="-28.5004495" lon="153.5289001">
<ele>1.678</ele>
<time>2018-01-24T02:03:22.818Z</time>
</trkpt>
<trkpt lat="-28.5007390" lon="153.5290800">
<ele>1.560</ele>
<time>2018-01-24T02:03:24.696Z</time>
</trkpt>
<trkpt lat="-28.5010590" lon="153.5292306">
<ele>1.196</ele>
<time>2018-01-24T02:03:26.700Z</time>
</trkpt>
<trkpt lat="-28.5013682" lon="153.5293759">
<ele>0.871</ele>
<time>2018-01-24T02:03:28.662Z</time>
</trkpt>
<trkpt lat="-28.5016725" lon="153.5295289">
<ele>0.950</ele>
<time>2018-01-24T02:03:30.629Z</time>
</trkpt>
<trkpt lat="-28.5019853" lon="153.5296565">
<ele>1.338</ele>
<time>2018-01-24T02:03:32.584Z</time>
</trkpt>
<trkpt lat="-28.5023168" lon="153.5298231">
<ele>1.638</ele>
<time>2018-01-24T02:03:34.652Z</time>
</trkpt>
<trkpt lat="-28.5026546" lon="153.5300093">
<ele>1.567</ele>
<time>2018-01-24T02:03:36.695Z</time>
</trkpt>
<trkpt lat="-28.5030227" lon="153.5301224">
<ele>1.219</ele>
<time>2018-01-24T02:03:38.712Z</time>
</trkpt>
<trkpt lat="-28.5033700" lon="153.5302287">
<ele>0.959</ele>
<time>2018-01-24T02:03:40.629Z</time>
</trkpt>
<trkpt lat="-28.5037109" lon="153.5302943">
<ele>1.116</ele>
<time>2018-01-24T02:03:42.536Z</time>
</trkpt>
<trkpt lat="-28.5040299" lon="153.5303488">
<ele>1.655</ele>
<time>2018-01-24T02:03:44.418Z</time>
</trkpt>
<trkpt lat="-28.5043168" lon="153.5304000">
<ele>2.212</ele>
<time>2018-01-24T02:03:46.231Z</time>
</trkpt>
<trkpt lat="-28.5045655" lon="153.5304678">
<ele>2.424</ele>
<time>2018-01-24T02:03:47.936Z</time>
</trkpt>
<trkpt lat="-28.5048389" lon="153.5305258">
<ele>2.169</ele>
<time>2018-01-24T02:03:49.886Z</time>
</trkpt>
<trkpt lat="-28.5051206" lon="153.5305838">
<ele>1.555</ele>
<time>2018-01-24T02:03:51.905Z</time>
</trkpt>
<trkpt lat="-28.5053991" lon="153.5306492">
<ele>0.886</ele>
<time>2018-01-24T02:03:53.902Z</time>
</trkpt>
<trkpt lat="-28.5056584" lon="153.5306702">
<ele>0.521</ele>
<time>2018-01-24T02:03:55.794Z</time>
</trkpt>
<trkpt lat="-28.5058601" lon="153.5307351">
<ele>0.594</ele>
<time>2018-01-24T02:03:57.440Z</time>
</trkpt>
<trkpt lat="-28.5060186" lon="153.5308054">
<ele>0.891</ele>
<time>2018-01-24T02:03:58.948Z</time>
</trkpt>
<trkpt lat="-28.5061139" lon="153.5308693">
<ele>1.038</ele>
<time>2018-01-24T02:04:00.003Z</time>
</trkpt>
<trkpt lat="-28.5062166" lon="153.5308894">
<ele>0.713</ele>
<time>2018-01-24T02:04:01.328Z</time>
</trkpt>
<trkpt lat="-28.5063545" lon="153.5307786">
<ele>0.000</ele>
<time>2018-01-24T02:04:03.883Z</time>
</trkpt>
<trkpt lat="-28.5063914" lon="153.5306332">
<ele>0.000</ele>
<time>2018-01-24T02:04:06.328Z</time>
</trkpt>
<trkpt lat="-28.5064467" lon="153.5304892">
<ele>0.000</ele>
<time>2018-01-24T02:04:08.739Z</time>
</trkpt>
<trkpt lat="-28.5064763" lon="153.5303475">
<ele>0.000</ele>
<time>2018-01-24T02:04:10.802Z</time>
</trkpt>
<trkpt lat="-28.5064366" lon="153.5301664">
<ele>0.000</ele>
<time>2018-01-24T02:04:13.362Z</time>
</trkpt>
<trkpt lat="-28.5064301" lon="153.5300352">
<ele>0.000</ele>
<time>2018-01-24T02:04:15.145Z</time>
</trkpt>
<trkpt lat="-28.5064603" lon="153.5298894">
<ele>0.000</ele>
<time>2018-01-24T02:04:17.174Z</time>
</trkpt>
<trkpt lat="-28.5064520" lon="153.5297761">
<ele>0.000</ele>
<time>2018-01-24T02:04:18.751Z</time>
</trkpt>
<trkpt lat="-28.5064491" lon="153.5296490">
<ele>0.000</ele>
<time>2018-01-24T02:04:20.593Z</time>
</trkpt>
<trkpt lat="-28.5064339" lon="153.5295206">
<ele>0.000</ele>
<time>2018-01-24T02:04:22.572Z</time>
</trkpt>
<trkpt lat="-28.5063926" lon="153.5294021">
<ele>0.000</ele>
<time>2018-01-24T02:04:24.604Z</time>
</trkpt>
<trkpt lat="-28.5063569" lon="153.5292550">
<ele>0.000</ele>
<time>2018-01-24T02:04:27.032Z</time>
</trkpt>
<trkpt lat="-28.5063332" lon="153.5290690">
<ele>0.000</ele>
<time>2018-01-24T02:04:29.616Z</time>
</trkpt>
<trkpt lat="-28.5063095" lon="153.5288874">
<ele>0.000</ele>
<time>2018-01-24T02:04:31.840Z</time>
</trkpt>
<trkpt lat="-28.5062644" lon="153.5287323">
<ele>0.000</ele>
<time>2018-01-24T02:04:33.729Z</time>
</trkpt>
<trkpt lat="-28.5061310" lon="153.5285861">
<ele>0.699</ele>
<time>2018-01-24T02:04:36.130Z</time>
</trkpt>
<trkpt lat="-28.5059553" lon="153.5285559">
<ele>1.508</ele>
<time>2018-01-24T02:04:38.383Z</time>
</trkpt>
<trkpt lat="-28.5057987" lon="153.5285254">
<ele>1.907</ele>
<time>2018-01-24T02:04:40.385Z</time>
</trkpt>
<trkpt lat="-28.5056432" lon="153.5285084">
<ele>1.967</ele>
<time>2018-01-24T02:04:42.356Z</time>
</trkpt>
<trkpt lat="-28.5054906" lon="153.5284652">
<ele>1.890</ele>
<time>2018-01-24T02:04:44.330Z</time>
</trkpt>
<trkpt lat="-28.5053438" lon="153.5284278">
<ele>1.751</ele>
<time>2018-01-24T02:04:46.223Z</time>
</trkpt>
<trkpt lat="-28.5051936" lon="153.5284086">
<ele>1.522</ele>
<time>2018-01-24T02:04:48.171Z</time>
</trkpt>
<trkpt lat="-28.5050529" lon="153.5283822">
<ele>1.194</ele>
<time>2018-01-24T02:04:50.078Z</time>
</trkpt>
<trkpt lat="-28.5049160" lon="153.5283930">
<ele>0.734</ele>
<time>2018-01-24T02:04:52.023Z</time>
</trkpt>
<trkpt lat="-28.5048056" lon="153.5284085">
<ele>0.175</ele>
<time>2018-01-24T02:04:53.732Z</time>
</trkpt>
<trkpt lat="-28.5047044" lon="153.5284595">
<ele>0.000</ele>
<time>2018-01-24T02:04:55.657Z</time>
</trkpt>
<trkpt lat="-28.5046859" lon="153.5285903">
<ele>0.000</ele>
<time>2018-01-24T02:04:57.987Z</time>
</trkpt>
<trkpt lat="-28.5047071" lon="153.5287038">
<ele>0.298</ele>
<time>2018-01-24T02:05:00.268Z</time>
</trkpt>
<trkpt lat="-28.5047331" lon="153.5288060">
<ele>1.004</ele>
<time>2018-01-24T02:05:02.646Z</time>
</trkpt>
<trkpt lat="-28.5047319" lon="153.5289486">
<ele>1.499</ele>
<time>2018-01-24T02:05:06.024Z</time>
</trkpt>
<trkpt lat="-28.5047431" lon="153.5290612">
<ele>1.761</ele>
<time>2018-01-24T02:05:08.870Z</time>
</trkpt>
<trkpt lat="-28.5047281" lon="153.5291660">
<ele>1.941</ele>
<time>2018-01-24T02:05:12.139Z</time>
</trkpt>
<trkpt lat="-28.5046566" lon="153.5292513">
<ele>2.133</ele>
<time>2018-01-24T02:05:16.650Z</time>
</trkpt>
<trkpt lat="-28.5045493" lon="153.5292558">
<ele>2.391</ele>
<time>2018-01-24T02:05:21.965Z</time>
</trkpt>
<trkpt lat="-28.5045073" lon="153.5293464">
<ele>2.724</ele>
<time>2018-01-24T02:05:27.001Z</time>
</trkpt>
<trkpt lat="-28.5045073" lon="153.5293464">
<ele>3.041</ele>
<time>2018-01-24T02:05:33.001Z</time>
</trkpt>
<trkpt lat="-28.5045073" lon="153.5293464">
<ele>3.211</ele>
<time>2018-01-24T02:13:15.106Z</time>
</trkpt>
<trkpt lat="-28.5047163" lon="153.5293307">
<ele>3.195</ele>
<time>2018-01-24T02:13:29.856Z</time>
</trkpt>
<trkpt lat="-28.5048073" lon="153.5293284">
<ele>3.433</ele>
<time>2018-01-24T02:13:32.248Z</time>
</trkpt>
<trkpt lat="-28.5048856" lon="153.5293902">
<ele>4.220</ele>
<time>2018-01-24T02:13:34.312Z</time>
</trkpt>
<trkpt lat="-28.5049752" lon="153.5294375">
<ele>5.067</ele>
<time>2018-01-24T02:13:36.347Z</time>
</trkpt>
<trkpt lat="-28.5050651" lon="153.5294586">
<ele>5.456</ele>
<time>2018-01-24T02:13:38.153Z</time>
</trkpt>
<trkpt lat="-28.5051593" lon="153.5294789">
<ele>5.435</ele>
<time>2018-01-24T02:13:39.915Z</time>
</trkpt>
<trkpt lat="-28.5052664" lon="153.5294935">
<ele>5.191</ele>
<time>2018-01-24T02:13:41.751Z</time>
</trkpt>
<trkpt lat="-28.5053786" lon="153.5295110">
<ele>4.881</ele>
<time>2018-01-24T02:13:43.552Z</time>
</trkpt>
<trkpt lat="-28.5055032" lon="153.5295345">
<ele>4.557</ele>
<time>2018-01-24T02:13:45.434Z</time>
</trkpt>
<trkpt lat="-28.5056349" lon="153.5295545">
<ele>4.205</ele>
<time>2018-01-24T02:13:47.309Z</time>
</trkpt>
<trkpt lat="-28.5057803" lon="153.5295709">
<ele>3.875</ele>
<time>2018-01-24T02:13:49.352Z</time>
</trkpt>
<trkpt lat="-28.5059268" lon="153.5295809">
<ele>3.662</ele>
<time>2018-01-24T02:13:51.575Z</time>
</trkpt>
<trkpt lat="-28.5060497" lon="153.5295875">
<ele>3.593</ele>
<time>2018-01-24T02:13:53.863Z</time>
</trkpt>
<trkpt lat="-28.5061478" lon="153.5295901">
<ele>3.651</ele>
<time>2018-01-24T02:13:55.990Z</time>
</trkpt>
<trkpt lat="-28.5062644" lon="153.5295656">
<ele>3.827</ele>
<time>2018-01-24T02:13:58.778Z</time>
</trkpt>
<trkpt lat="-28.5063290" lon="153.5294832">
<ele>4.048</ele>
<time>2018-01-24T02:14:00.679Z</time>
</trkpt>
<trkpt lat="-28.5063384" lon="153.5293623">
<ele>4.156</ele>
<time>2018-01-24T02:14:02.435Z</time>
</trkpt>
<trkpt lat="-28.5063277" lon="153.5292198">
<ele>4.034</ele>
<time>2018-01-24T02:14:04.272Z</time>
</trkpt>
<trkpt lat="-28.5063094" lon="153.5290640">
<ele>3.737</ele>
<time>2018-01-24T02:14:06.175Z</time>
</trkpt>
<trkpt lat="-28.5062880" lon="153.5289044">
<ele>3.434</ele>
<time>2018-01-24T02:14:08.119Z</time>
</trkpt>
<trkpt lat="-28.5062219" lon="153.5287659">
<ele>3.238</ele>
<time>2018-01-24T02:14:10.016Z</time>
</trkpt>
<trkpt lat="-28.5061102" lon="153.5286638">
<ele>3.150</ele>
<time>2018-01-24T02:14:11.916Z</time>
</trkpt>
<trkpt lat="-28.5059685" lon="153.5286094">
<ele>3.128</ele>
<time>2018-01-24T02:14:13.835Z</time>
</trkpt>
<trkpt lat="-28.5058211" lon="153.5285764">
<ele>3.141</ele>
<time>2018-01-24T02:14:15.685Z</time>
</trkpt>
<trkpt lat="-28.5056685" lon="153.5285433">
<ele>3.176</ele>
<time>2018-01-24T02:14:17.451Z</time>
</trkpt>
<trkpt lat="-28.5054850" lon="153.5285081">
<ele>3.213</ele>
<time>2018-01-24T02:14:19.367Z</time>
</trkpt>
<trkpt lat="-28.5052823" lon="153.5284686">
<ele>3.234</ele>
<time>2018-01-24T02:14:21.350Z</time>
</trkpt>
<trkpt lat="-28.5050876" lon="153.5284261">
<ele>3.239</ele>
<time>2018-01-24T02:14:23.244Z</time>
</trkpt>
<trkpt lat="-28.5048965" lon="153.5283835">
<ele>3.235</ele>
<time>2018-01-24T02:14:25.134Z</time>
</trkpt>
<trkpt lat="-28.5047131" lon="153.5283445">
<ele>3.213</ele>
<time>2018-01-24T02:14:27.022Z</time>
</trkpt>
<trkpt lat="-28.5045473" lon="153.5283083">
<ele>3.155</ele>
<time>2018-01-24T02:14:28.869Z</time>
</trkpt>
<trkpt lat="-28.5044016" lon="153.5282800">
<ele>3.066</ele>
<time>2018-01-24T02:14:30.681Z</time>
</trkpt>
<trkpt lat="-28.5042846" lon="153.5282612">
<ele>2.968</ele>
<time>2018-01-24T02:14:32.357Z</time>
</trkpt>
<trkpt lat="-28.5041866" lon="153.5282616">
<ele>2.887</ele>
<time>2018-01-24T02:14:34.001Z</time>
</trkpt>
<trkpt lat="-28.5041866" lon="153.5282616">
<ele>2.847</ele>
<time>2018-01-24T02:14:38.001Z</time>
</trkpt>
<trkpt lat="-28.5041866" lon="153.5282616">
<ele>2.842</ele>
<time>2018-01-24T02:14:38.871Z</time>
</trkpt>
<trkpt lat="-28.5040454" lon="153.5284313">
<ele>2.849</ele>
<time>2018-01-24T02:14:45.710Z</time>
</trkpt>
<trkpt lat="-28.5039911" lon="153.5285190">
<ele>2.814</ele>
<time>2018-01-24T02:14:47.771Z</time>
</trkpt>
<trkpt lat="-28.5039359" lon="153.5286147">
<ele>2.656</ele>
<time>2018-01-24T02:14:50.334Z</time>
</trkpt>
<trkpt lat="-28.5039287" lon="153.5287166">
<ele>2.313</ele>
<time>2018-01-24T02:14:53.001Z</time>
</trkpt>
<trkpt lat="-28.5039287" lon="153.5287166">
<ele>1.874</ele>
<time>2018-01-24T02:14:57.001Z</time>
</trkpt>
<trkpt lat="-28.5039287" lon="153.5287166">
<ele>1.603</ele>
<time>2018-01-24T02:14:58.292Z</time>
</trkpt>
<trkpt lat="-28.5039707" lon="153.5288840">
<ele>1.618</ele>
<time>2018-01-24T02:15:05.001Z</time>
</trkpt>
<trkpt lat="-28.5039707" lon="153.5288840">
<ele>1.722</ele>
<time>2018-01-24T02:15:11.005Z</time>
</trkpt>
<trkpt lat="-28.5039707" lon="153.5288840">
<ele>1.731</ele>
<time>2018-01-24T02:15:44.394Z</time>
</trkpt>
<trkpt lat="-28.5039597" lon="153.5291600">
<ele>1.687</ele>
<time>2018-01-24T02:15:58.607Z</time>
</trkpt>
<trkpt lat="-28.5039630" lon="153.5292707">
<ele>1.787</ele>
<time>2018-01-24T02:16:01.999Z</time>
</trkpt>
<trkpt lat="-28.5039630" lon="153.5292707">
<ele>2.094</ele>
<time>2018-01-24T02:16:13.999Z</time>
</trkpt>
<trkpt lat="-28.5039630" lon="153.5292707">
<ele>2.347</ele>
<time>2018-01-24T02:45:06.427Z</time>
</trkpt>
<trkpt lat="-28.5035673" lon="153.5292764">
<ele>2.341</ele>
<time>2018-01-24T02:45:57.000Z</time>
</trkpt>
<trkpt lat="-28.5035673" lon="153.5292764">
<ele>2.241</ele>
<time>2018-01-24T02:46:04.000Z</time>
</trkpt>
<trkpt lat="-28.5035673" lon="153.5292764">
<ele>2.230</ele>
<time>2018-01-24T02:53:30.556Z</time>
</trkpt>
<trkpt lat="-28.5037433" lon="153.5291683">
<ele>2.271</ele>
<time>2018-01-24T02:54:12.011Z</time>
</trkpt>
<trkpt lat="-28.5038152" lon="153.5290879">
<ele>2.214</ele>
<time>2018-01-24T02:54:14.991Z</time>
</trkpt>
<trkpt lat="-28.5038840" lon="153.5291583">
<ele>2.024</ele>
<time>2018-01-24T02:54:16.558Z</time>
</trkpt>
<trkpt lat="-28.5038987" lon="153.5292928">
<ele>1.751</ele>
<time>2018-01-24T02:54:18.295Z</time>
</trkpt>
<trkpt lat="-28.5039138" lon="153.5294547">
<ele>1.408</ele>
<time>2018-01-24T02:54:20.318Z</time>
</trkpt>
<trkpt lat="-28.5039321" lon="153.5296264">
<ele>1.029</ele>
<time>2018-01-24T02:54:22.574Z</time>
</trkpt>
<trkpt lat="-28.5039134" lon="153.5297898">
<ele>0.702</ele>
<time>2018-01-24T02:54:24.467Z</time>
</trkpt>
<trkpt lat="-28.5037837" lon="153.5298623">
<ele>0.476</ele>
<time>2018-01-24T02:54:25.973Z</time>
</trkpt>
<trkpt lat="-28.5036028" lon="153.5298430">
<ele>0.359</ele>
<time>2018-01-24T02:54:27.534Z</time>
</trkpt>
<trkpt lat="-28.5033559" lon="153.5297743">
<ele>0.303</ele>
<time>2018-01-24T02:54:29.308Z</time>
</trkpt>
<trkpt lat="-28.5030442" lon="153.5296782">
<ele>0.241</ele>
<time>2018-01-24T02:54:31.219Z</time>
</trkpt>
<trkpt lat="-28.5027011" lon="153.5295282">
<ele>0.146</ele>
<time>2018-01-24T02:54:33.198Z</time>
</trkpt>
<trkpt lat="-28.5023144" lon="153.5293689">
<ele>0.023</ele>
<time>2018-01-24T02:54:35.202Z</time>
</trkpt>
<trkpt lat="-28.5018642" lon="153.5291947">
<ele>0.000</ele>
<time>2018-01-24T02:54:37.271Z</time>
</trkpt>
<trkpt lat="-28.5013637" lon="153.5289888">
<ele>0.000</ele>
<time>2018-01-24T02:54:39.343Z</time>
</trkpt>
<trkpt lat="-28.5008638" lon="153.5287380">
<ele>0.000</ele>
<time>2018-01-24T02:54:41.353Z</time>
</trkpt>
<trkpt lat="-28.5003863" lon="153.5284553">
<ele>0.000</ele>
<time>2018-01-24T02:54:43.356Z</time>
</trkpt>
<trkpt lat="-28.4999440" lon="153.5281913">
<ele>0.000</ele>
<time>2018-01-24T02:54:45.320Z</time>
</trkpt>
<trkpt lat="-28.4995702" lon="153.5279156">
<ele>0.028</ele>
<time>2018-01-24T02:54:47.164Z</time>
</trkpt>
<trkpt lat="-28.4991910" lon="153.5276323">
<ele>0.003</ele>
<time>2018-01-24T02:54:49.082Z</time>
</trkpt>
<trkpt lat="-28.4988105" lon="153.5273703">
<ele>0.000</ele>
<time>2018-01-24T02:54:50.964Z</time>
</trkpt>
<trkpt lat="-28.4984225" lon="153.5270756">
<ele>0.000</ele>
<time>2018-01-24T02:54:52.898Z</time>
</trkpt>
<trkpt lat="-28.4980249" lon="153.5267760">
<ele>0.138</ele>
<time>2018-01-24T02:54:54.842Z</time>
</trkpt>
<trkpt lat="-28.4976542" lon="153.5264416">
<ele>0.596</ele>
<time>2018-01-24T02:54:56.756Z</time>
</trkpt>
<trkpt lat="-28.4972925" lon="153.5260953">
<ele>1.059</ele>
<time>2018-01-24T02:54:58.644Z</time>
</trkpt>
<trkpt lat="-28.4969218" lon="153.5257088">
<ele>1.244</ele>
<time>2018-01-24T02:55:00.627Z</time>
</trkpt>
<trkpt lat="-28.4965871" lon="153.5253019">
<ele>0.999</ele>
<time>2018-01-24T02:55:02.574Z</time>
</trkpt>
<trkpt lat="-28.4962805" lon="153.5248639">
<ele>0.457</ele>
<time>2018-01-24T02:55:04.636Z</time>
</trkpt>
<trkpt lat="-28.4960190" lon="153.5244499">
<ele>0.000</ele>
<time>2018-01-24T02:55:06.651Z</time>
</trkpt>
<trkpt lat="-28.4957666" lon="153.5240572">
<ele>0.000</ele>
<time>2018-01-24T02:55:08.635Z</time>
</trkpt>
<trkpt lat="-28.4955139" lon="153.5236722">
<ele>0.314</ele>
<time>2018-01-24T02:55:10.608Z</time>
</trkpt>
<trkpt lat="-28.4952894" lon="153.5232724">
<ele>1.290</ele>
<time>2018-01-24T02:55:12.579Z</time>
</trkpt>
<trkpt lat="-28.4950577" lon="153.5228758">
<ele>2.614</ele>
<time>2018-01-24T02:55:14.625Z</time>
</trkpt>
<trkpt lat="-28.4948570" lon="153.5225234">
<ele>3.893</ele>
<time>2018-01-24T02:55:16.489Z</time>
</trkpt>
<trkpt lat="-28.4946412" lon="153.5221708">
<ele>4.752</ele>
<time>2018-01-24T02:55:18.417Z</time>
</trkpt>
<trkpt lat="-28.4944288" lon="153.5218134">
<ele>5.239</ele>
<time>2018-01-24T02:55:20.370Z</time>
</trkpt>
<trkpt lat="-28.4942428" lon="153.5214615">
<ele>5.827</ele>
<time>2018-01-24T02:55:22.303Z</time>
</trkpt>
<trkpt lat="-28.4940962" lon="153.5211570">
<ele>6.951</ele>
<time>2018-01-24T02:55:24.098Z</time>
</trkpt>
<trkpt lat="-28.4939430" lon="153.5209000">
<ele>8.586</ele>
<time>2018-01-24T02:55:25.901Z</time>
</trkpt>
<trkpt lat="-28.4937338" lon="153.5207253">
<ele>10.416</ele>
<time>2018-01-24T02:55:27.753Z</time>
</trkpt>
<trkpt lat="-28.4934654" lon="153.5206032">
<ele>12.203</ele>
<time>2018-01-24T02:55:29.790Z</time>
</trkpt>
<trkpt lat="-28.4931625" lon="153.5205304">
<ele>13.952</ele>
<time>2018-01-24T02:55:31.848Z</time>
</trkpt>
<trkpt lat="-28.4928345" lon="153.5205300">
<ele>15.763</ele>
<time>2018-01-24T02:55:33.951Z</time>
</trkpt>
<trkpt lat="-28.4925485" lon="153.5206274">
<ele>17.524</ele>
<time>2018-01-24T02:55:35.924Z</time>
</trkpt>
<trkpt lat="-28.4922982" lon="153.5206739">
<ele>18.893</ele>
<time>2018-01-24T02:55:37.758Z</time>
</trkpt>
<trkpt lat="-28.4921193" lon="153.5206440">
<ele>19.633</ele>
<time>2018-01-24T02:55:39.260Z</time>
</trkpt>
<trkpt lat="-28.4920176" lon="153.5205853">
<ele>19.806</ele>
<time>2018-01-24T02:55:40.640Z</time>
</trkpt>
<trkpt lat="-28.4918994" lon="153.5205154">
<ele>19.666</ele>
<time>2018-01-24T02:55:42.415Z</time>
</trkpt>
<trkpt lat="-28.4917270" lon="153.5205456">
<ele>19.593</ele>
<time>2018-01-24T02:55:45.719Z</time>
</trkpt>
<trkpt lat="-28.4915315" lon="153.5206071">
<ele>19.943</ele>
<time>2018-01-24T02:55:48.471Z</time>
</trkpt>
<trkpt lat="-28.4913474" lon="153.5206320">
<ele>20.629</ele>
<time>2018-01-24T02:55:50.505Z</time>
</trkpt>
<trkpt lat="-28.4912032" lon="153.5206607">
<ele>21.212</ele>
<time>2018-01-24T02:55:52.103Z</time>
</trkpt>
<trkpt lat="-28.4910400" lon="153.5205807">
<ele>21.216</ele>
<time>2018-01-24T02:55:54.134Z</time>
</trkpt>
<trkpt lat="-28.4908787" lon="153.5204069">
<ele>20.239</ele>
<time>2018-01-24T02:55:56.539Z</time>
</trkpt>
<trkpt lat="-28.4908158" lon="153.5201608">
<ele>18.280</ele>
<time>2018-01-24T02:55:58.619Z</time>
</trkpt>
<trkpt lat="-28.4907617" lon="153.5198956">
<ele>15.917</ele>
<time>2018-01-24T02:56:00.731Z</time>
</trkpt>
<trkpt lat="-28.4906952" lon="153.5196117">
<ele>13.763</ele>
<time>2018-01-24T02:56:02.989Z</time>
</trkpt>
<trkpt lat="-28.4906073" lon="153.5193185">
<ele>12.099</ele>
<time>2018-01-24T02:56:05.120Z</time>
</trkpt>
<trkpt lat="-28.4904452" lon="153.5189996">
<ele>10.918</ele>
<time>2018-01-24T02:56:07.300Z</time>
</trkpt>
<trkpt lat="-28.4902255" lon="153.5186156">
<ele>9.975</ele>
<time>2018-01-24T02:56:09.604Z</time>
</trkpt>
<trkpt lat="-28.4899124" lon="153.5182431">
<ele>8.889</ele>
<time>2018-01-24T02:56:11.928Z</time>
</trkpt>
<trkpt lat="-28.4896143" lon="153.5179324">
<ele>7.497</ele>
<time>2018-01-24T02:56:13.929Z</time>
</trkpt>
<trkpt lat="-28.4893195" lon="153.5176472">
<ele>5.914</ele>
<time>2018-01-24T02:56:15.840Z</time>
</trkpt>
<trkpt lat="-28.4890598" lon="153.5173323">
<ele>4.322</ele>
<time>2018-01-24T02:56:17.743Z</time>
</trkpt>
<trkpt lat="-28.4887965" lon="153.5170307">
<ele>3.013</ele>
<time>2018-01-24T02:56:19.658Z</time>
</trkpt>
<trkpt lat="-28.4885536" lon="153.5167338">
<ele>2.294</ele>
<time>2018-01-24T02:56:21.541Z</time>
</trkpt>
<trkpt lat="-28.4883144" lon="153.5164567">
<ele>2.119</ele>
<time>2018-01-24T02:56:23.404Z</time>
</trkpt>
<trkpt lat="-28.4880443" lon="153.5162007">
<ele>2.175</ele>
<time>2018-01-24T02:56:25.365Z</time>
</trkpt>
<trkpt lat="-28.4877572" lon="153.5159543">
<ele>2.180</ele>
<time>2018-01-24T02:56:27.357Z</time>
</trkpt>
<trkpt lat="-28.4872933" lon="153.5155753">
<ele>2.039</ele>
<time>2018-01-24T02:56:30.363Z</time>
</trkpt>
<trkpt lat="-28.4868020" lon="153.5151750">
<ele>1.910</ele>
<time>2018-01-24T02:56:33.373Z</time>
</trkpt>
<trkpt lat="-28.4863149" lon="153.5148222">
<ele>1.962</ele>
<time>2018-01-24T02:56:36.238Z</time>
</trkpt>
<trkpt lat="-28.4858736" lon="153.5144154">
<ele>2.113</ele>
<time>2018-01-24T02:56:39.137Z</time>
</trkpt>
<trkpt lat="-28.4853852" lon="153.5141280">
<ele>2.198</ele>
<time>2018-01-24T02:56:41.999Z</time>
</trkpt>
<trkpt lat="-28.4847959" lon="153.5138856">
<ele>1.957</ele>
<time>2018-01-24T02:56:45.121Z</time>
</trkpt>
<trkpt lat="-28.4842299" lon="153.5137585">
<ele>1.314</ele>
<time>2018-01-24T02:56:47.971Z</time>
</trkpt>
<trkpt lat="-28.4837208" lon="153.5137582">
<ele>0.773</ele>
<time>2018-01-24T02:56:50.655Z</time>
</trkpt>
<trkpt lat="-28.4831192" lon="153.5138571">
<ele>0.856</ele>
<time>2018-01-24T02:56:53.823Z</time>
</trkpt>
<trkpt lat="-28.4825493" lon="153.5140342">
<ele>1.373</ele>
<time>2018-01-24T02:56:56.756Z</time>
</trkpt>
<trkpt lat="-28.4820004" lon="153.5143470">
<ele>1.651</ele>
<time>2018-01-24T02:56:59.753Z</time>
</trkpt>
<trkpt lat="-28.4814850" lon="153.5148567">
<ele>1.198</ele>
<time>2018-01-24T02:57:03.057Z</time>
</trkpt>
<trkpt lat="-28.4810232" lon="153.5153272">
<ele>0.002</ele>
<time>2018-01-24T02:57:06.083Z</time>
</trkpt>
<trkpt lat="-28.4805201" lon="153.5156507">
<ele>0.000</ele>
<time>2018-01-24T02:57:08.958Z</time>
</trkpt>
<trkpt lat="-28.4799359" lon="153.5157152">
<ele>0.000</ele>
<time>2018-01-24T02:57:11.914Z</time>
</trkpt>
<trkpt lat="-28.4793512" lon="153.5155124">
<ele>0.000</ele>
<time>2018-01-24T02:57:14.957Z</time>
</trkpt>
<trkpt lat="-28.4788247" lon="153.5151242">
<ele>0.000</ele>
<time>2018-01-24T02:57:18.003Z</time>
</trkpt>
<trkpt lat="-28.4783074" lon="153.5148293">
<ele>0.444</ele>
<time>2018-01-24T02:57:20.823Z</time>
</trkpt>
<trkpt lat="-28.4777849" lon="153.5144643">
<ele>2.188</ele>
<time>2018-01-24T02:57:23.873Z</time>
</trkpt>
<trkpt lat="-28.4772920" lon="153.5141620">
<ele>3.930</ele>
<time>2018-01-24T02:57:26.715Z</time>
</trkpt>
<trkpt lat="-28.4767916" lon="153.5138454">
<ele>6.149</ele>
<time>2018-01-24T02:57:29.661Z</time>
</trkpt>
<trkpt lat="-28.4763395" lon="153.5134447">
<ele>9.486</ele>
<time>2018-01-24T02:57:32.536Z</time>
</trkpt>
<trkpt lat="-28.4759757" lon="153.5128078">
<ele>14.081</ele>
<time>2018-01-24T02:57:35.688Z</time>
</trkpt>
<trkpt lat="-28.4756165" lon="153.5121715">
<ele>19.223</ele>
<time>2018-01-24T02:57:38.695Z</time>
</trkpt>
<trkpt lat="-28.4752819" lon="153.5115316">
<ele>23.865</ele>
<time>2018-01-24T02:57:41.649Z</time>
</trkpt>
<trkpt lat="-28.4749476" lon="153.5108967">
<ele>27.252</ele>
<time>2018-01-24T02:57:44.599Z</time>
</trkpt>
<trkpt lat="-28.4747270" lon="153.5104951">
<ele>29.182</ele>
<time>2018-01-24T02:57:46.491Z</time>
</trkpt>
<trkpt lat="-28.4744391" lon="153.5098524">
<ele>29.959</ele>
<time>2018-01-24T02:57:49.392Z</time>
</trkpt>
<trkpt lat="-28.4743640" lon="153.5090978">
<ele>30.294</ele>
<time>2018-01-24T02:57:52.489Z</time>
</trkpt>
<trkpt lat="-28.4743100" lon="153.5086220">
<ele>30.963</ele>
<time>2018-01-24T02:57:54.473Z</time>
</trkpt>
<trkpt lat="-28.4742540" lon="153.5081601">
<ele>32.227</ele>
<time>2018-01-24T02:57:56.413Z</time>
</trkpt>
<trkpt lat="-28.4741833" lon="153.5077305">
<ele>33.937</ele>
<time>2018-01-24T02:57:58.238Z</time>
</trkpt>
<trkpt lat="-28.4740390" lon="153.5073096">
<ele>36.109</ele>
<time>2018-01-24T02:58:00.146Z</time>
</trkpt>
<trkpt lat="-28.4737457" lon="153.5069410">
<ele>38.754</ele>
<time>2018-01-24T02:58:02.263Z</time>
</trkpt>
<trkpt lat="-28.4734244" lon="153.5066394">
<ele>41.536</ele>
<time>2018-01-24T02:58:04.257Z</time>
</trkpt>
<trkpt lat="-28.4730570" lon="153.5063875">
<ele>44.096</ele>
<time>2018-01-24T02:58:06.275Z</time>
</trkpt>
<trkpt lat="-28.4726800" lon="153.5062011">
<ele>46.312</ele>
<time>2018-01-24T02:58:08.198Z</time>
</trkpt>
<trkpt lat="-28.4722803" lon="153.5060578">
<ele>47.992</ele>
<time>2018-01-24T02:58:10.161Z</time>
</trkpt>
<trkpt lat="-28.4718969" lon="153.5059177">
<ele>48.873</ele>
<time>2018-01-24T02:58:12.038Z</time>
</trkpt>
<trkpt lat="-28.4714849" lon="153.5057865">
<ele>48.818</ele>
<time>2018-01-24T02:58:14.012Z</time>
</trkpt>
<trkpt lat="-28.4710707" lon="153.5056879">
<ele>47.754</ele>
<time>2018-01-24T02:58:15.956Z</time>
</trkpt>
<trkpt lat="-28.4706150" lon="153.5057299">
<ele>45.784</ele>
<time>2018-01-24T02:58:18.057Z</time>
</trkpt>
<trkpt lat="-28.4701936" lon="153.5058170">
<ele>43.139</ele>
<time>2018-01-24T02:58:20.027Z</time>
</trkpt>
<trkpt lat="-28.4697982" lon="153.5058903">
<ele>39.957</ele>
<time>2018-01-24T02:58:21.887Z</time>
</trkpt>
<trkpt lat="-28.4693573" lon="153.5059270">
<ele>36.475</ele>
<time>2018-01-24T02:58:23.967Z</time>
</trkpt>
<trkpt lat="-28.4689674" lon="153.5059939">
<ele>33.156</ele>
<time>2018-01-24T02:58:25.842Z</time>
</trkpt>
<trkpt lat="-28.4685772" lon="153.5060488">
<ele>30.311</ele>
<time>2018-01-24T02:58:27.740Z</time>
</trkpt>
<trkpt lat="-28.4681934" lon="153.5060192">
<ele>27.597</ele>
<time>2018-01-24T02:58:29.642Z</time>
</trkpt>
<trkpt lat="-28.4678219" lon="153.5057955">
<ele>24.480</ele>
<time>2018-01-24T02:58:31.738Z</time>
</trkpt>
<trkpt lat="-28.4674607" lon="153.5055476">
<ele>21.148</ele>
<time>2018-01-24T02:58:33.780Z</time>
</trkpt>
<trkpt lat="-28.4670976" lon="153.5052860">
<ele>18.253</ele>
<time>2018-01-24T02:58:35.806Z</time>
</trkpt>
<trkpt lat="-28.4667564" lon="153.5050600">
<ele>16.273</ele>
<time>2018-01-24T02:58:37.671Z</time>
</trkpt>
<trkpt lat="-28.4664004" lon="153.5048583">
<ele>15.321</ele>
<time>2018-01-24T02:58:39.574Z</time>
</trkpt>
<trkpt lat="-28.4659976" lon="153.5046865">
<ele>15.117</ele>
<time>2018-01-24T02:58:41.655Z</time>
</trkpt>
<trkpt lat="-28.4656126" lon="153.5045264">
<ele>15.243</ele>
<time>2018-01-24T02:58:43.618Z</time>
</trkpt>
<trkpt lat="-28.4652423" lon="153.5044126">
<ele>15.461</ele>
<time>2018-01-24T02:58:45.428Z</time>
</trkpt>
<trkpt lat="-28.4648649" lon="153.5042794">
<ele>15.650</ele>
<time>2018-01-24T02:58:47.297Z</time>
</trkpt>
<trkpt lat="-28.4644570" lon="153.5041968">
<ele>15.960</ele>
<time>2018-01-24T02:58:49.301Z</time>
</trkpt>
<trkpt lat="-28.4640519" lon="153.5041035">
<ele>16.797</ele>
<time>2018-01-24T02:58:51.327Z</time>
</trkpt>
<trkpt lat="-28.4636113" lon="153.5040357">
<ele>18.230</ele>
<time>2018-01-24T02:58:53.474Z</time>
</trkpt>
<trkpt lat="-28.4629187" lon="153.5039244">
<ele>19.671</ele>
<time>2018-01-24T02:58:56.708Z</time>
</trkpt>
<trkpt lat="-28.4622771" lon="153.5038175">
<ele>20.254</ele>
<time>2018-01-24T02:58:59.630Z</time>
</trkpt>
<trkpt lat="-28.4617236" lon="153.5035580">
<ele>19.781</ele>
<time>2018-01-24T02:59:02.365Z</time>
</trkpt>
<trkpt lat="-28.4611643" lon="153.5032539">
<ele>19.830</ele>
<time>2018-01-24T02:59:05.271Z</time>
</trkpt>
<trkpt lat="-28.4606199" lon="153.5030188">
<ele>21.595</ele>
<time>2018-01-24T02:59:08.064Z</time>
</trkpt>
<trkpt lat="-28.4600954" lon="153.5027061">
<ele>23.815</ele>
<time>2018-01-24T02:59:10.987Z</time>
</trkpt>
<trkpt lat="-28.4597002" lon="153.5021418">
<ele>24.838</ele>
<time>2018-01-24T02:59:14.140Z</time>
</trkpt>
<trkpt lat="-28.4592028" lon="153.5015282">
<ele>24.380</ele>
<time>2018-01-24T02:59:17.611Z</time>
</trkpt>
<trkpt lat="-28.4586223" lon="153.5012083">
<ele>22.824</ele>
<time>2018-01-24T02:59:20.548Z</time>
</trkpt>
<trkpt lat="-28.4581125" lon="153.5008427">
<ele>21.052</ele>
<time>2018-01-24T02:59:23.330Z</time>
</trkpt>
<trkpt lat="-28.4578290" lon="153.5002522">
<ele>20.179</ele>
<time>2018-01-24T02:59:26.138Z</time>
</trkpt>
<trkpt lat="-28.4576381" lon="153.4995958">
<ele>20.718</ele>
<time>2018-01-24T02:59:29.059Z</time>
</trkpt>
<trkpt lat="-28.4574911" lon="153.4991981">
<ele>21.997</ele>
<time>2018-01-24T02:59:30.882Z</time>
</trkpt>
<trkpt lat="-28.4572951" lon="153.4987956">
<ele>22.864</ele>
<time>2018-01-24T02:59:32.847Z</time>
</trkpt>
<trkpt lat="-28.4569107" lon="153.4985029">
<ele>22.542</ele>
<time>2018-01-24T02:59:35.141Z</time>
</trkpt>
<trkpt lat="-28.4563469" lon="153.4981596">
<ele>20.888</ele>
<time>2018-01-24T02:59:38.162Z</time>
</trkpt>
<trkpt lat="-28.4557929" lon="153.4978455">
<ele>18.396</ele>
<time>2018-01-24T02:59:41.043Z</time>
</trkpt>
<trkpt lat="-28.4552605" lon="153.4976218">
<ele>15.850</ele>
<time>2018-01-24T02:59:43.738Z</time>
</trkpt>
<trkpt lat="-28.4546866" lon="153.4977485">
<ele>13.953</ele>
<time>2018-01-24T02:59:46.620Z</time>
</trkpt>
<trkpt lat="-28.4541808" lon="153.4981341">
<ele>13.238</ele>
<time>2018-01-24T02:59:49.708Z</time>
</trkpt>
<trkpt lat="-28.4537729" lon="153.4987450">
<ele>13.595</ele>
<time>2018-01-24T02:59:53.017Z</time>
</trkpt>
<trkpt lat="-28.4534089" lon="153.4993680">
<ele>14.167</ele>
<time>2018-01-24T02:59:56.092Z</time>
</trkpt>
<trkpt lat="-28.4530617" lon="153.4999673">
<ele>14.158</ele>
<time>2018-01-24T02:59:58.996Z</time>
</trkpt>
<trkpt lat="-28.4525926" lon="153.5003944">
<ele>13.591</ele>
<time>2018-01-24T03:00:01.801Z</time>
</trkpt>
<trkpt lat="-28.4519616" lon="153.5004528">
<ele>13.017</ele>
<time>2018-01-24T03:00:04.852Z</time>
</trkpt>
<trkpt lat="-28.4513213" lon="153.5004522">
<ele>13.303</ele>
<time>2018-01-24T03:00:07.973Z</time>
</trkpt>
<trkpt lat="-28.4507641" lon="153.5007357">
<ele>15.230</ele>
<time>2018-01-24T03:00:10.950Z</time>
</trkpt>
<trkpt lat="-28.4504040" lon="153.5009196">
<ele>18.332</ele>
<time>2018-01-24T03:00:12.887Z</time>
</trkpt>
<trkpt lat="-28.4500177" lon="153.5009081">
<ele>21.137</ele>
<time>2018-01-24T03:00:14.801Z</time>
</trkpt>
<trkpt lat="-28.4496291" lon="153.5007675">
<ele>23.112</ele>
<time>2018-01-24T03:00:16.851Z</time>
</trkpt>
<trkpt lat="-28.4492511" lon="153.5006683">
<ele>24.783</ele>
<time>2018-01-24T03:00:18.785Z</time>
</trkpt>
<trkpt lat="-28.4488645" lon="153.5006640">
<ele>26.278</ele>
<time>2018-01-24T03:00:20.700Z</time>
</trkpt>
<trkpt lat="-28.4484818" lon="153.5007616">
<ele>27.188</ele>
<time>2018-01-24T03:00:22.660Z</time>
</trkpt>
<trkpt lat="-28.4480949" lon="153.5008420">
<ele>27.206</ele>
<time>2018-01-24T03:00:24.630Z</time>
</trkpt>
<trkpt lat="-28.4476772" lon="153.5008158">
<ele>26.220</ele>
<time>2018-01-24T03:00:26.714Z</time>
</trkpt>
<trkpt lat="-28.4472654" lon="153.5006328">
<ele>24.273</ele>
<time>2018-01-24T03:00:28.880Z</time>
</trkpt>
<trkpt lat="-28.4468479" lon="153.5005168">
<ele>21.479</ele>
<time>2018-01-24T03:00:30.932Z</time>
</trkpt>
<trkpt lat="-28.4464500" lon="153.5003712">
<ele>18.131</ele>
<time>2018-01-24T03:00:32.904Z</time>
</trkpt>
<trkpt lat="-28.4460878" lon="153.5002363">
<ele>14.880</ele>
<time>2018-01-24T03:00:34.713Z</time>
</trkpt>
<trkpt lat="-28.4457485" lon="153.5000638">
<ele>12.468</ele>
<time>2018-01-24T03:00:36.521Z</time>
</trkpt>
<trkpt lat="-28.4454391" lon="153.4998065">
<ele>11.348</ele>
<time>2018-01-24T03:00:38.460Z</time>
</trkpt>
<trkpt lat="-28.4450429" lon="153.4992967">
<ele>11.539</ele>
<time>2018-01-24T03:00:41.557Z</time>
</trkpt>
<trkpt lat="-28.4446447" lon="153.4988852">
<ele>12.655</ele>
<time>2018-01-24T03:00:44.348Z</time>
</trkpt>
<trkpt lat="-28.4442143" lon="153.4985083">
<ele>13.999</ele>
<time>2018-01-24T03:00:47.216Z</time>
</trkpt>
<trkpt lat="-28.4437670" lon="153.4980819">
<ele>14.869</ele>
<time>2018-01-24T03:00:50.297Z</time>
</trkpt>
<trkpt lat="-28.4433296" lon="153.4975996">
<ele>14.885</ele>
<time>2018-01-24T03:00:53.392Z</time>
</trkpt>
<trkpt lat="-28.4428913" lon="153.4970811">
<ele>13.944</ele>
<time>2018-01-24T03:00:56.470Z</time>
</trkpt>
<trkpt lat="-28.4424548" lon="153.4966482">
<ele>12.466</ele>
<time>2018-01-24T03:00:59.242Z</time>
</trkpt>
<trkpt lat="-28.4420770" lon="153.4961849">
<ele>11.196</ele>
<time>2018-01-24T03:01:01.955Z</time>
</trkpt>
<trkpt lat="-28.4417793" lon="153.4956604">
<ele>10.394</ele>
<time>2018-01-24T03:01:04.765Z</time>
</trkpt>
<trkpt lat="-28.4416101" lon="153.4951160">
<ele>9.862</ele>
<time>2018-01-24T03:01:07.441Z</time>
</trkpt>
<trkpt lat="-28.4414877" lon="153.4946174">
<ele>9.298</ele>
<time>2018-01-24T03:01:09.936Z</time>
</trkpt>
<trkpt lat="-28.4414299" lon="153.4940796">
<ele>8.436</ele>
<time>2018-01-24T03:01:12.731Z</time>
</trkpt>
<trkpt lat="-28.4414512" lon="153.4935657">
<ele>7.298</ele>
<time>2018-01-24T03:01:15.593Z</time>
</trkpt>
<trkpt lat="-28.4414670" lon="153.4930458">
<ele>6.253</ele>
<time>2018-01-24T03:01:18.601Z</time>
</trkpt>
<trkpt lat="-28.4414931" lon="153.4926841">
<ele>5.661</ele>
<time>2018-01-24T03:01:20.714Z</time>
</trkpt>
<trkpt lat="-28.4415337" lon="153.4923562">
<ele>5.573</ele>
<time>2018-01-24T03:01:22.643Z</time>
</trkpt>
<trkpt lat="-28.4415599" lon="153.4920253">
<ele>5.786</ele>
<time>2018-01-24T03:01:24.573Z</time>
</trkpt>
<trkpt lat="-28.4415746" lon="153.4916067">
<ele>6.060</ele>
<time>2018-01-24T03:01:26.998Z</time>
</trkpt>
<trkpt lat="-28.4416226" lon="153.4911474">
<ele>6.174</ele>
<time>2018-01-24T03:01:29.761Z</time>
</trkpt>
<trkpt lat="-28.4416618" lon="153.4907188">
<ele>6.070</ele>
<time>2018-01-24T03:01:32.479Z</time>
</trkpt>
<trkpt lat="-28.4416934" lon="153.4903130">
<ele>5.941</ele>
<time>2018-01-24T03:01:35.176Z</time>
</trkpt>
<trkpt lat="-28.4417322" lon="153.4899595">
<ele>5.960</ele>
<time>2018-01-24T03:01:37.569Z</time>
</trkpt>
<trkpt lat="-28.4417924" lon="153.4895702">
<ele>6.126</ele>
<time>2018-01-24T03:01:40.280Z</time>
</trkpt>
<trkpt lat="-28.4418194" lon="153.4891070">
<ele>6.406</ele>
<time>2018-01-24T03:01:43.616Z</time>
</trkpt>
<trkpt lat="-28.4418610" lon="153.4886484">
<ele>6.835</ele>
<time>2018-01-24T03:01:47.060Z</time>
</trkpt>
<trkpt lat="-28.4419138" lon="153.4882265">
<ele>7.534</ele>
<time>2018-01-24T03:01:50.034Z</time>
</trkpt>
<trkpt lat="-28.4419544" lon="153.4877584">
<ele>8.393</ele>
<time>2018-01-24T03:01:53.087Z</time>
</trkpt>
<trkpt lat="-28.4419580" lon="153.4872322">
<ele>8.962</ele>
<time>2018-01-24T03:01:56.531Z</time>
</trkpt>
<trkpt lat="-28.4419945" lon="153.4868772">
<ele>9.048</ele>
<time>2018-01-24T03:01:58.838Z</time>
</trkpt>
<trkpt lat="-28.4419880" lon="153.4865129">
<ele>8.928</ele>
<time>2018-01-24T03:02:00.991Z</time>
</trkpt>
<trkpt lat="-28.4419723" lon="153.4861682">
<ele>8.999</ele>
<time>2018-01-24T03:02:02.953Z</time>
</trkpt>
<trkpt lat="-28.4419365" lon="153.4858359">
<ele>9.452</ele>
<time>2018-01-24T03:02:04.783Z</time>
</trkpt>
<trkpt lat="-28.4418755" lon="153.4855013">
<ele>10.213</ele>
<time>2018-01-24T03:02:06.636Z</time>
</trkpt>
<trkpt lat="-28.4418286" lon="153.4851196">
<ele>11.126</ele>
<time>2018-01-24T03:02:08.742Z</time>
</trkpt>
<trkpt lat="-28.4417689" lon="153.4847420">
<ele>12.008</ele>
<time>2018-01-24T03:02:10.862Z</time>
</trkpt>
<trkpt lat="-28.4416853" lon="153.4843986">
<ele>12.621</ele>
<time>2018-01-24T03:02:12.826Z</time>
</trkpt>
<trkpt lat="-28.4415635" lon="153.4840804">
<ele>12.878</ele>
<time>2018-01-24T03:02:14.715Z</time>
</trkpt>
<trkpt lat="-28.4414689" lon="153.4837341">
<ele>12.946</ele>
<time>2018-01-24T03:02:16.672Z</time>
</trkpt>
<trkpt lat="-28.4414541" lon="153.4833055">
<ele>13.082</ele>
<time>2018-01-24T03:02:18.992Z</time>
</trkpt>
<trkpt lat="-28.4415818" lon="153.4829251">
<ele>13.427</ele>
<time>2018-01-24T03:02:21.203Z</time>
</trkpt>
<trkpt lat="-28.4418018" lon="153.4826143">
<ele>13.886</ele>
<time>2018-01-24T03:02:23.332Z</time>
</trkpt>
<trkpt lat="-28.4421212" lon="153.4824101">
<ele>14.188</ele>
<time>2018-01-24T03:02:25.486Z</time>
</trkpt>
<trkpt lat="-28.4424431" lon="153.4822477">
<ele>14.083</ele>
<time>2018-01-24T03:02:27.534Z</time>
</trkpt>
<trkpt lat="-28.4427317" lon="153.4820070">
<ele>13.557</ele>
<time>2018-01-24T03:02:29.596Z</time>
</trkpt>
<trkpt lat="-28.4429252" lon="153.4816706">
<ele>12.917</ele>
<time>2018-01-24T03:02:31.593Z</time>
</trkpt>
<trkpt lat="-28.4430268" lon="153.4812745">
<ele>12.560</ele>
<time>2018-01-24T03:02:33.625Z</time>
</trkpt>
<trkpt lat="-28.4430722" lon="153.4808870">
<ele>12.694</ele>
<time>2018-01-24T03:02:35.561Z</time>
</trkpt>
<trkpt lat="-28.4430865" lon="153.4805044">
<ele>13.346</ele>
<time>2018-01-24T03:02:37.487Z</time>
</trkpt>
<trkpt lat="-28.4430525" lon="153.4801072">
<ele>14.255</ele>
<time>2018-01-24T03:02:39.529Z</time>
</trkpt>
<trkpt lat="-28.4429386" lon="153.4797570">
<ele>14.962</ele>
<time>2018-01-24T03:02:41.460Z</time>
</trkpt>
<trkpt lat="-28.4427787" lon="153.4794234">
<ele>15.156</ele>
<time>2018-01-24T03:02:43.429Z</time>
</trkpt>
<trkpt lat="-28.4425543" lon="153.4791194">
<ele>14.900</ele>
<time>2018-01-24T03:02:45.490Z</time>
</trkpt>
<trkpt lat="-28.4423107" lon="153.4788569">
<ele>14.530</ele>
<time>2018-01-24T03:02:47.484Z</time>
</trkpt>
<trkpt lat="-28.4420891" lon="153.4785962">
<ele>14.443</ele>
<time>2018-01-24T03:02:49.385Z</time>
</trkpt>
<trkpt lat="-28.4418515" lon="153.4783296">
<ele>14.816</ele>
<time>2018-01-24T03:02:51.370Z</time>
</trkpt>
<trkpt lat="-28.4416154" lon="153.4780549">
<ele>15.422</ele>
<time>2018-01-24T03:02:53.376Z</time>
</trkpt>
<trkpt lat="-28.4414042" lon="153.4777835">
<ele>15.846</ele>
<time>2018-01-24T03:02:55.273Z</time>
</trkpt>
<trkpt lat="-28.4411425" lon="153.4776298">
<ele>15.876</ele>
<time>2018-01-24T03:02:57.027Z</time>
</trkpt>
<trkpt lat="-28.4408413" lon="153.4775382">
<ele>15.373</ele>
<time>2018-01-24T03:02:58.889Z</time>
</trkpt>
<trkpt lat="-28.4405474" lon="153.4775140">
<ele>14.434</ele>
<time>2018-01-24T03:03:00.678Z</time>
</trkpt>
<trkpt lat="-28.4402382" lon="153.4775508">
<ele>13.412</ele>
<time>2018-01-24T03:03:02.633Z</time>
</trkpt>
<trkpt lat="-28.4399889" lon="153.4775506">
<ele>12.458</ele>
<time>2018-01-24T03:03:04.256Z</time>
</trkpt>
<trkpt lat="-28.4397369" lon="153.4775450">
<ele>11.644</ele>
<time>2018-01-24T03:03:05.937Z</time>
</trkpt>
<trkpt lat="-28.4394861" lon="153.4775328">
<ele>11.262</ele>
<time>2018-01-24T03:03:07.644Z</time>
</trkpt>
<trkpt lat="-28.4392156" lon="153.4775719">
<ele>11.358</ele>
<time>2018-01-24T03:03:09.532Z</time>
</trkpt>
<trkpt lat="-28.4389341" lon="153.4776028">
<ele>11.520</ele>
<time>2018-01-24T03:03:11.515Z</time>
</trkpt>
<trkpt lat="-28.4386816" lon="153.4776149">
<ele>11.373</ele>
<time>2018-01-24T03:03:13.306Z</time>
</trkpt>
<trkpt lat="-28.4384121" lon="153.4775416">
<ele>11.009</ele>
<time>2018-01-24T03:03:15.293Z</time>
</trkpt>
<trkpt lat="-28.4381622" lon="153.4774432">
<ele>10.674</ele>
<time>2018-01-24T03:03:17.205Z</time>
</trkpt>
<trkpt lat="-28.4379087" lon="153.4772320">
<ele>10.345</ele>
<time>2018-01-24T03:03:19.503Z</time>
</trkpt>
<trkpt lat="-28.4376369" lon="153.4770131">
<ele>9.815</ele>
<time>2018-01-24T03:03:21.962Z</time>
</trkpt>
<trkpt lat="-28.4373950" lon="153.4767689">
<ele>9.096</ele>
<time>2018-01-24T03:03:24.303Z</time>
</trkpt>
<trkpt lat="-28.4371531" lon="153.4765369">
<ele>8.480</ele>
<time>2018-01-24T03:03:26.517Z</time>
</trkpt>
<trkpt lat="-28.4369289" lon="153.4763541">
<ele>8.177</ele>
<time>2018-01-24T03:03:28.382Z</time>
</trkpt>
<trkpt lat="-28.4366822" lon="153.4761570">
<ele>8.106</ele>
<time>2018-01-24T03:03:30.375Z</time>
</trkpt>
<trkpt lat="-28.4364361" lon="153.4759352">
<ele>8.032</ele>
<time>2018-01-24T03:03:32.445Z</time>
</trkpt>
<trkpt lat="-28.4361964" lon="153.4757167">
<ele>7.841</ele>
<time>2018-01-24T03:03:34.480Z</time>
</trkpt>
<trkpt lat="-28.4359764" lon="153.4754585">
<ele>7.808</ele>
<time>2018-01-24T03:03:36.577Z</time>
</trkpt>
<trkpt lat="-28.4357857" lon="153.4751657">
<ele>8.338</ele>
<time>2018-01-24T03:03:38.686Z</time>
</trkpt>
<trkpt lat="-28.4356536" lon="153.4748379">
<ele>9.515</ele>
<time>2018-01-24T03:03:40.730Z</time>
</trkpt>
<trkpt lat="-28.4355210" lon="153.4745465">
<ele>11.093</ele>
<time>2018-01-24T03:03:42.546Z</time>
</trkpt>
<trkpt lat="-28.4353857" lon="153.4742649">
<ele>12.750</ele>
<time>2018-01-24T03:03:44.286Z</time>
</trkpt>
<trkpt lat="-28.4352486" lon="153.4739190">
<ele>14.121</ele>
<time>2018-01-24T03:03:46.321Z</time>
</trkpt>
<trkpt lat="-28.4350849" lon="153.4736179">
<ele>14.900</ele>
<time>2018-01-24T03:03:48.276Z</time>
</trkpt>
<trkpt lat="-28.4349395" lon="153.4733091">
<ele>15.097</ele>
<time>2018-01-24T03:03:50.290Z</time>
</trkpt>
<trkpt lat="-28.4348013" lon="153.4730524">
<ele>15.001</ele>
<time>2018-01-24T03:03:52.019Z</time>
</trkpt>
<trkpt lat="-28.4346321" lon="153.4728166">
<ele>14.889</ele>
<time>2018-01-24T03:03:53.729Z</time>
</trkpt>
<trkpt lat="-28.4344170" lon="153.4726254">
<ele>14.963</ele>
<time>2018-01-24T03:03:55.483Z</time>
</trkpt>
<trkpt lat="-28.4341875" lon="153.4725098">
<ele>15.255</ele>
<time>2018-01-24T03:03:57.144Z</time>
</trkpt>
<trkpt lat="-28.4338490" lon="153.4722931">
<ele>15.719</ele>
<time>2018-01-24T03:03:59.864Z</time>
</trkpt>
<trkpt lat="-28.4334969" lon="153.4720471">
<ele>16.420</ele>
<time>2018-01-24T03:04:02.983Z</time>
</trkpt>
<trkpt lat="-28.4330656" lon="153.4719272">
<ele>17.289</ele>
<time>2018-01-24T03:04:06.342Z</time>
</trkpt>
<trkpt lat="-28.4326110" lon="153.4718022">
<ele>17.973</ele>
<time>2018-01-24T03:04:09.716Z</time>
</trkpt>
<trkpt lat="-28.4321678" lon="153.4716101">
<ele>18.314</ele>
<time>2018-01-24T03:04:13.005Z</time>
</trkpt>
<trkpt lat="-28.4317337" lon="153.4714547">
<ele>18.492</ele>
<time>2018-01-24T03:04:16.021Z</time>
</trkpt>
<trkpt lat="-28.4313142" lon="153.4712838">
<ele>18.689</ele>
<time>2018-01-24T03:04:18.833Z</time>
</trkpt>
<trkpt lat="-28.4309154" lon="153.4709933">
<ele>19.014</ele>
<time>2018-01-24T03:04:21.823Z</time>
</trkpt>
<trkpt lat="-28.4305236" lon="153.4706624">
<ele>19.454</ele>
<time>2018-01-24T03:04:25.013Z</time>
</trkpt>
<trkpt lat="-28.4300533" lon="153.4704933">
<ele>19.901</ele>
<time>2018-01-24T03:04:28.233Z</time>
</trkpt>
<trkpt lat="-28.4295980" lon="153.4703820">
<ele>20.241</ele>
<time>2018-01-24T03:04:31.114Z</time>
</trkpt>
<trkpt lat="-28.4291496" lon="153.4702705">
<ele>20.397</ele>
<time>2018-01-24T03:04:33.882Z</time>
</trkpt>
<trkpt lat="-28.4287353" lon="153.4700596">
<ele>20.287</ele>
<time>2018-01-24T03:04:36.640Z</time>
</trkpt>
<trkpt lat="-28.4284152" lon="153.4696375">
<ele>19.581</ele>
<time>2018-01-24T03:04:39.639Z</time>
</trkpt>
<trkpt lat="-28.4282791" lon="153.4690687">
<ele>18.260</ele>
<time>2018-01-24T03:04:42.906Z</time>
</trkpt>
<trkpt lat="-28.4281956" lon="153.4686684">
<ele>16.701</ele>
<time>2018-01-24T03:04:45.177Z</time>
</trkpt>
<trkpt lat="-28.4281204" lon="153.4682255">
<ele>14.784</ele>
<time>2018-01-24T03:04:47.594Z</time>
</trkpt>
<trkpt lat="-28.4280364" lon="153.4677769">
<ele>12.147</ele>
<time>2018-01-24T03:04:49.978Z</time>
</trkpt>
<trkpt lat="-28.4280008" lon="153.4673515">
<ele>9.392</ele>
<time>2018-01-24T03:04:52.061Z</time>
</trkpt>
<trkpt lat="-28.4279484" lon="153.4669332">
<ele>7.651</ele>
<time>2018-01-24T03:04:53.963Z</time>
</trkpt>
<trkpt lat="-28.4278830" lon="153.4665224">
<ele>7.273</ele>
<time>2018-01-24T03:04:55.768Z</time>
</trkpt>
<trkpt lat="-28.4277076" lon="153.4661947">
<ele>7.615</ele>
<time>2018-01-24T03:04:57.440Z</time>
</trkpt>
<trkpt lat="-28.4274763" lon="153.4658442">
<ele>7.928</ele>
<time>2018-01-24T03:04:59.428Z</time>
</trkpt>
<trkpt lat="-28.4272021" lon="153.4655145">
<ele>7.836</ele>
<time>2018-01-24T03:05:01.575Z</time>
</trkpt>
<trkpt lat="-28.4269318" lon="153.4652041">
<ele>7.465</ele>
<time>2018-01-24T03:05:03.673Z</time>
</trkpt>
<trkpt lat="-28.4266954" lon="153.4648767">
<ele>7.233</ele>
<time>2018-01-24T03:05:05.677Z</time>
</trkpt>
<trkpt lat="-28.4265712" lon="153.4644299">
<ele>7.475</ele>
<time>2018-01-24T03:05:07.849Z</time>
</trkpt>
<trkpt lat="-28.4265937" lon="153.4639094">
<ele>8.212</ele>
<time>2018-01-24T03:05:10.256Z</time>
</trkpt>
<trkpt lat="-28.4266084" lon="153.4633944">
<ele>9.274</ele>
<time>2018-01-24T03:05:12.608Z</time>
</trkpt>
<trkpt lat="-28.4266307" lon="153.4628909">
<ele>10.612</ele>
<time>2018-01-24T03:05:14.775Z</time>
</trkpt>
<trkpt lat="-28.4266675" lon="153.4624003">
<ele>12.092</ele>
<time>2018-01-24T03:05:16.759Z</time>
</trkpt>
<trkpt lat="-28.4267049" lon="153.4619152">
<ele>13.313</ele>
<time>2018-01-24T03:05:18.668Z</time>
</trkpt>
<trkpt lat="-28.4267063" lon="153.4614466">
<ele>14.177</ele>
<time>2018-01-24T03:05:20.498Z</time>
</trkpt>
<trkpt lat="-28.4267220" lon="153.4609865">
<ele>15.144</ele>
<time>2018-01-24T03:05:22.307Z</time>
</trkpt>
<trkpt lat="-28.4266821" lon="153.4605148">
<ele>16.534</ele>
<time>2018-01-24T03:05:24.199Z</time>
</trkpt>
<trkpt lat="-28.4265541" lon="153.4600969">
<ele>18.075</ele>
<time>2018-01-24T03:05:26.001Z</time>
</trkpt>
<trkpt lat="-28.4263581" lon="153.4597028">
<ele>19.483</ele>
<time>2018-01-24T03:05:27.873Z</time>
</trkpt>
<trkpt lat="-28.4261004" lon="153.4593054">
<ele>20.912</ele>
<time>2018-01-24T03:05:29.934Z</time>
</trkpt>
<trkpt lat="-28.4258120" lon="153.4589275">
<ele>22.529</ele>
<time>2018-01-24T03:05:32.034Z</time>
</trkpt>
<trkpt lat="-28.4254714" lon="153.4586171">
<ele>24.335</ele>
<time>2018-01-24T03:05:34.106Z</time>
</trkpt>
<trkpt lat="-28.4250944" lon="153.4584269">
<ele>26.154</ele>
<time>2018-01-24T03:05:36.046Z</time>
</trkpt>
<trkpt lat="-28.4246942" lon="153.4582691">
<ele>27.600</ele>
<time>2018-01-24T03:05:38.026Z</time>
</trkpt>
<trkpt lat="-28.4242740" lon="153.4581669">
<ele>28.431</ele>
<time>2018-01-24T03:05:40.031Z</time>
</trkpt>
<trkpt lat="-28.4238748" lon="153.4580602">
<ele>28.732</ele>
<time>2018-01-24T03:05:41.953Z</time>
</trkpt>
<trkpt lat="-28.4234897" lon="153.4579364">
<ele>28.748</ele>
<time>2018-01-24T03:05:43.830Z</time>
</trkpt>
<trkpt lat="-28.4231077" lon="153.4577717">
<ele>28.825</ele>
<time>2018-01-24T03:05:45.723Z</time>
</trkpt>
<trkpt lat="-28.4227146" lon="153.4576976">
<ele>29.201</ele>
<time>2018-01-24T03:05:47.549Z</time>
</trkpt>
<trkpt lat="-28.4223518" lon="153.4575936">
<ele>29.962</ele>
<time>2018-01-24T03:05:49.270Z</time>
</trkpt>
<trkpt lat="-28.4219724" lon="153.4574596">
<ele>31.116</ele>
<time>2018-01-24T03:05:51.131Z</time>
</trkpt>
<trkpt lat="-28.4216359" lon="153.4572687">
<ele>32.537</ele>
<time>2018-01-24T03:05:52.952Z</time>
</trkpt>
<trkpt lat="-28.4212994" lon="153.4570284">
<ele>34.001</ele>
<time>2018-01-24T03:05:54.959Z</time>
</trkpt>
<trkpt lat="-28.4209918" lon="153.4568305">
<ele>35.508</ele>
<time>2018-01-24T03:05:56.788Z</time>
</trkpt>
<trkpt lat="-28.4205995" lon="153.4567595">
<ele>37.336</ele>
<time>2018-01-24T03:05:58.867Z</time>
</trkpt>
<trkpt lat="-28.4202017" lon="153.4567389">
<ele>39.826</ele>
<time>2018-01-24T03:06:00.974Z</time>
</trkpt>
<trkpt lat="-28.4198330" lon="153.4567457">
<ele>43.134</ele>
<time>2018-01-24T03:06:02.917Z</time>
</trkpt>
<trkpt lat="-28.4195034" lon="153.4567087">
<ele>47.052</ele>
<time>2018-01-24T03:06:04.615Z</time>
</trkpt>
<trkpt lat="-28.4191495" lon="153.4565871">
<ele>50.990</ele>
<time>2018-01-24T03:06:06.455Z</time>
</trkpt>
<trkpt lat="-28.4188643" lon="153.4562586">
<ele>54.350</ele>
<time>2018-01-24T03:06:08.482Z</time>
</trkpt>
<trkpt lat="-28.4186046" lon="153.4559236">
<ele>56.841</ele>
<time>2018-01-24T03:06:10.536Z</time>
</trkpt>
<trkpt lat="-28.4183569" lon="153.4556025">
<ele>58.569</ele>
<time>2018-01-24T03:06:12.593Z</time>
</trkpt>
<trkpt lat="-28.4181069" lon="153.4552902">
<ele>60.044</ele>
<time>2018-01-24T03:06:14.631Z</time>
</trkpt>
<trkpt lat="-28.4178227" lon="153.4551185">
<ele>61.886</ele>
<time>2018-01-24T03:06:16.337Z</time>
</trkpt>
<trkpt lat="-28.4174818" lon="153.4551747">
<ele>64.205</ele>
<time>2018-01-24T03:06:18.125Z</time>
</trkpt>
<trkpt lat="-28.4171439" lon="153.4553363">
<ele>66.590</ele>
<time>2018-01-24T03:06:20.038Z</time>
</trkpt>
<trkpt lat="-28.4168254" lon="153.4554563">
<ele>68.582</ele>
<time>2018-01-24T03:06:21.864Z</time>
</trkpt>
<trkpt lat="-28.4165073" lon="153.4554789">
<ele>69.985</ele>
<time>2018-01-24T03:06:23.707Z</time>
</trkpt>
<trkpt lat="-28.4162295" lon="153.4552923">
<ele>70.992</ele>
<time>2018-01-24T03:06:25.645Z</time>
</trkpt>
<trkpt lat="-28.4160408" lon="153.4549970">
<ele>71.973</ele>
<time>2018-01-24T03:06:27.560Z</time>
</trkpt>
<trkpt lat="-28.4159924" lon="153.4546129">
<ele>73.216</ele>
<time>2018-01-24T03:06:29.577Z</time>
</trkpt>
<trkpt lat="-28.4160937" lon="153.4542207">
<ele>74.889</ele>
<time>2018-01-24T03:06:31.756Z</time>
</trkpt>
<trkpt lat="-28.4161884" lon="153.4538530">
<ele>77.040</ele>
<time>2018-01-24T03:06:33.901Z</time>
</trkpt>
<trkpt lat="-28.4161553" lon="153.4535431">
<ele>79.626</ele>
<time>2018-01-24T03:06:35.661Z</time>
</trkpt>
<trkpt lat="-28.4159619" lon="153.4531958">
<ele>82.303</ele>
<time>2018-01-24T03:06:37.878Z</time>
</trkpt>
<trkpt lat="-28.4157460" lon="153.4528669">
<ele>84.362</ele>
<time>2018-01-24T03:06:40.002Z</time>
</trkpt>
<trkpt lat="-28.4155243" lon="153.4525724">
<ele>85.466</ele>
<time>2018-01-24T03:06:42.069Z</time>
</trkpt>
<trkpt lat="-28.4152919" lon="153.4522517">
<ele>86.254</ele>
<time>2018-01-24T03:06:44.417Z</time>
</trkpt>
<trkpt lat="-28.4149538" lon="153.4521495">
<ele>87.597</ele>
<time>2018-01-24T03:06:46.574Z</time>
</trkpt>
<trkpt lat="-28.4145489" lon="153.4521484">
<ele>89.661</ele>
<time>2018-01-24T03:06:48.940Z</time>
</trkpt>
<trkpt lat="-28.4141736" lon="153.4520027">
<ele>92.076</ele>
<time>2018-01-24T03:06:51.239Z</time>
</trkpt>
<trkpt lat="-28.4138006" lon="153.4518625">
<ele>94.618</ele>
<time>2018-01-24T03:06:53.477Z</time>
</trkpt>
<trkpt lat="-28.4134413" lon="153.4517921">
<ele>97.315</ele>
<time>2018-01-24T03:06:55.449Z</time>
</trkpt>
<trkpt lat="-28.4130650" lon="153.4517064">
<ele>100.293</ele>
<time>2018-01-24T03:06:57.435Z</time>
</trkpt>
<trkpt lat="-28.4127383" lon="153.4514522">
<ele>103.521</ele>
<time>2018-01-24T03:06:59.465Z</time>
</trkpt>
<trkpt lat="-28.4124972" lon="153.4510680">
<ele>106.818</ele>
<time>2018-01-24T03:07:01.629Z</time>
</trkpt>
<trkpt lat="-28.4121919" lon="153.4507319">
<ele>110.059</ele>
<time>2018-01-24T03:07:03.869Z</time>
</trkpt>
<trkpt lat="-28.4118160" lon="153.4505155">
<ele>113.369</ele>
<time>2018-01-24T03:07:06.036Z</time>
</trkpt>
<trkpt lat="-28.4113537" lon="153.4504365">
<ele>117.132</ele>
<time>2018-01-24T03:07:08.337Z</time>
</trkpt>
<trkpt lat="-28.4109480" lon="153.4503079">
<ele>121.323</ele>
<time>2018-01-24T03:07:10.358Z</time>
</trkpt>
<trkpt lat="-28.4105601" lon="153.4501792">
<ele>125.158</ele>
<time>2018-01-24T03:07:12.253Z</time>
</trkpt>
<trkpt lat="-28.4101639" lon="153.4500609">
<ele>128.164</ele>
<time>2018-01-24T03:07:14.128Z</time>
</trkpt>
<trkpt lat="-28.4098264" lon="153.4499158">
<ele>130.829</ele>
<time>2018-01-24T03:07:15.789Z</time>
</trkpt>
<trkpt lat="-28.4094957" lon="153.4497574">
<ele>133.780</ele>
<time>2018-01-24T03:07:17.494Z</time>
</trkpt>
<trkpt lat="-28.4092089" lon="153.4495757">
<ele>137.144</ele>
<time>2018-01-24T03:07:19.113Z</time>
</trkpt>
<trkpt lat="-28.4089045" lon="153.4494219">
<ele>140.640</ele>
<time>2018-01-24T03:07:20.808Z</time>
</trkpt>
<trkpt lat="-28.4085712" lon="153.4493104">
<ele>143.778</ele>
<time>2018-01-24T03:07:22.629Z</time>
</trkpt>
<trkpt lat="-28.4081729" lon="153.4494044">
<ele>146.275</ele>
<time>2018-01-24T03:07:24.839Z</time>
</trkpt>
<trkpt lat="-28.4077960" lon="153.4494726">
<ele>148.276</ele>
<time>2018-01-24T03:07:26.997Z</time>
</trkpt>
<trkpt lat="-28.4074481" lon="153.4494979">
<ele>149.969</ele>
<time>2018-01-24T03:07:28.963Z</time>
</trkpt>
<trkpt lat="-28.4071315" lon="153.4492982">
<ele>151.244</ele>
<time>2018-01-24T03:07:30.941Z</time>
</trkpt>
<trkpt lat="-28.4068766" lon="153.4489919">
<ele>151.764</ele>
<time>2018-01-24T03:07:32.935Z</time>
</trkpt>
<trkpt lat="-28.4066470" lon="153.4486894">
<ele>151.342</ele>
<time>2018-01-24T03:07:34.854Z</time>
</trkpt>
<trkpt lat="-28.4064269" lon="153.4483680">
<ele>150.253</ele>
<time>2018-01-24T03:07:36.860Z</time>
</trkpt>
<trkpt lat="-28.4063168" lon="153.4476836">
<ele>148.932</ele>
<time>2018-01-24T03:07:40.272Z</time>
</trkpt>
<trkpt lat="-28.4063055" lon="153.4469757">
<ele>147.539</ele>
<time>2018-01-24T03:07:43.678Z</time>
</trkpt>
<trkpt lat="-28.4062544" lon="153.4462954">
<ele>146.046</ele>
<time>2018-01-24T03:07:46.775Z</time>
</trkpt>
<trkpt lat="-28.4062827" lon="153.4455912">
<ele>144.392</ele>
<time>2018-01-24T03:07:49.826Z</time>
</trkpt>
<trkpt lat="-28.4063272" lon="153.4449935">
<ele>142.169</ele>
<time>2018-01-24T03:07:52.414Z</time>
</trkpt>
<trkpt lat="-28.4060267" lon="153.4444669">
<ele>139.052</ele>
<time>2018-01-24T03:07:55.139Z</time>
</trkpt>
<trkpt lat="-28.4055390" lon="153.4439766">
<ele>135.299</ele>
<time>2018-01-24T03:07:58.470Z</time>
</trkpt>
<trkpt lat="-28.4051310" lon="153.4434691">
<ele>131.292</ele>
<time>2018-01-24T03:08:01.663Z</time>
</trkpt>
<trkpt lat="-28.4047247" lon="153.4429818">
<ele>127.159</ele>
<time>2018-01-24T03:08:04.655Z</time>
</trkpt>
<trkpt lat="-28.4045919" lon="153.4423619">
<ele>122.869</ele>
<time>2018-01-24T03:08:07.417Z</time>
</trkpt>
<trkpt lat="-28.4045699" lon="153.4417814">
<ele>118.232</ele>
<time>2018-01-24T03:08:09.988Z</time>
</trkpt>
<trkpt lat="-28.4044797" lon="153.4412426">
<ele>113.062</ele>
<time>2018-01-24T03:08:12.524Z</time>
</trkpt>
<trkpt lat="-28.4040260" lon="153.4410006">
<ele>107.482</ele>
<time>2018-01-24T03:08:15.253Z</time>
</trkpt>
<trkpt lat="-28.4034881" lon="153.4411876">
<ele>102.151</ele>
<time>2018-01-24T03:08:18.451Z</time>
</trkpt>
<trkpt lat="-28.4031545" lon="153.4412399">
<ele>98.027</ele>
<time>2018-01-24T03:08:20.537Z</time>
</trkpt>
<trkpt lat="-28.4028443" lon="153.4412851">
<ele>95.580</ele>
<time>2018-01-24T03:08:22.535Z</time>
</trkpt>
<trkpt lat="-28.4025234" lon="153.4412068">
<ele>94.245</ele>
<time>2018-01-24T03:08:24.646Z</time>
</trkpt>
<trkpt lat="-28.4022848" lon="153.4408832">
<ele>93.124</ele>
<time>2018-01-24T03:08:26.885Z</time>
</trkpt>
<trkpt lat="-28.4020495" lon="153.4405187">
<ele>91.835</ele>
<time>2018-01-24T03:08:29.238Z</time>
</trkpt>
<trkpt lat="-28.4018335" lon="153.4401494">
<ele>90.321</ele>
<time>2018-01-24T03:08:31.547Z</time>
</trkpt>
<trkpt lat="-28.4016685" lon="153.4397237">
<ele>88.545</ele>
<time>2018-01-24T03:08:33.855Z</time>
</trkpt>
<trkpt lat="-28.4015216" lon="153.4393512">
<ele>86.612</ele>
<time>2018-01-24T03:08:35.795Z</time>
</trkpt>
<trkpt lat="-28.4013640" lon="153.4390233">
<ele>84.774</ele>
<time>2018-01-24T03:08:37.532Z</time>
</trkpt>
<trkpt lat="-28.4012191" lon="153.4387197">
<ele>83.196</ele>
<time>2018-01-24T03:08:39.105Z</time>
</trkpt>
<trkpt lat="-28.4010696" lon="153.4383736">
<ele>81.962</ele>
<time>2018-01-24T03:08:40.857Z</time>
</trkpt>
<trkpt lat="-28.4010091" lon="153.4379741">
<ele>81.152</ele>
<time>2018-01-24T03:08:42.807Z</time>
</trkpt>
<trkpt lat="-28.4010432" lon="153.4375362">
<ele>80.581</ele>
<time>2018-01-24T03:08:45.061Z</time>
</trkpt>
<trkpt lat="-28.4010575" lon="153.4371605">
<ele>79.877</ele>
<time>2018-01-24T03:08:47.036Z</time>
</trkpt>
<trkpt lat="-28.4010136" lon="153.4367909">
<ele>78.881</ele>
<time>2018-01-24T03:08:48.956Z</time>
</trkpt>
<trkpt lat="-28.4009698" lon="153.4363778">
<ele>77.788</ele>
<time>2018-01-24T03:08:51.035Z</time>
</trkpt>
<trkpt lat="-28.4009051" lon="153.4360021">
<ele>76.885</ele>
<time>2018-01-24T03:08:52.930Z</time>
</trkpt>
<trkpt lat="-28.4008231" lon="153.4356235">
<ele>76.281</ele>
<time>2018-01-24T03:08:54.878Z</time>
</trkpt>
<trkpt lat="-28.4006849" lon="153.4352554">
<ele>75.923</ele>
<time>2018-01-24T03:08:56.893Z</time>
</trkpt>
<trkpt lat="-28.4004024" lon="153.4349512">
<ele>75.779</ele>
<time>2018-01-24T03:08:59.104Z</time>
</trkpt>
<trkpt lat="-28.4000853" lon="153.4347189">
<ele>75.786</ele>
<time>2018-01-24T03:09:01.225Z</time>
</trkpt>
<trkpt lat="-28.3997460" lon="153.4345371">
<ele>75.859</ele>
<time>2018-01-24T03:09:03.328Z</time>
</trkpt>
<trkpt lat="-28.3993858" lon="153.4343894">
<ele>75.912</ele>
<time>2018-01-24T03:09:05.466Z</time>
</trkpt>
<trkpt lat="-28.3990816" lon="153.4341789">
<ele>75.688</ele>
<time>2018-01-24T03:09:07.411Z</time>
</trkpt>
<trkpt lat="-28.3988234" lon="153.4338714">
<ele>74.874</ele>
<time>2018-01-24T03:09:09.413Z</time>
</trkpt>
<trkpt lat="-28.3985411" lon="153.4336210">
<ele>73.458</ele>
<time>2018-01-24T03:09:11.342Z</time>
</trkpt>
<trkpt lat="-28.3982429" lon="153.4334215">
<ele>71.717</ele>
<time>2018-01-24T03:09:13.225Z</time>
</trkpt>
<trkpt lat="-28.3979240" lon="153.4333169">
<ele>69.929</ele>
<time>2018-01-24T03:09:15.029Z</time>
</trkpt>
<trkpt lat="-28.3976162" lon="153.4331608">
<ele>68.255</ele>
<time>2018-01-24T03:09:16.849Z</time>
</trkpt>
<trkpt lat="-28.3973501" lon="153.4329182">
<ele>66.700</ele>
<time>2018-01-24T03:09:18.721Z</time>
</trkpt>
<trkpt lat="-28.3972174" lon="153.4325040">
<ele>65.126</ele>
<time>2018-01-24T03:09:20.894Z</time>
</trkpt>
<trkpt lat="-28.3972272" lon="153.4320438">
<ele>63.403</ele>
<time>2018-01-24T03:09:23.227Z</time>
</trkpt>
<trkpt lat="-28.3972765" lon="153.4316371">
<ele>61.601</ele>
<time>2018-01-24T03:09:25.344Z</time>
</trkpt>
<trkpt lat="-28.3972929" lon="153.4312519">
<ele>59.992</ele>
<time>2018-01-24T03:09:27.285Z</time>
</trkpt>
<trkpt lat="-28.3972472" lon="153.4308867">
<ele>58.786</ele>
<time>2018-01-24T03:09:29.083Z</time>
</trkpt>
<trkpt lat="-28.3970999" lon="153.4305297">
<ele>57.851</ele>
<time>2018-01-24T03:09:30.997Z</time>
</trkpt>
<trkpt lat="-28.3968443" lon="153.4302321">
<ele>56.765</ele>
<time>2018-01-24T03:09:33.086Z</time>
</trkpt>
<trkpt lat="-28.3965996" lon="153.4299618">
<ele>55.074</ele>
<time>2018-01-24T03:09:35.133Z</time>
</trkpt>
<trkpt lat="-28.3963952" lon="153.4296868">
<ele>52.650</ele>
<time>2018-01-24T03:09:37.101Z</time>
</trkpt>
<trkpt lat="-28.3963546" lon="153.4292862">
<ele>49.885</ele>
<time>2018-01-24T03:09:39.309Z</time>
</trkpt>
<trkpt lat="-28.3964678" lon="153.4288891">
<ele>47.234</ele>
<time>2018-01-24T03:09:41.548Z</time>
</trkpt>
<trkpt lat="-28.3966252" lon="153.4285253">
<ele>44.862</ele>
<time>2018-01-24T03:09:43.720Z</time>
</trkpt>
<trkpt lat="-28.3966471" lon="153.4281330">
<ele>42.944</ele>
<time>2018-01-24T03:09:45.836Z</time>
</trkpt>
<trkpt lat="-28.3965514" lon="153.4277453">
<ele>41.639</ele>
<time>2018-01-24T03:09:47.960Z</time>
</trkpt>
<trkpt lat="-28.3964501" lon="153.4273826">
<ele>40.680</ele>
<time>2018-01-24T03:09:49.923Z</time>
</trkpt>
<trkpt lat="-28.3963777" lon="153.4270140">
<ele>39.567</ele>
<time>2018-01-24T03:09:51.855Z</time>
</trkpt>
<trkpt lat="-28.3963239" lon="153.4265975">
<ele>38.070</ele>
<time>2018-01-24T03:09:53.991Z</time>
</trkpt>
<trkpt lat="-28.3962940" lon="153.4261726">
<ele>36.338</ele>
<time>2018-01-24T03:09:56.138Z</time>
</trkpt>
<trkpt lat="-28.3963398" lon="153.4258019">
<ele>34.750</ele>
<time>2018-01-24T03:09:57.994Z</time>
</trkpt>
<trkpt lat="-28.3963800" lon="153.4254233">
<ele>33.586</ele>
<time>2018-01-24T03:09:59.830Z</time>
</trkpt>
<trkpt lat="-28.3963553" lon="153.4250249">
<ele>32.845</ele>
<time>2018-01-24T03:10:01.730Z</time>
</trkpt>
<trkpt lat="-28.3962927" lon="153.4246183">
<ele>32.315</ele>
<time>2018-01-24T03:10:03.746Z</time>
</trkpt>
<trkpt lat="-28.3961191" lon="153.4242560">
<ele>31.670</ele>
<time>2018-01-24T03:10:05.822Z</time>
</trkpt>
<trkpt lat="-28.3958682" lon="153.4239734">
<ele>30.552</ele>
<time>2018-01-24T03:10:07.840Z</time>
</trkpt>
<trkpt lat="-28.3955464" lon="153.4237071">
<ele>28.868</ele>
<time>2018-01-24T03:10:10.055Z</time>
</trkpt>
<trkpt lat="-28.3952082" lon="153.4235110">
<ele>26.889</ele>
<time>2018-01-24T03:10:12.127Z</time>
</trkpt>
<trkpt lat="-28.3948190" lon="153.4233957">
<ele>25.033</ele>
<time>2018-01-24T03:10:14.305Z</time>
</trkpt>
<trkpt lat="-28.3943970" lon="153.4233592">
<ele>23.695</ele>
<time>2018-01-24T03:10:16.513Z</time>
</trkpt>
<trkpt lat="-28.3939700" lon="153.4232900">
<ele>23.060</ele>
<time>2018-01-24T03:10:18.669Z</time>
</trkpt>
<trkpt lat="-28.3935583" lon="153.4232610">
<ele>23.096</ele>
<time>2018-01-24T03:10:20.649Z</time>
</trkpt>
<trkpt lat="-28.3931849" lon="153.4232046">
<ele>23.979</ele>
<time>2018-01-24T03:10:22.394Z</time>
</trkpt>
<trkpt lat="-28.3928372" lon="153.4231853">
<ele>25.866</ele>
<time>2018-01-24T03:10:23.989Z</time>
</trkpt>
<trkpt lat="-28.3924955" lon="153.4231922">
<ele>28.413</ele>
<time>2018-01-24T03:10:25.579Z</time>
</trkpt>
<trkpt lat="-28.3921507" lon="153.4232260">
<ele>30.933</ele>
<time>2018-01-24T03:10:27.262Z</time>
</trkpt>
<trkpt lat="-28.3918225" lon="153.4232206">
<ele>32.928</ele>
<time>2018-01-24T03:10:28.964Z</time>
</trkpt>
<trkpt lat="-28.3915031" lon="153.4231010">
<ele>34.533</ele>
<time>2018-01-24T03:10:30.810Z</time>
</trkpt>
<trkpt lat="-28.3911712" lon="153.4229050">
<ele>36.196</ele>
<time>2018-01-24T03:10:32.921Z</time>
</trkpt>
<trkpt lat="-28.3908836" lon="153.4226077">
<ele>37.953</ele>
<time>2018-01-24T03:10:35.176Z</time>
</trkpt>
<trkpt lat="-28.3906332" lon="153.4223071">
<ele>39.393</ele>
<time>2018-01-24T03:10:37.318Z</time>
</trkpt>
<trkpt lat="-28.3904003" lon="153.4219830">
<ele>40.089</ele>
<time>2018-01-24T03:10:39.395Z</time>
</trkpt>
<trkpt lat="-28.3901049" lon="153.4214322">
<ele>39.861</ele>
<time>2018-01-24T03:10:42.437Z</time>
</trkpt>
<trkpt lat="-28.3897252" lon="153.4209803">
<ele>38.794</ele>
<time>2018-01-24T03:10:45.370Z</time>
</trkpt>
<trkpt lat="-28.3892168" lon="153.4206020">
<ele>36.788</ele>
<time>2018-01-24T03:10:48.573Z</time>
</trkpt>
<trkpt lat="-28.3887746" lon="153.4201770">
<ele>33.654</ele>
<time>2018-01-24T03:10:51.610Z</time>
</trkpt>
<trkpt lat="-28.3883113" lon="153.4197819">
<ele>29.678</ele>
<time>2018-01-24T03:10:54.582Z</time>
</trkpt>
<trkpt lat="-28.3878596" lon="153.4193689">
<ele>25.590</ele>
<time>2018-01-24T03:10:57.522Z</time>
</trkpt>
<trkpt lat="-28.3873367" lon="153.4192272">
<ele>21.834</ele>
<time>2018-01-24T03:11:00.286Z</time>
</trkpt>
<trkpt lat="-28.3868340" lon="153.4192618">
<ele>18.376</ele>
<time>2018-01-24T03:11:02.881Z</time>
</trkpt>
<trkpt lat="-28.3863347" lon="153.4194231">
<ele>15.270</ele>
<time>2018-01-24T03:11:05.662Z</time>
</trkpt>
<trkpt lat="-28.3858815" lon="153.4197887">
<ele>13.040</ele>
<time>2018-01-24T03:11:08.793Z</time>
</trkpt>
<trkpt lat="-28.3854524" lon="153.4200588">
<ele>12.239</ele>
<time>2018-01-24T03:11:11.617Z</time>
</trkpt>
<trkpt lat="-28.3850319" lon="153.4201445">
<ele>12.863</ele>
<time>2018-01-24T03:11:14.074Z</time>
</trkpt>
<trkpt lat="-28.3845771" lon="153.4201703">
<ele>14.562</ele>
<time>2018-01-24T03:11:16.731Z</time>
</trkpt>
<trkpt lat="-28.3840726" lon="153.4201997">
<ele>17.048</ele>
<time>2018-01-24T03:11:19.788Z</time>
</trkpt>
<trkpt lat="-28.3837469" lon="153.4202597">
<ele>19.714</ele>
<time>2018-01-24T03:11:21.850Z</time>
</trkpt>
<trkpt lat="-28.3834227" lon="153.4203053">
<ele>21.655</ele>
<time>2018-01-24T03:11:23.921Z</time>
</trkpt>
<trkpt lat="-28.3831120" lon="153.4203243">
<ele>22.584</ele>
<time>2018-01-24T03:11:25.836Z</time>
</trkpt>
<trkpt lat="-28.3827768" lon="153.4202477">
<ele>22.859</ele>
<time>2018-01-24T03:11:27.914Z</time>
</trkpt>
<trkpt lat="-28.3824252" lon="153.4202381">
<ele>22.631</ele>
<time>2018-01-24T03:11:30.044Z</time>
</trkpt>
<trkpt lat="-28.3820338" lon="153.4203029">
<ele>21.560</ele>
<time>2018-01-24T03:11:32.530Z</time>
</trkpt>
<trkpt lat="-28.3816645" lon="153.4204574">
<ele>19.584</ele>
<time>2018-01-24T03:11:35.037Z</time>
</trkpt>
<trkpt lat="-28.3813271" lon="153.4205712">
<ele>17.354</ele>
<time>2018-01-24T03:11:37.181Z</time>
</trkpt>
<trkpt lat="-28.3809697" lon="153.4206812">
<ele>15.448</ele>
<time>2018-01-24T03:11:39.310Z</time>
</trkpt>
<trkpt lat="-28.3806044" lon="153.4207327">
<ele>13.841</ele>
<time>2018-01-24T03:11:41.334Z</time>
</trkpt>
<trkpt lat="-28.3802679" lon="153.4207105">
<ele>12.455</ele>
<time>2018-01-24T03:11:43.157Z</time>
</trkpt>
<trkpt lat="-28.3799363" lon="153.4205966">
<ele>11.430</ele>
<time>2018-01-24T03:11:45.011Z</time>
</trkpt>
<trkpt lat="-28.3796454" lon="153.4203906">
<ele>10.748</ele>
<time>2018-01-24T03:11:46.828Z</time>
</trkpt>
<trkpt lat="-28.3793982" lon="153.4201398">
<ele>10.157</ele>
<time>2018-01-24T03:11:48.603Z</time>
</trkpt>
<trkpt lat="-28.3791363" lon="153.4198649">
<ele>9.380</ele>
<time>2018-01-24T03:11:50.578Z</time>
</trkpt>
<trkpt lat="-28.3788395" lon="153.4193932">
<ele>8.376</ele>
<time>2018-01-24T03:11:53.526Z</time>
</trkpt>
<trkpt lat="-28.3784775" lon="153.4189609">
<ele>7.463</ele>
<time>2018-01-24T03:11:56.682Z</time>
</trkpt>
<trkpt lat="-28.3780672" lon="153.4185617">
<ele>6.980</ele>
<time>2018-01-24T03:11:59.935Z</time>
</trkpt>
<trkpt lat="-28.3775942" lon="153.4182375">
<ele>6.922</ele>
<time>2018-01-24T03:12:03.158Z</time>
</trkpt>
<trkpt lat="-28.3771046" lon="153.4179181">
<ele>7.107</ele>
<time>2018-01-24T03:12:06.314Z</time>
</trkpt>
<trkpt lat="-28.3766244" lon="153.4175465">
<ele>7.391</ele>
<time>2018-01-24T03:12:09.422Z</time>
</trkpt>
<trkpt lat="-28.3761358" lon="153.4172074">
<ele>7.642</ele>
<time>2018-01-24T03:12:12.413Z</time>
</trkpt>
<trkpt lat="-28.3756200" lon="153.4168617">
<ele>7.712</ele>
<time>2018-01-24T03:12:15.488Z</time>
</trkpt>
<trkpt lat="-28.3750996" lon="153.4165354">
<ele>7.471</ele>
<time>2018-01-24T03:12:18.484Z</time>
</trkpt>
<trkpt lat="-28.3745561" lon="153.4162250">
<ele>6.944</ele>
<time>2018-01-24T03:12:21.524Z</time>
</trkpt>
<trkpt lat="-28.3740448" lon="153.4159146">
<ele>6.183</ele>
<time>2018-01-24T03:12:24.400Z</time>
</trkpt>
<trkpt lat="-28.3735134" lon="153.4155918">
<ele>5.140</ele>
<time>2018-01-24T03:12:27.370Z</time>
</trkpt>
<trkpt lat="-28.3730213" lon="153.4152477">
<ele>4.054</ele>
<time>2018-01-24T03:12:30.207Z</time>
</trkpt>
<trkpt lat="-28.3725907" lon="153.4147584">
<ele>3.371</ele>
<time>2018-01-24T03:12:33.206Z</time>
</trkpt>
<trkpt lat="-28.3722355" lon="153.4142066">
<ele>3.202</ele>
<time>2018-01-24T03:12:36.184Z</time>
</trkpt>
<trkpt lat="-28.3718716" lon="153.4136473">
<ele>3.358</ele>
<time>2018-01-24T03:12:39.185Z</time>
</trkpt>
<trkpt lat="-28.3715278" lon="153.4131187">
<ele>3.919</ele>
<time>2018-01-24T03:12:42.002Z</time>
</trkpt>
<trkpt lat="-28.3711833" lon="153.4126043">
<ele>5.364</ele>
<time>2018-01-24T03:12:44.766Z</time>
</trkpt>
<trkpt lat="-28.3708062" lon="153.4120686">
<ele>8.172</ele>
<time>2018-01-24T03:12:47.726Z</time>
</trkpt>
<trkpt lat="-28.3703403" lon="153.4116381">
<ele>12.266</ele>
<time>2018-01-24T03:12:50.744Z</time>
</trkpt>
<trkpt lat="-28.3699798" lon="153.4115850">
<ele>16.740</ele>
<time>2018-01-24T03:12:52.563Z</time>
</trkpt>
<trkpt lat="-28.3695845" lon="153.4116218">
<ele>20.527</ele>
<time>2018-01-24T03:12:54.538Z</time>
</trkpt>
<trkpt lat="-28.3691938" lon="153.4117310">
<ele>23.444</ele>
<time>2018-01-24T03:12:56.527Z</time>
</trkpt>
<trkpt lat="-28.3687955" lon="153.4118532">
<ele>25.958</ele>
<time>2018-01-24T03:12:58.602Z</time>
</trkpt>
<trkpt lat="-28.3683995" lon="153.4119647">
<ele>28.437</ele>
<time>2018-01-24T03:13:00.677Z</time>
</trkpt>
<trkpt lat="-28.3680401" lon="153.4120467">
<ele>30.866</ele>
<time>2018-01-24T03:13:02.499Z</time>
</trkpt>
<trkpt lat="-28.3676952" lon="153.4120932">
<ele>33.113</ele>
<time>2018-01-24T03:13:04.174Z</time>
</trkpt>
<trkpt lat="-28.3673408" lon="153.4120936">
<ele>35.266</ele>
<time>2018-01-24T03:13:05.867Z</time>
</trkpt>
<trkpt lat="-28.3669515" lon="153.4120365">
<ele>37.630</ele>
<time>2018-01-24T03:13:07.764Z</time>
</trkpt>
<trkpt lat="-28.3665877" lon="153.4119707">
<ele>40.506</ele>
<time>2018-01-24T03:13:09.603Z</time>
</trkpt>
<trkpt lat="-28.3660779" lon="153.4119016">
<ele>44.035</ele>
<time>2018-01-24T03:13:12.321Z</time>
</trkpt>
<trkpt lat="-28.3657102" lon="153.4117702">
<ele>48.285</ele>
<time>2018-01-24T03:13:14.406Z</time>
</trkpt>
<trkpt lat="-28.3654165" lon="153.4117258">
<ele>53.345</ele>
<time>2018-01-24T03:13:15.984Z</time>
</trkpt>
<trkpt lat="-28.3652423" lon="153.4116894">
<ele>58.961</ele>
<time>2018-01-24T03:13:16.920Z</time>
</trkpt>
<trkpt lat="-28.3652373" lon="153.4118363">
<ele>64.251</ele>
<time>2018-01-24T03:13:17.627Z</time>
</trkpt>
<trkpt lat="-28.3652937" lon="153.4120638">
<ele>68.048</ele>
<time>2018-01-24T03:13:18.770Z</time>
</trkpt>
<trkpt lat="-28.3653920" lon="153.4123718">
<ele>69.781</ele>
<time>2018-01-24T03:13:20.410Z</time>
</trkpt>
<trkpt lat="-28.3655605" lon="153.4127513">
<ele>69.938</ele>
<time>2018-01-24T03:13:22.790Z</time>
</trkpt>
<trkpt lat="-28.3657087" lon="153.4131693">
<ele>69.327</ele>
<time>2018-01-24T03:13:25.954Z</time>
</trkpt>
<trkpt lat="-28.3658391" lon="153.4135238">
<ele>68.492</ele>
<time>2018-01-24T03:13:30.351Z</time>
</trkpt>
<trkpt lat="-28.3657873" lon="153.4137386">
<ele>67.566</ele>
<time>2018-01-24T03:13:34.197Z</time>
</trkpt>
<trkpt lat="-28.3655542" lon="153.4139740">
<ele>66.314</ele>
<time>2018-01-24T03:13:38.583Z</time>
</trkpt>
<trkpt lat="-28.3652867" lon="153.4141587">
<ele>64.658</ele>
<time>2018-01-24T03:13:41.584Z</time>
</trkpt>
<trkpt lat="-28.3650492" lon="153.4142752">
<ele>62.999</ele>
<time>2018-01-24T03:13:43.789Z</time>
</trkpt>
<trkpt lat="-28.3648410" lon="153.4144329">
<ele>61.846</ele>
<time>2018-01-24T03:13:45.885Z</time>
</trkpt>
<trkpt lat="-28.3646629" lon="153.4145939">
<ele>61.568</ele>
<time>2018-01-24T03:13:47.795Z</time>
</trkpt>
<trkpt lat="-28.3646048" lon="153.4148412">
<ele>62.032</ele>
<time>2018-01-24T03:13:49.949Z</time>
</trkpt>
<trkpt lat="-28.3645657" lon="153.4151776">
<ele>62.496</ele>
<time>2018-01-24T03:13:52.623Z</time>
</trkpt>
<trkpt lat="-28.3644416" lon="153.4154048">
<ele>62.225</ele>
<time>2018-01-24T03:13:54.424Z</time>
</trkpt>
<trkpt lat="-28.3643373" lon="153.4156125">
<ele>61.226</ele>
<time>2018-01-24T03:13:55.983Z</time>
</trkpt>
<trkpt lat="-28.3643267" lon="153.4157969">
<ele>60.114</ele>
<time>2018-01-24T03:13:57.213Z</time>
</trkpt>
<trkpt lat="-28.3644163" lon="153.4159736">
<ele>59.613</ele>
<time>2018-01-24T03:13:58.605Z</time>
</trkpt>
<trkpt lat="-28.3646110" lon="153.4161619">
<ele>59.971</ele>
<time>2018-01-24T03:14:00.682Z</time>
</trkpt>
<trkpt lat="-28.3647256" lon="153.4164836">
<ele>60.785</ele>
<time>2018-01-24T03:14:03.199Z</time>
</trkpt>
<trkpt lat="-28.3648085" lon="153.4167592">
<ele>61.545</ele>
<time>2018-01-24T03:14:05.281Z</time>
</trkpt>
<trkpt lat="-28.3648109" lon="153.4170446">
<ele>62.068</ele>
<time>2018-01-24T03:14:07.416Z</time>
</trkpt>
<trkpt lat="-28.3648215" lon="153.4173218">
<ele>62.422</ele>
<time>2018-01-24T03:14:09.734Z</time>
</trkpt>
<trkpt lat="-28.3648883" lon="153.4175368">
<ele>62.710</ele>
<time>2018-01-24T03:14:11.925Z</time>
</trkpt>
<trkpt lat="-28.3648350" lon="153.4177172">
<ele>62.914</ele>
<time>2018-01-24T03:14:13.611Z</time>
</trkpt>
<trkpt lat="-28.3646679" lon="153.4178387">
<ele>62.911</ele>
<time>2018-01-24T03:14:15.307Z</time>
</trkpt>
<trkpt lat="-28.3644961" lon="153.4179716">
<ele>62.674</ele>
<time>2018-01-24T03:14:16.938Z</time>
</trkpt>
<trkpt lat="-28.3643451" lon="153.4181417">
<ele>62.345</ele>
<time>2018-01-24T03:14:18.567Z</time>
</trkpt>
<trkpt lat="-28.3642902" lon="153.4183783">
<ele>61.873</ele>
<time>2018-01-24T03:14:20.238Z</time>
</trkpt>
<trkpt lat="-28.3643335" lon="153.4186524">
<ele>60.871</ele>
<time>2018-01-24T03:14:22.193Z</time>
</trkpt>
<trkpt lat="-28.3643054" lon="153.4189360">
<ele>59.174</ele>
<time>2018-01-24T03:14:24.336Z</time>
</trkpt>
<trkpt lat="-28.3641038" lon="153.4191371">
<ele>56.990</ele>
<time>2018-01-24T03:14:27.120Z</time>
</trkpt>
<trkpt lat="-28.3638968" lon="153.4192818">
<ele>54.597</ele>
<time>2018-01-24T03:14:29.800Z</time>
</trkpt>
<trkpt lat="-28.3637324" lon="153.4194227">
<ele>52.364</ele>
<time>2018-01-24T03:14:31.957Z</time>
</trkpt>
<trkpt lat="-28.3636589" lon="153.4196063">
<ele>50.549</ele>
<time>2018-01-24T03:14:33.707Z</time>
</trkpt>
<trkpt lat="-28.3637708" lon="153.4198081">
<ele>49.075</ele>
<time>2018-01-24T03:14:35.630Z</time>
</trkpt>
<trkpt lat="-28.3639429" lon="153.4199461">
<ele>47.749</ele>
<time>2018-01-24T03:14:37.453Z</time>
</trkpt>
<trkpt lat="-28.3641093" lon="153.4201064">
<ele>46.569</ele>
<time>2018-01-24T03:14:39.301Z</time>
</trkpt>
<trkpt lat="-28.3642824" lon="153.4202365">
<ele>45.574</ele>
<time>2018-01-24T03:14:41.048Z</time>
</trkpt>
<trkpt lat="-28.3644824" lon="153.4202808">
<ele>44.716</ele>
<time>2018-01-24T03:14:42.790Z</time>
</trkpt>
<trkpt lat="-28.3647199" lon="153.4202440">
<ele>44.037</ele>
<time>2018-01-24T03:14:45.006Z</time>
</trkpt>
<trkpt lat="-28.3649176" lon="153.4203408">
<ele>43.680</ele>
<time>2018-01-24T03:14:47.380Z</time>
</trkpt>
<trkpt lat="-28.3650646" lon="153.4205589">
<ele>43.713</ele>
<time>2018-01-24T03:14:50.129Z</time>
</trkpt>
<trkpt lat="-28.3651826" lon="153.4208100">
<ele>44.145</ele>
<time>2018-01-24T03:14:52.561Z</time>
</trkpt>
<trkpt lat="-28.3652644" lon="153.4210960">
<ele>44.813</ele>
<time>2018-01-24T03:14:55.136Z</time>
</trkpt>
<trkpt lat="-28.3653383" lon="153.4213375">
<ele>45.398</ele>
<time>2018-01-24T03:14:57.396Z</time>
</trkpt>
<trkpt lat="-28.3653779" lon="153.4216256">
<ele>45.526</ele>
<time>2018-01-24T03:14:59.939Z</time>
</trkpt>
<trkpt lat="-28.3653638" lon="153.4219045">
<ele>44.922</ele>
<time>2018-01-24T03:15:02.277Z</time>
</trkpt>
<trkpt lat="-28.3653995" lon="153.4222085">
<ele>43.681</ele>
<time>2018-01-24T03:15:04.682Z</time>
</trkpt>
<trkpt lat="-28.3654768" lon="153.4224744">
<ele>42.136</ele>
<time>2018-01-24T03:15:06.741Z</time>
</trkpt>
<trkpt lat="-28.3655279" lon="153.4227505">
<ele>40.372</ele>
<time>2018-01-24T03:15:08.758Z</time>
</trkpt>
<trkpt lat="-28.3655776" lon="153.4230744">
<ele>38.140</ele>
<time>2018-01-24T03:15:11.118Z</time>
</trkpt>
<trkpt lat="-28.3656021" lon="153.4234169">
<ele>35.329</ele>
<time>2018-01-24T03:15:13.577Z</time>
</trkpt>
<trkpt lat="-28.3656452" lon="153.4237924">
<ele>32.322</ele>
<time>2018-01-24T03:15:16.232Z</time>
</trkpt>
<trkpt lat="-28.3657504" lon="153.4241527">
<ele>29.765</ele>
<time>2018-01-24T03:15:18.845Z</time>
</trkpt>
<trkpt lat="-28.3659000" lon="153.4244387">
<ele>28.160</ele>
<time>2018-01-24T03:15:21.032Z</time>
</trkpt>
<trkpt lat="-28.3660124" lon="153.4247315">
<ele>27.721</ele>
<time>2018-01-24T03:15:22.970Z</time>
</trkpt>
<trkpt lat="-28.3660098" lon="153.4250517">
<ele>28.427</ele>
<time>2018-01-24T03:15:24.794Z</time>
</trkpt>
<trkpt lat="-28.3658480" lon="153.4253897">
<ele>29.896</ele>
<time>2018-01-24T03:15:26.964Z</time>
</trkpt>
<trkpt lat="-28.3657060" lon="153.4257061">
<ele>31.462</ele>
<time>2018-01-24T03:15:29.048Z</time>
</trkpt>
<trkpt lat="-28.3655711" lon="153.4260096">
<ele>32.631</ele>
<time>2018-01-24T03:15:31.161Z</time>
</trkpt>
<trkpt lat="-28.3654541" lon="153.4262594">
<ele>33.252</ele>
<time>2018-01-24T03:15:32.948Z</time>
</trkpt>
<trkpt lat="-28.3654403" lon="153.4264673">
<ele>33.381</ele>
<time>2018-01-24T03:15:34.238Z</time>
</trkpt>
<trkpt lat="-28.3655559" lon="153.4266276">
<ele>33.160</ele>
<time>2018-01-24T03:15:35.459Z</time>
</trkpt>
<trkpt lat="-28.3656859" lon="153.4267654">
<ele>32.522</ele>
<time>2018-01-24T03:15:36.649Z</time>
</trkpt>
<trkpt lat="-28.3658965" lon="153.4268504">
<ele>31.198</ele>
<time>2018-01-24T03:15:38.147Z</time>
</trkpt>
<trkpt lat="-28.3661621" lon="153.4268762">
<ele>29.126</ele>
<time>2018-01-24T03:15:40.004Z</time>
</trkpt>
<trkpt lat="-28.3664297" lon="153.4269316">
<ele>26.776</ele>
<time>2018-01-24T03:15:42.439Z</time>
</trkpt>
<trkpt lat="-28.3666254" lon="153.4270442">
<ele>24.710</ele>
<time>2018-01-24T03:15:44.996Z</time>
</trkpt>
<trkpt lat="-28.3668070" lon="153.4273055">
<ele>23.093</ele>
<time>2018-01-24T03:15:48.283Z</time>
</trkpt>
<trkpt lat="-28.3669097" lon="153.4276083">
<ele>21.966</ele>
<time>2018-01-24T03:15:50.873Z</time>
</trkpt>
<trkpt lat="-28.3669836" lon="153.4279201">
<ele>21.590</ele>
<time>2018-01-24T03:15:53.271Z</time>
</trkpt>
<trkpt lat="-28.3670614" lon="153.4282188">
<ele>22.081</ele>
<time>2018-01-24T03:15:55.526Z</time>
</trkpt>
<trkpt lat="-28.3671668" lon="153.4284903">
<ele>23.159</ele>
<time>2018-01-24T03:15:57.529Z</time>
</trkpt>
<trkpt lat="-28.3672564" lon="153.4287312">
<ele>24.348</ele>
<time>2018-01-24T03:15:59.259Z</time>
</trkpt>
<trkpt lat="-28.3672472" lon="153.4289471">
<ele>25.338</ele>
<time>2018-01-24T03:16:00.700Z</time>
</trkpt>
<trkpt lat="-28.3672672" lon="153.4291901">
<ele>26.163</ele>
<time>2018-01-24T03:16:02.350Z</time>
</trkpt>
<trkpt lat="-28.3673610" lon="153.4293866">
<ele>27.149</ele>
<time>2018-01-24T03:16:03.891Z</time>
</trkpt>
<trkpt lat="-28.3672872" lon="153.4295647">
<ele>28.545</ele>
<time>2018-01-24T03:16:05.361Z</time>
</trkpt>
<trkpt lat="-28.3672628" lon="153.4298158">
<ele>30.313</ele>
<time>2018-01-24T03:16:07.433Z</time>
</trkpt>
<trkpt lat="-28.3672327" lon="153.4300523">
<ele>32.581</ele>
<time>2018-01-24T03:16:09.528Z</time>
</trkpt>
<trkpt lat="-28.3671627" lon="153.4301703">
<ele>35.916</ele>
<time>2018-01-24T03:16:10.770Z</time>
</trkpt>
<trkpt lat="-28.3669975" lon="153.4302172">
<ele>40.517</ele>
<time>2018-01-24T03:16:12.462Z</time>
</trkpt>
<trkpt lat="-28.3669426" lon="153.4303469">
<ele>45.618</ele>
<time>2018-01-24T03:16:13.757Z</time>
</trkpt>
<trkpt lat="-28.3669240" lon="153.4305422">
<ele>50.142</ele>
<time>2018-01-24T03:16:15.538Z</time>
</trkpt>
<trkpt lat="-28.3668685" lon="153.4307195">
<ele>53.647</ele>
<time>2018-01-24T03:16:17.241Z</time>
</trkpt>
<trkpt lat="-28.3668648" lon="153.4308344">
<ele>56.239</ele>
<time>2018-01-24T03:16:18.323Z</time>
</trkpt>
<trkpt lat="-28.3668200" lon="153.4309261">
<ele>57.980</ele>
<time>2018-01-24T03:16:19.416Z</time>
</trkpt>
<trkpt lat="-28.3669108" lon="153.4310161">
<ele>58.884</ele>
<time>2018-01-24T03:16:20.982Z</time>
</trkpt>
<trkpt lat="-28.3670245" lon="153.4311192">
<ele>59.266</ele>
<time>2018-01-24T03:16:23.038Z</time>
</trkpt>
<trkpt lat="-28.3671217" lon="153.4312005">
<ele>59.561</ele>
<time>2018-01-24T03:16:24.740Z</time>
</trkpt>
<trkpt lat="-28.3671398" lon="153.4313483">
<ele>59.903</ele>
<time>2018-01-24T03:16:26.493Z</time>
</trkpt>
<trkpt lat="-28.3670223" lon="153.4315333">
<ele>60.160</ele>
<time>2018-01-24T03:16:29.218Z</time>
</trkpt>
<trkpt lat="-28.3668552" lon="153.4317267">
<ele>60.266</ele>
<time>2018-01-24T03:16:33.953Z</time>
</trkpt>
<trkpt lat="-28.3666711" lon="153.4318743">
<ele>60.549</ele>
<time>2018-01-24T03:16:38.469Z</time>
</trkpt>
<trkpt lat="-28.3664773" lon="153.4320270">
<ele>61.384</ele>
<time>2018-01-24T03:16:42.390Z</time>
</trkpt>
<trkpt lat="-28.3663044" lon="153.4321981">
<ele>62.474</ele>
<time>2018-01-24T03:16:45.243Z</time>
</trkpt>
<trkpt lat="-28.3661803" lon="153.4324592">
<ele>62.762</ele>
<time>2018-01-24T03:16:47.765Z</time>
</trkpt>
<trkpt lat="-28.3659863" lon="153.4326325">
<ele>61.598</ele>
<time>2018-01-24T03:16:49.979Z</time>
</trkpt>
<trkpt lat="-28.3657705" lon="153.4327353">
<ele>59.616</ele>
<time>2018-01-24T03:16:52.118Z</time>
</trkpt>
<trkpt lat="-28.3655737" lon="153.4327402">
<ele>57.902</ele>
<time>2018-01-24T03:16:53.855Z</time>
</trkpt>
<trkpt lat="-28.3653108" lon="153.4326687">
<ele>56.849</ele>
<time>2018-01-24T03:16:56.110Z</time>
</trkpt>
<trkpt lat="-28.3650928" lon="153.4326135">
<ele>56.240</ele>
<time>2018-01-24T03:16:58.068Z</time>
</trkpt>
<trkpt lat="-28.3649453" lon="153.4326750">
<ele>55.655</ele>
<time>2018-01-24T03:16:59.634Z</time>
</trkpt>
<trkpt lat="-28.3649218" lon="153.4328813">
<ele>54.649</ele>
<time>2018-01-24T03:17:01.481Z</time>
</trkpt>
<trkpt lat="-28.3649849" lon="153.4331367">
<ele>52.727</ele>
<time>2018-01-24T03:17:03.712Z</time>
</trkpt>
<trkpt lat="-28.3650139" lon="153.4333966">
<ele>49.715</ele>
<time>2018-01-24T03:17:06.225Z</time>
</trkpt>
<trkpt lat="-28.3649146" lon="153.4336032">
<ele>46.077</ele>
<time>2018-01-24T03:17:08.943Z</time>
</trkpt>
<trkpt lat="-28.3645213" lon="153.4336428">
<ele>42.627</ele>
<time>2018-01-24T03:17:12.836Z</time>
</trkpt>
<trkpt lat="-28.3642573" lon="153.4336709">
<ele>40.180</ele>
<time>2018-01-24T03:17:15.370Z</time>
</trkpt>
<trkpt lat="-28.3640018" lon="153.4336768">
<ele>39.020</ele>
<time>2018-01-24T03:17:17.699Z</time>
</trkpt>
<trkpt lat="-28.3637506" lon="153.4335538">
<ele>38.422</ele>
<time>2018-01-24T03:17:19.924Z</time>
</trkpt>
<trkpt lat="-28.3635152" lon="153.4334461">
<ele>37.339</ele>
<time>2018-01-24T03:17:21.932Z</time>
</trkpt>
<trkpt lat="-28.3632596" lon="153.4333493">
<ele>35.320</ele>
<time>2018-01-24T03:17:24.011Z</time>
</trkpt>
<trkpt lat="-28.3630266" lon="153.4332844">
<ele>32.311</ele>
<time>2018-01-24T03:17:25.819Z</time>
</trkpt>
<trkpt lat="-28.3628568" lon="153.4332885">
<ele>28.408</ele>
<time>2018-01-24T03:17:27.090Z</time>
</trkpt>
<trkpt lat="-28.3627423" lon="153.4334426">
<ele>24.146</ele>
<time>2018-01-24T03:17:28.448Z</time>
</trkpt>
<trkpt lat="-28.3626046" lon="153.4336340">
<ele>20.144</ele>
<time>2018-01-24T03:17:30.324Z</time>
</trkpt>
<trkpt lat="-28.3623929" lon="153.4337734">
<ele>16.617</ele>
<time>2018-01-24T03:17:32.956Z</time>
</trkpt>
<trkpt lat="-28.3621320" lon="153.4337539">
<ele>13.652</ele>
<time>2018-01-24T03:17:35.670Z</time>
</trkpt>
<trkpt lat="-28.3618965" lon="153.4337208">
<ele>11.510</ele>
<time>2018-01-24T03:17:37.831Z</time>
</trkpt>
<trkpt lat="-28.3616278" lon="153.4337618">
<ele>10.275</ele>
<time>2018-01-24T03:17:40.163Z</time>
</trkpt>
<trkpt lat="-28.3613708" lon="153.4338831">
<ele>9.630</ele>
<time>2018-01-24T03:17:42.442Z</time>
</trkpt>
<trkpt lat="-28.3611473" lon="153.4340586">
<ele>9.269</ele>
<time>2018-01-24T03:17:44.506Z</time>
</trkpt>
<trkpt lat="-28.3609358" lon="153.4342310">
<ele>9.197</ele>
<time>2018-01-24T03:17:46.392Z</time>
</trkpt>
<trkpt lat="-28.3607149" lon="153.4343827">
<ele>9.407</ele>
<time>2018-01-24T03:17:48.269Z</time>
</trkpt>
<trkpt lat="-28.3604535" lon="153.4344676">
<ele>9.714</ele>
<time>2018-01-24T03:17:50.289Z</time>
</trkpt>
<trkpt lat="-28.3601637" lon="153.4345548">
<ele>9.927</ele>
<time>2018-01-24T03:17:52.531Z</time>
</trkpt>
<trkpt lat="-28.3598844" lon="153.4346227">
<ele>10.009</ele>
<time>2018-01-24T03:17:54.601Z</time>
</trkpt>
<trkpt lat="-28.3596020" lon="153.4346776">
<ele>9.982</ele>
<time>2018-01-24T03:17:56.607Z</time>
</trkpt>
<trkpt lat="-28.3593097" lon="153.4347109">
<ele>9.826</ele>
<time>2018-01-24T03:17:58.643Z</time>
</trkpt>
<trkpt lat="-28.3589925" lon="153.4347441">
<ele>9.522</ele>
<time>2018-01-24T03:18:00.833Z</time>
</trkpt>
<trkpt lat="-28.3586493" lon="153.4347637">
<ele>9.116</ele>
<time>2018-01-24T03:18:03.074Z</time>
</trkpt>
<trkpt lat="-28.3582951" lon="153.4347769">
<ele>8.671</ele>
<time>2018-01-24T03:18:05.204Z</time>
</trkpt>
<trkpt lat="-28.3579556" lon="153.4347774">
<ele>8.170</ele>
<time>2018-01-24T03:18:07.174Z</time>
</trkpt>
<trkpt lat="-28.3575992" lon="153.4347651">
<ele>7.610</ele>
<time>2018-01-24T03:18:09.229Z</time>
</trkpt>
<trkpt lat="-28.3572518" lon="153.4347098">
<ele>6.955</ele>
<time>2018-01-24T03:18:11.229Z</time>
</trkpt>
<trkpt lat="-28.3569138" lon="153.4347367">
<ele>6.240</ele>
<time>2018-01-24T03:18:13.136Z</time>
</trkpt>
<trkpt lat="-28.3566026" lon="153.4347894">
<ele>5.614</ele>
<time>2018-01-24T03:18:14.929Z</time>
</trkpt>
<trkpt lat="-28.3563591" lon="153.4349230">
<ele>5.039</ele>
<time>2018-01-24T03:18:16.529Z</time>
</trkpt>
<trkpt lat="-28.3562040" lon="153.4351513">
<ele>4.162</ele>
<time>2018-01-24T03:18:18.146Z</time>
</trkpt>
<trkpt lat="-28.3560058" lon="153.4354064">
<ele>2.780</ele>
<time>2018-01-24T03:18:20.275Z</time>
</trkpt>
<trkpt lat="-28.3557660" lon="153.4355442">
<ele>1.115</ele>
<time>2018-01-24T03:18:22.319Z</time>
</trkpt>
<trkpt lat="-28.3555553" lon="153.4356194">
<ele>0.000</ele>
<time>2018-01-24T03:18:24.001Z</time>
</trkpt>
<trkpt lat="-28.3553697" lon="153.4354495">
<ele>0.000</ele>
<time>2018-01-24T03:18:25.916Z</time>
</trkpt>
<trkpt lat="-28.3552079" lon="153.4352007">
<ele>0.000</ele>
<time>2018-01-24T03:18:28.442Z</time>
</trkpt>
<trkpt lat="-28.3550602" lon="153.4350098">
<ele>0.447</ele>
<time>2018-01-24T03:18:30.518Z</time>
</trkpt>
<trkpt lat="-28.3548729" lon="153.4348466">
<ele>1.789</ele>
<time>2018-01-24T03:18:32.504Z</time>
</trkpt>
<trkpt lat="-28.3546720" lon="153.4347755">
<ele>3.025</ele>
<time>2018-01-24T03:18:34.264Z</time>
</trkpt>
<trkpt lat="-28.3544581" lon="153.4348582">
<ele>3.921</ele>
<time>2018-01-24T03:18:36.256Z</time>
</trkpt>
<trkpt lat="-28.3542205" lon="153.4350335">
<ele>4.620</ele>
<time>2018-01-24T03:18:38.896Z</time>
</trkpt>
<trkpt lat="-28.3539972" lon="153.4352052">
<ele>5.659</ele>
<time>2018-01-24T03:18:41.162Z</time>
</trkpt>
<trkpt lat="-28.3537464" lon="153.4353061">
<ele>7.557</ele>
<time>2018-01-24T03:18:43.169Z</time>
</trkpt>
<trkpt lat="-28.3534759" lon="153.4353079">
<ele>10.294</ele>
<time>2018-01-24T03:18:45.179Z</time>
</trkpt>
<trkpt lat="-28.3531826" lon="153.4352664">
<ele>13.438</ele>
<time>2018-01-24T03:18:47.323Z</time>
</trkpt>
<trkpt lat="-28.3529218" lon="153.4352595">
<ele>16.747</ele>
<time>2018-01-24T03:18:49.141Z</time>
</trkpt>
<trkpt lat="-28.3526704" lon="153.4352492">
<ele>20.186</ele>
<time>2018-01-24T03:18:50.899Z</time>
</trkpt>
<trkpt lat="-28.3524422" lon="153.4352368">
<ele>23.517</ele>
<time>2018-01-24T03:18:52.575Z</time>
</trkpt>
<trkpt lat="-28.3522328" lon="153.4352461">
<ele>26.416</ele>
<time>2018-01-24T03:18:54.187Z</time>
</trkpt>
<trkpt lat="-28.3520270" lon="153.4352967">
<ele>28.832</ele>
<time>2018-01-24T03:18:55.897Z</time>
</trkpt>
<trkpt lat="-28.3518277" lon="153.4354958">
<ele>30.902</ele>
<time>2018-01-24T03:18:58.227Z</time>
</trkpt>
<trkpt lat="-28.3516472" lon="153.4357281">
<ele>32.802</ele>
<time>2018-01-24T03:19:00.677Z</time>
</trkpt>
<trkpt lat="-28.3513081" lon="153.4359078">
<ele>34.658</ele>
<time>2018-01-24T03:19:03.702Z</time>
</trkpt>
<trkpt lat="-28.3508935" lon="153.4359429">
<ele>36.311</ele>
<time>2018-01-24T03:19:06.838Z</time>
</trkpt>
<trkpt lat="-28.3505304" lon="153.4360225">
<ele>37.404</ele>
<time>2018-01-24T03:19:09.573Z</time>
</trkpt>
<trkpt lat="-28.3502608" lon="153.4358599">
<ele>37.832</ele>
<time>2018-01-24T03:19:11.926Z</time>
</trkpt>
<trkpt lat="-28.3499865" lon="153.4354264">
<ele>37.837</ele>
<time>2018-01-24T03:19:16.101Z</time>
</trkpt>
<trkpt lat="-28.3496300" lon="153.4349609">
<ele>37.647</ele>
<time>2018-01-24T03:19:20.329Z</time>
</trkpt>
<trkpt lat="-28.3495300" lon="153.4344259">
<ele>37.360</ele>
<time>2018-01-24T03:19:23.639Z</time>
</trkpt>
<trkpt lat="-28.3494712" lon="153.4339815">
<ele>37.071</ele>
<time>2018-01-24T03:19:26.461Z</time>
</trkpt>
<trkpt lat="-28.3492973" lon="153.4337072">
<ele>36.699</ele>
<time>2018-01-24T03:19:28.898Z</time>
</trkpt>
<trkpt lat="-28.3491487" lon="153.4334110">
<ele>35.759</ele>
<time>2018-01-24T03:19:31.632Z</time>
</trkpt>
<trkpt lat="-28.3492233" lon="153.4329691">
<ele>34.069</ele>
<time>2018-01-24T03:19:35.309Z</time>
</trkpt>
<trkpt lat="-28.3492357" lon="153.4325787">
<ele>32.318</ele>
<time>2018-01-24T03:19:38.337Z</time>
</trkpt>
<trkpt lat="-28.3490201" lon="153.4322946">
<ele>31.265</ele>
<time>2018-01-24T03:19:41.418Z</time>
</trkpt>
<trkpt lat="-28.3487505" lon="153.4318994">
<ele>30.843</ele>
<time>2018-01-24T03:19:45.470Z</time>
</trkpt>
<trkpt lat="-28.3485837" lon="153.4314944">
<ele>30.607</ele>
<time>2018-01-24T03:19:48.814Z</time>
</trkpt>
<trkpt lat="-28.3482342" lon="153.4313148">
<ele>30.088</ele>
<time>2018-01-24T03:19:52.234Z</time>
</trkpt>
<trkpt lat="-28.3478738" lon="153.4314599">
<ele>28.722</ele>
<time>2018-01-24T03:19:55.412Z</time>
</trkpt>
<trkpt lat="-28.3474430" lon="153.4314812">
<ele>26.426</ele>
<time>2018-01-24T03:19:58.565Z</time>
</trkpt>
<trkpt lat="-28.3470141" lon="153.4311965">
<ele>23.648</ele>
<time>2018-01-24T03:20:01.743Z</time>
</trkpt>
<trkpt lat="-28.3467695" lon="153.4306318">
<ele>20.635</ele>
<time>2018-01-24T03:20:05.063Z</time>
</trkpt>
<trkpt lat="-28.3465605" lon="153.4301242">
<ele>17.728</ele>
<time>2018-01-24T03:20:08.224Z</time>
</trkpt>
<trkpt lat="-28.3462701" lon="153.4297969">
<ele>15.520</ele>
<time>2018-01-24T03:20:10.993Z</time>
</trkpt>
<trkpt lat="-28.3458000" lon="153.4296155">
<ele>14.231</ele>
<time>2018-01-24T03:20:14.180Z</time>
</trkpt>
<trkpt lat="-28.3453181" lon="153.4294227">
<ele>13.395</ele>
<time>2018-01-24T03:20:17.271Z</time>
</trkpt>
<trkpt lat="-28.3449831" lon="153.4293115">
<ele>12.330</ele>
<time>2018-01-24T03:20:19.378Z</time>
</trkpt>
<trkpt lat="-28.3446735" lon="153.4292165">
<ele>10.943</ele>
<time>2018-01-24T03:20:21.380Z</time>
</trkpt>
<trkpt lat="-28.3443294" lon="153.4291932">
<ele>9.641</ele>
<time>2018-01-24T03:20:23.632Z</time>
</trkpt>
<trkpt lat="-28.3440977" lon="153.4289945">
<ele>8.707</ele>
<time>2018-01-24T03:20:25.514Z</time>
</trkpt>
<trkpt lat="-28.3439549" lon="153.4286985">
<ele>8.524</ele>
<time>2018-01-24T03:20:27.348Z</time>
</trkpt>
<trkpt lat="-28.3438801" lon="153.4283142">
<ele>9.443</ele>
<time>2018-01-24T03:20:29.390Z</time>
</trkpt>
<trkpt lat="-28.3439142" lon="153.4279040">
<ele>11.098</ele>
<time>2018-01-24T03:20:31.492Z</time>
</trkpt>
<trkpt lat="-28.3439525" lon="153.4275389">
<ele>12.661</ele>
<time>2018-01-24T03:20:33.357Z</time>
</trkpt>
<trkpt lat="-28.3439528" lon="153.4271740">
<ele>13.676</ele>
<time>2018-01-24T03:20:35.167Z</time>
</trkpt>
<trkpt lat="-28.3438885" lon="153.4267675">
<ele>14.373</ele>
<time>2018-01-24T03:20:37.083Z</time>
</trkpt>
<trkpt lat="-28.3437396" lon="153.4263183">
<ele>15.103</ele>
<time>2018-01-24T03:20:39.166Z</time>
</trkpt>
<trkpt lat="-28.3435991" lon="153.4258743">
<ele>15.766</ele>
<time>2018-01-24T03:20:41.182Z</time>
</trkpt>
<trkpt lat="-28.3434187" lon="153.4254582">
<ele>15.986</ele>
<time>2018-01-24T03:20:43.185Z</time>
</trkpt>
<trkpt lat="-28.3432766" lon="153.4250539">
<ele>15.470</ele>
<time>2018-01-24T03:20:45.117Z</time>
</trkpt>
<trkpt lat="-28.3431493" lon="153.4246648">
<ele>14.166</ele>
<time>2018-01-24T03:20:47.028Z</time>
</trkpt>
<trkpt lat="-28.3430104" lon="153.4242973">
<ele>12.415</ele>
<time>2018-01-24T03:20:48.940Z</time>
</trkpt>
<trkpt lat="-28.3428558" lon="153.4239454">
<ele>10.511</ele>
<time>2018-01-24T03:20:50.882Z</time>
</trkpt>
<trkpt lat="-28.3426381" lon="153.4236573">
<ele>8.541</ele>
<time>2018-01-24T03:20:52.889Z</time>
</trkpt>
<trkpt lat="-28.3424206" lon="153.4234153">
<ele>6.760</ele>
<time>2018-01-24T03:20:54.962Z</time>
</trkpt>
<trkpt lat="-28.3422130" lon="153.4232524">
<ele>5.556</ele>
<time>2018-01-24T03:20:56.888Z</time>
</trkpt>
<trkpt lat="-28.3419598" lon="153.4233198">
<ele>5.117</ele>
<time>2018-01-24T03:20:58.896Z</time>
</trkpt>
<trkpt lat="-28.3417097" lon="153.4232299">
<ele>5.457</ele>
<time>2018-01-24T03:21:00.740Z</time>
</trkpt>
<trkpt lat="-28.3414385" lon="153.4230173">
<ele>6.434</ele>
<time>2018-01-24T03:21:02.863Z</time>
</trkpt>
<trkpt lat="-28.3411214" lon="153.4228844">
<ele>7.723</ele>
<time>2018-01-24T03:21:05.007Z</time>
</trkpt>
<trkpt lat="-28.3408235" lon="153.4228663">
<ele>8.904</ele>
<time>2018-01-24T03:21:06.938Z</time>
</trkpt>
<trkpt lat="-28.3405203" lon="153.4229161">
<ele>9.688</ele>
<time>2018-01-24T03:21:08.918Z</time>
</trkpt>
<trkpt lat="-28.3402051" lon="153.4229390">
<ele>10.115</ele>
<time>2018-01-24T03:21:10.984Z</time>
</trkpt>
<trkpt lat="-28.3399459" lon="153.4228103">
<ele>10.431</ele>
<time>2018-01-24T03:21:12.842Z</time>
</trkpt>
<trkpt lat="-28.3397228" lon="153.4225017">
<ele>10.747</ele>
<time>2018-01-24T03:21:15.121Z</time>
</trkpt>
<trkpt lat="-28.3394911" lon="153.4222380">
<ele>11.109</ele>
<time>2018-01-24T03:21:17.280Z</time>
</trkpt>
<trkpt lat="-28.3392910" lon="153.4219888">
<ele>11.739</ele>
<time>2018-01-24T03:21:19.271Z</time>
</trkpt>
<trkpt lat="-28.3391996" lon="153.4216730">
<ele>12.694</ele>
<time>2018-01-24T03:21:21.214Z</time>
</trkpt>
<trkpt lat="-28.3391892" lon="153.4212943">
<ele>13.696</ele>
<time>2018-01-24T03:21:23.409Z</time>
</trkpt>
<trkpt lat="-28.3391462" lon="153.4209548">
<ele>14.476</ele>
<time>2018-01-24T03:21:25.464Z</time>
</trkpt>
<trkpt lat="-28.3391019" lon="153.4206288">
<ele>15.064</ele>
<time>2018-01-24T03:21:27.568Z</time>
</trkpt>
<trkpt lat="-28.3390941" lon="153.4203433">
<ele>15.547</ele>
<time>2018-01-24T03:21:29.541Z</time>
</trkpt>
<trkpt lat="-28.3390741" lon="153.4200813">
<ele>15.718</ele>
<time>2018-01-24T03:21:31.535Z</time>
</trkpt>
<trkpt lat="-28.3390180" lon="153.4198597">
<ele>15.309</ele>
<time>2018-01-24T03:21:33.477Z</time>
</trkpt>
<trkpt lat="-28.3388665" lon="153.4197130">
<ele>14.450</ele>
<time>2018-01-24T03:21:35.704Z</time>
</trkpt>
<trkpt lat="-28.3387262" lon="153.4196036">
<ele>13.478</ele>
<time>2018-01-24T03:21:38.628Z</time>
</trkpt>
<trkpt lat="-28.3386773" lon="153.4195020">
<ele>12.689</ele>
<time>2018-01-24T03:21:41.679Z</time>
</trkpt>
<trkpt lat="-28.3386542" lon="153.4193815">
<ele>12.256</ele>
<time>2018-01-24T03:21:46.011Z</time>
</trkpt>
<trkpt lat="-28.3386274" lon="153.4192829">
<ele>12.077</ele>
<time>2018-01-24T03:21:49.266Z</time>
</trkpt>
<trkpt lat="-28.3385620" lon="153.4191815">
<ele>11.805</ele>
<time>2018-01-24T03:21:51.296Z</time>
</trkpt>
<trkpt lat="-28.3384173" lon="153.4191866">
<ele>11.243</ele>
<time>2018-01-24T03:21:53.061Z</time>
</trkpt>
<trkpt lat="-28.3382103" lon="153.4192328">
<ele>10.584</ele>
<time>2018-01-24T03:21:55.051Z</time>
</trkpt>
<trkpt lat="-28.3379641" lon="153.4192496">
<ele>10.158</ele>
<time>2018-01-24T03:21:57.050Z</time>
</trkpt>
<trkpt lat="-28.3376940" lon="153.4192786">
<ele>10.032</ele>
<time>2018-01-24T03:21:59.057Z</time>
</trkpt>
<trkpt lat="-28.3374247" lon="153.4193613">
<ele>10.035</ele>
<time>2018-01-24T03:22:01.102Z</time>
</trkpt>
<trkpt lat="-28.3371841" lon="153.4194694">
<ele>9.942</ele>
<time>2018-01-24T03:22:03.058Z</time>
</trkpt>
<trkpt lat="-28.3369321" lon="153.4195712">
<ele>9.531</ele>
<time>2018-01-24T03:22:05.136Z</time>
</trkpt>
<trkpt lat="-28.3366879" lon="153.4196869">
<ele>8.525</ele>
<time>2018-01-24T03:22:07.242Z</time>
</trkpt>
<trkpt lat="-28.3364897" lon="153.4198360">
<ele>6.760</ele>
<time>2018-01-24T03:22:09.131Z</time>
</trkpt>
<trkpt lat="-28.3363631" lon="153.4200849">
<ele>4.556</ele>
<time>2018-01-24T03:22:11.043Z</time>
</trkpt>
<trkpt lat="-28.3363369" lon="153.4204180">
<ele>2.438</ele>
<time>2018-01-24T03:22:13.208Z</time>
</trkpt>
<trkpt lat="-28.3362431" lon="153.4206977">
<ele>0.448</ele>
<time>2018-01-24T03:22:15.219Z</time>
</trkpt>
<trkpt lat="-28.3360442" lon="153.4209438">
<ele>0.000</ele>
<time>2018-01-24T03:22:17.385Z</time>
</trkpt>
<trkpt lat="-28.3357240" lon="153.4209738">
<ele>0.000</ele>
<time>2018-01-24T03:22:19.523Z</time>
</trkpt>
<trkpt lat="-28.3354042" lon="153.4209605">
<ele>0.000</ele>
<time>2018-01-24T03:22:21.553Z</time>
</trkpt>
<trkpt lat="-28.3350863" lon="153.4209644">
<ele>0.000</ele>
<time>2018-01-24T03:22:23.580Z</time>
</trkpt>
<trkpt lat="-28.3347894" lon="153.4210718">
<ele>0.000</ele>
<time>2018-01-24T03:22:25.628Z</time>
</trkpt>
<trkpt lat="-28.3345294" lon="153.4212066">
<ele>0.000</ele>
<time>2018-01-24T03:22:27.563Z</time>
</trkpt>
<trkpt lat="-28.3342453" lon="153.4213564">
<ele>0.000</ele>
<time>2018-01-24T03:22:29.759Z</time>
</trkpt>
<trkpt lat="-28.3340027" lon="153.4214918">
<ele>0.000</ele>
<time>2018-01-24T03:22:31.771Z</time>
</trkpt>
<trkpt lat="-28.3337790" lon="153.4215875">
<ele>0.000</ele>
<time>2018-01-24T03:22:33.666Z</time>
</trkpt>
<trkpt lat="-28.3335498" lon="153.4216265">
<ele>0.000</ele>
<time>2018-01-24T03:22:35.589Z</time>
</trkpt>
<trkpt lat="-28.3333259" lon="153.4215471">
<ele>0.000</ele>
<time>2018-01-24T03:22:37.533Z</time>
</trkpt>
<trkpt lat="-28.3331635" lon="153.4213126">
<ele>0.000</ele>
<time>2018-01-24T03:22:39.632Z</time>
</trkpt>
<trkpt lat="-28.3329760" lon="153.4210722">
<ele>0.000</ele>
<time>2018-01-24T03:22:41.850Z</time>
</trkpt>
<trkpt lat="-28.3328173" lon="153.4208506">
<ele>0.000</ele>
<time>2018-01-24T03:22:43.833Z</time>
</trkpt>
<trkpt lat="-28.3326662" lon="153.4206506">
<ele>0.000</ele>
<time>2018-01-24T03:22:45.705Z</time>
</trkpt>
<trkpt lat="-28.3325114" lon="153.4204370">
<ele>0.000</ele>
<time>2018-01-24T03:22:47.749Z</time>
</trkpt>
<trkpt lat="-28.3323773" lon="153.4202210">
<ele>0.000</ele>
<time>2018-01-24T03:22:49.783Z</time>
</trkpt>
<trkpt lat="-28.3322609" lon="153.4200036">
<ele>0.000</ele>
<time>2018-01-24T03:22:51.775Z</time>
</trkpt>
<trkpt lat="-28.3321038" lon="153.4198284">
<ele>0.000</ele>
<time>2018-01-24T03:22:53.706Z</time>
</trkpt>
<trkpt lat="-28.3319363" lon="153.4196484">
<ele>0.000</ele>
<time>2018-01-24T03:22:55.695Z</time>
</trkpt>
<trkpt lat="-28.3317977" lon="153.4194345">
<ele>0.000</ele>
<time>2018-01-24T03:22:57.728Z</time>
</trkpt>
<trkpt lat="-28.3316882" lon="153.4192115">
<ele>0.000</ele>
<time>2018-01-24T03:22:59.721Z</time>
</trkpt>
<trkpt lat="-28.3316071" lon="153.4189836">
<ele>0.000</ele>
<time>2018-01-24T03:23:01.665Z</time>
</trkpt>
<trkpt lat="-28.3315764" lon="153.4187505">
<ele>0.000</ele>
<time>2018-01-24T03:23:03.503Z</time>
</trkpt>
<trkpt lat="-28.3315170" lon="153.4185112">
<ele>0.000</ele>
<time>2018-01-24T03:23:05.387Z</time>
</trkpt>
<trkpt lat="-28.3314698" lon="153.4182583">
<ele>0.000</ele>
<time>2018-01-24T03:23:07.311Z</time>
</trkpt>
<trkpt lat="-28.3314040" lon="153.4180204">
<ele>0.000</ele>
<time>2018-01-24T03:23:09.117Z</time>
</trkpt>
<trkpt lat="-28.3313486" lon="153.4177242">
<ele>0.000</ele>
<time>2018-01-24T03:23:11.243Z</time>
</trkpt>
<trkpt lat="-28.3312696" lon="153.4174780">
<ele>0.000</ele>
<time>2018-01-24T03:23:13.076Z</time>
</trkpt>
<trkpt lat="-28.3311761" lon="153.4172268">
<ele>0.000</ele>
<time>2018-01-24T03:23:15.011Z</time>
</trkpt>
<trkpt lat="-28.3310594" lon="153.4169941">
<ele>0.000</ele>
<time>2018-01-24T03:23:16.999Z</time>
</trkpt>
<trkpt lat="-28.3309408" lon="153.4167942">
<ele>0.000</ele>
<time>2018-01-24T03:23:18.883Z</time>
</trkpt>
<trkpt lat="-28.3308392" lon="153.4165889">
<ele>0.000</ele>
<time>2018-01-24T03:23:20.764Z</time>
</trkpt>
<trkpt lat="-28.3307228" lon="153.4163605">
<ele>0.000</ele>
<time>2018-01-24T03:23:22.907Z</time>
</trkpt>
<trkpt lat="-28.3306010" lon="153.4161768">
<ele>0.000</ele>
<time>2018-01-24T03:23:24.856Z</time>
</trkpt>
<trkpt lat="-28.3305091" lon="153.4159787">
<ele>0.000</ele>
<time>2018-01-24T03:23:26.880Z</time>
</trkpt>
<trkpt lat="-28.3304342" lon="153.4157996">
<ele>0.000</ele>
<time>2018-01-24T03:23:28.898Z</time>
</trkpt>
<trkpt lat="-28.3303776" lon="153.4156444">
<ele>0.000</ele>
<time>2018-01-24T03:23:31.041Z</time>
</trkpt>
<trkpt lat="-28.3303127" lon="153.4155278">
<ele>0.000</ele>
<time>2018-01-24T03:23:33.129Z</time>
</trkpt>
<trkpt lat="-28.3302759" lon="153.4154309">
<ele>0.000</ele>
<time>2018-01-24T03:23:35.001Z</time>
</trkpt>
<trkpt lat="-28.3302759" lon="153.4154309">
<ele>0.000</ele>
<time>2018-01-24T03:23:39.001Z</time>
</trkpt>
<trkpt lat="-28.3302759" lon="153.4154309">
<ele>0.000</ele>
<time>2018-01-24T03:23:41.201Z</time>
</trkpt>
<trkpt lat="-28.3301704" lon="153.4153163">
<ele>0.000</ele>
<time>2018-01-24T03:23:46.346Z</time>
</trkpt>
<trkpt lat="-28.3300098" lon="153.4153102">
<ele>0.000</ele>
<time>2018-01-24T03:23:48.683Z</time>
</trkpt>
<trkpt lat="-28.3298258" lon="153.4153082">
<ele>0.000</ele>
<time>2018-01-24T03:23:50.856Z</time>
</trkpt>
<trkpt lat="-28.3296405" lon="153.4152927">
<ele>0.000</ele>
<time>2018-01-24T03:23:52.947Z</time>
</trkpt>
<trkpt lat="-28.3294747" lon="153.4152753">
<ele>0.000</ele>
<time>2018-01-24T03:23:54.819Z</time>
</trkpt>
<trkpt lat="-28.3293003" lon="153.4153250">
<ele>0.000</ele>
<time>2018-01-24T03:23:56.708Z</time>
</trkpt>
<trkpt lat="-28.3290688" lon="153.4153643">
<ele>0.000</ele>
<time>2018-01-24T03:23:58.988Z</time>
</trkpt>
<trkpt lat="-28.3288500" lon="153.4154152">
<ele>0.000</ele>
<time>2018-01-24T03:24:01.090Z</time>
</trkpt>
<trkpt lat="-28.3286410" lon="153.4154502">
<ele>0.000</ele>
<time>2018-01-24T03:24:03.031Z</time>
</trkpt>
<trkpt lat="-28.3284230" lon="153.4154907">
<ele>0.000</ele>
<time>2018-01-24T03:24:05.008Z</time>
</trkpt>
<trkpt lat="-28.3282047" lon="153.4155468">
<ele>0.000</ele>
<time>2018-01-24T03:24:06.983Z</time>
</trkpt>
<trkpt lat="-28.3279865" lon="153.4155731">
<ele>0.000</ele>
<time>2018-01-24T03:24:08.819Z</time>
</trkpt>
<trkpt lat="-28.3277178" lon="153.4155493">
<ele>0.000</ele>
<time>2018-01-24T03:24:10.942Z</time>
</trkpt>
<trkpt lat="-28.3274513" lon="153.4154659">
<ele>0.000</ele>
<time>2018-01-24T03:24:13.077Z</time>
</trkpt>
<trkpt lat="-28.3272090" lon="153.4153401">
<ele>0.000</ele>
<time>2018-01-24T03:24:15.126Z</time>
</trkpt>
<trkpt lat="-28.3269720" lon="153.4152210">
<ele>0.000</ele>
<time>2018-01-24T03:24:17.093Z</time>
</trkpt>
<trkpt lat="-28.3267279" lon="153.4151112">
<ele>0.000</ele>
<time>2018-01-24T03:24:19.073Z</time>
</trkpt>
<trkpt lat="-28.3265029" lon="153.4149850">
<ele>0.000</ele>
<time>2018-01-24T03:24:20.982Z</time>
</trkpt>
<trkpt lat="-28.3262917" lon="153.4148137">
<ele>0.000</ele>
<time>2018-01-24T03:24:22.969Z</time>
</trkpt>
<trkpt lat="-28.3260497" lon="153.4146854">
<ele>0.000</ele>
<time>2018-01-24T03:24:25.003Z</time>
</trkpt>
<trkpt lat="-28.3258141" lon="153.4145601">
<ele>0.000</ele>
<time>2018-01-24T03:24:26.973Z</time>
</trkpt>
<trkpt lat="-28.3255729" lon="153.4144503">
<ele>0.000</ele>
<time>2018-01-24T03:24:29.027Z</time>
</trkpt>
<trkpt lat="-28.3253510" lon="153.4143533">
<ele>0.000</ele>
<time>2018-01-24T03:24:31.104Z</time>
</trkpt>
<trkpt lat="-28.3251496" lon="153.4142892">
<ele>0.000</ele>
<time>2018-01-24T03:24:33.249Z</time>
</trkpt>
<trkpt lat="-28.3249753" lon="153.4142900">
<ele>0.000</ele>
<time>2018-01-24T03:24:35.397Z</time>
</trkpt>
<trkpt lat="-28.3248380" lon="153.4143413">
<ele>0.000</ele>
<time>2018-01-24T03:24:37.401Z</time>
</trkpt>
<trkpt lat="-28.3247233" lon="153.4143941">
<ele>0.000</ele>
<time>2018-01-24T03:24:39.183Z</time>
</trkpt>
<trkpt lat="-28.3245905" lon="153.4144477">
<ele>0.000</ele>
<time>2018-01-24T03:24:41.156Z</time>
</trkpt>
<trkpt lat="-28.3244580" lon="153.4145176">
<ele>0.000</ele>
<time>2018-01-24T03:24:43.074Z</time>
</trkpt>
<trkpt lat="-28.3243870" lon="153.4146882">
<ele>0.000</ele>
<time>2018-01-24T03:24:44.739Z</time>
</trkpt>
<trkpt lat="-28.3243196" lon="153.4149878">
<ele>0.000</ele>
<time>2018-01-24T03:24:46.909Z</time>
</trkpt>
<trkpt lat="-28.3242245" lon="153.4152842">
<ele>0.000</ele>
<time>2018-01-24T03:24:48.932Z</time>
</trkpt>
<trkpt lat="-28.3241132" lon="153.4155684">
<ele>0.000</ele>
<time>2018-01-24T03:24:50.921Z</time>
</trkpt>
<trkpt lat="-28.3240021" lon="153.4158456">
<ele>0.000</ele>
<time>2018-01-24T03:24:52.858Z</time>
</trkpt>
<trkpt lat="-28.3238864" lon="153.4161309">
<ele>0.000</ele>
<time>2018-01-24T03:24:54.821Z</time>
</trkpt>
<trkpt lat="-28.3237728" lon="153.4164235">
<ele>0.000</ele>
<time>2018-01-24T03:24:56.761Z</time>
</trkpt>
<trkpt lat="-28.3236500" lon="153.4167279">
<ele>0.000</ele>
<time>2018-01-24T03:24:58.710Z</time>
</trkpt>
<trkpt lat="-28.3235167" lon="153.4170417">
<ele>0.000</ele>
<time>2018-01-24T03:25:00.686Z</time>
</trkpt>
<trkpt lat="-28.3233808" lon="153.4173587">
<ele>0.000</ele>
<time>2018-01-24T03:25:02.669Z</time>
</trkpt>
<trkpt lat="-28.3232479" lon="153.4176865">
<ele>0.000</ele>
<time>2018-01-24T03:25:04.698Z</time>
</trkpt>
<trkpt lat="-28.3231281" lon="153.4180141">
<ele>0.000</ele>
<time>2018-01-24T03:25:06.695Z</time>
</trkpt>
<trkpt lat="-28.3230058" lon="153.4183416">
<ele>0.000</ele>
<time>2018-01-24T03:25:08.699Z</time>
</trkpt>
<trkpt lat="-28.3228768" lon="153.4186674">
<ele>0.000</ele>
<time>2018-01-24T03:25:10.713Z</time>
</trkpt>
<trkpt lat="-28.3227546" lon="153.4189748">
<ele>0.000</ele>
<time>2018-01-24T03:25:12.601Z</time>
</trkpt>
<trkpt lat="-28.3226107" lon="153.4192994">
<ele>0.000</ele>
<time>2018-01-24T03:25:14.603Z</time>
</trkpt>
<trkpt lat="-28.3224669" lon="153.4196285">
<ele>0.000</ele>
<time>2018-01-24T03:25:16.603Z</time>
</trkpt>
<trkpt lat="-28.3223239" lon="153.4199595">
<ele>0.000</ele>
<time>2018-01-24T03:25:18.612Z</time>
</trkpt>
<trkpt lat="-28.3221807" lon="153.4202710">
<ele>0.000</ele>
<time>2018-01-24T03:25:20.558Z</time>
</trkpt>
<trkpt lat="-28.3220277" lon="153.4205793">
<ele>0.000</ele>
<time>2018-01-24T03:25:22.559Z</time>
</trkpt>
<trkpt lat="-28.3219042" lon="153.4208843">
<ele>0.000</ele>
<time>2018-01-24T03:25:24.464Z</time>
</trkpt>
<trkpt lat="-28.3217911" lon="153.4211997">
<ele>0.000</ele>
<time>2018-01-24T03:25:26.380Z</time>
</trkpt>
<trkpt lat="-28.3216689" lon="153.4215277">
<ele>0.000</ele>
<time>2018-01-24T03:25:28.366Z</time>
</trkpt>
<trkpt lat="-28.3215184" lon="153.4218472">
<ele>0.000</ele>
<time>2018-01-24T03:25:30.374Z</time>
</trkpt>
<trkpt lat="-28.3213749" lon="153.4221657">
<ele>0.000</ele>
<time>2018-01-24T03:25:32.349Z</time>
</trkpt>
<trkpt lat="-28.3212525" lon="153.4224832">
<ele>0.000</ele>
<time>2018-01-24T03:25:34.258Z</time>
</trkpt>
<trkpt lat="-28.3211353" lon="153.4228160">
<ele>0.000</ele>
<time>2018-01-24T03:25:36.247Z</time>
</trkpt>
<trkpt lat="-28.3210999" lon="153.4231483">
<ele>0.000</ele>
<time>2018-01-24T03:25:38.158Z</time>
</trkpt>
<trkpt lat="-28.3210745" lon="153.4234631">
<ele>0.000</ele>
<time>2018-01-24T03:25:40.054Z</time>
</trkpt>
<trkpt lat="-28.3210493" lon="153.4237569">
<ele>0.000</ele>
<time>2018-01-24T03:25:41.924Z</time>
</trkpt>
<trkpt lat="-28.3210460" lon="153.4240585">
<ele>0.000</ele>
<time>2018-01-24T03:25:43.911Z</time>
</trkpt>
<trkpt lat="-28.3210169" lon="153.4243425">
<ele>0.000</ele>
<time>2018-01-24T03:25:45.821Z</time>
</trkpt>
<trkpt lat="-28.3210025" lon="153.4246369">
<ele>0.000</ele>
<time>2018-01-24T03:25:47.786Z</time>
</trkpt>
<trkpt lat="-28.3209830" lon="153.4249426">
<ele>0.000</ele>
<time>2018-01-24T03:25:49.798Z</time>
</trkpt>
<trkpt lat="-28.3209346" lon="153.4252314">
<ele>0.000</ele>
<time>2018-01-24T03:25:51.697Z</time>
</trkpt>
<trkpt lat="-28.3208980" lon="153.4255468">
<ele>0.000</ele>
<time>2018-01-24T03:25:53.711Z</time>
</trkpt>
<trkpt lat="-28.3208670" lon="153.4258734">
<ele>0.000</ele>
<time>2018-01-24T03:25:55.748Z</time>
</trkpt>
<trkpt lat="-28.3208329" lon="153.4261973">
<ele>0.000</ele>
<time>2018-01-24T03:25:57.739Z</time>
</trkpt>
<trkpt lat="-28.3207904" lon="153.4265175">
<ele>0.000</ele>
<time>2018-01-24T03:25:59.695Z</time>
</trkpt>
<trkpt lat="-28.3207520" lon="153.4268441">
<ele>0.000</ele>
<time>2018-01-24T03:26:01.678Z</time>
</trkpt>
<trkpt lat="-28.3207043" lon="153.4271676">
<ele>0.000</ele>
<time>2018-01-24T03:26:03.656Z</time>
</trkpt>
<trkpt lat="-28.3206000" lon="153.4274836">
<ele>0.000</ele>
<time>2018-01-24T03:26:05.698Z</time>
</trkpt>
<trkpt lat="-28.3204818" lon="153.4277960">
<ele>0.000</ele>
<time>2018-01-24T03:26:07.743Z</time>
</trkpt>
<trkpt lat="-28.3203004" lon="153.4280742">
<ele>0.000</ele>
<time>2018-01-24T03:26:09.811Z</time>
</trkpt>
<trkpt lat="-28.3200420" lon="153.4284682">
<ele>0.000</ele>
<time>2018-01-24T03:26:12.775Z</time>
</trkpt>
<trkpt lat="-28.3198157" lon="153.4288706">
<ele>0.000</ele>
<time>2018-01-24T03:26:15.749Z</time>
</trkpt>
<trkpt lat="-28.3195935" lon="153.4292451">
<ele>0.000</ele>
<time>2018-01-24T03:26:18.633Z</time>
</trkpt>
<trkpt lat="-28.3193837" lon="153.4296196">
<ele>0.000</ele>
<time>2018-01-24T03:26:21.501Z</time>
</trkpt>
<trkpt lat="-28.3191497" lon="153.4299767">
<ele>0.000</ele>
<time>2018-01-24T03:26:24.419Z</time>
</trkpt>
<trkpt lat="-28.3189324" lon="153.4303455">
<ele>0.000</ele>
<time>2018-01-24T03:26:27.354Z</time>
</trkpt>
<trkpt lat="-28.3186901" lon="153.4307187">
<ele>0.000</ele>
<time>2018-01-24T03:26:30.363Z</time>
</trkpt>
<trkpt lat="-28.3184373" lon="153.4311002">
<ele>0.000</ele>
<time>2018-01-24T03:26:33.348Z</time>
</trkpt>
<trkpt lat="-28.3182344" lon="153.4314722">
<ele>0.000</ele>
<time>2018-01-24T03:26:36.022Z</time>
</trkpt>
<trkpt lat="-28.3179957" lon="153.4318564">
<ele>0.000</ele>
<time>2018-01-24T03:26:38.888Z</time>
</trkpt>
<trkpt lat="-28.3177611" lon="153.4322748">
<ele>0.000</ele>
<time>2018-01-24T03:26:41.918Z</time>
</trkpt>
<trkpt lat="-28.3175288" lon="153.4326608">
<ele>0.000</ele>
<time>2018-01-24T03:26:44.793Z</time>
</trkpt>
<trkpt lat="-28.3172848" lon="153.4330682">
<ele>0.000</ele>
<time>2018-01-24T03:26:47.840Z</time>
</trkpt>
<trkpt lat="-28.3170563" lon="153.4335230">
<ele>0.000</ele>
<time>2018-01-24T03:26:51.024Z</time>
</trkpt>
<trkpt lat="-28.3168237" lon="153.4338859">
<ele>0.000</ele>
<time>2018-01-24T03:26:53.776Z</time>
</trkpt>
<trkpt lat="-28.3165439" lon="153.4342461">
<ele>0.000</ele>
<time>2018-01-24T03:26:56.801Z</time>
</trkpt>
<trkpt lat="-28.3161725" lon="153.4346127">
<ele>0.000</ele>
<time>2018-01-24T03:27:00.024Z</time>
</trkpt>
<trkpt lat="-28.3157408" lon="153.4349573">
<ele>0.000</ele>
<time>2018-01-24T03:27:03.050Z</time>
</trkpt>
<trkpt lat="-28.3152561" lon="153.4352952">
<ele>0.000</ele>
<time>2018-01-24T03:27:06.131Z</time>
</trkpt>
<trkpt lat="-28.3147845" lon="153.4355213">
<ele>0.000</ele>
<time>2018-01-24T03:27:08.914Z</time>
</trkpt>
<trkpt lat="-28.3142972" lon="153.4357669">
<ele>0.000</ele>
<time>2018-01-24T03:27:11.872Z</time>
</trkpt>
<trkpt lat="-28.3137762" lon="153.4359636">
<ele>0.000</ele>
<time>2018-01-24T03:27:14.896Z</time>
</trkpt>
<trkpt lat="-28.3133351" lon="153.4360899">
<ele>0.000</ele>
<time>2018-01-24T03:27:17.507Z</time>
</trkpt>
<trkpt lat="-28.3129441" lon="153.4361899">
<ele>0.000</ele>
<time>2018-01-24T03:27:20.060Z</time>
</trkpt>
<trkpt lat="-28.3126004" lon="153.4362684">
<ele>0.000</ele>
<time>2018-01-24T03:27:22.540Z</time>
</trkpt>
<trkpt lat="-28.3122548" lon="153.4363398">
<ele>0.000</ele>
<time>2018-01-24T03:27:25.230Z</time>
</trkpt>
<trkpt lat="-28.3119661" lon="153.4363651">
<ele>0.000</ele>
<time>2018-01-24T03:27:27.577Z</time>
</trkpt>
<trkpt lat="-28.3117763" lon="153.4363893">
<ele>0.000</ele>
<time>2018-01-24T03:27:29.239Z</time>
</trkpt>
<trkpt lat="-28.3117674" lon="153.4365249">
<ele>0.000</ele>
<time>2018-01-24T03:27:30.352Z</time>
</trkpt>
<trkpt lat="-28.3117831" lon="153.4367053">
<ele>0.000</ele>
<time>2018-01-24T03:27:32.089Z</time>
</trkpt>
<trkpt lat="-28.3118282" lon="153.4370768">
<ele>0.000</ele>
<time>2018-01-24T03:27:37.226Z</time>
</trkpt>
<trkpt lat="-28.3118674" lon="153.4374060">
<ele>0.000</ele>
<time>2018-01-24T03:27:40.899Z</time>
</trkpt>
<trkpt lat="-28.3119002" lon="153.4377254">
<ele>0.000</ele>
<time>2018-01-24T03:27:43.301Z</time>
</trkpt>
<trkpt lat="-28.3119534" lon="153.4380604">
<ele>0.000</ele>
<time>2018-01-24T03:27:45.413Z</time>
</trkpt>
<trkpt lat="-28.3120609" lon="153.4386129">
<ele>0.000</ele>
<time>2018-01-24T03:27:48.633Z</time>
</trkpt>
<trkpt lat="-28.3121474" lon="153.4390219">
<ele>0.000</ele>
<time>2018-01-24T03:27:50.903Z</time>
</trkpt>
<trkpt lat="-28.3122874" lon="153.4394321">
<ele>0.000</ele>
<time>2018-01-24T03:27:53.092Z</time>
</trkpt>
<trkpt lat="-28.3123661" lon="153.4398588">
<ele>0.000</ele>
<time>2018-01-24T03:27:55.136Z</time>
</trkpt>
<trkpt lat="-28.3124506" lon="153.4402938">
<ele>0.000</ele>
<time>2018-01-24T03:27:57.166Z</time>
</trkpt>
<trkpt lat="-28.3125438" lon="153.4407252">
<ele>0.000</ele>
<time>2018-01-24T03:27:59.164Z</time>
</trkpt>
<trkpt lat="-28.3126037" lon="153.4411507">
<ele>0.000</ele>
<time>2018-01-24T03:28:01.091Z</time>
</trkpt>
<trkpt lat="-28.3126861" lon="153.4415654">
<ele>0.000</ele>
<time>2018-01-24T03:28:02.991Z</time>
</trkpt>
<trkpt lat="-28.3127406" lon="153.4419969">
<ele>0.000</ele>
<time>2018-01-24T03:28:04.945Z</time>
</trkpt>
<trkpt lat="-28.3127953" lon="153.4424425">
<ele>0.000</ele>
<time>2018-01-24T03:28:06.969Z</time>
</trkpt>
<trkpt lat="-28.3128584" lon="153.4428648">
<ele>0.000</ele>
<time>2018-01-24T03:28:08.897Z</time>
</trkpt>
<trkpt lat="-28.3129489" lon="153.4432870">
<ele>0.000</ele>
<time>2018-01-24T03:28:10.849Z</time>
</trkpt>
<trkpt lat="-28.3130052" lon="153.4436858">
<ele>0.000</ele>
<time>2018-01-24T03:28:12.667Z</time>
</trkpt>
<trkpt lat="-28.3130310" lon="153.4440830">
<ele>0.000</ele>
<time>2018-01-24T03:28:14.487Z</time>
</trkpt>
<trkpt lat="-28.3130862" lon="153.4444440">
<ele>0.000</ele>
<time>2018-01-24T03:28:16.221Z</time>
</trkpt>
<trkpt lat="-28.3131207" lon="153.4447642">
<ele>0.000</ele>
<time>2018-01-24T03:28:17.838Z</time>
</trkpt>
<trkpt lat="-28.3131816" lon="153.4450493">
<ele>0.000</ele>
<time>2018-01-24T03:28:19.437Z</time>
</trkpt>
<trkpt lat="-28.3132238" lon="153.4452773">
<ele>0.000</ele>
<time>2018-01-24T03:28:20.802Z</time>
</trkpt>
<trkpt lat="-28.3132497" lon="153.4455028">
<ele>0.000</ele>
<time>2018-01-24T03:28:22.221Z</time>
</trkpt>
<trkpt lat="-28.3132821" lon="153.4456879">
<ele>0.000</ele>
<time>2018-01-24T03:28:23.527Z</time>
</trkpt>
<trkpt lat="-28.3132388" lon="153.4458227">
<ele>0.000</ele>
<time>2018-01-24T03:28:24.594Z</time>
</trkpt>
<trkpt lat="-28.3130951" lon="153.4458687">
<ele>0.000</ele>
<time>2018-01-24T03:28:25.935Z</time>
</trkpt>
<trkpt lat="-28.3129173" lon="153.4459134">
<ele>0.000</ele>
<time>2018-01-24T03:28:27.820Z</time>
</trkpt>
<trkpt lat="-28.3126828" lon="153.4459552">
<ele>0.000</ele>
<time>2018-01-24T03:28:31.010Z</time>
</trkpt>
<trkpt lat="-28.3124045" lon="153.4460181">
<ele>0.000</ele>
<time>2018-01-24T03:28:34.620Z</time>
</trkpt>
<trkpt lat="-28.3120964" lon="153.4461095">
<ele>0.000</ele>
<time>2018-01-24T03:28:37.421Z</time>
</trkpt>
<trkpt lat="-28.3117541" lon="153.4462527">
<ele>0.000</ele>
<time>2018-01-24T03:28:39.975Z</time>
</trkpt>
<trkpt lat="-28.3113709" lon="153.4464466">
<ele>0.000</ele>
<time>2018-01-24T03:28:42.450Z</time>
</trkpt>
<trkpt lat="-28.3110148" lon="153.4466228">
<ele>0.000</ele>
<time>2018-01-24T03:28:44.542Z</time>
</trkpt>
<trkpt lat="-28.3106797" lon="153.4468218">
<ele>0.000</ele>
<time>2018-01-24T03:28:46.477Z</time>
</trkpt>
<trkpt lat="-28.3103273" lon="153.4469938">
<ele>0.000</ele>
<time>2018-01-24T03:28:48.415Z</time>
</trkpt>
<trkpt lat="-28.3100006" lon="153.4471619">
<ele>0.000</ele>
<time>2018-01-24T03:28:50.244Z</time>
</trkpt>
<trkpt lat="-28.3096615" lon="153.4473103">
<ele>0.000</ele>
<time>2018-01-24T03:28:52.147Z</time>
</trkpt>
<trkpt lat="-28.3093440" lon="153.4474508">
<ele>0.000</ele>
<time>2018-01-24T03:28:53.981Z</time>
</trkpt>
<trkpt lat="-28.3090225" lon="153.4476005">
<ele>0.000</ele>
<time>2018-01-24T03:28:55.901Z</time>
</trkpt>
<trkpt lat="-28.3087259" lon="153.4478246">
<ele>0.000</ele>
<time>2018-01-24T03:28:57.917Z</time>
</trkpt>
<trkpt lat="-28.3084903" lon="153.4480923">
<ele>0.000</ele>
<time>2018-01-24T03:28:59.818Z</time>
</trkpt>
<trkpt lat="-28.3083682" lon="153.4484539">
<ele>0.000</ele>
<time>2018-01-24T03:29:01.781Z</time>
</trkpt>
<trkpt lat="-28.3083326" lon="153.4488438">
<ele>0.000</ele>
<time>2018-01-24T03:29:03.807Z</time>
</trkpt>
<trkpt lat="-28.3083788" lon="153.4492625">
<ele>0.000</ele>
<time>2018-01-24T03:29:06.013Z</time>
</trkpt>
<trkpt lat="-28.3084577" lon="153.4497054">
<ele>0.000</ele>
<time>2018-01-24T03:29:08.256Z</time>
</trkpt>
<trkpt lat="-28.3085255" lon="153.4501850">
<ele>0.000</ele>
<time>2018-01-24T03:29:10.477Z</time>
</trkpt>
<trkpt lat="-28.3086209" lon="153.4506439">
<ele>0.000</ele>
<time>2018-01-24T03:29:12.501Z</time>
</trkpt>
<trkpt lat="-28.3086968" lon="153.4511015">
<ele>0.000</ele>
<time>2018-01-24T03:29:14.437Z</time>
</trkpt>
<trkpt lat="-28.3087418" lon="153.4515675">
<ele>0.000</ele>
<time>2018-01-24T03:29:16.370Z</time>
</trkpt>
<trkpt lat="-28.3088250" lon="153.4520174">
<ele>0.000</ele>
<time>2018-01-24T03:29:18.276Z</time>
</trkpt>
<trkpt lat="-28.3089007" lon="153.4524699">
<ele>0.000</ele>
<time>2018-01-24T03:29:20.212Z</time>
</trkpt>
<trkpt lat="-28.3089480" lon="153.4529198">
<ele>0.000</ele>
<time>2018-01-24T03:29:22.130Z</time>
</trkpt>
<trkpt lat="-28.3090219" lon="153.4533518">
<ele>0.000</ele>
<time>2018-01-24T03:29:24.001Z</time>
</trkpt>
<trkpt lat="-28.3091066" lon="153.4537939">
<ele>0.000</ele>
<time>2018-01-24T03:29:25.944Z</time>
</trkpt>
<trkpt lat="-28.3091454" lon="153.4542312">
<ele>0.000</ele>
<time>2018-01-24T03:29:27.860Z</time>
</trkpt>
<trkpt lat="-28.3092361" lon="153.4546652">
<ele>0.000</ele>
<time>2018-01-24T03:29:29.831Z</time>
</trkpt>
<trkpt lat="-28.3093025" lon="153.4551274">
<ele>0.000</ele>
<time>2018-01-24T03:29:31.903Z</time>
</trkpt>
<trkpt lat="-28.3093654" lon="153.4555900">
<ele>0.000</ele>
<time>2018-01-24T03:29:33.942Z</time>
</trkpt>
<trkpt lat="-28.3094468" lon="153.4560492">
<ele>0.000</ele>
<time>2018-01-24T03:29:35.941Z</time>
</trkpt>
<trkpt lat="-28.3095462" lon="153.4565140">
<ele>0.000</ele>
<time>2018-01-24T03:29:37.958Z</time>
</trkpt>
<trkpt lat="-28.3097241" lon="153.4569323">
<ele>0.000</ele>
<time>2018-01-24T03:29:39.900Z</time>
</trkpt>
<trkpt lat="-28.3098457" lon="153.4573747">
<ele>0.000</ele>
<time>2018-01-24T03:29:41.831Z</time>
</trkpt>
<trkpt lat="-28.3099486" lon="153.4578244">
<ele>0.000</ele>
<time>2018-01-24T03:29:43.779Z</time>
</trkpt>
<trkpt lat="-28.3100833" lon="153.4582685">
<ele>0.000</ele>
<time>2018-01-24T03:29:45.761Z</time>
</trkpt>
<trkpt lat="-28.3102066" lon="153.4587127">
<ele>0.000</ele>
<time>2018-01-24T03:29:47.740Z</time>
</trkpt>
<trkpt lat="-28.3103346" lon="153.4591342">
<ele>0.000</ele>
<time>2018-01-24T03:29:49.648Z</time>
</trkpt>
<trkpt lat="-28.3104562" lon="153.4595882">
<ele>0.000</ele>
<time>2018-01-24T03:29:51.678Z</time>
</trkpt>
<trkpt lat="-28.3105465" lon="153.4600354">
<ele>0.000</ele>
<time>2018-01-24T03:29:53.621Z</time>
</trkpt>
<trkpt lat="-28.3106859" lon="153.4604739">
<ele>0.000</ele>
<time>2018-01-24T03:29:55.574Z</time>
</trkpt>
<trkpt lat="-28.3108265" lon="153.4609338">
<ele>0.000</ele>
<time>2018-01-24T03:29:57.590Z</time>
</trkpt>
<trkpt lat="-28.3109688" lon="153.4613989">
<ele>0.000</ele>
<time>2018-01-24T03:29:59.615Z</time>
</trkpt>
<trkpt lat="-28.3110812" lon="153.4618306">
<ele>0.000</ele>
<time>2018-01-24T03:30:01.465Z</time>
</trkpt>
<trkpt lat="-28.3112056" lon="153.4622906">
<ele>0.000</ele>
<time>2018-01-24T03:30:03.447Z</time>
</trkpt>
<trkpt lat="-28.3113321" lon="153.4627304">
<ele>0.000</ele>
<time>2018-01-24T03:30:05.362Z</time>
</trkpt>
<trkpt lat="-28.3114456" lon="153.4631430">
<ele>0.000</ele>
<time>2018-01-24T03:30:07.168Z</time>
</trkpt>
<trkpt lat="-28.3115702" lon="153.4635366">
<ele>0.000</ele>
<time>2018-01-24T03:30:08.942Z</time>
</trkpt>
<trkpt lat="-28.3116835" lon="153.4639382">
<ele>0.000</ele>
<time>2018-01-24T03:30:10.767Z</time>
</trkpt>
<trkpt lat="-28.3117779" lon="153.4643089">
<ele>0.000</ele>
<time>2018-01-24T03:30:12.471Z</time>
</trkpt>
<trkpt lat="-28.3118779" lon="153.4646770">
<ele>0.000</ele>
<time>2018-01-24T03:30:14.211Z</time>
</trkpt>
<trkpt lat="-28.3119024" lon="153.4649906">
<ele>0.000</ele>
<time>2018-01-24T03:30:15.680Z</time>
</trkpt>
<trkpt lat="-28.3118012" lon="153.4652684">
<ele>0.000</ele>
<time>2018-01-24T03:30:17.144Z</time>
</trkpt>
<trkpt lat="-28.3115983" lon="153.4655491">
<ele>0.000</ele>
<time>2018-01-24T03:30:19.028Z</time>
</trkpt>
<trkpt lat="-28.3113502" lon="153.4657666">
<ele>0.000</ele>
<time>2018-01-24T03:30:21.084Z</time>
</trkpt>
<trkpt lat="-28.3111412" lon="153.4659855">
<ele>0.000</ele>
<time>2018-01-24T03:30:23.089Z</time>
</trkpt>
<trkpt lat="-28.3109633" lon="153.4662380">
<ele>0.000</ele>
<time>2018-01-24T03:30:25.069Z</time>
</trkpt>
<trkpt lat="-28.3108608" lon="153.4665550">
<ele>0.000</ele>
<time>2018-01-24T03:30:27.083Z</time>
</trkpt>
<trkpt lat="-28.3107579" lon="153.4669626">
<ele>0.000</ele>
<time>2018-01-24T03:30:29.616Z</time>
</trkpt>
<trkpt lat="-28.3106070" lon="153.4673500">
<ele>0.000</ele>
<time>2018-01-24T03:30:32.047Z</time>
</trkpt>
<trkpt lat="-28.3104613" lon="153.4678124">
<ele>0.000</ele>
<time>2018-01-24T03:30:34.536Z</time>
</trkpt>
<trkpt lat="-28.3103138" lon="153.4683186">
<ele>0.000</ele>
<time>2018-01-24T03:30:37.018Z</time>
</trkpt>
<trkpt lat="-28.3101507" lon="153.4687925">
<ele>0.000</ele>
<time>2018-01-24T03:30:39.226Z</time>
</trkpt>
<trkpt lat="-28.3099887" lon="153.4692226">
<ele>0.000</ele>
<time>2018-01-24T03:30:41.149Z</time>
</trkpt>
<trkpt lat="-28.3098163" lon="153.4696609">
<ele>0.000</ele>
<time>2018-01-24T03:30:43.085Z</time>
</trkpt>
<trkpt lat="-28.3096788" lon="153.4700521">
<ele>0.000</ele>
<time>2018-01-24T03:30:44.799Z</time>
</trkpt>
<trkpt lat="-28.3095937" lon="153.4704173">
<ele>0.000</ele>
<time>2018-01-24T03:30:46.373Z</time>
</trkpt>
<trkpt lat="-28.3096536" lon="153.4708002">
<ele>0.000</ele>
<time>2018-01-24T03:30:48.069Z</time>
</trkpt>
<trkpt lat="-28.3097256" lon="153.4712397">
<ele>0.000</ele>
<time>2018-01-24T03:30:50.187Z</time>
</trkpt>
<trkpt lat="-28.3097379" lon="153.4717042">
<ele>0.000</ele>
<time>2018-01-24T03:30:52.433Z</time>
</trkpt>
<trkpt lat="-28.3096669" lon="153.4721353">
<ele>0.000</ele>
<time>2018-01-24T03:30:54.436Z</time>
</trkpt>
<trkpt lat="-28.3096073" lon="153.4725499">
<ele>0.000</ele>
<time>2018-01-24T03:30:56.257Z</time>
</trkpt>
<trkpt lat="-28.3095477" lon="153.4729725">
<ele>0.000</ele>
<time>2018-01-24T03:30:58.087Z</time>
</trkpt>
<trkpt lat="-28.3094784" lon="153.4733943">
<ele>0.000</ele>
<time>2018-01-24T03:30:59.943Z</time>
</trkpt>
<trkpt lat="-28.3093433" lon="153.4738249">
<ele>0.000</ele>
<time>2018-01-24T03:31:01.952Z</time>
</trkpt>
<trkpt lat="-28.3090658" lon="153.4741909">
<ele>0.000</ele>
<time>2018-01-24T03:31:04.104Z</time>
</trkpt>
<trkpt lat="-28.3088287" lon="153.4745263">
<ele>0.000</ele>
<time>2018-01-24T03:31:06.049Z</time>
</trkpt>
<trkpt lat="-28.3086223" lon="153.4748355">
<ele>0.000</ele>
<time>2018-01-24T03:31:07.819Z</time>
</trkpt>
<trkpt lat="-28.3084313" lon="153.4751363">
<ele>0.000</ele>
<time>2018-01-24T03:31:09.528Z</time>
</trkpt>
<trkpt lat="-28.3082481" lon="153.4754443">
<ele>0.000</ele>
<time>2018-01-24T03:31:11.293Z</time>
</trkpt>
<trkpt lat="-28.3080523" lon="153.4757685">
<ele>0.000</ele>
<time>2018-01-24T03:31:13.246Z</time>
</trkpt>
<trkpt lat="-28.3078573" lon="153.4761046">
<ele>0.000</ele>
<time>2018-01-24T03:31:15.313Z</time>
</trkpt>
<trkpt lat="-28.3076432" lon="153.4764289">
<ele>0.000</ele>
<time>2018-01-24T03:31:17.382Z</time>
</trkpt>
<trkpt lat="-28.3074506" lon="153.4767516">
<ele>0.000</ele>
<time>2018-01-24T03:31:19.319Z</time>
</trkpt>
<trkpt lat="-28.3073050" lon="153.4770523">
<ele>0.000</ele>
<time>2018-01-24T03:31:20.988Z</time>
</trkpt>
<trkpt lat="-28.3073157" lon="153.4773439">
<ele>0.000</ele>
<time>2018-01-24T03:31:22.406Z</time>
</trkpt>
<trkpt lat="-28.3074723" lon="153.4776494">
<ele>0.000</ele>
<time>2018-01-24T03:31:24.169Z</time>
</trkpt>
<trkpt lat="-28.3076900" lon="153.4779363">
<ele>0.000</ele>
<time>2018-01-24T03:31:26.203Z</time>
</trkpt>
<trkpt lat="-28.3080096" lon="153.4783770">
<ele>0.000</ele>
<time>2018-01-24T03:31:29.561Z</time>
</trkpt>
<trkpt lat="-28.3082222" lon="153.4786986">
<ele>0.000</ele>
<time>2018-01-24T03:31:31.819Z</time>
</trkpt>
<trkpt lat="-28.3083444" lon="153.4791156">
<ele>0.000</ele>
<time>2018-01-24T03:31:34.106Z</time>
</trkpt>
<trkpt lat="-28.3083649" lon="153.4796246">
<ele>0.000</ele>
<time>2018-01-24T03:31:36.679Z</time>
</trkpt>
<trkpt lat="-28.3083783" lon="153.4801497">
<ele>0.000</ele>
<time>2018-01-24T03:31:39.154Z</time>
</trkpt>
<trkpt lat="-28.3083747" lon="153.4806584">
<ele>0.000</ele>
<time>2018-01-24T03:31:41.301Z</time>
</trkpt>
<trkpt lat="-28.3083929" lon="153.4811138">
<ele>0.000</ele>
<time>2018-01-24T03:31:43.097Z</time>
</trkpt>
<trkpt lat="-28.3084141" lon="153.4815359">
<ele>0.000</ele>
<time>2018-01-24T03:31:44.741Z</time>
</trkpt>
<trkpt lat="-28.3084256" lon="153.4819629">
<ele>0.000</ele>
<time>2018-01-24T03:31:46.452Z</time>
</trkpt>
<trkpt lat="-28.3084275" lon="153.4823731">
<ele>0.000</ele>
<time>2018-01-24T03:31:48.162Z</time>
</trkpt>
<trkpt lat="-28.3083574" lon="153.4827933">
<ele>0.000</ele>
<time>2018-01-24T03:31:50.017Z</time>
</trkpt>
<trkpt lat="-28.3082297" lon="153.4831916">
<ele>0.000</ele>
<time>2018-01-24T03:31:51.918Z</time>
</trkpt>
<trkpt lat="-28.3081478" lon="153.4836155">
<ele>0.000</ele>
<time>2018-01-24T03:31:53.905Z</time>
</trkpt>
<trkpt lat="-28.3080675" lon="153.4840378">
<ele>0.000</ele>
<time>2018-01-24T03:31:55.898Z</time>
</trkpt>
<trkpt lat="-28.3079812" lon="153.4844737">
<ele>0.000</ele>
<time>2018-01-24T03:31:57.961Z</time>
</trkpt>
<trkpt lat="-28.3078663" lon="153.4848954">
<ele>0.000</ele>
<time>2018-01-24T03:31:59.992Z</time>
</trkpt>
<trkpt lat="-28.3077894" lon="153.4852976">
<ele>0.000</ele>
<time>2018-01-24T03:32:01.868Z</time>
</trkpt>
<trkpt lat="-28.3076919" lon="153.4856790">
<ele>0.000</ele>
<time>2018-01-24T03:32:03.663Z</time>
</trkpt>
<trkpt lat="-28.3076202" lon="153.4860580">
<ele>0.000</ele>
<time>2018-01-24T03:32:05.410Z</time>
</trkpt>
<trkpt lat="-28.3075690" lon="153.4864613">
<ele>0.000</ele>
<time>2018-01-24T03:32:07.263Z</time>
</trkpt>
<trkpt lat="-28.3075578" lon="153.4868740">
<ele>0.000</ele>
<time>2018-01-24T03:32:09.193Z</time>
</trkpt>
<trkpt lat="-28.3075270" lon="153.4872652">
<ele>0.000</ele>
<time>2018-01-24T03:32:11.088Z</time>
</trkpt>
<trkpt lat="-28.3074731" lon="153.4876518">
<ele>0.000</ele>
<time>2018-01-24T03:32:12.996Z</time>
</trkpt>
<trkpt lat="-28.3074112" lon="153.4880277">
<ele>0.000</ele>
<time>2018-01-24T03:32:14.844Z</time>
</trkpt>
<trkpt lat="-28.3073420" lon="153.4884151">
<ele>0.000</ele>
<time>2018-01-24T03:32:16.749Z</time>
</trkpt>
<trkpt lat="-28.3073023" lon="153.4888181">
<ele>0.000</ele>
<time>2018-01-24T03:32:18.708Z</time>
</trkpt>
<trkpt lat="-28.3073128" lon="153.4892033">
<ele>0.000</ele>
<time>2018-01-24T03:32:20.593Z</time>
</trkpt>
<trkpt lat="-28.3073274" lon="153.4895595">
<ele>0.000</ele>
<time>2018-01-24T03:32:22.364Z</time>
</trkpt>
<trkpt lat="-28.3074926" lon="153.4898779">
<ele>0.000</ele>
<time>2018-01-24T03:32:24.202Z</time>
</trkpt>
<trkpt lat="-28.3077296" lon="153.4901059">
<ele>0.000</ele>
<time>2018-01-24T03:32:25.948Z</time>
</trkpt>
<trkpt lat="-28.3080401" lon="153.4902866">
<ele>0.000</ele>
<time>2018-01-24T03:32:27.934Z</time>
</trkpt>
<trkpt lat="-28.3083598" lon="153.4904169">
<ele>0.000</ele>
<time>2018-01-24T03:32:29.941Z</time>
</trkpt>
<trkpt lat="-28.3086533" lon="153.4905532">
<ele>0.000</ele>
<time>2018-01-24T03:32:31.907Z</time>
</trkpt>
<trkpt lat="-28.3089206" lon="153.4907476">
<ele>0.000</ele>
<time>2018-01-24T03:32:33.941Z</time>
</trkpt>
<trkpt lat="-28.3092026" lon="153.4909269">
<ele>0.000</ele>
<time>2018-01-24T03:32:35.988Z</time>
</trkpt>
<trkpt lat="-28.3094843" lon="153.4910988">
<ele>0.000</ele>
<time>2018-01-24T03:32:37.948Z</time>
</trkpt>
<trkpt lat="-28.3097797" lon="153.4912669">
<ele>0.000</ele>
<time>2018-01-24T03:32:39.962Z</time>
</trkpt>
<trkpt lat="-28.3100768" lon="153.4914360">
<ele>0.000</ele>
<time>2018-01-24T03:32:42.014Z</time>
</trkpt>
<trkpt lat="-28.3103889" lon="153.4915344">
<ele>0.000</ele>
<time>2018-01-24T03:32:44.020Z</time>
</trkpt>
<trkpt lat="-28.3107421" lon="153.4915282">
<ele>0.000</ele>
<time>2018-01-24T03:32:46.187Z</time>
</trkpt>
<trkpt lat="-28.3110647" lon="153.4914801">
<ele>0.000</ele>
<time>2018-01-24T03:32:48.182Z</time>
</trkpt>
<trkpt lat="-28.3113739" lon="153.4914533">
<ele>0.000</ele>
<time>2018-01-24T03:32:50.086Z</time>
</trkpt>
<trkpt lat="-28.3116645" lon="153.4914711">
<ele>0.000</ele>
<time>2018-01-24T03:32:51.862Z</time>
</trkpt>
<trkpt lat="-28.3119723" lon="153.4914841">
<ele>0.584</ele>
<time>2018-01-24T03:32:53.736Z</time>
</trkpt>
<trkpt lat="-28.3122731" lon="153.4915090">
<ele>1.893</ele>
<time>2018-01-24T03:32:55.589Z</time>
</trkpt>
<trkpt lat="-28.3125551" lon="153.4915754">
<ele>4.004</ele>
<time>2018-01-24T03:32:57.390Z</time>
</trkpt>
<trkpt lat="-28.3127867" lon="153.4917266">
<ele>6.888</ele>
<time>2018-01-24T03:32:59.087Z</time>
</trkpt>
<trkpt lat="-28.3129248" lon="153.4919889">
<ele>10.303</ele>
<time>2018-01-24T03:33:00.824Z</time>
</trkpt>
<trkpt lat="-28.3129335" lon="153.4922923">
<ele>13.872</ele>
<time>2018-01-24T03:33:02.579Z</time>
</trkpt>
<trkpt lat="-28.3127593" lon="153.4925658">
<ele>17.004</ele>
<time>2018-01-24T03:33:04.578Z</time>
</trkpt>
<trkpt lat="-28.3124251" lon="153.4928204">
<ele>19.300</ele>
<time>2018-01-24T03:33:07.438Z</time>
</trkpt>
<trkpt lat="-28.3121520" lon="153.4931653">
<ele>21.249</ele>
<time>2018-01-24T03:33:10.615Z</time>
</trkpt>
<trkpt lat="-28.3121142" lon="153.4935786">
<ele>24.066</ele>
<time>2018-01-24T03:33:13.290Z</time>
</trkpt>
<trkpt lat="-28.3123317" lon="153.4940047">
<ele>28.554</ele>
<time>2018-01-24T03:33:16.205Z</time>
</trkpt>
<trkpt lat="-28.3124234" lon="153.4944157">
<ele>34.231</ele>
<time>2018-01-24T03:33:18.870Z</time>
</trkpt>
<trkpt lat="-28.3121419" lon="153.4947752">
<ele>39.794</ele>
<time>2018-01-24T03:33:22.114Z</time>
</trkpt>
<trkpt lat="-28.3116780" lon="153.4950061">
<ele>44.284</ele>
<time>2018-01-24T03:33:25.827Z</time>
</trkpt>
<trkpt lat="-28.3113418" lon="153.4952704">
<ele>47.783</ele>
<time>2018-01-24T03:33:28.924Z</time>
</trkpt>
<trkpt lat="-28.3112676" lon="153.4956167">
<ele>50.823</ele>
<time>2018-01-24T03:33:31.247Z</time>
</trkpt>
<trkpt lat="-28.3113679" lon="153.4961181">
<ele>53.446</ele>
<time>2018-01-24T03:33:34.417Z</time>
</trkpt>
<trkpt lat="-28.3115015" lon="153.4966713">
<ele>55.245</ele>
<time>2018-01-24T03:33:38.203Z</time>
</trkpt>
<trkpt lat="-28.3115447" lon="153.4972121">
<ele>56.051</ele>
<time>2018-01-24T03:33:41.957Z</time>
</trkpt>
<trkpt lat="-28.3115084" lon="153.4976814">
<ele>56.713</ele>
<time>2018-01-24T03:33:44.653Z</time>
</trkpt>
<trkpt lat="-28.3112025" lon="153.4980780">
<ele>58.611</ele>
<time>2018-01-24T03:33:47.543Z</time>
</trkpt>
<trkpt lat="-28.3110656" lon="153.4985103">
<ele>61.953</ele>
<time>2018-01-24T03:33:50.195Z</time>
</trkpt>
<trkpt lat="-28.3110263" lon="153.4989913">
<ele>65.342</ele>
<time>2018-01-24T03:33:53.154Z</time>
</trkpt>
<trkpt lat="-28.3108762" lon="153.4994973">
<ele>66.989</ele>
<time>2018-01-24T03:33:56.519Z</time>
</trkpt>
<trkpt lat="-28.3104769" lon="153.4999881">
<ele>65.894</ele>
<time>2018-01-24T03:34:00.686Z</time>
</trkpt>
<trkpt lat="-28.3101589" lon="153.5004260">
<ele>62.467</ele>
<time>2018-01-24T03:34:03.924Z</time>
</trkpt>
<trkpt lat="-28.3099867" lon="153.5008584">
<ele>58.151</ele>
<time>2018-01-24T03:34:06.429Z</time>
</trkpt>
<trkpt lat="-28.3100122" lon="153.5013189">
<ele>54.188</ele>
<time>2018-01-24T03:34:08.811Z</time>
</trkpt>
<trkpt lat="-28.3098986" lon="153.5017224">
<ele>50.902</ele>
<time>2018-01-24T03:34:11.174Z</time>
</trkpt>
<trkpt lat="-28.3095581" lon="153.5020044">
<ele>48.276</ele>
<time>2018-01-24T03:34:14.101Z</time>
</trkpt>
<trkpt lat="-28.3093200" lon="153.5023837">
<ele>46.384</ele>
<time>2018-01-24T03:34:17.225Z</time>
</trkpt>
<trkpt lat="-28.3093472" lon="153.5028068">
<ele>45.059</ele>
<time>2018-01-24T03:34:20.171Z</time>
</trkpt>
<trkpt lat="-28.3094308" lon="153.5032787">
<ele>43.839</ele>
<time>2018-01-24T03:34:23.462Z</time>
</trkpt>
<trkpt lat="-28.3095991" lon="153.5037281">
<ele>42.461</ele>
<time>2018-01-24T03:34:26.708Z</time>
</trkpt>
<trkpt lat="-28.3099394" lon="153.5040357">
<ele>41.212</ele>
<time>2018-01-24T03:34:29.877Z</time>
</trkpt>
<trkpt lat="-28.3100100" lon="153.5044262">
<ele>40.535</ele>
<time>2018-01-24T03:34:32.336Z</time>
</trkpt>
<trkpt lat="-28.3098644" lon="153.5048699">
<ele>40.610</ele>
<time>2018-01-24T03:34:35.313Z</time>
</trkpt>
<trkpt lat="-28.3098834" lon="153.5053598">
<ele>41.215</ele>
<time>2018-01-24T03:34:38.726Z</time>
</trkpt>
<trkpt lat="-28.3100368" lon="153.5057533">
<ele>41.997</ele>
<time>2018-01-24T03:34:41.823Z</time>
</trkpt>
<trkpt lat="-28.3101609" lon="153.5061311">
<ele>42.858</ele>
<time>2018-01-24T03:34:44.553Z</time>
</trkpt>
<trkpt lat="-28.3102020" lon="153.5065418">
<ele>43.746</ele>
<time>2018-01-24T03:34:47.104Z</time>
</trkpt>
<trkpt lat="-28.3102341" lon="153.5069654">
<ele>44.460</ele>
<time>2018-01-24T03:34:49.365Z</time>
</trkpt>
<trkpt lat="-28.3102838" lon="153.5073672">
<ele>45.018</ele>
<time>2018-01-24T03:34:51.411Z</time>
</trkpt>
<trkpt lat="-28.3103298" lon="153.5077991">
<ele>45.529</ele>
<time>2018-01-24T03:34:53.513Z</time>
</trkpt>
<trkpt lat="-28.3103947" lon="153.5082208">
<ele>45.929</ele>
<time>2018-01-24T03:34:55.520Z</time>
</trkpt>
<trkpt lat="-28.3104134" lon="153.5086341">
<ele>46.048</ele>
<time>2018-01-24T03:34:57.422Z</time>
</trkpt>
<trkpt lat="-28.3103827" lon="153.5090711">
<ele>45.751</ele>
<time>2018-01-24T03:34:59.425Z</time>
</trkpt>
<trkpt lat="-28.3102816" lon="153.5094858">
<ele>45.176</ele>
<time>2018-01-24T03:35:01.410Z</time>
</trkpt>
<trkpt lat="-28.3101610" lon="153.5098756">
<ele>44.744</ele>
<time>2018-01-24T03:35:03.334Z</time>
</trkpt>
<trkpt lat="-28.3100329" lon="153.5102288">
<ele>44.726</ele>
<time>2018-01-24T03:35:05.118Z</time>
</trkpt>
<trkpt lat="-28.3098193" lon="153.5105128">
<ele>44.988</ele>
<time>2018-01-24T03:35:06.883Z</time>
</trkpt>
<trkpt lat="-28.3095288" lon="153.5107353">
<ele>44.952</ele>
<time>2018-01-24T03:35:08.827Z</time>
</trkpt>
<trkpt lat="-28.3092390" lon="153.5108939">
<ele>43.936</ele>
<time>2018-01-24T03:35:10.684Z</time>
</trkpt>
<trkpt lat="-28.3090012" lon="153.5110650">
<ele>41.978</ele>
<time>2018-01-24T03:35:12.354Z</time>
</trkpt>
<trkpt lat="-28.3088632" lon="153.5113056">
<ele>39.980</ele>
<time>2018-01-24T03:35:13.887Z</time>
</trkpt>
<trkpt lat="-28.3088518" lon="153.5116129">
<ele>38.748</ele>
<time>2018-01-24T03:35:15.574Z</time>
</trkpt>
<trkpt lat="-28.3090642" lon="153.5119492">
<ele>38.138</ele>
<time>2018-01-24T03:35:18.002Z</time>
</trkpt>
<trkpt lat="-28.3092232" lon="153.5123128">
<ele>37.316</ele>
<time>2018-01-24T03:35:20.677Z</time>
</trkpt>
<trkpt lat="-28.3094147" lon="153.5126223">
<ele>35.917</ele>
<time>2018-01-24T03:35:23.090Z</time>
</trkpt>
<trkpt lat="-28.3095992" lon="153.5129307">
<ele>34.491</ele>
<time>2018-01-24T03:35:25.148Z</time>
</trkpt>
<trkpt lat="-28.3097429" lon="153.5132910">
<ele>33.587</ele>
<time>2018-01-24T03:35:27.293Z</time>
</trkpt>
<trkpt lat="-28.3097747" lon="153.5136970">
<ele>33.045</ele>
<time>2018-01-24T03:35:29.549Z</time>
</trkpt>
<trkpt lat="-28.3097735" lon="153.5141447">
<ele>32.366</ele>
<time>2018-01-24T03:35:31.998Z</time>
</trkpt>
<trkpt lat="-28.3097694" lon="153.5145745">
<ele>31.133</ele>
<time>2018-01-24T03:35:34.231Z</time>
</trkpt>
<trkpt lat="-28.3097632" lon="153.5149966">
<ele>29.192</ele>
<time>2018-01-24T03:35:36.286Z</time>
</trkpt>
<trkpt lat="-28.3097452" lon="153.5154088">
<ele>26.743</ele>
<time>2018-01-24T03:35:38.233Z</time>
</trkpt>
<trkpt lat="-28.3096489" lon="153.5158380">
<ele>24.245</ele>
<time>2018-01-24T03:35:40.306Z</time>
</trkpt>
<trkpt lat="-28.3094735" lon="153.5162596">
<ele>22.075</ele>
<time>2018-01-24T03:35:42.441Z</time>
</trkpt>
<trkpt lat="-28.3092961" lon="153.5166983">
<ele>20.392</ele>
<time>2018-01-24T03:35:44.546Z</time>
</trkpt>
<trkpt lat="-28.3091139" lon="153.5171052">
<ele>19.257</ele>
<time>2018-01-24T03:35:46.471Z</time>
</trkpt>
<trkpt lat="-28.3089618" lon="153.5174899">
<ele>18.646</ele>
<time>2018-01-24T03:35:48.254Z</time>
</trkpt>
<trkpt lat="-28.3088131" lon="153.5178346">
<ele>18.408</ele>
<time>2018-01-24T03:35:49.922Z</time>
</trkpt>
<trkpt lat="-28.3086946" lon="153.5181825">
<ele>18.366</ele>
<time>2018-01-24T03:35:51.614Z</time>
</trkpt>
<trkpt lat="-28.3085264" lon="153.5184882">
<ele>18.340</ele>
<time>2018-01-24T03:35:53.344Z</time>
</trkpt>
<trkpt lat="-28.3082485" lon="153.5186907">
<ele>18.201</ele>
<time>2018-01-24T03:35:55.269Z</time>
</trkpt>
<trkpt lat="-28.3078847" lon="153.5187061">
<ele>17.979</ele>
<time>2018-01-24T03:35:57.529Z</time>
</trkpt>
<trkpt lat="-28.3074870" lon="153.5186388">
<ele>17.950</ele>
<time>2018-01-24T03:36:00.038Z</time>
</trkpt>
<trkpt lat="-28.3070733" lon="153.5184950">
<ele>18.434</ele>
<time>2018-01-24T03:36:02.546Z</time>
</trkpt>
<trkpt lat="-28.3067054" lon="153.5183175">
<ele>19.471</ele>
<time>2018-01-24T03:36:04.617Z</time>
</trkpt>
<trkpt lat="-28.3063527" lon="153.5181421">
<ele>20.785</ele>
<time>2018-01-24T03:36:06.495Z</time>
</trkpt>
<trkpt lat="-28.3060027" lon="153.5180634">
<ele>21.968</ele>
<time>2018-01-24T03:36:08.247Z</time>
</trkpt>
<trkpt lat="-28.3056461" lon="153.5181307">
<ele>22.691</ele>
<time>2018-01-24T03:36:10.094Z</time>
</trkpt>
<trkpt lat="-28.3052680" lon="153.5182732">
<ele>22.911</ele>
<time>2018-01-24T03:36:12.230Z</time>
</trkpt>
<trkpt lat="-28.3048796" lon="153.5183912">
<ele>22.832</ele>
<time>2018-01-24T03:36:14.393Z</time>
</trkpt>
<trkpt lat="-28.3045551" lon="153.5184998">
<ele>22.843</ele>
<time>2018-01-24T03:36:16.146Z</time>
</trkpt>
<trkpt lat="-28.3042403" lon="153.5185065">
<ele>23.343</ele>
<time>2018-01-24T03:36:17.768Z</time>
</trkpt>
<trkpt lat="-28.3039832" lon="153.5184806">
<ele>24.445</ele>
<time>2018-01-24T03:36:19.119Z</time>
</trkpt>
<trkpt lat="-28.3037849" lon="153.5185059">
<ele>25.789</ele>
<time>2018-01-24T03:36:20.236Z</time>
</trkpt>
<trkpt lat="-28.3036876" lon="153.5187874">
<ele>26.794</ele>
<time>2018-01-24T03:36:21.825Z</time>
</trkpt>
<trkpt lat="-28.3036317" lon="153.5191121">
<ele>26.921</ele>
<time>2018-01-24T03:36:23.810Z</time>
</trkpt>
<trkpt lat="-28.3034739" lon="153.5193756">
<ele>25.867</ele>
<time>2018-01-24T03:36:26.017Z</time>
</trkpt>
<trkpt lat="-28.3031718" lon="153.5194819">
<ele>24.136</ele>
<time>2018-01-24T03:36:28.485Z</time>
</trkpt>
<trkpt lat="-28.3026888" lon="153.5194198">
<ele>22.890</ele>
<time>2018-01-24T03:36:32.112Z</time>
</trkpt>
<trkpt lat="-28.3023578" lon="153.5196061">
<ele>23.147</ele>
<time>2018-01-24T03:36:34.858Z</time>
</trkpt>
<trkpt lat="-28.3021488" lon="153.5197966">
<ele>25.032</ele>
<time>2018-01-24T03:36:36.798Z</time>
</trkpt>
<trkpt lat="-28.3019862" lon="153.5199281">
<ele>27.773</ele>
<time>2018-01-24T03:36:38.231Z</time>
</trkpt>
<trkpt lat="-28.3018069" lon="153.5199283">
<ele>30.650</ele>
<time>2018-01-24T03:36:39.669Z</time>
</trkpt>
<trkpt lat="-28.3013344" lon="153.5197639">
<ele>33.149</ele>
<time>2018-01-24T03:36:44.992Z</time>
</trkpt>
<trkpt lat="-28.3008492" lon="153.5195819">
<ele>34.634</ele>
<time>2018-01-24T03:36:51.163Z</time>
</trkpt>
<trkpt lat="-28.3003492" lon="153.5194320">
<ele>34.933</ele>
<time>2018-01-24T03:36:54.491Z</time>
</trkpt>
<trkpt lat="-28.2998086" lon="153.5194138">
<ele>34.492</ele>
<time>2018-01-24T03:36:57.678Z</time>
</trkpt>
<trkpt lat="-28.2993016" lon="153.5195060">
<ele>33.898</ele>
<time>2018-01-24T03:37:00.619Z</time>
</trkpt>
<trkpt lat="-28.2988080" lon="153.5195065">
<ele>33.386</ele>
<time>2018-01-24T03:37:03.432Z</time>
</trkpt>
<trkpt lat="-28.2983401" lon="153.5193422">
<ele>32.926</ele>
<time>2018-01-24T03:37:06.290Z</time>
</trkpt>
<trkpt lat="-28.2979319" lon="153.5190966">
<ele>32.714</ele>
<time>2018-01-24T03:37:09.078Z</time>
</trkpt>
<trkpt lat="-28.2974478" lon="153.5190590">
<ele>32.917</ele>
<time>2018-01-24T03:37:12.124Z</time>
</trkpt>
<trkpt lat="-28.2968558" lon="153.5192715">
<ele>33.454</ele>
<time>2018-01-24T03:37:16.007Z</time>
</trkpt>
<trkpt lat="-28.2963507" lon="153.5193539">
<ele>34.246</ele>
<time>2018-01-24T03:37:18.938Z</time>
</trkpt>
<trkpt lat="-28.2958903" lon="153.5192858">
<ele>35.579</ele>
<time>2018-01-24T03:37:21.535Z</time>
</trkpt>
<trkpt lat="-28.2954327" lon="153.5191287">
<ele>37.441</ele>
<time>2018-01-24T03:37:24.372Z</time>
</trkpt>
<trkpt lat="-28.2949396" lon="153.5189209">
<ele>39.028</ele>
<time>2018-01-24T03:37:27.619Z</time>
</trkpt>
<trkpt lat="-28.2943215" lon="153.5188553">
<ele>39.448</ele>
<time>2018-01-24T03:37:31.281Z</time>
</trkpt>
<trkpt lat="-28.2937866" lon="153.5188551">
<ele>38.531</ele>
<time>2018-01-24T03:37:34.221Z</time>
</trkpt>
<trkpt lat="-28.2934442" lon="153.5188933">
<ele>36.894</ele>
<time>2018-01-24T03:37:36.074Z</time>
</trkpt>
<trkpt lat="-28.2931070" lon="153.5189275">
<ele>35.424</ele>
<time>2018-01-24T03:37:37.961Z</time>
</trkpt>
<trkpt lat="-28.2925727" lon="153.5188955">
<ele>34.385</ele>
<time>2018-01-24T03:37:40.991Z</time>
</trkpt>
<trkpt lat="-28.2921665" lon="153.5187564">
<ele>33.489</ele>
<time>2018-01-24T03:37:43.351Z</time>
</trkpt>
<trkpt lat="-28.2918282" lon="153.5185309">
<ele>32.614</ele>
<time>2018-01-24T03:37:45.416Z</time>
</trkpt>
<trkpt lat="-28.2915076" lon="153.5182567">
<ele>32.011</ele>
<time>2018-01-24T03:37:47.475Z</time>
</trkpt>
<trkpt lat="-28.2912229" lon="153.5179685">
<ele>31.815</ele>
<time>2018-01-24T03:37:49.441Z</time>
</trkpt>
<trkpt lat="-28.2909527" lon="153.5176989">
<ele>31.845</ele>
<time>2018-01-24T03:37:51.321Z</time>
</trkpt>
<trkpt lat="-28.2906869" lon="153.5174074">
<ele>31.644</ele>
<time>2018-01-24T03:37:53.301Z</time>
</trkpt>
<trkpt lat="-28.2903906" lon="153.5171444">
<ele>30.670</ele>
<time>2018-01-24T03:37:55.342Z</time>
</trkpt>
<trkpt lat="-28.2900915" lon="153.5168558">
<ele>28.903</ele>
<time>2018-01-24T03:37:57.433Z</time>
</trkpt>
<trkpt lat="-28.2898031" lon="153.5165291">
<ele>26.818</ele>
<time>2018-01-24T03:37:59.537Z</time>
</trkpt>
<trkpt lat="-28.2893783" lon="153.5162037">
<ele>25.018</ele>
<time>2018-01-24T03:38:02.194Z</time>
</trkpt>
<trkpt lat="-28.2888742" lon="153.5161100">
<ele>24.013</ele>
<time>2018-01-24T03:38:04.976Z</time>
</trkpt>
<trkpt lat="-28.2883830" lon="153.5160706">
<ele>24.024</ele>
<time>2018-01-24T03:38:07.848Z</time>
</trkpt>
<trkpt lat="-28.2879609" lon="153.5160538">
<ele>25.110</ele>
<time>2018-01-24T03:38:10.450Z</time>
</trkpt>
<trkpt lat="-28.2875431" lon="153.5161361">
<ele>26.995</ele>
<time>2018-01-24T03:38:13.235Z</time>
</trkpt>
<trkpt lat="-28.2873258" lon="153.5164675">
<ele>29.077</ele>
<time>2018-01-24T03:38:15.830Z</time>
</trkpt>
<trkpt lat="-28.2874117" lon="153.5170382">
<ele>33.593</ele>
<time>2018-01-24T03:38:20.011Z</time>
</trkpt>
<trkpt lat="-28.2874578" lon="153.5175622">
<ele>42.466</ele>
<time>2018-01-24T03:38:23.555Z</time>
</trkpt>
<trkpt lat="-28.2873611" lon="153.5180667">
<ele>52.329</ele>
<time>2018-01-24T03:38:26.653Z</time>
</trkpt>
<trkpt lat="-28.2871908" lon="153.5186773">
<ele>58.827</ele>
<time>2018-01-24T03:38:30.205Z</time>
</trkpt>
<trkpt lat="-28.2869710" lon="153.5192358">
<ele>61.287</ele>
<time>2018-01-24T03:38:33.317Z</time>
</trkpt>
<trkpt lat="-28.2867615" lon="153.5197082">
<ele>60.941</ele>
<time>2018-01-24T03:38:36.060Z</time>
</trkpt>
<trkpt lat="-28.2865672" lon="153.5202405">
<ele>59.687</ele>
<time>2018-01-24T03:38:39.154Z</time>
</trkpt>
<trkpt lat="-28.2863526" lon="153.5207684">
<ele>59.196</ele>
<time>2018-01-24T03:38:42.227Z</time>
</trkpt>
<trkpt lat="-28.2861596" lon="153.5212552">
<ele>60.219</ele>
<time>2018-01-24T03:38:45.127Z</time>
</trkpt>
<trkpt lat="-28.2859853" lon="153.5216894">
<ele>62.306</ele>
<time>2018-01-24T03:38:47.953Z</time>
</trkpt>
<trkpt lat="-28.2856272" lon="153.5219601">
<ele>64.401</ele>
<time>2018-01-24T03:38:51.049Z</time>
</trkpt>
<trkpt lat="-28.2853223" lon="153.5220810">
<ele>65.626</ele>
<time>2018-01-24T03:38:53.402Z</time>
</trkpt>
<trkpt lat="-28.2849853" lon="153.5221401">
<ele>65.704</ele>
<time>2018-01-24T03:38:55.804Z</time>
</trkpt>
<trkpt lat="-28.2846546" lon="153.5221499">
<ele>64.968</ele>
<time>2018-01-24T03:38:58.033Z</time>
</trkpt>
<trkpt lat="-28.2843214" lon="153.5221226">
<ele>63.764</ele>
<time>2018-01-24T03:39:00.198Z</time>
</trkpt>
<trkpt lat="-28.2839617" lon="153.5220701">
<ele>62.210</ele>
<time>2018-01-24T03:39:02.466Z</time>
</trkpt>
<trkpt lat="-28.2834535" lon="153.5220116">
<ele>60.465</ele>
<time>2018-01-24T03:39:05.617Z</time>
</trkpt>
<trkpt lat="-28.2830073" lon="153.5219806">
<ele>59.013</ele>
<time>2018-01-24T03:39:08.464Z</time>
</trkpt>
<trkpt lat="-28.2825837" lon="153.5220032">
<ele>58.583</ele>
<time>2018-01-24T03:39:11.310Z</time>
</trkpt>
<trkpt lat="-28.2821707" lon="153.5219800">
<ele>59.271</ele>
<time>2018-01-24T03:39:14.156Z</time>
</trkpt>
<trkpt lat="-28.2817791" lon="153.5217818">
<ele>60.229</ele>
<time>2018-01-24T03:39:17.122Z</time>
</trkpt>
<trkpt lat="-28.2814396" lon="153.5215265">
<ele>60.699</ele>
<time>2018-01-24T03:39:19.994Z</time>
</trkpt>
<trkpt lat="-28.2810807" lon="153.5212970">
<ele>60.668</ele>
<time>2018-01-24T03:39:22.996Z</time>
</trkpt>
<trkpt lat="-28.2806588" lon="153.5211836">
<ele>59.926</ele>
<time>2018-01-24T03:39:25.996Z</time>
</trkpt>
<trkpt lat="-28.2802176" lon="153.5210281">
<ele>57.721</ele>
<time>2018-01-24T03:39:28.996Z</time>
</trkpt>
<trkpt lat="-28.2798391" lon="153.5206083">
<ele>54.285</ele>
<time>2018-01-24T03:39:32.289Z</time>
</trkpt>
<trkpt lat="-28.2795195" lon="153.5201113">
<ele>51.293</ele>
<time>2018-01-24T03:39:35.404Z</time>
</trkpt>
<trkpt lat="-28.2792098" lon="153.5196144">
<ele>49.846</ele>
<time>2018-01-24T03:39:38.414Z</time>
</trkpt>
<trkpt lat="-28.2789050" lon="153.5191180">
<ele>49.761</ele>
<time>2018-01-24T03:39:41.370Z</time>
</trkpt>
<trkpt lat="-28.2786032" lon="153.5186226">
<ele>51.175</ele>
<time>2018-01-24T03:39:44.340Z</time>
</trkpt>
<trkpt lat="-28.2783046" lon="153.5181355">
<ele>54.500</ele>
<time>2018-01-24T03:39:47.360Z</time>
</trkpt>
<trkpt lat="-28.2781127" lon="153.5176875">
<ele>58.888</ele>
<time>2018-01-24T03:39:49.998Z</time>
</trkpt>
<trkpt lat="-28.2780242" lon="153.5174327">
<ele>62.496</ele>
<time>2018-01-24T03:39:51.582Z</time>
</trkpt>
<trkpt lat="-28.2779319" lon="153.5171842">
<ele>64.298</ele>
<time>2018-01-24T03:39:53.271Z</time>
</trkpt>
<trkpt lat="-28.2779248" lon="153.5169224">
<ele>64.623</ele>
<time>2018-01-24T03:39:55.090Z</time>
</trkpt>
<trkpt lat="-28.2781568" lon="153.5167462">
<ele>64.247</ele>
<time>2018-01-24T03:39:57.501Z</time>
</trkpt>
<trkpt lat="-28.2783638" lon="153.5165496">
<ele>63.535</ele>
<time>2018-01-24T03:39:59.753Z</time>
</trkpt>
<trkpt lat="-28.2785410" lon="153.5163083">
<ele>62.543</ele>
<time>2018-01-24T03:40:01.861Z</time>
</trkpt>
<trkpt lat="-28.2785443" lon="153.5159605">
<ele>61.219</ele>
<time>2018-01-24T03:40:04.065Z</time>
</trkpt>
<trkpt lat="-28.2784522" lon="153.5155728">
<ele>58.917</ele>
<time>2018-01-24T03:40:06.349Z</time>
</trkpt>
<trkpt lat="-28.2783166" lon="153.5151993">
<ele>54.823</ele>
<time>2018-01-24T03:40:08.468Z</time>
</trkpt>
<trkpt lat="-28.2781531" lon="153.5148798">
<ele>49.417</ele>
<time>2018-01-24T03:40:10.413Z</time>
</trkpt>
<trkpt lat="-28.2779662" lon="153.5145982">
<ele>44.245</ele>
<time>2018-01-24T03:40:12.315Z</time>
</trkpt>
<trkpt lat="-28.2777110" lon="153.5143858">
<ele>39.622</ele>
<time>2018-01-24T03:40:14.294Z</time>
</trkpt>
<trkpt lat="-28.2774763" lon="153.5142059">
<ele>35.310</ele>
<time>2018-01-24T03:40:16.123Z</time>
</trkpt>
<trkpt lat="-28.2772535" lon="153.5140296">
<ele>32.202</ele>
<time>2018-01-24T03:40:17.973Z</time>
</trkpt>
<trkpt lat="-28.2770616" lon="153.5138478">
<ele>31.049</ele>
<time>2018-01-24T03:40:19.817Z</time>
</trkpt>
<trkpt lat="-28.2769765" lon="153.5135034">
<ele>31.252</ele>
<time>2018-01-24T03:40:22.499Z</time>
</trkpt>
<trkpt lat="-28.2772352" lon="153.5132083">
<ele>32.052</ele>
<time>2018-01-24T03:40:25.758Z</time>
</trkpt>
<trkpt lat="-28.2774253" lon="153.5127729">
<ele>32.930</ele>
<time>2018-01-24T03:40:29.138Z</time>
</trkpt>
<trkpt lat="-28.2775448" lon="153.5122767">
<ele>33.378</ele>
<time>2018-01-24T03:40:32.365Z</time>
</trkpt>
<trkpt lat="-28.2773824" lon="153.5116611">
<ele>32.774</ele>
<time>2018-01-24T03:40:36.120Z</time>
</trkpt>
<trkpt lat="-28.2773201" lon="153.5111242">
<ele>30.786</ele>
<time>2018-01-24T03:40:39.159Z</time>
</trkpt>
<trkpt lat="-28.2773919" lon="153.5105698">
<ele>27.870</ele>
<time>2018-01-24T03:40:42.245Z</time>
</trkpt>
<trkpt lat="-28.2773120" lon="153.5100255">
<ele>24.967</ele>
<time>2018-01-24T03:40:45.307Z</time>
</trkpt>
<trkpt lat="-28.2769820" lon="153.5095996">
<ele>22.523</ele>
<time>2018-01-24T03:40:48.500Z</time>
</trkpt>
<trkpt lat="-28.2766840" lon="153.5094720">
<ele>20.204</ele>
<time>2018-01-24T03:40:50.482Z</time>
</trkpt>
<trkpt lat="-28.2763576" lon="153.5093416">
<ele>17.705</ele>
<time>2018-01-24T03:40:52.547Z</time>
</trkpt>
<trkpt lat="-28.2760370" lon="153.5091929">
<ele>15.124</ele>
<time>2018-01-24T03:40:54.582Z</time>
</trkpt>
<trkpt lat="-28.2757341" lon="153.5090663">
<ele>12.365</ele>
<time>2018-01-24T03:40:56.505Z</time>
</trkpt>
<trkpt lat="-28.2754386" lon="153.5089444">
<ele>9.068</ele>
<time>2018-01-24T03:40:58.473Z</time>
</trkpt>
<trkpt lat="-28.2751494" lon="153.5089063">
<ele>5.233</ele>
<time>2018-01-24T03:41:00.432Z</time>
</trkpt>
<trkpt lat="-28.2749030" lon="153.5088769">
<ele>1.337</ele>
<time>2018-01-24T03:41:02.220Z</time>
</trkpt>
<trkpt lat="-28.2746706" lon="153.5088377">
<ele>0.000</ele>
<time>2018-01-24T03:41:04.007Z</time>
</trkpt>
<trkpt lat="-28.2744327" lon="153.5087805">
<ele>0.000</ele>
<time>2018-01-24T03:41:05.923Z</time>
</trkpt>
<trkpt lat="-28.2742254" lon="153.5086416">
<ele>0.000</ele>
<time>2018-01-24T03:41:07.869Z</time>
</trkpt>
<trkpt lat="-28.2740361" lon="153.5084899">
<ele>0.000</ele>
<time>2018-01-24T03:41:09.822Z</time>
</trkpt>
<trkpt lat="-28.2738710" lon="153.5083382">
<ele>0.000</ele>
<time>2018-01-24T03:41:11.749Z</time>
</trkpt>
<trkpt lat="-28.2737371" lon="153.5082009">
<ele>0.000</ele>
<time>2018-01-24T03:41:13.573Z</time>
</trkpt>
<trkpt lat="-28.2736601" lon="153.5080941">
<ele>0.000</ele>
<time>2018-01-24T03:41:14.957Z</time>
</trkpt>
<trkpt lat="-28.2736007" lon="153.5079956">
<ele>0.000</ele>
<time>2018-01-24T03:41:16.895Z</time>
</trkpt>
<trkpt lat="-28.2736881" lon="153.5079306">
<ele>0.000</ele>
<time>2018-01-24T03:41:20.999Z</time>
</trkpt>
<trkpt lat="-28.2736881" lon="153.5079306">
<ele>0.000</ele>
<time>2018-01-24T03:41:21.000Z</time>
</trkpt>
<trkpt lat="-28.2736881" lon="153.5079306">
<ele>0.000</ele>
<time>2018-01-24T03:41:24.993Z</time>
</trkpt>
<trkpt lat="-28.2737567" lon="153.5077298">
<ele>0.000</ele>
<time>2018-01-24T03:41:29.283Z</time>
</trkpt>
<trkpt lat="-28.2738376" lon="153.5075684">
<ele>0.000</ele>
<time>2018-01-24T03:41:31.320Z</time>
</trkpt>
<trkpt lat="-28.2739488" lon="153.5073910">
<ele>0.000</ele>
<time>2018-01-24T03:41:33.283Z</time>
</trkpt>
<trkpt lat="-28.2740678" lon="153.5070736">
<ele>0.000</ele>
<time>2018-01-24T03:41:35.803Z</time>
</trkpt>
<trkpt lat="-28.2742344" lon="153.5066681">
<ele>0.000</ele>
<time>2018-01-24T03:41:38.432Z</time>
</trkpt>
<trkpt lat="-28.2744844" lon="153.5062094">
<ele>0.000</ele>
<time>2018-01-24T03:41:40.959Z</time>
</trkpt>
<trkpt lat="-28.2746471" lon="153.5056576">
<ele>0.000</ele>
<time>2018-01-24T03:41:43.337Z</time>
</trkpt>
<trkpt lat="-28.2747468" lon="153.5051470">
<ele>0.000</ele>
<time>2018-01-24T03:41:45.522Z</time>
</trkpt>
<trkpt lat="-28.2747606" lon="153.5046852">
<ele>0.000</ele>
<time>2018-01-24T03:41:47.571Z</time>
</trkpt>
<trkpt lat="-28.2747663" lon="153.5042403">
<ele>0.000</ele>
<time>2018-01-24T03:41:49.547Z</time>
</trkpt>
<trkpt lat="-28.2747921" lon="153.5038289">
<ele>0.000</ele>
<time>2018-01-24T03:41:51.323Z</time>
</trkpt>
<trkpt lat="-28.2748120" lon="153.5033659">
<ele>0.000</ele>
<time>2018-01-24T03:41:53.275Z</time>
</trkpt>
<trkpt lat="-28.2748459" lon="153.5028847">
<ele>0.000</ele>
<time>2018-01-24T03:41:55.308Z</time>
</trkpt>
<trkpt lat="-28.2748690" lon="153.5024092">
<ele>0.000</ele>
<time>2018-01-24T03:41:57.363Z</time>
</trkpt>
<trkpt lat="-28.2749242" lon="153.5019754">
<ele>0.000</ele>
<time>2018-01-24T03:41:59.316Z</time>
</trkpt>
<trkpt lat="-28.2750345" lon="153.5015570">
<ele>0.000</ele>
<time>2018-01-24T03:42:01.300Z</time>
</trkpt>
<trkpt lat="-28.2751872" lon="153.5011713">
<ele>0.000</ele>
<time>2018-01-24T03:42:03.226Z</time>
</trkpt>
<trkpt lat="-28.2753384" lon="153.5007810">
<ele>0.000</ele>
<time>2018-01-24T03:42:05.136Z</time>
</trkpt>
<trkpt lat="-28.2755000" lon="153.5003852">
<ele>0.000</ele>
<time>2018-01-24T03:42:07.040Z</time>
</trkpt>
<trkpt lat="-28.2756445" lon="153.4999712">
<ele>0.000</ele>
<time>2018-01-24T03:42:08.956Z</time>
</trkpt>
<trkpt lat="-28.2757851" lon="153.4995577">
<ele>0.000</ele>
<time>2018-01-24T03:42:10.869Z</time>
</trkpt>
<trkpt lat="-28.2759485" lon="153.4991374">
<ele>0.000</ele>
<time>2018-01-24T03:42:12.864Z</time>
</trkpt>
<trkpt lat="-28.2760717" lon="153.4987207">
<ele>0.000</ele>
<time>2018-01-24T03:42:14.770Z</time>
</trkpt>
<trkpt lat="-28.2761541" lon="153.4980515">
<ele>0.000</ele>
<time>2018-01-24T03:42:17.658Z</time>
</trkpt>
<trkpt lat="-28.2761631" lon="153.4975954">
<ele>0.000</ele>
<time>2018-01-24T03:42:19.571Z</time>
</trkpt>
<trkpt lat="-28.2761203" lon="153.4971161">
<ele>0.000</ele>
<time>2018-01-24T03:42:21.561Z</time>
</trkpt>
<trkpt lat="-28.2760776" lon="153.4966027">
<ele>0.000</ele>
<time>2018-01-24T03:42:23.681Z</time>
</trkpt>
<trkpt lat="-28.2760372" lon="153.4961275">
<ele>0.000</ele>
<time>2018-01-24T03:42:25.654Z</time>
</trkpt>
<trkpt lat="-28.2759807" lon="153.4956699">
<ele>0.000</ele>
<time>2018-01-24T03:42:27.560Z</time>
</trkpt>
<trkpt lat="-28.2759511" lon="153.4951952">
<ele>0.000</ele>
<time>2018-01-24T03:42:29.511Z</time>
</trkpt>
<trkpt lat="-28.2759221" lon="153.4947154">
<ele>0.000</ele>
<time>2018-01-24T03:42:31.490Z</time>
</trkpt>
<trkpt lat="-28.2758840" lon="153.4942329">
<ele>0.000</ele>
<time>2018-01-24T03:42:33.507Z</time>
</trkpt>
<trkpt lat="-28.2758529" lon="153.4937643">
<ele>0.000</ele>
<time>2018-01-24T03:42:35.484Z</time>
</trkpt>
<trkpt lat="-28.2758268" lon="153.4933121">
<ele>0.000</ele>
<time>2018-01-24T03:42:37.405Z</time>
</trkpt>
<trkpt lat="-28.2758575" lon="153.4928536">
<ele>0.000</ele>
<time>2018-01-24T03:42:39.372Z</time>
</trkpt>
<trkpt lat="-28.2758929" lon="153.4923771">
<ele>0.000</ele>
<time>2018-01-24T03:42:41.432Z</time>
</trkpt>
<trkpt lat="-28.2759316" lon="153.4919310">
<ele>0.000</ele>
<time>2018-01-24T03:42:43.373Z</time>
</trkpt>
<trkpt lat="-28.2759435" lon="153.4914760">
<ele>0.000</ele>
<time>2018-01-24T03:42:45.354Z</time>
</trkpt>
<trkpt lat="-28.2759670" lon="153.4910123">
<ele>0.000</ele>
<time>2018-01-24T03:42:47.377Z</time>
</trkpt>
<trkpt lat="-28.2759722" lon="153.4905759">
<ele>0.000</ele>
<time>2018-01-24T03:42:49.292Z</time>
</trkpt>
<trkpt lat="-28.2759504" lon="153.4901556">
<ele>0.000</ele>
<time>2018-01-24T03:42:51.136Z</time>
</trkpt>
<trkpt lat="-28.2759014" lon="153.4896981">
<ele>0.000</ele>
<time>2018-01-24T03:42:53.120Z</time>
</trkpt>
<trkpt lat="-28.2758045" lon="153.4892783">
<ele>0.000</ele>
<time>2018-01-24T03:42:54.967Z</time>
</trkpt>
<trkpt lat="-28.2755867" lon="153.4888969">
<ele>0.000</ele>
<time>2018-01-24T03:42:56.895Z</time>
</trkpt>
<trkpt lat="-28.2753318" lon="153.4885197">
<ele>0.000</ele>
<time>2018-01-24T03:42:58.917Z</time>
</trkpt>
<trkpt lat="-28.2750531" lon="153.4881852">
<ele>0.000</ele>
<time>2018-01-24T03:43:00.895Z</time>
</trkpt>
<trkpt lat="-28.2747430" lon="153.4879009">
<ele>0.000</ele>
<time>2018-01-24T03:43:02.870Z</time>
</trkpt>
<trkpt lat="-28.2744469" lon="153.4876223">
<ele>0.000</ele>
<time>2018-01-24T03:43:04.811Z</time>
</trkpt>
<trkpt lat="-28.2741635" lon="153.4873385">
<ele>0.000</ele>
<time>2018-01-24T03:43:06.762Z</time>
</trkpt>
<trkpt lat="-28.2738902" lon="153.4870642">
<ele>0.000</ele>
<time>2018-01-24T03:43:08.681Z</time>
</trkpt>
<trkpt lat="-28.2736545" lon="153.4867202">
<ele>0.000</ele>
<time>2018-01-24T03:43:10.695Z</time>
</trkpt>
<trkpt lat="-28.2734857" lon="153.4863154">
<ele>0.000</ele>
<time>2018-01-24T03:43:12.734Z</time>
</trkpt>
<trkpt lat="-28.2733829" lon="153.4858955">
<ele>0.000</ele>
<time>2018-01-24T03:43:14.694Z</time>
</trkpt>
<trkpt lat="-28.2732947" lon="153.4854664">
<ele>0.000</ele>
<time>2018-01-24T03:43:16.643Z</time>
</trkpt>
<trkpt lat="-28.2732694" lon="153.4850031">
<ele>0.000</ele>
<time>2018-01-24T03:43:18.647Z</time>
</trkpt>
<trkpt lat="-28.2732629" lon="153.4845307">
<ele>0.000</ele>
<time>2018-01-24T03:43:20.650Z</time>
</trkpt>
<trkpt lat="-28.2732481" lon="153.4840503">
<ele>0.000</ele>
<time>2018-01-24T03:43:22.688Z</time>
</trkpt>
<trkpt lat="-28.2732493" lon="153.4835902">
<ele>0.000</ele>
<time>2018-01-24T03:43:24.654Z</time>
</trkpt>
<trkpt lat="-28.2732562" lon="153.4831429">
<ele>0.000</ele>
<time>2018-01-24T03:43:26.578Z</time>
</trkpt>
<trkpt lat="-28.2732457" lon="153.4826901">
<ele>0.000</ele>
<time>2018-01-24T03:43:28.541Z</time>
</trkpt>
<trkpt lat="-28.2732085" lon="153.4822483">
<ele>0.000</ele>
<time>2018-01-24T03:43:30.484Z</time>
</trkpt>
<trkpt lat="-28.2731794" lon="153.4818082">
<ele>0.000</ele>
<time>2018-01-24T03:43:32.424Z</time>
</trkpt>
<trkpt lat="-28.2730946" lon="153.4813717">
<ele>0.000</ele>
<time>2018-01-24T03:43:34.370Z</time>
</trkpt>
<trkpt lat="-28.2730025" lon="153.4809219">
<ele>0.000</ele>
<time>2018-01-24T03:43:36.362Z</time>
</trkpt>
<trkpt lat="-28.2729063" lon="153.4804870">
<ele>0.000</ele>
<time>2018-01-24T03:43:38.320Z</time>
</trkpt>
<trkpt lat="-28.2728170" lon="153.4800665">
<ele>0.000</ele>
<time>2018-01-24T03:43:40.251Z</time>
</trkpt>
<trkpt lat="-28.2727253" lon="153.4796467">
<ele>0.000</ele>
<time>2018-01-24T03:43:42.209Z</time>
</trkpt>
<trkpt lat="-28.2726275" lon="153.4792236">
<ele>0.000</ele>
<time>2018-01-24T03:43:44.192Z</time>
</trkpt>
<trkpt lat="-28.2724983" lon="153.4788308">
<ele>0.000</ele>
<time>2018-01-24T03:43:46.081Z</time>
</trkpt>
<trkpt lat="-28.2723517" lon="153.4784306">
<ele>0.000</ele>
<time>2018-01-24T03:43:48.022Z</time>
</trkpt>
<trkpt lat="-28.2722235" lon="153.4780389">
<ele>0.000</ele>
<time>2018-01-24T03:43:49.883Z</time>
</trkpt>
<trkpt lat="-28.2721058" lon="153.4776040">
<ele>0.000</ele>
<time>2018-01-24T03:43:51.898Z</time>
</trkpt>
<trkpt lat="-28.2719947" lon="153.4771885">
<ele>0.000</ele>
<time>2018-01-24T03:43:53.809Z</time>
</trkpt>
<trkpt lat="-28.2719319" lon="153.4767380">
<ele>0.000</ele>
<time>2018-01-24T03:43:55.808Z</time>
</trkpt>
<trkpt lat="-28.2718901" lon="153.4762937">
<ele>0.000</ele>
<time>2018-01-24T03:43:57.778Z</time>
</trkpt>
<trkpt lat="-28.2719118" lon="153.4758679">
<ele>0.000</ele>
<time>2018-01-24T03:43:59.702Z</time>
</trkpt>
<trkpt lat="-28.2719380" lon="153.4754720">
<ele>0.000</ele>
<time>2018-01-24T03:44:01.522Z</time>
</trkpt>
<trkpt lat="-28.2719904" lon="153.4750303">
<ele>0.000</ele>
<time>2018-01-24T03:44:03.556Z</time>
</trkpt>
<trkpt lat="-28.2720651" lon="153.4746017">
<ele>0.000</ele>
<time>2018-01-24T03:44:05.506Z</time>
</trkpt>
<trkpt lat="-28.2721566" lon="153.4741540">
<ele>0.000</ele>
<time>2018-01-24T03:44:07.480Z</time>
</trkpt>
<trkpt lat="-28.2722629" lon="153.4736765">
<ele>0.000</ele>
<time>2018-01-24T03:44:09.529Z</time>
</trkpt>
<trkpt lat="-28.2723837" lon="153.4732152">
<ele>0.000</ele>
<time>2018-01-24T03:44:11.505Z</time>
</trkpt>
<trkpt lat="-28.2724877" lon="153.4727356">
<ele>0.000</ele>
<time>2018-01-24T03:44:13.521Z</time>
</trkpt>
<trkpt lat="-28.2725777" lon="153.4722708">
<ele>0.000</ele>
<time>2018-01-24T03:44:15.470Z</time>
</trkpt>
<trkpt lat="-28.2726568" lon="153.4718218">
<ele>0.000</ele>
<time>2018-01-24T03:44:17.365Z</time>
</trkpt>
<trkpt lat="-28.2726958" lon="153.4713777">
<ele>0.000</ele>
<time>2018-01-24T03:44:19.241Z</time>
</trkpt>
<trkpt lat="-28.2727288" lon="153.4709304">
<ele>0.000</ele>
<time>2018-01-24T03:44:21.162Z</time>
</trkpt>
<trkpt lat="-28.2727410" lon="153.4705111">
<ele>0.000</ele>
<time>2018-01-24T03:44:23.008Z</time>
</trkpt>
<trkpt lat="-28.2727173" lon="153.4700906">
<ele>0.000</ele>
<time>2018-01-24T03:44:24.921Z</time>
</trkpt>
<trkpt lat="-28.2726920" lon="153.4696905">
<ele>0.000</ele>
<time>2018-01-24T03:44:26.820Z</time>
</trkpt>
<trkpt lat="-28.2726752" lon="153.4693332">
<ele>0.000</ele>
<time>2018-01-24T03:44:28.617Z</time>
</trkpt>
<trkpt lat="-28.2726665" lon="153.4688311">
<ele>0.000</ele>
<time>2018-01-24T03:44:31.388Z</time>
</trkpt>
<trkpt lat="-28.2726461" lon="153.4685442">
<ele>0.000</ele>
<time>2018-01-24T03:44:33.123Z</time>
</trkpt>
<trkpt lat="-28.2726721" lon="153.4683093">
<ele>0.000</ele>
<time>2018-01-24T03:44:34.670Z</time>
</trkpt>
<trkpt lat="-28.2726835" lon="153.4680775">
<ele>0.000</ele>
<time>2018-01-24T03:44:36.297Z</time>
</trkpt>
<trkpt lat="-28.2726835" lon="153.4679110">
<ele>0.000</ele>
<time>2018-01-24T03:44:37.574Z</time>
</trkpt>
<trkpt lat="-28.2726351" lon="153.4678109">
<ele>0.000</ele>
<time>2018-01-24T03:44:38.523Z</time>
</trkpt>
<trkpt lat="-28.2725099" lon="153.4677578">
<ele>0.000</ele>
<time>2018-01-24T03:44:39.877Z</time>
</trkpt>
<trkpt lat="-28.2723342" lon="153.4677033">
<ele>0.000</ele>
<time>2018-01-24T03:44:42.181Z</time>
</trkpt>
<trkpt lat="-28.2721531" lon="153.4676003">
<ele>0.000</ele>
<time>2018-01-24T03:44:45.183Z</time>
</trkpt>
<trkpt lat="-28.2720033" lon="153.4674405">
<ele>0.000</ele>
<time>2018-01-24T03:44:47.686Z</time>
</trkpt>
<trkpt lat="-28.2719005" lon="153.4671785">
<ele>0.000</ele>
<time>2018-01-24T03:44:50.168Z</time>
</trkpt>
<trkpt lat="-28.2717825" lon="153.4669412">
<ele>0.000</ele>
<time>2018-01-24T03:44:52.299Z</time>
</trkpt>
<trkpt lat="-28.2716502" lon="153.4667562">
<ele>0.000</ele>
<time>2018-01-24T03:44:54.085Z</time>
</trkpt>
<trkpt lat="-28.2715376" lon="153.4665991">
<ele>0.000</ele>
<time>2018-01-24T03:44:55.648Z</time>
</trkpt>
<trkpt lat="-28.2714212" lon="153.4664542">
<ele>0.000</ele>
<time>2018-01-24T03:44:57.248Z</time>
</trkpt>
<trkpt lat="-28.2712966" lon="153.4663423">
<ele>0.000</ele>
<time>2018-01-24T03:44:58.816Z</time>
</trkpt>
<trkpt lat="-28.2712061" lon="153.4662576">
<ele>0.000</ele>
<time>2018-01-24T03:45:00.031Z</time>
</trkpt>
<trkpt lat="-28.2711329" lon="153.4661511">
<ele>0.000</ele>
<time>2018-01-24T03:45:01.373Z</time>
</trkpt>
<trkpt lat="-28.2710641" lon="153.4660650">
<ele>0.000</ele>
<time>2018-01-24T03:45:02.591Z</time>
</trkpt>
<trkpt lat="-28.2709744" lon="153.4660213">
<ele>0.000</ele>
<time>2018-01-24T03:45:03.819Z</time>
</trkpt>
<trkpt lat="-28.2709050" lon="153.4661444">
<ele>0.000</ele>
<time>2018-01-24T03:45:05.716Z</time>
</trkpt>
<trkpt lat="-28.2708000" lon="153.4663370">
<ele>0.000</ele>
<time>2018-01-24T03:45:09.259Z</time>
</trkpt>
<trkpt lat="-28.2706868" lon="153.4665702">
<ele>0.000</ele>
<time>2018-01-24T03:45:13.198Z</time>
</trkpt>
<trkpt lat="-28.2705113" lon="153.4668171">
<ele>0.000</ele>
<time>2018-01-24T03:45:16.224Z</time>
</trkpt>
<trkpt lat="-28.2703689" lon="153.4671016">
<ele>0.000</ele>
<time>2018-01-24T03:45:18.637Z</time>
</trkpt>
<trkpt lat="-28.2702075" lon="153.4673551">
<ele>0.000</ele>
<time>2018-01-24T03:45:20.775Z</time>
</trkpt>
<trkpt lat="-28.2700457" lon="153.4675860">
<ele>0.000</ele>
<time>2018-01-24T03:45:22.742Z</time>
</trkpt>
<trkpt lat="-28.2698844" lon="153.4678265">
<ele>0.000</ele>
<time>2018-01-24T03:45:24.761Z</time>
</trkpt>
<trkpt lat="-28.2696915" lon="153.4681103">
<ele>0.000</ele>
<time>2018-01-24T03:45:27.097Z</time>
</trkpt>
<trkpt lat="-28.2695146" lon="153.4683928">
<ele>0.000</ele>
<time>2018-01-24T03:45:29.184Z</time>
</trkpt>
<trkpt lat="-28.2692968" lon="153.4686974">
<ele>0.000</ele>
<time>2018-01-24T03:45:31.434Z</time>
</trkpt>
<trkpt lat="-28.2691110" lon="153.4689891">
<ele>0.000</ele>
<time>2018-01-24T03:45:33.476Z</time>
</trkpt>
<trkpt lat="-28.2689541" lon="153.4692067">
<ele>0.000</ele>
<time>2018-01-24T03:45:35.130Z</time>
</trkpt>
<trkpt lat="-28.2688169" lon="153.4693915">
<ele>0.000</ele>
<time>2018-01-24T03:45:36.652Z</time>
</trkpt>
<trkpt lat="-28.2687178" lon="153.4695933">
<ele>0.000</ele>
<time>2018-01-24T03:45:38.243Z</time>
</trkpt>
<trkpt lat="-28.2686401" lon="153.4697606">
<ele>0.000</ele>
<time>2018-01-24T03:45:39.699Z</time>
</trkpt>
<trkpt lat="-28.2685268" lon="153.4698772">
<ele>0.000</ele>
<time>2018-01-24T03:45:41.140Z</time>
</trkpt>
<trkpt lat="-28.2684371" lon="153.4699811">
<ele>0.000</ele>
<time>2018-01-24T03:45:42.423Z</time>
</trkpt>
<trkpt lat="-28.2683671" lon="153.4700981">
<ele>0.000</ele>
<time>2018-01-24T03:45:43.782Z</time>
</trkpt>
<trkpt lat="-28.2684569" lon="153.4702048">
<ele>0.000</ele>
<time>2018-01-24T03:45:45.396Z</time>
</trkpt>
<trkpt lat="-28.2686404" lon="153.4703639">
<ele>0.000</ele>
<time>2018-01-24T03:45:48.739Z</time>
</trkpt>
<trkpt lat="-28.2688539" lon="153.4705391">
<ele>0.000</ele>
<time>2018-01-24T03:45:52.271Z</time>
</trkpt>
<trkpt lat="-28.2691107" lon="153.4706696">
<ele>0.000</ele>
<time>2018-01-24T03:45:54.647Z</time>
</trkpt>
<trkpt lat="-28.2695350" lon="153.4705689">
<ele>0.000</ele>
<time>2018-01-24T03:45:57.694Z</time>
</trkpt>
<trkpt lat="-28.2698584" lon="153.4704942">
<ele>0.000</ele>
<time>2018-01-24T03:45:59.784Z</time>
</trkpt>
<trkpt lat="-28.2701348" lon="153.4704332">
<ele>0.000</ele>
<time>2018-01-24T03:46:01.528Z</time>
</trkpt>
<trkpt lat="-28.2703925" lon="153.4703923">
<ele>0.000</ele>
<time>2018-01-24T03:46:03.201Z</time>
</trkpt>
<trkpt lat="-28.2705487" lon="153.4703011">
<ele>0.000</ele>
<time>2018-01-24T03:46:04.405Z</time>
</trkpt>
<trkpt lat="-28.2705879" lon="153.4700176">
<ele>0.000</ele>
<time>2018-01-24T03:46:06.376Z</time>
</trkpt>
<trkpt lat="-28.2706342" lon="153.4696768">
<ele>0.000</ele>
<time>2018-01-24T03:46:09.022Z</time>
</trkpt>
<trkpt lat="-28.2706855" lon="153.4693190">
<ele>0.000</ele>
<time>2018-01-24T03:46:11.426Z</time>
</trkpt>
<trkpt lat="-28.2707503" lon="153.4689717">
<ele>0.000</ele>
<time>2018-01-24T03:46:13.461Z</time>
</trkpt>
<trkpt lat="-28.2707225" lon="153.4686317">
<ele>0.000</ele>
<time>2018-01-24T03:46:15.360Z</time>
</trkpt>
<trkpt lat="-28.2705094" lon="153.4683181">
<ele>0.000</ele>
<time>2018-01-24T03:46:17.584Z</time>
</trkpt>
<trkpt lat="-28.2703545" lon="153.4680030">
<ele>0.000</ele>
<time>2018-01-24T03:46:19.637Z</time>
</trkpt>
<trkpt lat="-28.2703436" lon="153.4676736">
<ele>0.000</ele>
<time>2018-01-24T03:46:21.556Z</time>
</trkpt>
<trkpt lat="-28.2703030" lon="153.4673955">
<ele>0.000</ele>
<time>2018-01-24T03:46:23.287Z</time>
</trkpt>
<trkpt lat="-28.2701976" lon="153.4671521">
<ele>0.000</ele>
<time>2018-01-24T03:46:25.076Z</time>
</trkpt>
<trkpt lat="-28.2698924" lon="153.4670286">
<ele>0.000</ele>
<time>2018-01-24T03:46:27.557Z</time>
</trkpt>
<trkpt lat="-28.2696324" lon="153.4668452">
<ele>0.000</ele>
<time>2018-01-24T03:46:29.706Z</time>
</trkpt>
<trkpt lat="-28.2694007" lon="153.4665998">
<ele>0.000</ele>
<time>2018-01-24T03:46:31.809Z</time>
</trkpt>
<trkpt lat="-28.2692316" lon="153.4662937">
<ele>0.000</ele>
<time>2018-01-24T03:46:33.894Z</time>
</trkpt>
<trkpt lat="-28.2691628" lon="153.4658984">
<ele>0.000</ele>
<time>2018-01-24T03:46:36.064Z</time>
</trkpt>
<trkpt lat="-28.2691000" lon="153.4654738">
<ele>0.000</ele>
<time>2018-01-24T03:46:38.178Z</time>
</trkpt>
<trkpt lat="-28.2690414" lon="153.4650664">
<ele>0.000</ele>
<time>2018-01-24T03:46:40.146Z</time>
</trkpt>
<trkpt lat="-28.2690321" lon="153.4646558">
<ele>0.000</ele>
<time>2018-01-24T03:46:42.083Z</time>
</trkpt>
<trkpt lat="-28.2690860" lon="153.4642577">
<ele>0.000</ele>
<time>2018-01-24T03:46:43.994Z</time>
</trkpt>
<trkpt lat="-28.2691930" lon="153.4638751">
<ele>0.000</ele>
<time>2018-01-24T03:46:45.929Z</time>
</trkpt>
<trkpt lat="-28.2693085" lon="153.4634948">
<ele>0.000</ele>
<time>2018-01-24T03:46:47.895Z</time>
</trkpt>
<trkpt lat="-28.2694377" lon="153.4631076">
<ele>0.000</ele>
<time>2018-01-24T03:46:49.930Z</time>
</trkpt>
<trkpt lat="-28.2696284" lon="153.4627433">
<ele>0.000</ele>
<time>2018-01-24T03:46:51.973Z</time>
</trkpt>
<trkpt lat="-28.2698488" lon="153.4623908">
<ele>0.000</ele>
<time>2018-01-24T03:46:54.008Z</time>
</trkpt>
<trkpt lat="-28.2700522" lon="153.4620465">
<ele>0.000</ele>
<time>2018-01-24T03:46:55.955Z</time>
</trkpt>
<trkpt lat="-28.2702759" lon="153.4617819">
<ele>0.000</ele>
<time>2018-01-24T03:46:57.717Z</time>
</trkpt>
<trkpt lat="-28.2705904" lon="153.4615377">
<ele>0.000</ele>
<time>2018-01-24T03:46:59.799Z</time>
</trkpt>
<trkpt lat="-28.2709193" lon="153.4613172">
<ele>0.000</ele>
<time>2018-01-24T03:47:01.838Z</time>
</trkpt>
<trkpt lat="-28.2712280" lon="153.4610735">
<ele>0.000</ele>
<time>2018-01-24T03:47:03.807Z</time>
</trkpt>
<trkpt lat="-28.2715625" lon="153.4608478">
<ele>0.000</ele>
<time>2018-01-24T03:47:05.825Z</time>
</trkpt>
<trkpt lat="-28.2718860" lon="153.4605821">
<ele>0.000</ele>
<time>2018-01-24T03:47:07.877Z</time>
</trkpt>
<trkpt lat="-28.2721967" lon="153.4603369">
<ele>0.000</ele>
<time>2018-01-24T03:47:09.813Z</time>
</trkpt>
<trkpt lat="-28.2724701" lon="153.4600761">
<ele>0.000</ele>
<time>2018-01-24T03:47:11.679Z</time>
</trkpt>
<trkpt lat="-28.2726944" lon="153.4598024">
<ele>0.000</ele>
<time>2018-01-24T03:47:13.489Z</time>
</trkpt>
<trkpt lat="-28.2728427" lon="153.4594917">
<ele>0.000</ele>
<time>2018-01-24T03:47:15.297Z</time>
</trkpt>
<trkpt lat="-28.2729242" lon="153.4591581">
<ele>0.000</ele>
<time>2018-01-24T03:47:17.149Z</time>
</trkpt>
<trkpt lat="-28.2730200" lon="153.4588370">
<ele>0.000</ele>
<time>2018-01-24T03:47:19.027Z</time>
</trkpt>
<trkpt lat="-28.2730912" lon="153.4585428">
<ele>0.000</ele>
<time>2018-01-24T03:47:20.784Z</time>
</trkpt>
<trkpt lat="-28.2729791" lon="153.4582513">
<ele>0.000</ele>
<time>2018-01-24T03:47:22.708Z</time>
</trkpt>
<trkpt lat="-28.2727220" lon="153.4580150">
<ele>0.000</ele>
<time>2018-01-24T03:47:25.069Z</time>
</trkpt>
<trkpt lat="-28.2722896" lon="153.4577217">
<ele>0.000</ele>
<time>2018-01-24T03:47:28.457Z</time>
</trkpt>
<trkpt lat="-28.2718648" lon="153.4574466">
<ele>0.000</ele>
<time>2018-01-24T03:47:31.541Z</time>
</trkpt>
<trkpt lat="-28.2715654" lon="153.4571772">
<ele>0.000</ele>
<time>2018-01-24T03:47:34.070Z</time>
</trkpt>
<trkpt lat="-28.2712432" lon="153.4572107">
<ele>0.000</ele>
<time>2018-01-24T03:47:36.432Z</time>
</trkpt>
<trkpt lat="-28.2708574" lon="153.4572870">
<ele>0.000</ele>
<time>2018-01-24T03:47:39.529Z</time>
</trkpt>
<trkpt lat="-28.2705206" lon="153.4572739">
<ele>0.000</ele>
<time>2018-01-24T03:47:42.270Z</time>
</trkpt>
<trkpt lat="-28.2703612" lon="153.4574655">
<ele>0.000</ele>
<time>2018-01-24T03:47:44.207Z</time>
</trkpt>
<trkpt lat="-28.2702019" lon="153.4577624">
<ele>0.000</ele>
<time>2018-01-24T03:47:47.257Z</time>
</trkpt>
<trkpt lat="-28.2699977" lon="153.4581095">
<ele>0.000</ele>
<time>2018-01-24T03:47:51.141Z</time>
</trkpt>
<trkpt lat="-28.2696197" lon="153.4584127">
<ele>0.000</ele>
<time>2018-01-24T03:47:55.199Z</time>
</trkpt>
<trkpt lat="-28.2692536" lon="153.4585131">
<ele>0.000</ele>
<time>2018-01-24T03:47:58.152Z</time>
</trkpt>
<trkpt lat="-28.2688296" lon="153.4584607">
<ele>0.000</ele>
<time>2018-01-24T03:48:01.325Z</time>
</trkpt>
<trkpt lat="-28.2684188" lon="153.4583528">
<ele>0.000</ele>
<time>2018-01-24T03:48:04.320Z</time>
</trkpt>
<trkpt lat="-28.2680662" lon="153.4582493">
<ele>0.000</ele>
<time>2018-01-24T03:48:06.976Z</time>
</trkpt>
<trkpt lat="-28.2677140" lon="153.4579502">
<ele>0.000</ele>
<time>2018-01-24T03:48:10.360Z</time>
</trkpt>
<trkpt lat="-28.2674282" lon="153.4573785">
<ele>0.000</ele>
<time>2018-01-24T03:48:14.245Z</time>
</trkpt>
<trkpt lat="-28.2670717" lon="153.4568310">
<ele>0.000</ele>
<time>2018-01-24T03:48:17.454Z</time>
</trkpt>
<trkpt lat="-28.2668599" lon="153.4562209">
<ele>0.000</ele>
<time>2018-01-24T03:48:20.400Z</time>
</trkpt>
<trkpt lat="-28.2666950" lon="153.4556784">
<ele>0.000</ele>
<time>2018-01-24T03:48:23.092Z</time>
</trkpt>
<trkpt lat="-28.2664590" lon="153.4551897">
<ele>0.156</ele>
<time>2018-01-24T03:48:25.939Z</time>
</trkpt>
<trkpt lat="-28.2662462" lon="153.4546839">
<ele>0.745</ele>
<time>2018-01-24T03:48:28.881Z</time>
</trkpt>
<trkpt lat="-28.2660952" lon="153.4541207">
<ele>1.059</ele>
<time>2018-01-24T03:48:31.903Z</time>
</trkpt>
<trkpt lat="-28.2661351" lon="153.4534718">
<ele>1.032</ele>
<time>2018-01-24T03:48:35.049Z</time>
</trkpt>
<trkpt lat="-28.2660409" lon="153.4528725">
<ele>0.750</ele>
<time>2018-01-24T03:48:37.911Z</time>
</trkpt>
<trkpt lat="-28.2658399" lon="153.4522910">
<ele>0.465</ele>
<time>2018-01-24T03:48:40.896Z</time>
</trkpt>
<trkpt lat="-28.2656948" lon="153.4519355">
<ele>0.349</ele>
<time>2018-01-24T03:48:42.799Z</time>
</trkpt>
<trkpt lat="-28.2654625" lon="153.4516231">
<ele>0.147</ele>
<time>2018-01-24T03:48:44.822Z</time>
</trkpt>
<trkpt lat="-28.2651634" lon="153.4511944">
<ele>0.000</ele>
<time>2018-01-24T03:48:47.692Z</time>
</trkpt>
<trkpt lat="-28.2650177" lon="153.4509742">
<ele>0.000</ele>
<time>2018-01-24T03:48:49.287Z</time>
</trkpt>
<trkpt lat="-28.2649478" lon="153.4507684">
<ele>0.000</ele>
<time>2018-01-24T03:48:50.691Z</time>
</trkpt>
<trkpt lat="-28.2650796" lon="153.4504847">
<ele>0.000</ele>
<time>2018-01-24T03:48:52.925Z</time>
</trkpt>
<trkpt lat="-28.2651952" lon="153.4501038">
<ele>0.000</ele>
<time>2018-01-24T03:48:55.483Z</time>
</trkpt>
<trkpt lat="-28.2652478" lon="153.4496622">
<ele>0.000</ele>
<time>2018-01-24T03:48:57.819Z</time>
</trkpt>
<trkpt lat="-28.2653411" lon="153.4492508">
<ele>0.000</ele>
<time>2018-01-24T03:48:59.881Z</time>
</trkpt>
<trkpt lat="-28.2654713" lon="153.4488545">
<ele>0.000</ele>
<time>2018-01-24T03:49:01.881Z</time>
</trkpt>
<trkpt lat="-28.2656936" lon="153.4484746">
<ele>0.071</ele>
<time>2018-01-24T03:49:03.970Z</time>
</trkpt>
<trkpt lat="-28.2659001" lon="153.4480683">
<ele>1.200</ele>
<time>2018-01-24T03:49:06.017Z</time>
</trkpt>
<trkpt lat="-28.2660677" lon="153.4476424">
<ele>2.311</ele>
<time>2018-01-24T03:49:07.987Z</time>
</trkpt>
<trkpt lat="-28.2662131" lon="153.4472233">
<ele>3.231</ele>
<time>2018-01-24T03:49:09.903Z</time>
</trkpt>
<trkpt lat="-28.2663537" lon="153.4467987">
<ele>3.813</ele>
<time>2018-01-24T03:49:11.869Z</time>
</trkpt>
<trkpt lat="-28.2664981" lon="153.4463968">
<ele>4.099</ele>
<time>2018-01-24T03:49:13.800Z</time>
</trkpt>
<trkpt lat="-28.2666730" lon="153.4460538">
<ele>4.237</ele>
<time>2018-01-24T03:49:15.633Z</time>
</trkpt>
<trkpt lat="-28.2669028" lon="153.4457480">
<ele>4.237</ele>
<time>2018-01-24T03:49:17.519Z</time>
</trkpt>
<trkpt lat="-28.2672446" lon="153.4455232">
<ele>3.953</ele>
<time>2018-01-24T03:49:19.586Z</time>
</trkpt>
<trkpt lat="-28.2675872" lon="153.4452837">
<ele>3.173</ele>
<time>2018-01-24T03:49:21.643Z</time>
</trkpt>
<trkpt lat="-28.2679321" lon="153.4450783">
<ele>1.887</ele>
<time>2018-01-24T03:49:23.627Z</time>
</trkpt>
<trkpt lat="-28.2683196" lon="153.4449399">
<ele>0.534</ele>
<time>2018-01-24T03:49:25.719Z</time>
</trkpt>
<trkpt lat="-28.2687371" lon="153.4450653">
<ele>0.000</ele>
<time>2018-01-24T03:49:27.936Z</time>
</trkpt>
<trkpt lat="-28.2691565" lon="153.4451265">
<ele>0.000</ele>
<time>2018-01-24T03:49:30.014Z</time>
</trkpt>
<trkpt lat="-28.2695847" lon="153.4451849">
<ele>0.000</ele>
<time>2018-01-24T03:49:32.021Z</time>
</trkpt>
<trkpt lat="-28.2700419" lon="153.4451557">
<ele>0.000</ele>
<time>2018-01-24T03:49:34.076Z</time>
</trkpt>
<trkpt lat="-28.2704813" lon="153.4450517">
<ele>0.000</ele>
<time>2018-01-24T03:49:36.050Z</time>
</trkpt>
<trkpt lat="-28.2708766" lon="153.4449501">
<ele>0.000</ele>
<time>2018-01-24T03:49:37.872Z</time>
</trkpt>
<trkpt lat="-28.2712881" lon="153.4448847">
<ele>0.000</ele>
<time>2018-01-24T03:49:39.821Z</time>
</trkpt>
<trkpt lat="-28.2716416" lon="153.4448234">
<ele>0.000</ele>
<time>2018-01-24T03:49:41.597Z</time>
</trkpt>
<trkpt lat="-28.2719612" lon="153.4448556">
<ele>0.000</ele>
<time>2018-01-24T03:49:43.313Z</time>
</trkpt>
<trkpt lat="-28.2722634" lon="153.4450532">
<ele>0.000</ele>
<time>2018-01-24T03:49:45.282Z</time>
</trkpt>
<trkpt lat="-28.2725343" lon="153.4453750">
<ele>0.000</ele>
<time>2018-01-24T03:49:47.480Z</time>
</trkpt>
<trkpt lat="-28.2727815" lon="153.4457081">
<ele>0.000</ele>
<time>2018-01-24T03:49:49.528Z</time>
</trkpt>
<trkpt lat="-28.2730904" lon="153.4459319">
<ele>0.000</ele>
<time>2018-01-24T03:49:51.475Z</time>
</trkpt>
<trkpt lat="-28.2734195" lon="153.4460606">
<ele>0.000</ele>
<time>2018-01-24T03:49:53.386Z</time>
</trkpt>
<trkpt lat="-28.2737479" lon="153.4460630">
<ele>0.000</ele>
<time>2018-01-24T03:49:55.251Z</time>
</trkpt>
<trkpt lat="-28.2740528" lon="153.4459323">
<ele>0.000</ele>
<time>2018-01-24T03:49:57.156Z</time>
</trkpt>
<trkpt lat="-28.2742837" lon="153.4456417">
<ele>0.000</ele>
<time>2018-01-24T03:49:59.216Z</time>
</trkpt>
<trkpt lat="-28.2744728" lon="153.4452618">
<ele>0.000</ele>
<time>2018-01-24T03:50:01.413Z</time>
</trkpt>
<trkpt lat="-28.2746341" lon="153.4447768">
<ele>0.000</ele>
<time>2018-01-24T03:50:03.693Z</time>
</trkpt>
<trkpt lat="-28.2748171" lon="153.4442994">
<ele>0.000</ele>
<time>2018-01-24T03:50:05.744Z</time>
</trkpt>
<trkpt lat="-28.2750082" lon="153.4438489">
<ele>0.000</ele>
<time>2018-01-24T03:50:07.656Z</time>
</trkpt>
<trkpt lat="-28.2751281" lon="153.4433101">
<ele>0.000</ele>
<time>2018-01-24T03:50:09.737Z</time>
</trkpt>
<trkpt lat="-28.2752288" lon="153.4427224">
<ele>0.000</ele>
<time>2018-01-24T03:50:11.848Z</time>
</trkpt>
<trkpt lat="-28.2752820" lon="153.4421190">
<ele>0.000</ele>
<time>2018-01-24T03:50:13.914Z</time>
</trkpt>
<trkpt lat="-28.2753058" lon="153.4415703">
<ele>0.000</ele>
<time>2018-01-24T03:50:15.846Z</time>
</trkpt>
<trkpt lat="-28.2753497" lon="153.4410630">
<ele>0.000</ele>
<time>2018-01-24T03:50:17.732Z</time>
</trkpt>
<trkpt lat="-28.2754872" lon="153.4406361">
<ele>0.000</ele>
<time>2018-01-24T03:50:19.513Z</time>
</trkpt>
<trkpt lat="-28.2758024" lon="153.4403960">
<ele>0.287</ele>
<time>2018-01-24T03:50:21.346Z</time>
</trkpt>
<trkpt lat="-28.2761420" lon="153.4402300">
<ele>1.528</ele>
<time>2018-01-24T03:50:23.291Z</time>
</trkpt>
<trkpt lat="-28.2765344" lon="153.4401477">
<ele>2.107</ele>
<time>2018-01-24T03:50:25.460Z</time>
</trkpt>
<trkpt lat="-28.2769284" lon="153.4401791">
<ele>1.697</ele>
<time>2018-01-24T03:50:27.554Z</time>
</trkpt>
<trkpt lat="-28.2772774" lon="153.4401819">
<ele>0.328</ele>
<time>2018-01-24T03:50:29.417Z</time>
</trkpt>
<trkpt lat="-28.2776001" lon="153.4401535">
<ele>0.000</ele>
<time>2018-01-24T03:50:31.228Z</time>
</trkpt>
<trkpt lat="-28.2778886" lon="153.4399533">
<ele>0.000</ele>
<time>2018-01-24T03:50:33.172Z</time>
</trkpt>
<trkpt lat="-28.2781509" lon="153.4395691">
<ele>0.000</ele>
<time>2018-01-24T03:50:35.495Z</time>
</trkpt>
<trkpt lat="-28.2784370" lon="153.4391086">
<ele>0.000</ele>
<time>2018-01-24T03:50:37.811Z</time>
</trkpt>
<trkpt lat="-28.2787568" lon="153.4386645">
<ele>0.000</ele>
<time>2018-01-24T03:50:39.908Z</time>
</trkpt>
<trkpt lat="-28.2790842" lon="153.4382343">
<ele>0.000</ele>
<time>2018-01-24T03:50:41.896Z</time>
</trkpt>
<trkpt lat="-28.2794316" lon="153.4378413">
<ele>0.000</ele>
<time>2018-01-24T03:50:43.821Z</time>
</trkpt>
<trkpt lat="-28.2797440" lon="153.4374623">
<ele>0.000</ele>
<time>2018-01-24T03:50:45.686Z</time>
</trkpt>
<trkpt lat="-28.2800094" lon="153.4371836">
<ele>0.000</ele>
<time>2018-01-24T03:50:47.301Z</time>
</trkpt>
<trkpt lat="-28.2802199" lon="153.4368996">
<ele>0.000</ele>
<time>2018-01-24T03:50:48.912Z</time>
</trkpt>
<trkpt lat="-28.2803855" lon="153.4365374">
<ele>0.000</ele>
<time>2018-01-24T03:50:50.863Z</time>
</trkpt>
<trkpt lat="-28.2803989" lon="153.4361295">
<ele>0.000</ele>
<time>2018-01-24T03:50:52.900Z</time>
</trkpt>
<trkpt lat="-28.2802832" lon="153.4356795">
<ele>0.000</ele>
<time>2018-01-24T03:50:55.194Z</time>
</trkpt>
<trkpt lat="-28.2800929" lon="153.4352416">
<ele>0.000</ele>
<time>2018-01-24T03:50:57.435Z</time>
</trkpt>
<trkpt lat="-28.2799049" lon="153.4347947">
<ele>0.000</ele>
<time>2018-01-24T03:50:59.540Z</time>
</trkpt>
<trkpt lat="-28.2797532" lon="153.4343437">
<ele>0.000</ele>
<time>2018-01-24T03:51:01.525Z</time>
</trkpt>
<trkpt lat="-28.2796347" lon="153.4338597">
<ele>0.000</ele>
<time>2018-01-24T03:51:03.572Z</time>
</trkpt>
<trkpt lat="-28.2795228" lon="153.4333831">
<ele>0.000</ele>
<time>2018-01-24T03:51:05.547Z</time>
</trkpt>
<trkpt lat="-28.2794271" lon="153.4329067">
<ele>0.000</ele>
<time>2018-01-24T03:51:07.475Z</time>
</trkpt>
<trkpt lat="-28.2793438" lon="153.4324426">
<ele>0.000</ele>
<time>2018-01-24T03:51:09.369Z</time>
</trkpt>
<trkpt lat="-28.2793340" lon="153.4320188">
<ele>0.000</ele>
<time>2018-01-24T03:51:11.127Z</time>
</trkpt>
<trkpt lat="-28.2793413" lon="153.4316145">
<ele>0.000</ele>
<time>2018-01-24T03:51:12.907Z</time>
</trkpt>
<trkpt lat="-28.2794837" lon="153.4312941">
<ele>0.000</ele>
<time>2018-01-24T03:51:14.619Z</time>
</trkpt>
<trkpt lat="-28.2797802" lon="153.4309619">
<ele>0.000</ele>
<time>2018-01-24T03:51:16.980Z</time>
</trkpt>
<trkpt lat="-28.2801902" lon="153.4306909">
<ele>0.000</ele>
<time>2018-01-24T03:51:19.321Z</time>
</trkpt>
<trkpt lat="-28.2806677" lon="153.4303750">
<ele>0.000</ele>
<time>2018-01-24T03:51:21.577Z</time>
</trkpt>
<trkpt lat="-28.2812070" lon="153.4300256">
<ele>0.000</ele>
<time>2018-01-24T03:51:23.790Z</time>
</trkpt>
<trkpt lat="-28.2817587" lon="153.4296651">
<ele>0.000</ele>
<time>2018-01-24T03:51:25.925Z</time>
</trkpt>
<trkpt lat="-28.2823611" lon="153.4293223">
<ele>0.000</ele>
<time>2018-01-24T03:51:28.078Z</time>
</trkpt>
<trkpt lat="-28.2828473" lon="153.4290143">
<ele>0.000</ele>
<time>2018-01-24T03:51:29.913Z</time>
</trkpt>
<trkpt lat="-28.2831727" lon="153.4288063">
<ele>0.000</ele>
<time>2018-01-24T03:51:31.300Z</time>
</trkpt>
<trkpt lat="-28.2834063" lon="153.4285600">
<ele>0.000</ele>
<time>2018-01-24T03:51:32.587Z</time>
</trkpt>
<trkpt lat="-28.2835652" lon="153.4282088">
<ele>0.000</ele>
<time>2018-01-24T03:51:34.160Z</time>
</trkpt>
<trkpt lat="-28.2836526" lon="153.4277704">
<ele>0.000</ele>
<time>2018-01-24T03:51:36.254Z</time>
</trkpt>
<trkpt lat="-28.2837445" lon="153.4273078">
<ele>0.000</ele>
<time>2018-01-24T03:51:38.501Z</time>
</trkpt>
<trkpt lat="-28.2838401" lon="153.4268025">
<ele>0.000</ele>
<time>2018-01-24T03:51:40.743Z</time>
</trkpt>
<trkpt lat="-28.2839840" lon="153.4263022">
<ele>0.000</ele>
<time>2018-01-24T03:51:42.840Z</time>
</trkpt>
<trkpt lat="-28.2841184" lon="153.4258180">
<ele>0.000</ele>
<time>2018-01-24T03:51:44.769Z</time>
</trkpt>
<trkpt lat="-28.2843067" lon="153.4253176">
<ele>0.000</ele>
<time>2018-01-24T03:51:46.797Z</time>
</trkpt>
<trkpt lat="-28.2846692" lon="153.4248429">
<ele>0.000</ele>
<time>2018-01-24T03:51:49.067Z</time>
</trkpt>
<trkpt lat="-28.2850560" lon="153.4243355">
<ele>0.000</ele>
<time>2018-01-24T03:51:51.294Z</time>
</trkpt>
<trkpt lat="-28.2854520" lon="153.4237986">
<ele>0.000</ele>
<time>2018-01-24T03:51:53.423Z</time>
</trkpt>
<trkpt lat="-28.2858356" lon="153.4231929">
<ele>0.000</ele>
<time>2018-01-24T03:51:55.545Z</time>
</trkpt>
<trkpt lat="-28.2862687" lon="153.4225968">
<ele>0.000</ele>
<time>2018-01-24T03:51:57.610Z</time>
</trkpt>
<trkpt lat="-28.2866823" lon="153.4219469">
<ele>0.000</ele>
<time>2018-01-24T03:51:59.640Z</time>
</trkpt>
<trkpt lat="-28.2871122" lon="153.4213164">
<ele>0.000</ele>
<time>2018-01-24T03:52:01.623Z</time>
</trkpt>
<trkpt lat="-28.2875090" lon="153.4207648">
<ele>0.000</ele>
<time>2018-01-24T03:52:03.445Z</time>
</trkpt>
<trkpt lat="-28.2878533" lon="153.4202595">
<ele>0.000</ele>
<time>2018-01-24T03:52:05.184Z</time>
</trkpt>
<trkpt lat="-28.2881579" lon="153.4197551">
<ele>0.000</ele>
<time>2018-01-24T03:52:06.963Z</time>
</trkpt>
<trkpt lat="-28.2883982" lon="153.4192457">
<ele>0.000</ele>
<time>2018-01-24T03:52:08.745Z</time>
</trkpt>
<trkpt lat="-28.2885955" lon="153.4187224">
<ele>0.000</ele>
<time>2018-01-24T03:52:10.582Z</time>
</trkpt>
<trkpt lat="-28.2887778" lon="153.4181646">
<ele>0.000</ele>
<time>2018-01-24T03:52:12.559Z</time>
</trkpt>
<trkpt lat="-28.2889695" lon="153.4176276">
<ele>0.000</ele>
<time>2018-01-24T03:52:14.488Z</time>
</trkpt>
<trkpt lat="-28.2891761" lon="153.4171146">
<ele>0.000</ele>
<time>2018-01-24T03:52:16.367Z</time>
</trkpt>
<trkpt lat="-28.2894329" lon="153.4166051">
<ele>0.000</ele>
<time>2018-01-24T03:52:18.370Z</time>
</trkpt>
<trkpt lat="-28.2897233" lon="153.4160569">
<ele>0.000</ele>
<time>2018-01-24T03:52:20.569Z</time>
</trkpt>
<trkpt lat="-28.2900220" lon="153.4155419">
<ele>0.000</ele>
<time>2018-01-24T03:52:22.574Z</time>
</trkpt>
<trkpt lat="-28.2902921" lon="153.4150553">
<ele>0.000</ele>
<time>2018-01-24T03:52:24.364Z</time>
</trkpt>
<trkpt lat="-28.2905501" lon="153.4146160">
<ele>0.000</ele>
<time>2018-01-24T03:52:26.030Z</time>
</trkpt>
<trkpt lat="-28.2907983" lon="153.4142136">
<ele>0.000</ele>
<time>2018-01-24T03:52:27.683Z</time>
</trkpt>
<trkpt lat="-28.2909953" lon="153.4138300">
<ele>0.000</ele>
<time>2018-01-24T03:52:29.285Z</time>
</trkpt>
<trkpt lat="-28.2911947" lon="153.4134850">
<ele>0.000</ele>
<time>2018-01-24T03:52:30.880Z</time>
</trkpt>
<trkpt lat="-28.2913868" lon="153.4131445">
<ele>0.000</ele>
<time>2018-01-24T03:52:32.555Z</time>
</trkpt>
<trkpt lat="-28.2915467" lon="153.4127841">
<ele>0.000</ele>
<time>2018-01-24T03:52:34.335Z</time>
</trkpt>
<trkpt lat="-28.2916545" lon="153.4124158">
<ele>0.000</ele>
<time>2018-01-24T03:52:36.137Z</time>
</trkpt>
<trkpt lat="-28.2917443" lon="153.4119769">
<ele>0.000</ele>
<time>2018-01-24T03:52:38.288Z</time>
</trkpt>
<trkpt lat="-28.2918494" lon="153.4115413">
<ele>0.000</ele>
<time>2018-01-24T03:52:40.448Z</time>
</trkpt>
<trkpt lat="-28.2919586" lon="153.4111025">
<ele>0.000</ele>
<time>2018-01-24T03:52:42.519Z</time>
</trkpt>
<trkpt lat="-28.2920223" lon="153.4106410">
<ele>0.000</ele>
<time>2018-01-24T03:52:44.527Z</time>
</trkpt>
<trkpt lat="-28.2921246" lon="153.4102083">
<ele>0.000</ele>
<time>2018-01-24T03:52:46.420Z</time>
</trkpt>
<trkpt lat="-28.2922516" lon="153.4097908">
<ele>0.000</ele>
<time>2018-01-24T03:52:48.288Z</time>
</trkpt>
<trkpt lat="-28.2923829" lon="153.4093440">
<ele>0.000</ele>
<time>2018-01-24T03:52:50.299Z</time>
</trkpt>
<trkpt lat="-28.2924673" lon="153.4088835">
<ele>0.000</ele>
<time>2018-01-24T03:52:52.332Z</time>
</trkpt>
<trkpt lat="-28.2925117" lon="153.4083440">
<ele>0.000</ele>
<time>2018-01-24T03:52:54.669Z</time>
</trkpt>
<trkpt lat="-28.2925676" lon="153.4077253">
<ele>0.000</ele>
<time>2018-01-24T03:52:57.211Z</time>
</trkpt>
<trkpt lat="-28.2926461" lon="153.4070929">
<ele>0.000</ele>
<time>2018-01-24T03:52:59.513Z</time>
</trkpt>
<trkpt lat="-28.2927347" lon="153.4064784">
<ele>0.000</ele>
<time>2018-01-24T03:53:01.547Z</time>
</trkpt>
<trkpt lat="-28.2927813" lon="153.4059398">
<ele>0.000</ele>
<time>2018-01-24T03:53:03.255Z</time>
</trkpt>
<trkpt lat="-28.2928229" lon="153.4054446">
<ele>0.000</ele>
<time>2018-01-24T03:53:04.854Z</time>
</trkpt>
<trkpt lat="-28.2927378" lon="153.4049623">
<ele>0.000</ele>
<time>2018-01-24T03:53:06.513Z</time>
</trkpt>
<trkpt lat="-28.2925840" lon="153.4044576">
<ele>0.000</ele>
<time>2018-01-24T03:53:08.472Z</time>
</trkpt>
<trkpt lat="-28.2924726" lon="153.4037699">
<ele>0.000</ele>
<time>2018-01-24T03:53:11.239Z</time>
</trkpt>
<trkpt lat="-28.2924468" lon="153.4033202">
<ele>0.000</ele>
<time>2018-01-24T03:53:13.062Z</time>
</trkpt>
<trkpt lat="-28.2925653" lon="153.4029325">
<ele>0.000</ele>
<time>2018-01-24T03:53:14.728Z</time>
</trkpt>
<trkpt lat="-28.2926956" lon="153.4024964">
<ele>0.000</ele>
<time>2018-01-24T03:53:16.651Z</time>
</trkpt>
<trkpt lat="-28.2927861" lon="153.4020922">
<ele>0.000</ele>
<time>2018-01-24T03:53:18.444Z</time>
</trkpt>
<trkpt lat="-28.2927826" lon="153.4017902">
<ele>0.000</ele>
<time>2018-01-24T03:53:19.765Z</time>
</trkpt>
<trkpt lat="-28.2926515" lon="153.4015624">
<ele>0.000</ele>
<time>2018-01-24T03:53:20.965Z</time>
</trkpt>
<trkpt lat="-28.2923407" lon="153.4013819">
<ele>0.000</ele>
<time>2018-01-24T03:53:22.765Z</time>
</trkpt>
<trkpt lat="-28.2919312" lon="153.4011735">
<ele>0.000</ele>
<time>2018-01-24T03:53:25.421Z</time>
</trkpt>
<trkpt lat="-28.2915670" lon="153.4009428">
<ele>0.000</ele>
<time>2018-01-24T03:53:28.352Z</time>
</trkpt>
<trkpt lat="-28.2912287" lon="153.4006803">
<ele>0.000</ele>
<time>2018-01-24T03:53:30.784Z</time>
</trkpt>
<trkpt lat="-28.2909265" lon="153.4004308">
<ele>0.000</ele>
<time>2018-01-24T03:53:32.625Z</time>
</trkpt>
<trkpt lat="-28.2906849" lon="153.4001542">
<ele>0.000</ele>
<time>2018-01-24T03:53:34.254Z</time>
</trkpt>
<trkpt lat="-28.2905953" lon="153.3997588">
<ele>0.000</ele>
<time>2018-01-24T03:53:35.967Z</time>
</trkpt>
<trkpt lat="-28.2905135" lon="153.3992719">
<ele>0.000</ele>
<time>2018-01-24T03:53:38.151Z</time>
</trkpt>
<trkpt lat="-28.2904273" lon="153.3987385">
<ele>0.000</ele>
<time>2018-01-24T03:53:40.753Z</time>
</trkpt>
<trkpt lat="-28.2903579" lon="153.3982233">
<ele>0.125</ele>
<time>2018-01-24T03:53:43.122Z</time>
</trkpt>
<trkpt lat="-28.2903458" lon="153.3977788">
<ele>0.594</ele>
<time>2018-01-24T03:53:44.924Z</time>
</trkpt>
<trkpt lat="-28.2903365" lon="153.3973834">
<ele>0.767</ele>
<time>2018-01-24T03:53:46.455Z</time>
</trkpt>
<trkpt lat="-28.2904057" lon="153.3970766">
<ele>0.782</ele>
<time>2018-01-24T03:53:47.687Z</time>
</trkpt>
<trkpt lat="-28.2905990" lon="153.3967792">
<ele>0.574</ele>
<time>2018-01-24T03:53:49.149Z</time>
</trkpt>
<trkpt lat="-28.2908823" lon="153.3963957">
<ele>0.145</ele>
<time>2018-01-24T03:53:51.365Z</time>
</trkpt>
<trkpt lat="-28.2911695" lon="153.3959662">
<ele>0.000</ele>
<time>2018-01-24T03:53:54.138Z</time>
</trkpt>
<trkpt lat="-28.2914293" lon="153.3955459">
<ele>0.000</ele>
<time>2018-01-24T03:53:56.630Z</time>
</trkpt>
<trkpt lat="-28.2917029" lon="153.3951942">
<ele>0.000</ele>
<time>2018-01-24T03:53:58.567Z</time>
</trkpt>
<trkpt lat="-28.2919897" lon="153.3948914">
<ele>0.000</ele>
<time>2018-01-24T03:54:00.261Z</time>
</trkpt>
<trkpt lat="-28.2922130" lon="153.3945575">
<ele>0.000</ele>
<time>2018-01-24T03:54:01.858Z</time>
</trkpt>
<trkpt lat="-28.2922803" lon="153.3941910">
<ele>0.000</ele>
<time>2018-01-24T03:54:03.326Z</time>
</trkpt>
<trkpt lat="-28.2922304" lon="153.3938065">
<ele>0.000</ele>
<time>2018-01-24T03:54:04.940Z</time>
</trkpt>
<trkpt lat="-28.2921864" lon="153.3934170">
<ele>0.000</ele>
<time>2018-01-24T03:54:06.705Z</time>
</trkpt>
<trkpt lat="-28.2920544" lon="153.3930241">
<ele>0.000</ele>
<time>2018-01-24T03:54:08.722Z</time>
</trkpt>
<trkpt lat="-28.2918028" lon="153.3926014">
<ele>0.000</ele>
<time>2018-01-24T03:54:11.241Z</time>
</trkpt>
<trkpt lat="-28.2915733" lon="153.3922324">
<ele>0.000</ele>
<time>2018-01-24T03:54:13.470Z</time>
</trkpt>
<trkpt lat="-28.2914096" lon="153.3918752">
<ele>0.000</ele>
<time>2018-01-24T03:54:15.424Z</time>
</trkpt>
<trkpt lat="-28.2913306" lon="153.3915005">
<ele>0.000</ele>
<time>2018-01-24T03:54:17.196Z</time>
</trkpt>
<trkpt lat="-28.2914340" lon="153.3910003">
<ele>0.000</ele>
<time>2018-01-24T03:54:19.460Z</time>
</trkpt>
<trkpt lat="-28.2915521" lon="153.3904630">
<ele>0.000</ele>
<time>2018-01-24T03:54:22.006Z</time>
</trkpt>
<trkpt lat="-28.2916556" lon="153.3899523">
<ele>0.000</ele>
<time>2018-01-24T03:54:24.445Z</time>
</trkpt>
<trkpt lat="-28.2916884" lon="153.3894533">
<ele>0.000</ele>
<time>2018-01-24T03:54:26.543Z</time>
</trkpt>
<trkpt lat="-28.2916300" lon="153.3887062">
<ele>0.000</ele>
<time>2018-01-24T03:54:29.413Z</time>
</trkpt>
<trkpt lat="-28.2914971" lon="153.3879897">
<ele>0.000</ele>
<time>2018-01-24T03:54:32.231Z</time>
</trkpt>
<trkpt lat="-28.2912972" lon="153.3873950">
<ele>0.000</ele>
<time>2018-01-24T03:54:34.739Z</time>
</trkpt>
<trkpt lat="-28.2912959" lon="153.3868547">
<ele>0.000</ele>
<time>2018-01-24T03:54:36.927Z</time>
</trkpt>
<trkpt lat="-28.2914338" lon="153.3863888">
<ele>0.000</ele>
<time>2018-01-24T03:54:39.082Z</time>
</trkpt>
<trkpt lat="-28.2915560" lon="153.3858983">
<ele>0.000</ele>
<time>2018-01-24T03:54:41.505Z</time>
</trkpt>
<trkpt lat="-28.2916930" lon="153.3854815">
<ele>0.000</ele>
<time>2018-01-24T03:54:43.795Z</time>
</trkpt>
<trkpt lat="-28.2917685" lon="153.3852511">
<ele>0.000</ele>
<time>2018-01-24T03:54:45.135Z</time>
</trkpt>
<trkpt lat="-28.2918228" lon="153.3851697">
<ele>0.000</ele>
<time>2018-01-24T03:54:45.692Z</time>
</trkpt>
<trkpt lat="-28.2919075" lon="153.3851079">
<ele>0.000</ele>
<time>2018-01-24T03:54:46.320Z</time>
</trkpt>
<trkpt lat="-28.2918801" lon="153.3850096">
<ele>0.000</ele>
<time>2018-01-24T03:54:46.890Z</time>
</trkpt>
<trkpt lat="-28.2917667" lon="153.3849423">
<ele>0.000</ele>
<time>2018-01-24T03:54:47.694Z</time>
</trkpt>
<trkpt lat="-28.2914342" lon="153.3846895">
<ele>0.000</ele>
<time>2018-01-24T03:54:50.341Z</time>
</trkpt>
<trkpt lat="-28.2910155" lon="153.3843999">
<ele>0.000</ele>
<time>2018-01-24T03:54:54.469Z</time>
</trkpt>
<trkpt lat="-28.2906525" lon="153.3841468">
<ele>0.000</ele>
<time>2018-01-24T03:55:04.664Z</time>
</trkpt>
<trkpt lat="-28.2903851" lon="153.3839594">
<ele>0.000</ele>
<time>2018-01-24T03:55:16.905Z</time>
</trkpt>
<trkpt lat="-28.2899668" lon="153.3837158">
<ele>0.000</ele>
<time>2018-01-24T03:55:21.679Z</time>
</trkpt>
<trkpt lat="-28.2896839" lon="153.3836184">
<ele>0.000</ele>
<time>2018-01-24T03:55:23.782Z</time>
</trkpt>
<trkpt lat="-28.2894079" lon="153.3835279">
<ele>0.000</ele>
<time>2018-01-24T03:55:25.743Z</time>
</trkpt>
<trkpt lat="-28.2891658" lon="153.3833467">
<ele>0.000</ele>
<time>2018-01-24T03:55:27.618Z</time>
</trkpt>
<trkpt lat="-28.2889463" lon="153.3830836">
<ele>0.000</ele>
<time>2018-01-24T03:55:29.595Z</time>
</trkpt>
<trkpt lat="-28.2887403" lon="153.3828262">
<ele>0.000</ele>
<time>2018-01-24T03:55:31.486Z</time>
</trkpt>
<trkpt lat="-28.2885655" lon="153.3825410">
<ele>0.000</ele>
<time>2018-01-24T03:55:33.464Z</time>
</trkpt>
<trkpt lat="-28.2884300" lon="153.3822103">
<ele>0.000</ele>
<time>2018-01-24T03:55:35.667Z</time>
</trkpt>
<trkpt lat="-28.2883467" lon="153.3818097">
<ele>0.000</ele>
<time>2018-01-24T03:55:38.129Z</time>
</trkpt>
<trkpt lat="-28.2882447" lon="153.3814406">
<ele>0.000</ele>
<time>2018-01-24T03:55:40.360Z</time>
</trkpt>
<trkpt lat="-28.2881526" lon="153.3810980">
<ele>0.000</ele>
<time>2018-01-24T03:55:42.431Z</time>
</trkpt>
<trkpt lat="-28.2880259" lon="153.3807448">
<ele>0.000</ele>
<time>2018-01-24T03:55:44.575Z</time>
</trkpt>
<trkpt lat="-28.2878734" lon="153.3804061">
<ele>0.000</ele>
<time>2018-01-24T03:55:46.573Z</time>
</trkpt>
<trkpt lat="-28.2876995" lon="153.3800519">
<ele>0.000</ele>
<time>2018-01-24T03:55:48.656Z</time>
</trkpt>
<trkpt lat="-28.2874800" lon="153.3797364">
<ele>0.000</ele>
<time>2018-01-24T03:55:50.785Z</time>
</trkpt>
<trkpt lat="-28.2872025" lon="153.3794528">
<ele>0.000</ele>
<time>2018-01-24T03:55:53.049Z</time>
</trkpt>
<trkpt lat="-28.2869349" lon="153.3791210">
<ele>0.000</ele>
<time>2018-01-24T03:55:55.385Z</time>
</trkpt>
<trkpt lat="-28.2866789" lon="153.3787751">
<ele>0.000</ele>
<time>2018-01-24T03:55:57.675Z</time>
</trkpt>
<trkpt lat="-28.2864518" lon="153.3784014">
<ele>0.000</ele>
<time>2018-01-24T03:55:59.922Z</time>
</trkpt>
<trkpt lat="-28.2862319" lon="153.3780396">
<ele>0.000</ele>
<time>2018-01-24T03:56:01.959Z</time>
</trkpt>
<trkpt lat="-28.2859794" lon="153.3776574">
<ele>0.000</ele>
<time>2018-01-24T03:56:04.040Z</time>
</trkpt>
<trkpt lat="-28.2857698" lon="153.3772398">
<ele>0.000</ele>
<time>2018-01-24T03:56:06.110Z</time>
</trkpt>
<trkpt lat="-28.2855787" lon="153.3768310">
<ele>0.000</ele>
<time>2018-01-24T03:56:08.115Z</time>
</trkpt>
<trkpt lat="-28.2853724" lon="153.3764339">
<ele>0.000</ele>
<time>2018-01-24T03:56:10.092Z</time>
</trkpt>
<trkpt lat="-28.2851872" lon="153.3760425">
<ele>0.000</ele>
<time>2018-01-24T03:56:11.963Z</time>
</trkpt>
<trkpt lat="-28.2850526" lon="153.3756720">
<ele>0.000</ele>
<time>2018-01-24T03:56:13.651Z</time>
</trkpt>
<trkpt lat="-28.2849667" lon="153.3753744">
<ele>0.000</ele>
<time>2018-01-24T03:56:14.977Z</time>
</trkpt>
<trkpt lat="-28.2848210" lon="153.3751338">
<ele>0.000</ele>
<time>2018-01-24T03:56:16.219Z</time>
</trkpt>
<trkpt lat="-28.2845826" lon="153.3749206">
<ele>0.000</ele>
<time>2018-01-24T03:56:17.698Z</time>
</trkpt>
<trkpt lat="-28.2843642" lon="153.3747760">
<ele>0.000</ele>
<time>2018-01-24T03:56:18.966Z</time>
</trkpt>
<trkpt lat="-28.2841795" lon="153.3746179">
<ele>0.000</ele>
<time>2018-01-24T03:56:20.157Z</time>
</trkpt>
<trkpt lat="-28.2839038" lon="153.3745779">
<ele>0.000</ele>
<time>2018-01-24T03:56:21.767Z</time>
</trkpt>
<trkpt lat="-28.2836162" lon="153.3747091">
<ele>0.000</ele>
<time>2018-01-24T03:56:23.810Z</time>
</trkpt>
<trkpt lat="-28.2833663" lon="153.3749715">
<ele>0.000</ele>
<time>2018-01-24T03:56:26.127Z</time>
</trkpt>
<trkpt lat="-28.2831045" lon="153.3752271">
<ele>0.000</ele>
<time>2018-01-24T03:56:28.555Z</time>
</trkpt>
<trkpt lat="-28.2828165" lon="153.3754484">
<ele>0.000</ele>
<time>2018-01-24T03:56:31.205Z</time>
</trkpt>
<trkpt lat="-28.2825054" lon="153.3755439">
<ele>0.000</ele>
<time>2018-01-24T03:56:33.680Z</time>
</trkpt>
<trkpt lat="-28.2821905" lon="153.3754438">
<ele>0.000</ele>
<time>2018-01-24T03:56:35.920Z</time>
</trkpt>
<trkpt lat="-28.2818917" lon="153.3752735">
<ele>0.000</ele>
<time>2018-01-24T03:56:37.955Z</time>
</trkpt>
<trkpt lat="-28.2816157" lon="153.3750123">
<ele>1.745</ele>
<time>2018-01-24T03:56:40.029Z</time>
</trkpt>
<trkpt lat="-28.2813955" lon="153.3746579">
<ele>3.926</ele>
<time>2018-01-24T03:56:42.324Z</time>
</trkpt>
<trkpt lat="-28.2813120" lon="153.3742440">
<ele>5.937</ele>
<time>2018-01-24T03:56:44.677Z</time>
</trkpt>
<trkpt lat="-28.2812067" lon="153.3738382">
<ele>7.635</ele>
<time>2018-01-24T03:56:46.971Z</time>
</trkpt>
<trkpt lat="-28.2810255" lon="153.3734894">
<ele>9.173</ele>
<time>2018-01-24T03:56:49.084Z</time>
</trkpt>
<trkpt lat="-28.2808091" lon="153.3731734">
<ele>10.861</ele>
<time>2018-01-24T03:56:51.092Z</time>
</trkpt>
<trkpt lat="-28.2805717" lon="153.3729126">
<ele>12.903</ele>
<time>2018-01-24T03:56:52.929Z</time>
</trkpt>
<trkpt lat="-28.2803389" lon="153.3726344">
<ele>15.108</ele>
<time>2018-01-24T03:56:54.806Z</time>
</trkpt>
<trkpt lat="-28.2801126" lon="153.3723855">
<ele>17.101</ele>
<time>2018-01-24T03:56:56.579Z</time>
</trkpt>
<trkpt lat="-28.2799989" lon="153.3720448">
<ele>18.597</ele>
<time>2018-01-24T03:56:58.416Z</time>
</trkpt>
<trkpt lat="-28.2800017" lon="153.3716600">
<ele>19.439</ele>
<time>2018-01-24T03:57:00.376Z</time>
</trkpt>
<trkpt lat="-28.2800003" lon="153.3712811">
<ele>19.654</ele>
<time>2018-01-24T03:57:02.316Z</time>
</trkpt>
<trkpt lat="-28.2799745" lon="153.3709375">
<ele>19.520</ele>
<time>2018-01-24T03:57:04.120Z</time>
</trkpt>
<trkpt lat="-28.2798903" lon="153.3705727">
<ele>19.285</ele>
<time>2018-01-24T03:57:06.158Z</time>
</trkpt>
<trkpt lat="-28.2796746" lon="153.3702474">
<ele>19.068</ele>
<time>2018-01-24T03:57:08.357Z</time>
</trkpt>
<trkpt lat="-28.2793350" lon="153.3701295">
<ele>18.932</ele>
<time>2018-01-24T03:57:10.521Z</time>
</trkpt>
<trkpt lat="-28.2789858" lon="153.3700411">
<ele>18.973</ele>
<time>2018-01-24T03:57:12.751Z</time>
</trkpt>
<trkpt lat="-28.2785971" lon="153.3700322">
<ele>19.316</ele>
<time>2018-01-24T03:57:15.164Z</time>
</trkpt>
<trkpt lat="-28.2782036" lon="153.3701242">
<ele>19.882</ele>
<time>2018-01-24T03:57:17.621Z</time>
</trkpt>
<trkpt lat="-28.2778337" lon="153.3702077">
<ele>20.602</ele>
<time>2018-01-24T03:57:19.897Z</time>
</trkpt>
<trkpt lat="-28.2774861" lon="153.3701379">
<ele>21.770</ele>
<time>2018-01-24T03:57:21.881Z</time>
</trkpt>
<trkpt lat="-28.2771605" lon="153.3699271">
<ele>23.687</ele>
<time>2018-01-24T03:57:23.828Z</time>
</trkpt>
<trkpt lat="-28.2767992" lon="153.3697244">
<ele>26.229</ele>
<time>2018-01-24T03:57:25.904Z</time>
</trkpt>
<trkpt lat="-28.2764358" lon="153.3695576">
<ele>28.921</ele>
<time>2018-01-24T03:57:28.035Z</time>
</trkpt>
<trkpt lat="-28.2760453" lon="153.3693494">
<ele>31.176</ele>
<time>2018-01-24T03:57:30.331Z</time>
</trkpt>
<trkpt lat="-28.2756402" lon="153.3691710">
<ele>32.753</ele>
<time>2018-01-24T03:57:32.516Z</time>
</trkpt>
<trkpt lat="-28.2752294" lon="153.3689811">
<ele>34.016</ele>
<time>2018-01-24T03:57:34.663Z</time>
</trkpt>
<trkpt lat="-28.2747929" lon="153.3688126">
<ele>35.620</ele>
<time>2018-01-24T03:57:36.814Z</time>
</trkpt>
<trkpt lat="-28.2743898" lon="153.3686013">
<ele>37.776</ele>
<time>2018-01-24T03:57:38.813Z</time>
</trkpt>
<trkpt lat="-28.2739712" lon="153.3683853">
<ele>40.172</ele>
<time>2018-01-24T03:57:40.837Z</time>
</trkpt>
<trkpt lat="-28.2735877" lon="153.3682180">
<ele>42.653</ele>
<time>2018-01-24T03:57:42.629Z</time>
</trkpt>
<trkpt lat="-28.2731842" lon="153.3681386">
<ele>45.419</ele>
<time>2018-01-24T03:57:44.409Z</time>
</trkpt>
<trkpt lat="-28.2727971" lon="153.3681543">
<ele>48.686</ele>
<time>2018-01-24T03:57:46.094Z</time>
</trkpt>
<trkpt lat="-28.2724190" lon="153.3681462">
<ele>52.501</ele>
<time>2018-01-24T03:57:47.776Z</time>
</trkpt>
<trkpt lat="-28.2720321" lon="153.3681931">
<ele>56.638</ele>
<time>2018-01-24T03:57:49.618Z</time>
</trkpt>
<trkpt lat="-28.2716545" lon="153.3683769">
<ele>60.660</ele>
<time>2018-01-24T03:57:51.674Z</time>
</trkpt>
<trkpt lat="-28.2712995" lon="153.3684374">
<ele>64.029</ele>
<time>2018-01-24T03:57:53.518Z</time>
</trkpt>
<trkpt lat="-28.2709652" lon="153.3684475">
<ele>66.320</ele>
<time>2018-01-24T03:57:55.259Z</time>
</trkpt>
<trkpt lat="-28.2706475" lon="153.3684061">
<ele>67.546</ele>
<time>2018-01-24T03:57:56.942Z</time>
</trkpt>
<trkpt lat="-28.2703197" lon="153.3682737">
<ele>68.259</ele>
<time>2018-01-24T03:57:58.794Z</time>
</trkpt>
<trkpt lat="-28.2699881" lon="153.3681747">
<ele>69.379</ele>
<time>2018-01-24T03:58:00.659Z</time>
</trkpt>
<trkpt lat="-28.2696591" lon="153.3681411">
<ele>71.583</ele>
<time>2018-01-24T03:58:02.516Z</time>
</trkpt>
<trkpt lat="-28.2693019" lon="153.3681565">
<ele>74.743</ele>
<time>2018-01-24T03:58:04.589Z</time>
</trkpt>
<trkpt lat="-28.2690020" lon="153.3681819">
<ele>78.230</ele>
<time>2018-01-24T03:58:06.323Z</time>
</trkpt>
<trkpt lat="-28.2687169" lon="153.3681567">
<ele>81.590</ele>
<time>2018-01-24T03:58:07.956Z</time>
</trkpt>
<trkpt lat="-28.2684622" lon="153.3680416">
<ele>84.894</ele>
<time>2018-01-24T03:58:09.545Z</time>
</trkpt>
<trkpt lat="-28.2681916" lon="153.3680223">
<ele>88.540</ele>
<time>2018-01-24T03:58:11.118Z</time>
</trkpt>
<trkpt lat="-28.2679027" lon="153.3681553">
<ele>92.480</ele>
<time>2018-01-24T03:58:12.954Z</time>
</trkpt>
<trkpt lat="-28.2676201" lon="153.3682253">
<ele>96.192</ele>
<time>2018-01-24T03:58:14.736Z</time>
</trkpt>
<trkpt lat="-28.2673465" lon="153.3681336">
<ele>99.450</ele>
<time>2018-01-24T03:58:16.624Z</time>
</trkpt>
<trkpt lat="-28.2670310" lon="153.3680095">
<ele>102.361</ele>
<time>2018-01-24T03:58:19.014Z</time>
</trkpt>
<trkpt lat="-28.2666946" lon="153.3679099">
<ele>104.811</ele>
<time>2018-01-24T03:58:21.558Z</time>
</trkpt>
<trkpt lat="-28.2663154" lon="153.3678934">
<ele>106.683</ele>
<time>2018-01-24T03:58:24.160Z</time>
</trkpt>
<trkpt lat="-28.2660073" lon="153.3680338">
<ele>108.223</ele>
<time>2018-01-24T03:58:26.409Z</time>
</trkpt>
<trkpt lat="-28.2657493" lon="153.3681523">
<ele>109.885</ele>
<time>2018-01-24T03:58:28.237Z</time>
</trkpt>
<trkpt lat="-28.2655713" lon="153.3683990">
<ele>111.975</ele>
<time>2018-01-24T03:58:29.997Z</time>
</trkpt>
<trkpt lat="-28.2654189" lon="153.3687094">
<ele>114.405</ele>
<time>2018-01-24T03:58:31.865Z</time>
</trkpt>
<trkpt lat="-28.2651474" lon="153.3689346">
<ele>116.881</ele>
<time>2018-01-24T03:58:33.859Z</time>
</trkpt>
<trkpt lat="-28.2648171" lon="153.3691002">
<ele>119.442</ele>
<time>2018-01-24T03:58:36.172Z</time>
</trkpt>
<trkpt lat="-28.2645295" lon="153.3692063">
<ele>122.394</ele>
<time>2018-01-24T03:58:38.346Z</time>
</trkpt>
<trkpt lat="-28.2641941" lon="153.3692191">
<ele>125.827</ele>
<time>2018-01-24T03:58:40.763Z</time>
</trkpt>
<trkpt lat="-28.2637910" lon="153.3690540">
<ele>129.720</ele>
<time>2018-01-24T03:58:43.501Z</time>
</trkpt>
<trkpt lat="-28.2633767" lon="153.3690031">
<ele>134.028</ele>
<time>2018-01-24T03:58:46.048Z</time>
</trkpt>
<trkpt lat="-28.2629971" lon="153.3690245">
<ele>138.437</ele>
<time>2018-01-24T03:58:48.454Z</time>
</trkpt>
<trkpt lat="-28.2627084" lon="153.3691495">
<ele>142.525</ele>
<time>2018-01-24T03:58:50.223Z</time>
</trkpt>
<trkpt lat="-28.2625540" lon="153.3693895">
<ele>146.233</ele>
<time>2018-01-24T03:58:51.558Z</time>
</trkpt>
<trkpt lat="-28.2623221" lon="153.3695952">
<ele>149.768</ele>
<time>2018-01-24T03:58:53.046Z</time>
</trkpt>
<trkpt lat="-28.2620014" lon="153.3696334">
<ele>153.188</ele>
<time>2018-01-24T03:58:54.730Z</time>
</trkpt>
<trkpt lat="-28.2616859" lon="153.3695366">
<ele>156.331</ele>
<time>2018-01-24T03:58:56.622Z</time>
</trkpt>
<trkpt lat="-28.2613563" lon="153.3694916">
<ele>159.115</ele>
<time>2018-01-24T03:58:58.883Z</time>
</trkpt>
<trkpt lat="-28.2610588" lon="153.3695369">
<ele>161.721</ele>
<time>2018-01-24T03:59:01.041Z</time>
</trkpt>
<trkpt lat="-28.2608365" lon="153.3697314">
<ele>164.459</ele>
<time>2018-01-24T03:59:02.926Z</time>
</trkpt>
<trkpt lat="-28.2607182" lon="153.3700866">
<ele>167.396</ele>
<time>2018-01-24T03:59:05.009Z</time>
</trkpt>
<trkpt lat="-28.2606677" lon="153.3704337">
<ele>170.389</ele>
<time>2018-01-24T03:59:06.884Z</time>
</trkpt>
<trkpt lat="-28.2606184" lon="153.3707414">
<ele>173.367</ele>
<time>2018-01-24T03:59:08.605Z</time>
</trkpt>
<trkpt lat="-28.2604267" lon="153.3709986">
<ele>176.190</ele>
<time>2018-01-24T03:59:10.583Z</time>
</trkpt>
<trkpt lat="-28.2601601" lon="153.3710187">
<ele>178.619</ele>
<time>2018-01-24T03:59:12.383Z</time>
</trkpt>
<trkpt lat="-28.2598235" lon="153.3709097">
<ele>180.895</ele>
<time>2018-01-24T03:59:14.679Z</time>
</trkpt>
<trkpt lat="-28.2595061" lon="153.3708928">
<ele>183.704</ele>
<time>2018-01-24T03:59:16.892Z</time>
</trkpt>
<trkpt lat="-28.2592245" lon="153.3709782">
<ele>187.342</ele>
<time>2018-01-24T03:59:19.196Z</time>
</trkpt>
<trkpt lat="-28.2589189" lon="153.3709770">
<ele>191.528</ele>
<time>2018-01-24T03:59:21.556Z</time>
</trkpt>
<trkpt lat="-28.2586398" lon="153.3708812">
<ele>195.858</ele>
<time>2018-01-24T03:59:23.506Z</time>
</trkpt>
<trkpt lat="-28.2583716" lon="153.3706196">
<ele>199.977</ele>
<time>2018-01-24T03:59:25.792Z</time>
</trkpt>
<trkpt lat="-28.2581095" lon="153.3703978">
<ele>203.703</ele>
<time>2018-01-24T03:59:27.916Z</time>
</trkpt>
<trkpt lat="-28.2577945" lon="153.3702597">
<ele>207.129</ele>
<time>2018-01-24T03:59:30.153Z</time>
</trkpt>
<trkpt lat="-28.2574281" lon="153.3701721">
<ele>210.466</ele>
<time>2018-01-24T03:59:32.613Z</time>
</trkpt>
<trkpt lat="-28.2571085" lon="153.3701770">
<ele>213.900</ele>
<time>2018-01-24T03:59:34.638Z</time>
</trkpt>
<trkpt lat="-28.2567389" lon="153.3703004">
<ele>217.458</ele>
<time>2018-01-24T03:59:36.944Z</time>
</trkpt>
<trkpt lat="-28.2563328" lon="153.3704209">
<ele>221.048</ele>
<time>2018-01-24T03:59:39.329Z</time>
</trkpt>
<trkpt lat="-28.2559624" lon="153.3705054">
<ele>224.629</ele>
<time>2018-01-24T03:59:41.400Z</time>
</trkpt>
<trkpt lat="-28.2556262" lon="153.3705955">
<ele>228.104</ele>
<time>2018-01-24T03:59:43.169Z</time>
</trkpt>
<trkpt lat="-28.2552586" lon="153.3706742">
<ele>231.490</ele>
<time>2018-01-24T03:59:45.061Z</time>
</trkpt>
<trkpt lat="-28.2548494" lon="153.3706637">
<ele>235.101</ele>
<time>2018-01-24T03:59:47.237Z</time>
</trkpt>
<trkpt lat="-28.2544880" lon="153.3706186">
<ele>239.100</ele>
<time>2018-01-24T03:59:49.243Z</time>
</trkpt>
<trkpt lat="-28.2540795" lon="153.3707115">
<ele>243.345</ele>
<time>2018-01-24T03:59:51.512Z</time>
</trkpt>
<trkpt lat="-28.2537439" lon="153.3708449">
<ele>247.583</ele>
<time>2018-01-24T03:59:53.402Z</time>
</trkpt>
<trkpt lat="-28.2534296" lon="153.3711349">
<ele>251.481</ele>
<time>2018-01-24T03:59:55.497Z</time>
</trkpt>
<trkpt lat="-28.2531003" lon="153.3715131">
<ele>254.963</ele>
<time>2018-01-24T03:59:57.879Z</time>
</trkpt>
<trkpt lat="-28.2527404" lon="153.3718428">
<ele>258.335</ele>
<time>2018-01-24T04:00:00.214Z</time>
</trkpt>
<trkpt lat="-28.2524376" lon="153.3721782">
<ele>261.757</ele>
<time>2018-01-24T04:00:02.214Z</time>
</trkpt>
<trkpt lat="-28.2522578" lon="153.3724390">
<ele>264.954</ele>
<time>2018-01-24T04:00:03.517Z</time>
</trkpt>
<trkpt lat="-28.2523167" lon="153.3727138">
<ele>267.755</ele>
<time>2018-01-24T04:00:04.640Z</time>
</trkpt>
<trkpt lat="-28.2524760" lon="153.3730793">
<ele>270.529</ele>
<time>2018-01-24T04:00:06.303Z</time>
</trkpt>
<trkpt lat="-28.2525172" lon="153.3734363">
<ele>273.579</ele>
<time>2018-01-24T04:00:07.903Z</time>
</trkpt>
<trkpt lat="-28.2524455" lon="153.3737895">
<ele>276.708</ele>
<time>2018-01-24T04:00:09.835Z</time>
</trkpt>
<trkpt lat="-28.2524415" lon="153.3740618">
<ele>279.822</ele>
<time>2018-01-24T04:00:11.431Z</time>
</trkpt>
<trkpt lat="-28.2525304" lon="153.3743097">
<ele>283.175</ele>
<time>2018-01-24T04:00:12.971Z</time>
</trkpt>
<trkpt lat="-28.2528151" lon="153.3744537">
<ele>286.743</ele>
<time>2018-01-24T04:00:14.950Z</time>
</trkpt>
<trkpt lat="-28.2530317" lon="153.3745605">
<ele>290.060</ele>
<time>2018-01-24T04:00:16.470Z</time>
</trkpt>
<trkpt lat="-28.2531133" lon="153.3747434">
<ele>292.761</ele>
<time>2018-01-24T04:00:17.710Z</time>
</trkpt>
<trkpt lat="-28.2529727" lon="153.3749002">
<ele>294.752</ele>
<time>2018-01-24T04:00:19.250Z</time>
</trkpt>
<trkpt lat="-28.2527178" lon="153.3749668">
<ele>296.199</ele>
<time>2018-01-24T04:00:21.353Z</time>
</trkpt>
<trkpt lat="-28.2524411" lon="153.3750110">
<ele>297.476</ele>
<time>2018-01-24T04:00:23.546Z</time>
</trkpt>
<trkpt lat="-28.2522130" lon="153.3749628">
<ele>298.896</ele>
<time>2018-01-24T04:00:25.655Z</time>
</trkpt>
<trkpt lat="-28.2519997" lon="153.3748353">
<ele>300.505</ele>
<time>2018-01-24T04:00:28.359Z</time>
</trkpt>
<trkpt lat="-28.2517498" lon="153.3747379">
<ele>302.281</ele>
<time>2018-01-24T04:00:30.786Z</time>
</trkpt>
<trkpt lat="-28.2515184" lon="153.3746181">
<ele>304.290</ele>
<time>2018-01-24T04:00:32.878Z</time>
</trkpt>
<trkpt lat="-28.2513423" lon="153.3744020">
<ele>306.573</ele>
<time>2018-01-24T04:00:35.080Z</time>
</trkpt>
<trkpt lat="-28.2512096" lon="153.3742476">
<ele>308.767</ele>
<time>2018-01-24T04:00:36.679Z</time>
</trkpt>
<trkpt lat="-28.2510421" lon="153.3743052">
<ele>310.279</ele>
<time>2018-01-24T04:00:38.088Z</time>
</trkpt>
<trkpt lat="-28.2506524" lon="153.3744556">
<ele>311.224</ele>
<time>2018-01-24T04:00:41.422Z</time>
</trkpt>
<trkpt lat="-28.2503016" lon="153.3743503">
<ele>312.374</ele>
<time>2018-01-24T04:00:45.033Z</time>
</trkpt>
<trkpt lat="-28.2500117" lon="153.3739125">
<ele>314.140</ele>
<time>2018-01-24T04:00:50.511Z</time>
</trkpt>
<trkpt lat="-28.2497001" lon="153.3736135">
<ele>316.620</ele>
<time>2018-01-24T04:00:54.003Z</time>
</trkpt>
<trkpt lat="-28.2496072" lon="153.3732893">
<ele>319.916</ele>
<time>2018-01-24T04:00:56.315Z</time>
</trkpt>
<trkpt lat="-28.2497268" lon="153.3729953">
<ele>323.720</ele>
<time>2018-01-24T04:00:58.384Z</time>
</trkpt>
<trkpt lat="-28.2496042" lon="153.3726410">
<ele>327.564</ele>
<time>2018-01-24T04:01:01.154Z</time>
</trkpt>
<trkpt lat="-28.2492361" lon="153.3723718">
<ele>331.352</ele>
<time>2018-01-24T04:01:05.447Z</time>
</trkpt>
<trkpt lat="-28.2488593" lon="153.3721397">
<ele>335.107</ele>
<time>2018-01-24T04:01:09.295Z</time>
</trkpt>
<trkpt lat="-28.2484912" lon="153.3719106">
<ele>338.220</ele>
<time>2018-01-24T04:01:12.377Z</time>
</trkpt>
<trkpt lat="-28.2480523" lon="153.3718152">
<ele>339.932</ele>
<time>2018-01-24T04:01:15.425Z</time>
</trkpt>
<trkpt lat="-28.2476834" lon="153.3716409">
<ele>340.451</ele>
<time>2018-01-24T04:01:18.170Z</time>
</trkpt>
<trkpt lat="-28.2473372" lon="153.3714667">
<ele>340.809</ele>
<time>2018-01-24T04:01:20.806Z</time>
</trkpt>
<trkpt lat="-28.2468655" lon="153.3717121">
<ele>341.486</ele>
<time>2018-01-24T04:01:24.496Z</time>
</trkpt>
<trkpt lat="-28.2463460" lon="153.3720428">
<ele>341.966</ele>
<time>2018-01-24T04:01:28.633Z</time>
</trkpt>
<trkpt lat="-28.2458898" lon="153.3723716">
<ele>341.802</ele>
<time>2018-01-24T04:01:31.746Z</time>
</trkpt>
<trkpt lat="-28.2456181" lon="153.3725409">
<ele>341.309</ele>
<time>2018-01-24T04:01:33.367Z</time>
</trkpt>
<trkpt lat="-28.2452011" lon="153.3728628">
<ele>340.902</ele>
<time>2018-01-24T04:01:36.029Z</time>
</trkpt>
<trkpt lat="-28.2449741" lon="153.3733315">
<ele>340.621</ele>
<time>2018-01-24T04:01:38.729Z</time>
</trkpt>
<trkpt lat="-28.2448579" lon="153.3738300">
<ele>340.381</ele>
<time>2018-01-24T04:01:41.477Z</time>
</trkpt>
<trkpt lat="-28.2448585" lon="153.3741994">
<ele>340.184</ele>
<time>2018-01-24T04:01:43.513Z</time>
</trkpt>
<trkpt lat="-28.2448729" lon="153.3745256">
<ele>340.089</ele>
<time>2018-01-24T04:01:45.364Z</time>
</trkpt>
<trkpt lat="-28.2448981" lon="153.3747744">
<ele>340.224</ele>
<time>2018-01-24T04:01:46.778Z</time>
</trkpt>
<trkpt lat="-28.2448562" lon="153.3750258">
<ele>340.815</ele>
<time>2018-01-24T04:01:48.223Z</time>
</trkpt>
<trkpt lat="-28.2445955" lon="153.3752799">
<ele>341.857</ele>
<time>2018-01-24T04:01:50.478Z</time>
</trkpt>
<trkpt lat="-28.2441999" lon="153.3756441">
<ele>342.889</ele>
<time>2018-01-24T04:01:54.354Z</time>
</trkpt>
<trkpt lat="-28.2438077" lon="153.3759265">
<ele>343.209</ele>
<time>2018-01-24T04:01:58.218Z</time>
</trkpt>
<trkpt lat="-28.2433454" lon="153.3761210">
<ele>342.553</ele>
<time>2018-01-24T04:02:01.635Z</time>
</trkpt>
<trkpt lat="-28.2428914" lon="153.3760155">
<ele>341.504</ele>
<time>2018-01-24T04:02:04.707Z</time>
</trkpt>
<trkpt lat="-28.2425536" lon="153.3759528">
<ele>340.881</ele>
<time>2018-01-24T04:02:07.014Z</time>
</trkpt>
<trkpt lat="-28.2424000" lon="153.3761553">
<ele>340.922</ele>
<time>2018-01-24T04:02:08.612Z</time>
</trkpt>
<trkpt lat="-28.2420858" lon="153.3762364">
<ele>341.329</ele>
<time>2018-01-24T04:02:11.074Z</time>
</trkpt>
<trkpt lat="-28.2418372" lon="153.3761945">
<ele>341.709</ele>
<time>2018-01-24T04:02:13.207Z</time>
</trkpt>
<trkpt lat="-28.2416144" lon="153.3762077">
<ele>341.850</ele>
<time>2018-01-24T04:02:15.284Z</time>
</trkpt>
<trkpt lat="-28.2414395" lon="153.3763850">
<ele>341.618</ele>
<time>2018-01-24T04:02:17.471Z</time>
</trkpt>
<trkpt lat="-28.2412919" lon="153.3766629">
<ele>340.671</ele>
<time>2018-01-24T04:02:19.972Z</time>
</trkpt>
<trkpt lat="-28.2411168" lon="153.3768863">
<ele>338.761</ele>
<time>2018-01-24T04:02:22.278Z</time>
</trkpt>
<trkpt lat="-28.2409125" lon="153.3770667">
<ele>336.247</ele>
<time>2018-01-24T04:02:24.519Z</time>
</trkpt>
<trkpt lat="-28.2407035" lon="153.3772225">
<ele>333.817</ele>
<time>2018-01-24T04:02:26.523Z</time>
</trkpt>
<trkpt lat="-28.2405143" lon="153.3773994">
<ele>331.790</ele>
<time>2018-01-24T04:02:28.402Z</time>
</trkpt>
<trkpt lat="-28.2403867" lon="153.3776501">
<ele>330.154</ele>
<time>2018-01-24T04:02:30.340Z</time>
</trkpt>
<trkpt lat="-28.2403040" lon="153.3779695">
<ele>328.893</ele>
<time>2018-01-24T04:02:32.603Z</time>
</trkpt>
<trkpt lat="-28.2401839" lon="153.3782786">
<ele>327.964</ele>
<time>2018-01-24T04:02:34.910Z</time>
</trkpt>
<trkpt lat="-28.2399874" lon="153.3787028">
<ele>327.304</ele>
<time>2018-01-24T04:02:37.956Z</time>
</trkpt>
<trkpt lat="-28.2397209" lon="153.3789917">
<ele>327.049</ele>
<time>2018-01-24T04:02:40.400Z</time>
</trkpt>
<trkpt lat="-28.2394662" lon="153.3792766">
<ele>327.213</ele>
<time>2018-01-24T04:02:42.566Z</time>
</trkpt>
<trkpt lat="-28.2392678" lon="153.3795627">
<ele>327.547</ele>
<time>2018-01-24T04:02:44.404Z</time>
</trkpt>
<trkpt lat="-28.2390972" lon="153.3798081">
<ele>327.983</ele>
<time>2018-01-24T04:02:45.996Z</time>
</trkpt>
<trkpt lat="-28.2388584" lon="153.3799468">
<ele>328.671</ele>
<time>2018-01-24T04:02:47.589Z</time>
</trkpt>
<trkpt lat="-28.2386308" lon="153.3799572">
<ele>329.627</ele>
<time>2018-01-24T04:02:48.978Z</time>
</trkpt>
<trkpt lat="-28.2383799" lon="153.3799700">
<ele>330.596</ele>
<time>2018-01-24T04:02:50.633Z</time>
</trkpt>
<trkpt lat="-28.2380620" lon="153.3801810">
<ele>331.102</ele>
<time>2018-01-24T04:02:53.470Z</time>
</trkpt>
<trkpt lat="-28.2378489" lon="153.3804598">
<ele>330.704</ele>
<time>2018-01-24T04:02:56.221Z</time>
</trkpt>
<trkpt lat="-28.2376086" lon="153.3807721">
<ele>329.384</ele>
<time>2018-01-24T04:02:59.319Z</time>
</trkpt>
<trkpt lat="-28.2371747" lon="153.3808165">
<ele>327.687</ele>
<time>2018-01-24T04:03:03.184Z</time>
</trkpt>
<trkpt lat="-28.2368275" lon="153.3807341">
<ele>326.190</ele>
<time>2018-01-24T04:03:06.206Z</time>
</trkpt>
<trkpt lat="-28.2365397" lon="153.3808865">
<ele>324.868</ele>
<time>2018-01-24T04:03:08.824Z</time>
</trkpt>
<trkpt lat="-28.2362940" lon="153.3814681">
<ele>323.504</ele>
<time>2018-01-24T04:03:13.605Z</time>
</trkpt>
<trkpt lat="-28.2358824" lon="153.3818169">
<ele>322.326</ele>
<time>2018-01-24T04:03:17.186Z</time>
</trkpt>
<trkpt lat="-28.2354248" lon="153.3819733">
<ele>321.950</ele>
<time>2018-01-24T04:03:20.141Z</time>
</trkpt>
<trkpt lat="-28.2351317" lon="153.3822473">
<ele>322.535</ele>
<time>2018-01-24T04:03:22.543Z</time>
</trkpt>
<trkpt lat="-28.2350246" lon="153.3826973">
<ele>323.421</ele>
<time>2018-01-24T04:03:25.384Z</time>
</trkpt>
<trkpt lat="-28.2351096" lon="153.3833541">
<ele>323.714</ele>
<time>2018-01-24T04:03:29.474Z</time>
</trkpt>
<trkpt lat="-28.2351206" lon="153.3839862">
<ele>322.848</ele>
<time>2018-01-24T04:03:32.688Z</time>
</trkpt>
<trkpt lat="-28.2349875" lon="153.3845423">
<ele>321.030</ele>
<time>2018-01-24T04:03:35.496Z</time>
</trkpt>
<trkpt lat="-28.2344340" lon="153.3850103">
<ele>319.279</ele>
<time>2018-01-24T04:03:39.281Z</time>
</trkpt>
<trkpt lat="-28.2339695" lon="153.3854884">
<ele>318.392</ele>
<time>2018-01-24T04:03:42.350Z</time>
</trkpt>
<trkpt lat="-28.2337136" lon="153.3858871">
<ele>318.436</ele>
<time>2018-01-24T04:03:44.619Z</time>
</trkpt>
<trkpt lat="-28.2337070" lon="153.3862945">
<ele>319.007</ele>
<time>2018-01-24T04:03:46.663Z</time>
</trkpt>
<trkpt lat="-28.2335986" lon="153.3868171">
<ele>319.567</ele>
<time>2018-01-24T04:03:49.657Z</time>
</trkpt>
<trkpt lat="-28.2334114" lon="153.3870503">
<ele>320.012</ele>
<time>2018-01-24T04:03:51.445Z</time>
</trkpt>
<trkpt lat="-28.2331070" lon="153.3871731">
<ele>320.664</ele>
<time>2018-01-24T04:03:53.697Z</time>
</trkpt>
<trkpt lat="-28.2328513" lon="153.3871506">
<ele>321.585</ele>
<time>2018-01-24T04:03:55.613Z</time>
</trkpt>
<trkpt lat="-28.2325597" lon="153.3869548">
<ele>322.590</ele>
<time>2018-01-24T04:03:58.192Z</time>
</trkpt>
<trkpt lat="-28.2322419" lon="153.3867252">
<ele>323.640</ele>
<time>2018-01-24T04:04:00.777Z</time>
</trkpt>
<trkpt lat="-28.2319379" lon="153.3864779">
<ele>324.753</ele>
<time>2018-01-24T04:04:02.954Z</time>
</trkpt>
<trkpt lat="-28.2316383" lon="153.3862982">
<ele>325.937</ele>
<time>2018-01-24T04:04:04.863Z</time>
</trkpt>
<trkpt lat="-28.2312549" lon="153.3861929">
<ele>327.042</ele>
<time>2018-01-24T04:04:07.058Z</time>
</trkpt>
<trkpt lat="-28.2307883" lon="153.3861795">
<ele>327.636</ele>
<time>2018-01-24T04:04:09.369Z</time>
</trkpt>
<trkpt lat="-28.2303872" lon="153.3861942">
<ele>327.518</ele>
<time>2018-01-24T04:04:11.235Z</time>
</trkpt>
<trkpt lat="-28.2299985" lon="153.3861858">
<ele>327.045</ele>
<time>2018-01-24T04:04:13.108Z</time>
</trkpt>
<trkpt lat="-28.2296226" lon="153.3862223">
<ele>326.662</ele>
<time>2018-01-24T04:04:15.036Z</time>
</trkpt>
<trkpt lat="-28.2293678" lon="153.3862222">
<ele>326.484</ele>
<time>2018-01-24T04:04:16.504Z</time>
</trkpt>
<trkpt lat="-28.2291442" lon="153.3862786">
<ele>326.241</ele>
<time>2018-01-24T04:04:18.010Z</time>
</trkpt>
<trkpt lat="-28.2289473" lon="153.3865886">
<ele>325.383</ele>
<time>2018-01-24T04:04:20.395Z</time>
</trkpt>
<trkpt lat="-28.2287521" lon="153.3869680">
<ele>323.566</ele>
<time>2018-01-24T04:04:22.823Z</time>
</trkpt>
<trkpt lat="-28.2285341" lon="153.3873862">
<ele>321.228</ele>
<time>2018-01-24T04:04:25.093Z</time>
</trkpt>
<trkpt lat="-28.2283060" lon="153.3877583">
<ele>319.312</ele>
<time>2018-01-24T04:04:27.044Z</time>
</trkpt>
<trkpt lat="-28.2280890" lon="153.3881067">
<ele>318.448</ele>
<time>2018-01-24T04:04:28.920Z</time>
</trkpt>
<trkpt lat="-28.2278562" lon="153.3884308">
<ele>318.935</ele>
<time>2018-01-24T04:04:30.847Z</time>
</trkpt>
<trkpt lat="-28.2275145" lon="153.3888612">
<ele>320.762</ele>
<time>2018-01-24T04:04:33.646Z</time>
</trkpt>
<trkpt lat="-28.2272136" lon="153.3892667">
<ele>323.200</ele>
<time>2018-01-24T04:04:36.360Z</time>
</trkpt>
<trkpt lat="-28.2268305" lon="153.3896689">
<ele>325.155</ele>
<time>2018-01-24T04:04:39.485Z</time>
</trkpt>
<trkpt lat="-28.2263635" lon="153.3899771">
<ele>325.942</ele>
<time>2018-01-24T04:04:42.677Z</time>
</trkpt>
<trkpt lat="-28.2258432" lon="153.3902065">
<ele>325.539</ele>
<time>2018-01-24T04:04:45.895Z</time>
</trkpt>
<trkpt lat="-28.2253589" lon="153.3903838">
<ele>324.199</ele>
<time>2018-01-24T04:04:48.851Z</time>
</trkpt>
<trkpt lat="-28.2249115" lon="153.3905586">
<ele>321.913</ele>
<time>2018-01-24T04:04:51.726Z</time>
</trkpt>
<trkpt lat="-28.2244995" lon="153.3908115">
<ele>318.625</ele>
<time>2018-01-24T04:04:54.642Z</time>
</trkpt>
<trkpt lat="-28.2240600" lon="153.3911648">
<ele>314.688</ele>
<time>2018-01-24T04:04:57.815Z</time>
</trkpt>
<trkpt lat="-28.2235543" lon="153.3914252">
<ele>310.499</ele>
<time>2018-01-24T04:05:00.835Z</time>
</trkpt>
<trkpt lat="-28.2230577" lon="153.3916484">
<ele>306.196</ele>
<time>2018-01-24T04:05:03.728Z</time>
</trkpt>
<trkpt lat="-28.2225149" lon="153.3918751">
<ele>301.899</ele>
<time>2018-01-24T04:05:06.840Z</time>
</trkpt>
<trkpt lat="-28.2219830" lon="153.3919124">
<ele>297.819</ele>
<time>2018-01-24T04:05:09.682Z</time>
</trkpt>
<trkpt lat="-28.2214827" lon="153.3919252">
<ele>293.917</ele>
<time>2018-01-24T04:05:12.540Z</time>
</trkpt>
<trkpt lat="-28.2211204" lon="153.3921084">
<ele>289.894</ele>
<time>2018-01-24T04:05:15.082Z</time>
</trkpt>
<trkpt lat="-28.2207866" lon="153.3925451">
<ele>285.679</ele>
<time>2018-01-24T04:05:18.392Z</time>
</trkpt>
<trkpt lat="-28.2203789" lon="153.3930245">
<ele>281.513</ele>
<time>2018-01-24T04:05:21.830Z</time>
</trkpt>
<trkpt lat="-28.2200767" lon="153.3934873">
<ele>277.752</ele>
<time>2018-01-24T04:05:24.694Z</time>
</trkpt>
<trkpt lat="-28.2200374" lon="153.3940688">
<ele>274.536</ele>
<time>2018-01-24T04:05:27.785Z</time>
</trkpt>
<trkpt lat="-28.2198844" lon="153.3943642">
<ele>271.453</ele>
<time>2018-01-24T04:05:29.842Z</time>
</trkpt>
<trkpt lat="-28.2194266" lon="153.3945739">
<ele>267.871</ele>
<time>2018-01-24T04:05:33.212Z</time>
</trkpt>
<trkpt lat="-28.2190992" lon="153.3946904">
<ele>263.696</ele>
<time>2018-01-24T04:05:35.357Z</time>
</trkpt>
<trkpt lat="-28.2185996" lon="153.3949291">
<ele>259.425</ele>
<time>2018-01-24T04:05:38.486Z</time>
</trkpt>
<trkpt lat="-28.2182780" lon="153.3951095">
<ele>255.335</ele>
<time>2018-01-24T04:05:40.498Z</time>
</trkpt>
<trkpt lat="-28.2180131" lon="153.3953257">
<ele>251.110</ele>
<time>2018-01-24T04:05:42.325Z</time>
</trkpt>
<trkpt lat="-28.2177974" lon="153.3955924">
<ele>246.387</ele>
<time>2018-01-24T04:05:44.171Z</time>
</trkpt>
<trkpt lat="-28.2177145" lon="153.3959996">
<ele>241.089</ele>
<time>2018-01-24T04:05:46.428Z</time>
</trkpt>
<trkpt lat="-28.2177232" lon="153.3964877">
<ele>235.497</ele>
<time>2018-01-24T04:05:48.922Z</time>
</trkpt>
<trkpt lat="-28.2176895" lon="153.3970048">
<ele>230.192</ele>
<time>2018-01-24T04:05:51.178Z</time>
</trkpt>
<trkpt lat="-28.2176229" lon="153.3974799">
<ele>225.585</ele>
<time>2018-01-24T04:05:53.213Z</time>
</trkpt>
<trkpt lat="-28.2175184" lon="153.3978866">
<ele>221.669</ele>
<time>2018-01-24T04:05:55.090Z</time>
</trkpt>
<trkpt lat="-28.2173247" lon="153.3982501">
<ele>218.206</ele>
<time>2018-01-24T04:05:57.101Z</time>
</trkpt>
<trkpt lat="-28.2170174" lon="153.3984913">
<ele>215.040</ele>
<time>2018-01-24T04:05:59.126Z</time>
</trkpt>
<trkpt lat="-28.2167092" lon="153.3987671">
<ele>212.054</ele>
<time>2018-01-24T04:06:01.256Z</time>
</trkpt>
<trkpt lat="-28.2165021" lon="153.3990599">
<ele>209.076</ele>
<time>2018-01-24T04:06:03.113Z</time>
</trkpt>
<trkpt lat="-28.2164614" lon="153.3993941">
<ele>205.983</ele>
<time>2018-01-24T04:06:04.952Z</time>
</trkpt>
<trkpt lat="-28.2165407" lon="153.3997477">
<ele>202.714</ele>
<time>2018-01-24T04:06:07.111Z</time>
</trkpt>
<trkpt lat="-28.2165335" lon="153.4000654">
<ele>199.346</ele>
<time>2018-01-24T04:06:09.119Z</time>
</trkpt>
<trkpt lat="-28.2163251" lon="153.4003525">
<ele>196.273</ele>
<time>2018-01-24T04:06:11.534Z</time>
</trkpt>
<trkpt lat="-28.2160107" lon="153.4006402">
<ele>194.028</ele>
<time>2018-01-24T04:06:13.957Z</time>
</trkpt>
<trkpt lat="-28.2156731" lon="153.4009231">
<ele>192.660</ele>
<time>2018-01-24T04:06:16.117Z</time>
</trkpt>
<trkpt lat="-28.2153494" lon="153.4012531">
<ele>191.587</ele>
<time>2018-01-24T04:06:18.215Z</time>
</trkpt>
<trkpt lat="-28.2150210" lon="153.4016089">
<ele>190.175</ele>
<time>2018-01-24T04:06:20.309Z</time>
</trkpt>
<trkpt lat="-28.2146950" lon="153.4019801">
<ele>188.100</ele>
<time>2018-01-24T04:06:22.393Z</time>
</trkpt>
<trkpt lat="-28.2143277" lon="153.4022424">
<ele>185.408</ele>
<time>2018-01-24T04:06:24.392Z</time>
</trkpt>
<trkpt lat="-28.2139674" lon="153.4025102">
<ele>182.480</ele>
<time>2018-01-24T04:06:26.457Z</time>
</trkpt>
<trkpt lat="-28.2136240" lon="153.4027624">
<ele>179.827</ele>
<time>2018-01-24T04:06:28.489Z</time>
</trkpt>
<trkpt lat="-28.2133007" lon="153.4029979">
<ele>177.743</ele>
<time>2018-01-24T04:06:30.465Z</time>
</trkpt>
<trkpt lat="-28.2130102" lon="153.4032620">
<ele>176.233</ele>
<time>2018-01-24T04:06:32.457Z</time>
</trkpt>
<trkpt lat="-28.2127695" lon="153.4035777">
<ele>175.156</ele>
<time>2018-01-24T04:06:34.515Z</time>
</trkpt>
<trkpt lat="-28.2125766" lon="153.4038922">
<ele>174.121</ele>
<time>2018-01-24T04:06:36.472Z</time>
</trkpt>
<trkpt lat="-28.2124167" lon="153.4042025">
<ele>172.430</ele>
<time>2018-01-24T04:06:38.377Z</time>
</trkpt>
<trkpt lat="-28.2122612" lon="153.4045055">
<ele>169.514</ele>
<time>2018-01-24T04:06:40.341Z</time>
</trkpt>
<trkpt lat="-28.2121293" lon="153.4047618">
<ele>165.200</ele>
<time>2018-01-24T04:06:42.120Z</time>
</trkpt>
<trkpt lat="-28.2119384" lon="153.4049775">
<ele>159.885</ele>
<time>2018-01-24T04:06:44.029Z</time>
</trkpt>
<trkpt lat="-28.2116943" lon="153.4051803">
<ele>154.489</ele>
<time>2018-01-24T04:06:46.139Z</time>
</trkpt>
<trkpt lat="-28.2113863" lon="153.4052853">
<ele>149.921</ele>
<time>2018-01-24T04:06:48.235Z</time>
</trkpt>
<trkpt lat="-28.2110734" lon="153.4054118">
<ele>146.643</ele>
<time>2018-01-24T04:06:50.327Z</time>
</trkpt>
<trkpt lat="-28.2108159" lon="153.4055291">
<ele>144.598</ele>
<time>2018-01-24T04:06:52.162Z</time>
</trkpt>
<trkpt lat="-28.2105784" lon="153.4056653">
<ele>143.419</ele>
<time>2018-01-24T04:06:54.038Z</time>
</trkpt>
<trkpt lat="-28.2103781" lon="153.4058458">
<ele>142.727</ele>
<time>2018-01-24T04:06:55.883Z</time>
</trkpt>
<trkpt lat="-28.2102381" lon="153.4061307">
<ele>142.055</ele>
<time>2018-01-24T04:06:57.931Z</time>
</trkpt>
<trkpt lat="-28.2101402" lon="153.4064252">
<ele>140.862</ele>
<time>2018-01-24T04:06:59.962Z</time>
</trkpt>
<trkpt lat="-28.2101147" lon="153.4067477">
<ele>139.067</ele>
<time>2018-01-24T04:07:02.260Z</time>
</trkpt>
<trkpt lat="-28.2100972" lon="153.4069870">
<ele>137.084</ele>
<time>2018-01-24T04:07:04.272Z</time>
</trkpt>
<trkpt lat="-28.2101272" lon="153.4071402">
<ele>135.258</ele>
<time>2018-01-24T04:07:06.118Z</time>
</trkpt>
<trkpt lat="-28.2101656" lon="153.4072610">
<ele>133.728</ele>
<time>2018-01-24T04:07:07.998Z</time>
</trkpt>
<trkpt lat="-28.2101656" lon="153.4072610">
<ele>132.671</ele>
<time>2018-01-24T04:07:13.997Z</time>
</trkpt>
<trkpt lat="-28.2101656" lon="153.4072610">
<ele>132.215</ele>
<time>2018-01-24T04:07:38.263Z</time>
</trkpt>
<trkpt lat="-28.2100968" lon="153.4074749">
<ele>132.367</ele>
<time>2018-01-24T04:07:54.524Z</time>
</trkpt>
<trkpt lat="-28.2098637" lon="153.4074715">
<ele>134.185</ele>
<time>2018-01-24T04:07:57.754Z</time>
</trkpt>
<trkpt lat="-28.2095330" lon="153.4074436">
<ele>138.021</ele>
<time>2018-01-24T04:08:01.347Z</time>
</trkpt>
<trkpt lat="-28.2092410" lon="153.4074360">
<ele>141.222</ele>
<time>2018-01-24T04:08:04.744Z</time>
</trkpt>
<trkpt lat="-28.2089996" lon="153.4073953">
<ele>141.150</ele>
<time>2018-01-24T04:08:07.667Z</time>
</trkpt>
<trkpt lat="-28.2088717" lon="153.4071464">
<ele>138.312</ele>
<time>2018-01-24T04:08:10.293Z</time>
</trkpt>
<trkpt lat="-28.2088546" lon="153.4067597">
<ele>134.614</ele>
<time>2018-01-24T04:08:13.075Z</time>
</trkpt>
<trkpt lat="-28.2087951" lon="153.4062854">
<ele>131.329</ele>
<time>2018-01-24T04:08:16.005Z</time>
</trkpt>
<trkpt lat="-28.2087249" lon="153.4057389">
<ele>128.943</ele>
<time>2018-01-24T04:08:19.365Z</time>
</trkpt>
<trkpt lat="-28.2086443" lon="153.4052421">
<ele>127.855</ele>
<time>2018-01-24T04:08:22.617Z</time>
</trkpt>
<trkpt lat="-28.2085830" lon="153.4048100">
<ele>128.428</ele>
<time>2018-01-24T04:08:25.446Z</time>
</trkpt>
<trkpt lat="-28.2085024" lon="153.4043463">
<ele>130.409</ele>
<time>2018-01-24T04:08:28.421Z</time>
</trkpt>
<trkpt lat="-28.2084254" lon="153.4040274">
<ele>132.634</ele>
<time>2018-01-24T04:08:30.498Z</time>
</trkpt>
<trkpt lat="-28.2082880" lon="153.4037285">
<ele>133.902</ele>
<time>2018-01-24T04:08:32.648Z</time>
</trkpt>
<trkpt lat="-28.2080958" lon="153.4034713">
<ele>133.939</ele>
<time>2018-01-24T04:08:34.897Z</time>
</trkpt>
<trkpt lat="-28.2078978" lon="153.4032748">
<ele>133.162</ele>
<time>2018-01-24T04:08:37.002Z</time>
</trkpt>
<trkpt lat="-28.2077568" lon="153.4030496">
<ele>132.145</ele>
<time>2018-01-24T04:08:39.019Z</time>
</trkpt>
<trkpt lat="-28.2076908" lon="153.4027977">
<ele>131.179</ele>
<time>2018-01-24T04:08:40.892Z</time>
</trkpt>
<trkpt lat="-28.2076364" lon="153.4025593">
<ele>129.876</ele>
<time>2018-01-24T04:08:42.486Z</time>
</trkpt>
<trkpt lat="-28.2075068" lon="153.4023096">
<ele>127.568</ele>
<time>2018-01-24T04:08:44.240Z</time>
</trkpt>
<trkpt lat="-28.2073297" lon="153.4020459">
<ele>124.237</ele>
<time>2018-01-24T04:08:46.212Z</time>
</trkpt>
<trkpt lat="-28.2070511" lon="153.4015974">
<ele>120.412</ele>
<time>2018-01-24T04:08:49.815Z</time>
</trkpt>
<trkpt lat="-28.2068020" lon="153.4012791">
<ele>115.959</ele>
<time>2018-01-24T04:08:53.176Z</time>
</trkpt>
<trkpt lat="-28.2066062" lon="153.4009980">
<ele>110.334</ele>
<time>2018-01-24T04:08:56.489Z</time>
</trkpt>
<trkpt lat="-28.2063960" lon="153.4008280">
<ele>103.991</ele>
<time>2018-01-24T04:08:59.794Z</time>
</trkpt>
<trkpt lat="-28.2062522" lon="153.4007337">
<ele>98.330</ele>
<time>2018-01-24T04:09:01.916Z</time>
</trkpt>
<trkpt lat="-28.2061588" lon="153.4006252">
<ele>94.488</ele>
<time>2018-01-24T04:09:03.461Z</time>
</trkpt>
<trkpt lat="-28.2060981" lon="153.4004636">
<ele>92.675</ele>
<time>2018-01-24T04:09:05.077Z</time>
</trkpt>
<trkpt lat="-28.2060469" lon="153.4002638">
<ele>92.194</ele>
<time>2018-01-24T04:09:06.818Z</time>
</trkpt>
<trkpt lat="-28.2060151" lon="153.4000249">
<ele>92.180</ele>
<time>2018-01-24T04:09:08.793Z</time>
</trkpt>
<trkpt lat="-28.2059847" lon="153.3997923">
<ele>92.241</ele>
<time>2018-01-24T04:09:10.677Z</time>
</trkpt>
<trkpt lat="-28.2059099" lon="153.3995658">
<ele>92.289</ele>
<time>2018-01-24T04:09:12.578Z</time>
</trkpt>
<trkpt lat="-28.2057642" lon="153.3993672">
<ele>92.183</ele>
<time>2018-01-24T04:09:14.622Z</time>
</trkpt>
<trkpt lat="-28.2056029" lon="153.3991866">
<ele>91.724</ele>
<time>2018-01-24T04:09:16.799Z</time>
</trkpt>
<trkpt lat="-28.2054546" lon="153.3990204">
<ele>90.952</ele>
<time>2018-01-24T04:09:19.005Z</time>
</trkpt>
<trkpt lat="-28.2053312" lon="153.3988620">
<ele>90.196</ele>
<time>2018-01-24T04:09:21.315Z</time>
</trkpt>
<trkpt lat="-28.2052684" lon="153.3986630">
<ele>89.639</ele>
<time>2018-01-24T04:09:23.870Z</time>
</trkpt>
<trkpt lat="-28.2052387" lon="153.3985212">
<ele>89.209</ele>
<time>2018-01-24T04:09:25.498Z</time>
</trkpt>
<trkpt lat="-28.2051090" lon="153.3984422">
<ele>88.838</ele>
<time>2018-01-24T04:09:27.226Z</time>
</trkpt>
<trkpt lat="-28.2049398" lon="153.3983924">
<ele>88.493</ele>
<time>2018-01-24T04:09:29.289Z</time>
</trkpt>
<trkpt lat="-28.2047634" lon="153.3983571">
<ele>88.162</ele>
<time>2018-01-24T04:09:31.465Z</time>
</trkpt>
<trkpt lat="-28.2046018" lon="153.3983735">
<ele>87.810</ele>
<time>2018-01-24T04:09:33.383Z</time>
</trkpt>
<trkpt lat="-28.2044336" lon="153.3984087">
<ele>87.189</ele>
<time>2018-01-24T04:09:35.417Z</time>
</trkpt>
<trkpt lat="-28.2042589" lon="153.3984758">
<ele>85.976</ele>
<time>2018-01-24T04:09:37.988Z</time>
</trkpt>
<trkpt lat="-28.2041029" lon="153.3985407">
<ele>84.160</ele>
<time>2018-01-24T04:09:41.224Z</time>
</trkpt>
<trkpt lat="-28.2039791" lon="153.3986144">
<ele>82.070</ele>
<time>2018-01-24T04:09:45.084Z</time>
</trkpt>
<trkpt lat="-28.2038772" lon="153.3986503">
<ele>80.089</ele>
<time>2018-01-24T04:09:48.205Z</time>
</trkpt>
<trkpt lat="-28.2037594" lon="153.3986853">
<ele>78.434</ele>
<time>2018-01-24T04:09:50.612Z</time>
</trkpt>
<trkpt lat="-28.2036574" lon="153.3987148">
<ele>77.042</ele>
<time>2018-01-24T04:09:52.130Z</time>
</trkpt>
<trkpt lat="-28.2035338" lon="153.3987272">
<ele>75.609</ele>
<time>2018-01-24T04:09:53.409Z</time>
</trkpt>
<trkpt lat="-28.2034560" lon="153.3988169">
<ele>73.886</ele>
<time>2018-01-24T04:09:54.436Z</time>
</trkpt>
<trkpt lat="-28.2034137" lon="153.3990147">
<ele>71.899</ele>
<time>2018-01-24T04:09:55.897Z</time>
</trkpt>
<trkpt lat="-28.2033620" lon="153.3992681">
<ele>69.901</ele>
<time>2018-01-24T04:09:57.577Z</time>
</trkpt>
<trkpt lat="-28.2033255" lon="153.3995794">
<ele>68.141</ele>
<time>2018-01-24T04:09:59.470Z</time>
</trkpt>
<trkpt lat="-28.2033103" lon="153.3999085">
<ele>66.335</ele>
<time>2018-01-24T04:10:01.356Z</time>
</trkpt>
<trkpt lat="-28.2033000" lon="153.4002739">
<ele>63.660</ele>
<time>2018-01-24T04:10:03.389Z</time>
</trkpt>
<trkpt lat="-28.2032770" lon="153.4006398">
<ele>59.625</ele>
<time>2018-01-24T04:10:05.421Z</time>
</trkpt>
<trkpt lat="-28.2031885" lon="153.4009881">
<ele>54.624</ele>
<time>2018-01-24T04:10:07.437Z</time>
</trkpt>
<trkpt lat="-28.2030509" lon="153.4012991">
<ele>49.557</ele>
<time>2018-01-24T04:10:09.351Z</time>
</trkpt>
<trkpt lat="-28.2029148" lon="153.4016342">
<ele>45.146</ele>
<time>2018-01-24T04:10:11.336Z</time>
</trkpt>
<trkpt lat="-28.2028072" lon="153.4019821">
<ele>41.645</ele>
<time>2018-01-24T04:10:13.272Z</time>
</trkpt>
<trkpt lat="-28.2027583" lon="153.4023655">
<ele>39.019</ele>
<time>2018-01-24T04:10:15.271Z</time>
</trkpt>
<trkpt lat="-28.2027355" lon="153.4027642">
<ele>37.136</ele>
<time>2018-01-24T04:10:17.347Z</time>
</trkpt>
<trkpt lat="-28.2027164" lon="153.4031335">
<ele>35.919</ele>
<time>2018-01-24T04:10:19.333Z</time>
</trkpt>
<trkpt lat="-28.2027038" lon="153.4034891">
<ele>35.344</ele>
<time>2018-01-24T04:10:21.297Z</time>
</trkpt>
<trkpt lat="-28.2026920" lon="153.4038282">
<ele>35.265</ele>
<time>2018-01-24T04:10:23.186Z</time>
</trkpt>
<trkpt lat="-28.2026856" lon="153.4041843">
<ele>35.507</ele>
<time>2018-01-24T04:10:25.146Z</time>
</trkpt>
<trkpt lat="-28.2026789" lon="153.4045367">
<ele>36.049</ele>
<time>2018-01-24T04:10:27.051Z</time>
</trkpt>
<trkpt lat="-28.2026855" lon="153.4049034">
<ele>36.740</ele>
<time>2018-01-24T04:10:29.022Z</time>
</trkpt>
<trkpt lat="-28.2026691" lon="153.4052684">
<ele>37.216</ele>
<time>2018-01-24T04:10:31.033Z</time>
</trkpt>
<trkpt lat="-28.2026754" lon="153.4056362">
<ele>37.225</ele>
<time>2018-01-24T04:10:33.172Z</time>
</trkpt>
<trkpt lat="-28.2026641" lon="153.4059639">
<ele>36.809</ele>
<time>2018-01-24T04:10:35.234Z</time>
</trkpt>
<trkpt lat="-28.2027100" lon="153.4062798">
<ele>36.112</ele>
<time>2018-01-24T04:10:37.418Z</time>
</trkpt>
<trkpt lat="-28.2027622" lon="153.4065518">
<ele>35.110</ele>
<time>2018-01-24T04:10:39.438Z</time>
</trkpt>
<trkpt lat="-28.2027964" lon="153.4068208">
<ele>33.767</ele>
<time>2018-01-24T04:10:41.402Z</time>
</trkpt>
<trkpt lat="-28.2027798" lon="153.4070854">
<ele>32.413</ele>
<time>2018-01-24T04:10:43.221Z</time>
</trkpt>
<trkpt lat="-28.2026608" lon="153.4073463">
<ele>31.412</ele>
<time>2018-01-24T04:10:45.136Z</time>
</trkpt>
<trkpt lat="-28.2025405" lon="153.4076271">
<ele>30.657</ele>
<time>2018-01-24T04:10:47.112Z</time>
</trkpt>
<trkpt lat="-28.2023810" lon="153.4078845">
<ele>29.788</ele>
<time>2018-01-24T04:10:49.112Z</time>
</trkpt>
<trkpt lat="-28.2021944" lon="153.4081236">
<ele>28.541</ele>
<time>2018-01-24T04:10:51.224Z</time>
</trkpt>
<trkpt lat="-28.2019919" lon="153.4083357">
<ele>26.959</ele>
<time>2018-01-24T04:10:53.434Z</time>
</trkpt>
<trkpt lat="-28.2018056" lon="153.4085072">
<ele>25.543</ele>
<time>2018-01-24T04:10:55.451Z</time>
</trkpt>
<trkpt lat="-28.2016112" lon="153.4086667">
<ele>24.868</ele>
<time>2018-01-24T04:10:57.461Z</time>
</trkpt>
<trkpt lat="-28.2014227" lon="153.4088407">
<ele>25.040</ele>
<time>2018-01-24T04:10:59.468Z</time>
</trkpt>
<trkpt lat="-28.2012274" lon="153.4090134">
<ele>25.809</ele>
<time>2018-01-24T04:11:01.511Z</time>
</trkpt>
<trkpt lat="-28.2010613" lon="153.4092181">
<ele>26.815</ele>
<time>2018-01-24T04:11:03.536Z</time>
</trkpt>
<trkpt lat="-28.2008817" lon="153.4094240">
<ele>27.653</ele>
<time>2018-01-24T04:11:05.625Z</time>
</trkpt>
<trkpt lat="-28.2007379" lon="153.4096635">
<ele>28.055</ele>
<time>2018-01-24T04:11:07.701Z</time>
</trkpt>
<trkpt lat="-28.2006086" lon="153.4099109">
<ele>27.855</ele>
<time>2018-01-24T04:11:09.760Z</time>
</trkpt>
<trkpt lat="-28.2004951" lon="153.4101667">
<ele>26.933</ele>
<time>2018-01-24T04:11:11.774Z</time>
</trkpt>
<trkpt lat="-28.2003871" lon="153.4104171">
<ele>25.461</ele>
<time>2018-01-24T04:11:13.717Z</time>
</trkpt>
<trkpt lat="-28.2002688" lon="153.4106750">
<ele>23.741</ele>
<time>2018-01-24T04:11:15.760Z</time>
</trkpt>
<trkpt lat="-28.2001273" lon="153.4109129">
<ele>21.930</ele>
<time>2018-01-24T04:11:17.804Z</time>
</trkpt>
<trkpt lat="-28.1999474" lon="153.4111240">
<ele>20.220</ele>
<time>2018-01-24T04:11:19.908Z</time>
</trkpt>
<trkpt lat="-28.1997095" lon="153.4112732">
<ele>18.867</ele>
<time>2018-01-24T04:11:22.041Z</time>
</trkpt>
<trkpt lat="-28.1994680" lon="153.4114192">
<ele>18.022</ele>
<time>2018-01-24T04:11:24.106Z</time>
</trkpt>
<trkpt lat="-28.1991933" lon="153.4115166">
<ele>17.663</ele>
<time>2018-01-24T04:11:26.249Z</time>
</trkpt>
<trkpt lat="-28.1989118" lon="153.4115773">
<ele>17.855</ele>
<time>2018-01-24T04:11:28.372Z</time>
</trkpt>
<trkpt lat="-28.1986487" lon="153.4115287">
<ele>18.765</ele>
<time>2018-01-24T04:11:30.341Z</time>
</trkpt>
<trkpt lat="-28.1983937" lon="153.4114469">
<ele>20.416</ele>
<time>2018-01-24T04:11:32.273Z</time>
</trkpt>
<trkpt lat="-28.1981355" lon="153.4113394">
<ele>22.399</ele>
<time>2018-01-24T04:11:34.263Z</time>
</trkpt>
<trkpt lat="-28.1978741" lon="153.4111901">
<ele>23.956</ele>
<time>2018-01-24T04:11:36.388Z</time>
</trkpt>
<trkpt lat="-28.1976307" lon="153.4110950">
<ele>24.454</ele>
<time>2018-01-24T04:11:38.261Z</time>
</trkpt>
<trkpt lat="-28.1973816" lon="153.4109659">
<ele>23.787</ele>
<time>2018-01-24T04:11:40.274Z</time>
</trkpt>
<trkpt lat="-28.1971260" lon="153.4108122">
<ele>22.354</ele>
<time>2018-01-24T04:11:42.523Z</time>
</trkpt>
<trkpt lat="-28.1968611" lon="153.4106885">
<ele>20.691</ele>
<time>2018-01-24T04:11:44.973Z</time>
</trkpt>
<trkpt lat="-28.1966258" lon="153.4106378">
<ele>19.006</ele>
<time>2018-01-24T04:11:47.119Z</time>
</trkpt>
<trkpt lat="-28.1964134" lon="153.4106223">
<ele>17.379</ele>
<time>2018-01-24T04:11:48.981Z</time>
</trkpt>
<trkpt lat="-28.1961752" lon="153.4106155">
<ele>15.966</ele>
<time>2018-01-24T04:11:50.983Z</time>
</trkpt>
<trkpt lat="-28.1959231" lon="153.4105966">
<ele>14.944</ele>
<time>2018-01-24T04:11:53.062Z</time>
</trkpt>
<trkpt lat="-28.1956737" lon="153.4105494">
<ele>14.426</ele>
<time>2018-01-24T04:11:55.120Z</time>
</trkpt>
<trkpt lat="-28.1954197" lon="153.4104939">
<ele>14.243</ele>
<time>2018-01-24T04:11:57.214Z</time>
</trkpt>
<trkpt lat="-28.1951355" lon="153.4104625">
<ele>14.016</ele>
<time>2018-01-24T04:11:59.529Z</time>
</trkpt>
<trkpt lat="-28.1949131" lon="153.4105687">
<ele>13.634</ele>
<time>2018-01-24T04:12:01.489Z</time>
</trkpt>
<trkpt lat="-28.1946812" lon="153.4107148">
<ele>13.616</ele>
<time>2018-01-24T04:12:03.723Z</time>
</trkpt>
<trkpt lat="-28.1945084" lon="153.4109003">
<ele>14.599</ele>
<time>2018-01-24T04:12:05.896Z</time>
</trkpt>
<trkpt lat="-28.1942962" lon="153.4110641">
<ele>16.512</ele>
<time>2018-01-24T04:12:08.249Z</time>
</trkpt>
<trkpt lat="-28.1941376" lon="153.4112239">
<ele>18.638</ele>
<time>2018-01-24T04:12:10.180Z</time>
</trkpt>
<trkpt lat="-28.1941042" lon="153.4114542">
<ele>20.244</ele>
<time>2018-01-24T04:12:12.112Z</time>
</trkpt>
<trkpt lat="-28.1941490" lon="153.4117654">
<ele>21.105</ele>
<time>2018-01-24T04:12:14.627Z</time>
</trkpt>
<trkpt lat="-28.1941763" lon="153.4120411">
<ele>21.626</ele>
<time>2018-01-24T04:12:16.728Z</time>
</trkpt>
<trkpt lat="-28.1941791" lon="153.4122730">
<ele>22.152</ele>
<time>2018-01-24T04:12:18.426Z</time>
</trkpt>
<trkpt lat="-28.1941614" lon="153.4125496">
<ele>22.871</ele>
<time>2018-01-24T04:12:20.422Z</time>
</trkpt>
<trkpt lat="-28.1941355" lon="153.4128261">
<ele>27.873</ele>
<time>2018-01-24T04:12:22.383Z</time>
</trkpt>
<trkpt lat="-28.1940382" lon="153.4130877">
<ele>39.226</ele>
<time>2018-01-24T04:12:24.339Z</time>
</trkpt>
<trkpt lat="-28.1939634" lon="153.4133514">
<ele>50.258</ele>
<time>2018-01-24T04:12:26.247Z</time>
</trkpt>
<trkpt lat="-28.1938230" lon="153.4136299">
<ele>54.790</ele>
<time>2018-01-24T04:12:28.493Z</time>
</trkpt>
<trkpt lat="-28.1936446" lon="153.4138431">
<ele>54.249</ele>
<time>2018-01-24T04:12:30.589Z</time>
</trkpt>
<trkpt lat="-28.1934215" lon="153.4139991">
<ele>51.910</ele>
<time>2018-01-24T04:12:32.691Z</time>
</trkpt>
<trkpt lat="-28.1931534" lon="153.4141149">
<ele>49.911</ele>
<time>2018-01-24T04:12:34.851Z</time>
</trkpt>
<trkpt lat="-28.1928793" lon="153.4142067">
<ele>48.709</ele>
<time>2018-01-24T04:12:36.862Z</time>
</trkpt>
<trkpt lat="-28.1926257" lon="153.4141981">
<ele>47.956</ele>
<time>2018-01-24T04:12:38.606Z</time>
</trkpt>
<trkpt lat="-28.1923548" lon="153.4141930">
<ele>46.278</ele>
<time>2018-01-24T04:12:40.495Z</time>
</trkpt>
<trkpt lat="-28.1920718" lon="153.4141644">
<ele>42.335</ele>
<time>2018-01-24T04:12:42.536Z</time>
</trkpt>
<trkpt lat="-28.1917792" lon="153.4141468">
<ele>36.971</ele>
<time>2018-01-24T04:12:44.704Z</time>
</trkpt>
<trkpt lat="-28.1915006" lon="153.4141297">
<ele>32.199</ele>
<time>2018-01-24T04:12:46.842Z</time>
</trkpt>
<trkpt lat="-28.1912307" lon="153.4141056">
<ele>28.905</ele>
<time>2018-01-24T04:12:48.981Z</time>
</trkpt>
<trkpt lat="-28.1909730" lon="153.4140625">
<ele>26.981</ele>
<time>2018-01-24T04:12:51.040Z</time>
</trkpt>
<trkpt lat="-28.1907252" lon="153.4140067">
<ele>25.958</ele>
<time>2018-01-24T04:12:52.958Z</time>
</trkpt>
<trkpt lat="-28.1904885" lon="153.4139552">
<ele>25.463</ele>
<time>2018-01-24T04:12:54.689Z</time>
</trkpt>
<trkpt lat="-28.1902488" lon="153.4138987">
<ele>25.989</ele>
<time>2018-01-24T04:12:56.388Z</time>
</trkpt>
<trkpt lat="-28.1899909" lon="153.4138417">
<ele>27.800</ele>
<time>2018-01-24T04:12:58.206Z</time>
</trkpt>
<trkpt lat="-28.1897091" lon="153.4137832">
<ele>29.377</ele>
<time>2018-01-24T04:13:00.215Z</time>
</trkpt>
<trkpt lat="-28.1894274" lon="153.4137249">
<ele>29.449</ele>
<time>2018-01-24T04:13:02.241Z</time>
</trkpt>
<trkpt lat="-28.1891515" lon="153.4136674">
<ele>28.946</ele>
<time>2018-01-24T04:13:04.216Z</time>
</trkpt>
<trkpt lat="-28.1888805" lon="153.4136140">
<ele>28.947</ele>
<time>2018-01-24T04:13:06.131Z</time>
</trkpt>
<trkpt lat="-28.1886071" lon="153.4135666">
<ele>29.272</ele>
<time>2018-01-24T04:13:08.051Z</time>
</trkpt>
<trkpt lat="-28.1883249" lon="153.4135780">
<ele>29.415</ele>
<time>2018-01-24T04:13:10.019Z</time>
</trkpt>
<trkpt lat="-28.1880414" lon="153.4136225">
<ele>29.303</ele>
<time>2018-01-24T04:13:12.025Z</time>
</trkpt>
<trkpt lat="-28.1877659" lon="153.4136781">
<ele>29.069</ele>
<time>2018-01-24T04:13:14.065Z</time>
</trkpt>
<trkpt lat="-28.1874879" lon="153.4137304">
<ele>28.794</ele>
<time>2018-01-24T04:13:16.226Z</time>
</trkpt>
<trkpt lat="-28.1872124" lon="153.4137334">
<ele>28.441</ele>
<time>2018-01-24T04:13:18.421Z</time>
</trkpt>
<trkpt lat="-28.1869595" lon="153.4136833">
<ele>28.041</ele>
<time>2018-01-24T04:13:20.516Z</time>
</trkpt>
<trkpt lat="-28.1867065" lon="153.4137063">
<ele>27.741</ele>
<time>2018-01-24T04:13:22.570Z</time>
</trkpt>
<trkpt lat="-28.1864840" lon="153.4138215">
<ele>27.744</ele>
<time>2018-01-24T04:13:24.585Z</time>
</trkpt>
<trkpt lat="-28.1863233" lon="153.4140322">
<ele>28.098</ele>
<time>2018-01-24T04:13:26.773Z</time>
</trkpt>
<trkpt lat="-28.1862604" lon="153.4143054">
<ele>28.543</ele>
<time>2018-01-24T04:13:29.187Z</time>
</trkpt>
<trkpt lat="-28.1862535" lon="153.4145731">
<ele>28.612</ele>
<time>2018-01-24T04:13:31.635Z</time>
</trkpt>
<trkpt lat="-28.1861753" lon="153.4148010">
<ele>27.856</ele>
<time>2018-01-24T04:13:33.727Z</time>
</trkpt>
<trkpt lat="-28.1860198" lon="153.4149509">
<ele>26.479</ele>
<time>2018-01-24T04:13:35.550Z</time>
</trkpt>
<trkpt lat="-28.1859350" lon="153.4151425">
<ele>26.328</ele>
<time>2018-01-24T04:13:37.252Z</time>
</trkpt>
<trkpt lat="-28.1859613" lon="153.4153722">
<ele>28.444</ele>
<time>2018-01-24T04:13:39.167Z</time>
</trkpt>
<trkpt lat="-28.1860274" lon="153.4156180">
<ele>31.018</ele>
<time>2018-01-24T04:13:41.450Z</time>
</trkpt>
<trkpt lat="-28.1860977" lon="153.4158597">
<ele>32.238</ele>
<time>2018-01-24T04:13:43.953Z</time>
</trkpt>
<trkpt lat="-28.1861553" lon="153.4160886">
<ele>32.356</ele>
<time>2018-01-24T04:13:46.270Z</time>
</trkpt>
<trkpt lat="-28.1862105" lon="153.4163115">
<ele>32.370</ele>
<time>2018-01-24T04:13:48.407Z</time>
</trkpt>
<trkpt lat="-28.1861944" lon="153.4165175">
<ele>33.037</ele>
<time>2018-01-24T04:13:50.330Z</time>
</trkpt>
<trkpt lat="-28.1860839" lon="153.4166769">
<ele>34.195</ele>
<time>2018-01-24T04:13:52.213Z</time>
</trkpt>
<trkpt lat="-28.1859167" lon="153.4167969">
<ele>35.149</ele>
<time>2018-01-24T04:13:54.191Z</time>
</trkpt>
<trkpt lat="-28.1857222" lon="153.4168677">
<ele>35.539</ele>
<time>2018-01-24T04:13:56.134Z</time>
</trkpt>
<trkpt lat="-28.1855523" lon="153.4169269">
<ele>35.486</ele>
<time>2018-01-24T04:13:57.784Z</time>
</trkpt>
<trkpt lat="-28.1853587" lon="153.4169888">
<ele>35.285</ele>
<time>2018-01-24T04:13:59.629Z</time>
</trkpt>
<trkpt lat="-28.1851443" lon="153.4169741">
<ele>34.751</ele>
<time>2018-01-24T04:14:01.621Z</time>
</trkpt>
<trkpt lat="-28.1849505" lon="153.4168912">
<ele>33.688</ele>
<time>2018-01-24T04:14:03.632Z</time>
</trkpt>
<trkpt lat="-28.1847468" lon="153.4168488">
<ele>32.738</ele>
<time>2018-01-24T04:14:05.618Z</time>
</trkpt>
<trkpt lat="-28.1845268" lon="153.4168241">
<ele>32.474</ele>
<time>2018-01-24T04:14:07.578Z</time>
</trkpt>
<trkpt lat="-28.1843208" lon="153.4168569">
<ele>32.290</ele>
<time>2018-01-24T04:14:09.303Z</time>
</trkpt>
<trkpt lat="-28.1841463" lon="153.4169367">
<ele>31.040</ele>
<time>2018-01-24T04:14:10.820Z</time>
</trkpt>
<trkpt lat="-28.1839539" lon="153.4170420">
<ele>28.433</ele>
<time>2018-01-24T04:14:12.537Z</time>
</trkpt>
<trkpt lat="-28.1837355" lon="153.4171585">
<ele>25.443</ele>
<time>2018-01-24T04:14:14.519Z</time>
</trkpt>
<trkpt lat="-28.1835148" lon="153.4172892">
<ele>23.234</ele>
<time>2018-01-24T04:14:16.578Z</time>
</trkpt>
<trkpt lat="-28.1832956" lon="153.4174032">
<ele>24.250</ele>
<time>2018-01-24T04:14:18.539Z</time>
</trkpt>
<trkpt lat="-28.1830716" lon="153.4174878">
<ele>29.708</ele>
<time>2018-01-24T04:14:20.461Z</time>
</trkpt>
<trkpt lat="-28.1828276" lon="153.4174963">
<ele>36.222</ele>
<time>2018-01-24T04:14:22.564Z</time>
</trkpt>
<trkpt lat="-28.1825867" lon="153.4174431">
<ele>40.104</ele>
<time>2018-01-24T04:14:24.881Z</time>
</trkpt>
<trkpt lat="-28.1823528" lon="153.4173900">
<ele>41.383</ele>
<time>2018-01-24T04:14:27.342Z</time>
</trkpt>
<trkpt lat="-28.1821332" lon="153.4173476">
<ele>41.315</ele>
<time>2018-01-24T04:14:29.660Z</time>
</trkpt>
<trkpt lat="-28.1819286" lon="153.4173574">
<ele>39.977</ele>
<time>2018-01-24T04:14:31.573Z</time>
</trkpt>
<trkpt lat="-28.1817724" lon="153.4174759">
<ele>36.665</ele>
<time>2018-01-24T04:14:33.195Z</time>
</trkpt>
<trkpt lat="-28.1816878" lon="153.4176494">
<ele>32.028</ele>
<time>2018-01-24T04:14:34.637Z</time>
</trkpt>
<trkpt lat="-28.1816188" lon="153.4178717">
<ele>28.004</ele>
<time>2018-01-24T04:14:36.299Z</time>
</trkpt>
<trkpt lat="-28.1815171" lon="153.4181120">
<ele>27.159</ele>
<time>2018-01-24T04:14:38.184Z</time>
</trkpt>
<trkpt lat="-28.1813835" lon="153.4183417">
<ele>30.111</ele>
<time>2018-01-24T04:14:40.124Z</time>
</trkpt>
<trkpt lat="-28.1812270" lon="153.4185648">
<ele>33.527</ele>
<time>2018-01-24T04:14:42.130Z</time>
</trkpt>
<trkpt lat="-28.1809918" lon="153.4188735">
<ele>34.586</ele>
<time>2018-01-24T04:14:44.937Z</time>
</trkpt>
<trkpt lat="-28.1807183" lon="153.4191783">
<ele>34.144</ele>
<time>2018-01-24T04:14:47.958Z</time>
</trkpt>
<trkpt lat="-28.1804666" lon="153.4195024">
<ele>33.844</ele>
<time>2018-01-24T04:14:50.835Z</time>
</trkpt>
<trkpt lat="-28.1802205" lon="153.4198252">
<ele>34.137</ele>
<time>2018-01-24T04:14:53.502Z</time>
</trkpt>
<trkpt lat="-28.1799452" lon="153.4202279">
<ele>34.619</ele>
<time>2018-01-24T04:14:56.656Z</time>
</trkpt>
<trkpt lat="-28.1797017" lon="153.4206454">
<ele>34.852</ele>
<time>2018-01-24T04:14:59.820Z</time>
</trkpt>
<trkpt lat="-28.1794588" lon="153.4210593">
<ele>34.560</ele>
<time>2018-01-24T04:15:03.154Z</time>
</trkpt>
<trkpt lat="-28.1792195" lon="153.4214545">
<ele>32.930</ele>
<time>2018-01-24T04:15:06.615Z</time>
</trkpt>
<trkpt lat="-28.1789983" lon="153.4218147">
<ele>29.301</ele>
<time>2018-01-24T04:15:09.679Z</time>
</trkpt>
<trkpt lat="-28.1788170" lon="153.4221636">
<ele>24.645</ele>
<time>2018-01-24T04:15:12.353Z</time>
</trkpt>
<trkpt lat="-28.1786324" lon="153.4225597">
<ele>20.865</ele>
<time>2018-01-24T04:15:15.311Z</time>
</trkpt>
<trkpt lat="-28.1784395" lon="153.4229770">
<ele>18.905</ele>
<time>2018-01-24T04:15:18.453Z</time>
</trkpt>
<trkpt lat="-28.1783128" lon="153.4234031">
<ele>18.794</ele>
<time>2018-01-24T04:15:21.417Z</time>
</trkpt>
<trkpt lat="-28.1783481" lon="153.4238654">
<ele>19.933</ele>
<time>2018-01-24T04:15:24.526Z</time>
</trkpt>
<trkpt lat="-28.1784793" lon="153.4243115">
<ele>21.208</ele>
<time>2018-01-24T04:15:27.858Z</time>
</trkpt>
<trkpt lat="-28.1785851" lon="153.4247363">
<ele>21.948</ele>
<time>2018-01-24T04:15:30.972Z</time>
</trkpt>
<trkpt lat="-28.1785807" lon="153.4251388">
<ele>22.318</ele>
<time>2018-01-24T04:15:33.657Z</time>
</trkpt>
<trkpt lat="-28.1783893" lon="153.4255011">
<ele>22.564</ele>
<time>2018-01-24T04:15:36.412Z</time>
</trkpt>
<trkpt lat="-28.1780716" lon="153.4257994">
<ele>22.772</ele>
<time>2018-01-24T04:15:39.566Z</time>
</trkpt>
<trkpt lat="-28.1777111" lon="153.4260156">
<ele>22.902</ele>
<time>2018-01-24T04:15:42.727Z</time>
</trkpt>
<trkpt lat="-28.1773794" lon="153.4262203">
<ele>22.908</ele>
<time>2018-01-24T04:15:45.565Z</time>
</trkpt>
<trkpt lat="-28.1770788" lon="153.4264689">
<ele>22.858</ele>
<time>2018-01-24T04:15:48.265Z</time>
</trkpt>
<trkpt lat="-28.1767911" lon="153.4267899">
<ele>22.840</ele>
<time>2018-01-24T04:15:51.252Z</time>
</trkpt>
<trkpt lat="-28.1766175" lon="153.4270250">
<ele>22.971</ele>
<time>2018-01-24T04:15:53.324Z</time>
</trkpt>
<trkpt lat="-28.1764447" lon="153.4272693">
<ele>23.264</ele>
<time>2018-01-24T04:15:55.468Z</time>
</trkpt>
<trkpt lat="-28.1762356" lon="153.4276355">
<ele>23.532</ele>
<time>2018-01-24T04:15:58.406Z</time>
</trkpt>
<trkpt lat="-28.1761291" lon="153.4280461">
<ele>23.637</ele>
<time>2018-01-24T04:16:01.121Z</time>
</trkpt>
<trkpt lat="-28.1760670" lon="153.4284700">
<ele>23.675</ele>
<time>2018-01-24T04:16:03.692Z</time>
</trkpt>
<trkpt lat="-28.1759932" lon="153.4289574">
<ele>23.752</ele>
<time>2018-01-24T04:16:06.610Z</time>
</trkpt>
<trkpt lat="-28.1758748" lon="153.4294384">
<ele>23.753</ele>
<time>2018-01-24T04:16:09.541Z</time>
</trkpt>
<trkpt lat="-28.1756347" lon="153.4298787">
<ele>23.201</ele>
<time>2018-01-24T04:16:12.584Z</time>
</trkpt>
<trkpt lat="-28.1753295" lon="153.4302454">
<ele>21.028</ele>
<time>2018-01-24T04:16:15.564Z</time>
</trkpt>
<trkpt lat="-28.1750118" lon="153.4305907">
<ele>17.839</ele>
<time>2018-01-24T04:16:18.525Z</time>
</trkpt>
<trkpt lat="-28.1746902" lon="153.4309268">
<ele>15.974</ele>
<time>2018-01-24T04:16:21.424Z</time>
</trkpt>
<trkpt lat="-28.1743528" lon="153.4312460">
<ele>16.013</ele>
<time>2018-01-24T04:16:24.255Z</time>
</trkpt>
<trkpt lat="-28.1740027" lon="153.4315676">
<ele>16.659</ele>
<time>2018-01-24T04:16:27.121Z</time>
</trkpt>
<trkpt lat="-28.1736341" lon="153.4318976">
<ele>17.034</ele>
<time>2018-01-24T04:16:30.141Z</time>
</trkpt>
<trkpt lat="-28.1732709" lon="153.4322463">
<ele>16.804</ele>
<time>2018-01-24T04:16:33.284Z</time>
</trkpt>
<trkpt lat="-28.1728974" lon="153.4325273">
<ele>16.265</ele>
<time>2018-01-24T04:16:36.316Z</time>
</trkpt>
<trkpt lat="-28.1725170" lon="153.4327746">
<ele>15.939</ele>
<time>2018-01-24T04:16:39.304Z</time>
</trkpt>
<trkpt lat="-28.1721323" lon="153.4329760">
<ele>15.985</ele>
<time>2018-01-24T04:16:42.197Z</time>
</trkpt>
<trkpt lat="-28.1717397" lon="153.4331980">
<ele>16.187</ele>
<time>2018-01-24T04:16:45.337Z</time>
</trkpt>
<trkpt lat="-28.1713581" lon="153.4334517">
<ele>16.326</ele>
<time>2018-01-24T04:16:48.956Z</time>
</trkpt>
<trkpt lat="-28.1710384" lon="153.4336584">
<ele>16.691</ele>
<time>2018-01-24T04:16:52.636Z</time>
</trkpt>
<trkpt lat="-28.1707883" lon="153.4338208">
<ele>17.588</ele>
<time>2018-01-24T04:16:55.283Z</time>
</trkpt>
<trkpt lat="-28.1705891" lon="153.4339376">
<ele>18.610</ele>
<time>2018-01-24T04:16:56.809Z</time>
</trkpt>
<trkpt lat="-28.1701829" lon="153.4339491">
<ele>19.133</ele>
<time>2018-01-24T04:16:59.307Z</time>
</trkpt>
<trkpt lat="-28.1696719" lon="153.4338919">
<ele>18.868</ele>
<time>2018-01-24T04:17:02.274Z</time>
</trkpt>
<trkpt lat="-28.1691236" lon="153.4338232">
<ele>17.988</ele>
<time>2018-01-24T04:17:05.514Z</time>
</trkpt>
<trkpt lat="-28.1686855" lon="153.4336236">
<ele>17.196</ele>
<time>2018-01-24T04:17:08.145Z</time>
</trkpt>
<trkpt lat="-28.1682748" lon="153.4331102">
<ele>17.035</ele>
<time>2018-01-24T04:17:11.376Z</time>
</trkpt>
<trkpt lat="-28.1678393" lon="153.4327082">
<ele>17.520</ele>
<time>2018-01-24T04:17:14.264Z</time>
</trkpt>
<trkpt lat="-28.1672776" lon="153.4326119">
<ele>18.319</ele>
<time>2018-01-24T04:17:17.092Z</time>
</trkpt>
<trkpt lat="-28.1666874" lon="153.4325450">
<ele>18.964</ele>
<time>2018-01-24T04:17:19.985Z</time>
</trkpt>
<trkpt lat="-28.1660835" lon="153.4324567">
<ele>19.560</ele>
<time>2018-01-24T04:17:22.908Z</time>
</trkpt>
<trkpt lat="-28.1654741" lon="153.4323867">
<ele>20.818</ele>
<time>2018-01-24T04:17:26.101Z</time>
</trkpt>
<trkpt lat="-28.1650765" lon="153.4323940">
<ele>23.124</ele>
<time>2018-01-24T04:17:28.700Z</time>
</trkpt>
<trkpt lat="-28.1646686" lon="153.4323401">
<ele>26.199</ele>
<time>2018-01-24T04:17:32.136Z</time>
</trkpt>
<trkpt lat="-28.1644874" lon="153.4322975">
<ele>29.996</ele>
<time>2018-01-24T04:17:33.532Z</time>
</trkpt>
<trkpt lat="-28.1643308" lon="153.4321077">
<ele>34.714</ele>
<time>2018-01-24T04:17:35.115Z</time>
</trkpt>
<trkpt lat="-28.1642513" lon="153.4317671">
<ele>40.000</ele>
<time>2018-01-24T04:17:37.282Z</time>
</trkpt>
<trkpt lat="-28.1640284" lon="153.4312799">
<ele>45.254</ele>
<time>2018-01-24T04:17:40.901Z</time>
</trkpt>
<trkpt lat="-28.1639679" lon="153.4308606">
<ele>50.626</ele>
<time>2018-01-24T04:17:43.824Z</time>
</trkpt>
<trkpt lat="-28.1639860" lon="153.4304168">
<ele>56.590</ele>
<time>2018-01-24T04:17:46.400Z</time>
</trkpt>
<trkpt lat="-28.1636428" lon="153.4300457">
<ele>63.104</ele>
<time>2018-01-24T04:17:49.040Z</time>
</trkpt>
<trkpt lat="-28.1631577" lon="153.4295729">
<ele>69.594</ele>
<time>2018-01-24T04:17:52.508Z</time>
</trkpt>
<trkpt lat="-28.1628150" lon="153.4291230">
<ele>75.397</ele>
<time>2018-01-24T04:17:55.487Z</time>
</trkpt>
<trkpt lat="-28.1623190" lon="153.4289687">
<ele>79.621</ele>
<time>2018-01-24T04:17:58.198Z</time>
</trkpt>
<trkpt lat="-28.1616620" lon="153.4289381">
<ele>80.973</ele>
<time>2018-01-24T04:18:01.449Z</time>
</trkpt>
<trkpt lat="-28.1610451" lon="153.4289684">
<ele>79.034</ele>
<time>2018-01-24T04:18:04.621Z</time>
</trkpt>
<trkpt lat="-28.1604917" lon="153.4291283">
<ele>75.461</ele>
<time>2018-01-24T04:18:07.693Z</time>
</trkpt>
<trkpt lat="-28.1599554" lon="153.4292036">
<ele>72.338</ele>
<time>2018-01-24T04:18:10.529Z</time>
</trkpt>
<trkpt lat="-28.1594236" lon="153.4289877">
<ele>70.387</ele>
<time>2018-01-24T04:18:13.324Z</time>
</trkpt>
<trkpt lat="-28.1588295" lon="153.4287253">
<ele>69.113</ele>
<time>2018-01-24T04:18:16.374Z</time>
</trkpt>
<trkpt lat="-28.1582173" lon="153.4285805">
<ele>67.226</ele>
<time>2018-01-24T04:18:19.392Z</time>
</trkpt>
<trkpt lat="-28.1575938" lon="153.4284981">
<ele>63.836</ele>
<time>2018-01-24T04:18:22.578Z</time>
</trkpt>
<trkpt lat="-28.1570001" lon="153.4284078">
<ele>59.417</ele>
<time>2018-01-24T04:18:25.866Z</time>
</trkpt>
<trkpt lat="-28.1565305" lon="153.4283552">
<ele>55.063</ele>
<time>2018-01-24T04:18:28.572Z</time>
</trkpt>
<trkpt lat="-28.1561865" lon="153.4284335">
<ele>51.520</ele>
<time>2018-01-24T04:18:30.571Z</time>
</trkpt>
<trkpt lat="-28.1558510" lon="153.4284854">
<ele>48.923</ele>
<time>2018-01-24T04:18:32.464Z</time>
</trkpt>
<trkpt lat="-28.1555046" lon="153.4284386">
<ele>46.898</ele>
<time>2018-01-24T04:18:34.364Z</time>
</trkpt>
<trkpt lat="-28.1551678" lon="153.4284442">
<ele>45.007</ele>
<time>2018-01-24T04:18:36.170Z</time>
</trkpt>
<trkpt lat="-28.1547994" lon="153.4285352">
<ele>42.995</ele>
<time>2018-01-24T04:18:38.187Z</time>
</trkpt>
<trkpt lat="-28.1544493" lon="153.4286981">
<ele>40.746</ele>
<time>2018-01-24T04:18:40.260Z</time>
</trkpt>
<trkpt lat="-28.1540862" lon="153.4287652">
<ele>38.182</ele>
<time>2018-01-24T04:18:42.376Z</time>
</trkpt>
<trkpt lat="-28.1537420" lon="153.4287306">
<ele>35.327</ele>
<time>2018-01-24T04:18:44.429Z</time>
</trkpt>
<trkpt lat="-28.1534211" lon="153.4286614">
<ele>32.384</ele>
<time>2018-01-24T04:18:46.365Z</time>
</trkpt>
<trkpt lat="-28.1531020" lon="153.4285317">
<ele>29.655</ele>
<time>2018-01-24T04:18:48.353Z</time>
</trkpt>
<trkpt lat="-28.1527802" lon="153.4284258">
<ele>27.585</ele>
<time>2018-01-24T04:18:50.319Z</time>
</trkpt>
<trkpt lat="-28.1524604" lon="153.4283239">
<ele>27.046</ele>
<time>2018-01-24T04:18:52.266Z</time>
</trkpt>
<trkpt lat="-28.1521344" lon="153.4282425">
<ele>28.173</ele>
<time>2018-01-24T04:18:54.181Z</time>
</trkpt>
<trkpt lat="-28.1518114" lon="153.4281237">
<ele>29.587</ele>
<time>2018-01-24T04:18:56.073Z</time>
</trkpt>
<trkpt lat="-28.1514607" lon="153.4280275">
<ele>30.068</ele>
<time>2018-01-24T04:18:58.108Z</time>
</trkpt>
<trkpt lat="-28.1511274" lon="153.4278922">
<ele>29.722</ele>
<time>2018-01-24T04:19:00.193Z</time>
</trkpt>
<trkpt lat="-28.1507921" lon="153.4277796">
<ele>29.052</ele>
<time>2018-01-24T04:19:02.317Z</time>
</trkpt>
<trkpt lat="-28.1504943" lon="153.4276829">
<ele>28.195</ele>
<time>2018-01-24T04:19:04.207Z</time>
</trkpt>
<trkpt lat="-28.1501972" lon="153.4276182">
<ele>26.922</ele>
<time>2018-01-24T04:19:06.012Z</time>
</trkpt>
<trkpt lat="-28.1498807" lon="153.4276103">
<ele>25.139</ele>
<time>2018-01-24T04:19:07.828Z</time>
</trkpt>
<trkpt lat="-28.1495152" lon="153.4276277">
<ele>22.995</ele>
<time>2018-01-24T04:19:09.867Z</time>
</trkpt>
<trkpt lat="-28.1491550" lon="153.4276830">
<ele>20.597</ele>
<time>2018-01-24T04:19:11.855Z</time>
</trkpt>
<trkpt lat="-28.1488004" lon="153.4277882">
<ele>18.009</ele>
<time>2018-01-24T04:19:13.827Z</time>
</trkpt>
<trkpt lat="-28.1484535" lon="153.4278660">
<ele>15.365</ele>
<time>2018-01-24T04:19:15.725Z</time>
</trkpt>
<trkpt lat="-28.1479128" lon="153.4279217">
<ele>12.838</ele>
<time>2018-01-24T04:19:18.712Z</time>
</trkpt>
<trkpt lat="-28.1475716" lon="153.4279522">
<ele>10.447</ele>
<time>2018-01-24T04:19:20.723Z</time>
</trkpt>
<trkpt lat="-28.1472589" lon="153.4279672">
<ele>8.169</ele>
<time>2018-01-24T04:19:22.544Z</time>
</trkpt>
<trkpt lat="-28.1469375" lon="153.4279771">
<ele>6.362</ele>
<time>2018-01-24T04:19:24.348Z</time>
</trkpt>
<trkpt lat="-28.1465667" lon="153.4280874">
<ele>6.141</ele>
<time>2018-01-24T04:19:26.488Z</time>
</trkpt>
<trkpt lat="-28.1462178" lon="153.4281816">
<ele>7.790</ele>
<time>2018-01-24T04:19:28.573Z</time>
</trkpt>
<trkpt lat="-28.1458992" lon="153.4282391">
<ele>9.781</ele>
<time>2018-01-24T04:19:30.516Z</time>
</trkpt>
<trkpt lat="-28.1456064" lon="153.4282778">
<ele>10.759</ele>
<time>2018-01-24T04:19:32.283Z</time>
</trkpt>
<trkpt lat="-28.1452975" lon="153.4282302">
<ele>10.854</ele>
<time>2018-01-24T04:19:34.116Z</time>
</trkpt>
<trkpt lat="-28.1449651" lon="153.4280620">
<ele>10.580</ele>
<time>2018-01-24T04:19:36.233Z</time>
</trkpt>
<trkpt lat="-28.1446626" lon="153.4278422">
<ele>10.274</ele>
<time>2018-01-24T04:19:38.393Z</time>
</trkpt>
<trkpt lat="-28.1443927" lon="153.4276470">
<ele>10.039</ele>
<time>2018-01-24T04:19:40.436Z</time>
</trkpt>
<trkpt lat="-28.1440942" lon="153.4275234">
<ele>9.896</ele>
<time>2018-01-24T04:19:42.563Z</time>
</trkpt>
<trkpt lat="-28.1438009" lon="153.4274065">
<ele>9.842</ele>
<time>2018-01-24T04:19:44.750Z</time>
</trkpt>
<trkpt lat="-28.1435309" lon="153.4274107">
<ele>9.862</ele>
<time>2018-01-24T04:19:46.759Z</time>
</trkpt>
<trkpt lat="-28.1432788" lon="153.4274216">
<ele>9.941</ele>
<time>2018-01-24T04:19:48.792Z</time>
</trkpt>
<trkpt lat="-28.1430205" lon="153.4274430">
<ele>10.061</ele>
<time>2018-01-24T04:19:51.195Z</time>
</trkpt>
<trkpt lat="-28.1428153" lon="153.4274856">
<ele>10.212</ele>
<time>2018-01-24T04:19:53.349Z</time>
</trkpt>
<trkpt lat="-28.1426633" lon="153.4275613">
<ele>10.416</ele>
<time>2018-01-24T04:19:55.073Z</time>
</trkpt>
<trkpt lat="-28.1424805" lon="153.4276931">
<ele>10.680</ele>
<time>2018-01-24T04:19:57.292Z</time>
</trkpt>
<trkpt lat="-28.1423197" lon="153.4278058">
<ele>10.972</ele>
<time>2018-01-24T04:19:59.233Z</time>
</trkpt>
<trkpt lat="-28.1421316" lon="153.4278966">
<ele>11.261</ele>
<time>2018-01-24T04:20:01.328Z</time>
</trkpt>
<trkpt lat="-28.1419958" lon="153.4279802">
<ele>11.531</ele>
<time>2018-01-24T04:20:02.857Z</time>
</trkpt>
<trkpt lat="-28.1418031" lon="153.4280611">
<ele>11.753</ele>
<time>2018-01-24T04:20:04.805Z</time>
</trkpt>
<trkpt lat="-28.1415867" lon="153.4281250">
<ele>11.891</ele>
<time>2018-01-24T04:20:06.911Z</time>
</trkpt>
<trkpt lat="-28.1413814" lon="153.4282087">
<ele>11.943</ele>
<time>2018-01-24T04:20:09.033Z</time>
</trkpt>
<trkpt lat="-28.1411796" lon="153.4282781">
<ele>11.946</ele>
<time>2018-01-24T04:20:11.317Z</time>
</trkpt>
<trkpt lat="-28.1410006" lon="153.4283435">
<ele>11.931</ele>
<time>2018-01-24T04:20:13.564Z</time>
</trkpt>
<trkpt lat="-28.1408682" lon="153.4283962">
<ele>11.916</ele>
<time>2018-01-24T04:20:15.303Z</time>
</trkpt>
<trkpt lat="-28.1407155" lon="153.4284480">
<ele>11.918</ele>
<time>2018-01-24T04:20:17.210Z</time>
</trkpt>
<trkpt lat="-28.1405661" lon="153.4284430">
<ele>11.937</ele>
<time>2018-01-24T04:20:18.718Z</time>
</trkpt>
<trkpt lat="-28.1403756" lon="153.4283569">
<ele>11.946</ele>
<time>2018-01-24T04:20:20.477Z</time>
</trkpt>
<trkpt lat="-28.1401368" lon="153.4283811">
<ele>11.907</ele>
<time>2018-01-24T04:20:22.397Z</time>
</trkpt>
<trkpt lat="-28.1398806" lon="153.4284141">
<ele>11.791</ele>
<time>2018-01-24T04:20:24.378Z</time>
</trkpt>
<trkpt lat="-28.1396409" lon="153.4284037">
<ele>11.618</ele>
<time>2018-01-24T04:20:26.097Z</time>
</trkpt>
<trkpt lat="-28.1393687" lon="153.4282623">
<ele>11.448</ele>
<time>2018-01-24T04:20:28.113Z</time>
</trkpt>
<trkpt lat="-28.1390866" lon="153.4281118">
<ele>11.316</ele>
<time>2018-01-24T04:20:30.172Z</time>
</trkpt>
<trkpt lat="-28.1387983" lon="153.4279659">
<ele>11.209</ele>
<time>2018-01-24T04:20:32.297Z</time>
</trkpt>
<trkpt lat="-28.1385497" lon="153.4278446">
<ele>11.103</ele>
<time>2018-01-24T04:20:34.128Z</time>
</trkpt>
<trkpt lat="-28.1382863" lon="153.4277315">
<ele>11.002</ele>
<time>2018-01-24T04:20:36.008Z</time>
</trkpt>
<trkpt lat="-28.1380042" lon="153.4276030">
<ele>10.923</ele>
<time>2018-01-24T04:20:37.990Z</time>
</trkpt>
<trkpt lat="-28.1377224" lon="153.4274980">
<ele>10.842</ele>
<time>2018-01-24T04:20:39.866Z</time>
</trkpt>
<trkpt lat="-28.1374202" lon="153.4273570">
<ele>10.668</ele>
<time>2018-01-24T04:20:41.890Z</time>
</trkpt>
<trkpt lat="-28.1371289" lon="153.4272269">
<ele>10.346</ele>
<time>2018-01-24T04:20:43.805Z</time>
</trkpt>
<trkpt lat="-28.1368490" lon="153.4270698">
<ele>9.922</ele>
<time>2018-01-24T04:20:45.667Z</time>
</trkpt>
<trkpt lat="-28.1365862" lon="153.4268433">
<ele>9.480</ele>
<time>2018-01-24T04:20:47.562Z</time>
</trkpt>
<trkpt lat="-28.1363233" lon="153.4265410">
<ele>9.094</ele>
<time>2018-01-24T04:20:49.669Z</time>
</trkpt>
<trkpt lat="-28.1360804" lon="153.4262611">
<ele>8.781</ele>
<time>2018-01-24T04:20:51.618Z</time>
</trkpt>
<trkpt lat="-28.1358204" lon="153.4260206">
<ele>8.118</ele>
<time>2018-01-24T04:20:53.495Z</time>
</trkpt>
<trkpt lat="-28.1355579" lon="153.4257197">
<ele>6.596</ele>
<time>2018-01-24T04:20:55.563Z</time>
</trkpt>
<trkpt lat="-28.1352838" lon="153.4254486">
<ele>4.453</ele>
<time>2018-01-24T04:20:57.585Z</time>
</trkpt>
<trkpt lat="-28.1350146" lon="153.4252105">
<ele>2.410</ele>
<time>2018-01-24T04:20:59.508Z</time>
</trkpt>
<trkpt lat="-28.1347547" lon="153.4249415">
<ele>0.975</ele>
<time>2018-01-24T04:21:01.510Z</time>
</trkpt>
<trkpt lat="-28.1344986" lon="153.4247045">
<ele>1.202</ele>
<time>2018-01-24T04:21:03.402Z</time>
</trkpt>
<trkpt lat="-28.1342300" lon="153.4244795">
<ele>3.412</ele>
<time>2018-01-24T04:21:05.324Z</time>
</trkpt>
<trkpt lat="-28.1339920" lon="153.4242263">
<ele>5.888</ele>
<time>2018-01-24T04:21:07.223Z</time>
</trkpt>
<trkpt lat="-28.1337095" lon="153.4240110">
<ele>7.089</ele>
<time>2018-01-24T04:21:09.209Z</time>
</trkpt>
<trkpt lat="-28.1333323" lon="153.4239718">
<ele>7.232</ele>
<time>2018-01-24T04:21:11.373Z</time>
</trkpt>
<trkpt lat="-28.1329737" lon="153.4240271">
<ele>6.975</ele>
<time>2018-01-24T04:21:13.359Z</time>
</trkpt>
<trkpt lat="-28.1326385" lon="153.4242141">
<ele>6.772</ele>
<time>2018-01-24T04:21:15.281Z</time>
</trkpt>
<trkpt lat="-28.1322824" lon="153.4244318">
<ele>6.733</ele>
<time>2018-01-24T04:21:17.249Z</time>
</trkpt>
<trkpt lat="-28.1319083" lon="153.4246366">
<ele>6.772</ele>
<time>2018-01-24T04:21:19.241Z</time>
</trkpt>
<trkpt lat="-28.1315501" lon="153.4248327">
<ele>6.300</ele>
<time>2018-01-24T04:21:21.165Z</time>
</trkpt>
<trkpt lat="-28.1312106" lon="153.4250091">
<ele>4.673</ele>
<time>2018-01-24T04:21:23.004Z</time>
</trkpt>
<trkpt lat="-28.1308537" lon="153.4251815">
<ele>2.467</ele>
<time>2018-01-24T04:21:24.942Z</time>
</trkpt>
<trkpt lat="-28.1305126" lon="153.4253394">
<ele>1.698</ele>
<time>2018-01-24T04:21:26.782Z</time>
</trkpt>
<trkpt lat="-28.1301005" lon="153.4254499">
<ele>3.350</ele>
<time>2018-01-24T04:21:28.917Z</time>
</trkpt>
<trkpt lat="-28.1297436" lon="153.4255188">
<ele>5.996</ele>
<time>2018-01-24T04:21:30.831Z</time>
</trkpt>
<trkpt lat="-28.1294036" lon="153.4255577">
<ele>7.871</ele>
<time>2018-01-24T04:21:32.726Z</time>
</trkpt>
<trkpt lat="-28.1290537" lon="153.4255314">
<ele>8.670</ele>
<time>2018-01-24T04:21:34.753Z</time>
</trkpt>
<trkpt lat="-28.1287361" lon="153.4254202">
<ele>8.803</ele>
<time>2018-01-24T04:21:36.763Z</time>
</trkpt>
<trkpt lat="-28.1284407" lon="153.4253537">
<ele>8.722</ele>
<time>2018-01-24T04:21:38.673Z</time>
</trkpt>
<trkpt lat="-28.1281450" lon="153.4253321">
<ele>8.652</ele>
<time>2018-01-24T04:21:40.632Z</time>
</trkpt>
<trkpt lat="-28.1278692" lon="153.4252897">
<ele>8.591</ele>
<time>2018-01-24T04:21:42.503Z</time>
</trkpt>
<trkpt lat="-28.1275677" lon="153.4252837">
<ele>8.496</ele>
<time>2018-01-24T04:21:44.577Z</time>
</trkpt>
<trkpt lat="-28.1273147" lon="153.4252869">
<ele>8.434</ele>
<time>2018-01-24T04:21:46.395Z</time>
</trkpt>
<trkpt lat="-28.1270548" lon="153.4252153">
<ele>8.518</ele>
<time>2018-01-24T04:21:48.442Z</time>
</trkpt>
<trkpt lat="-28.1268835" lon="153.4250610">
<ele>8.771</ele>
<time>2018-01-24T04:21:50.317Z</time>
</trkpt>
<trkpt lat="-28.1267497" lon="153.4249172">
<ele>9.125</ele>
<time>2018-01-24T04:21:52.153Z</time>
</trkpt>
<trkpt lat="-28.1265991" lon="153.4249007">
<ele>9.517</ele>
<time>2018-01-24T04:21:53.932Z</time>
</trkpt>
<trkpt lat="-28.1264824" lon="153.4249445">
<ele>9.930</ele>
<time>2018-01-24T04:21:55.639Z</time>
</trkpt>
<trkpt lat="-28.1263809" lon="153.4249867">
<ele>10.339</ele>
<time>2018-01-24T04:21:57.452Z</time>
</trkpt>
<trkpt lat="-28.1262644" lon="153.4250399">
<ele>10.711</ele>
<time>2018-01-24T04:21:59.998Z</time>
</trkpt>
<trkpt lat="-28.1262644" lon="153.4250399">
<ele>10.994</ele>
<time>2018-01-24T04:22:05.998Z</time>
</trkpt>
<trkpt lat="-28.1262644" lon="153.4250399">
<ele>11.121</ele>
<time>2018-01-24T04:22:09.037Z</time>
</trkpt>
<trkpt lat="-28.1260550" lon="153.4250753">
<ele>11.101</ele>
<time>2018-01-24T04:22:15.885Z</time>
</trkpt>
<trkpt lat="-28.1259390" lon="153.4251756">
<ele>11.150</ele>
<time>2018-01-24T04:22:18.052Z</time>
</trkpt>
<trkpt lat="-28.1259428" lon="153.4253606">
<ele>11.438</ele>
<time>2018-01-24T04:22:20.132Z</time>
</trkpt>
<trkpt lat="-28.1259896" lon="153.4255633">
<ele>11.841</ele>
<time>2018-01-24T04:22:22.366Z</time>
</trkpt>
<trkpt lat="-28.1260039" lon="153.4257586">
<ele>12.148</ele>
<time>2018-01-24T04:22:24.453Z</time>
</trkpt>
<trkpt lat="-28.1258990" lon="153.4259010">
<ele>12.290</ele>
<time>2018-01-24T04:22:26.171Z</time>
</trkpt>
<trkpt lat="-28.1256696" lon="153.4260297">
<ele>12.294</ele>
<time>2018-01-24T04:22:28.337Z</time>
</trkpt>
<trkpt lat="-28.1254331" lon="153.4261436">
<ele>12.259</ele>
<time>2018-01-24T04:22:30.331Z</time>
</trkpt>
<trkpt lat="-28.1251852" lon="153.4262403">
<ele>12.307</ele>
<time>2018-01-24T04:22:32.324Z</time>
</trkpt>
<trkpt lat="-28.1249374" lon="153.4263288">
<ele>12.473</ele>
<time>2018-01-24T04:22:34.359Z</time>
</trkpt>
<trkpt lat="-28.1246980" lon="153.4262748">
<ele>12.092</ele>
<time>2018-01-24T04:22:36.197Z</time>
</trkpt>
<trkpt lat="-28.1244855" lon="153.4260047">
<ele>10.432</ele>
<time>2018-01-24T04:22:38.333Z</time>
</trkpt>
<trkpt lat="-28.1243172" lon="153.4257028">
<ele>8.179</ele>
<time>2018-01-24T04:22:40.307Z</time>
</trkpt>
<trkpt lat="-28.1241630" lon="153.4253803">
<ele>6.790</ele>
<time>2018-01-24T04:22:42.268Z</time>
</trkpt>
<trkpt lat="-28.1240054" lon="153.4250428">
<ele>6.980</ele>
<time>2018-01-24T04:22:44.280Z</time>
</trkpt>
<trkpt lat="-28.1238560" lon="153.4246975">
<ele>8.710</ele>
<time>2018-01-24T04:22:46.304Z</time>
</trkpt>
<trkpt lat="-28.1237124" lon="153.4243599">
<ele>11.540</ele>
<time>2018-01-24T04:22:48.287Z</time>
</trkpt>
<trkpt lat="-28.1235762" lon="153.4240375">
<ele>14.806</ele>
<time>2018-01-24T04:22:50.206Z</time>
</trkpt>
<trkpt lat="-28.1234526" lon="153.4237153">
<ele>17.837</ele>
<time>2018-01-24T04:22:52.116Z</time>
</trkpt>
<trkpt lat="-28.1234412" lon="153.4233524">
<ele>20.868</ele>
<time>2018-01-24T04:22:54.065Z</time>
</trkpt>
<trkpt lat="-28.1234766" lon="153.4229737">
<ele>24.172</ele>
<time>2018-01-24T04:22:56.079Z</time>
</trkpt>
<trkpt lat="-28.1234652" lon="153.4224132">
<ele>26.810</ele>
<time>2018-01-24T04:22:58.841Z</time>
</trkpt>
<trkpt lat="-28.1232073" lon="153.4217311">
<ele>27.957</ele>
<time>2018-01-24T04:23:02.278Z</time>
</trkpt>
<trkpt lat="-28.1229287" lon="153.4211823">
<ele>27.900</ele>
<time>2018-01-24T04:23:05.495Z</time>
</trkpt>
<trkpt lat="-28.1225859" lon="153.4208558">
<ele>27.007</ele>
<time>2018-01-24T04:23:08.135Z</time>
</trkpt>
<trkpt lat="-28.1220249" lon="153.4206695">
<ele>25.784</ele>
<time>2018-01-24T04:23:11.283Z</time>
</trkpt>
<trkpt lat="-28.1215096" lon="153.4203990">
<ele>24.883</ele>
<time>2018-01-24T04:23:14.123Z</time>
</trkpt>
<trkpt lat="-28.1210234" lon="153.4199303">
<ele>26.058</ele>
<time>2018-01-24T04:23:17.277Z</time>
</trkpt>
<trkpt lat="-28.1205705" lon="153.4195442">
<ele>29.987</ele>
<time>2018-01-24T04:23:20.149Z</time>
</trkpt>
<trkpt lat="-28.1200707" lon="153.4192584">
<ele>34.116</ele>
<time>2018-01-24T04:23:23.128Z</time>
</trkpt>
<trkpt lat="-28.1195945" lon="153.4191277">
<ele>36.283</ele>
<time>2018-01-24T04:23:25.906Z</time>
</trkpt>
<trkpt lat="-28.1192517" lon="153.4187471">
<ele>37.259</ele>
<time>2018-01-24T04:23:28.691Z</time>
</trkpt>
<trkpt lat="-28.1189254" lon="153.4183211">
<ele>38.156</ele>
<time>2018-01-24T04:23:31.594Z</time>
</trkpt>
<trkpt lat="-28.1186242" lon="153.4178702">
<ele>39.420</ele>
<time>2018-01-24T04:23:34.492Z</time>
</trkpt>
<trkpt lat="-28.1186438" lon="153.4172470">
<ele>42.886</ele>
<time>2018-01-24T04:23:37.692Z</time>
</trkpt>
<trkpt lat="-28.1187530" lon="153.4166691">
<ele>49.275</ele>
<time>2018-01-24T04:23:40.920Z</time>
</trkpt>
<trkpt lat="-28.1190003" lon="153.4162458">
<ele>55.017</ele>
<time>2018-01-24T04:23:43.871Z</time>
</trkpt>
<trkpt lat="-28.1193869" lon="153.4159060">
<ele>56.644</ele>
<time>2018-01-24T04:23:47.143Z</time>
</trkpt>
<trkpt lat="-28.1196493" lon="153.4154657">
<ele>54.972</ele>
<time>2018-01-24T04:23:50.326Z</time>
</trkpt>
<trkpt lat="-28.1197322" lon="153.4150017">
<ele>52.519</ele>
<time>2018-01-24T04:23:53.126Z</time>
</trkpt>
<trkpt lat="-28.1194631" lon="153.4145237">
<ele>51.195</ele>
<time>2018-01-24T04:23:56.260Z</time>
</trkpt>
<trkpt lat="-28.1190657" lon="153.4141325">
<ele>53.894</ele>
<time>2018-01-24T04:23:59.257Z</time>
</trkpt>
<trkpt lat="-28.1186198" lon="153.4137645">
<ele>61.454</ele>
<time>2018-01-24T04:24:02.149Z</time>
</trkpt>
<trkpt lat="-28.1181523" lon="153.4133066">
<ele>68.104</ele>
<time>2018-01-24T04:24:05.191Z</time>
</trkpt>
<trkpt lat="-28.1177080" lon="153.4128040">
<ele>68.186</ele>
<time>2018-01-24T04:24:08.183Z</time>
</trkpt>
<trkpt lat="-28.1174474" lon="153.4124775">
<ele>62.733</ele>
<time>2018-01-24T04:24:10.022Z</time>
</trkpt>
<trkpt lat="-28.1171471" lon="153.4121371">
<ele>55.521</ele>
<time>2018-01-24T04:24:12.045Z</time>
</trkpt>
<trkpt lat="-28.1167327" lon="153.4116526">
<ele>49.201</ele>
<time>2018-01-24T04:24:14.880Z</time>
</trkpt>
<trkpt lat="-28.1163133" lon="153.4113933">
<ele>44.031</ele>
<time>2018-01-24T04:24:17.094Z</time>
</trkpt>
<trkpt lat="-28.1158959" lon="153.4111959">
<ele>39.350</ele>
<time>2018-01-24T04:24:19.191Z</time>
</trkpt>
<trkpt lat="-28.1155417" lon="153.4109776">
<ele>35.260</ele>
<time>2018-01-24T04:24:21.126Z</time>
</trkpt>
<trkpt lat="-28.1152031" lon="153.4107500">
<ele>32.242</ele>
<time>2018-01-24T04:24:23.110Z</time>
</trkpt>
<trkpt lat="-28.1149165" lon="153.4105437">
<ele>30.470</ele>
<time>2018-01-24T04:24:25.016Z</time>
</trkpt>
<trkpt lat="-28.1146933" lon="153.4103311">
<ele>29.915</ele>
<time>2018-01-24T04:24:26.857Z</time>
</trkpt>
<trkpt lat="-28.1144729" lon="153.4101342">
<ele>32.873</ele>
<time>2018-01-24T04:24:28.626Z</time>
</trkpt>
<trkpt lat="-28.1141972" lon="153.4099559">
<ele>40.341</ele>
<time>2018-01-24T04:24:30.517Z</time>
</trkpt>
<trkpt lat="-28.1138609" lon="153.4097647">
<ele>46.979</ele>
<time>2018-01-24T04:24:32.599Z</time>
</trkpt>
<trkpt lat="-28.1134814" lon="153.4096175">
<ele>47.612</ele>
<time>2018-01-24T04:24:34.722Z</time>
</trkpt>
<trkpt lat="-28.1131093" lon="153.4095817">
<ele>43.547</ele>
<time>2018-01-24T04:24:36.703Z</time>
</trkpt>
<trkpt lat="-28.1127433" lon="153.4095817">
<ele>38.181</ele>
<time>2018-01-24T04:24:38.675Z</time>
</trkpt>
<trkpt lat="-28.1123917" lon="153.4095164">
<ele>33.515</ele>
<time>2018-01-24T04:24:40.663Z</time>
</trkpt>
<trkpt lat="-28.1120621" lon="153.4094019">
<ele>29.881</ele>
<time>2018-01-24T04:24:42.827Z</time>
</trkpt>
<trkpt lat="-28.1119163" lon="153.4092005">
<ele>26.909</ele>
<time>2018-01-24T04:24:44.641Z</time>
</trkpt>
<trkpt lat="-28.1117962" lon="153.4090271">
<ele>24.610</ele>
<time>2018-01-24T04:24:46.503Z</time>
</trkpt>
<trkpt lat="-28.1116525" lon="153.4089356">
<ele>24.637</ele>
<time>2018-01-24T04:24:48.252Z</time>
</trkpt>
<trkpt lat="-28.1115039" lon="153.4088357">
<ele>27.813</ele>
<time>2018-01-24T04:24:50.063Z</time>
</trkpt>
<trkpt lat="-28.1113061" lon="153.4087388">
<ele>31.747</ele>
<time>2018-01-24T04:24:52.133Z</time>
</trkpt>
<trkpt lat="-28.1110786" lon="153.4086156">
<ele>33.996</ele>
<time>2018-01-24T04:24:54.347Z</time>
</trkpt>
<trkpt lat="-28.1108642" lon="153.4084938">
<ele>34.628</ele>
<time>2018-01-24T04:24:56.358Z</time>
</trkpt>
<trkpt lat="-28.1106330" lon="153.4084133">
<ele>34.520</ele>
<time>2018-01-24T04:24:58.370Z</time>
</trkpt>
<trkpt lat="-28.1104243" lon="153.4082992">
<ele>34.307</ele>
<time>2018-01-24T04:25:00.292Z</time>
</trkpt>
<trkpt lat="-28.1101914" lon="153.4081986">
<ele>34.173</ele>
<time>2018-01-24T04:25:02.320Z</time>
</trkpt>
<trkpt lat="-28.1099531" lon="153.4080866">
<ele>34.030</ele>
<time>2018-01-24T04:25:04.360Z</time>
</trkpt>
<trkpt lat="-28.1097116" lon="153.4079776">
<ele>33.761</ele>
<time>2018-01-24T04:25:06.366Z</time>
</trkpt>
<trkpt lat="-28.1094781" lon="153.4078660">
<ele>33.426</ele>
<time>2018-01-24T04:25:08.302Z</time>
</trkpt>
<trkpt lat="-28.1092584" lon="153.4077479">
<ele>33.251</ele>
<time>2018-01-24T04:25:10.149Z</time>
</trkpt>
<trkpt lat="-28.1090033" lon="153.4076446">
<ele>33.329</ele>
<time>2018-01-24T04:25:12.183Z</time>
</trkpt>
<trkpt lat="-28.1087489" lon="153.4075042">
<ele>33.409</ele>
<time>2018-01-24T04:25:14.274Z</time>
</trkpt>
<trkpt lat="-28.1085157" lon="153.4073588">
<ele>33.252</ele>
<time>2018-01-24T04:25:16.228Z</time>
</trkpt>
<trkpt lat="-28.1083048" lon="153.4072232">
<ele>32.696</ele>
<time>2018-01-24T04:25:18.030Z</time>
</trkpt>
<trkpt lat="-28.1081017" lon="153.4070571">
<ele>31.386</ele>
<time>2018-01-24T04:25:19.976Z</time>
</trkpt>
<trkpt lat="-28.1079050" lon="153.4069188">
<ele>28.934</ele>
<time>2018-01-24T04:25:21.922Z</time>
</trkpt>
<trkpt lat="-28.1077615" lon="153.4067593">
<ele>25.333</ele>
<time>2018-01-24T04:25:23.748Z</time>
</trkpt>
<trkpt lat="-28.1076557" lon="153.4065642">
<ele>21.587</ele>
<time>2018-01-24T04:25:25.697Z</time>
</trkpt>
<trkpt lat="-28.1075783" lon="153.4063579">
<ele>20.032</ele>
<time>2018-01-24T04:25:27.727Z</time>
</trkpt>
<trkpt lat="-28.1074906" lon="153.4061909">
<ele>21.502</ele>
<time>2018-01-24T04:25:29.680Z</time>
</trkpt>
<trkpt lat="-28.1074270" lon="153.4060981">
<ele>23.530</ele>
<time>2018-01-24T04:25:30.999Z</time>
</trkpt>
<trkpt lat="-28.1074270" lon="153.4060981">
<ele>23.953</ele>
<time>2018-01-24T04:25:36.999Z</time>
</trkpt>
<trkpt lat="-28.1074270" lon="153.4060981">
<ele>23.456</ele>
<time>2018-01-24T04:25:52.159Z</time>
</trkpt>
<trkpt lat="-28.1073403" lon="153.4058385">
<ele>23.207</ele>
<time>2018-01-24T04:26:00.120Z</time>
</trkpt>
<trkpt lat="-28.1072654" lon="153.4055885">
<ele>22.608</ele>
<time>2018-01-24T04:26:03.046Z</time>
</trkpt>
<trkpt lat="-28.1070809" lon="153.4055032">
<ele>20.941</ele>
<time>2018-01-24T04:26:05.118Z</time>
</trkpt>
<trkpt lat="-28.1068796" lon="153.4055377">
<ele>19.122</ele>
<time>2018-01-24T04:26:06.976Z</time>
</trkpt>
<trkpt lat="-28.1066638" lon="153.4056118">
<ele>18.139</ele>
<time>2018-01-24T04:26:08.906Z</time>
</trkpt>
<trkpt lat="-28.1064219" lon="153.4056397">
<ele>17.785</ele>
<time>2018-01-24T04:26:10.954Z</time>
</trkpt>
<trkpt lat="-28.1061918" lon="153.4056287">
<ele>17.644</ele>
<time>2018-01-24T04:26:12.870Z</time>
</trkpt>
<trkpt lat="-28.1059611" lon="153.4055221">
<ele>17.499</ele>
<time>2018-01-24T04:26:14.906Z</time>
</trkpt>
<trkpt lat="-28.1057554" lon="153.4053840">
<ele>17.321</ele>
<time>2018-01-24T04:26:16.818Z</time>
</trkpt>
<trkpt lat="-28.1055416" lon="153.4052551">
<ele>17.139</ele>
<time>2018-01-24T04:26:18.706Z</time>
</trkpt>
<trkpt lat="-28.1053250" lon="153.4051101">
<ele>16.984</ele>
<time>2018-01-24T04:26:20.623Z</time>
</trkpt>
<trkpt lat="-28.1050812" lon="153.4049737">
<ele>16.868</ele>
<time>2018-01-24T04:26:22.642Z</time>
</trkpt>
<trkpt lat="-28.1048305" lon="153.4048307">
<ele>16.792</ele>
<time>2018-01-24T04:26:24.659Z</time>
</trkpt>
<trkpt lat="-28.1045662" lon="153.4046837">
<ele>16.746</ele>
<time>2018-01-24T04:26:26.716Z</time>
</trkpt>
<trkpt lat="-28.1042994" lon="153.4045836">
<ele>16.711</ele>
<time>2018-01-24T04:26:28.680Z</time>
</trkpt>
<trkpt lat="-28.1040397" lon="153.4044935">
<ele>16.642</ele>
<time>2018-01-24T04:26:30.630Z</time>
</trkpt>
<trkpt lat="-28.1037834" lon="153.4043764">
<ele>16.517</ele>
<time>2018-01-24T04:26:32.648Z</time>
</trkpt>
<trkpt lat="-28.1035403" lon="153.4042497">
<ele>16.363</ele>
<time>2018-01-24T04:26:34.587Z</time>
</trkpt>
<trkpt lat="-28.1032953" lon="153.4041028">
<ele>15.824</ele>
<time>2018-01-24T04:26:36.568Z</time>
</trkpt>
<trkpt lat="-28.1030643" lon="153.4039447">
<ele>14.694</ele>
<time>2018-01-24T04:26:38.477Z</time>
</trkpt>
<trkpt lat="-28.1028431" lon="153.4037469">
<ele>13.584</ele>
<time>2018-01-24T04:26:40.482Z</time>
</trkpt>
<trkpt lat="-28.1026182" lon="153.4035493">
<ele>13.075</ele>
<time>2018-01-24T04:26:42.591Z</time>
</trkpt>
<trkpt lat="-28.1024432" lon="153.4033350">
<ele>13.046</ele>
<time>2018-01-24T04:26:44.533Z</time>
</trkpt>
<trkpt lat="-28.1022635" lon="153.4031142">
<ele>13.198</ele>
<time>2018-01-24T04:26:46.451Z</time>
</trkpt>
<trkpt lat="-28.1020882" lon="153.4028566">
<ele>13.311</ele>
<time>2018-01-24T04:26:48.446Z</time>
</trkpt>
<trkpt lat="-28.1019094" lon="153.4025925">
<ele>13.316</ele>
<time>2018-01-24T04:26:50.465Z</time>
</trkpt>
<trkpt lat="-28.1017283" lon="153.4023355">
<ele>13.236</ele>
<time>2018-01-24T04:26:52.448Z</time>
</trkpt>
<trkpt lat="-28.1015432" lon="153.4020832">
<ele>12.728</ele>
<time>2018-01-24T04:26:54.436Z</time>
</trkpt>
<trkpt lat="-28.1013592" lon="153.4018283">
<ele>11.323</ele>
<time>2018-01-24T04:26:56.474Z</time>
</trkpt>
<trkpt lat="-28.1011878" lon="153.4015812">
<ele>9.340</ele>
<time>2018-01-24T04:26:58.502Z</time>
</trkpt>
<trkpt lat="-28.1010374" lon="153.4013328">
<ele>7.598</ele>
<time>2018-01-24T04:27:00.506Z</time>
</trkpt>
<trkpt lat="-28.1008907" lon="153.4010927">
<ele>6.529</ele>
<time>2018-01-24T04:27:02.423Z</time>
</trkpt>
<trkpt lat="-28.1007026" lon="153.4008727">
<ele>6.604</ele>
<time>2018-01-24T04:27:04.365Z</time>
</trkpt>
<trkpt lat="-28.1004786" lon="153.4006778">
<ele>8.081</ele>
<time>2018-01-24T04:27:06.332Z</time>
</trkpt>
<trkpt lat="-28.1002259" lon="153.4005150">
<ele>10.720</ele>
<time>2018-01-24T04:27:08.322Z</time>
</trkpt>
<trkpt lat="-28.0999780" lon="153.4003512">
<ele>13.761</ele>
<time>2018-01-24T04:27:10.257Z</time>
</trkpt>
<trkpt lat="-28.0997425" lon="153.4001479">
<ele>16.081</ele>
<time>2018-01-24T04:27:12.203Z</time>
</trkpt>
<trkpt lat="-28.0995185" lon="153.3999101">
<ele>17.083</ele>
<time>2018-01-24T04:27:14.196Z</time>
</trkpt>
<trkpt lat="-28.0992927" lon="153.3996756">
<ele>17.215</ele>
<time>2018-01-24T04:27:16.191Z</time>
</trkpt>
<trkpt lat="-28.0990668" lon="153.3994562">
<ele>17.063</ele>
<time>2018-01-24T04:27:18.145Z</time>
</trkpt>
<trkpt lat="-28.0988473" lon="153.3992168">
<ele>16.946</ele>
<time>2018-01-24T04:27:20.158Z</time>
</trkpt>
<trkpt lat="-28.0986395" lon="153.3989688">
<ele>16.580</ele>
<time>2018-01-24T04:27:22.162Z</time>
</trkpt>
<trkpt lat="-28.0984287" lon="153.3987277">
<ele>15.537</ele>
<time>2018-01-24T04:27:24.232Z</time>
</trkpt>
<trkpt lat="-28.0982491" lon="153.3985165">
<ele>14.193</ele>
<time>2018-01-24T04:27:26.095Z</time>
</trkpt>
<trkpt lat="-28.0980335" lon="153.3983177">
<ele>13.309</ele>
<time>2018-01-24T04:27:28.111Z</time>
</trkpt>
<trkpt lat="-28.0978490" lon="153.3981229">
<ele>13.066</ele>
<time>2018-01-24T04:27:29.944Z</time>
</trkpt>
<trkpt lat="-28.0976365" lon="153.3979124">
<ele>13.213</ele>
<time>2018-01-24T04:27:32.011Z</time>
</trkpt>
<trkpt lat="-28.0974391" lon="153.3977169">
<ele>13.459</ele>
<time>2018-01-24T04:27:33.974Z</time>
</trkpt>
<trkpt lat="-28.0972847" lon="153.3975163">
<ele>13.553</ele>
<time>2018-01-24T04:27:35.821Z</time>
</trkpt>
<trkpt lat="-28.0971405" lon="153.3973335">
<ele>13.290</ele>
<time>2018-01-24T04:27:37.656Z</time>
</trkpt>
<trkpt lat="-28.0970036" lon="153.3971433">
<ele>12.668</ele>
<time>2018-01-24T04:27:39.630Z</time>
</trkpt>
<trkpt lat="-28.0968894" lon="153.3969597">
<ele>11.884</ele>
<time>2018-01-24T04:27:41.522Z</time>
</trkpt>
<trkpt lat="-28.0967769" lon="153.3967761">
<ele>11.069</ele>
<time>2018-01-24T04:27:43.451Z</time>
</trkpt>
<trkpt lat="-28.0966736" lon="153.3965954">
<ele>10.208</ele>
<time>2018-01-24T04:27:45.338Z</time>
</trkpt>
<trkpt lat="-28.0965595" lon="153.3964236">
<ele>9.391</ele>
<time>2018-01-24T04:27:47.241Z</time>
</trkpt>
<trkpt lat="-28.0964441" lon="153.3962316">
<ele>8.834</ele>
<time>2018-01-24T04:27:49.304Z</time>
</trkpt>
<trkpt lat="-28.0963155" lon="153.3960646">
<ele>8.590</ele>
<time>2018-01-24T04:27:51.270Z</time>
</trkpt>
<trkpt lat="-28.0961972" lon="153.3958779">
<ele>8.463</ele>
<time>2018-01-24T04:27:53.289Z</time>
</trkpt>
<trkpt lat="-28.0960737" lon="153.3956986">
<ele>8.325</ele>
<time>2018-01-24T04:27:55.256Z</time>
</trkpt>
<trkpt lat="-28.0959517" lon="153.3955085">
<ele>8.209</ele>
<time>2018-01-24T04:27:57.271Z</time>
</trkpt>
<trkpt lat="-28.0958321" lon="153.3953222">
<ele>8.116</ele>
<time>2018-01-24T04:27:59.241Z</time>
</trkpt>
<trkpt lat="-28.0956987" lon="153.3951320">
<ele>7.942</ele>
<time>2018-01-24T04:28:01.318Z</time>
</trkpt>
<trkpt lat="-28.0955861" lon="153.3949417">
<ele>7.626</ele>
<time>2018-01-24T04:28:03.275Z</time>
</trkpt>
<trkpt lat="-28.0954576" lon="153.3947481">
<ele>7.263</ele>
<time>2018-01-24T04:28:05.244Z</time>
</trkpt>
<trkpt lat="-28.0953443" lon="153.3945252">
<ele>6.921</ele>
<time>2018-01-24T04:28:07.142Z</time>
</trkpt>
<trkpt lat="-28.0952147" lon="153.3942605">
<ele>6.488</ele>
<time>2018-01-24T04:28:09.205Z</time>
</trkpt>
<trkpt lat="-28.0950835" lon="153.3940209">
<ele>5.868</ele>
<time>2018-01-24T04:28:11.127Z</time>
</trkpt>
<trkpt lat="-28.0949705" lon="153.3938134">
<ele>5.126</ele>
<time>2018-01-24T04:28:12.996Z</time>
</trkpt>
<trkpt lat="-28.0949029" lon="153.3936595">
<ele>4.354</ele>
<time>2018-01-24T04:28:14.586Z</time>
</trkpt>
<trkpt lat="-28.0948606" lon="153.3935414">
<ele>3.674</ele>
<time>2018-01-24T04:28:15.999Z</time>
</trkpt>
<trkpt lat="-28.0948606" lon="153.3935414">
<ele>3.233</ele>
<time>2018-01-24T04:28:21.999Z</time>
</trkpt>
<trkpt lat="-28.0948606" lon="153.3935414">
<ele>3.078</ele>
<time>2018-01-24T04:28:25.080Z</time>
</trkpt>
<trkpt lat="-28.0947345" lon="153.3933213">
<ele>3.165</ele>
<time>2018-01-24T04:28:30.332Z</time>
</trkpt>
<trkpt lat="-28.0945907" lon="153.3930745">
<ele>3.571</ele>
<time>2018-01-24T04:28:32.604Z</time>
</trkpt>
<trkpt lat="-28.0943978" lon="153.3927929">
<ele>4.277</ele>
<time>2018-01-24T04:28:34.799Z</time>
</trkpt>
<trkpt lat="-28.0942517" lon="153.3924949">
<ele>4.944</ele>
<time>2018-01-24T04:28:36.841Z</time>
</trkpt>
<trkpt lat="-28.0941867" lon="153.3921690">
<ele>5.278</ele>
<time>2018-01-24T04:28:38.910Z</time>
</trkpt>
<trkpt lat="-28.0941608" lon="153.3918397">
<ele>5.196</ele>
<time>2018-01-24T04:28:41.052Z</time>
</trkpt>
<trkpt lat="-28.0940750" lon="153.3915468">
<ele>4.777</ele>
<time>2018-01-24T04:28:43.120Z</time>
</trkpt>
<trkpt lat="-28.0939304" lon="153.3912851">
<ele>4.319</ele>
<time>2018-01-24T04:28:45.189Z</time>
</trkpt>
<trkpt lat="-28.0937505" lon="153.3910867">
<ele>4.150</ele>
<time>2018-01-24T04:28:47.080Z</time>
</trkpt>
<trkpt lat="-28.0935574" lon="153.3908715">
<ele>4.434</ele>
<time>2018-01-24T04:28:49.123Z</time>
</trkpt>
<trkpt lat="-28.0933400" lon="153.3907431">
<ele>5.163</ele>
<time>2018-01-24T04:28:50.950Z</time>
</trkpt>
<trkpt lat="-28.0930571" lon="153.3906750">
<ele>6.112</ele>
<time>2018-01-24T04:28:53.044Z</time>
</trkpt>
<trkpt lat="-28.0927737" lon="153.3906401">
<ele>6.932</ele>
<time>2018-01-24T04:28:55.075Z</time>
</trkpt>
<trkpt lat="-28.0924959" lon="153.3906233">
<ele>7.394</ele>
<time>2018-01-24T04:28:56.997Z</time>
</trkpt>
<trkpt lat="-28.0921648" lon="153.3905619">
<ele>7.499</ele>
<time>2018-01-24T04:28:59.210Z</time>
</trkpt>
<trkpt lat="-28.0918963" lon="153.3904045">
<ele>7.389</ele>
<time>2018-01-24T04:29:01.160Z</time>
</trkpt>
<trkpt lat="-28.0916652" lon="153.3901572">
<ele>7.455</ele>
<time>2018-01-24T04:29:03.181Z</time>
</trkpt>
<trkpt lat="-28.0914471" lon="153.3898567">
<ele>8.144</ele>
<time>2018-01-24T04:29:05.306Z</time>
</trkpt>
<trkpt lat="-28.0912094" lon="153.3896131">
<ele>9.349</ele>
<time>2018-01-24T04:29:07.252Z</time>
</trkpt>
<trkpt lat="-28.0909780" lon="153.3893329">
<ele>10.443</ele>
<time>2018-01-24T04:29:09.365Z</time>
</trkpt>
<trkpt lat="-28.0907762" lon="153.3890576">
<ele>10.922</ele>
<time>2018-01-24T04:29:11.522Z</time>
</trkpt>
<trkpt lat="-28.0905782" lon="153.3888288">
<ele>10.681</ele>
<time>2018-01-24T04:29:13.959Z</time>
</trkpt>
<trkpt lat="-28.0905073" lon="153.3886280">
<ele>9.868</ele>
<time>2018-01-24T04:29:15.921Z</time>
</trkpt>
<trkpt lat="-28.0904702" lon="153.3884721">
<ele>8.794</ele>
<time>2018-01-24T04:29:17.334Z</time>
</trkpt>
<trkpt lat="-28.0903248" lon="153.3883109">
<ele>7.800</ele>
<time>2018-01-24T04:29:19.089Z</time>
</trkpt>
<trkpt lat="-28.0902244" lon="153.3880372">
<ele>7.109</ele>
<time>2018-01-24T04:29:21.048Z</time>
</trkpt>
<trkpt lat="-28.0901212" lon="153.3877341">
<ele>6.842</ele>
<time>2018-01-24T04:29:22.944Z</time>
</trkpt>
<trkpt lat="-28.0899558" lon="153.3873788">
<ele>7.298</ele>
<time>2018-01-24T04:29:25.016Z</time>
</trkpt>
<trkpt lat="-28.0897282" lon="153.3870433">
<ele>8.712</ele>
<time>2018-01-24T04:29:27.009Z</time>
</trkpt>
<trkpt lat="-28.0895318" lon="153.3866937">
<ele>10.659</ele>
<time>2018-01-24T04:29:28.900Z</time>
</trkpt>
<trkpt lat="-28.0893216" lon="153.3863111">
<ele>12.324</ele>
<time>2018-01-24T04:29:30.974Z</time>
</trkpt>
<trkpt lat="-28.0891703" lon="153.3859243">
<ele>13.452</ele>
<time>2018-01-24T04:29:32.962Z</time>
</trkpt>
<trkpt lat="-28.0890404" lon="153.3855048">
<ele>14.348</ele>
<time>2018-01-24T04:29:35.104Z</time>
</trkpt>
<trkpt lat="-28.0889543" lon="153.3851176">
<ele>15.132</ele>
<time>2018-01-24T04:29:37.069Z</time>
</trkpt>
<trkpt lat="-28.0888753" lon="153.3847349">
<ele>15.616</ele>
<time>2018-01-24T04:29:39.020Z</time>
</trkpt>
<trkpt lat="-28.0888435" lon="153.3843347">
<ele>15.535</ele>
<time>2018-01-24T04:29:41.036Z</time>
</trkpt>
<trkpt lat="-28.0888156" lon="153.3839148">
<ele>14.848</ele>
<time>2018-01-24T04:29:43.186Z</time>
</trkpt>
<trkpt lat="-28.0887536" lon="153.3835355">
<ele>13.988</ele>
<time>2018-01-24T04:29:45.144Z</time>
</trkpt>
<trkpt lat="-28.0886861" lon="153.3831207">
<ele>13.568</ele>
<time>2018-01-24T04:29:47.233Z</time>
</trkpt>
<trkpt lat="-28.0886228" lon="153.3827142">
<ele>13.796</ele>
<time>2018-01-24T04:29:49.245Z</time>
</trkpt>
<trkpt lat="-28.0885827" lon="153.3823010">
<ele>14.381</ele>
<time>2018-01-24T04:29:51.264Z</time>
</trkpt>
<trkpt lat="-28.0885638" lon="153.3818855">
<ele>14.739</ele>
<time>2018-01-24T04:29:53.308Z</time>
</trkpt>
<trkpt lat="-28.0885693" lon="153.3814642">
<ele>14.564</ele>
<time>2018-01-24T04:29:55.390Z</time>
</trkpt>
<trkpt lat="-28.0885934" lon="153.3810564">
<ele>14.098</ele>
<time>2018-01-24T04:29:57.429Z</time>
</trkpt>
<trkpt lat="-28.0885477" lon="153.3806362">
<ele>14.174</ele>
<time>2018-01-24T04:29:59.788Z</time>
</trkpt>
<trkpt lat="-28.0885421" lon="153.3803017">
<ele>15.554</ele>
<time>2018-01-24T04:30:01.997Z</time>
</trkpt>
<trkpt lat="-28.0885957" lon="153.3799908">
<ele>17.955</ele>
<time>2018-01-24T04:30:04.771Z</time>
</trkpt>
<trkpt lat="-28.0886405" lon="153.3797140">
<ele>20.226</ele>
<time>2018-01-24T04:30:07.033Z</time>
</trkpt>
<trkpt lat="-28.0886110" lon="153.3793129">
<ele>21.633</ele>
<time>2018-01-24T04:30:09.909Z</time>
</trkpt>
<trkpt lat="-28.0886393" lon="153.3788601">
<ele>22.146</ele>
<time>2018-01-24T04:30:12.893Z</time>
</trkpt>
<trkpt lat="-28.0887075" lon="153.3784333">
<ele>21.920</ele>
<time>2018-01-24T04:30:15.838Z</time>
</trkpt>
<trkpt lat="-28.0887893" lon="153.3780637">
<ele>20.896</ele>
<time>2018-01-24T04:30:18.731Z</time>
</trkpt>
<trkpt lat="-28.0888872" lon="153.3777472">
<ele>19.022</ele>
<time>2018-01-24T04:30:21.603Z</time>
</trkpt>
<trkpt lat="-28.0890063" lon="153.3775060">
<ele>16.558</ele>
<time>2018-01-24T04:30:24.419Z</time>
</trkpt>
<trkpt lat="-28.0890952" lon="153.3773339">
<ele>13.746</ele>
<time>2018-01-24T04:30:27.071Z</time>
</trkpt>
<trkpt lat="-28.0891576" lon="153.3772221">
<ele>10.896</ele>
<time>2018-01-24T04:30:29.495Z</time>
</trkpt>
<trkpt lat="-28.0891507" lon="153.3771176">
<ele>8.773</ele>
<time>2018-01-24T04:30:32.395Z</time>
</trkpt>
<trkpt lat="-28.0892168" lon="153.3770367">
<ele>7.811</ele>
<time>2018-01-24T04:30:37.093Z</time>
</trkpt>
<trkpt lat="-28.0893070" lon="153.3767949">
<ele>7.606</ele>
<time>2018-01-24T04:30:43.751Z</time>
</trkpt>
<trkpt lat="-28.0894905" lon="153.3764391">
<ele>7.503</ele>
<time>2018-01-24T04:30:47.488Z</time>
</trkpt>
<trkpt lat="-28.0896860" lon="153.3761341">
<ele>7.062</ele>
<time>2018-01-24T04:30:50.533Z</time>
</trkpt>
<trkpt lat="-28.0898527" lon="153.3758127">
<ele>6.250</ele>
<time>2018-01-24T04:30:53.644Z</time>
</trkpt>
<trkpt lat="-28.0900148" lon="153.3755574">
<ele>5.360</ele>
<time>2018-01-24T04:30:56.414Z</time>
</trkpt>
<trkpt lat="-28.0901727" lon="153.3753050">
<ele>4.640</ele>
<time>2018-01-24T04:30:59.231Z</time>
</trkpt>
<trkpt lat="-28.0903186" lon="153.3750164">
<ele>4.051</ele>
<time>2018-01-24T04:31:02.255Z</time>
</trkpt>
<trkpt lat="-28.0904724" lon="153.3747410">
<ele>3.510</ele>
<time>2018-01-24T04:31:05.085Z</time>
</trkpt>
<trkpt lat="-28.0906707" lon="153.3743931">
<ele>2.987</ele>
<time>2018-01-24T04:31:08.415Z</time>
</trkpt>
<trkpt lat="-28.0908676" lon="153.3740426">
<ele>2.470</ele>
<time>2018-01-24T04:31:11.626Z</time>
</trkpt>
<trkpt lat="-28.0910737" lon="153.3737445">
<ele>2.318</ele>
<time>2018-01-24T04:31:14.537Z</time>
</trkpt>
<trkpt lat="-28.0912497" lon="153.3734282">
<ele>2.901</ele>
<time>2018-01-24T04:31:17.387Z</time>
</trkpt>
<trkpt lat="-28.0914247" lon="153.3731040">
<ele>3.858</ele>
<time>2018-01-24T04:31:20.228Z</time>
</trkpt>
<trkpt lat="-28.0916225" lon="153.3727729">
<ele>4.449</ele>
<time>2018-01-24T04:31:23.181Z</time>
</trkpt>
<trkpt lat="-28.0917148" lon="153.3725268">
<ele>4.084</ele>
<time>2018-01-24T04:31:25.050Z</time>
</trkpt>
<trkpt lat="-28.0918662" lon="153.3720391">
<ele>2.766</ele>
<time>2018-01-24T04:31:28.343Z</time>
</trkpt>
<trkpt lat="-28.0918849" lon="153.3717014">
<ele>1.181</ele>
<time>2018-01-24T04:31:30.356Z</time>
</trkpt>
<trkpt lat="-28.0918576" lon="153.3713892">
<ele>0.012</ele>
<time>2018-01-24T04:31:32.250Z</time>
</trkpt>
<trkpt lat="-28.0917460" lon="153.3709036">
<ele>0.000</ele>
<time>2018-01-24T04:31:35.305Z</time>
</trkpt>
<trkpt lat="-28.0916235" lon="153.3704447">
<ele>0.000</ele>
<time>2018-01-24T04:31:38.192Z</time>
</trkpt>
<trkpt lat="-28.0915454" lon="153.3701068">
<ele>0.000</ele>
<time>2018-01-24T04:31:40.217Z</time>
</trkpt>
<trkpt lat="-28.0914759" lon="153.3697621">
<ele>0.000</ele>
<time>2018-01-24T04:31:42.211Z</time>
</trkpt>
<trkpt lat="-28.0914100" lon="153.3693876">
<ele>0.000</ele>
<time>2018-01-24T04:31:44.335Z</time>
</trkpt>
<trkpt lat="-28.0913433" lon="153.3690560">
<ele>0.000</ele>
<time>2018-01-24T04:31:46.208Z</time>
</trkpt>
<trkpt lat="-28.0912969" lon="153.3686772">
<ele>0.000</ele>
<time>2018-01-24T04:31:48.289Z</time>
</trkpt>
<trkpt lat="-28.0911396" lon="153.3681588">
<ele>0.000</ele>
<time>2018-01-24T04:31:51.271Z</time>
</trkpt>
<trkpt lat="-28.0910337" lon="153.3678299">
<ele>0.000</ele>
<time>2018-01-24T04:31:53.227Z</time>
</trkpt>
<trkpt lat="-28.0909195" lon="153.3675166">
<ele>0.128</ele>
<time>2018-01-24T04:31:55.212Z</time>
</trkpt>
<trkpt lat="-28.0908382" lon="153.3672171">
<ele>0.940</ele>
<time>2018-01-24T04:31:57.165Z</time>
</trkpt>
<trkpt lat="-28.0907866" lon="153.3669373">
<ele>1.652</ele>
<time>2018-01-24T04:31:59.129Z</time>
</trkpt>
<trkpt lat="-28.0907304" lon="153.3667191">
<ele>2.489</ele>
<time>2018-01-24T04:32:00.939Z</time>
</trkpt>
<trkpt lat="-28.0906693" lon="153.3665586">
<ele>3.703</ele>
<time>2018-01-24T04:32:02.628Z</time>
</trkpt>
<trkpt lat="-28.0906216" lon="153.3664540">
<ele>5.242</ele>
<time>2018-01-24T04:32:03.999Z</time>
</trkpt>
<trkpt lat="-28.0906216" lon="153.3664540">
<ele>6.684</ele>
<time>2018-01-24T04:32:10.999Z</time>
</trkpt>
<trkpt lat="-28.0906216" lon="153.3664540">
<ele>7.430</ele>
<time>2018-01-24T04:32:16.270Z</time>
</trkpt>
<trkpt lat="-28.0904234" lon="153.3662144">
<ele>7.359</ele>
<time>2018-01-24T04:32:22.682Z</time>
</trkpt>
<trkpt lat="-28.0902363" lon="153.3660087">
<ele>8.642</ele>
<time>2018-01-24T04:32:24.967Z</time>
</trkpt>
<trkpt lat="-28.0900289" lon="153.3658290">
<ele>12.795</ele>
<time>2018-01-24T04:32:26.855Z</time>
</trkpt>
<trkpt lat="-28.0897715" lon="153.3656655">
<ele>17.369</ele>
<time>2018-01-24T04:32:28.827Z</time>
</trkpt>
<trkpt lat="-28.0894975" lon="153.3655110">
<ele>19.701</ele>
<time>2018-01-24T04:32:30.770Z</time>
</trkpt>
<trkpt lat="-28.0892309" lon="153.3653236">
<ele>19.985</ele>
<time>2018-01-24T04:32:32.697Z</time>
</trkpt>
<trkpt lat="-28.0889464" lon="153.3651258">
<ele>18.913</ele>
<time>2018-01-24T04:32:34.690Z</time>
</trkpt>
<trkpt lat="-28.0886422" lon="153.3649270">
<ele>16.919</ele>
<time>2018-01-24T04:32:36.719Z</time>
</trkpt>
<trkpt lat="-28.0883538" lon="153.3647016">
<ele>14.519</ele>
<time>2018-01-24T04:32:38.691Z</time>
</trkpt>
<trkpt lat="-28.0880360" lon="153.3644943">
<ele>12.221</ele>
<time>2018-01-24T04:32:40.739Z</time>
</trkpt>
<trkpt lat="-28.0877338" lon="153.3642966">
<ele>10.040</ele>
<time>2018-01-24T04:32:42.717Z</time>
</trkpt>
<trkpt lat="-28.0874340" lon="153.3640980">
<ele>7.800</ele>
<time>2018-01-24T04:32:44.737Z</time>
</trkpt>
<trkpt lat="-28.0871643" lon="153.3639203">
<ele>5.710</ele>
<time>2018-01-24T04:32:46.593Z</time>
</trkpt>
<trkpt lat="-28.0868956" lon="153.3637135">
<ele>4.144</ele>
<time>2018-01-24T04:32:48.545Z</time>
</trkpt>
<trkpt lat="-28.0866221" lon="153.3635183">
<ele>3.123</ele>
<time>2018-01-24T04:32:50.524Z</time>
</trkpt>
<trkpt lat="-28.0863630" lon="153.3633201">
<ele>2.271</ele>
<time>2018-01-24T04:32:52.513Z</time>
</trkpt>
<trkpt lat="-28.0861223" lon="153.3631530">
<ele>1.309</ele>
<time>2018-01-24T04:32:54.354Z</time>
</trkpt>
<trkpt lat="-28.0858677" lon="153.3629807">
<ele>0.399</ele>
<time>2018-01-24T04:32:56.270Z</time>
</trkpt>
<trkpt lat="-28.0855871" lon="153.3627951">
<ele>0.000</ele>
<time>2018-01-24T04:32:58.323Z</time>
</trkpt>
<trkpt lat="-28.0853205" lon="153.3626046">
<ele>0.000</ele>
<time>2018-01-24T04:33:00.294Z</time>
</trkpt>
<trkpt lat="-28.0850514" lon="153.3624119">
<ele>0.000</ele>
<time>2018-01-24T04:33:02.281Z</time>
</trkpt>
<trkpt lat="-28.0847748" lon="153.3622070">
<ele>0.000</ele>
<time>2018-01-24T04:33:04.350Z</time>
</trkpt>
<trkpt lat="-28.0845079" lon="153.3620101">
<ele>0.000</ele>
<time>2018-01-24T04:33:06.367Z</time>
</trkpt>
<trkpt lat="-28.0842685" lon="153.3618074">
<ele>0.061</ele>
<time>2018-01-24T04:33:08.284Z</time>
</trkpt>
<trkpt lat="-28.0840564" lon="153.3615570">
<ele>0.146</ele>
<time>2018-01-24T04:33:10.270Z</time>
</trkpt>
<trkpt lat="-28.0838543" lon="153.3613020">
<ele>0.073</ele>
<time>2018-01-24T04:33:12.253Z</time>
</trkpt>
<trkpt lat="-28.0836604" lon="153.3610561">
<ele>0.000</ele>
<time>2018-01-24T04:33:14.192Z</time>
</trkpt>
<trkpt lat="-28.0834622" lon="153.3608204">
<ele>0.009</ele>
<time>2018-01-24T04:33:16.147Z</time>
</trkpt>
<trkpt lat="-28.0832658" lon="153.3606259">
<ele>0.000</ele>
<time>2018-01-24T04:33:17.989Z</time>
</trkpt>
<trkpt lat="-28.0830718" lon="153.3604286">
<ele>0.000</ele>
<time>2018-01-24T04:33:19.951Z</time>
</trkpt>
<trkpt lat="-28.0829202" lon="153.3602626">
<ele>0.000</ele>
<time>2018-01-24T04:33:21.696Z</time>
</trkpt>
<trkpt lat="-28.0827858" lon="153.3601278">
<ele>0.000</ele>
<time>2018-01-24T04:33:23.360Z</time>
</trkpt>
<trkpt lat="-28.0826732" lon="153.3600252">
<ele>0.000</ele>
<time>2018-01-24T04:33:24.885Z</time>
</trkpt>
<trkpt lat="-28.0825913" lon="153.3599631">
<ele>0.000</ele>
<time>2018-01-24T04:33:26.214Z</time>
</trkpt>
<trkpt lat="-28.0824979" lon="153.3599461">
<ele>0.000</ele>
<time>2018-01-24T04:33:28.150Z</time>
</trkpt>
<trkpt lat="-28.0823895" lon="153.3599361">
<ele>0.000</ele>
<time>2018-01-24T04:33:31.442Z</time>
</trkpt>
<trkpt lat="-28.0822631" lon="153.3600195">
<ele>0.000</ele>
<time>2018-01-24T04:33:36.342Z</time>
</trkpt>
<trkpt lat="-28.0821678" lon="153.3602054">
<ele>0.000</ele>
<time>2018-01-24T04:33:39.532Z</time>
</trkpt>
<trkpt lat="-28.0820856" lon="153.3604633">
<ele>0.000</ele>
<time>2018-01-24T04:33:42.018Z</time>
</trkpt>
<trkpt lat="-28.0819770" lon="153.3607340">
<ele>0.000</ele>
<time>2018-01-24T04:33:44.191Z</time>
</trkpt>
<trkpt lat="-28.0818850" lon="153.3609867">
<ele>0.000</ele>
<time>2018-01-24T04:33:46.103Z</time>
</trkpt>
<trkpt lat="-28.0817938" lon="153.3612481">
<ele>0.000</ele>
<time>2018-01-24T04:33:48.088Z</time>
</trkpt>
<trkpt lat="-28.0816977" lon="153.3615201">
<ele>0.000</ele>
<time>2018-01-24T04:33:50.132Z</time>
</trkpt>
<trkpt lat="-28.0815851" lon="153.3618056">
<ele>0.000</ele>
<time>2018-01-24T04:33:52.217Z</time>
</trkpt>
<trkpt lat="-28.0814508" lon="153.3620768">
<ele>0.482</ele>
<time>2018-01-24T04:33:54.238Z</time>
</trkpt>
<trkpt lat="-28.0812953" lon="153.3623097">
<ele>1.103</ele>
<time>2018-01-24T04:33:56.160Z</time>
</trkpt>
<trkpt lat="-28.0811421" lon="153.3625262">
<ele>1.585</ele>
<time>2018-01-24T04:33:58.042Z</time>
</trkpt>
<trkpt lat="-28.0809989" lon="153.3627251">
<ele>2.008</ele>
<time>2018-01-24T04:33:59.856Z</time>
</trkpt>
<trkpt lat="-28.0808737" lon="153.3629194">
<ele>2.534</ele>
<time>2018-01-24T04:34:01.656Z</time>
</trkpt>
<trkpt lat="-28.0807737" lon="153.3631189">
<ele>3.082</ele>
<time>2018-01-24T04:34:03.479Z</time>
</trkpt>
<trkpt lat="-28.0806716" lon="153.3632891">
<ele>3.554</ele>
<time>2018-01-24T04:34:05.191Z</time>
</trkpt>
<trkpt lat="-28.0805706" lon="153.3634839">
<ele>3.935</ele>
<time>2018-01-24T04:34:07.132Z</time>
</trkpt>
<trkpt lat="-28.0805309" lon="153.3636885">
<ele>4.141</ele>
<time>2018-01-24T04:34:08.988Z</time>
</trkpt>
<trkpt lat="-28.0805351" lon="153.3638591">
<ele>4.122</ele>
<time>2018-01-24T04:34:10.594Z</time>
</trkpt>
<trkpt lat="-28.0804896" lon="153.3639698">
<ele>3.963</ele>
<time>2018-01-24T04:34:11.842Z</time>
</trkpt>
<trkpt lat="-28.0803914" lon="153.3640679">
<ele>3.876</ele>
<time>2018-01-24T04:34:13.731Z</time>
</trkpt>
<trkpt lat="-28.0802828" lon="153.3642032">
<ele>4.003</ele>
<time>2018-01-24T04:34:16.162Z</time>
</trkpt>
<trkpt lat="-28.0801530" lon="153.3643399">
<ele>4.235</ele>
<time>2018-01-24T04:34:18.453Z</time>
</trkpt>
<trkpt lat="-28.0799849" lon="153.3644072">
<ele>4.311</ele>
<time>2018-01-24T04:34:20.548Z</time>
</trkpt>
<trkpt lat="-28.0798469" lon="153.3645127">
<ele>4.016</ele>
<time>2018-01-24T04:34:22.464Z</time>
</trkpt>
<trkpt lat="-28.0797289" lon="153.3646467">
<ele>3.437</ele>
<time>2018-01-24T04:34:24.451Z</time>
</trkpt>
<trkpt lat="-28.0796095" lon="153.3647716">
<ele>2.932</ele>
<time>2018-01-24T04:34:26.409Z</time>
</trkpt>
<trkpt lat="-28.0794744" lon="153.3648724">
<ele>2.773</ele>
<time>2018-01-24T04:34:28.365Z</time>
</trkpt>
<trkpt lat="-28.0793193" lon="153.3649082">
<ele>2.930</ele>
<time>2018-01-24T04:34:30.347Z</time>
</trkpt>
<trkpt lat="-28.0791865" lon="153.3649329">
<ele>3.172</ele>
<time>2018-01-24T04:34:32.082Z</time>
</trkpt>
<trkpt lat="-28.0790883" lon="153.3649380">
<ele>3.208</ele>
<time>2018-01-24T04:34:33.414Z</time>
</trkpt>
<trkpt lat="-28.0789857" lon="153.3648980">
<ele>2.970</ele>
<time>2018-01-24T04:34:35.070Z</time>
</trkpt>
<trkpt lat="-28.0788884" lon="153.3649297">
<ele>3.226</ele>
<time>2018-01-24T04:34:37.275Z</time>
</trkpt>
<trkpt lat="-28.0787367" lon="153.3648823">
<ele>4.616</ele>
<time>2018-01-24T04:34:42.360Z</time>
</trkpt>
<trkpt lat="-28.0785836" lon="153.3648847">
<ele>6.342</ele>
<time>2018-01-24T04:34:47.314Z</time>
</trkpt>
<trkpt lat="-28.0784456" lon="153.3649111">
<ele>7.289</ele>
<time>2018-01-24T04:34:49.436Z</time>
</trkpt>
<trkpt lat="-28.0782919" lon="153.3649724">
<ele>7.340</ele>
<time>2018-01-24T04:34:51.613Z</time>
</trkpt>
<trkpt lat="-28.0781502" lon="153.3650597">
<ele>6.892</ele>
<time>2018-01-24T04:34:53.666Z</time>
</trkpt>
<trkpt lat="-28.0779830" lon="153.3651611">
<ele>6.289</ele>
<time>2018-01-24T04:34:55.857Z</time>
</trkpt>
<trkpt lat="-28.0778006" lon="153.3651881">
<ele>5.569</ele>
<time>2018-01-24T04:34:57.847Z</time>
</trkpt>
<trkpt lat="-28.0776230" lon="153.3652140">
<ele>4.808</ele>
<time>2018-01-24T04:34:59.796Z</time>
</trkpt>
<trkpt lat="-28.0774091" lon="153.3652448">
<ele>4.203</ele>
<time>2018-01-24T04:35:02.119Z</time>
</trkpt>
<trkpt lat="-28.0771707" lon="153.3652586">
<ele>3.825</ele>
<time>2018-01-24T04:35:04.490Z</time>
</trkpt>
<trkpt lat="-28.0769675" lon="153.3652844">
<ele>3.637</ele>
<time>2018-01-24T04:35:06.463Z</time>
</trkpt>
<trkpt lat="-28.0768165" lon="153.3652593">
<ele>3.605</ele>
<time>2018-01-24T04:35:08.024Z</time>
</trkpt>
<trkpt lat="-28.0765941" lon="153.3651421">
<ele>3.732</ele>
<time>2018-01-24T04:35:10.486Z</time>
</trkpt>
<trkpt lat="-28.0763195" lon="153.3650214">
<ele>4.161</ele>
<time>2018-01-24T04:35:12.892Z</time>
</trkpt>
<trkpt lat="-28.0760490" lon="153.3649117">
<ele>4.944</ele>
<time>2018-01-24T04:35:14.956Z</time>
</trkpt>
<trkpt lat="-28.0757985" lon="153.3647966">
<ele>5.896</ele>
<time>2018-01-24T04:35:16.907Z</time>
</trkpt>
<trkpt lat="-28.0755585" lon="153.3646599">
<ele>6.758</ele>
<time>2018-01-24T04:35:18.878Z</time>
</trkpt>
<trkpt lat="-28.0753334" lon="153.3645043">
<ele>7.381</ele>
<time>2018-01-24T04:35:20.836Z</time>
</trkpt>
<trkpt lat="-28.0751295" lon="153.3643115">
<ele>7.750</ele>
<time>2018-01-24T04:35:22.829Z</time>
</trkpt>
<trkpt lat="-28.0749530" lon="153.3641042">
<ele>7.945</ele>
<time>2018-01-24T04:35:24.759Z</time>
</trkpt>
<trkpt lat="-28.0747870" lon="153.3638980">
<ele>8.043</ele>
<time>2018-01-24T04:35:26.684Z</time>
</trkpt>
<trkpt lat="-28.0746199" lon="153.3637001">
<ele>8.099</ele>
<time>2018-01-24T04:35:28.642Z</time>
</trkpt>
<trkpt lat="-28.0744519" lon="153.3635100">
<ele>8.197</ele>
<time>2018-01-24T04:35:30.602Z</time>
</trkpt>
<trkpt lat="-28.0742781" lon="153.3633105">
<ele>8.436</ele>
<time>2018-01-24T04:35:32.631Z</time>
</trkpt>
<trkpt lat="-28.0741157" lon="153.3631132">
<ele>8.837</ele>
<time>2018-01-24T04:35:34.595Z</time>
</trkpt>
<trkpt lat="-28.0739697" lon="153.3629404">
<ele>9.345</ele>
<time>2018-01-24T04:35:36.418Z</time>
</trkpt>
<trkpt lat="-28.0738338" lon="153.3627831">
<ele>9.880</ele>
<time>2018-01-24T04:35:38.217Z</time>
</trkpt>
<trkpt lat="-28.0737122" lon="153.3626576">
<ele>10.395</ele>
<time>2018-01-24T04:35:39.870Z</time>
</trkpt>
<trkpt lat="-28.0736234" lon="153.3625801">
<ele>10.858</ele>
<time>2018-01-24T04:35:41.068Z</time>
</trkpt>
<trkpt lat="-28.0735457" lon="153.3625116">
<ele>11.262</ele>
<time>2018-01-24T04:35:42.349Z</time>
</trkpt>
<trkpt lat="-28.0734589" lon="153.3624407">
<ele>11.621</ele>
<time>2018-01-24T04:35:43.977Z</time>
</trkpt>
<trkpt lat="-28.0733938" lon="153.3623645">
<ele>11.938</ele>
<time>2018-01-24T04:35:45.750Z</time>
</trkpt>
<trkpt lat="-28.0733266" lon="153.3622486">
<ele>12.212</ele>
<time>2018-01-24T04:35:48.681Z</time>
</trkpt>
<trkpt lat="-28.0731921" lon="153.3621051">
<ele>12.420</ele>
<time>2018-01-24T04:35:54.574Z</time>
</trkpt>
<trkpt lat="-28.0729702" lon="153.3619379">
<ele>12.470</ele>
<time>2018-01-24T04:35:58.402Z</time>
</trkpt>
<trkpt lat="-28.0727845" lon="153.3617263">
<ele>12.300</ele>
<time>2018-01-24T04:36:00.661Z</time>
</trkpt>
<trkpt lat="-28.0725920" lon="153.3615124">
<ele>11.961</ele>
<time>2018-01-24T04:36:02.745Z</time>
</trkpt>
<trkpt lat="-28.0723952" lon="153.3613055">
<ele>11.562</ele>
<time>2018-01-24T04:36:04.763Z</time>
</trkpt>
<trkpt lat="-28.0722280" lon="153.3610893">
<ele>11.214</ele>
<time>2018-01-24T04:36:06.704Z</time>
</trkpt>
<trkpt lat="-28.0721057" lon="153.3608566">
<ele>10.992</ele>
<time>2018-01-24T04:36:08.616Z</time>
</trkpt>
<trkpt lat="-28.0720104" lon="153.3606033">
<ele>10.893</ele>
<time>2018-01-24T04:36:10.577Z</time>
</trkpt>
<trkpt lat="-28.0719568" lon="153.3602995">
<ele>10.872</ele>
<time>2018-01-24T04:36:12.688Z</time>
</trkpt>
<trkpt lat="-28.0719375" lon="153.3599572">
<ele>10.884</ele>
<time>2018-01-24T04:36:14.832Z</time>
</trkpt>
<trkpt lat="-28.0719753" lon="153.3595598">
<ele>10.868</ele>
<time>2018-01-24T04:36:17.077Z</time>
</trkpt>
<trkpt lat="-28.0719755" lon="153.3590846">
<ele>10.685</ele>
<time>2018-01-24T04:36:19.535Z</time>
</trkpt>
<trkpt lat="-28.0720433" lon="153.3586771">
<ele>10.221</ele>
<time>2018-01-24T04:36:21.651Z</time>
</trkpt>
<trkpt lat="-28.0720969" lon="153.3583058">
<ele>9.636</ele>
<time>2018-01-24T04:36:23.650Z</time>
</trkpt>
<trkpt lat="-28.0721545" lon="153.3579684">
<ele>9.230</ele>
<time>2018-01-24T04:36:25.595Z</time>
</trkpt>
<trkpt lat="-28.0721813" lon="153.3576372">
<ele>9.103</ele>
<time>2018-01-24T04:36:27.576Z</time>
</trkpt>
<trkpt lat="-28.0721761" lon="153.3573165">
<ele>9.153</ele>
<time>2018-01-24T04:36:29.561Z</time>
</trkpt>
<trkpt lat="-28.0721093" lon="153.3569954">
<ele>9.224</ele>
<time>2018-01-24T04:36:31.686Z</time>
</trkpt>
<trkpt lat="-28.0720078" lon="153.3567196">
<ele>9.162</ele>
<time>2018-01-24T04:36:33.663Z</time>
</trkpt>
<trkpt lat="-28.0718094" lon="153.3564826">
<ele>8.876</ele>
<time>2018-01-24T04:36:35.794Z</time>
</trkpt>
<trkpt lat="-28.0716514" lon="153.3561551">
<ele>8.320</ele>
<time>2018-01-24T04:36:38.109Z</time>
</trkpt>
<trkpt lat="-28.0715111" lon="153.3558189">
<ele>7.328</ele>
<time>2018-01-24T04:36:40.279Z</time>
</trkpt>
<trkpt lat="-28.0713661" lon="153.3554869">
<ele>5.759</ele>
<time>2018-01-24T04:36:42.350Z</time>
</trkpt>
<trkpt lat="-28.0712133" lon="153.3551706">
<ele>3.853</ele>
<time>2018-01-24T04:36:44.345Z</time>
</trkpt>
<trkpt lat="-28.0710746" lon="153.3548593">
<ele>2.158</ele>
<time>2018-01-24T04:36:46.341Z</time>
</trkpt>
<trkpt lat="-28.0709539" lon="153.3545824">
<ele>1.027</ele>
<time>2018-01-24T04:36:48.272Z</time>
</trkpt>
<trkpt lat="-28.0708332" lon="153.3543654">
<ele>0.441</ele>
<time>2018-01-24T04:36:50.096Z</time>
</trkpt>
<trkpt lat="-28.0706772" lon="153.3542048">
<ele>0.330</ele>
<time>2018-01-24T04:36:52.099Z</time>
</trkpt>
<trkpt lat="-28.0705756" lon="153.3541358">
<ele>0.585</ele>
<time>2018-01-24T04:36:53.474Z</time>
</trkpt>
<trkpt lat="-28.0704739" lon="153.3541539">
<ele>1.059</ele>
<time>2018-01-24T04:36:54.999Z</time>
</trkpt>
<trkpt lat="-28.0704739" lon="153.3541539">
<ele>1.632</ele>
<time>2018-01-24T04:36:59.999Z</time>
</trkpt>
<trkpt lat="-28.0704739" lon="153.3541539">
<ele>2.008</ele>
<time>2018-01-24T04:37:24.374Z</time>
</trkpt>
<trkpt lat="-28.0702842" lon="153.3541770">
<ele>1.988</ele>
<time>2018-01-24T04:37:29.244Z</time>
</trkpt>
<trkpt lat="-28.0699388" lon="153.3540502">
<ele>1.986</ele>
<time>2018-01-24T04:37:33.160Z</time>
</trkpt>
<trkpt lat="-28.0695986" lon="153.3539985">
<ele>2.351</ele>
<time>2018-01-24T04:37:36.082Z</time>
</trkpt>
<trkpt lat="-28.0691898" lon="153.3540584">
<ele>2.704</ele>
<time>2018-01-24T04:37:39.343Z</time>
</trkpt>
<trkpt lat="-28.0687986" lon="153.3541768">
<ele>2.651</ele>
<time>2018-01-24T04:37:42.418Z</time>
</trkpt>
<trkpt lat="-28.0683846" lon="153.3543044">
<ele>2.566</ele>
<time>2018-01-24T04:37:45.610Z</time>
</trkpt>
<trkpt lat="-28.0680003" lon="153.3543997">
<ele>2.846</ele>
<time>2018-01-24T04:37:48.522Z</time>
</trkpt>
<trkpt lat="-28.0675907" lon="153.3544813">
<ele>3.273</ele>
<time>2018-01-24T04:37:51.500Z</time>
</trkpt>
<trkpt lat="-28.0671607" lon="153.3545615">
<ele>3.440</ele>
<time>2018-01-24T04:37:54.529Z</time>
</trkpt>
<trkpt lat="-28.0667530" lon="153.3546698">
<ele>3.283</ele>
<time>2018-01-24T04:37:57.486Z</time>
</trkpt>
<trkpt lat="-28.0663635" lon="153.3547688">
<ele>3.112</ele>
<time>2018-01-24T04:38:00.454Z</time>
</trkpt>
<trkpt lat="-28.0659700" lon="153.3548193">
<ele>3.226</ele>
<time>2018-01-24T04:38:03.517Z</time>
</trkpt>
<trkpt lat="-28.0655961" lon="153.3548022">
<ele>3.586</ele>
<time>2018-01-24T04:38:06.533Z</time>
</trkpt>
<trkpt lat="-28.0652506" lon="153.3547641">
<ele>3.979</ele>
<time>2018-01-24T04:38:09.490Z</time>
</trkpt>
<trkpt lat="-28.0649297" lon="153.3546984">
<ele>4.134</ele>
<time>2018-01-24T04:38:12.254Z</time>
</trkpt>
<trkpt lat="-28.0645255" lon="153.3545818">
<ele>3.961</ele>
<time>2018-01-24T04:38:15.704Z</time>
</trkpt>
<trkpt lat="-28.0641701" lon="153.3544764">
<ele>3.702</ele>
<time>2018-01-24T04:38:18.673Z</time>
</trkpt>
<trkpt lat="-28.0637901" lon="153.3543502">
<ele>3.581</ele>
<time>2018-01-24T04:38:21.715Z</time>
</trkpt>
<trkpt lat="-28.0633837" lon="153.3542693">
<ele>3.580</ele>
<time>2018-01-24T04:38:24.914Z</time>
</trkpt>
<trkpt lat="-28.0630425" lon="153.3542865">
<ele>3.586</ele>
<time>2018-01-24T04:38:28.085Z</time>
</trkpt>
<trkpt lat="-28.0628525" lon="153.3543347">
<ele>3.509</ele>
<time>2018-01-24T04:38:30.194Z</time>
</trkpt>
<trkpt lat="-28.0626402" lon="153.3544172">
<ele>3.341</ele>
<time>2018-01-24T04:38:32.670Z</time>
</trkpt>
<trkpt lat="-28.0624538" lon="153.3544798">
<ele>3.145</ele>
<time>2018-01-24T04:38:34.491Z</time>
</trkpt>
<trkpt lat="-28.0622185" lon="153.3545609">
<ele>2.993</ele>
<time>2018-01-24T04:38:36.456Z</time>
</trkpt>
<trkpt lat="-28.0619576" lon="153.3547031">
<ele>2.906</ele>
<time>2018-01-24T04:38:38.488Z</time>
</trkpt>
<trkpt lat="-28.0616896" lon="153.3548610">
<ele>2.869</ele>
<time>2018-01-24T04:38:40.431Z</time>
</trkpt>
<trkpt lat="-28.0614274" lon="153.3550519">
<ele>2.830</ele>
<time>2018-01-24T04:38:42.291Z</time>
</trkpt>
<trkpt lat="-28.0611457" lon="153.3552876">
<ele>2.672</ele>
<time>2018-01-24T04:38:44.349Z</time>
</trkpt>
<trkpt lat="-28.0608418" lon="153.3555023">
<ele>2.293</ele>
<time>2018-01-24T04:38:46.562Z</time>
</trkpt>
<trkpt lat="-28.0605568" lon="153.3556404">
<ele>1.698</ele>
<time>2018-01-24T04:38:48.498Z</time>
</trkpt>
<trkpt lat="-28.0602464" lon="153.3557080">
<ele>1.043</ele>
<time>2018-01-24T04:38:50.442Z</time>
</trkpt>
<trkpt lat="-28.0598993" lon="153.3557374">
<ele>0.559</ele>
<time>2018-01-24T04:38:52.585Z</time>
</trkpt>
<trkpt lat="-28.0595754" lon="153.3557699">
<ele>0.362</ele>
<time>2018-01-24T04:38:54.598Z</time>
</trkpt>
<trkpt lat="-28.0592510" lon="153.3557953">
<ele>0.520</ele>
<time>2018-01-24T04:38:56.577Z</time>
</trkpt>
<trkpt lat="-28.0589302" lon="153.3557379">
<ele>1.061</ele>
<time>2018-01-24T04:38:58.482Z</time>
</trkpt>
<trkpt lat="-28.0585724" lon="153.3556663">
<ele>1.879</ele>
<time>2018-01-24T04:39:00.561Z</time>
</trkpt>
<trkpt lat="-28.0582225" lon="153.3555470">
<ele>2.991</ele>
<time>2018-01-24T04:39:02.679Z</time>
</trkpt>
<trkpt lat="-28.0578915" lon="153.3554802">
<ele>4.600</ele>
<time>2018-01-24T04:39:04.680Z</time>
</trkpt>
<trkpt lat="-28.0575806" lon="153.3554378">
<ele>6.700</ele>
<time>2018-01-24T04:39:06.553Z</time>
</trkpt>
<trkpt lat="-28.0572303" lon="153.3554317">
<ele>8.932</ele>
<time>2018-01-24T04:39:08.605Z</time>
</trkpt>
<trkpt lat="-28.0568817" lon="153.3554534">
<ele>10.906</ele>
<time>2018-01-24T04:39:10.609Z</time>
</trkpt>
<trkpt lat="-28.0565359" lon="153.3554641">
<ele>12.566</ele>
<time>2018-01-24T04:39:12.603Z</time>
</trkpt>
<trkpt lat="-28.0562397" lon="153.3554729">
<ele>14.073</ele>
<time>2018-01-24T04:39:14.327Z</time>
</trkpt>
<trkpt lat="-28.0559008" lon="153.3554742">
<ele>15.516</ele>
<time>2018-01-24T04:39:16.276Z</time>
</trkpt>
<trkpt lat="-28.0555268" lon="153.3554589">
<ele>16.816</ele>
<time>2018-01-24T04:39:18.389Z</time>
</trkpt>
<trkpt lat="-28.0551723" lon="153.3554500">
<ele>17.808</ele>
<time>2018-01-24T04:39:20.408Z</time>
</trkpt>
<trkpt lat="-28.0548369" lon="153.3554086">
<ele>18.441</ele>
<time>2018-01-24T04:39:22.355Z</time>
</trkpt>
<trkpt lat="-28.0544973" lon="153.3553427">
<ele>18.783</ele>
<time>2018-01-24T04:39:24.334Z</time>
</trkpt>
<trkpt lat="-28.0541320" lon="153.3552684">
<ele>18.762</ele>
<time>2018-01-24T04:39:26.450Z</time>
</trkpt>
<trkpt lat="-28.0537978" lon="153.3551592">
<ele>18.252</ele>
<time>2018-01-24T04:39:28.449Z</time>
</trkpt>
<trkpt lat="-28.0534817" lon="153.3550420">
<ele>17.448</ele>
<time>2018-01-24T04:39:30.394Z</time>
</trkpt>
<trkpt lat="-28.0531907" lon="153.3548879">
<ele>16.781</ele>
<time>2018-01-24T04:39:32.311Z</time>
</trkpt>
<trkpt lat="-28.0528904" lon="153.3547740">
<ele>16.308</ele>
<time>2018-01-24T04:39:34.229Z</time>
</trkpt>
<trkpt lat="-28.0525850" lon="153.3546426">
<ele>15.855</ele>
<time>2018-01-24T04:39:36.202Z</time>
</trkpt>
<trkpt lat="-28.0522548" lon="153.3545405">
<ele>15.421</ele>
<time>2018-01-24T04:39:38.220Z</time>
</trkpt>
<trkpt lat="-28.0519303" lon="153.3543933">
<ele>14.986</ele>
<time>2018-01-24T04:39:40.245Z</time>
</trkpt>
<trkpt lat="-28.0516211" lon="153.3542515">
<ele>14.510</ele>
<time>2018-01-24T04:39:42.220Z</time>
</trkpt>
<trkpt lat="-28.0513392" lon="153.3541272">
<ele>14.143</ele>
<time>2018-01-24T04:39:44.287Z</time>
</trkpt>
<trkpt lat="-28.0510922" lon="153.3540650">
<ele>14.001</ele>
<time>2018-01-24T04:39:46.601Z</time>
</trkpt>
<trkpt lat="-28.0509592" lon="153.3540283">
<ele>14.029</ele>
<time>2018-01-24T04:39:48.179Z</time>
</trkpt>
<trkpt lat="-28.0508512" lon="153.3539754">
<ele>14.099</ele>
<time>2018-01-24T04:39:49.645Z</time>
</trkpt>
<trkpt lat="-28.0506305" lon="153.3539296">
<ele>14.059</ele>
<time>2018-01-24T04:39:51.919Z</time>
</trkpt>
<trkpt lat="-28.0503703" lon="153.3538292">
<ele>13.873</ele>
<time>2018-01-24T04:39:54.110Z</time>
</trkpt>
<trkpt lat="-28.0501164" lon="153.3537317">
<ele>13.676</ele>
<time>2018-01-24T04:39:56.143Z</time>
</trkpt>
<trkpt lat="-28.0498940" lon="153.3537005">
<ele>13.518</ele>
<time>2018-01-24T04:39:57.873Z</time>
</trkpt>
<trkpt lat="-28.0496195" lon="153.3536235">
<ele>13.218</ele>
<time>2018-01-24T04:39:59.923Z</time>
</trkpt>
<trkpt lat="-28.0492961" lon="153.3535556">
<ele>12.636</ele>
<time>2018-01-24T04:40:02.030Z</time>
</trkpt>
<trkpt lat="-28.0489373" lon="153.3535779">
<ele>11.806</ele>
<time>2018-01-24T04:40:04.146Z</time>
</trkpt>
<trkpt lat="-28.0485888" lon="153.3536192">
<ele>10.962</ele>
<time>2018-01-24T04:40:06.142Z</time>
</trkpt>
<trkpt lat="-28.0482503" lon="153.3536809">
<ele>10.216</ele>
<time>2018-01-24T04:40:08.095Z</time>
</trkpt>
<trkpt lat="-28.0479168" lon="153.3537725">
<ele>9.348</ele>
<time>2018-01-24T04:40:10.083Z</time>
</trkpt>
<trkpt lat="-28.0475741" lon="153.3538292">
<ele>8.230</ele>
<time>2018-01-24T04:40:12.110Z</time>
</trkpt>
<trkpt lat="-28.0472432" lon="153.3538977">
<ele>7.098</ele>
<time>2018-01-24T04:40:14.101Z</time>
</trkpt>
<trkpt lat="-28.0469039" lon="153.3539611">
<ele>6.267</ele>
<time>2018-01-24T04:40:16.145Z</time>
</trkpt>
<trkpt lat="-28.0465764" lon="153.3540124">
<ele>5.879</ele>
<time>2018-01-24T04:40:18.101Z</time>
</trkpt>
<trkpt lat="-28.0462604" lon="153.3540387">
<ele>5.775</ele>
<time>2018-01-24T04:40:19.940Z</time>
</trkpt>
<trkpt lat="-28.0458985" lon="153.3539520">
<ele>5.693</ele>
<time>2018-01-24T04:40:22.029Z</time>
</trkpt>
<trkpt lat="-28.0455573" lon="153.3538411">
<ele>5.545</ele>
<time>2018-01-24T04:40:24.008Z</time>
</trkpt>
<trkpt lat="-28.0452129" lon="153.3537371">
<ele>5.490</ele>
<time>2018-01-24T04:40:25.984Z</time>
</trkpt>
<trkpt lat="-28.0448601" lon="153.3536358">
<ele>5.943</ele>
<time>2018-01-24T04:40:27.975Z</time>
</trkpt>
<trkpt lat="-28.0445002" lon="153.3535064">
<ele>7.185</ele>
<time>2018-01-24T04:40:30.029Z</time>
</trkpt>
<trkpt lat="-28.0441672" lon="153.3533873">
<ele>8.997</ele>
<time>2018-01-24T04:40:31.958Z</time>
</trkpt>
<trkpt lat="-28.0438247" lon="153.3532866">
<ele>10.761</ele>
<time>2018-01-24T04:40:33.956Z</time>
</trkpt>
<trkpt lat="-28.0434773" lon="153.3531665">
<ele>11.895</ele>
<time>2018-01-24T04:40:35.998Z</time>
</trkpt>
<trkpt lat="-28.0431276" lon="153.3530628">
<ele>12.088</ele>
<time>2018-01-24T04:40:37.948Z</time>
</trkpt>
<trkpt lat="-28.0427466" lon="153.3529932">
<ele>11.345</ele>
<time>2018-01-24T04:40:39.964Z</time>
</trkpt>
<trkpt lat="-28.0423670" lon="153.3529045">
<ele>10.144</ele>
<time>2018-01-24T04:40:41.990Z</time>
</trkpt>
<trkpt lat="-28.0419965" lon="153.3528108">
<ele>9.386</ele>
<time>2018-01-24T04:40:44.013Z</time>
</trkpt>
<trkpt lat="-28.0416312" lon="153.3527409">
<ele>9.729</ele>
<time>2018-01-24T04:40:46.043Z</time>
</trkpt>
<trkpt lat="-28.0412856" lon="153.3527151">
<ele>11.144</ele>
<time>2018-01-24T04:40:48.014Z</time>
</trkpt>
<trkpt lat="-28.0409630" lon="153.3526515">
<ele>13.061</ele>
<time>2018-01-24T04:40:49.928Z</time>
</trkpt>
<trkpt lat="-28.0406307" lon="153.3526126">
<ele>14.830</ele>
<time>2018-01-24T04:40:51.878Z</time>
</trkpt>
<trkpt lat="-28.0402809" lon="153.3525917">
<ele>16.030</ele>
<time>2018-01-24T04:40:53.895Z</time>
</trkpt>
<trkpt lat="-28.0399149" lon="153.3525452">
<ele>16.622</ele>
<time>2018-01-24T04:40:56.007Z</time>
</trkpt>
<trkpt lat="-28.0395713" lon="153.3524905">
<ele>16.994</ele>
<time>2018-01-24T04:40:58.024Z</time>
</trkpt>
<trkpt lat="-28.0392457" lon="153.3524303">
<ele>17.431</ele>
<time>2018-01-24T04:40:59.989Z</time>
</trkpt>
<trkpt lat="-28.0389444" lon="153.3523814">
<ele>17.785</ele>
<time>2018-01-24T04:41:01.829Z</time>
</trkpt>
<trkpt lat="-28.0386113" lon="153.3523370">
<ele>17.624</ele>
<time>2018-01-24T04:41:03.819Z</time>
</trkpt>
<trkpt lat="-28.0382575" lon="153.3522786">
<ele>16.508</ele>
<time>2018-01-24T04:41:05.886Z</time>
</trkpt>
<trkpt lat="-28.0379003" lon="153.3522308">
<ele>14.362</ele>
<time>2018-01-24T04:41:07.998Z</time>
</trkpt>
<trkpt lat="-28.0375973" lon="153.3521963">
<ele>11.807</ele>
<time>2018-01-24T04:41:09.855Z</time>
</trkpt>
<trkpt lat="-28.0372732" lon="153.3521686">
<ele>9.805</ele>
<time>2018-01-24T04:41:11.849Z</time>
</trkpt>
<trkpt lat="-28.0369748" lon="153.3521508">
<ele>8.866</ele>
<time>2018-01-24T04:41:13.691Z</time>
</trkpt>
<trkpt lat="-28.0366761" lon="153.3521099">
<ele>8.653</ele>
<time>2018-01-24T04:41:15.577Z</time>
</trkpt>
<trkpt lat="-28.0363661" lon="153.3520714">
<ele>8.438</ele>
<time>2018-01-24T04:41:17.603Z</time>
</trkpt>
<trkpt lat="-28.0360954" lon="153.3520303">
<ele>7.688</ele>
<time>2018-01-24T04:41:19.531Z</time>
</trkpt>
<trkpt lat="-28.0358527" lon="153.3519910">
<ele>6.446</ele>
<time>2018-01-24T04:41:21.415Z</time>
</trkpt>
<trkpt lat="-28.0356021" lon="153.3519484">
<ele>5.078</ele>
<time>2018-01-24T04:41:23.406Z</time>
</trkpt>
<trkpt lat="-28.0353392" lon="153.3519017">
<ele>3.932</ele>
<time>2018-01-24T04:41:25.429Z</time>
</trkpt>
<trkpt lat="-28.0350690" lon="153.3518615">
<ele>3.403</ele>
<time>2018-01-24T04:41:27.412Z</time>
</trkpt>
<trkpt lat="-28.0347975" lon="153.3517882">
<ele>3.622</ele>
<time>2018-01-24T04:41:29.382Z</time>
</trkpt>
<trkpt lat="-28.0345154" lon="153.3516684">
<ele>4.157</ele>
<time>2018-01-24T04:41:31.521Z</time>
</trkpt>
<trkpt lat="-28.0342667" lon="153.3515658">
<ele>4.708</ele>
<time>2018-01-24T04:41:33.514Z</time>
</trkpt>
<trkpt lat="-28.0340456" lon="153.3515002">
<ele>5.440</ele>
<time>2018-01-24T04:41:35.529Z</time>
</trkpt>
<trkpt lat="-28.0338860" lon="153.3514601">
<ele>6.320</ele>
<time>2018-01-24T04:41:37.400Z</time>
</trkpt>
<trkpt lat="-28.0338189" lon="153.3513857">
<ele>6.969</ele>
<time>2018-01-24T04:41:38.749Z</time>
</trkpt>
<trkpt lat="-28.0337276" lon="153.3513511">
<ele>7.220</ele>
<time>2018-01-24T04:41:40.399Z</time>
</trkpt>
<trkpt lat="-28.0336401" lon="153.3512960">
<ele>7.219</ele>
<time>2018-01-24T04:41:42.396Z</time>
</trkpt>
<trkpt lat="-28.0335376" lon="153.3512483">
<ele>7.136</ele>
<time>2018-01-24T04:41:44.633Z</time>
</trkpt>
<trkpt lat="-28.0334491" lon="153.3512116">
<ele>7.088</ele>
<time>2018-01-24T04:41:46.721Z</time>
</trkpt>
<trkpt lat="-28.0333569" lon="153.3511874">
<ele>7.137</ele>
<time>2018-01-24T04:41:49.305Z</time>
</trkpt>
<trkpt lat="-28.0332161" lon="153.3511435">
<ele>7.267</ele>
<time>2018-01-24T04:41:53.211Z</time>
</trkpt>
<trkpt lat="-28.0329806" lon="153.3509943">
<ele>7.311</ele>
<time>2018-01-24T04:41:56.700Z</time>
</trkpt>
<trkpt lat="-28.0326900" lon="153.3508180">
<ele>6.926</ele>
<time>2018-01-24T04:41:59.215Z</time>
</trkpt>
<trkpt lat="-28.0324082" lon="153.3506683">
<ele>5.730</ele>
<time>2018-01-24T04:42:01.335Z</time>
</trkpt>
<trkpt lat="-28.0321171" lon="153.3505492">
<ele>3.824</ele>
<time>2018-01-24T04:42:03.344Z</time>
</trkpt>
<trkpt lat="-28.0318119" lon="153.3504616">
<ele>2.005</ele>
<time>2018-01-24T04:42:05.306Z</time>
</trkpt>
<trkpt lat="-28.0314736" lon="153.3505265">
<ele>0.948</ele>
<time>2018-01-24T04:42:07.392Z</time>
</trkpt>
<trkpt lat="-28.0311470" lon="153.3505676">
<ele>0.592</ele>
<time>2018-01-24T04:42:09.391Z</time>
</trkpt>
<trkpt lat="-28.0308061" lon="153.3506445">
<ele>0.571</ele>
<time>2018-01-24T04:42:11.537Z</time>
</trkpt>
<trkpt lat="-28.0304931" lon="153.3506776">
<ele>0.755</ele>
<time>2018-01-24T04:42:13.531Z</time>
</trkpt>
<trkpt lat="-28.0301926" lon="153.3507263">
<ele>1.204</ele>
<time>2018-01-24T04:42:15.523Z</time>
</trkpt>
<trkpt lat="-28.0299043" lon="153.3507634">
<ele>1.823</ele>
<time>2018-01-24T04:42:17.501Z</time>
</trkpt>
<trkpt lat="-28.0296372" lon="153.3507969">
<ele>2.424</ele>
<time>2018-01-24T04:42:19.375Z</time>
</trkpt>
<trkpt lat="-28.0293576" lon="153.3508336">
<ele>2.968</ele>
<time>2018-01-24T04:42:21.339Z</time>
</trkpt>
<trkpt lat="-28.0290795" lon="153.3508679">
<ele>3.422</ele>
<time>2018-01-24T04:42:23.277Z</time>
</trkpt>
<trkpt lat="-28.0287893" lon="153.3508838">
<ele>3.723</ele>
<time>2018-01-24T04:42:25.269Z</time>
</trkpt>
<trkpt lat="-28.0284987" lon="153.3509057">
<ele>3.916</ele>
<time>2018-01-24T04:42:27.251Z</time>
</trkpt>
<trkpt lat="-28.0281981" lon="153.3509151">
<ele>4.040</ele>
<time>2018-01-24T04:42:29.293Z</time>
</trkpt>
<trkpt lat="-28.0279155" lon="153.3508937">
<ele>4.164</ele>
<time>2018-01-24T04:42:31.203Z</time>
</trkpt>
<trkpt lat="-28.0276131" lon="153.3508703">
<ele>4.433</ele>
<time>2018-01-24T04:42:33.180Z</time>
</trkpt>
<trkpt lat="-28.0273081" lon="153.3507953">
<ele>4.876</ele>
<time>2018-01-24T04:42:35.164Z</time>
</trkpt>
<trkpt lat="-28.0269896" lon="153.3507362">
<ele>5.334</ele>
<time>2018-01-24T04:42:37.297Z</time>
</trkpt>
<trkpt lat="-28.0267138" lon="153.3506929">
<ele>5.664</ele>
<time>2018-01-24T04:42:39.294Z</time>
</trkpt>
<trkpt lat="-28.0264630" lon="153.3506603">
<ele>5.892</ele>
<time>2018-01-24T04:42:41.259Z</time>
</trkpt>
<trkpt lat="-28.0262322" lon="153.3506281">
<ele>6.133</ele>
<time>2018-01-24T04:42:43.174Z</time>
</trkpt>
<trkpt lat="-28.0260136" lon="153.3506102">
<ele>6.523</ele>
<time>2018-01-24T04:42:44.972Z</time>
</trkpt>
<trkpt lat="-28.0257601" lon="153.3505963">
<ele>7.119</ele>
<time>2018-01-24T04:42:46.962Z</time>
</trkpt>
<trkpt lat="-28.0254808" lon="153.3505617">
<ele>7.824</ele>
<time>2018-01-24T04:42:49.124Z</time>
</trkpt>
<trkpt lat="-28.0252254" lon="153.3505181">
<ele>8.492</ele>
<time>2018-01-24T04:42:51.131Z</time>
</trkpt>
<trkpt lat="-28.0249992" lon="153.3504704">
<ele>9.073</ele>
<time>2018-01-24T04:42:52.967Z</time>
</trkpt>
<trkpt lat="-28.0247623" lon="153.3504210">
<ele>9.673</ele>
<time>2018-01-24T04:42:54.937Z</time>
</trkpt>
<trkpt lat="-28.0245306" lon="153.3503851">
<ele>10.467</ele>
<time>2018-01-24T04:42:56.842Z</time>
</trkpt>
<trkpt lat="-28.0242845" lon="153.3503262">
<ele>11.550</ele>
<time>2018-01-24T04:42:58.832Z</time>
</trkpt>
<trkpt lat="-28.0240098" lon="153.3502822">
<ele>12.892</ele>
<time>2018-01-24T04:43:00.959Z</time>
</trkpt>
<trkpt lat="-28.0237631" lon="153.3502373">
<ele>14.511</ele>
<time>2018-01-24T04:43:02.870Z</time>
</trkpt>
<trkpt lat="-28.0235205" lon="153.3501871">
<ele>16.499</ele>
<time>2018-01-24T04:43:04.778Z</time>
</trkpt>
<trkpt lat="-28.0232798" lon="153.3501259">
<ele>18.817</ele>
<time>2018-01-24T04:43:06.693Z</time>
</trkpt>
<trkpt lat="-28.0230174" lon="153.3500807">
<ele>21.354</ele>
<time>2018-01-24T04:43:08.739Z</time>
</trkpt>
<trkpt lat="-28.0227598" lon="153.3500386">
<ele>24.153</ele>
<time>2018-01-24T04:43:10.712Z</time>
</trkpt>
<trkpt lat="-28.0224932" lon="153.3499870">
<ele>27.166</ele>
<time>2018-01-24T04:43:12.733Z</time>
</trkpt>
<trkpt lat="-28.0222288" lon="153.3499196">
<ele>30.044</ele>
<time>2018-01-24T04:43:14.706Z</time>
</trkpt>
<trkpt lat="-28.0219669" lon="153.3498295">
<ele>32.416</ele>
<time>2018-01-24T04:43:16.634Z</time>
</trkpt>
<trkpt lat="-28.0216502" lon="153.3497831">
<ele>34.312</ele>
<time>2018-01-24T04:43:18.826Z</time>
</trkpt>
<trkpt lat="-28.0213593" lon="153.3497243">
<ele>35.938</ele>
<time>2018-01-24T04:43:20.852Z</time>
</trkpt>
<trkpt lat="-28.0210924" lon="153.3496772">
<ele>37.328</ele>
<time>2018-01-24T04:43:22.742Z</time>
</trkpt>
<trkpt lat="-28.0208208" lon="153.3496441">
<ele>38.334</ele>
<time>2018-01-24T04:43:24.669Z</time>
</trkpt>
<trkpt lat="-28.0205145" lon="153.3496557">
<ele>38.726</ele>
<time>2018-01-24T04:43:26.813Z</time>
</trkpt>
<trkpt lat="-28.0201998" lon="153.3496313">
<ele>38.311</ele>
<time>2018-01-24T04:43:28.897Z</time>
</trkpt>
<trkpt lat="-28.0199087" lon="153.3495281">
<ele>37.016</ele>
<time>2018-01-24T04:43:30.770Z</time>
</trkpt>
<trkpt lat="-28.0195817" lon="153.3493973">
<ele>34.941</ele>
<time>2018-01-24T04:43:32.850Z</time>
</trkpt>
<trkpt lat="-28.0192792" lon="153.3492256">
<ele>32.482</ele>
<time>2018-01-24T04:43:34.899Z</time>
</trkpt>
<trkpt lat="-28.0190219" lon="153.3490949">
<ele>30.042</ele>
<time>2018-01-24T04:43:36.719Z</time>
</trkpt>
<trkpt lat="-28.0188004" lon="153.3489683">
<ele>27.742</ele>
<time>2018-01-24T04:43:38.498Z</time>
</trkpt>
<trkpt lat="-28.0185886" lon="153.3488902">
<ele>25.649</ele>
<time>2018-01-24T04:43:40.228Z</time>
</trkpt>
<trkpt lat="-28.0183236" lon="153.3488613">
<ele>23.945</ele>
<time>2018-01-24T04:43:42.343Z</time>
</trkpt>
<trkpt lat="-28.0180816" lon="153.3487939">
<ele>22.828</ele>
<time>2018-01-24T04:43:44.278Z</time>
</trkpt>
<trkpt lat="-28.0178048" lon="153.3487369">
<ele>22.360</ele>
<time>2018-01-24T04:43:46.421Z</time>
</trkpt>
<trkpt lat="-28.0175531" lon="153.3486537">
<ele>22.344</ele>
<time>2018-01-24T04:43:48.380Z</time>
</trkpt>
<trkpt lat="-28.0172857" lon="153.3485309">
<ele>22.530</ele>
<time>2018-01-24T04:43:50.475Z</time>
</trkpt>
<trkpt lat="-28.0170445" lon="153.3483796">
<ele>22.917</ele>
<time>2018-01-24T04:43:52.467Z</time>
</trkpt>
<trkpt lat="-28.0168334" lon="153.3481918">
<ele>23.673</ele>
<time>2018-01-24T04:43:54.492Z</time>
</trkpt>
<trkpt lat="-28.0166828" lon="153.3480007">
<ele>24.844</ele>
<time>2018-01-24T04:43:56.424Z</time>
</trkpt>
<trkpt lat="-28.0165880" lon="153.3478338">
<ele>26.159</ele>
<time>2018-01-24T04:43:58.165Z</time>
</trkpt>
<trkpt lat="-28.0165179" lon="153.3476505">
<ele>27.169</ele>
<time>2018-01-24T04:44:00.326Z</time>
</trkpt>
<trkpt lat="-28.0164943" lon="153.3475493">
<ele>27.609</ele>
<time>2018-01-24T04:44:01.958Z</time>
</trkpt>
<trkpt lat="-28.0164351" lon="153.3474701">
<ele>27.553</ele>
<time>2018-01-24T04:44:03.999Z</time>
</trkpt>
<trkpt lat="-28.0164351" lon="153.3474701">
<ele>27.273</ele>
<time>2018-01-24T04:44:11.003Z</time>
</trkpt>
<trkpt lat="-28.0164351" lon="153.3474701">
<ele>27.071</ele>
<time>2018-01-24T04:44:14.794Z</time>
</trkpt>
<trkpt lat="-28.0162495" lon="153.3473066">
<ele>27.068</ele>
<time>2018-01-24T04:44:20.635Z</time>
</trkpt>
<trkpt lat="-28.0160136" lon="153.3471220">
<ele>26.229</ele>
<time>2018-01-24T04:44:24.277Z</time>
</trkpt>
<trkpt lat="-28.0157870" lon="153.3470531">
<ele>23.678</ele>
<time>2018-01-24T04:44:26.957Z</time>
</trkpt>
<trkpt lat="-28.0154750" lon="153.3471078">
<ele>20.558</ele>
<time>2018-01-24T04:44:30.074Z</time>
</trkpt>
<trkpt lat="-28.0151424" lon="153.3472629">
<ele>18.313</ele>
<time>2018-01-24T04:44:33.394Z</time>
</trkpt>
<trkpt lat="-28.0148828" lon="153.3473471">
<ele>17.049</ele>
<time>2018-01-24T04:44:36.562Z</time>
</trkpt>
<trkpt lat="-28.0147131" lon="153.3473344">
<ele>16.498</ele>
<time>2018-01-24T04:44:39.714Z</time>
</trkpt>
<trkpt lat="-28.0146226" lon="153.3472614">
<ele>16.185</ele>
<time>2018-01-24T04:44:41.865Z</time>
</trkpt>
<trkpt lat="-28.0143958" lon="153.3472968">
<ele>15.748</ele>
<time>2018-01-24T04:44:45.103Z</time>
</trkpt>
<trkpt lat="-28.0140408" lon="153.3472835">
<ele>15.310</ele>
<time>2018-01-24T04:44:48.154Z</time>
</trkpt>
<trkpt lat="-28.0135188" lon="153.3470302">
<ele>15.086</ele>
<time>2018-01-24T04:44:51.714Z</time>
</trkpt>
<trkpt lat="-28.0130246" lon="153.3467041">
<ele>15.402</ele>
<time>2018-01-24T04:44:54.941Z</time>
</trkpt>
<trkpt lat="-28.0125308" lon="153.3464318">
<ele>16.531</ele>
<time>2018-01-24T04:44:57.878Z</time>
</trkpt>
<trkpt lat="-28.0120308" lon="153.3461343">
<ele>18.035</ele>
<time>2018-01-24T04:45:00.781Z</time>
</trkpt>
<trkpt lat="-28.0114992" lon="153.3457899">
<ele>19.318</ele>
<time>2018-01-24T04:45:03.773Z</time>
</trkpt>
<trkpt lat="-28.0109718" lon="153.3453771">
<ele>20.226</ele>
<time>2018-01-24T04:45:06.742Z</time>
</trkpt>
<trkpt lat="-28.0104166" lon="153.3449623">
<ele>20.726</ele>
<time>2018-01-24T04:45:09.734Z</time>
</trkpt>
<trkpt lat="-28.0098609" lon="153.3445223">
<ele>20.875</ele>
<time>2018-01-24T04:45:12.684Z</time>
</trkpt>
<trkpt lat="-28.0092795" lon="153.3440556">
<ele>20.809</ele>
<time>2018-01-24T04:45:15.688Z</time>
</trkpt>
<trkpt lat="-28.0086711" lon="153.3435886">
<ele>20.597</ele>
<time>2018-01-24T04:45:18.807Z</time>
</trkpt>
<trkpt lat="-28.0080990" lon="153.3431532">
<ele>20.235</ele>
<time>2018-01-24T04:45:21.788Z</time>
</trkpt>
<trkpt lat="-28.0075452" lon="153.3427143">
<ele>19.617</ele>
<time>2018-01-24T04:45:24.682Z</time>
</trkpt>
<trkpt lat="-28.0069739" lon="153.3422313">
<ele>18.675</ele>
<time>2018-01-24T04:45:27.673Z</time>
</trkpt>
<trkpt lat="-28.0063890" lon="153.3417472">
<ele>17.358</ele>
<time>2018-01-24T04:45:30.701Z</time>
</trkpt>
<trkpt lat="-28.0060167" lon="153.3414347">
<ele>15.600</ele>
<time>2018-01-24T04:45:32.654Z</time>
</trkpt>
<trkpt lat="-28.0056274" lon="153.3411363">
<ele>13.664</ele>
<time>2018-01-24T04:45:34.643Z</time>
</trkpt>
<trkpt lat="-28.0052370" lon="153.3408387">
<ele>11.944</ele>
<time>2018-01-24T04:45:36.618Z</time>
</trkpt>
<trkpt lat="-28.0048260" lon="153.3405601">
<ele>10.417</ele>
<time>2018-01-24T04:45:38.607Z</time>
</trkpt>
<trkpt lat="-28.0043953" lon="153.3403249">
<ele>8.951</ele>
<time>2018-01-24T04:45:40.594Z</time>
</trkpt>
<trkpt lat="-28.0039412" lon="153.3400969">
<ele>7.640</ele>
<time>2018-01-24T04:45:42.675Z</time>
</trkpt>
<trkpt lat="-28.0035011" lon="153.3399288">
<ele>6.442</ele>
<time>2018-01-24T04:45:44.626Z</time>
</trkpt>
<trkpt lat="-28.0030275" lon="153.3397727">
<ele>5.171</ele>
<time>2018-01-24T04:45:46.696Z</time>
</trkpt>
<trkpt lat="-28.0025710" lon="153.3396362">
<ele>3.893</ele>
<time>2018-01-24T04:45:48.676Z</time>
</trkpt>
<trkpt lat="-28.0021079" lon="153.3395215">
<ele>2.871</ele>
<time>2018-01-24T04:45:50.663Z</time>
</trkpt>
<trkpt lat="-28.0016446" lon="153.3394581">
<ele>2.165</ele>
<time>2018-01-24T04:45:52.619Z</time>
</trkpt>
<trkpt lat="-28.0011615" lon="153.3394407">
<ele>1.610</ele>
<time>2018-01-24T04:45:54.652Z</time>
</trkpt>
<trkpt lat="-28.0006932" lon="153.3394069">
<ele>1.096</ele>
<time>2018-01-24T04:45:56.650Z</time>
</trkpt>
<trkpt lat="-28.0002292" lon="153.3394150">
<ele>0.592</ele>
<time>2018-01-24T04:45:58.658Z</time>
</trkpt>
<trkpt lat="-27.9997922" lon="153.3394576">
<ele>0.083</ele>
<time>2018-01-24T04:46:00.578Z</time>
</trkpt>
<trkpt lat="-27.9993349" lon="153.3395067">
<ele>0.000</ele>
<time>2018-01-24T04:46:02.589Z</time>
</trkpt>
<trkpt lat="-27.9989055" lon="153.3395821">
<ele>0.000</ele>
<time>2018-01-24T04:46:04.465Z</time>
</trkpt>
<trkpt lat="-27.9984192" lon="153.3396354">
<ele>0.000</ele>
<time>2018-01-24T04:46:06.522Z</time>
</trkpt>
<trkpt lat="-27.9979393" lon="153.3396851">
<ele>0.000</ele>
<time>2018-01-24T04:46:08.514Z</time>
</trkpt>
<trkpt lat="-27.9974610" lon="153.3397664">
<ele>0.000</ele>
<time>2018-01-24T04:46:10.521Z</time>
</trkpt>
<trkpt lat="-27.9969932" lon="153.3398306">
<ele>0.000</ele>
<time>2018-01-24T04:46:12.546Z</time>
</trkpt>
<trkpt lat="-27.9965467" lon="153.3398719">
<ele>0.000</ele>
<time>2018-01-24T04:46:14.561Z</time>
</trkpt>
<trkpt lat="-27.9961227" lon="153.3399253">
<ele>0.000</ele>
<time>2018-01-24T04:46:16.513Z</time>
</trkpt>
<trkpt lat="-27.9956807" lon="153.3399455">
<ele>0.000</ele>
<time>2018-01-24T04:46:18.495Z</time>
</trkpt>
<trkpt lat="-27.9952071" lon="153.3399552">
<ele>0.000</ele>
<time>2018-01-24T04:46:20.509Z</time>
</trkpt>
<trkpt lat="-27.9947134" lon="153.3399724">
<ele>0.000</ele>
<time>2018-01-24T04:46:22.519Z</time>
</trkpt>
<trkpt lat="-27.9941867" lon="153.3400329">
<ele>0.426</ele>
<time>2018-01-24T04:46:24.638Z</time>
</trkpt>
<trkpt lat="-27.9936883" lon="153.3400226">
<ele>0.830</ele>
<time>2018-01-24T04:46:26.629Z</time>
</trkpt>
<trkpt lat="-27.9931896" lon="153.3400303">
<ele>1.176</ele>
<time>2018-01-24T04:46:28.621Z</time>
</trkpt>
<trkpt lat="-27.9926984" lon="153.3401253">
<ele>1.621</ele>
<time>2018-01-24T04:46:30.607Z</time>
</trkpt>
<trkpt lat="-27.9922035" lon="153.3401793">
<ele>2.138</ele>
<time>2018-01-24T04:46:32.584Z</time>
</trkpt>
<trkpt lat="-27.9917017" lon="153.3402338">
<ele>2.656</ele>
<time>2018-01-24T04:46:34.590Z</time>
</trkpt>
<trkpt lat="-27.9912085" lon="153.3402996">
<ele>3.284</ele>
<time>2018-01-24T04:46:36.570Z</time>
</trkpt>
<trkpt lat="-27.9907180" lon="153.3403657">
<ele>3.982</ele>
<time>2018-01-24T04:46:38.551Z</time>
</trkpt>
<trkpt lat="-27.9902410" lon="153.3404314">
<ele>4.492</ele>
<time>2018-01-24T04:46:40.492Z</time>
</trkpt>
<trkpt lat="-27.9897477" lon="153.3405077">
<ele>4.694</ele>
<time>2018-01-24T04:46:42.512Z</time>
</trkpt>
<trkpt lat="-27.9892620" lon="153.3405795">
<ele>4.679</ele>
<time>2018-01-24T04:46:44.504Z</time>
</trkpt>
<trkpt lat="-27.9887925" lon="153.3406709">
<ele>4.599</ele>
<time>2018-01-24T04:46:46.445Z</time>
</trkpt>
<trkpt lat="-27.9883037" lon="153.3407327">
<ele>4.562</ele>
<time>2018-01-24T04:46:48.460Z</time>
</trkpt>
<trkpt lat="-27.9878292" lon="153.3408140">
<ele>4.647</ele>
<time>2018-01-24T04:46:50.441Z</time>
</trkpt>
<trkpt lat="-27.9873642" lon="153.3408977">
<ele>4.839</ele>
<time>2018-01-24T04:46:52.398Z</time>
</trkpt>
<trkpt lat="-27.9868918" lon="153.3409733">
<ele>4.969</ele>
<time>2018-01-24T04:46:54.402Z</time>
</trkpt>
<trkpt lat="-27.9864302" lon="153.3410540">
<ele>4.904</ele>
<time>2018-01-24T04:46:56.392Z</time>
</trkpt>
<trkpt lat="-27.9859609" lon="153.3411353">
<ele>4.724</ele>
<time>2018-01-24T04:46:58.433Z</time>
</trkpt>
<trkpt lat="-27.9854994" lon="153.3412059">
<ele>4.607</ele>
<time>2018-01-24T04:47:00.438Z</time>
</trkpt>
<trkpt lat="-27.9850468" lon="153.3412811">
<ele>4.739</ele>
<time>2018-01-24T04:47:02.400Z</time>
</trkpt>
<trkpt lat="-27.9845901" lon="153.3413594">
<ele>5.328</ele>
<time>2018-01-24T04:47:04.374Z</time>
</trkpt>
<trkpt lat="-27.9841121" lon="153.3414490">
<ele>6.328</ele>
<time>2018-01-24T04:47:06.441Z</time>
</trkpt>
<trkpt lat="-27.9836550" lon="153.3414996">
<ele>7.492</ele>
<time>2018-01-24T04:47:08.404Z</time>
</trkpt>
<trkpt lat="-27.9831999" lon="153.3415877">
<ele>8.712</ele>
<time>2018-01-24T04:47:10.377Z</time>
</trkpt>
<trkpt lat="-27.9827399" lon="153.3416362">
<ele>9.972</ele>
<time>2018-01-24T04:47:12.345Z</time>
</trkpt>
<trkpt lat="-27.9822747" lon="153.3417106">
<ele>11.111</ele>
<time>2018-01-24T04:47:14.338Z</time>
</trkpt>
<trkpt lat="-27.9818100" lon="153.3418016">
<ele>11.931</ele>
<time>2018-01-24T04:47:16.331Z</time>
</trkpt>
<trkpt lat="-27.9813460" lon="153.3418657">
<ele>12.427</ele>
<time>2018-01-24T04:47:18.306Z</time>
</trkpt>
<trkpt lat="-27.9808795" lon="153.3419318">
<ele>12.730</ele>
<time>2018-01-24T04:47:20.298Z</time>
</trkpt>
<trkpt lat="-27.9804151" lon="153.3420516">
<ele>12.814</ele>
<time>2018-01-24T04:47:22.318Z</time>
</trkpt>
<trkpt lat="-27.9799645" lon="153.3421825">
<ele>12.586</ele>
<time>2018-01-24T04:47:24.287Z</time>
</trkpt>
<trkpt lat="-27.9795157" lon="153.3423410">
<ele>11.969</ele>
<time>2018-01-24T04:47:26.274Z</time>
</trkpt>
<trkpt lat="-27.9790792" lon="153.3425311">
<ele>10.845</ele>
<time>2018-01-24T04:47:28.257Z</time>
</trkpt>
<trkpt lat="-27.9786631" lon="153.3427279">
<ele>9.207</ele>
<time>2018-01-24T04:47:30.169Z</time>
</trkpt>
<trkpt lat="-27.9782435" lon="153.3429942">
<ele>7.405</ele>
<time>2018-01-24T04:47:32.202Z</time>
</trkpt>
<trkpt lat="-27.9778653" lon="153.3432861">
<ele>6.009</ele>
<time>2018-01-24T04:47:34.136Z</time>
</trkpt>
<trkpt lat="-27.9774835" lon="153.3435818">
<ele>5.375</ele>
<time>2018-01-24T04:47:36.095Z</time>
</trkpt>
<trkpt lat="-27.9771245" lon="153.3439253">
<ele>5.434</ele>
<time>2018-01-24T04:47:38.087Z</time>
</trkpt>
<trkpt lat="-27.9767706" lon="153.3442758">
<ele>5.880</ele>
<time>2018-01-24T04:47:40.074Z</time>
</trkpt>
<trkpt lat="-27.9764229" lon="153.3446445">
<ele>6.529</ele>
<time>2018-01-24T04:47:42.079Z</time>
</trkpt>
<trkpt lat="-27.9760548" lon="153.3449820">
<ele>7.485</ele>
<time>2018-01-24T04:47:44.070Z</time>
</trkpt>
<trkpt lat="-27.9756554" lon="153.3453178">
<ele>8.949</ele>
<time>2018-01-24T04:47:46.164Z</time>
</trkpt>
<trkpt lat="-27.9752469" lon="153.3455734">
<ele>10.931</ele>
<time>2018-01-24T04:47:48.129Z</time>
</trkpt>
<trkpt lat="-27.9748179" lon="153.3458233">
<ele>13.345</ele>
<time>2018-01-24T04:47:50.163Z</time>
</trkpt>
<trkpt lat="-27.9743960" lon="153.3460397">
<ele>16.121</ele>
<time>2018-01-24T04:47:52.120Z</time>
</trkpt>
<trkpt lat="-27.9739657" lon="153.3462316">
<ele>19.076</ele>
<time>2018-01-24T04:47:54.083Z</time>
</trkpt>
<trkpt lat="-27.9735080" lon="153.3464404">
<ele>21.886</ele>
<time>2018-01-24T04:47:56.200Z</time>
</trkpt>
<trkpt lat="-27.9730638" lon="153.3466013">
<ele>24.438</ele>
<time>2018-01-24T04:47:58.218Z</time>
</trkpt>
<trkpt lat="-27.9726338" lon="153.3467105">
<ele>26.809</ele>
<time>2018-01-24T04:48:00.118Z</time>
</trkpt>
<trkpt lat="-27.9721794" lon="153.3468285">
<ele>29.023</ele>
<time>2018-01-24T04:48:02.116Z</time>
</trkpt>
<trkpt lat="-27.9717232" lon="153.3468672">
<ele>31.079</ele>
<time>2018-01-24T04:48:04.066Z</time>
</trkpt>
<trkpt lat="-27.9712505" lon="153.3468945">
<ele>32.928</ele>
<time>2018-01-24T04:48:06.072Z</time>
</trkpt>
<trkpt lat="-27.9707807" lon="153.3469035">
<ele>34.435</ele>
<time>2018-01-24T04:48:08.057Z</time>
</trkpt>
<trkpt lat="-27.9702955" lon="153.3469288">
<ele>35.529</ele>
<time>2018-01-24T04:48:10.105Z</time>
</trkpt>
<trkpt lat="-27.9698177" lon="153.3469378">
<ele>36.183</ele>
<time>2018-01-24T04:48:12.121Z</time>
</trkpt>
<trkpt lat="-27.9693395" lon="153.3469363">
<ele>36.517</ele>
<time>2018-01-24T04:48:14.135Z</time>
</trkpt>
<trkpt lat="-27.9688629" lon="153.3468755">
<ele>36.740</ele>
<time>2018-01-24T04:48:16.092Z</time>
</trkpt>
<trkpt lat="-27.9683479" lon="153.3467934">
<ele>36.827</ele>
<time>2018-01-24T04:48:18.112Z</time>
</trkpt>
<trkpt lat="-27.9678238" lon="153.3466821">
<ele>36.560</ele>
<time>2018-01-24T04:48:20.129Z</time>
</trkpt>
<trkpt lat="-27.9673184" lon="153.3465585">
<ele>35.848</ele>
<time>2018-01-24T04:48:22.081Z</time>
</trkpt>
<trkpt lat="-27.9668109" lon="153.3464062">
<ele>34.774</ele>
<time>2018-01-24T04:48:24.070Z</time>
</trkpt>
<trkpt lat="-27.9663099" lon="153.3462313">
<ele>33.411</ele>
<time>2018-01-24T04:48:26.043Z</time>
</trkpt>
<trkpt lat="-27.9657793" lon="153.3460659">
<ele>31.738</ele>
<time>2018-01-24T04:48:28.096Z</time>
</trkpt>
<trkpt lat="-27.9652617" lon="153.3459202">
<ele>29.726</ele>
<time>2018-01-24T04:48:30.085Z</time>
</trkpt>
<trkpt lat="-27.9647435" lon="153.3457607">
<ele>27.553</ele>
<time>2018-01-24T04:48:32.098Z</time>
</trkpt>
<trkpt lat="-27.9642468" lon="153.3456196">
<ele>25.621</ele>
<time>2018-01-24T04:48:34.024Z</time>
</trkpt>
<trkpt lat="-27.9637366" lon="153.3454990">
<ele>24.110</ele>
<time>2018-01-24T04:48:35.986Z</time>
</trkpt>
<trkpt lat="-27.9632012" lon="153.3453882">
<ele>22.839</ele>
<time>2018-01-24T04:48:38.035Z</time>
</trkpt>
<trkpt lat="-27.9626919" lon="153.3452867">
<ele>21.572</ele>
<time>2018-01-24T04:48:39.997Z</time>
</trkpt>
<trkpt lat="-27.9621889" lon="153.3451957">
<ele>20.190</ele>
<time>2018-01-24T04:48:41.947Z</time>
</trkpt>
<trkpt lat="-27.9616824" lon="153.3451247">
<ele>18.724</ele>
<time>2018-01-24T04:48:43.939Z</time>
</trkpt>
<trkpt lat="-27.9609492" lon="153.3450276">
<ele>17.244</ele>
<time>2018-01-24T04:48:46.863Z</time>
</trkpt>
<trkpt lat="-27.9604508" lon="153.3449685">
<ele>15.784</ele>
<time>2018-01-24T04:48:48.884Z</time>
</trkpt>
<trkpt lat="-27.9599625" lon="153.3449089">
<ele>14.480</ele>
<time>2018-01-24T04:48:50.873Z</time>
</trkpt>
<trkpt lat="-27.9594670" lon="153.3448550">
<ele>13.526</ele>
<time>2018-01-24T04:48:52.894Z</time>
</trkpt>
<trkpt lat="-27.9589850" lon="153.3447894">
<ele>12.847</ele>
<time>2018-01-24T04:48:54.874Z</time>
</trkpt>
<trkpt lat="-27.9585093" lon="153.3447327">
<ele>12.211</ele>
<time>2018-01-24T04:48:56.830Z</time>
</trkpt>
<trkpt lat="-27.9580388" lon="153.3446500">
<ele>11.621</ele>
<time>2018-01-24T04:48:58.776Z</time>
</trkpt>
<trkpt lat="-27.9575481" lon="153.3445652">
<ele>11.239</ele>
<time>2018-01-24T04:49:00.799Z</time>
</trkpt>
<trkpt lat="-27.9570570" lon="153.3444625">
<ele>10.971</ele>
<time>2018-01-24T04:49:02.826Z</time>
</trkpt>
<trkpt lat="-27.9565619" lon="153.3443667">
<ele>10.535</ele>
<time>2018-01-24T04:49:04.859Z</time>
</trkpt>
<trkpt lat="-27.9560927" lon="153.3442380">
<ele>9.943</ele>
<time>2018-01-24T04:49:06.818Z</time>
</trkpt>
<trkpt lat="-27.9556128" lon="153.3441102">
<ele>9.473</ele>
<time>2018-01-24T04:49:08.828Z</time>
</trkpt>
<trkpt lat="-27.9551285" lon="153.3439689">
<ele>9.174</ele>
<time>2018-01-24T04:49:10.868Z</time>
</trkpt>
<trkpt lat="-27.9546610" lon="153.3438060">
<ele>8.843</ele>
<time>2018-01-24T04:49:12.859Z</time>
</trkpt>
<trkpt lat="-27.9541783" lon="153.3436704">
<ele>8.433</ele>
<time>2018-01-24T04:49:14.884Z</time>
</trkpt>
<trkpt lat="-27.9536900" lon="153.3435337">
<ele>8.131</ele>
<time>2018-01-24T04:49:16.939Z</time>
</trkpt>
<trkpt lat="-27.9532265" lon="153.3433769">
<ele>8.121</ele>
<time>2018-01-24T04:49:18.918Z</time>
</trkpt>
<trkpt lat="-27.9527834" lon="153.3431623">
<ele>8.377</ele>
<time>2018-01-24T04:49:20.881Z</time>
</trkpt>
<trkpt lat="-27.9522957" lon="153.3429878">
<ele>8.737</ele>
<time>2018-01-24T04:49:22.958Z</time>
</trkpt>
<trkpt lat="-27.9518440" lon="153.3427854">
<ele>9.050</ele>
<time>2018-01-24T04:49:24.930Z</time>
</trkpt>
<trkpt lat="-27.9513805" lon="153.3425989">
<ele>9.142</ele>
<time>2018-01-24T04:49:26.911Z</time>
</trkpt>
<trkpt lat="-27.9509166" lon="153.3423504">
<ele>8.870</ele>
<time>2018-01-24T04:49:28.945Z</time>
</trkpt>
<trkpt lat="-27.9504832" lon="153.3420844">
<ele>8.364</ele>
<time>2018-01-24T04:49:30.881Z</time>
</trkpt>
<trkpt lat="-27.9500265" lon="153.3418553">
<ele>7.913</ele>
<time>2018-01-24T04:49:32.844Z</time>
</trkpt>
<trkpt lat="-27.9495692" lon="153.3415758">
<ele>7.704</ele>
<time>2018-01-24T04:49:34.894Z</time>
</trkpt>
<trkpt lat="-27.9491275" lon="153.3413181">
<ele>7.717</ele>
<time>2018-01-24T04:49:36.856Z</time>
</trkpt>
<trkpt lat="-27.9486587" lon="153.3410841">
<ele>7.806</ele>
<time>2018-01-24T04:49:38.869Z</time>
</trkpt>
<trkpt lat="-27.9481780" lon="153.3408561">
<ele>7.866</ele>
<time>2018-01-24T04:49:40.909Z</time>
</trkpt>
<trkpt lat="-27.9477134" lon="153.3405898">
<ele>7.882</ele>
<time>2018-01-24T04:49:42.941Z</time>
</trkpt>
<trkpt lat="-27.9472342" lon="153.3403344">
<ele>7.854</ele>
<time>2018-01-24T04:49:45.000Z</time>
</trkpt>
<trkpt lat="-27.9467632" lon="153.3400888">
<ele>7.772</ele>
<time>2018-01-24T04:49:47.019Z</time>
</trkpt>
<trkpt lat="-27.9463209" lon="153.3398339">
<ele>7.651</ele>
<time>2018-01-24T04:49:48.968Z</time>
</trkpt>
<trkpt lat="-27.9458850" lon="153.3395864">
<ele>7.413</ele>
<time>2018-01-24T04:49:50.894Z</time>
</trkpt>
<trkpt lat="-27.9454354" lon="153.3393506">
<ele>6.979</ele>
<time>2018-01-24T04:49:52.854Z</time>
</trkpt>
<trkpt lat="-27.9449794" lon="153.3391298">
<ele>6.514</ele>
<time>2018-01-24T04:49:54.811Z</time>
</trkpt>
<trkpt lat="-27.9444967" lon="153.3389578">
<ele>6.233</ele>
<time>2018-01-24T04:49:56.796Z</time>
</trkpt>
<trkpt lat="-27.9440321" lon="153.3387604">
<ele>6.146</ele>
<time>2018-01-24T04:49:58.730Z</time>
</trkpt>
<trkpt lat="-27.9435581" lon="153.3385504">
<ele>6.068</ele>
<time>2018-01-24T04:50:00.706Z</time>
</trkpt>
<trkpt lat="-27.9430688" lon="153.3383355">
<ele>5.730</ele>
<time>2018-01-24T04:50:02.758Z</time>
</trkpt>
<trkpt lat="-27.9425954" lon="153.3381240">
<ele>5.100</ele>
<time>2018-01-24T04:50:04.782Z</time>
</trkpt>
<trkpt lat="-27.9421395" lon="153.3379031">
<ele>4.463</ele>
<time>2018-01-24T04:50:06.786Z</time>
</trkpt>
<trkpt lat="-27.9416983" lon="153.3377016">
<ele>4.049</ele>
<time>2018-01-24T04:50:08.736Z</time>
</trkpt>
<trkpt lat="-27.9412568" lon="153.3375268">
<ele>3.859</ele>
<time>2018-01-24T04:50:10.676Z</time>
</trkpt>
<trkpt lat="-27.9408231" lon="153.3373405">
<ele>3.917</ele>
<time>2018-01-24T04:50:12.613Z</time>
</trkpt>
<trkpt lat="-27.9403669" lon="153.3371616">
<ele>4.304</ele>
<time>2018-01-24T04:50:14.631Z</time>
</trkpt>
<trkpt lat="-27.9399163" lon="153.3369943">
<ele>4.888</ele>
<time>2018-01-24T04:50:16.613Z</time>
</trkpt>
<trkpt lat="-27.9394614" lon="153.3368219">
<ele>5.409</ele>
<time>2018-01-24T04:50:18.609Z</time>
</trkpt>
<trkpt lat="-27.9389689" lon="153.3366548">
<ele>5.738</ele>
<time>2018-01-24T04:50:20.737Z</time>
</trkpt>
<trkpt lat="-27.9385198" lon="153.3364494">
<ele>5.916</ele>
<time>2018-01-24T04:50:22.735Z</time>
</trkpt>
<trkpt lat="-27.9380706" lon="153.3362824">
<ele>6.134</ele>
<time>2018-01-24T04:50:24.683Z</time>
</trkpt>
<trkpt lat="-27.9376090" lon="153.3361021">
<ele>6.658</ele>
<time>2018-01-24T04:50:26.695Z</time>
</trkpt>
<trkpt lat="-27.9371566" lon="153.3359329">
<ele>7.454</ele>
<time>2018-01-24T04:50:28.661Z</time>
</trkpt>
<trkpt lat="-27.9367055" lon="153.3357594">
<ele>8.181</ele>
<time>2018-01-24T04:50:30.629Z</time>
</trkpt>
<trkpt lat="-27.9362311" lon="153.3355886">
<ele>8.624</ele>
<time>2018-01-24T04:50:32.686Z</time>
</trkpt>
<trkpt lat="-27.9357733" lon="153.3354244">
<ele>8.846</ele>
<time>2018-01-24T04:50:34.670Z</time>
</trkpt>
<trkpt lat="-27.9353105" lon="153.3352677">
<ele>9.078</ele>
<time>2018-01-24T04:50:36.669Z</time>
</trkpt>
<trkpt lat="-27.9348618" lon="153.3350848">
<ele>9.581</ele>
<time>2018-01-24T04:50:38.645Z</time>
</trkpt>
<trkpt lat="-27.9343971" lon="153.3348999">
<ele>10.314</ele>
<time>2018-01-24T04:50:40.682Z</time>
</trkpt>
<trkpt lat="-27.9339445" lon="153.3347069">
<ele>11.003</ele>
<time>2018-01-24T04:50:42.678Z</time>
</trkpt>
<trkpt lat="-27.9335074" lon="153.3345000">
<ele>11.537</ele>
<time>2018-01-24T04:50:44.627Z</time>
</trkpt>
<trkpt lat="-27.9330586" lon="153.3343143">
<ele>11.971</ele>
<time>2018-01-24T04:50:46.590Z</time>
</trkpt>
<trkpt lat="-27.9326048" lon="153.3341086">
<ele>12.434</ele>
<time>2018-01-24T04:50:48.602Z</time>
</trkpt>
<trkpt lat="-27.9321554" lon="153.3338795">
<ele>13.102</ele>
<time>2018-01-24T04:50:50.627Z</time>
</trkpt>
<trkpt lat="-27.9317064" lon="153.3336355">
<ele>13.989</ele>
<time>2018-01-24T04:50:52.668Z</time>
</trkpt>
<trkpt lat="-27.9312658" lon="153.3334003">
<ele>14.967</ele>
<time>2018-01-24T04:50:54.661Z</time>
</trkpt>
<trkpt lat="-27.9308316" lon="153.3331342">
<ele>15.894</ele>
<time>2018-01-24T04:50:56.679Z</time>
</trkpt>
<trkpt lat="-27.9304031" lon="153.3328700">
<ele>16.557</ele>
<time>2018-01-24T04:50:58.676Z</time>
</trkpt>
<trkpt lat="-27.9299809" lon="153.3326115">
<ele>16.827</ele>
<time>2018-01-24T04:51:00.646Z</time>
</trkpt>
<trkpt lat="-27.9295621" lon="153.3323353">
<ele>16.808</ele>
<time>2018-01-24T04:51:02.633Z</time>
</trkpt>
<trkpt lat="-27.9291516" lon="153.3320232">
<ele>16.843</ele>
<time>2018-01-24T04:51:04.652Z</time>
</trkpt>
<trkpt lat="-27.9287574" lon="153.3317120">
<ele>17.169</ele>
<time>2018-01-24T04:51:06.617Z</time>
</trkpt>
<trkpt lat="-27.9283645" lon="153.3314293">
<ele>17.685</ele>
<time>2018-01-24T04:51:08.526Z</time>
</trkpt>
<trkpt lat="-27.9279628" lon="153.3311152">
<ele>18.260</ele>
<time>2018-01-24T04:51:10.526Z</time>
</trkpt>
<trkpt lat="-27.9275830" lon="153.3307473">
<ele>18.897</ele>
<time>2018-01-24T04:51:12.571Z</time>
</trkpt>
<trkpt lat="-27.9271832" lon="153.3304107">
<ele>19.629</ele>
<time>2018-01-24T04:51:14.606Z</time>
</trkpt>
<trkpt lat="-27.9267832" lon="153.3300593">
<ele>20.541</ele>
<time>2018-01-24T04:51:16.675Z</time>
</trkpt>
<trkpt lat="-27.9263958" lon="153.3297117">
<ele>21.595</ele>
<time>2018-01-24T04:51:18.692Z</time>
</trkpt>
<trkpt lat="-27.9258280" lon="153.3291670">
<ele>22.504</ele>
<time>2018-01-24T04:51:21.716Z</time>
</trkpt>
<trkpt lat="-27.9252757" lon="153.3286091">
<ele>22.993</ele>
<time>2018-01-24T04:51:24.711Z</time>
</trkpt>
<trkpt lat="-27.9247620" lon="153.3280230">
<ele>23.055</ele>
<time>2018-01-24T04:51:27.662Z</time>
</trkpt>
<trkpt lat="-27.9242279" lon="153.3274464">
<ele>22.923</ele>
<time>2018-01-24T04:51:30.656Z</time>
</trkpt>
<trkpt lat="-27.9237360" lon="153.3268237">
<ele>22.833</ele>
<time>2018-01-24T04:51:33.646Z</time>
</trkpt>
<trkpt lat="-27.9232330" lon="153.3262281">
<ele>22.927</ele>
<time>2018-01-24T04:51:36.588Z</time>
</trkpt>
<trkpt lat="-27.9227194" lon="153.3256259">
<ele>23.192</ele>
<time>2018-01-24T04:51:39.573Z</time>
</trkpt>
<trkpt lat="-27.9221726" lon="153.3250480">
<ele>23.460</ele>
<time>2018-01-24T04:51:42.592Z</time>
</trkpt>
<trkpt lat="-27.9216065" lon="153.3244997">
<ele>23.658</ele>
<time>2018-01-24T04:51:45.596Z</time>
</trkpt>
<trkpt lat="-27.9210323" lon="153.3239568">
<ele>23.794</ele>
<time>2018-01-24T04:51:48.613Z</time>
</trkpt>
<trkpt lat="-27.9204325" lon="153.3234478">
<ele>23.775</ele>
<time>2018-01-24T04:51:51.640Z</time>
</trkpt>
<trkpt lat="-27.9198521" lon="153.3229660">
<ele>23.392</ele>
<time>2018-01-24T04:51:54.541Z</time>
</trkpt>
<trkpt lat="-27.9192346" lon="153.3224851">
<ele>22.374</ele>
<time>2018-01-24T04:51:57.494Z</time>
</trkpt>
<trkpt lat="-27.9185572" lon="153.3219915">
<ele>20.715</ele>
<time>2018-01-24T04:52:00.544Z</time>
</trkpt>
<trkpt lat="-27.9178335" lon="153.3215252">
<ele>18.752</ele>
<time>2018-01-24T04:52:03.611Z</time>
</trkpt>
<trkpt lat="-27.9171289" lon="153.3210683">
<ele>16.827</ele>
<time>2018-01-24T04:52:06.581Z</time>
</trkpt>
<trkpt lat="-27.9163973" lon="153.3206303">
<ele>15.137</ele>
<time>2018-01-24T04:52:09.609Z</time>
</trkpt>
<trkpt lat="-27.9156694" lon="153.3202435">
<ele>13.507</ele>
<time>2018-01-24T04:52:12.548Z</time>
</trkpt>
<trkpt lat="-27.9149096" lon="153.3198757">
<ele>11.768</ele>
<time>2018-01-24T04:52:15.567Z</time>
</trkpt>
<trkpt lat="-27.9141450" lon="153.3195258">
<ele>10.074</ele>
<time>2018-01-24T04:52:18.585Z</time>
</trkpt>
<trkpt lat="-27.9133707" lon="153.3192149">
<ele>8.728</ele>
<time>2018-01-24T04:52:21.600Z</time>
</trkpt>
<trkpt lat="-27.9126141" lon="153.3188938">
<ele>7.893</ele>
<time>2018-01-24T04:52:24.567Z</time>
</trkpt>
<trkpt lat="-27.9118444" lon="153.3185891">
<ele>7.500</ele>
<time>2018-01-24T04:52:27.551Z</time>
</trkpt>
<trkpt lat="-27.9110440" lon="153.3182994">
<ele>7.228</ele>
<time>2018-01-24T04:52:30.596Z</time>
</trkpt>
<trkpt lat="-27.9102415" lon="153.3180577">
<ele>6.889</ele>
<time>2018-01-24T04:52:33.555Z</time>
</trkpt>
<trkpt lat="-27.9093913" lon="153.3178295">
<ele>6.558</ele>
<time>2018-01-24T04:52:36.617Z</time>
</trkpt>
<trkpt lat="-27.9088366" lon="153.3176772">
<ele>6.399</ele>
<time>2018-01-24T04:52:38.602Z</time>
</trkpt>
<trkpt lat="-27.9082980" lon="153.3174768">
<ele>6.410</ele>
<time>2018-01-24T04:52:40.571Z</time>
</trkpt>
<trkpt lat="-27.9074930" lon="153.3171465">
<ele>6.509</ele>
<time>2018-01-24T04:52:43.552Z</time>
</trkpt>
<trkpt lat="-27.9069367" lon="153.3170023">
<ele>6.698</ele>
<time>2018-01-24T04:52:45.551Z</time>
</trkpt>
<trkpt lat="-27.9063844" lon="153.3168254">
<ele>6.996</ele>
<time>2018-01-24T04:52:47.556Z</time>
</trkpt>
<trkpt lat="-27.9058306" lon="153.3166441">
<ele>7.180</ele>
<time>2018-01-24T04:52:49.560Z</time>
</trkpt>
<trkpt lat="-27.9052649" lon="153.3164846">
<ele>6.947</ele>
<time>2018-01-24T04:52:51.584Z</time>
</trkpt>
<trkpt lat="-27.9047157" lon="153.3163190">
<ele>6.345</ele>
<time>2018-01-24T04:52:53.572Z</time>
</trkpt>
<trkpt lat="-27.9041801" lon="153.3161699">
<ele>5.745</ele>
<time>2018-01-24T04:52:55.553Z</time>
</trkpt>
<trkpt lat="-27.9036593" lon="153.3160262">
<ele>5.408</ele>
<time>2018-01-24T04:52:57.535Z</time>
</trkpt>
<trkpt lat="-27.9031454" lon="153.3158676">
<ele>5.235</ele>
<time>2018-01-24T04:52:59.500Z</time>
</trkpt>
<trkpt lat="-27.9026122" lon="153.3156922">
<ele>4.955</ele>
<time>2018-01-24T04:53:01.509Z</time>
</trkpt>
<trkpt lat="-27.9020724" lon="153.3155062">
<ele>4.382</ele>
<time>2018-01-24T04:53:03.531Z</time>
</trkpt>
<trkpt lat="-27.9015710" lon="153.3153099">
<ele>3.603</ele>
<time>2018-01-24T04:53:05.437Z</time>
</trkpt>
<trkpt lat="-27.9010284" lon="153.3151439">
<ele>2.891</ele>
<time>2018-01-24T04:53:07.464Z</time>
</trkpt>
<trkpt lat="-27.9005107" lon="153.3149790">
<ele>2.440</ele>
<time>2018-01-24T04:53:09.414Z</time>
</trkpt>
<trkpt lat="-27.8999855" lon="153.3148339">
<ele>2.137</ele>
<time>2018-01-24T04:53:11.399Z</time>
</trkpt>
<trkpt lat="-27.8994593" lon="153.3147224">
<ele>1.678</ele>
<time>2018-01-24T04:53:13.399Z</time>
</trkpt>
<trkpt lat="-27.8989570" lon="153.3146163">
<ele>0.992</ele>
<time>2018-01-24T04:53:15.338Z</time>
</trkpt>
<trkpt lat="-27.8984260" lon="153.3145109">
<ele>0.367</ele>
<time>2018-01-24T04:53:17.410Z</time>
</trkpt>
<trkpt lat="-27.8979263" lon="153.3144364">
<ele>0.161</ele>
<time>2018-01-24T04:53:19.356Z</time>
</trkpt>
<trkpt lat="-27.8971498" lon="153.3143588">
<ele>0.403</ele>
<time>2018-01-24T04:53:22.325Z</time>
</trkpt>
<trkpt lat="-27.8963213" lon="153.3142891">
<ele>0.531</ele>
<time>2018-01-24T04:53:25.366Z</time>
</trkpt>
<trkpt lat="-27.8954619" lon="153.3142042">
<ele>0.074</ele>
<time>2018-01-24T04:53:28.370Z</time>
</trkpt>
<trkpt lat="-27.8945531" lon="153.3142090">
<ele>0.000</ele>
<time>2018-01-24T04:53:31.451Z</time>
</trkpt>
<trkpt lat="-27.8937092" lon="153.3142411">
<ele>0.000</ele>
<time>2018-01-24T04:53:34.361Z</time>
</trkpt>
<trkpt lat="-27.8928886" lon="153.3142942">
<ele>0.000</ele>
<time>2018-01-24T04:53:37.280Z</time>
</trkpt>
<trkpt lat="-27.8920431" lon="153.3143546">
<ele>0.000</ele>
<time>2018-01-24T04:53:40.326Z</time>
</trkpt>
<trkpt lat="-27.8912225" lon="153.3144404">
<ele>0.000</ele>
<time>2018-01-24T04:53:43.343Z</time>
</trkpt>
<trkpt lat="-27.8904746" lon="153.3145627">
<ele>0.000</ele>
<time>2018-01-24T04:53:46.205Z</time>
</trkpt>
<trkpt lat="-27.8897034" lon="153.3147207">
<ele>0.000</ele>
<time>2018-01-24T04:53:49.222Z</time>
</trkpt>
<trkpt lat="-27.8889184" lon="153.3148982">
<ele>0.000</ele>
<time>2018-01-24T04:53:52.285Z</time>
</trkpt>
<trkpt lat="-27.8881520" lon="153.3150580">
<ele>0.000</ele>
<time>2018-01-24T04:53:55.255Z</time>
</trkpt>
<trkpt lat="-27.8873724" lon="153.3151642">
<ele>0.000</ele>
<time>2018-01-24T04:53:58.246Z</time>
</trkpt>
<trkpt lat="-27.8865880" lon="153.3152200">
<ele>0.000</ele>
<time>2018-01-24T04:54:01.218Z</time>
</trkpt>
<trkpt lat="-27.8857712" lon="153.3152891">
<ele>0.000</ele>
<time>2018-01-24T04:54:04.307Z</time>
</trkpt>
<trkpt lat="-27.8857712" lon="153.3152891">
<ele>0.000</ele>
<time>2018-01-24T04:54:04.307Z</time>
</trkpt>
<trkpt lat="-27.8822626" lon="153.3153015">
<ele>1.480</ele>
<time>2018-01-24T04:54:17.710Z</time>
</trkpt>
<trkpt lat="-27.8817705" lon="153.3152663">
<ele>1.480</ele>
<time>2018-01-24T04:54:19.662Z</time>
</trkpt>
<trkpt lat="-27.8810076" lon="153.3151928">
<ele>1.523</ele>
<time>2018-01-24T04:54:22.708Z</time>
</trkpt>
<trkpt lat="-27.8805137" lon="153.3151020">
<ele>1.826</ele>
<time>2018-01-24T04:54:24.726Z</time>
</trkpt>
<trkpt lat="-27.8800249" lon="153.3150121">
<ele>2.552</ele>
<time>2018-01-24T04:54:26.740Z</time>
</trkpt>
<trkpt lat="-27.8795549" lon="153.3149297">
<ele>3.419</ele>
<time>2018-01-24T04:54:28.688Z</time>
</trkpt>
<trkpt lat="-27.8790858" lon="153.3148353">
<ele>3.939</ele>
<time>2018-01-24T04:54:30.695Z</time>
</trkpt>
<trkpt lat="-27.8786453" lon="153.3147290">
<ele>3.978</ele>
<time>2018-01-24T04:54:32.681Z</time>
</trkpt>
<trkpt lat="-27.8782283" lon="153.3146168">
<ele>3.684</ele>
<time>2018-01-24T04:54:34.805Z</time>
</trkpt>
<trkpt lat="-27.8779171" lon="153.3145142">
<ele>3.170</ele>
<time>2018-01-24T04:54:36.786Z</time>
</trkpt>
<trkpt lat="-27.8776677" lon="153.3144643">
<ele>2.562</ele>
<time>2018-01-24T04:54:38.583Z</time>
</trkpt>
<trkpt lat="-27.8774455" lon="153.3143979">
<ele>2.076</ele>
<time>2018-01-24T04:54:40.186Z</time>
</trkpt>
<trkpt lat="-27.8771071" lon="153.3143040">
<ele>1.839</ele>
<time>2018-01-24T04:54:42.323Z</time>
</trkpt>
<trkpt lat="-27.8767046" lon="153.3142119">
<ele>1.750</ele>
<time>2018-01-24T04:54:44.498Z</time>
</trkpt>
<trkpt lat="-27.8763197" lon="153.3141067">
<ele>1.648</ele>
<time>2018-01-24T04:54:46.481Z</time>
</trkpt>
<trkpt lat="-27.8759197" lon="153.3139952">
<ele>1.464</ele>
<time>2018-01-24T04:54:48.523Z</time>
</trkpt>
<trkpt lat="-27.8755274" lon="153.3138798">
<ele>1.207</ele>
<time>2018-01-24T04:54:50.519Z</time>
</trkpt>
<trkpt lat="-27.8751021" lon="153.3138108">
<ele>0.921</ele>
<time>2018-01-24T04:54:52.611Z</time>
</trkpt>
<trkpt lat="-27.8747027" lon="153.3137192">
<ele>0.660</ele>
<time>2018-01-24T04:54:54.527Z</time>
</trkpt>
<trkpt lat="-27.8742663" lon="153.3136353">
<ele>0.453</ele>
<time>2018-01-24T04:54:56.526Z</time>
</trkpt>
<trkpt lat="-27.8738145" lon="153.3135829">
<ele>0.297</ele>
<time>2018-01-24T04:54:58.535Z</time>
</trkpt>
<trkpt lat="-27.8733611" lon="153.3135273">
<ele>0.115</ele>
<time>2018-01-24T04:55:00.541Z</time>
</trkpt>
<trkpt lat="-27.8729055" lon="153.3134853">
<ele>0.000</ele>
<time>2018-01-24T04:55:02.554Z</time>
</trkpt>
<trkpt lat="-27.8724605" lon="153.3134182">
<ele>0.000</ele>
<time>2018-01-24T04:55:04.545Z</time>
</trkpt>
<trkpt lat="-27.8719994" lon="153.3133748">
<ele>0.000</ele>
<time>2018-01-24T04:55:06.614Z</time>
</trkpt>
<trkpt lat="-27.8715582" lon="153.3133183">
<ele>0.000</ele>
<time>2018-01-24T04:55:08.635Z</time>
</trkpt>
<trkpt lat="-27.8711568" lon="153.3132617">
<ele>0.000</ele>
<time>2018-01-24T04:55:10.530Z</time>
</trkpt>
<trkpt lat="-27.8707409" lon="153.3132254">
<ele>0.000</ele>
<time>2018-01-24T04:55:12.522Z</time>
</trkpt>
<trkpt lat="-27.8703191" lon="153.3131730">
<ele>0.000</ele>
<time>2018-01-24T04:55:14.562Z</time>
</trkpt>
<trkpt lat="-27.8698986" lon="153.3131229">
<ele>0.000</ele>
<time>2018-01-24T04:55:16.589Z</time>
</trkpt>
<trkpt lat="-27.8694620" lon="153.3130757">
<ele>0.375</ele>
<time>2018-01-24T04:55:18.687Z</time>
</trkpt>
<trkpt lat="-27.8690419" lon="153.3130160">
<ele>0.563</ele>
<time>2018-01-24T04:55:20.742Z</time>
</trkpt>
<trkpt lat="-27.8686588" lon="153.3129398">
<ele>0.671</ele>
<time>2018-01-24T04:55:22.731Z</time>
</trkpt>
<trkpt lat="-27.8683182" lon="153.3128663">
<ele>0.768</ele>
<time>2018-01-24T04:55:24.627Z</time>
</trkpt>
<trkpt lat="-27.8679755" lon="153.3127725">
<ele>0.881</ele>
<time>2018-01-24T04:55:26.570Z</time>
</trkpt>
<trkpt lat="-27.8676212" lon="153.3126515">
<ele>1.017</ele>
<time>2018-01-24T04:55:28.539Z</time>
</trkpt>
<trkpt lat="-27.8672479" lon="153.3125458">
<ele>1.126</ele>
<time>2018-01-24T04:55:30.543Z</time>
</trkpt>
<trkpt lat="-27.8668863" lon="153.3124362">
<ele>1.188</ele>
<time>2018-01-24T04:55:32.513Z</time>
</trkpt>
<trkpt lat="-27.8665355" lon="153.3123259">
<ele>1.245</ele>
<time>2018-01-24T04:55:34.473Z</time>
</trkpt>
<trkpt lat="-27.8662152" lon="153.3122096">
<ele>1.302</ele>
<time>2018-01-24T04:55:36.307Z</time>
</trkpt>
<trkpt lat="-27.8658713" lon="153.3120825">
<ele>1.277</ele>
<time>2018-01-24T04:55:38.290Z</time>
</trkpt>
<trkpt lat="-27.8655113" lon="153.3119644">
<ele>1.135</ele>
<time>2018-01-24T04:55:40.380Z</time>
</trkpt>
<trkpt lat="-27.8651999" lon="153.3118463">
<ele>0.995</ele>
<time>2018-01-24T04:55:42.329Z</time>
</trkpt>
<trkpt lat="-27.8649391" lon="153.3117432">
<ele>1.034</ele>
<time>2018-01-24T04:55:44.116Z</time>
</trkpt>
<trkpt lat="-27.8646709" lon="153.3116227">
<ele>1.249</ele>
<time>2018-01-24T04:55:46.128Z</time>
</trkpt>
<trkpt lat="-27.8644261" lon="153.3115102">
<ele>1.342</ele>
<time>2018-01-24T04:55:48.063Z</time>
</trkpt>
<trkpt lat="-27.8641847" lon="153.3114116">
<ele>1.117</ele>
<time>2018-01-24T04:55:49.948Z</time>
</trkpt>
<trkpt lat="-27.8639302" lon="153.3112853">
<ele>0.809</ele>
<time>2018-01-24T04:55:51.926Z</time>
</trkpt>
<trkpt lat="-27.8636744" lon="153.3111268">
<ele>0.743</ele>
<time>2018-01-24T04:55:53.931Z</time>
</trkpt>
<trkpt lat="-27.8634110" lon="153.3109615">
<ele>0.988</ele>
<time>2018-01-24T04:55:55.971Z</time>
</trkpt>
<trkpt lat="-27.8631450" lon="153.3108285">
<ele>1.363</ele>
<time>2018-01-24T04:55:57.958Z</time>
</trkpt>
<trkpt lat="-27.8629064" lon="153.3106827">
<ele>1.574</ele>
<time>2018-01-24T04:55:59.866Z</time>
</trkpt>
<trkpt lat="-27.8626967" lon="153.3104884">
<ele>1.453</ele>
<time>2018-01-24T04:56:01.821Z</time>
</trkpt>
<trkpt lat="-27.8625326" lon="153.3102063">
<ele>1.089</ele>
<time>2018-01-24T04:56:04.017Z</time>
</trkpt>
<trkpt lat="-27.8624174" lon="153.3099371">
<ele>0.727</ele>
<time>2018-01-24T04:56:06.043Z</time>
</trkpt>
<trkpt lat="-27.8623457" lon="153.3096757">
<ele>0.530</ele>
<time>2018-01-24T04:56:08.055Z</time>
</trkpt>
<trkpt lat="-27.8623398" lon="153.3094632">
<ele>0.594</ele>
<time>2018-01-24T04:56:09.935Z</time>
</trkpt>
<trkpt lat="-27.8622678" lon="153.3093514">
<ele>1.014</ele>
<time>2018-01-24T04:56:11.360Z</time>
</trkpt>
<trkpt lat="-27.8621057" lon="153.3093764">
<ele>1.630</ele>
<time>2018-01-24T04:56:13.628Z</time>
</trkpt>
<trkpt lat="-27.8619581" lon="153.3094264">
<ele>2.090</ele>
<time>2018-01-24T04:56:15.842Z</time>
</trkpt>
<trkpt lat="-27.8618173" lon="153.3094533">
<ele>2.390</ele>
<time>2018-01-24T04:56:17.888Z</time>
</trkpt>
<trkpt lat="-27.8615961" lon="153.3094738">
<ele>2.903</ele>
<time>2018-01-24T04:56:21.070Z</time>
</trkpt>
<trkpt lat="-27.8614840" lon="153.3094814">
<ele>3.783</ele>
<time>2018-01-24T04:56:22.817Z</time>
</trkpt>
<trkpt lat="-27.8614151" lon="153.3094118">
<ele>4.704</ele>
<time>2018-01-24T04:56:25.032Z</time>
</trkpt>
<trkpt lat="-27.8614050" lon="153.3092683">
<ele>5.269</ele>
<time>2018-01-24T04:56:28.326Z</time>
</trkpt>
<trkpt lat="-27.8613912" lon="153.3091483">
<ele>5.292</ele>
<time>2018-01-24T04:56:31.793Z</time>
</trkpt>
<trkpt lat="-27.8614283" lon="153.3090132">
<ele>4.785</ele>
<time>2018-01-24T04:56:35.270Z</time>
</trkpt>
<trkpt lat="-27.8614116" lon="153.3088964">
<ele>4.047</ele>
<time>2018-01-24T04:56:38.683Z</time>
</trkpt>
<trkpt lat="-27.8612929" lon="153.3088117">
<ele>3.506</ele>
<time>2018-01-24T04:56:42.958Z</time>
</trkpt>
<trkpt lat="-27.8611844" lon="153.3088345">
<ele>3.371</ele>
<time>2018-01-24T04:56:45.424Z</time>
</trkpt>
<trkpt lat="-27.8610920" lon="153.3088293">
<ele>3.607</ele>
<time>2018-01-24T04:56:47.785Z</time>
</trkpt>
<trkpt lat="-27.8610382" lon="153.3087446">
<ele>3.983</ele>
<time>2018-01-24T04:56:50.998Z</time>
</trkpt>
<trkpt lat="-27.8610382" lon="153.3087446">
<ele>4.204</ele>
<time>2018-01-24T04:56:53.998Z</time>
</trkpt>
<trkpt lat="-27.8610382" lon="153.3087446">
<ele>4.187</ele>
<time>2018-01-24T05:01:22.629Z</time>
</trkpt>
<trkpt lat="-27.8608319" lon="153.3089142">
<ele>4.102</ele>
<time>2018-01-24T05:05:00.999Z</time>
</trkpt>
<trkpt lat="-27.8608319" lon="153.3089142">
<ele>4.098</ele>
<time>2018-01-24T05:05:03.999Z</time>
</trkpt>
<trkpt lat="-27.8608319" lon="153.3089142">
<ele>4.137</ele>
<time>2018-01-24T05:07:12.000Z</time>
</trkpt>
<trkpt lat="-27.8609234" lon="153.3087682">
<ele>12.288</ele>
<time>2018-01-24T05:07:27.000Z</time>
</trkpt>
<trkpt lat="-27.8609234" lon="153.3087682">
<ele>12.282</ele>
<time>2018-01-24T05:07:30.000Z</time>
</trkpt>
<trkpt lat="-27.8609234" lon="153.3087682">
<ele>12.279</ele>
<time>2018-01-24T05:07:33.000Z</time>
</trkpt>
<trkpt lat="-27.8607038" lon="153.3088771">
<ele>12.710</ele>
<time>2018-01-24T05:12:47.298Z</time>
</trkpt>
<trkpt lat="-27.8607038" lon="153.3088771">
<ele>12.710</ele>
<time>2018-01-24T05:12:47.298Z</time>
</trkpt>
<trkpt lat="-27.8606970" lon="153.3087938">
<ele>12.384</ele>
<time>2018-01-24T05:13:41.687Z</time>
</trkpt>
<trkpt lat="-27.8606970" lon="153.3087938">
<ele>12.384</ele>
<time>2018-01-24T05:13:41.687Z</time>
</trkpt>
<trkpt lat="-27.8607666" lon="153.3084719">
<ele>11.717</ele>
<time>2018-01-24T05:17:17.129Z</time>
</trkpt>
<trkpt lat="-27.8607666" lon="153.3084719">
<ele>11.717</ele>
<time>2018-01-24T05:17:17.129Z</time>
</trkpt>
<trkpt lat="-27.8607937" lon="153.3083768">
<ele>2.214</ele>
<time>2018-01-24T05:18:22.158Z</time>
</trkpt>
<trkpt lat="-27.8607937" lon="153.3083768">
<ele>2.214</ele>
<time>2018-01-24T05:18:22.158Z</time>
</trkpt>
<trkpt lat="-27.8607693" lon="153.3087138">
<ele>12.062</ele>
<time>2018-01-24T05:31:20.240Z</time>
</trkpt>
<trkpt lat="-27.8607693" lon="153.3087138">
<ele>12.062</ele>
<time>2018-01-24T05:31:20.240Z</time>
</trkpt>
<trkpt lat="-27.8607537" lon="153.3087475">
<ele>12.218</ele>
<time>2018-01-24T05:32:50.000Z</time>
</trkpt>
<trkpt lat="-27.8607537" lon="153.3087475">
<ele>12.212</ele>
<time>2018-01-24T05:32:54.000Z</time>
</trkpt>
</trkseg>
</trk>
<extensions>
<fpdata xmlns="http://www.motionx.com/GPX-Extensions/1/1" sfv="10" origin="MotionXGPSFull 24.2 Build 5063R64">
<bin enc="base64">
RgIAAAACAAAAFvbvR+6Z1kEBAAAAE0afZQea1kFkO3QJeP7SQKAbAADKD68B5pf9RSWk
PECkcT2om2woQAAAAAASAAAATWFjL0tlbuKAmXMgVHJhY2sAFQAAADI0IEphbiAyMDE4
ICA4OjM3IGFtAAAAAAA0Rp9lB5rWQbTNSmwHmtZB9rQuAcCD11bRsZZALAAAAAAAAAAE
IrzQbCZjQLCatqyWszvA5pf9RSWkPEAAAAAAAAAQQAAAAAAAAAhAAAAAAAByrkAAAAAA
AAAAAAAAAAAK16NwPRpqQHgarihmMBBAAQAAANNwEdgW44A/AQAAAAEAAADfycYaXFi7
P5XXMKTLVry/AQAAAAEAAAAAAAAAAAAAAAAAAAAAAAAAAAAAAAAAAAAAAAAAAAAAAAAA
AAAAAAAADAAAAAAAAAAAAAAA/AAAAGACgKEGmtZBAAAAAAAAAAAAAAAAAAAAAP8lRLwC
AAAAAAAAAAAAAAABAAAAJwAAADI0LjIgQnVpbGQgNTA2M1I2NCwgTVhBRSA4LjEgYi4g
NjI2UjY0AAAAAACcXgAAAQAAAAFRAAAAH7lnWoYaaFoEGvfvR+6Z1kEa9+9H7pnWQQAA
AAAAABA/AAAAAAIj9u9H7pnWQVbvCYLumdZBAACAmfwMbUAAAAAAAu5eS4TumdZB04QJ
hu6Z1kEAAACMD+xtQAAAAAAD0h4xL/GZ1kHSHjEv8ZnWQQAAiJ/dG6dAAAAAAAQQ7Uc1
8ZnWQRDtRzXxmdZBAACwEJRMp0AAAAAAAhqKjYfumdZBxGFJZ/GZ1kEAABC2n9yoQAAA
AAAC9HHKc/GZ1kE/xUmS8ZnWQQAAaFCa0KlAAAAAAAKl9cub8ZnWQXnKyQLymdZBAAAI
94gIrUAAAAAAAr5uiiLymdZBy2WJMPOZ1kEAALhXQLyyQAAAAAAC0NZMpfOZ1kFDcYj8
85nWQQAAhMEuGbRAAAAAAAJ4Ysz+85nWQbmniQf0mdZBAACI1iM8tEAAAAAAAtBmCwv0
mdZBXkrKEvSZ1kEAAMBkH1u0QAAAAAACrG/LFfSZ1kFuTYkb9JnWQQAAyNsWcrRAAAAA
AANbJbBi9JnWQVslsGL0mdZBAADI2xZytEAAAAAABBx7TWb0mdZBHHtNZvSZ1kEAAMjb
FnK0QAAAAAAC5stOZvSZ1kFWRkxn9JnWQcHKKQtDdrRAAAAAAAIoDA539JnWQaD/ynf0
mdZBwcoJ2TZ5tEAAAAAAAn4dTX/0mdZBu2DLgvSZ1kHByv3lL4e0QAAAAAADyK/xkvSZ
1kHIr/GS9JnWQcHK/eUvh7RAAAAAAASy+AuV9JnWQbL4C5X0mdZBwcr95S+HtEAAAAAA
ArkaD5X0mdZBwK7OlfSZ1kFfusH8+Yq0QAAAAAADlE8xuPSZ1kGUTzG49JnWQV+6wfz5
irRAAAAAAAQODlC79JnWQQ4OULv0mdZBX7rB/PmKtEAAAAAAAxnHML/0mdZBGccwv/SZ
1kH1/YqmG5u0QAAAAAAE7uuNyfSZ1kHu643J9JnWQfX9mjmQxLRAAAAAAAOBI/Bu9ZnW
QYEj8G71mdZB9f0qGBlat0AAAAAABB7hjXT1mdZBHuGNdPWZ1kH1/VoOkHC3QAAAAAAD
9kMwnfWZ1kH2QzCd9ZnWQfX93JkZE7hAAAAAAAQe+Img9ZnWQR74iaD1mdZB9f1caoAg
uEAAAAAAAuc3Urv0mdZBwXOKoPWZ1kH1/bRYgiC4QAAAAAADrIvxofWZ1kGsi/Gh9ZnW
QfX9tFiCILhAAAAAAAQ89dKn9ZnWQTz10qf1mdZB9f20WIIguEAAAAAAA87fL/b1mdZB
zt8v9vWZ1kGZbiozKVu5QAAAAAAETMKN+fWZ1kFMwo359ZnWQZlu4LygaLlAAAAAAAOD
+rAI9pnWQYP6sAj2mdZBmW6InS2luUAAAAAABPhTTg32mdZB+FNODfaZ1kGZbmwDo7e5
QAAAAAADvJFvN/aZ1kG8kW839pnWQZlusvonYLpAAAAAAASuZtA69pnWQa5m0Dr2mdZB
mW5ETqttukAAAAAAAy49LXL2mdZBLj0tcvaZ1kGZbnaoHku7QAAAAAAEZhCOdfaZ1kFm
EI519pnWQZluOPWhWLtAAAAAAALi69On9ZnWQYxrULz3mdZBTDfNsNU5wEAAAAAAAoQS
VcH3mdZB+5QI0/eZ1kFMN7u1PF3AQAAAAAACQPvQ8veZ1kFK8cs++JnWQUw3z6Ey9cBA
AAAAAAKAEBFG+JnWQVJ6SnX4mdZBTDdzdaVTwUAAAAAAAs+FkY34mdZBFERN5fiZ1kFM
N/3xHAPCQAAAAAACaQCK6PiZ1kHTassW+ZnWQUw30cafX8JAAAAAAAIEcY84+ZnWQeUM
TXv6mdZBTDeT/hrlxEAAAAAAAqYLj/H6mdZBOWKNA/uZ1kFMN7mrFwnFQAAAAAACtg8K
BfuZ1kH09kwI+5nWQUw3NXqdD8VAAAAAAAJSEE4K+5nWQWrdzwv7mdZBTDdlFKESxUAA
AAAAAmx9Thf7mdZBd72NG/uZ1kFMN3uUHxvFQAAAAAACDCBN2fyZ1kHZBw3b/JnWQUw3
FWSfHsVAAAAAAAL61Y5T/ZnWQcsQzQ7/mdZBTDe32RuVyEAAAAAAAsItURD/mdZBbvdN
GACa1kFMNw9tFaXKQAAAAAACmdYQGgCa1kGsqI2cAZrWQUw3NREPqs1AAAAAAAIf2g6m
AZrWQeZXjnsCmtZBTDfDDA5Vz0AAAAAAAkJ7kH0CmtZBacVNsAKa1kFMNxGhiLrPQAAA
AAACHo6QtQKa1kHc943ZAprWQaabRrpBAdBAAAAAAAKSCVDbAprWQch/zhIDmtZBppt8
MMA40EAAAAAAApxpUBUDmtZB/P0NWwOa1kGmm9zEfX7QQAAAAAACsOkQYgOa1kFKQd/G
A5rWQaabdhxM49BAAAAAAAMd5WVbBJrWQR3lZVsEmtZBphsNkt510UAAAAAABBZMDV4E
mtZBFkwNXgSa1kGmG+34hXjRQAAAAAACqG/TyAOa1kFzgY2FBJrWQaabQS4GoNFAAAAA
AALMY1D/BJrWQc7/DgAFmtZBpptDysSg0UAAAAAAA7cMJiAFmtZBtwwmIAWa1kGmm0PK
xKDRQAAAAAAELNTNIwWa1kEs1M0jBZrWQaabQ8rEoNFAAAAAAAKCw84jBZrWQcYxjyQF
mtZBppuHOM2h0UAAAAAAA+qTZCUFmtZB6pNkJQWa1kGmm4c4zaHRQAAAAAAEpnlPRQWa
1kGmeU9FBZrWQaabhzjNodFAAAAAAANk6GVHBZrWQWToZUcFmtZBZDuEwU+k0UAAAAAA
BBBWjkoFmtZBEFaOSgWa1kFkOyAveKfRQAAAAAADkGhlWAWa1kGQaGVYBZrWQWS7o0FP
tdFAAAAAAASBBk5hBZrWQYEGTmEFmtZBZDuQ3ze+0UAAAAAAA1+0JWUFmtZBX7QlZQWa
1kFkO3+ND8LRQAAAAAAE4INMaAWa1kHgg0xoBZrWQWS75lw2xdFAAAAAAAP2KyXGBZrW
QfYrJcYFmtZBZDsVBQ8j0kAAAAAABAGIjckFmtZBAYiNyQWa1kFkOxRhdybSQAAAAAAD
0uFkngaa1kHS4WSeBprWQWS76bpO+9JAAAAAAAQSiI6gBprWQRKIjqAGmtZBZDslYXj9
0kAAAAAAAqCOUEUFmtZBcjCOoQaa1kFkO3QJeP7SQAAAAAAAAAAA
</bin>
</fpdata>
</extensions>
</gpx>